<?xml version="1.0" encoding="UTF-8" standalone="no" ?>
<gpx xmlns="http://www.topografix.com/GPX/1/1" xmlns:xsi="http://www.w3.org/2001/XMLSchema-instance" xsi:schemaLocation="http://www.topografix.com/GPX/1/1 http://www.topografix.com/GPX/1/1/gpx.xsd" version="1.1" creator="VisuGPX - https://www.visugpx.com">
  <metadata>
    <name>VTT AM / RANDO CABRIERES</name>
    <desc><![CDATA[Sortie rando (typée AM). il s'agit du parcours 30kms de la rando annuelle de Cabrières.]]></desc>
  </metadata>
  <trk>
    <name><![CDATA[Rando VTT Cabrieres 2017]]></name>
    <trkseg>
      <trkpt lat="43.57747" lon="3.36255">
        <ele>123.1</ele>
        <time>2017-11-19T06:54:01Z</time>
      </trkpt>
      <trkpt lat="43.57739" lon="3.36261">
        <ele>122.6</ele>
        <time>2017-11-19T06:54:12Z</time>
      </trkpt>
      <trkpt lat="43.57738" lon="3.36257">
        <ele>122.8</ele>
        <time>2017-11-19T06:54:32Z</time>
      </trkpt>
      <trkpt lat="43.57735" lon="3.36256">
        <ele>122.7</ele>
        <time>2017-11-19T06:54:57Z</time>
      </trkpt>
      <trkpt lat="43.57732" lon="3.36254">
        <ele>122.9</ele>
        <time>2017-11-19T06:55:52Z</time>
      </trkpt>
      <trkpt lat="43.5773" lon="3.36251">
        <ele>122.8</ele>
        <time>2017-11-19T06:55:59Z</time>
      </trkpt>
      <trkpt lat="43.5773" lon="3.36255">
        <ele>122.5</ele>
        <time>2017-11-19T06:56:03Z</time>
      </trkpt>
      <trkpt lat="43.57733" lon="3.36258">
        <ele>122.6</ele>
        <time>2017-11-19T06:56:06Z</time>
      </trkpt>
      <trkpt lat="43.57736" lon="3.36257">
        <ele>122.7</ele>
        <time>2017-11-19T06:56:13Z</time>
      </trkpt>
      <trkpt lat="43.57738" lon="3.36254">
        <ele>123.1</ele>
        <time>2017-11-19T06:56:17Z</time>
      </trkpt>
      <trkpt lat="43.57736" lon="3.36253">
        <ele>123</ele>
        <time>2017-11-19T06:56:41Z</time>
      </trkpt>
      <trkpt lat="43.57734" lon="3.36256">
        <ele>122.6</ele>
        <time>2017-11-19T06:56:55Z</time>
      </trkpt>
      <trkpt lat="43.57731" lon="3.36257">
        <ele>122.6</ele>
        <time>2017-11-19T06:57:26Z</time>
      </trkpt>
      <trkpt lat="43.57733" lon="3.36261">
        <ele>122.3</ele>
        <time>2017-11-19T06:57:40Z</time>
      </trkpt>
      <trkpt lat="43.57731" lon="3.36259">
        <ele>122.5</ele>
        <time>2017-11-19T06:58:02Z</time>
      </trkpt>
      <trkpt lat="43.57733" lon="3.36259">
        <ele>122.6</ele>
        <time>2017-11-19T06:58:19Z</time>
      </trkpt>
      <trkpt lat="43.57734" lon="3.36255">
        <ele>122.6</ele>
        <time>2017-11-19T06:58:39Z</time>
      </trkpt>
      <trkpt lat="43.57736" lon="3.36259">
        <ele>122.4</ele>
        <time>2017-11-19T06:59:12Z</time>
      </trkpt>
      <trkpt lat="43.57737" lon="3.36263">
        <ele>122.4</ele>
        <time>2017-11-19T06:59:14Z</time>
      </trkpt>
      <trkpt lat="43.57738" lon="3.36267">
        <ele>122.3</ele>
        <time>2017-11-19T06:59:16Z</time>
      </trkpt>
      <trkpt lat="43.57741" lon="3.3627">
        <ele>122.2</ele>
        <time>2017-11-19T06:59:20Z</time>
      </trkpt>
      <trkpt lat="43.57741" lon="3.36266">
        <ele>122.4</ele>
        <time>2017-11-19T06:59:25Z</time>
      </trkpt>
      <trkpt lat="43.57739" lon="3.36263">
        <ele>122.6</ele>
        <time>2017-11-19T06:59:28Z</time>
      </trkpt>
      <trkpt lat="43.57737" lon="3.3626">
        <ele>122.4</ele>
        <time>2017-11-19T06:59:32Z</time>
      </trkpt>
      <trkpt lat="43.57734" lon="3.36261">
        <ele>122.3</ele>
        <time>2017-11-19T06:59:36Z</time>
      </trkpt>
      <trkpt lat="43.57736" lon="3.36264">
        <ele>122.2</ele>
        <time>2017-11-19T06:59:40Z</time>
      </trkpt>
      <trkpt lat="43.57738" lon="3.36261">
        <ele>122.6</ele>
        <time>2017-11-19T06:59:43Z</time>
      </trkpt>
      <trkpt lat="43.57736" lon="3.36257">
        <ele>122.7</ele>
        <time>2017-11-19T06:59:45Z</time>
      </trkpt>
      <trkpt lat="43.57735" lon="3.3626">
        <ele>122.4</ele>
        <time>2017-11-19T07:00:19Z</time>
      </trkpt>
      <trkpt lat="43.57733" lon="3.36265">
        <ele>122.1</ele>
        <time>2017-11-19T07:00:21Z</time>
      </trkpt>
      <trkpt lat="43.57734" lon="3.36261">
        <ele>122.3</ele>
        <time>2017-11-19T07:00:27Z</time>
      </trkpt>
      <trkpt lat="43.5773" lon="3.36266">
        <ele>122</ele>
        <time>2017-11-19T07:00:37Z</time>
      </trkpt>
      <trkpt lat="43.57729" lon="3.36269">
        <ele>121.7</ele>
        <time>2017-11-19T07:00:38Z</time>
      </trkpt>
      <trkpt lat="43.57731" lon="3.36273">
        <ele>121.5</ele>
        <time>2017-11-19T07:00:40Z</time>
      </trkpt>
      <trkpt lat="43.57734" lon="3.36273">
        <ele>121.5</ele>
        <time>2017-11-19T07:00:43Z</time>
      </trkpt>
      <trkpt lat="43.57736" lon="3.3627">
        <ele>121.9</ele>
        <time>2017-11-19T07:00:46Z</time>
      </trkpt>
      <trkpt lat="43.57735" lon="3.36265">
        <ele>122.2</ele>
        <time>2017-11-19T07:00:49Z</time>
      </trkpt>
      <trkpt lat="43.57732" lon="3.36263">
        <ele>122.1</ele>
        <time>2017-11-19T07:00:52Z</time>
      </trkpt>
      <trkpt lat="43.5773" lon="3.36266">
        <ele>122</ele>
        <time>2017-11-19T07:00:55Z</time>
      </trkpt>
      <trkpt lat="43.57732" lon="3.36269">
        <ele>121.8</ele>
        <time>2017-11-19T07:00:57Z</time>
      </trkpt>
      <trkpt lat="43.57735" lon="3.36268">
        <ele>121.9</ele>
        <time>2017-11-19T07:00:59Z</time>
      </trkpt>
      <trkpt lat="43.57736" lon="3.36264">
        <ele>122.2</ele>
        <time>2017-11-19T07:01:03Z</time>
      </trkpt>
      <trkpt lat="43.57733" lon="3.36265">
        <ele>122.1</ele>
        <time>2017-11-19T07:01:09Z</time>
      </trkpt>
      <trkpt lat="43.57731" lon="3.36269">
        <ele>121.7</ele>
        <time>2017-11-19T07:01:11Z</time>
      </trkpt>
      <trkpt lat="43.57733" lon="3.36274">
        <ele>121.5</ele>
        <time>2017-11-19T07:01:13Z</time>
      </trkpt>
      <trkpt lat="43.57737" lon="3.36279">
        <ele>121.5</ele>
        <time>2017-11-19T07:01:15Z</time>
      </trkpt>
      <trkpt lat="43.57741" lon="3.36285">
        <ele>121.4</ele>
        <time>2017-11-19T07:01:17Z</time>
      </trkpt>
      <trkpt lat="43.57743" lon="3.36288">
        <ele>121.3</ele>
        <time>2017-11-19T07:01:18Z</time>
      </trkpt>
      <trkpt lat="43.57743" lon="3.36292">
        <ele>121.3</ele>
        <time>2017-11-19T07:01:19Z</time>
      </trkpt>
      <trkpt lat="43.57744" lon="3.36297">
        <ele>121.2</ele>
        <time>2017-11-19T07:01:20Z</time>
      </trkpt>
      <trkpt lat="43.57745" lon="3.36301">
        <ele>121.1</ele>
        <time>2017-11-19T07:01:21Z</time>
      </trkpt>
      <trkpt lat="43.57747" lon="3.36304">
        <ele>121</ele>
        <time>2017-11-19T07:01:22Z</time>
      </trkpt>
      <trkpt lat="43.57751" lon="3.36303">
        <ele>121</ele>
        <time>2017-11-19T07:01:24Z</time>
      </trkpt>
      <trkpt lat="43.57754" lon="3.36303">
        <ele>121</ele>
        <time>2017-11-19T07:01:26Z</time>
      </trkpt>
      <trkpt lat="43.57759" lon="3.36304">
        <ele>121</ele>
        <time>2017-11-19T07:01:28Z</time>
      </trkpt>
      <trkpt lat="43.57764" lon="3.36306">
        <ele>120.9</ele>
        <time>2017-11-19T07:01:30Z</time>
      </trkpt>
      <trkpt lat="43.57768" lon="3.36305">
        <ele>120.9</ele>
        <time>2017-11-19T07:01:32Z</time>
      </trkpt>
      <trkpt lat="43.57773" lon="3.36305">
        <ele>120.8</ele>
        <time>2017-11-19T07:01:34Z</time>
      </trkpt>
      <trkpt lat="43.57777" lon="3.36304">
        <ele>120.7</ele>
        <time>2017-11-19T07:01:36Z</time>
      </trkpt>
      <trkpt lat="43.57782" lon="3.36307">
        <ele>120.7</ele>
        <time>2017-11-19T07:01:38Z</time>
      </trkpt>
      <trkpt lat="43.57784" lon="3.36308">
        <ele>120.6</ele>
        <time>2017-11-19T07:01:39Z</time>
      </trkpt>
      <trkpt lat="43.57788" lon="3.3631">
        <ele>120.6</ele>
        <time>2017-11-19T07:01:40Z</time>
      </trkpt>
      <trkpt lat="43.57793" lon="3.36312">
        <ele>120.5</ele>
        <time>2017-11-19T07:01:42Z</time>
      </trkpt>
      <trkpt lat="43.57796" lon="3.36313">
        <ele>120.4</ele>
        <time>2017-11-19T07:01:43Z</time>
      </trkpt>
      <trkpt lat="43.57801" lon="3.36317">
        <ele>120.3</ele>
        <time>2017-11-19T07:01:44Z</time>
      </trkpt>
      <trkpt lat="43.57806" lon="3.3632">
        <ele>120.3</ele>
        <time>2017-11-19T07:01:45Z</time>
      </trkpt>
      <trkpt lat="43.5781" lon="3.36323">
        <ele>120.2</ele>
        <time>2017-11-19T07:01:46Z</time>
      </trkpt>
      <trkpt lat="43.57814" lon="3.36325">
        <ele>120.1</ele>
        <time>2017-11-19T07:01:47Z</time>
      </trkpt>
      <trkpt lat="43.57819" lon="3.36329">
        <ele>120</ele>
        <time>2017-11-19T07:01:48Z</time>
      </trkpt>
      <trkpt lat="43.57824" lon="3.36332">
        <ele>119.8</ele>
        <time>2017-11-19T07:01:49Z</time>
      </trkpt>
      <trkpt lat="43.57829" lon="3.36335">
        <ele>119.6</ele>
        <time>2017-11-19T07:01:50Z</time>
      </trkpt>
      <trkpt lat="43.57834" lon="3.36338">
        <ele>119.2</ele>
        <time>2017-11-19T07:01:51Z</time>
      </trkpt>
      <trkpt lat="43.57838" lon="3.36342">
        <ele>118.7</ele>
        <time>2017-11-19T07:01:52Z</time>
      </trkpt>
      <trkpt lat="43.5784" lon="3.36346">
        <ele>117.8</ele>
        <time>2017-11-19T07:01:53Z</time>
      </trkpt>
      <trkpt lat="43.5784" lon="3.36352">
        <ele>116.1</ele>
        <time>2017-11-19T07:01:54Z</time>
      </trkpt>
      <trkpt lat="43.57837" lon="3.36355">
        <ele>116.2</ele>
        <time>2017-11-19T07:01:55Z</time>
      </trkpt>
      <trkpt lat="43.57833" lon="3.36357">
        <ele>116.3</ele>
        <time>2017-11-19T07:01:56Z</time>
      </trkpt>
      <trkpt lat="43.57829" lon="3.3636">
        <ele>116.4</ele>
        <time>2017-11-19T07:01:57Z</time>
      </trkpt>
      <trkpt lat="43.57823" lon="3.36362">
        <ele>116.5</ele>
        <time>2017-11-19T07:01:58Z</time>
      </trkpt>
      <trkpt lat="43.57819" lon="3.36365">
        <ele>116.7</ele>
        <time>2017-11-19T07:01:59Z</time>
      </trkpt>
      <trkpt lat="43.57815" lon="3.36368">
        <ele>116.8</ele>
        <time>2017-11-19T07:02:00Z</time>
      </trkpt>
      <trkpt lat="43.5781" lon="3.36371">
        <ele>116.9</ele>
        <time>2017-11-19T07:02:01Z</time>
      </trkpt>
      <trkpt lat="43.57806" lon="3.36375">
        <ele>117</ele>
        <time>2017-11-19T07:02:02Z</time>
      </trkpt>
      <trkpt lat="43.57801" lon="3.3638">
        <ele>117</ele>
        <time>2017-11-19T07:02:03Z</time>
      </trkpt>
      <trkpt lat="43.57797" lon="3.36384">
        <ele>117</ele>
        <time>2017-11-19T07:02:04Z</time>
      </trkpt>
      <trkpt lat="43.57792" lon="3.36387">
        <ele>117</ele>
        <time>2017-11-19T07:02:05Z</time>
      </trkpt>
      <trkpt lat="43.57786" lon="3.3639">
        <ele>117</ele>
        <time>2017-11-19T07:02:06Z</time>
      </trkpt>
      <trkpt lat="43.57781" lon="3.36392">
        <ele>117</ele>
        <time>2017-11-19T07:02:07Z</time>
      </trkpt>
      <trkpt lat="43.57776" lon="3.36394">
        <ele>117.1</ele>
        <time>2017-11-19T07:02:08Z</time>
      </trkpt>
      <trkpt lat="43.57771" lon="3.36396">
        <ele>117.2</ele>
        <time>2017-11-19T07:02:09Z</time>
      </trkpt>
      <trkpt lat="43.57766" lon="3.36397">
        <ele>117.2</ele>
        <time>2017-11-19T07:02:10Z</time>
      </trkpt>
      <trkpt lat="43.57761" lon="3.36397">
        <ele>117.3</ele>
        <time>2017-11-19T07:02:11Z</time>
      </trkpt>
      <trkpt lat="43.57755" lon="3.36398">
        <ele>117.3</ele>
        <time>2017-11-19T07:02:12Z</time>
      </trkpt>
      <trkpt lat="43.57751" lon="3.36399">
        <ele>117.4</ele>
        <time>2017-11-19T07:02:13Z</time>
      </trkpt>
      <trkpt lat="43.57745" lon="3.36399">
        <ele>117.4</ele>
        <time>2017-11-19T07:02:14Z</time>
      </trkpt>
      <trkpt lat="43.57739" lon="3.36399">
        <ele>117.5</ele>
        <time>2017-11-19T07:02:15Z</time>
      </trkpt>
      <trkpt lat="43.57733" lon="3.36398">
        <ele>117.6</ele>
        <time>2017-11-19T07:02:16Z</time>
      </trkpt>
      <trkpt lat="43.57727" lon="3.36398">
        <ele>117.7</ele>
        <time>2017-11-19T07:02:17Z</time>
      </trkpt>
      <trkpt lat="43.57721" lon="3.36397">
        <ele>117.8</ele>
        <time>2017-11-19T07:02:18Z</time>
      </trkpt>
      <trkpt lat="43.57716" lon="3.36396">
        <ele>117.9</ele>
        <time>2017-11-19T07:02:19Z</time>
      </trkpt>
      <trkpt lat="43.57711" lon="3.36395">
        <ele>117.9</ele>
        <time>2017-11-19T07:02:20Z</time>
      </trkpt>
      <trkpt lat="43.57706" lon="3.36392">
        <ele>118</ele>
        <time>2017-11-19T07:02:21Z</time>
      </trkpt>
      <trkpt lat="43.577" lon="3.36391">
        <ele>118</ele>
        <time>2017-11-19T07:02:22Z</time>
      </trkpt>
      <trkpt lat="43.57696" lon="3.36391">
        <ele>117.8</ele>
        <time>2017-11-19T07:02:23Z</time>
      </trkpt>
      <trkpt lat="43.57691" lon="3.36391">
        <ele>117.7</ele>
        <time>2017-11-19T07:02:24Z</time>
      </trkpt>
      <trkpt lat="43.57686" lon="3.36392">
        <ele>117.6</ele>
        <time>2017-11-19T07:02:25Z</time>
      </trkpt>
      <trkpt lat="43.57681" lon="3.36392">
        <ele>117.5</ele>
        <time>2017-11-19T07:02:26Z</time>
      </trkpt>
      <trkpt lat="43.57676" lon="3.36392">
        <ele>117.3</ele>
        <time>2017-11-19T07:02:27Z</time>
      </trkpt>
      <trkpt lat="43.57671" lon="3.36393">
        <ele>117.2</ele>
        <time>2017-11-19T07:02:28Z</time>
      </trkpt>
      <trkpt lat="43.57667" lon="3.36392">
        <ele>117.1</ele>
        <time>2017-11-19T07:02:29Z</time>
      </trkpt>
      <trkpt lat="43.57663" lon="3.36391">
        <ele>117</ele>
        <time>2017-11-19T07:02:30Z</time>
      </trkpt>
      <trkpt lat="43.57658" lon="3.3639">
        <ele>116.9</ele>
        <time>2017-11-19T07:02:31Z</time>
      </trkpt>
      <trkpt lat="43.57654" lon="3.36388">
        <ele>116.7</ele>
        <time>2017-11-19T07:02:32Z</time>
      </trkpt>
      <trkpt lat="43.5765" lon="3.36387">
        <ele>116.6</ele>
        <time>2017-11-19T07:02:33Z</time>
      </trkpt>
      <trkpt lat="43.57645" lon="3.36387">
        <ele>116.5</ele>
        <time>2017-11-19T07:02:34Z</time>
      </trkpt>
      <trkpt lat="43.5764" lon="3.36386">
        <ele>116.3</ele>
        <time>2017-11-19T07:02:35Z</time>
      </trkpt>
      <trkpt lat="43.57635" lon="3.36385">
        <ele>116.2</ele>
        <time>2017-11-19T07:02:36Z</time>
      </trkpt>
      <trkpt lat="43.5763" lon="3.36385">
        <ele>115.8</ele>
        <time>2017-11-19T07:02:37Z</time>
      </trkpt>
      <trkpt lat="43.57626" lon="3.36385">
        <ele>115.5</ele>
        <time>2017-11-19T07:02:38Z</time>
      </trkpt>
      <trkpt lat="43.57621" lon="3.36384">
        <ele>115</ele>
        <time>2017-11-19T07:02:39Z</time>
      </trkpt>
      <trkpt lat="43.57616" lon="3.36384">
        <ele>114.5</ele>
        <time>2017-11-19T07:02:40Z</time>
      </trkpt>
      <trkpt lat="43.57611" lon="3.36382">
        <ele>113.8</ele>
        <time>2017-11-19T07:02:41Z</time>
      </trkpt>
      <trkpt lat="43.57606" lon="3.3638">
        <ele>113.2</ele>
        <time>2017-11-19T07:02:42Z</time>
      </trkpt>
      <trkpt lat="43.576" lon="3.36379">
        <ele>112.5</ele>
        <time>2017-11-19T07:02:43Z</time>
      </trkpt>
      <trkpt lat="43.57595" lon="3.36377">
        <ele>112</ele>
        <time>2017-11-19T07:02:44Z</time>
      </trkpt>
      <trkpt lat="43.5759" lon="3.36376">
        <ele>111.7</ele>
        <time>2017-11-19T07:02:45Z</time>
      </trkpt>
      <trkpt lat="43.57584" lon="3.36374">
        <ele>111.4</ele>
        <time>2017-11-19T07:02:46Z</time>
      </trkpt>
      <trkpt lat="43.57579" lon="3.36373">
        <ele>111.1</ele>
        <time>2017-11-19T07:02:47Z</time>
      </trkpt>
      <trkpt lat="43.57574" lon="3.36372">
        <ele>111</ele>
        <time>2017-11-19T07:02:48Z</time>
      </trkpt>
      <trkpt lat="43.57569" lon="3.36372">
        <ele>111.1</ele>
        <time>2017-11-19T07:02:49Z</time>
      </trkpt>
      <trkpt lat="43.57563" lon="3.3637">
        <ele>111.1</ele>
        <time>2017-11-19T07:02:50Z</time>
      </trkpt>
      <trkpt lat="43.57558" lon="3.36369">
        <ele>111.2</ele>
        <time>2017-11-19T07:02:51Z</time>
      </trkpt>
      <trkpt lat="43.57553" lon="3.36368">
        <ele>111.2</ele>
        <time>2017-11-19T07:02:52Z</time>
      </trkpt>
      <trkpt lat="43.57548" lon="3.36368">
        <ele>111.2</ele>
        <time>2017-11-19T07:02:53Z</time>
      </trkpt>
      <trkpt lat="43.57543" lon="3.36367">
        <ele>111.2</ele>
        <time>2017-11-19T07:02:54Z</time>
      </trkpt>
      <trkpt lat="43.57538" lon="3.36366">
        <ele>111.2</ele>
        <time>2017-11-19T07:02:55Z</time>
      </trkpt>
      <trkpt lat="43.57533" lon="3.36365">
        <ele>111.2</ele>
        <time>2017-11-19T07:02:56Z</time>
      </trkpt>
      <trkpt lat="43.57528" lon="3.36364">
        <ele>111.2</ele>
        <time>2017-11-19T07:02:57Z</time>
      </trkpt>
      <trkpt lat="43.57523" lon="3.36363">
        <ele>111.2</ele>
        <time>2017-11-19T07:02:58Z</time>
      </trkpt>
      <trkpt lat="43.57518" lon="3.36362">
        <ele>111.1</ele>
        <time>2017-11-19T07:02:59Z</time>
      </trkpt>
      <trkpt lat="43.57513" lon="3.36361">
        <ele>111.1</ele>
        <time>2017-11-19T07:03:00Z</time>
      </trkpt>
      <trkpt lat="43.57508" lon="3.3636">
        <ele>111</ele>
        <time>2017-11-19T07:03:01Z</time>
      </trkpt>
      <trkpt lat="43.57503" lon="3.36359">
        <ele>111</ele>
        <time>2017-11-19T07:03:02Z</time>
      </trkpt>
      <trkpt lat="43.57497" lon="3.36359">
        <ele>110.9</ele>
        <time>2017-11-19T07:03:03Z</time>
      </trkpt>
      <trkpt lat="43.57491" lon="3.36358">
        <ele>110.8</ele>
        <time>2017-11-19T07:03:04Z</time>
      </trkpt>
      <trkpt lat="43.57486" lon="3.36357">
        <ele>110.8</ele>
        <time>2017-11-19T07:03:05Z</time>
      </trkpt>
      <trkpt lat="43.57482" lon="3.36356">
        <ele>110.7</ele>
        <time>2017-11-19T07:03:06Z</time>
      </trkpt>
      <trkpt lat="43.57477" lon="3.36355">
        <ele>110.6</ele>
        <time>2017-11-19T07:03:07Z</time>
      </trkpt>
      <trkpt lat="43.57473" lon="3.36354">
        <ele>110.6</ele>
        <time>2017-11-19T07:03:08Z</time>
      </trkpt>
      <trkpt lat="43.5747" lon="3.36354">
        <ele>110.5</ele>
        <time>2017-11-19T07:03:09Z</time>
      </trkpt>
      <trkpt lat="43.57465" lon="3.36353">
        <ele>110.5</ele>
        <time>2017-11-19T07:03:10Z</time>
      </trkpt>
      <trkpt lat="43.5746" lon="3.36352">
        <ele>110.4</ele>
        <time>2017-11-19T07:03:11Z</time>
      </trkpt>
      <trkpt lat="43.57455" lon="3.36351">
        <ele>110.4</ele>
        <time>2017-11-19T07:03:12Z</time>
      </trkpt>
      <trkpt lat="43.57451" lon="3.3635">
        <ele>110.3</ele>
        <time>2017-11-19T07:03:13Z</time>
      </trkpt>
      <trkpt lat="43.57447" lon="3.36349">
        <ele>110.2</ele>
        <time>2017-11-19T07:03:14Z</time>
      </trkpt>
      <trkpt lat="43.57442" lon="3.3635">
        <ele>110.2</ele>
        <time>2017-11-19T07:03:15Z</time>
      </trkpt>
      <trkpt lat="43.57437" lon="3.3635">
        <ele>110.1</ele>
        <time>2017-11-19T07:03:16Z</time>
      </trkpt>
      <trkpt lat="43.57431" lon="3.36351">
        <ele>110</ele>
        <time>2017-11-19T07:03:17Z</time>
      </trkpt>
      <trkpt lat="43.57427" lon="3.36351">
        <ele>109.9</ele>
        <time>2017-11-19T07:03:18Z</time>
      </trkpt>
      <trkpt lat="43.57422" lon="3.36352">
        <ele>109.8</ele>
        <time>2017-11-19T07:03:19Z</time>
      </trkpt>
      <trkpt lat="43.57417" lon="3.36353">
        <ele>109.8</ele>
        <time>2017-11-19T07:03:20Z</time>
      </trkpt>
      <trkpt lat="43.57411" lon="3.36355">
        <ele>109.7</ele>
        <time>2017-11-19T07:03:21Z</time>
      </trkpt>
      <trkpt lat="43.57407" lon="3.36357">
        <ele>109.6</ele>
        <time>2017-11-19T07:03:22Z</time>
      </trkpt>
      <trkpt lat="43.57402" lon="3.36358">
        <ele>109.5</ele>
        <time>2017-11-19T07:03:23Z</time>
      </trkpt>
      <trkpt lat="43.57397" lon="3.3636">
        <ele>109.4</ele>
        <time>2017-11-19T07:03:24Z</time>
      </trkpt>
      <trkpt lat="43.57392" lon="3.36361">
        <ele>109.3</ele>
        <time>2017-11-19T07:03:25Z</time>
      </trkpt>
      <trkpt lat="43.57386" lon="3.36363">
        <ele>109.2</ele>
        <time>2017-11-19T07:03:26Z</time>
      </trkpt>
      <trkpt lat="43.5738" lon="3.36366">
        <ele>109.2</ele>
        <time>2017-11-19T07:03:27Z</time>
      </trkpt>
      <trkpt lat="43.57375" lon="3.36367">
        <ele>109.1</ele>
        <time>2017-11-19T07:03:28Z</time>
      </trkpt>
      <trkpt lat="43.5737" lon="3.36368">
        <ele>109</ele>
        <time>2017-11-19T07:03:29Z</time>
      </trkpt>
      <trkpt lat="43.57365" lon="3.36367">
        <ele>109</ele>
        <time>2017-11-19T07:03:30Z</time>
      </trkpt>
      <trkpt lat="43.5736" lon="3.36366">
        <ele>109</ele>
        <time>2017-11-19T07:03:31Z</time>
      </trkpt>
      <trkpt lat="43.57355" lon="3.36365">
        <ele>109</ele>
        <time>2017-11-19T07:03:32Z</time>
      </trkpt>
      <trkpt lat="43.57351" lon="3.36364">
        <ele>109</ele>
        <time>2017-11-19T07:03:33Z</time>
      </trkpt>
      <trkpt lat="43.57347" lon="3.36363">
        <ele>109</ele>
        <time>2017-11-19T07:03:34Z</time>
      </trkpt>
      <trkpt lat="43.57343" lon="3.36362">
        <ele>109</ele>
        <time>2017-11-19T07:03:35Z</time>
      </trkpt>
      <trkpt lat="43.57338" lon="3.36362">
        <ele>109.5</ele>
        <time>2017-11-19T07:03:36Z</time>
      </trkpt>
      <trkpt lat="43.57334" lon="3.36361">
        <ele>109.8</ele>
        <time>2017-11-19T07:03:37Z</time>
      </trkpt>
      <trkpt lat="43.57331" lon="3.3636">
        <ele>110</ele>
        <time>2017-11-19T07:03:38Z</time>
      </trkpt>
      <trkpt lat="43.57328" lon="3.36358">
        <ele>110.2</ele>
        <time>2017-11-19T07:03:40Z</time>
      </trkpt>
      <trkpt lat="43.57324" lon="3.36358">
        <ele>110.4</ele>
        <time>2017-11-19T07:03:43Z</time>
      </trkpt>
      <trkpt lat="43.57322" lon="3.36356">
        <ele>110.6</ele>
        <time>2017-11-19T07:04:10Z</time>
      </trkpt>
      <trkpt lat="43.57319" lon="3.36355">
        <ele>110.8</ele>
        <time>2017-11-19T07:04:26Z</time>
      </trkpt>
      <trkpt lat="43.57315" lon="3.36354">
        <ele>111</ele>
        <time>2017-11-19T07:04:28Z</time>
      </trkpt>
      <trkpt lat="43.5731" lon="3.36352">
        <ele>111.3</ele>
        <time>2017-11-19T07:04:30Z</time>
      </trkpt>
      <trkpt lat="43.57306" lon="3.36351">
        <ele>111.5</ele>
        <time>2017-11-19T07:04:32Z</time>
      </trkpt>
      <trkpt lat="43.57301" lon="3.3635">
        <ele>111.8</ele>
        <time>2017-11-19T07:04:34Z</time>
      </trkpt>
      <trkpt lat="43.57298" lon="3.36346">
        <ele>112</ele>
        <time>2017-11-19T07:04:36Z</time>
      </trkpt>
      <trkpt lat="43.57298" lon="3.36342">
        <ele>112.1</ele>
        <time>2017-11-19T07:04:38Z</time>
      </trkpt>
      <trkpt lat="43.57301" lon="3.3634">
        <ele>112.2</ele>
        <time>2017-11-19T07:04:41Z</time>
      </trkpt>
      <trkpt lat="43.57305" lon="3.36339">
        <ele>112.2</ele>
        <time>2017-11-19T07:04:43Z</time>
      </trkpt>
      <trkpt lat="43.57308" lon="3.36338">
        <ele>112.3</ele>
        <time>2017-11-19T07:04:45Z</time>
      </trkpt>
      <trkpt lat="43.57312" lon="3.36337">
        <ele>112.3</ele>
        <time>2017-11-19T07:04:47Z</time>
      </trkpt>
      <trkpt lat="43.57315" lon="3.36335">
        <ele>112.5</ele>
        <time>2017-11-19T07:04:49Z</time>
      </trkpt>
      <trkpt lat="43.57318" lon="3.36332">
        <ele>112.5</ele>
        <time>2017-11-19T07:04:52Z</time>
      </trkpt>
      <trkpt lat="43.57321" lon="3.3633">
        <ele>112.6</ele>
        <time>2017-11-19T07:04:56Z</time>
      </trkpt>
      <trkpt lat="43.57323" lon="3.36329">
        <ele>112.6</ele>
        <time>2017-11-19T07:04:58Z</time>
      </trkpt>
      <trkpt lat="43.57325" lon="3.36325">
        <ele>112.7</ele>
        <time>2017-11-19T07:05:02Z</time>
      </trkpt>
      <trkpt lat="43.57327" lon="3.36327">
        <ele>112.7</ele>
        <time>2017-11-19T07:05:09Z</time>
      </trkpt>
      <trkpt lat="43.5733" lon="3.36325">
        <ele>112.7</ele>
        <time>2017-11-19T07:05:14Z</time>
      </trkpt>
      <trkpt lat="43.57332" lon="3.36322">
        <ele>112.8</ele>
        <time>2017-11-19T07:05:25Z</time>
      </trkpt>
      <trkpt lat="43.57334" lon="3.36319">
        <ele>112.8</ele>
        <time>2017-11-19T07:05:28Z</time>
      </trkpt>
      <trkpt lat="43.57335" lon="3.36315">
        <ele>112.9</ele>
        <time>2017-11-19T07:05:38Z</time>
      </trkpt>
      <trkpt lat="43.57338" lon="3.36318">
        <ele>112.9</ele>
        <time>2017-11-19T07:05:45Z</time>
      </trkpt>
      <trkpt lat="43.57338" lon="3.36322">
        <ele>112.8</ele>
        <time>2017-11-19T07:05:50Z</time>
      </trkpt>
      <trkpt lat="43.57334" lon="3.36324">
        <ele>112.6</ele>
        <time>2017-11-19T07:05:53Z</time>
      </trkpt>
      <trkpt lat="43.57332" lon="3.36326">
        <ele>112.6</ele>
        <time>2017-11-19T07:05:54Z</time>
      </trkpt>
      <trkpt lat="43.5733" lon="3.36328">
        <ele>112.4</ele>
        <time>2017-11-19T07:05:56Z</time>
      </trkpt>
      <trkpt lat="43.57328" lon="3.36332">
        <ele>112.2</ele>
        <time>2017-11-19T07:06:01Z</time>
      </trkpt>
      <trkpt lat="43.57331" lon="3.36334">
        <ele>112.2</ele>
        <time>2017-11-19T07:06:09Z</time>
      </trkpt>
      <trkpt lat="43.57333" lon="3.36332">
        <ele>112.2</ele>
        <time>2017-11-19T07:06:47Z</time>
      </trkpt>
      <trkpt lat="43.57333" lon="3.36327">
        <ele>112.4</ele>
        <time>2017-11-19T07:07:59Z</time>
      </trkpt>
      <trkpt lat="43.57334" lon="3.36331">
        <ele>112.3</ele>
        <time>2017-11-19T07:08:10Z</time>
      </trkpt>
      <trkpt lat="43.57336" lon="3.36334">
        <ele>112.1</ele>
        <time>2017-11-19T07:08:43Z</time>
      </trkpt>
      <trkpt lat="43.57338" lon="3.36331">
        <ele>112.2</ele>
        <time>2017-11-19T07:09:07Z</time>
      </trkpt>
      <trkpt lat="43.57338" lon="3.36335">
        <ele>112.1</ele>
        <time>2017-11-19T07:09:41Z</time>
      </trkpt>
      <trkpt lat="43.57337" lon="3.36339">
        <ele>111.9</ele>
        <time>2017-11-19T07:09:56Z</time>
      </trkpt>
      <trkpt lat="43.57336" lon="3.36335">
        <ele>112</ele>
        <time>2017-11-19T07:10:11Z</time>
      </trkpt>
      <trkpt lat="43.57337" lon="3.36338">
        <ele>111.9</ele>
        <time>2017-11-19T07:11:31Z</time>
      </trkpt>
      <trkpt lat="43.57336" lon="3.36342">
        <ele>111.7</ele>
        <time>2017-11-19T07:12:04Z</time>
      </trkpt>
      <trkpt lat="43.57339" lon="3.3634">
        <ele>111.8</ele>
        <time>2017-11-19T07:12:35Z</time>
      </trkpt>
      <trkpt lat="43.5734" lon="3.36337">
        <ele>111.8</ele>
        <time>2017-11-19T07:12:48Z</time>
      </trkpt>
      <trkpt lat="43.57339" lon="3.3634">
        <ele>111.8</ele>
        <time>2017-11-19T07:14:09Z</time>
      </trkpt>
      <trkpt lat="43.57342" lon="3.36339">
        <ele>111.8</ele>
        <time>2017-11-19T07:15:12Z</time>
      </trkpt>
      <trkpt lat="43.57341" lon="3.36335">
        <ele>111.9</ele>
        <time>2017-11-19T07:15:26Z</time>
      </trkpt>
      <trkpt lat="43.57338" lon="3.36335">
        <ele>111.8</ele>
        <time>2017-11-19T07:15:31Z</time>
      </trkpt>
      <trkpt lat="43.57335" lon="3.36336">
        <ele>111.8</ele>
        <time>2017-11-19T07:15:35Z</time>
      </trkpt>
      <trkpt lat="43.57332" lon="3.36336">
        <ele>111.7</ele>
        <time>2017-11-19T07:15:40Z</time>
      </trkpt>
      <trkpt lat="43.5733" lon="3.36333">
        <ele>111.7</ele>
        <time>2017-11-19T07:15:43Z</time>
      </trkpt>
      <trkpt lat="43.57333" lon="3.36328">
        <ele>111.8</ele>
        <time>2017-11-19T07:15:46Z</time>
      </trkpt>
      <trkpt lat="43.57336" lon="3.36326">
        <ele>111.9</ele>
        <time>2017-11-19T07:15:49Z</time>
      </trkpt>
      <trkpt lat="43.57339" lon="3.36323">
        <ele>112.1</ele>
        <time>2017-11-19T07:15:51Z</time>
      </trkpt>
      <trkpt lat="43.5734" lon="3.36318">
        <ele>112.2</ele>
        <time>2017-11-19T07:16:00Z</time>
      </trkpt>
      <trkpt lat="43.5734" lon="3.36313">
        <ele>112.3</ele>
        <time>2017-11-19T07:16:03Z</time>
      </trkpt>
      <trkpt lat="43.57337" lon="3.36316">
        <ele>112.1</ele>
        <time>2017-11-19T07:16:09Z</time>
      </trkpt>
      <trkpt lat="43.57334" lon="3.36317">
        <ele>112.1</ele>
        <time>2017-11-19T07:16:13Z</time>
      </trkpt>
      <trkpt lat="43.57335" lon="3.36321">
        <ele>111.9</ele>
        <time>2017-11-19T07:16:17Z</time>
      </trkpt>
      <trkpt lat="43.57335" lon="3.36325">
        <ele>111.8</ele>
        <time>2017-11-19T07:16:34Z</time>
      </trkpt>
      <trkpt lat="43.57338" lon="3.36326">
        <ele>111.7</ele>
        <time>2017-11-19T07:17:31Z</time>
      </trkpt>
      <trkpt lat="43.57334" lon="3.36329">
        <ele>111.6</ele>
        <time>2017-11-19T07:17:58Z</time>
      </trkpt>
      <trkpt lat="43.57331" lon="3.3633">
        <ele>111.5</ele>
        <time>2017-11-19T07:17:59Z</time>
      </trkpt>
      <trkpt lat="43.57328" lon="3.36331">
        <ele>111.5</ele>
        <time>2017-11-19T07:18:00Z</time>
      </trkpt>
      <trkpt lat="43.57323" lon="3.36331">
        <ele>111.4</ele>
        <time>2017-11-19T07:18:02Z</time>
      </trkpt>
      <trkpt lat="43.5732" lon="3.36331">
        <ele>111.3</ele>
        <time>2017-11-19T07:18:04Z</time>
      </trkpt>
      <trkpt lat="43.57317" lon="3.36333">
        <ele>111.1</ele>
        <time>2017-11-19T07:18:06Z</time>
      </trkpt>
      <trkpt lat="43.57314" lon="3.36335">
        <ele>111.3</ele>
        <time>2017-11-19T07:18:08Z</time>
      </trkpt>
      <trkpt lat="43.57312" lon="3.36337">
        <ele>111.4</ele>
        <time>2017-11-19T07:18:10Z</time>
      </trkpt>
      <trkpt lat="43.57309" lon="3.36339">
        <ele>111.6</ele>
        <time>2017-11-19T07:18:13Z</time>
      </trkpt>
      <trkpt lat="43.57305" lon="3.3634">
        <ele>111.8</ele>
        <time>2017-11-19T07:18:16Z</time>
      </trkpt>
      <trkpt lat="43.57302" lon="3.36342">
        <ele>112</ele>
        <time>2017-11-19T07:18:19Z</time>
      </trkpt>
      <trkpt lat="43.57298" lon="3.36343">
        <ele>112.1</ele>
        <time>2017-11-19T07:18:21Z</time>
      </trkpt>
      <trkpt lat="43.57294" lon="3.36344">
        <ele>112.3</ele>
        <time>2017-11-19T07:18:23Z</time>
      </trkpt>
      <trkpt lat="43.57291" lon="3.36344">
        <ele>112.4</ele>
        <time>2017-11-19T07:18:26Z</time>
      </trkpt>
      <trkpt lat="43.57289" lon="3.36341">
        <ele>112.5</ele>
        <time>2017-11-19T07:18:32Z</time>
      </trkpt>
      <trkpt lat="43.57292" lon="3.36342">
        <ele>112.4</ele>
        <time>2017-11-19T07:18:35Z</time>
      </trkpt>
      <trkpt lat="43.57295" lon="3.36342">
        <ele>112.2</ele>
        <time>2017-11-19T07:18:37Z</time>
      </trkpt>
      <trkpt lat="43.57299" lon="3.36342">
        <ele>112.1</ele>
        <time>2017-11-19T07:18:40Z</time>
      </trkpt>
      <trkpt lat="43.57305" lon="3.36341">
        <ele>111.8</ele>
        <time>2017-11-19T07:18:42Z</time>
      </trkpt>
      <trkpt lat="43.57309" lon="3.36341">
        <ele>111.6</ele>
        <time>2017-11-19T07:18:44Z</time>
      </trkpt>
      <trkpt lat="43.57312" lon="3.36339">
        <ele>111.4</ele>
        <time>2017-11-19T07:18:46Z</time>
      </trkpt>
      <trkpt lat="43.57314" lon="3.36342">
        <ele>111.2</ele>
        <time>2017-11-19T07:18:49Z</time>
      </trkpt>
      <trkpt lat="43.57312" lon="3.36341">
        <ele>111.4</ele>
        <time>2017-11-19T07:19:49Z</time>
      </trkpt>
      <trkpt lat="43.5731" lon="3.36337">
        <ele>111.6</ele>
        <time>2017-11-19T07:20:21Z</time>
      </trkpt>
      <trkpt lat="43.57313" lon="3.36338">
        <ele>111.7</ele>
        <time>2017-11-19T07:20:48Z</time>
      </trkpt>
      <trkpt lat="43.5731" lon="3.36339">
        <ele>111.9</ele>
        <time>2017-11-19T07:20:53Z</time>
      </trkpt>
      <trkpt lat="43.57307" lon="3.36339">
        <ele>112</ele>
        <time>2017-11-19T07:20:55Z</time>
      </trkpt>
      <trkpt lat="43.57303" lon="3.3634">
        <ele>112.2</ele>
        <time>2017-11-19T07:20:57Z</time>
      </trkpt>
      <trkpt lat="43.573" lon="3.36341">
        <ele>112.4</ele>
        <time>2017-11-19T07:20:59Z</time>
      </trkpt>
      <trkpt lat="43.57296" lon="3.36343">
        <ele>112.5</ele>
        <time>2017-11-19T07:21:02Z</time>
      </trkpt>
      <trkpt lat="43.57293" lon="3.36345">
        <ele>112.7</ele>
        <time>2017-11-19T07:21:04Z</time>
      </trkpt>
      <trkpt lat="43.57289" lon="3.36347">
        <ele>112.8</ele>
        <time>2017-11-19T07:21:06Z</time>
      </trkpt>
      <trkpt lat="43.57285" lon="3.36347">
        <ele>113</ele>
        <time>2017-11-19T07:21:08Z</time>
      </trkpt>
      <trkpt lat="43.57282" lon="3.36346">
        <ele>113.2</ele>
        <time>2017-11-19T07:21:10Z</time>
      </trkpt>
      <trkpt lat="43.57279" lon="3.36345">
        <ele>113.4</ele>
        <time>2017-11-19T07:21:12Z</time>
      </trkpt>
      <trkpt lat="43.57276" lon="3.36344">
        <ele>113.6</ele>
        <time>2017-11-19T07:21:14Z</time>
      </trkpt>
      <trkpt lat="43.57273" lon="3.36343">
        <ele>113.9</ele>
        <time>2017-11-19T07:21:16Z</time>
      </trkpt>
      <trkpt lat="43.57269" lon="3.36342">
        <ele>114</ele>
        <time>2017-11-19T07:21:18Z</time>
      </trkpt>
      <trkpt lat="43.57265" lon="3.36342">
        <ele>114.2</ele>
        <time>2017-11-19T07:21:20Z</time>
      </trkpt>
      <trkpt lat="43.5726" lon="3.36341">
        <ele>114.4</ele>
        <time>2017-11-19T07:21:22Z</time>
      </trkpt>
      <trkpt lat="43.57255" lon="3.36339">
        <ele>115</ele>
        <time>2017-11-19T07:21:24Z</time>
      </trkpt>
      <trkpt lat="43.57251" lon="3.36338">
        <ele>115.3</ele>
        <time>2017-11-19T07:21:26Z</time>
      </trkpt>
      <trkpt lat="43.57245" lon="3.36336">
        <ele>115.6</ele>
        <time>2017-11-19T07:21:28Z</time>
      </trkpt>
      <trkpt lat="43.57242" lon="3.36336">
        <ele>115.8</ele>
        <time>2017-11-19T07:21:29Z</time>
      </trkpt>
      <trkpt lat="43.5724" lon="3.36335">
        <ele>115.9</ele>
        <time>2017-11-19T07:21:30Z</time>
      </trkpt>
      <trkpt lat="43.57237" lon="3.36335">
        <ele>116</ele>
        <time>2017-11-19T07:21:31Z</time>
      </trkpt>
      <trkpt lat="43.57234" lon="3.36334">
        <ele>116.1</ele>
        <time>2017-11-19T07:21:32Z</time>
      </trkpt>
      <trkpt lat="43.5723" lon="3.36334">
        <ele>116.3</ele>
        <time>2017-11-19T07:21:34Z</time>
      </trkpt>
      <trkpt lat="43.57226" lon="3.36334">
        <ele>116.4</ele>
        <time>2017-11-19T07:21:36Z</time>
      </trkpt>
      <trkpt lat="43.57223" lon="3.36333">
        <ele>116.5</ele>
        <time>2017-11-19T07:21:37Z</time>
      </trkpt>
      <trkpt lat="43.57219" lon="3.36332">
        <ele>116.6</ele>
        <time>2017-11-19T07:21:38Z</time>
      </trkpt>
      <trkpt lat="43.57216" lon="3.36331">
        <ele>116.7</ele>
        <time>2017-11-19T07:21:39Z</time>
      </trkpt>
      <trkpt lat="43.57212" lon="3.3633">
        <ele>116.8</ele>
        <time>2017-11-19T07:21:41Z</time>
      </trkpt>
      <trkpt lat="43.57209" lon="3.36329">
        <ele>116.9</ele>
        <time>2017-11-19T07:21:42Z</time>
      </trkpt>
      <trkpt lat="43.57206" lon="3.36328">
        <ele>117</ele>
        <time>2017-11-19T07:21:43Z</time>
      </trkpt>
      <trkpt lat="43.57202" lon="3.36327">
        <ele>117.1</ele>
        <time>2017-11-19T07:21:44Z</time>
      </trkpt>
      <trkpt lat="43.57199" lon="3.36326">
        <ele>117.1</ele>
        <time>2017-11-19T07:21:45Z</time>
      </trkpt>
      <trkpt lat="43.57195" lon="3.36325">
        <ele>117.2</ele>
        <time>2017-11-19T07:21:46Z</time>
      </trkpt>
      <trkpt lat="43.57192" lon="3.36324">
        <ele>117.3</ele>
        <time>2017-11-19T07:21:47Z</time>
      </trkpt>
      <trkpt lat="43.57189" lon="3.36323">
        <ele>117.4</ele>
        <time>2017-11-19T07:21:48Z</time>
      </trkpt>
      <trkpt lat="43.57185" lon="3.36322">
        <ele>117.4</ele>
        <time>2017-11-19T07:21:49Z</time>
      </trkpt>
      <trkpt lat="43.57182" lon="3.36321">
        <ele>117.5</ele>
        <time>2017-11-19T07:21:50Z</time>
      </trkpt>
      <trkpt lat="43.57179" lon="3.36321">
        <ele>117.6</ele>
        <time>2017-11-19T07:21:51Z</time>
      </trkpt>
      <trkpt lat="43.57175" lon="3.36321">
        <ele>117.7</ele>
        <time>2017-11-19T07:21:52Z</time>
      </trkpt>
      <trkpt lat="43.57172" lon="3.3632">
        <ele>117.9</ele>
        <time>2017-11-19T07:21:53Z</time>
      </trkpt>
      <trkpt lat="43.57169" lon="3.36319">
        <ele>118</ele>
        <time>2017-11-19T07:21:54Z</time>
      </trkpt>
      <trkpt lat="43.57165" lon="3.36319">
        <ele>118.2</ele>
        <time>2017-11-19T07:21:55Z</time>
      </trkpt>
      <trkpt lat="43.57161" lon="3.36318">
        <ele>118.3</ele>
        <time>2017-11-19T07:21:56Z</time>
      </trkpt>
      <trkpt lat="43.57158" lon="3.36316">
        <ele>118.4</ele>
        <time>2017-11-19T07:21:57Z</time>
      </trkpt>
      <trkpt lat="43.57154" lon="3.36315">
        <ele>118.5</ele>
        <time>2017-11-19T07:21:58Z</time>
      </trkpt>
      <trkpt lat="43.57149" lon="3.36313">
        <ele>118.7</ele>
        <time>2017-11-19T07:21:59Z</time>
      </trkpt>
      <trkpt lat="43.57145" lon="3.36312">
        <ele>118.8</ele>
        <time>2017-11-19T07:22:00Z</time>
      </trkpt>
      <trkpt lat="43.57141" lon="3.3631">
        <ele>118.9</ele>
        <time>2017-11-19T07:22:01Z</time>
      </trkpt>
      <trkpt lat="43.57137" lon="3.36307">
        <ele>119</ele>
        <time>2017-11-19T07:22:02Z</time>
      </trkpt>
      <trkpt lat="43.57133" lon="3.36305">
        <ele>119.1</ele>
        <time>2017-11-19T07:22:03Z</time>
      </trkpt>
      <trkpt lat="43.57129" lon="3.36301">
        <ele>119.1</ele>
        <time>2017-11-19T07:22:04Z</time>
      </trkpt>
      <trkpt lat="43.57126" lon="3.36298">
        <ele>119.1</ele>
        <time>2017-11-19T07:22:05Z</time>
      </trkpt>
      <trkpt lat="43.57122" lon="3.36294">
        <ele>119</ele>
        <time>2017-11-19T07:22:06Z</time>
      </trkpt>
      <trkpt lat="43.57118" lon="3.3629">
        <ele>118.9</ele>
        <time>2017-11-19T07:22:07Z</time>
      </trkpt>
      <trkpt lat="43.57114" lon="3.36288">
        <ele>118.7</ele>
        <time>2017-11-19T07:22:08Z</time>
      </trkpt>
      <trkpt lat="43.5711" lon="3.36285">
        <ele>118.5</ele>
        <time>2017-11-19T07:22:09Z</time>
      </trkpt>
      <trkpt lat="43.57106" lon="3.36283">
        <ele>118.3</ele>
        <time>2017-11-19T07:22:10Z</time>
      </trkpt>
      <trkpt lat="43.57102" lon="3.36282">
        <ele>118.1</ele>
        <time>2017-11-19T07:22:11Z</time>
      </trkpt>
      <trkpt lat="43.57098" lon="3.36281">
        <ele>117.9</ele>
        <time>2017-11-19T07:22:12Z</time>
      </trkpt>
      <trkpt lat="43.57095" lon="3.36279">
        <ele>117.6</ele>
        <time>2017-11-19T07:22:13Z</time>
      </trkpt>
      <trkpt lat="43.57091" lon="3.36278">
        <ele>117.4</ele>
        <time>2017-11-19T07:22:14Z</time>
      </trkpt>
      <trkpt lat="43.57088" lon="3.36277">
        <ele>117.1</ele>
        <time>2017-11-19T07:22:15Z</time>
      </trkpt>
      <trkpt lat="43.57084" lon="3.36276">
        <ele>116.9</ele>
        <time>2017-11-19T07:22:16Z</time>
      </trkpt>
      <trkpt lat="43.57081" lon="3.36275">
        <ele>116.7</ele>
        <time>2017-11-19T07:22:17Z</time>
      </trkpt>
      <trkpt lat="43.57078" lon="3.36274">
        <ele>116.6</ele>
        <time>2017-11-19T07:22:18Z</time>
      </trkpt>
      <trkpt lat="43.57076" lon="3.36274">
        <ele>116.5</ele>
        <time>2017-11-19T07:22:19Z</time>
      </trkpt>
      <trkpt lat="43.5707" lon="3.36272">
        <ele>116.3</ele>
        <time>2017-11-19T07:22:21Z</time>
      </trkpt>
      <trkpt lat="43.57064" lon="3.36271">
        <ele>116.3</ele>
        <time>2017-11-19T07:22:23Z</time>
      </trkpt>
      <trkpt lat="43.57061" lon="3.36269">
        <ele>116.2</ele>
        <time>2017-11-19T07:22:24Z</time>
      </trkpt>
      <trkpt lat="43.57058" lon="3.36268">
        <ele>116.2</ele>
        <time>2017-11-19T07:22:25Z</time>
      </trkpt>
      <trkpt lat="43.57054" lon="3.36267">
        <ele>116.2</ele>
        <time>2017-11-19T07:22:26Z</time>
      </trkpt>
      <trkpt lat="43.5705" lon="3.36266">
        <ele>116.1</ele>
        <time>2017-11-19T07:22:27Z</time>
      </trkpt>
      <trkpt lat="43.57046" lon="3.36265">
        <ele>116.1</ele>
        <time>2017-11-19T07:22:28Z</time>
      </trkpt>
      <trkpt lat="43.57041" lon="3.36264">
        <ele>116.1</ele>
        <time>2017-11-19T07:22:29Z</time>
      </trkpt>
      <trkpt lat="43.57036" lon="3.36264">
        <ele>116</ele>
        <time>2017-11-19T07:22:30Z</time>
      </trkpt>
      <trkpt lat="43.57031" lon="3.36263">
        <ele>116</ele>
        <time>2017-11-19T07:22:31Z</time>
      </trkpt>
      <trkpt lat="43.57026" lon="3.36263">
        <ele>116</ele>
        <time>2017-11-19T07:22:32Z</time>
      </trkpt>
      <trkpt lat="43.57021" lon="3.36262">
        <ele>116</ele>
        <time>2017-11-19T07:22:33Z</time>
      </trkpt>
      <trkpt lat="43.57016" lon="3.36261">
        <ele>116</ele>
        <time>2017-11-19T07:22:34Z</time>
      </trkpt>
      <trkpt lat="43.57011" lon="3.3626">
        <ele>116.1</ele>
        <time>2017-11-19T07:22:35Z</time>
      </trkpt>
      <trkpt lat="43.57006" lon="3.36259">
        <ele>116.2</ele>
        <time>2017-11-19T07:22:36Z</time>
      </trkpt>
      <trkpt lat="43.57002" lon="3.36257">
        <ele>116.3</ele>
        <time>2017-11-19T07:22:37Z</time>
      </trkpt>
      <trkpt lat="43.56997" lon="3.36256">
        <ele>116.4</ele>
        <time>2017-11-19T07:22:38Z</time>
      </trkpt>
      <trkpt lat="43.56993" lon="3.36255">
        <ele>116.6</ele>
        <time>2017-11-19T07:22:39Z</time>
      </trkpt>
      <trkpt lat="43.56989" lon="3.36254">
        <ele>116.8</ele>
        <time>2017-11-19T07:22:40Z</time>
      </trkpt>
      <trkpt lat="43.56985" lon="3.36254">
        <ele>116.9</ele>
        <time>2017-11-19T07:22:41Z</time>
      </trkpt>
      <trkpt lat="43.56981" lon="3.36254">
        <ele>117.1</ele>
        <time>2017-11-19T07:22:42Z</time>
      </trkpt>
      <trkpt lat="43.56977" lon="3.36254">
        <ele>117.3</ele>
        <time>2017-11-19T07:22:43Z</time>
      </trkpt>
      <trkpt lat="43.56973" lon="3.36255">
        <ele>117.4</ele>
        <time>2017-11-19T07:22:44Z</time>
      </trkpt>
      <trkpt lat="43.56969" lon="3.36256">
        <ele>117.6</ele>
        <time>2017-11-19T07:22:45Z</time>
      </trkpt>
      <trkpt lat="43.56966" lon="3.36257">
        <ele>117.7</ele>
        <time>2017-11-19T07:22:46Z</time>
      </trkpt>
      <trkpt lat="43.56963" lon="3.36258">
        <ele>117.9</ele>
        <time>2017-11-19T07:22:47Z</time>
      </trkpt>
      <trkpt lat="43.56959" lon="3.3626">
        <ele>118</ele>
        <time>2017-11-19T07:22:48Z</time>
      </trkpt>
      <trkpt lat="43.56956" lon="3.36262">
        <ele>118.2</ele>
        <time>2017-11-19T07:22:49Z</time>
      </trkpt>
      <trkpt lat="43.56953" lon="3.36264">
        <ele>118.3</ele>
        <time>2017-11-19T07:22:50Z</time>
      </trkpt>
      <trkpt lat="43.56947" lon="3.36268">
        <ele>118.6</ele>
        <time>2017-11-19T07:22:52Z</time>
      </trkpt>
      <trkpt lat="43.56944" lon="3.3627">
        <ele>118.7</ele>
        <time>2017-11-19T07:22:53Z</time>
      </trkpt>
      <trkpt lat="43.56941" lon="3.36272">
        <ele>118.8</ele>
        <time>2017-11-19T07:22:54Z</time>
      </trkpt>
      <trkpt lat="43.56938" lon="3.36273">
        <ele>118.9</ele>
        <time>2017-11-19T07:22:55Z</time>
      </trkpt>
      <trkpt lat="43.56935" lon="3.36275">
        <ele>119.1</ele>
        <time>2017-11-19T07:22:56Z</time>
      </trkpt>
      <trkpt lat="43.56932" lon="3.36276">
        <ele>119.2</ele>
        <time>2017-11-19T07:22:57Z</time>
      </trkpt>
      <trkpt lat="43.56929" lon="3.36277">
        <ele>119.3</ele>
        <time>2017-11-19T07:22:58Z</time>
      </trkpt>
      <trkpt lat="43.56926" lon="3.36278">
        <ele>119.4</ele>
        <time>2017-11-19T07:22:59Z</time>
      </trkpt>
      <trkpt lat="43.56923" lon="3.36279">
        <ele>119.5</ele>
        <time>2017-11-19T07:23:00Z</time>
      </trkpt>
      <trkpt lat="43.5692" lon="3.3628">
        <ele>119.6</ele>
        <time>2017-11-19T07:23:01Z</time>
      </trkpt>
      <trkpt lat="43.56917" lon="3.3628">
        <ele>119.7</ele>
        <time>2017-11-19T07:23:02Z</time>
      </trkpt>
      <trkpt lat="43.56915" lon="3.3628">
        <ele>119.8</ele>
        <time>2017-11-19T07:23:03Z</time>
      </trkpt>
      <trkpt lat="43.56912" lon="3.36281">
        <ele>119.9</ele>
        <time>2017-11-19T07:23:04Z</time>
      </trkpt>
      <trkpt lat="43.56909" lon="3.36281">
        <ele>119.9</ele>
        <time>2017-11-19T07:23:05Z</time>
      </trkpt>
      <trkpt lat="43.56906" lon="3.3628">
        <ele>120</ele>
        <time>2017-11-19T07:23:06Z</time>
      </trkpt>
      <trkpt lat="43.56903" lon="3.3628">
        <ele>120</ele>
        <time>2017-11-19T07:23:07Z</time>
      </trkpt>
      <trkpt lat="43.569" lon="3.36279">
        <ele>120.1</ele>
        <time>2017-11-19T07:23:08Z</time>
      </trkpt>
      <trkpt lat="43.56897" lon="3.36278">
        <ele>120.1</ele>
        <time>2017-11-19T07:23:09Z</time>
      </trkpt>
      <trkpt lat="43.56895" lon="3.36276">
        <ele>120.2</ele>
        <time>2017-11-19T07:23:10Z</time>
      </trkpt>
      <trkpt lat="43.56892" lon="3.36274">
        <ele>120.2</ele>
        <time>2017-11-19T07:23:11Z</time>
      </trkpt>
      <trkpt lat="43.56889" lon="3.36272">
        <ele>120.2</ele>
        <time>2017-11-19T07:23:12Z</time>
      </trkpt>
      <trkpt lat="43.56887" lon="3.3627">
        <ele>120.2</ele>
        <time>2017-11-19T07:23:13Z</time>
      </trkpt>
      <trkpt lat="43.56884" lon="3.36267">
        <ele>120.3</ele>
        <time>2017-11-19T07:23:14Z</time>
      </trkpt>
      <trkpt lat="43.56881" lon="3.36265">
        <ele>120.3</ele>
        <time>2017-11-19T07:23:15Z</time>
      </trkpt>
      <trkpt lat="43.56879" lon="3.36263">
        <ele>120.4</ele>
        <time>2017-11-19T07:23:16Z</time>
      </trkpt>
      <trkpt lat="43.56876" lon="3.36261">
        <ele>120.4</ele>
        <time>2017-11-19T07:23:17Z</time>
      </trkpt>
      <trkpt lat="43.56874" lon="3.36258">
        <ele>120.5</ele>
        <time>2017-11-19T07:23:18Z</time>
      </trkpt>
      <trkpt lat="43.56871" lon="3.36256">
        <ele>120.6</ele>
        <time>2017-11-19T07:23:19Z</time>
      </trkpt>
      <trkpt lat="43.56868" lon="3.36254">
        <ele>120.6</ele>
        <time>2017-11-19T07:23:20Z</time>
      </trkpt>
      <trkpt lat="43.56866" lon="3.36251">
        <ele>120.7</ele>
        <time>2017-11-19T07:23:21Z</time>
      </trkpt>
      <trkpt lat="43.56863" lon="3.3625">
        <ele>120.8</ele>
        <time>2017-11-19T07:23:22Z</time>
      </trkpt>
      <trkpt lat="43.56861" lon="3.36248">
        <ele>120.9</ele>
        <time>2017-11-19T07:23:23Z</time>
      </trkpt>
      <trkpt lat="43.56858" lon="3.36246">
        <ele>121</ele>
        <time>2017-11-19T07:23:24Z</time>
      </trkpt>
      <trkpt lat="43.56855" lon="3.36244">
        <ele>121.1</ele>
        <time>2017-11-19T07:23:25Z</time>
      </trkpt>
      <trkpt lat="43.56852" lon="3.36242">
        <ele>121.1</ele>
        <time>2017-11-19T07:23:26Z</time>
      </trkpt>
      <trkpt lat="43.56849" lon="3.36241">
        <ele>121.2</ele>
        <time>2017-11-19T07:23:27Z</time>
      </trkpt>
      <trkpt lat="43.56846" lon="3.36239">
        <ele>121.2</ele>
        <time>2017-11-19T07:23:28Z</time>
      </trkpt>
      <trkpt lat="43.56843" lon="3.36237">
        <ele>121.3</ele>
        <time>2017-11-19T07:23:29Z</time>
      </trkpt>
      <trkpt lat="43.5684" lon="3.36236">
        <ele>121.3</ele>
        <time>2017-11-19T07:23:30Z</time>
      </trkpt>
      <trkpt lat="43.56837" lon="3.36234">
        <ele>121.3</ele>
        <time>2017-11-19T07:23:31Z</time>
      </trkpt>
      <trkpt lat="43.56834" lon="3.36232">
        <ele>121.3</ele>
        <time>2017-11-19T07:23:32Z</time>
      </trkpt>
      <trkpt lat="43.56832" lon="3.3623">
        <ele>121.2</ele>
        <time>2017-11-19T07:23:33Z</time>
      </trkpt>
      <trkpt lat="43.56829" lon="3.36228">
        <ele>121.2</ele>
        <time>2017-11-19T07:23:34Z</time>
      </trkpt>
      <trkpt lat="43.56827" lon="3.36225">
        <ele>121.2</ele>
        <time>2017-11-19T07:23:35Z</time>
      </trkpt>
      <trkpt lat="43.56824" lon="3.36223">
        <ele>121.2</ele>
        <time>2017-11-19T07:23:36Z</time>
      </trkpt>
      <trkpt lat="43.56822" lon="3.3622">
        <ele>121.2</ele>
        <time>2017-11-19T07:23:37Z</time>
      </trkpt>
      <trkpt lat="43.56819" lon="3.36214">
        <ele>121.1</ele>
        <time>2017-11-19T07:23:39Z</time>
      </trkpt>
      <trkpt lat="43.56817" lon="3.36211">
        <ele>121</ele>
        <time>2017-11-19T07:23:40Z</time>
      </trkpt>
      <trkpt lat="43.56815" lon="3.36205">
        <ele>120.8</ele>
        <time>2017-11-19T07:23:42Z</time>
      </trkpt>
      <trkpt lat="43.56812" lon="3.36199">
        <ele>120.6</ele>
        <time>2017-11-19T07:23:44Z</time>
      </trkpt>
      <trkpt lat="43.56809" lon="3.36193">
        <ele>120.5</ele>
        <time>2017-11-19T07:23:46Z</time>
      </trkpt>
      <trkpt lat="43.56807" lon="3.36188">
        <ele>120.2</ele>
        <time>2017-11-19T07:23:48Z</time>
      </trkpt>
      <trkpt lat="43.56805" lon="3.36185">
        <ele>120</ele>
        <time>2017-11-19T07:23:50Z</time>
      </trkpt>
      <trkpt lat="43.56804" lon="3.36181">
        <ele>119.7</ele>
        <time>2017-11-19T07:23:53Z</time>
      </trkpt>
      <trkpt lat="43.568" lon="3.36175">
        <ele>119.1</ele>
        <time>2017-11-19T07:23:55Z</time>
      </trkpt>
      <trkpt lat="43.56797" lon="3.36171">
        <ele>118.8</ele>
        <time>2017-11-19T07:23:56Z</time>
      </trkpt>
      <trkpt lat="43.56794" lon="3.36167">
        <ele>118.6</ele>
        <time>2017-11-19T07:23:57Z</time>
      </trkpt>
      <trkpt lat="43.56791" lon="3.36162">
        <ele>118.3</ele>
        <time>2017-11-19T07:23:58Z</time>
      </trkpt>
      <trkpt lat="43.56787" lon="3.36157">
        <ele>118.1</ele>
        <time>2017-11-19T07:23:59Z</time>
      </trkpt>
      <trkpt lat="43.56784" lon="3.36151">
        <ele>117.8</ele>
        <time>2017-11-19T07:24:00Z</time>
      </trkpt>
      <trkpt lat="43.5678" lon="3.36144">
        <ele>117.4</ele>
        <time>2017-11-19T07:24:01Z</time>
      </trkpt>
      <trkpt lat="43.56778" lon="3.36137">
        <ele>117.1</ele>
        <time>2017-11-19T07:24:02Z</time>
      </trkpt>
      <trkpt lat="43.56776" lon="3.36128">
        <ele>116.7</ele>
        <time>2017-11-19T07:24:03Z</time>
      </trkpt>
      <trkpt lat="43.56775" lon="3.36119">
        <ele>116.1</ele>
        <time>2017-11-19T07:24:04Z</time>
      </trkpt>
      <trkpt lat="43.56774" lon="3.3611">
        <ele>115.6</ele>
        <time>2017-11-19T07:24:05Z</time>
      </trkpt>
      <trkpt lat="43.56773" lon="3.36102">
        <ele>115.2</ele>
        <time>2017-11-19T07:24:06Z</time>
      </trkpt>
      <trkpt lat="43.56773" lon="3.36093">
        <ele>114.7</ele>
        <time>2017-11-19T07:24:07Z</time>
      </trkpt>
      <trkpt lat="43.56773" lon="3.36085">
        <ele>114.4</ele>
        <time>2017-11-19T07:24:08Z</time>
      </trkpt>
      <trkpt lat="43.56772" lon="3.36076">
        <ele>114.1</ele>
        <time>2017-11-19T07:24:09Z</time>
      </trkpt>
      <trkpt lat="43.56772" lon="3.36067">
        <ele>114.1</ele>
        <time>2017-11-19T07:24:10Z</time>
      </trkpt>
      <trkpt lat="43.56771" lon="3.36059">
        <ele>114.3</ele>
        <time>2017-11-19T07:24:11Z</time>
      </trkpt>
      <trkpt lat="43.5677" lon="3.36051">
        <ele>114.4</ele>
        <time>2017-11-19T07:24:12Z</time>
      </trkpt>
      <trkpt lat="43.56769" lon="3.36044">
        <ele>114.5</ele>
        <time>2017-11-19T07:24:13Z</time>
      </trkpt>
      <trkpt lat="43.56767" lon="3.36038">
        <ele>114.6</ele>
        <time>2017-11-19T07:24:14Z</time>
      </trkpt>
      <trkpt lat="43.56767" lon="3.36032">
        <ele>114.7</ele>
        <time>2017-11-19T07:24:15Z</time>
      </trkpt>
      <trkpt lat="43.56766" lon="3.36027">
        <ele>114.7</ele>
        <time>2017-11-19T07:24:16Z</time>
      </trkpt>
      <trkpt lat="43.56765" lon="3.36022">
        <ele>114.7</ele>
        <time>2017-11-19T07:24:17Z</time>
      </trkpt>
      <trkpt lat="43.56764" lon="3.36018">
        <ele>114.7</ele>
        <time>2017-11-19T07:24:18Z</time>
      </trkpt>
      <trkpt lat="43.56763" lon="3.36013">
        <ele>114.8</ele>
        <time>2017-11-19T07:24:19Z</time>
      </trkpt>
      <trkpt lat="43.56762" lon="3.36008">
        <ele>114.8</ele>
        <time>2017-11-19T07:24:20Z</time>
      </trkpt>
      <trkpt lat="43.56761" lon="3.36003">
        <ele>114.8</ele>
        <time>2017-11-19T07:24:21Z</time>
      </trkpt>
      <trkpt lat="43.5676" lon="3.35997">
        <ele>114.8</ele>
        <time>2017-11-19T07:24:22Z</time>
      </trkpt>
      <trkpt lat="43.56758" lon="3.35992">
        <ele>114.8</ele>
        <time>2017-11-19T07:24:23Z</time>
      </trkpt>
      <trkpt lat="43.56757" lon="3.35987">
        <ele>114.8</ele>
        <time>2017-11-19T07:24:24Z</time>
      </trkpt>
      <trkpt lat="43.56756" lon="3.35983">
        <ele>114.8</ele>
        <time>2017-11-19T07:24:25Z</time>
      </trkpt>
      <trkpt lat="43.56755" lon="3.35978">
        <ele>114.8</ele>
        <time>2017-11-19T07:24:26Z</time>
      </trkpt>
      <trkpt lat="43.56755" lon="3.35973">
        <ele>114.8</ele>
        <time>2017-11-19T07:24:27Z</time>
      </trkpt>
      <trkpt lat="43.56754" lon="3.35969">
        <ele>114.8</ele>
        <time>2017-11-19T07:24:28Z</time>
      </trkpt>
      <trkpt lat="43.56753" lon="3.35964">
        <ele>114.8</ele>
        <time>2017-11-19T07:24:29Z</time>
      </trkpt>
      <trkpt lat="43.56752" lon="3.3596">
        <ele>114.8</ele>
        <time>2017-11-19T07:24:30Z</time>
      </trkpt>
      <trkpt lat="43.56751" lon="3.35955">
        <ele>114.8</ele>
        <time>2017-11-19T07:24:31Z</time>
      </trkpt>
      <trkpt lat="43.5675" lon="3.35951">
        <ele>114.8</ele>
        <time>2017-11-19T07:24:32Z</time>
      </trkpt>
      <trkpt lat="43.56749" lon="3.35946">
        <ele>114.8</ele>
        <time>2017-11-19T07:24:33Z</time>
      </trkpt>
      <trkpt lat="43.56748" lon="3.35941">
        <ele>114.8</ele>
        <time>2017-11-19T07:24:34Z</time>
      </trkpt>
      <trkpt lat="43.56747" lon="3.35936">
        <ele>114.8</ele>
        <time>2017-11-19T07:24:35Z</time>
      </trkpt>
      <trkpt lat="43.56746" lon="3.35931">
        <ele>114.8</ele>
        <time>2017-11-19T07:24:36Z</time>
      </trkpt>
      <trkpt lat="43.56745" lon="3.35927">
        <ele>114.8</ele>
        <time>2017-11-19T07:24:37Z</time>
      </trkpt>
      <trkpt lat="43.56744" lon="3.35922">
        <ele>114.8</ele>
        <time>2017-11-19T07:24:38Z</time>
      </trkpt>
      <trkpt lat="43.56743" lon="3.35917">
        <ele>114.7</ele>
        <time>2017-11-19T07:24:39Z</time>
      </trkpt>
      <trkpt lat="43.56742" lon="3.35913">
        <ele>114.7</ele>
        <time>2017-11-19T07:24:40Z</time>
      </trkpt>
      <trkpt lat="43.56741" lon="3.35908">
        <ele>114.7</ele>
        <time>2017-11-19T07:24:41Z</time>
      </trkpt>
      <trkpt lat="43.56739" lon="3.35903">
        <ele>114.7</ele>
        <time>2017-11-19T07:24:42Z</time>
      </trkpt>
      <trkpt lat="43.56738" lon="3.35898">
        <ele>114.7</ele>
        <time>2017-11-19T07:24:43Z</time>
      </trkpt>
      <trkpt lat="43.56737" lon="3.35893">
        <ele>114.7</ele>
        <time>2017-11-19T07:24:44Z</time>
      </trkpt>
      <trkpt lat="43.56736" lon="3.35887">
        <ele>114.7</ele>
        <time>2017-11-19T07:24:45Z</time>
      </trkpt>
      <trkpt lat="43.56735" lon="3.35882">
        <ele>114.7</ele>
        <time>2017-11-19T07:24:46Z</time>
      </trkpt>
      <trkpt lat="43.56734" lon="3.35877">
        <ele>114.7</ele>
        <time>2017-11-19T07:24:47Z</time>
      </trkpt>
      <trkpt lat="43.56733" lon="3.35872">
        <ele>114.7</ele>
        <time>2017-11-19T07:24:48Z</time>
      </trkpt>
      <trkpt lat="43.56732" lon="3.35867">
        <ele>114.7</ele>
        <time>2017-11-19T07:24:49Z</time>
      </trkpt>
      <trkpt lat="43.56731" lon="3.35863">
        <ele>114.7</ele>
        <time>2017-11-19T07:24:50Z</time>
      </trkpt>
      <trkpt lat="43.5673" lon="3.35858">
        <ele>114.7</ele>
        <time>2017-11-19T07:24:51Z</time>
      </trkpt>
      <trkpt lat="43.56729" lon="3.35854">
        <ele>114.7</ele>
        <time>2017-11-19T07:24:52Z</time>
      </trkpt>
      <trkpt lat="43.56727" lon="3.35849">
        <ele>114.7</ele>
        <time>2017-11-19T07:24:53Z</time>
      </trkpt>
      <trkpt lat="43.56725" lon="3.35845">
        <ele>114.7</ele>
        <time>2017-11-19T07:24:54Z</time>
      </trkpt>
      <trkpt lat="43.56723" lon="3.3584">
        <ele>114.7</ele>
        <time>2017-11-19T07:24:55Z</time>
      </trkpt>
      <trkpt lat="43.56722" lon="3.35834">
        <ele>114.7</ele>
        <time>2017-11-19T07:24:56Z</time>
      </trkpt>
      <trkpt lat="43.56721" lon="3.35829">
        <ele>114.7</ele>
        <time>2017-11-19T07:24:57Z</time>
      </trkpt>
      <trkpt lat="43.5672" lon="3.35823">
        <ele>114.7</ele>
        <time>2017-11-19T07:24:58Z</time>
      </trkpt>
      <trkpt lat="43.56719" lon="3.35817">
        <ele>114.7</ele>
        <time>2017-11-19T07:24:59Z</time>
      </trkpt>
      <trkpt lat="43.56718" lon="3.35812">
        <ele>114.8</ele>
        <time>2017-11-19T07:25:00Z</time>
      </trkpt>
      <trkpt lat="43.56717" lon="3.35806">
        <ele>114.8</ele>
        <time>2017-11-19T07:25:01Z</time>
      </trkpt>
      <trkpt lat="43.56716" lon="3.35801">
        <ele>114.8</ele>
        <time>2017-11-19T07:25:02Z</time>
      </trkpt>
      <trkpt lat="43.56715" lon="3.35795">
        <ele>114.8</ele>
        <time>2017-11-19T07:25:03Z</time>
      </trkpt>
      <trkpt lat="43.56714" lon="3.35789">
        <ele>114.8</ele>
        <time>2017-11-19T07:25:04Z</time>
      </trkpt>
      <trkpt lat="43.56714" lon="3.35784">
        <ele>114.9</ele>
        <time>2017-11-19T07:25:05Z</time>
      </trkpt>
      <trkpt lat="43.56713" lon="3.35779">
        <ele>114.9</ele>
        <time>2017-11-19T07:25:06Z</time>
      </trkpt>
      <trkpt lat="43.56712" lon="3.35774">
        <ele>114.9</ele>
        <time>2017-11-19T07:25:07Z</time>
      </trkpt>
      <trkpt lat="43.56711" lon="3.35768">
        <ele>115</ele>
        <time>2017-11-19T07:25:08Z</time>
      </trkpt>
      <trkpt lat="43.56711" lon="3.35763">
        <ele>115</ele>
        <time>2017-11-19T07:25:09Z</time>
      </trkpt>
      <trkpt lat="43.5671" lon="3.35757">
        <ele>115.1</ele>
        <time>2017-11-19T07:25:10Z</time>
      </trkpt>
      <trkpt lat="43.56709" lon="3.35751">
        <ele>115.3</ele>
        <time>2017-11-19T07:25:11Z</time>
      </trkpt>
      <trkpt lat="43.56709" lon="3.35745">
        <ele>115.4</ele>
        <time>2017-11-19T07:25:12Z</time>
      </trkpt>
      <trkpt lat="43.56708" lon="3.3574">
        <ele>115.6</ele>
        <time>2017-11-19T07:25:13Z</time>
      </trkpt>
      <trkpt lat="43.56707" lon="3.35734">
        <ele>115.8</ele>
        <time>2017-11-19T07:25:14Z</time>
      </trkpt>
      <trkpt lat="43.56707" lon="3.35728">
        <ele>115.9</ele>
        <time>2017-11-19T07:25:15Z</time>
      </trkpt>
      <trkpt lat="43.56706" lon="3.35722">
        <ele>116.1</ele>
        <time>2017-11-19T07:25:16Z</time>
      </trkpt>
      <trkpt lat="43.56706" lon="3.35717">
        <ele>116.2</ele>
        <time>2017-11-19T07:25:17Z</time>
      </trkpt>
      <trkpt lat="43.56706" lon="3.3571">
        <ele>116.3</ele>
        <time>2017-11-19T07:25:18Z</time>
      </trkpt>
      <trkpt lat="43.56705" lon="3.35705">
        <ele>116.4</ele>
        <time>2017-11-19T07:25:19Z</time>
      </trkpt>
      <trkpt lat="43.56705" lon="3.35699">
        <ele>116.5</ele>
        <time>2017-11-19T07:25:20Z</time>
      </trkpt>
      <trkpt lat="43.56705" lon="3.35693">
        <ele>116.6</ele>
        <time>2017-11-19T07:25:21Z</time>
      </trkpt>
      <trkpt lat="43.56706" lon="3.35688">
        <ele>116.6</ele>
        <time>2017-11-19T07:25:22Z</time>
      </trkpt>
      <trkpt lat="43.56707" lon="3.35682">
        <ele>116.7</ele>
        <time>2017-11-19T07:25:23Z</time>
      </trkpt>
      <trkpt lat="43.56707" lon="3.35677">
        <ele>116.8</ele>
        <time>2017-11-19T07:25:24Z</time>
      </trkpt>
      <trkpt lat="43.56708" lon="3.35672">
        <ele>117</ele>
        <time>2017-11-19T07:25:25Z</time>
      </trkpt>
      <trkpt lat="43.56708" lon="3.35667">
        <ele>117.2</ele>
        <time>2017-11-19T07:25:26Z</time>
      </trkpt>
      <trkpt lat="43.56709" lon="3.35662">
        <ele>117.3</ele>
        <time>2017-11-19T07:25:27Z</time>
      </trkpt>
      <trkpt lat="43.5671" lon="3.35657">
        <ele>117.5</ele>
        <time>2017-11-19T07:25:28Z</time>
      </trkpt>
      <trkpt lat="43.5671" lon="3.35653">
        <ele>117.6</ele>
        <time>2017-11-19T07:25:29Z</time>
      </trkpt>
      <trkpt lat="43.56711" lon="3.35648">
        <ele>117.8</ele>
        <time>2017-11-19T07:25:30Z</time>
      </trkpt>
      <trkpt lat="43.56711" lon="3.35644">
        <ele>118</ele>
        <time>2017-11-19T07:25:31Z</time>
      </trkpt>
      <trkpt lat="43.56712" lon="3.3564">
        <ele>118.1</ele>
        <time>2017-11-19T07:25:32Z</time>
      </trkpt>
      <trkpt lat="43.56712" lon="3.35636">
        <ele>118.3</ele>
        <time>2017-11-19T07:25:33Z</time>
      </trkpt>
      <trkpt lat="43.5671" lon="3.35629">
        <ele>118.6</ele>
        <time>2017-11-19T07:25:35Z</time>
      </trkpt>
      <trkpt lat="43.56708" lon="3.35625">
        <ele>118.8</ele>
        <time>2017-11-19T07:25:36Z</time>
      </trkpt>
      <trkpt lat="43.56707" lon="3.35621">
        <ele>119</ele>
        <time>2017-11-19T07:25:37Z</time>
      </trkpt>
      <trkpt lat="43.56705" lon="3.35616">
        <ele>119.2</ele>
        <time>2017-11-19T07:25:38Z</time>
      </trkpt>
      <trkpt lat="43.56704" lon="3.35612">
        <ele>119.5</ele>
        <time>2017-11-19T07:25:39Z</time>
      </trkpt>
      <trkpt lat="43.56704" lon="3.35607">
        <ele>119.7</ele>
        <time>2017-11-19T07:25:40Z</time>
      </trkpt>
      <trkpt lat="43.56703" lon="3.35603">
        <ele>119.9</ele>
        <time>2017-11-19T07:25:41Z</time>
      </trkpt>
      <trkpt lat="43.56703" lon="3.35599">
        <ele>120.1</ele>
        <time>2017-11-19T07:25:42Z</time>
      </trkpt>
      <trkpt lat="43.56703" lon="3.35595">
        <ele>120.4</ele>
        <time>2017-11-19T07:25:43Z</time>
      </trkpt>
      <trkpt lat="43.56704" lon="3.3559">
        <ele>120.6</ele>
        <time>2017-11-19T07:25:44Z</time>
      </trkpt>
      <trkpt lat="43.56704" lon="3.35586">
        <ele>120.8</ele>
        <time>2017-11-19T07:25:45Z</time>
      </trkpt>
      <trkpt lat="43.56703" lon="3.35583">
        <ele>121</ele>
        <time>2017-11-19T07:25:46Z</time>
      </trkpt>
      <trkpt lat="43.56703" lon="3.35579">
        <ele>121.2</ele>
        <time>2017-11-19T07:25:47Z</time>
      </trkpt>
      <trkpt lat="43.56703" lon="3.35572">
        <ele>121.6</ele>
        <time>2017-11-19T07:25:49Z</time>
      </trkpt>
      <trkpt lat="43.56703" lon="3.35565">
        <ele>122</ele>
        <time>2017-11-19T07:25:51Z</time>
      </trkpt>
      <trkpt lat="43.56703" lon="3.35558">
        <ele>122.3</ele>
        <time>2017-11-19T07:25:53Z</time>
      </trkpt>
      <trkpt lat="43.56703" lon="3.35551">
        <ele>122.7</ele>
        <time>2017-11-19T07:25:55Z</time>
      </trkpt>
      <trkpt lat="43.56703" lon="3.35544">
        <ele>123</ele>
        <time>2017-11-19T07:25:57Z</time>
      </trkpt>
      <trkpt lat="43.56703" lon="3.35536">
        <ele>123.4</ele>
        <time>2017-11-19T07:25:59Z</time>
      </trkpt>
      <trkpt lat="43.56703" lon="3.3553">
        <ele>123.7</ele>
        <time>2017-11-19T07:26:01Z</time>
      </trkpt>
      <trkpt lat="43.56703" lon="3.35523">
        <ele>124</ele>
        <time>2017-11-19T07:26:03Z</time>
      </trkpt>
      <trkpt lat="43.56703" lon="3.35516">
        <ele>124.3</ele>
        <time>2017-11-19T07:26:05Z</time>
      </trkpt>
      <trkpt lat="43.56703" lon="3.35509">
        <ele>124.6</ele>
        <time>2017-11-19T07:26:07Z</time>
      </trkpt>
      <trkpt lat="43.56703" lon="3.35502">
        <ele>125</ele>
        <time>2017-11-19T07:26:09Z</time>
      </trkpt>
      <trkpt lat="43.56703" lon="3.35495">
        <ele>125.3</ele>
        <time>2017-11-19T07:26:11Z</time>
      </trkpt>
      <trkpt lat="43.56703" lon="3.35488">
        <ele>125.6</ele>
        <time>2017-11-19T07:26:13Z</time>
      </trkpt>
      <trkpt lat="43.56703" lon="3.35482">
        <ele>125.8</ele>
        <time>2017-11-19T07:26:15Z</time>
      </trkpt>
      <trkpt lat="43.56703" lon="3.35478">
        <ele>126</ele>
        <time>2017-11-19T07:26:16Z</time>
      </trkpt>
      <trkpt lat="43.56702" lon="3.35471">
        <ele>126.3</ele>
        <time>2017-11-19T07:26:18Z</time>
      </trkpt>
      <trkpt lat="43.56702" lon="3.35465">
        <ele>126.5</ele>
        <time>2017-11-19T07:26:20Z</time>
      </trkpt>
      <trkpt lat="43.56702" lon="3.35458">
        <ele>126.8</ele>
        <time>2017-11-19T07:26:22Z</time>
      </trkpt>
      <trkpt lat="43.56702" lon="3.35452">
        <ele>127</ele>
        <time>2017-11-19T07:26:24Z</time>
      </trkpt>
      <trkpt lat="43.56702" lon="3.35446">
        <ele>127.2</ele>
        <time>2017-11-19T07:26:26Z</time>
      </trkpt>
      <trkpt lat="43.56703" lon="3.35439">
        <ele>127.3</ele>
        <time>2017-11-19T07:26:28Z</time>
      </trkpt>
      <trkpt lat="43.56703" lon="3.35433">
        <ele>127.4</ele>
        <time>2017-11-19T07:26:30Z</time>
      </trkpt>
      <trkpt lat="43.56704" lon="3.35427">
        <ele>127.5</ele>
        <time>2017-11-19T07:26:32Z</time>
      </trkpt>
      <trkpt lat="43.56705" lon="3.3542">
        <ele>127.5</ele>
        <time>2017-11-19T07:26:34Z</time>
      </trkpt>
      <trkpt lat="43.56705" lon="3.35414">
        <ele>127.5</ele>
        <time>2017-11-19T07:26:36Z</time>
      </trkpt>
      <trkpt lat="43.56706" lon="3.35408">
        <ele>127.6</ele>
        <time>2017-11-19T07:26:38Z</time>
      </trkpt>
      <trkpt lat="43.56705" lon="3.35401">
        <ele>127.6</ele>
        <time>2017-11-19T07:26:40Z</time>
      </trkpt>
      <trkpt lat="43.56705" lon="3.35395">
        <ele>127.6</ele>
        <time>2017-11-19T07:26:42Z</time>
      </trkpt>
      <trkpt lat="43.56704" lon="3.35389">
        <ele>127.6</ele>
        <time>2017-11-19T07:26:44Z</time>
      </trkpt>
      <trkpt lat="43.56704" lon="3.35383">
        <ele>127.6</ele>
        <time>2017-11-19T07:26:46Z</time>
      </trkpt>
      <trkpt lat="43.56703" lon="3.35376">
        <ele>127.7</ele>
        <time>2017-11-19T07:26:48Z</time>
      </trkpt>
      <trkpt lat="43.56702" lon="3.35371">
        <ele>127.7</ele>
        <time>2017-11-19T07:26:49Z</time>
      </trkpt>
      <trkpt lat="43.56702" lon="3.35367">
        <ele>127.7</ele>
        <time>2017-11-19T07:26:50Z</time>
      </trkpt>
      <trkpt lat="43.56701" lon="3.35362">
        <ele>127.7</ele>
        <time>2017-11-19T07:26:51Z</time>
      </trkpt>
      <trkpt lat="43.567" lon="3.35357">
        <ele>127.8</ele>
        <time>2017-11-19T07:26:52Z</time>
      </trkpt>
      <trkpt lat="43.56699" lon="3.35351">
        <ele>127.8</ele>
        <time>2017-11-19T07:26:53Z</time>
      </trkpt>
      <trkpt lat="43.56698" lon="3.35346">
        <ele>127.9</ele>
        <time>2017-11-19T07:26:54Z</time>
      </trkpt>
      <trkpt lat="43.56698" lon="3.35341">
        <ele>128</ele>
        <time>2017-11-19T07:26:55Z</time>
      </trkpt>
      <trkpt lat="43.56697" lon="3.35335">
        <ele>128.2</ele>
        <time>2017-11-19T07:26:56Z</time>
      </trkpt>
      <trkpt lat="43.56695" lon="3.3533">
        <ele>128.4</ele>
        <time>2017-11-19T07:26:57Z</time>
      </trkpt>
      <trkpt lat="43.56694" lon="3.35325">
        <ele>128.7</ele>
        <time>2017-11-19T07:26:58Z</time>
      </trkpt>
      <trkpt lat="43.56691" lon="3.35321">
        <ele>129</ele>
        <time>2017-11-19T07:26:59Z</time>
      </trkpt>
      <trkpt lat="43.56688" lon="3.35317">
        <ele>129.2</ele>
        <time>2017-11-19T07:27:00Z</time>
      </trkpt>
      <trkpt lat="43.56686" lon="3.35314">
        <ele>129.5</ele>
        <time>2017-11-19T07:27:01Z</time>
      </trkpt>
      <trkpt lat="43.56684" lon="3.3531">
        <ele>129.7</ele>
        <time>2017-11-19T07:27:02Z</time>
      </trkpt>
      <trkpt lat="43.56682" lon="3.35307">
        <ele>129.9</ele>
        <time>2017-11-19T07:27:03Z</time>
      </trkpt>
      <trkpt lat="43.5668" lon="3.35304">
        <ele>130.1</ele>
        <time>2017-11-19T07:27:04Z</time>
      </trkpt>
      <trkpt lat="43.56678" lon="3.353">
        <ele>130.3</ele>
        <time>2017-11-19T07:27:05Z</time>
      </trkpt>
      <trkpt lat="43.56675" lon="3.35294">
        <ele>130.6</ele>
        <time>2017-11-19T07:27:07Z</time>
      </trkpt>
      <trkpt lat="43.56674" lon="3.35291">
        <ele>130.8</ele>
        <time>2017-11-19T07:27:08Z</time>
      </trkpt>
      <trkpt lat="43.56671" lon="3.35284">
        <ele>131.1</ele>
        <time>2017-11-19T07:27:10Z</time>
      </trkpt>
      <trkpt lat="43.56669" lon="3.35278">
        <ele>131.3</ele>
        <time>2017-11-19T07:27:12Z</time>
      </trkpt>
      <trkpt lat="43.56667" lon="3.35274">
        <ele>131.3</ele>
        <time>2017-11-19T07:27:13Z</time>
      </trkpt>
      <trkpt lat="43.56666" lon="3.35271">
        <ele>131.4</ele>
        <time>2017-11-19T07:27:14Z</time>
      </trkpt>
      <trkpt lat="43.56664" lon="3.35267">
        <ele>131.5</ele>
        <time>2017-11-19T07:27:15Z</time>
      </trkpt>
      <trkpt lat="43.56662" lon="3.35261">
        <ele>131.6</ele>
        <time>2017-11-19T07:27:17Z</time>
      </trkpt>
      <trkpt lat="43.56659" lon="3.35255">
        <ele>131.7</ele>
        <time>2017-11-19T07:27:19Z</time>
      </trkpt>
      <trkpt lat="43.56657" lon="3.35248">
        <ele>131.8</ele>
        <time>2017-11-19T07:27:21Z</time>
      </trkpt>
      <trkpt lat="43.56655" lon="3.35245">
        <ele>131.9</ele>
        <time>2017-11-19T07:27:22Z</time>
      </trkpt>
      <trkpt lat="43.56653" lon="3.35239">
        <ele>132</ele>
        <time>2017-11-19T07:27:24Z</time>
      </trkpt>
      <trkpt lat="43.5665" lon="3.35233">
        <ele>132.1</ele>
        <time>2017-11-19T07:27:26Z</time>
      </trkpt>
      <trkpt lat="43.56648" lon="3.35228">
        <ele>132.3</ele>
        <time>2017-11-19T07:27:28Z</time>
      </trkpt>
      <trkpt lat="43.56646" lon="3.35225">
        <ele>132.5</ele>
        <time>2017-11-19T07:27:30Z</time>
      </trkpt>
      <trkpt lat="43.56643" lon="3.35223">
        <ele>132.7</ele>
        <time>2017-11-19T07:27:32Z</time>
      </trkpt>
      <trkpt lat="43.56639" lon="3.35219">
        <ele>133</ele>
        <time>2017-11-19T07:27:34Z</time>
      </trkpt>
      <trkpt lat="43.56636" lon="3.35217">
        <ele>133.2</ele>
        <time>2017-11-19T07:27:35Z</time>
      </trkpt>
      <trkpt lat="43.56632" lon="3.35216">
        <ele>133.4</ele>
        <time>2017-11-19T07:27:36Z</time>
      </trkpt>
      <trkpt lat="43.56629" lon="3.35215">
        <ele>133.6</ele>
        <time>2017-11-19T07:27:37Z</time>
      </trkpt>
      <trkpt lat="43.56625" lon="3.35214">
        <ele>133.9</ele>
        <time>2017-11-19T07:27:38Z</time>
      </trkpt>
      <trkpt lat="43.56621" lon="3.35213">
        <ele>133.2</ele>
        <time>2017-11-19T07:27:39Z</time>
      </trkpt>
      <trkpt lat="43.56616" lon="3.35212">
        <ele>133.1</ele>
        <time>2017-11-19T07:27:40Z</time>
      </trkpt>
      <trkpt lat="43.56611" lon="3.35211">
        <ele>132.3</ele>
        <time>2017-11-19T07:27:41Z</time>
      </trkpt>
      <trkpt lat="43.56606" lon="3.3521">
        <ele>131.5</ele>
        <time>2017-11-19T07:27:42Z</time>
      </trkpt>
      <trkpt lat="43.566" lon="3.35208">
        <ele>131.2</ele>
        <time>2017-11-19T07:27:43Z</time>
      </trkpt>
      <trkpt lat="43.56596" lon="3.35207">
        <ele>130.7</ele>
        <time>2017-11-19T07:27:44Z</time>
      </trkpt>
      <trkpt lat="43.56591" lon="3.35206">
        <ele>130.4</ele>
        <time>2017-11-19T07:27:45Z</time>
      </trkpt>
      <trkpt lat="43.56586" lon="3.35205">
        <ele>129.7</ele>
        <time>2017-11-19T07:27:46Z</time>
      </trkpt>
      <trkpt lat="43.56582" lon="3.35205">
        <ele>129.4</ele>
        <time>2017-11-19T07:27:47Z</time>
      </trkpt>
      <trkpt lat="43.56578" lon="3.35204">
        <ele>129</ele>
        <time>2017-11-19T07:27:48Z</time>
      </trkpt>
      <trkpt lat="43.56574" lon="3.35203">
        <ele>128.6</ele>
        <time>2017-11-19T07:27:49Z</time>
      </trkpt>
      <trkpt lat="43.56569" lon="3.35204">
        <ele>128.2</ele>
        <time>2017-11-19T07:27:50Z</time>
      </trkpt>
      <trkpt lat="43.56565" lon="3.35206">
        <ele>127.8</ele>
        <time>2017-11-19T07:27:51Z</time>
      </trkpt>
      <trkpt lat="43.56561" lon="3.35209">
        <ele>127.4</ele>
        <time>2017-11-19T07:27:52Z</time>
      </trkpt>
      <trkpt lat="43.56557" lon="3.35213">
        <ele>127.1</ele>
        <time>2017-11-19T07:27:53Z</time>
      </trkpt>
      <trkpt lat="43.56554" lon="3.35218">
        <ele>126.8</ele>
        <time>2017-11-19T07:27:54Z</time>
      </trkpt>
      <trkpt lat="43.56551" lon="3.35222">
        <ele>126.6</ele>
        <time>2017-11-19T07:27:55Z</time>
      </trkpt>
      <trkpt lat="43.56548" lon="3.35226">
        <ele>126.4</ele>
        <time>2017-11-19T07:27:56Z</time>
      </trkpt>
      <trkpt lat="43.56545" lon="3.35228">
        <ele>126.3</ele>
        <time>2017-11-19T07:27:57Z</time>
      </trkpt>
      <trkpt lat="43.56541" lon="3.35228">
        <ele>126.2</ele>
        <time>2017-11-19T07:27:58Z</time>
      </trkpt>
      <trkpt lat="43.56539" lon="3.35226">
        <ele>126</ele>
        <time>2017-11-19T07:27:59Z</time>
      </trkpt>
      <trkpt lat="43.56535" lon="3.35222">
        <ele>125.9</ele>
        <time>2017-11-19T07:28:01Z</time>
      </trkpt>
      <trkpt lat="43.5653" lon="3.35221">
        <ele>125.5</ele>
        <time>2017-11-19T07:28:03Z</time>
      </trkpt>
      <trkpt lat="43.56525" lon="3.35225">
        <ele>125.3</ele>
        <time>2017-11-19T07:28:05Z</time>
      </trkpt>
      <trkpt lat="43.56523" lon="3.35227">
        <ele>125.1</ele>
        <time>2017-11-19T07:28:06Z</time>
      </trkpt>
      <trkpt lat="43.56519" lon="3.35231">
        <ele>124.9</ele>
        <time>2017-11-19T07:28:07Z</time>
      </trkpt>
      <trkpt lat="43.56516" lon="3.35236">
        <ele>124.8</ele>
        <time>2017-11-19T07:28:08Z</time>
      </trkpt>
      <trkpt lat="43.56512" lon="3.35242">
        <ele>124.4</ele>
        <time>2017-11-19T07:28:09Z</time>
      </trkpt>
      <trkpt lat="43.56509" lon="3.35248">
        <ele>124.3</ele>
        <time>2017-11-19T07:28:10Z</time>
      </trkpt>
      <trkpt lat="43.56505" lon="3.35254">
        <ele>124.1</ele>
        <time>2017-11-19T07:28:11Z</time>
      </trkpt>
      <trkpt lat="43.565" lon="3.35259">
        <ele>123.5</ele>
        <time>2017-11-19T07:28:12Z</time>
      </trkpt>
      <trkpt lat="43.56496" lon="3.35263">
        <ele>123.2</ele>
        <time>2017-11-19T07:28:13Z</time>
      </trkpt>
      <trkpt lat="43.56494" lon="3.35268">
        <ele>122.9</ele>
        <time>2017-11-19T07:28:14Z</time>
      </trkpt>
      <trkpt lat="43.56492" lon="3.35274">
        <ele>123</ele>
        <time>2017-11-19T07:28:15Z</time>
      </trkpt>
      <trkpt lat="43.56491" lon="3.3528">
        <ele>123</ele>
        <time>2017-11-19T07:28:16Z</time>
      </trkpt>
      <trkpt lat="43.56491" lon="3.35286">
        <ele>122.7</ele>
        <time>2017-11-19T07:28:17Z</time>
      </trkpt>
      <trkpt lat="43.5649" lon="3.35291">
        <ele>122.8</ele>
        <time>2017-11-19T07:28:18Z</time>
      </trkpt>
      <trkpt lat="43.56489" lon="3.35297">
        <ele>122.8</ele>
        <time>2017-11-19T07:28:19Z</time>
      </trkpt>
      <trkpt lat="43.56487" lon="3.35303">
        <ele>122.4</ele>
        <time>2017-11-19T07:28:20Z</time>
      </trkpt>
      <trkpt lat="43.56486" lon="3.35308">
        <ele>122.4</ele>
        <time>2017-11-19T07:28:21Z</time>
      </trkpt>
      <trkpt lat="43.56486" lon="3.35312">
        <ele>122.3</ele>
        <time>2017-11-19T07:28:22Z</time>
      </trkpt>
      <trkpt lat="43.56483" lon="3.35311">
        <ele>122</ele>
        <time>2017-11-19T07:28:26Z</time>
      </trkpt>
      <trkpt lat="43.56483" lon="3.35307">
        <ele>122.2</ele>
        <time>2017-11-19T07:28:27Z</time>
      </trkpt>
      <trkpt lat="43.56481" lon="3.35301">
        <ele>122.1</ele>
        <time>2017-11-19T07:28:28Z</time>
      </trkpt>
      <trkpt lat="43.56478" lon="3.35294">
        <ele>121.8</ele>
        <time>2017-11-19T07:28:29Z</time>
      </trkpt>
      <trkpt lat="43.56474" lon="3.35288">
        <ele>121.4</ele>
        <time>2017-11-19T07:28:30Z</time>
      </trkpt>
      <trkpt lat="43.56473" lon="3.35282">
        <ele>121.5</ele>
        <time>2017-11-19T07:28:31Z</time>
      </trkpt>
      <trkpt lat="43.56471" lon="3.35275">
        <ele>121</ele>
        <time>2017-11-19T07:28:32Z</time>
      </trkpt>
      <trkpt lat="43.56468" lon="3.35269">
        <ele>120.6</ele>
        <time>2017-11-19T07:28:33Z</time>
      </trkpt>
      <trkpt lat="43.56465" lon="3.35263">
        <ele>120.8</ele>
        <time>2017-11-19T07:28:34Z</time>
      </trkpt>
      <trkpt lat="43.56464" lon="3.35259">
        <ele>121</ele>
        <time>2017-11-19T07:28:35Z</time>
      </trkpt>
      <trkpt lat="43.56461" lon="3.35256">
        <ele>121.1</ele>
        <time>2017-11-19T07:28:36Z</time>
      </trkpt>
      <trkpt lat="43.56457" lon="3.35253">
        <ele>121.3</ele>
        <time>2017-11-19T07:28:37Z</time>
      </trkpt>
      <trkpt lat="43.56454" lon="3.35248">
        <ele>121.4</ele>
        <time>2017-11-19T07:28:38Z</time>
      </trkpt>
      <trkpt lat="43.56452" lon="3.35243">
        <ele>121.5</ele>
        <time>2017-11-19T07:28:39Z</time>
      </trkpt>
      <trkpt lat="43.5645" lon="3.35238">
        <ele>121.6</ele>
        <time>2017-11-19T07:28:40Z</time>
      </trkpt>
      <trkpt lat="43.56448" lon="3.35234">
        <ele>121.7</ele>
        <time>2017-11-19T07:28:41Z</time>
      </trkpt>
      <trkpt lat="43.56446" lon="3.35229">
        <ele>121.8</ele>
        <time>2017-11-19T07:28:42Z</time>
      </trkpt>
      <trkpt lat="43.56444" lon="3.35225">
        <ele>121.8</ele>
        <time>2017-11-19T07:28:43Z</time>
      </trkpt>
      <trkpt lat="43.56441" lon="3.35221">
        <ele>121.9</ele>
        <time>2017-11-19T07:28:44Z</time>
      </trkpt>
      <trkpt lat="43.56439" lon="3.35216">
        <ele>122</ele>
        <time>2017-11-19T07:28:45Z</time>
      </trkpt>
      <trkpt lat="43.56438" lon="3.35212">
        <ele>122</ele>
        <time>2017-11-19T07:28:46Z</time>
      </trkpt>
      <trkpt lat="43.56437" lon="3.35207">
        <ele>122.1</ele>
        <time>2017-11-19T07:28:47Z</time>
      </trkpt>
      <trkpt lat="43.56436" lon="3.35203">
        <ele>122.2</ele>
        <time>2017-11-19T07:28:48Z</time>
      </trkpt>
      <trkpt lat="43.56436" lon="3.35197">
        <ele>122.2</ele>
        <time>2017-11-19T07:28:49Z</time>
      </trkpt>
      <trkpt lat="43.56435" lon="3.35192">
        <ele>122.3</ele>
        <time>2017-11-19T07:28:50Z</time>
      </trkpt>
      <trkpt lat="43.56434" lon="3.35187">
        <ele>122.4</ele>
        <time>2017-11-19T07:28:51Z</time>
      </trkpt>
      <trkpt lat="43.56432" lon="3.35182">
        <ele>122.4</ele>
        <time>2017-11-19T07:28:52Z</time>
      </trkpt>
      <trkpt lat="43.56431" lon="3.35177">
        <ele>122.6</ele>
        <time>2017-11-19T07:28:53Z</time>
      </trkpt>
      <trkpt lat="43.5643" lon="3.35172">
        <ele>122.7</ele>
        <time>2017-11-19T07:28:54Z</time>
      </trkpt>
      <trkpt lat="43.56429" lon="3.35167">
        <ele>122.8</ele>
        <time>2017-11-19T07:28:55Z</time>
      </trkpt>
      <trkpt lat="43.56428" lon="3.35162">
        <ele>123</ele>
        <time>2017-11-19T07:28:56Z</time>
      </trkpt>
      <trkpt lat="43.56427" lon="3.35157">
        <ele>123.2</ele>
        <time>2017-11-19T07:28:57Z</time>
      </trkpt>
      <trkpt lat="43.56426" lon="3.35152">
        <ele>123.4</ele>
        <time>2017-11-19T07:28:58Z</time>
      </trkpt>
      <trkpt lat="43.56424" lon="3.35147">
        <ele>123.5</ele>
        <time>2017-11-19T07:28:59Z</time>
      </trkpt>
      <trkpt lat="43.56423" lon="3.35142">
        <ele>123.6</ele>
        <time>2017-11-19T07:29:00Z</time>
      </trkpt>
      <trkpt lat="43.56421" lon="3.35137">
        <ele>123.7</ele>
        <time>2017-11-19T07:29:01Z</time>
      </trkpt>
      <trkpt lat="43.5642" lon="3.35132">
        <ele>123.8</ele>
        <time>2017-11-19T07:29:02Z</time>
      </trkpt>
      <trkpt lat="43.56418" lon="3.35127">
        <ele>123.9</ele>
        <time>2017-11-19T07:29:03Z</time>
      </trkpt>
      <trkpt lat="43.56416" lon="3.35123">
        <ele>124</ele>
        <time>2017-11-19T07:29:04Z</time>
      </trkpt>
      <trkpt lat="43.56415" lon="3.35118">
        <ele>124.1</ele>
        <time>2017-11-19T07:29:05Z</time>
      </trkpt>
      <trkpt lat="43.56413" lon="3.35114">
        <ele>124.2</ele>
        <time>2017-11-19T07:29:06Z</time>
      </trkpt>
      <trkpt lat="43.56412" lon="3.3511">
        <ele>124.3</ele>
        <time>2017-11-19T07:29:07Z</time>
      </trkpt>
      <trkpt lat="43.5641" lon="3.35105">
        <ele>124.4</ele>
        <time>2017-11-19T07:29:08Z</time>
      </trkpt>
      <trkpt lat="43.56408" lon="3.351">
        <ele>124.5</ele>
        <time>2017-11-19T07:29:09Z</time>
      </trkpt>
      <trkpt lat="43.56406" lon="3.35095">
        <ele>124.6</ele>
        <time>2017-11-19T07:29:10Z</time>
      </trkpt>
      <trkpt lat="43.56405" lon="3.35091">
        <ele>124.8</ele>
        <time>2017-11-19T07:29:11Z</time>
      </trkpt>
      <trkpt lat="43.56403" lon="3.35086">
        <ele>124.9</ele>
        <time>2017-11-19T07:29:12Z</time>
      </trkpt>
      <trkpt lat="43.56402" lon="3.35082">
        <ele>125.1</ele>
        <time>2017-11-19T07:29:13Z</time>
      </trkpt>
      <trkpt lat="43.564" lon="3.35078">
        <ele>125.2</ele>
        <time>2017-11-19T07:29:14Z</time>
      </trkpt>
      <trkpt lat="43.56399" lon="3.35074">
        <ele>125.4</ele>
        <time>2017-11-19T07:29:15Z</time>
      </trkpt>
      <trkpt lat="43.56398" lon="3.3507">
        <ele>125.5</ele>
        <time>2017-11-19T07:29:16Z</time>
      </trkpt>
      <trkpt lat="43.56397" lon="3.35066">
        <ele>125.7</ele>
        <time>2017-11-19T07:29:17Z</time>
      </trkpt>
      <trkpt lat="43.56395" lon="3.35062">
        <ele>125.8</ele>
        <time>2017-11-19T07:29:18Z</time>
      </trkpt>
      <trkpt lat="43.56394" lon="3.35058">
        <ele>125.9</ele>
        <time>2017-11-19T07:29:19Z</time>
      </trkpt>
      <trkpt lat="43.56393" lon="3.35054">
        <ele>126</ele>
        <time>2017-11-19T07:29:20Z</time>
      </trkpt>
      <trkpt lat="43.56392" lon="3.3505">
        <ele>126.1</ele>
        <time>2017-11-19T07:29:21Z</time>
      </trkpt>
      <trkpt lat="43.56391" lon="3.35045">
        <ele>126.2</ele>
        <time>2017-11-19T07:29:22Z</time>
      </trkpt>
      <trkpt lat="43.56391" lon="3.35041">
        <ele>126.3</ele>
        <time>2017-11-19T07:29:23Z</time>
      </trkpt>
      <trkpt lat="43.56392" lon="3.35036">
        <ele>126.4</ele>
        <time>2017-11-19T07:29:24Z</time>
      </trkpt>
      <trkpt lat="43.56393" lon="3.35033">
        <ele>126.4</ele>
        <time>2017-11-19T07:29:25Z</time>
      </trkpt>
      <trkpt lat="43.56395" lon="3.35029">
        <ele>126.5</ele>
        <time>2017-11-19T07:29:26Z</time>
      </trkpt>
      <trkpt lat="43.56397" lon="3.35026">
        <ele>126.5</ele>
        <time>2017-11-19T07:29:27Z</time>
      </trkpt>
      <trkpt lat="43.56399" lon="3.35024">
        <ele>126.5</ele>
        <time>2017-11-19T07:29:28Z</time>
      </trkpt>
      <trkpt lat="43.56402" lon="3.35021">
        <ele>126.5</ele>
        <time>2017-11-19T07:29:29Z</time>
      </trkpt>
      <trkpt lat="43.56404" lon="3.35019">
        <ele>126.6</ele>
        <time>2017-11-19T07:29:30Z</time>
      </trkpt>
      <trkpt lat="43.56407" lon="3.35017">
        <ele>126.6</ele>
        <time>2017-11-19T07:29:31Z</time>
      </trkpt>
      <trkpt lat="43.5641" lon="3.35015">
        <ele>126.6</ele>
        <time>2017-11-19T07:29:32Z</time>
      </trkpt>
      <trkpt lat="43.56412" lon="3.35013">
        <ele>126.6</ele>
        <time>2017-11-19T07:29:33Z</time>
      </trkpt>
      <trkpt lat="43.56415" lon="3.35011">
        <ele>126.6</ele>
        <time>2017-11-19T07:29:34Z</time>
      </trkpt>
      <trkpt lat="43.56417" lon="3.35008">
        <ele>126.6</ele>
        <time>2017-11-19T07:29:35Z</time>
      </trkpt>
      <trkpt lat="43.56419" lon="3.35006">
        <ele>126.6</ele>
        <time>2017-11-19T07:29:36Z</time>
      </trkpt>
      <trkpt lat="43.56421" lon="3.35003">
        <ele>126.6</ele>
        <time>2017-11-19T07:29:37Z</time>
      </trkpt>
      <trkpt lat="43.56422" lon="3.34999">
        <ele>126.6</ele>
        <time>2017-11-19T07:29:38Z</time>
      </trkpt>
      <trkpt lat="43.56423" lon="3.34996">
        <ele>126.6</ele>
        <time>2017-11-19T07:29:39Z</time>
      </trkpt>
      <trkpt lat="43.56423" lon="3.34991">
        <ele>126.6</ele>
        <time>2017-11-19T07:29:40Z</time>
      </trkpt>
      <trkpt lat="43.56422" lon="3.34988">
        <ele>126.6</ele>
        <time>2017-11-19T07:29:41Z</time>
      </trkpt>
      <trkpt lat="43.5642" lon="3.34984">
        <ele>126.6</ele>
        <time>2017-11-19T07:29:42Z</time>
      </trkpt>
      <trkpt lat="43.56419" lon="3.3498">
        <ele>126.6</ele>
        <time>2017-11-19T07:29:43Z</time>
      </trkpt>
      <trkpt lat="43.56416" lon="3.34977">
        <ele>126.6</ele>
        <time>2017-11-19T07:29:44Z</time>
      </trkpt>
      <trkpt lat="43.56414" lon="3.34974">
        <ele>126.6</ele>
        <time>2017-11-19T07:29:45Z</time>
      </trkpt>
      <trkpt lat="43.56412" lon="3.34971">
        <ele>126.6</ele>
        <time>2017-11-19T07:29:46Z</time>
      </trkpt>
      <trkpt lat="43.5641" lon="3.34967">
        <ele>126.6</ele>
        <time>2017-11-19T07:29:47Z</time>
      </trkpt>
      <trkpt lat="43.56408" lon="3.34964">
        <ele>126.6</ele>
        <time>2017-11-19T07:29:48Z</time>
      </trkpt>
      <trkpt lat="43.56405" lon="3.34961">
        <ele>126.7</ele>
        <time>2017-11-19T07:29:49Z</time>
      </trkpt>
      <trkpt lat="43.56403" lon="3.34957">
        <ele>126.7</ele>
        <time>2017-11-19T07:29:50Z</time>
      </trkpt>
      <trkpt lat="43.564" lon="3.34953">
        <ele>126.7</ele>
        <time>2017-11-19T07:29:51Z</time>
      </trkpt>
      <trkpt lat="43.56398" lon="3.3495">
        <ele>126.7</ele>
        <time>2017-11-19T07:29:52Z</time>
      </trkpt>
      <trkpt lat="43.56396" lon="3.34946">
        <ele>126.7</ele>
        <time>2017-11-19T07:29:53Z</time>
      </trkpt>
      <trkpt lat="43.56393" lon="3.34942">
        <ele>126.8</ele>
        <time>2017-11-19T07:29:54Z</time>
      </trkpt>
      <trkpt lat="43.56391" lon="3.34938">
        <ele>126.8</ele>
        <time>2017-11-19T07:29:55Z</time>
      </trkpt>
      <trkpt lat="43.56389" lon="3.34935">
        <ele>126.9</ele>
        <time>2017-11-19T07:29:56Z</time>
      </trkpt>
      <trkpt lat="43.56386" lon="3.34931">
        <ele>127</ele>
        <time>2017-11-19T07:29:57Z</time>
      </trkpt>
      <trkpt lat="43.56384" lon="3.34927">
        <ele>127.1</ele>
        <time>2017-11-19T07:29:58Z</time>
      </trkpt>
      <trkpt lat="43.56382" lon="3.34923">
        <ele>127.3</ele>
        <time>2017-11-19T07:29:59Z</time>
      </trkpt>
      <trkpt lat="43.56379" lon="3.34919">
        <ele>127.4</ele>
        <time>2017-11-19T07:30:00Z</time>
      </trkpt>
      <trkpt lat="43.56377" lon="3.34915">
        <ele>127.6</ele>
        <time>2017-11-19T07:30:01Z</time>
      </trkpt>
      <trkpt lat="43.56375" lon="3.3491">
        <ele>127.8</ele>
        <time>2017-11-19T07:30:02Z</time>
      </trkpt>
      <trkpt lat="43.56373" lon="3.34907">
        <ele>127.9</ele>
        <time>2017-11-19T07:30:03Z</time>
      </trkpt>
      <trkpt lat="43.5637" lon="3.34901">
        <ele>128.1</ele>
        <time>2017-11-19T07:30:04Z</time>
      </trkpt>
      <trkpt lat="43.56368" lon="3.34895">
        <ele>128.3</ele>
        <time>2017-11-19T07:30:05Z</time>
      </trkpt>
      <trkpt lat="43.56367" lon="3.3489">
        <ele>128.4</ele>
        <time>2017-11-19T07:30:06Z</time>
      </trkpt>
      <trkpt lat="43.56365" lon="3.34885">
        <ele>128.5</ele>
        <time>2017-11-19T07:30:07Z</time>
      </trkpt>
      <trkpt lat="43.56363" lon="3.3488">
        <ele>128.5</ele>
        <time>2017-11-19T07:30:08Z</time>
      </trkpt>
      <trkpt lat="43.56361" lon="3.34876">
        <ele>128.6</ele>
        <time>2017-11-19T07:30:09Z</time>
      </trkpt>
      <trkpt lat="43.5636" lon="3.34871">
        <ele>128.6</ele>
        <time>2017-11-19T07:30:10Z</time>
      </trkpt>
      <trkpt lat="43.56359" lon="3.34868">
        <ele>128.7</ele>
        <time>2017-11-19T07:30:11Z</time>
      </trkpt>
      <trkpt lat="43.56358" lon="3.34864">
        <ele>128.7</ele>
        <time>2017-11-19T07:30:12Z</time>
      </trkpt>
      <trkpt lat="43.56357" lon="3.3486">
        <ele>128.7</ele>
        <time>2017-11-19T07:30:13Z</time>
      </trkpt>
      <trkpt lat="43.56355" lon="3.34856">
        <ele>128.7</ele>
        <time>2017-11-19T07:30:14Z</time>
      </trkpt>
      <trkpt lat="43.56354" lon="3.34852">
        <ele>128.7</ele>
        <time>2017-11-19T07:30:15Z</time>
      </trkpt>
      <trkpt lat="43.56353" lon="3.34848">
        <ele>128.7</ele>
        <time>2017-11-19T07:30:16Z</time>
      </trkpt>
      <trkpt lat="43.56352" lon="3.34845">
        <ele>128.7</ele>
        <time>2017-11-19T07:30:17Z</time>
      </trkpt>
      <trkpt lat="43.56351" lon="3.34841">
        <ele>128.7</ele>
        <time>2017-11-19T07:30:18Z</time>
      </trkpt>
      <trkpt lat="43.56349" lon="3.34837">
        <ele>128.7</ele>
        <time>2017-11-19T07:30:19Z</time>
      </trkpt>
      <trkpt lat="43.56348" lon="3.34834">
        <ele>128.7</ele>
        <time>2017-11-19T07:30:20Z</time>
      </trkpt>
      <trkpt lat="43.56347" lon="3.34831">
        <ele>128.7</ele>
        <time>2017-11-19T07:30:21Z</time>
      </trkpt>
      <trkpt lat="43.56345" lon="3.34827">
        <ele>128.6</ele>
        <time>2017-11-19T07:30:22Z</time>
      </trkpt>
      <trkpt lat="43.56343" lon="3.34824">
        <ele>128.6</ele>
        <time>2017-11-19T07:30:23Z</time>
      </trkpt>
      <trkpt lat="43.5634" lon="3.34822">
        <ele>128.5</ele>
        <time>2017-11-19T07:30:24Z</time>
      </trkpt>
      <trkpt lat="43.56337" lon="3.34819">
        <ele>128.4</ele>
        <time>2017-11-19T07:30:25Z</time>
      </trkpt>
      <trkpt lat="43.56334" lon="3.34817">
        <ele>128.3</ele>
        <time>2017-11-19T07:30:26Z</time>
      </trkpt>
      <trkpt lat="43.56331" lon="3.34815">
        <ele>128.2</ele>
        <time>2017-11-19T07:30:27Z</time>
      </trkpt>
      <trkpt lat="43.56328" lon="3.34813">
        <ele>128.1</ele>
        <time>2017-11-19T07:30:28Z</time>
      </trkpt>
      <trkpt lat="43.56324" lon="3.34811">
        <ele>128</ele>
        <time>2017-11-19T07:30:29Z</time>
      </trkpt>
      <trkpt lat="43.56321" lon="3.3481">
        <ele>127.7</ele>
        <time>2017-11-19T07:30:30Z</time>
      </trkpt>
      <trkpt lat="43.56318" lon="3.34808">
        <ele>127.3</ele>
        <time>2017-11-19T07:30:31Z</time>
      </trkpt>
      <trkpt lat="43.56315" lon="3.34807">
        <ele>126.8</ele>
        <time>2017-11-19T07:30:32Z</time>
      </trkpt>
      <trkpt lat="43.56311" lon="3.34806">
        <ele>126.3</ele>
        <time>2017-11-19T07:30:33Z</time>
      </trkpt>
      <trkpt lat="43.56307" lon="3.34804">
        <ele>125.8</ele>
        <time>2017-11-19T07:30:34Z</time>
      </trkpt>
      <trkpt lat="43.56303" lon="3.34803">
        <ele>125.4</ele>
        <time>2017-11-19T07:30:35Z</time>
      </trkpt>
      <trkpt lat="43.56299" lon="3.34802">
        <ele>125.1</ele>
        <time>2017-11-19T07:30:36Z</time>
      </trkpt>
      <trkpt lat="43.56295" lon="3.34801">
        <ele>124.8</ele>
        <time>2017-11-19T07:30:37Z</time>
      </trkpt>
      <trkpt lat="43.5629" lon="3.34799">
        <ele>124.7</ele>
        <time>2017-11-19T07:30:38Z</time>
      </trkpt>
      <trkpt lat="43.56285" lon="3.34798">
        <ele>124.7</ele>
        <time>2017-11-19T07:30:39Z</time>
      </trkpt>
      <trkpt lat="43.5628" lon="3.34796">
        <ele>124.6</ele>
        <time>2017-11-19T07:30:40Z</time>
      </trkpt>
      <trkpt lat="43.56275" lon="3.34794">
        <ele>124.6</ele>
        <time>2017-11-19T07:30:41Z</time>
      </trkpt>
      <trkpt lat="43.5627" lon="3.34791">
        <ele>124.7</ele>
        <time>2017-11-19T07:30:42Z</time>
      </trkpt>
      <trkpt lat="43.56265" lon="3.34787">
        <ele>124.8</ele>
        <time>2017-11-19T07:30:43Z</time>
      </trkpt>
      <trkpt lat="43.56263" lon="3.34779">
        <ele>124.9</ele>
        <time>2017-11-19T07:30:44Z</time>
      </trkpt>
      <trkpt lat="43.56262" lon="3.34771">
        <ele>125.2</ele>
        <time>2017-11-19T07:30:45Z</time>
      </trkpt>
      <trkpt lat="43.56262" lon="3.34762">
        <ele>125.6</ele>
        <time>2017-11-19T07:30:46Z</time>
      </trkpt>
      <trkpt lat="43.56262" lon="3.34755">
        <ele>125.8</ele>
        <time>2017-11-19T07:30:47Z</time>
      </trkpt>
      <trkpt lat="43.56261" lon="3.34748">
        <ele>126.1</ele>
        <time>2017-11-19T07:30:48Z</time>
      </trkpt>
      <trkpt lat="43.5626" lon="3.34741">
        <ele>126.4</ele>
        <time>2017-11-19T07:30:49Z</time>
      </trkpt>
      <trkpt lat="43.56258" lon="3.34734">
        <ele>126.8</ele>
        <time>2017-11-19T07:30:50Z</time>
      </trkpt>
      <trkpt lat="43.56255" lon="3.34726">
        <ele>127.3</ele>
        <time>2017-11-19T07:30:51Z</time>
      </trkpt>
      <trkpt lat="43.56252" lon="3.34721">
        <ele>127.7</ele>
        <time>2017-11-19T07:30:52Z</time>
      </trkpt>
      <trkpt lat="43.5625" lon="3.34716">
        <ele>128.1</ele>
        <time>2017-11-19T07:30:53Z</time>
      </trkpt>
      <trkpt lat="43.5625" lon="3.34712">
        <ele>128.5</ele>
        <time>2017-11-19T07:30:54Z</time>
      </trkpt>
      <trkpt lat="43.5625" lon="3.34707">
        <ele>128.8</ele>
        <time>2017-11-19T07:30:55Z</time>
      </trkpt>
      <trkpt lat="43.5625" lon="3.34703">
        <ele>129.2</ele>
        <time>2017-11-19T07:30:56Z</time>
      </trkpt>
      <trkpt lat="43.5625" lon="3.34696">
        <ele>129.8</ele>
        <time>2017-11-19T07:30:58Z</time>
      </trkpt>
      <trkpt lat="43.5625" lon="3.34691">
        <ele>130.1</ele>
        <time>2017-11-19T07:30:59Z</time>
      </trkpt>
      <trkpt lat="43.5625" lon="3.34684">
        <ele>130.7</ele>
        <time>2017-11-19T07:31:01Z</time>
      </trkpt>
      <trkpt lat="43.56251" lon="3.34678">
        <ele>131.1</ele>
        <time>2017-11-19T07:31:02Z</time>
      </trkpt>
      <trkpt lat="43.56251" lon="3.34673">
        <ele>131.5</ele>
        <time>2017-11-19T07:31:03Z</time>
      </trkpt>
      <trkpt lat="43.5625" lon="3.34668">
        <ele>131.9</ele>
        <time>2017-11-19T07:31:04Z</time>
      </trkpt>
      <trkpt lat="43.5625" lon="3.34663">
        <ele>132.2</ele>
        <time>2017-11-19T07:31:05Z</time>
      </trkpt>
      <trkpt lat="43.56249" lon="3.34656">
        <ele>132.6</ele>
        <time>2017-11-19T07:31:07Z</time>
      </trkpt>
      <trkpt lat="43.56247" lon="3.34652">
        <ele>132.9</ele>
        <time>2017-11-19T07:31:08Z</time>
      </trkpt>
      <trkpt lat="43.56245" lon="3.34649">
        <ele>133.2</ele>
        <time>2017-11-19T07:31:09Z</time>
      </trkpt>
      <trkpt lat="43.56242" lon="3.34644">
        <ele>133.5</ele>
        <time>2017-11-19T07:31:10Z</time>
      </trkpt>
      <trkpt lat="43.5624" lon="3.3464">
        <ele>133.7</ele>
        <time>2017-11-19T07:31:11Z</time>
      </trkpt>
      <trkpt lat="43.56237" lon="3.34637">
        <ele>133.9</ele>
        <time>2017-11-19T07:31:13Z</time>
      </trkpt>
      <trkpt lat="43.56232" lon="3.34634">
        <ele>134.1</ele>
        <time>2017-11-19T07:31:15Z</time>
      </trkpt>
      <trkpt lat="43.56227" lon="3.34631">
        <ele>134.2</ele>
        <time>2017-11-19T07:31:17Z</time>
      </trkpt>
      <trkpt lat="43.56225" lon="3.34629">
        <ele>134.2</ele>
        <time>2017-11-19T07:31:18Z</time>
      </trkpt>
      <trkpt lat="43.56222" lon="3.34627">
        <ele>134.2</ele>
        <time>2017-11-19T07:31:19Z</time>
      </trkpt>
      <trkpt lat="43.5622" lon="3.34625">
        <ele>134.3</ele>
        <time>2017-11-19T07:31:20Z</time>
      </trkpt>
      <trkpt lat="43.56217" lon="3.34619">
        <ele>134.3</ele>
        <time>2017-11-19T07:31:22Z</time>
      </trkpt>
      <trkpt lat="43.56215" lon="3.34616">
        <ele>134.4</ele>
        <time>2017-11-19T07:31:23Z</time>
      </trkpt>
      <trkpt lat="43.56214" lon="3.34613">
        <ele>134.4</ele>
        <time>2017-11-19T07:31:24Z</time>
      </trkpt>
      <trkpt lat="43.56212" lon="3.34609">
        <ele>134.4</ele>
        <time>2017-11-19T07:31:25Z</time>
      </trkpt>
      <trkpt lat="43.56209" lon="3.34602">
        <ele>134.4</ele>
        <time>2017-11-19T07:31:27Z</time>
      </trkpt>
      <trkpt lat="43.56207" lon="3.34597">
        <ele>134.5</ele>
        <time>2017-11-19T07:31:28Z</time>
      </trkpt>
      <trkpt lat="43.56206" lon="3.34592">
        <ele>134.5</ele>
        <time>2017-11-19T07:31:29Z</time>
      </trkpt>
      <trkpt lat="43.56204" lon="3.34585">
        <ele>134.5</ele>
        <time>2017-11-19T07:31:31Z</time>
      </trkpt>
      <trkpt lat="43.56204" lon="3.34578">
        <ele>134.5</ele>
        <time>2017-11-19T07:31:33Z</time>
      </trkpt>
      <trkpt lat="43.56203" lon="3.34571">
        <ele>134.5</ele>
        <time>2017-11-19T07:31:35Z</time>
      </trkpt>
      <trkpt lat="43.56203" lon="3.34564">
        <ele>134.5</ele>
        <time>2017-11-19T07:31:37Z</time>
      </trkpt>
      <trkpt lat="43.56203" lon="3.34557">
        <ele>134.5</ele>
        <time>2017-11-19T07:31:39Z</time>
      </trkpt>
      <trkpt lat="43.56203" lon="3.34554">
        <ele>134.6</ele>
        <time>2017-11-19T07:31:40Z</time>
      </trkpt>
      <trkpt lat="43.56202" lon="3.3455">
        <ele>134.6</ele>
        <time>2017-11-19T07:31:41Z</time>
      </trkpt>
      <trkpt lat="43.56202" lon="3.34543">
        <ele>134.6</ele>
        <time>2017-11-19T07:31:43Z</time>
      </trkpt>
      <trkpt lat="43.56202" lon="3.34536">
        <ele>134.6</ele>
        <time>2017-11-19T07:31:45Z</time>
      </trkpt>
      <trkpt lat="43.56202" lon="3.34532">
        <ele>134.6</ele>
        <time>2017-11-19T07:31:46Z</time>
      </trkpt>
      <trkpt lat="43.56202" lon="3.34528">
        <ele>134.6</ele>
        <time>2017-11-19T07:31:47Z</time>
      </trkpt>
      <trkpt lat="43.56202" lon="3.34524">
        <ele>134.6</ele>
        <time>2017-11-19T07:31:48Z</time>
      </trkpt>
      <trkpt lat="43.56202" lon="3.34519">
        <ele>134.6</ele>
        <time>2017-11-19T07:31:49Z</time>
      </trkpt>
      <trkpt lat="43.56203" lon="3.34515">
        <ele>134.6</ele>
        <time>2017-11-19T07:31:50Z</time>
      </trkpt>
      <trkpt lat="43.56203" lon="3.34511">
        <ele>134.6</ele>
        <time>2017-11-19T07:31:51Z</time>
      </trkpt>
      <trkpt lat="43.56203" lon="3.34507">
        <ele>134.6</ele>
        <time>2017-11-19T07:31:52Z</time>
      </trkpt>
      <trkpt lat="43.56203" lon="3.34503">
        <ele>134.6</ele>
        <time>2017-11-19T07:31:53Z</time>
      </trkpt>
      <trkpt lat="43.56204" lon="3.34498">
        <ele>134.6</ele>
        <time>2017-11-19T07:31:54Z</time>
      </trkpt>
      <trkpt lat="43.56204" lon="3.34494">
        <ele>134.6</ele>
        <time>2017-11-19T07:31:55Z</time>
      </trkpt>
      <trkpt lat="43.56204" lon="3.3449">
        <ele>134.6</ele>
        <time>2017-11-19T07:31:56Z</time>
      </trkpt>
      <trkpt lat="43.56204" lon="3.34486">
        <ele>134.6</ele>
        <time>2017-11-19T07:31:57Z</time>
      </trkpt>
      <trkpt lat="43.56204" lon="3.3448">
        <ele>134.6</ele>
        <time>2017-11-19T07:31:58Z</time>
      </trkpt>
      <trkpt lat="43.56205" lon="3.34475">
        <ele>134.6</ele>
        <time>2017-11-19T07:31:59Z</time>
      </trkpt>
      <trkpt lat="43.56205" lon="3.34469">
        <ele>134.6</ele>
        <time>2017-11-19T07:32:00Z</time>
      </trkpt>
      <trkpt lat="43.56206" lon="3.34464">
        <ele>134.6</ele>
        <time>2017-11-19T07:32:01Z</time>
      </trkpt>
      <trkpt lat="43.56206" lon="3.3446">
        <ele>134.6</ele>
        <time>2017-11-19T07:32:02Z</time>
      </trkpt>
      <trkpt lat="43.56207" lon="3.34455">
        <ele>134.6</ele>
        <time>2017-11-19T07:32:03Z</time>
      </trkpt>
      <trkpt lat="43.56207" lon="3.3445">
        <ele>134.6</ele>
        <time>2017-11-19T07:32:04Z</time>
      </trkpt>
      <trkpt lat="43.56207" lon="3.34445">
        <ele>134.6</ele>
        <time>2017-11-19T07:32:05Z</time>
      </trkpt>
      <trkpt lat="43.56208" lon="3.34439">
        <ele>134.6</ele>
        <time>2017-11-19T07:32:06Z</time>
      </trkpt>
      <trkpt lat="43.56208" lon="3.34433">
        <ele>134.6</ele>
        <time>2017-11-19T07:32:07Z</time>
      </trkpt>
      <trkpt lat="43.56208" lon="3.34427">
        <ele>134.6</ele>
        <time>2017-11-19T07:32:08Z</time>
      </trkpt>
      <trkpt lat="43.56208" lon="3.34422">
        <ele>134.6</ele>
        <time>2017-11-19T07:32:09Z</time>
      </trkpt>
      <trkpt lat="43.56208" lon="3.34417">
        <ele>134.7</ele>
        <time>2017-11-19T07:32:10Z</time>
      </trkpt>
      <trkpt lat="43.56208" lon="3.34412">
        <ele>134.7</ele>
        <time>2017-11-19T07:32:11Z</time>
      </trkpt>
      <trkpt lat="43.56208" lon="3.34407">
        <ele>134.7</ele>
        <time>2017-11-19T07:32:12Z</time>
      </trkpt>
      <trkpt lat="43.56208" lon="3.34403">
        <ele>134.7</ele>
        <time>2017-11-19T07:32:13Z</time>
      </trkpt>
      <trkpt lat="43.56208" lon="3.34399">
        <ele>134.7</ele>
        <time>2017-11-19T07:32:14Z</time>
      </trkpt>
      <trkpt lat="43.56208" lon="3.34394">
        <ele>134.7</ele>
        <time>2017-11-19T07:32:15Z</time>
      </trkpt>
      <trkpt lat="43.56208" lon="3.34389">
        <ele>134.8</ele>
        <time>2017-11-19T07:32:16Z</time>
      </trkpt>
      <trkpt lat="43.56208" lon="3.34383">
        <ele>134.8</ele>
        <time>2017-11-19T07:32:17Z</time>
      </trkpt>
      <trkpt lat="43.56208" lon="3.34377">
        <ele>134.9</ele>
        <time>2017-11-19T07:32:18Z</time>
      </trkpt>
      <trkpt lat="43.56207" lon="3.34371">
        <ele>134.9</ele>
        <time>2017-11-19T07:32:19Z</time>
      </trkpt>
      <trkpt lat="43.56208" lon="3.34365">
        <ele>135</ele>
        <time>2017-11-19T07:32:20Z</time>
      </trkpt>
      <trkpt lat="43.56208" lon="3.3436">
        <ele>135.1</ele>
        <time>2017-11-19T07:32:21Z</time>
      </trkpt>
      <trkpt lat="43.56208" lon="3.34354">
        <ele>135.2</ele>
        <time>2017-11-19T07:32:22Z</time>
      </trkpt>
      <trkpt lat="43.56208" lon="3.34349">
        <ele>135.4</ele>
        <time>2017-11-19T07:32:23Z</time>
      </trkpt>
      <trkpt lat="43.56208" lon="3.34343">
        <ele>135.6</ele>
        <time>2017-11-19T07:32:24Z</time>
      </trkpt>
      <trkpt lat="43.56208" lon="3.34338">
        <ele>135.8</ele>
        <time>2017-11-19T07:32:25Z</time>
      </trkpt>
      <trkpt lat="43.56208" lon="3.34333">
        <ele>136</ele>
        <time>2017-11-19T07:32:26Z</time>
      </trkpt>
      <trkpt lat="43.56207" lon="3.34328">
        <ele>136.2</ele>
        <time>2017-11-19T07:32:27Z</time>
      </trkpt>
      <trkpt lat="43.56206" lon="3.34322">
        <ele>136.5</ele>
        <time>2017-11-19T07:32:28Z</time>
      </trkpt>
      <trkpt lat="43.56206" lon="3.34318">
        <ele>136.7</ele>
        <time>2017-11-19T07:32:29Z</time>
      </trkpt>
      <trkpt lat="43.56206" lon="3.34313">
        <ele>136.9</ele>
        <time>2017-11-19T07:32:30Z</time>
      </trkpt>
      <trkpt lat="43.56205" lon="3.34309">
        <ele>137.2</ele>
        <time>2017-11-19T07:32:31Z</time>
      </trkpt>
      <trkpt lat="43.56205" lon="3.34304">
        <ele>137.4</ele>
        <time>2017-11-19T07:32:32Z</time>
      </trkpt>
      <trkpt lat="43.56205" lon="3.343">
        <ele>137.6</ele>
        <time>2017-11-19T07:32:33Z</time>
      </trkpt>
      <trkpt lat="43.56204" lon="3.34296">
        <ele>137.9</ele>
        <time>2017-11-19T07:32:34Z</time>
      </trkpt>
      <trkpt lat="43.56203" lon="3.34291">
        <ele>138.2</ele>
        <time>2017-11-19T07:32:35Z</time>
      </trkpt>
      <trkpt lat="43.56203" lon="3.34286">
        <ele>138.4</ele>
        <time>2017-11-19T07:32:36Z</time>
      </trkpt>
      <trkpt lat="43.56203" lon="3.34282">
        <ele>138.7</ele>
        <time>2017-11-19T07:32:37Z</time>
      </trkpt>
      <trkpt lat="43.56202" lon="3.34278">
        <ele>138.9</ele>
        <time>2017-11-19T07:32:38Z</time>
      </trkpt>
      <trkpt lat="43.56202" lon="3.34273">
        <ele>139.2</ele>
        <time>2017-11-19T07:32:39Z</time>
      </trkpt>
      <trkpt lat="43.56201" lon="3.34269">
        <ele>139.4</ele>
        <time>2017-11-19T07:32:40Z</time>
      </trkpt>
      <trkpt lat="43.56201" lon="3.34265">
        <ele>139.6</ele>
        <time>2017-11-19T07:32:41Z</time>
      </trkpt>
      <trkpt lat="43.562" lon="3.34261">
        <ele>139.8</ele>
        <time>2017-11-19T07:32:42Z</time>
      </trkpt>
      <trkpt lat="43.56199" lon="3.34256">
        <ele>140</ele>
        <time>2017-11-19T07:32:43Z</time>
      </trkpt>
      <trkpt lat="43.56198" lon="3.34252">
        <ele>140.2</ele>
        <time>2017-11-19T07:32:44Z</time>
      </trkpt>
      <trkpt lat="43.56197" lon="3.34247">
        <ele>140.4</ele>
        <time>2017-11-19T07:32:45Z</time>
      </trkpt>
      <trkpt lat="43.56197" lon="3.34243">
        <ele>140.5</ele>
        <time>2017-11-19T07:32:46Z</time>
      </trkpt>
      <trkpt lat="43.56196" lon="3.34238">
        <ele>140.7</ele>
        <time>2017-11-19T07:32:47Z</time>
      </trkpt>
      <trkpt lat="43.56196" lon="3.34233">
        <ele>140.9</ele>
        <time>2017-11-19T07:32:48Z</time>
      </trkpt>
      <trkpt lat="43.56196" lon="3.34229">
        <ele>141</ele>
        <time>2017-11-19T07:32:49Z</time>
      </trkpt>
      <trkpt lat="43.56196" lon="3.34224">
        <ele>141.1</ele>
        <time>2017-11-19T07:32:50Z</time>
      </trkpt>
      <trkpt lat="43.56196" lon="3.34219">
        <ele>141.2</ele>
        <time>2017-11-19T07:32:51Z</time>
      </trkpt>
      <trkpt lat="43.56197" lon="3.34214">
        <ele>141.3</ele>
        <time>2017-11-19T07:32:52Z</time>
      </trkpt>
      <trkpt lat="43.56198" lon="3.3421">
        <ele>141.4</ele>
        <time>2017-11-19T07:32:53Z</time>
      </trkpt>
      <trkpt lat="43.56199" lon="3.34206">
        <ele>141.6</ele>
        <time>2017-11-19T07:32:54Z</time>
      </trkpt>
      <trkpt lat="43.562" lon="3.34202">
        <ele>141.7</ele>
        <time>2017-11-19T07:32:55Z</time>
      </trkpt>
      <trkpt lat="43.56201" lon="3.34197">
        <ele>141.9</ele>
        <time>2017-11-19T07:32:56Z</time>
      </trkpt>
      <trkpt lat="43.56202" lon="3.34193">
        <ele>142.1</ele>
        <time>2017-11-19T07:32:57Z</time>
      </trkpt>
      <trkpt lat="43.56203" lon="3.34189">
        <ele>142.2</ele>
        <time>2017-11-19T07:32:58Z</time>
      </trkpt>
      <trkpt lat="43.56204" lon="3.34184">
        <ele>142.4</ele>
        <time>2017-11-19T07:32:59Z</time>
      </trkpt>
      <trkpt lat="43.56205" lon="3.3418">
        <ele>142.6</ele>
        <time>2017-11-19T07:33:00Z</time>
      </trkpt>
      <trkpt lat="43.56207" lon="3.34176">
        <ele>142.8</ele>
        <time>2017-11-19T07:33:01Z</time>
      </trkpt>
      <trkpt lat="43.56208" lon="3.34171">
        <ele>143</ele>
        <time>2017-11-19T07:33:02Z</time>
      </trkpt>
      <trkpt lat="43.5621" lon="3.34166">
        <ele>143.2</ele>
        <time>2017-11-19T07:33:03Z</time>
      </trkpt>
      <trkpt lat="43.56212" lon="3.34162">
        <ele>143.4</ele>
        <time>2017-11-19T07:33:04Z</time>
      </trkpt>
      <trkpt lat="43.56214" lon="3.34158">
        <ele>143.6</ele>
        <time>2017-11-19T07:33:05Z</time>
      </trkpt>
      <trkpt lat="43.56216" lon="3.34155">
        <ele>143.8</ele>
        <time>2017-11-19T07:33:06Z</time>
      </trkpt>
      <trkpt lat="43.56218" lon="3.34152">
        <ele>143.9</ele>
        <time>2017-11-19T07:33:07Z</time>
      </trkpt>
      <trkpt lat="43.5622" lon="3.34148">
        <ele>144.1</ele>
        <time>2017-11-19T07:33:08Z</time>
      </trkpt>
      <trkpt lat="43.56223" lon="3.34145">
        <ele>144.2</ele>
        <time>2017-11-19T07:33:09Z</time>
      </trkpt>
      <trkpt lat="43.56225" lon="3.34142">
        <ele>144.4</ele>
        <time>2017-11-19T07:33:10Z</time>
      </trkpt>
      <trkpt lat="43.56227" lon="3.34138">
        <ele>144.5</ele>
        <time>2017-11-19T07:33:11Z</time>
      </trkpt>
      <trkpt lat="43.56229" lon="3.34135">
        <ele>144.7</ele>
        <time>2017-11-19T07:33:12Z</time>
      </trkpt>
      <trkpt lat="43.56231" lon="3.34131">
        <ele>144.8</ele>
        <time>2017-11-19T07:33:13Z</time>
      </trkpt>
      <trkpt lat="43.56233" lon="3.34128">
        <ele>144.9</ele>
        <time>2017-11-19T07:33:14Z</time>
      </trkpt>
      <trkpt lat="43.56235" lon="3.34124">
        <ele>145</ele>
        <time>2017-11-19T07:33:15Z</time>
      </trkpt>
      <trkpt lat="43.56237" lon="3.3412">
        <ele>145.1</ele>
        <time>2017-11-19T07:33:16Z</time>
      </trkpt>
      <trkpt lat="43.56239" lon="3.34117">
        <ele>145.1</ele>
        <time>2017-11-19T07:33:17Z</time>
      </trkpt>
      <trkpt lat="43.56241" lon="3.34113">
        <ele>145.1</ele>
        <time>2017-11-19T07:33:18Z</time>
      </trkpt>
      <trkpt lat="43.56243" lon="3.3411">
        <ele>145.2</ele>
        <time>2017-11-19T07:33:19Z</time>
      </trkpt>
      <trkpt lat="43.56245" lon="3.34106">
        <ele>145.2</ele>
        <time>2017-11-19T07:33:20Z</time>
      </trkpt>
      <trkpt lat="43.56247" lon="3.34103">
        <ele>145.2</ele>
        <time>2017-11-19T07:33:21Z</time>
      </trkpt>
      <trkpt lat="43.5625" lon="3.341">
        <ele>145.2</ele>
        <time>2017-11-19T07:33:22Z</time>
      </trkpt>
      <trkpt lat="43.56252" lon="3.34097">
        <ele>145.3</ele>
        <time>2017-11-19T07:33:23Z</time>
      </trkpt>
      <trkpt lat="43.56255" lon="3.34093">
        <ele>145.3</ele>
        <time>2017-11-19T07:33:24Z</time>
      </trkpt>
      <trkpt lat="43.56257" lon="3.34091">
        <ele>145.3</ele>
        <time>2017-11-19T07:33:25Z</time>
      </trkpt>
      <trkpt lat="43.56259" lon="3.34088">
        <ele>145.3</ele>
        <time>2017-11-19T07:33:26Z</time>
      </trkpt>
      <trkpt lat="43.56262" lon="3.34085">
        <ele>145.3</ele>
        <time>2017-11-19T07:33:27Z</time>
      </trkpt>
      <trkpt lat="43.56265" lon="3.34083">
        <ele>145.3</ele>
        <time>2017-11-19T07:33:28Z</time>
      </trkpt>
      <trkpt lat="43.56267" lon="3.3408">
        <ele>145.3</ele>
        <time>2017-11-19T07:33:29Z</time>
      </trkpt>
      <trkpt lat="43.5627" lon="3.34077">
        <ele>145.3</ele>
        <time>2017-11-19T07:33:30Z</time>
      </trkpt>
      <trkpt lat="43.56273" lon="3.34074">
        <ele>145.3</ele>
        <time>2017-11-19T07:33:31Z</time>
      </trkpt>
      <trkpt lat="43.56275" lon="3.34071">
        <ele>145.2</ele>
        <time>2017-11-19T07:33:32Z</time>
      </trkpt>
      <trkpt lat="43.56277" lon="3.34068">
        <ele>145.2</ele>
        <time>2017-11-19T07:33:33Z</time>
      </trkpt>
      <trkpt lat="43.5628" lon="3.34065">
        <ele>145.2</ele>
        <time>2017-11-19T07:33:34Z</time>
      </trkpt>
      <trkpt lat="43.56282" lon="3.34062">
        <ele>145.2</ele>
        <time>2017-11-19T07:33:35Z</time>
      </trkpt>
      <trkpt lat="43.56285" lon="3.34059">
        <ele>145.1</ele>
        <time>2017-11-19T07:33:36Z</time>
      </trkpt>
      <trkpt lat="43.56287" lon="3.34057">
        <ele>145</ele>
        <time>2017-11-19T07:33:37Z</time>
      </trkpt>
      <trkpt lat="43.5629" lon="3.34054">
        <ele>144.9</ele>
        <time>2017-11-19T07:33:38Z</time>
      </trkpt>
      <trkpt lat="43.56292" lon="3.34051">
        <ele>144.7</ele>
        <time>2017-11-19T07:33:39Z</time>
      </trkpt>
      <trkpt lat="43.56295" lon="3.34048">
        <ele>144.5</ele>
        <time>2017-11-19T07:33:40Z</time>
      </trkpt>
      <trkpt lat="43.56297" lon="3.34046">
        <ele>144.3</ele>
        <time>2017-11-19T07:33:41Z</time>
      </trkpt>
      <trkpt lat="43.56301" lon="3.34039">
        <ele>143.9</ele>
        <time>2017-11-19T07:33:43Z</time>
      </trkpt>
      <trkpt lat="43.56303" lon="3.34035">
        <ele>143.8</ele>
        <time>2017-11-19T07:33:44Z</time>
      </trkpt>
      <trkpt lat="43.56305" lon="3.34031">
        <ele>143.6</ele>
        <time>2017-11-19T07:33:45Z</time>
      </trkpt>
      <trkpt lat="43.56307" lon="3.34028">
        <ele>143.6</ele>
        <time>2017-11-19T07:33:46Z</time>
      </trkpt>
      <trkpt lat="43.5631" lon="3.34024">
        <ele>143.5</ele>
        <time>2017-11-19T07:33:47Z</time>
      </trkpt>
      <trkpt lat="43.56313" lon="3.34021">
        <ele>143.4</ele>
        <time>2017-11-19T07:33:48Z</time>
      </trkpt>
      <trkpt lat="43.56316" lon="3.34019">
        <ele>143.3</ele>
        <time>2017-11-19T07:33:49Z</time>
      </trkpt>
      <trkpt lat="43.56321" lon="3.34018">
        <ele>143.3</ele>
        <time>2017-11-19T07:33:50Z</time>
      </trkpt>
      <trkpt lat="43.56325" lon="3.34019">
        <ele>143.3</ele>
        <time>2017-11-19T07:33:51Z</time>
      </trkpt>
      <trkpt lat="43.5633" lon="3.3402">
        <ele>143.2</ele>
        <time>2017-11-19T07:33:52Z</time>
      </trkpt>
      <trkpt lat="43.56335" lon="3.34021">
        <ele>143.2</ele>
        <time>2017-11-19T07:33:53Z</time>
      </trkpt>
      <trkpt lat="43.56339" lon="3.34023">
        <ele>143.2</ele>
        <time>2017-11-19T07:33:54Z</time>
      </trkpt>
      <trkpt lat="43.56343" lon="3.34024">
        <ele>143.2</ele>
        <time>2017-11-19T07:33:55Z</time>
      </trkpt>
      <trkpt lat="43.56347" lon="3.34026">
        <ele>143.2</ele>
        <time>2017-11-19T07:33:56Z</time>
      </trkpt>
      <trkpt lat="43.5635" lon="3.34026">
        <ele>143.3</ele>
        <time>2017-11-19T07:33:57Z</time>
      </trkpt>
      <trkpt lat="43.56354" lon="3.34027">
        <ele>143.3</ele>
        <time>2017-11-19T07:33:58Z</time>
      </trkpt>
      <trkpt lat="43.56357" lon="3.34027">
        <ele>143.3</ele>
        <time>2017-11-19T07:33:59Z</time>
      </trkpt>
      <trkpt lat="43.56362" lon="3.34026">
        <ele>143.4</ele>
        <time>2017-11-19T07:34:00Z</time>
      </trkpt>
      <trkpt lat="43.56366" lon="3.34025">
        <ele>143.5</ele>
        <time>2017-11-19T07:34:01Z</time>
      </trkpt>
      <trkpt lat="43.5637" lon="3.34024">
        <ele>143.5</ele>
        <time>2017-11-19T07:34:02Z</time>
      </trkpt>
      <trkpt lat="43.56375" lon="3.34021">
        <ele>143.6</ele>
        <time>2017-11-19T07:34:03Z</time>
      </trkpt>
      <trkpt lat="43.5638" lon="3.34017">
        <ele>143.8</ele>
        <time>2017-11-19T07:34:04Z</time>
      </trkpt>
      <trkpt lat="43.56384" lon="3.34013">
        <ele>144</ele>
        <time>2017-11-19T07:34:05Z</time>
      </trkpt>
      <trkpt lat="43.56386" lon="3.34008">
        <ele>144.2</ele>
        <time>2017-11-19T07:34:06Z</time>
      </trkpt>
      <trkpt lat="43.56387" lon="3.34002">
        <ele>144.3</ele>
        <time>2017-11-19T07:34:07Z</time>
      </trkpt>
      <trkpt lat="43.56389" lon="3.33998">
        <ele>144.5</ele>
        <time>2017-11-19T07:34:08Z</time>
      </trkpt>
      <trkpt lat="43.5639" lon="3.33993">
        <ele>144.6</ele>
        <time>2017-11-19T07:34:09Z</time>
      </trkpt>
      <trkpt lat="43.56391" lon="3.33988">
        <ele>144.7</ele>
        <time>2017-11-19T07:34:10Z</time>
      </trkpt>
      <trkpt lat="43.56391" lon="3.33983">
        <ele>144.8</ele>
        <time>2017-11-19T07:34:11Z</time>
      </trkpt>
      <trkpt lat="43.56392" lon="3.33978">
        <ele>144.8</ele>
        <time>2017-11-19T07:34:12Z</time>
      </trkpt>
      <trkpt lat="43.56392" lon="3.33972">
        <ele>144.8</ele>
        <time>2017-11-19T07:34:13Z</time>
      </trkpt>
      <trkpt lat="43.56392" lon="3.33967">
        <ele>144.9</ele>
        <time>2017-11-19T07:34:14Z</time>
      </trkpt>
      <trkpt lat="43.56392" lon="3.33961">
        <ele>144.9</ele>
        <time>2017-11-19T07:34:15Z</time>
      </trkpt>
      <trkpt lat="43.56392" lon="3.33956">
        <ele>145</ele>
        <time>2017-11-19T07:34:16Z</time>
      </trkpt>
      <trkpt lat="43.56392" lon="3.33951">
        <ele>145</ele>
        <time>2017-11-19T07:34:17Z</time>
      </trkpt>
      <trkpt lat="43.56392" lon="3.33945">
        <ele>145.1</ele>
        <time>2017-11-19T07:34:18Z</time>
      </trkpt>
      <trkpt lat="43.56391" lon="3.3394">
        <ele>145.1</ele>
        <time>2017-11-19T07:34:19Z</time>
      </trkpt>
      <trkpt lat="43.56391" lon="3.33935">
        <ele>145.1</ele>
        <time>2017-11-19T07:34:20Z</time>
      </trkpt>
      <trkpt lat="43.56391" lon="3.3393">
        <ele>145.1</ele>
        <time>2017-11-19T07:34:21Z</time>
      </trkpt>
      <trkpt lat="43.56391" lon="3.33925">
        <ele>145.2</ele>
        <time>2017-11-19T07:34:22Z</time>
      </trkpt>
      <trkpt lat="43.56391" lon="3.3392">
        <ele>145.2</ele>
        <time>2017-11-19T07:34:23Z</time>
      </trkpt>
      <trkpt lat="43.5639" lon="3.33915">
        <ele>145.2</ele>
        <time>2017-11-19T07:34:24Z</time>
      </trkpt>
      <trkpt lat="43.5639" lon="3.3391">
        <ele>145.2</ele>
        <time>2017-11-19T07:34:25Z</time>
      </trkpt>
      <trkpt lat="43.56389" lon="3.33905">
        <ele>145.3</ele>
        <time>2017-11-19T07:34:26Z</time>
      </trkpt>
      <trkpt lat="43.56388" lon="3.33899">
        <ele>145.3</ele>
        <time>2017-11-19T07:34:27Z</time>
      </trkpt>
      <trkpt lat="43.56387" lon="3.33893">
        <ele>145.3</ele>
        <time>2017-11-19T07:34:28Z</time>
      </trkpt>
      <trkpt lat="43.56386" lon="3.33888">
        <ele>145.3</ele>
        <time>2017-11-19T07:34:29Z</time>
      </trkpt>
      <trkpt lat="43.56385" lon="3.33883">
        <ele>145.4</ele>
        <time>2017-11-19T07:34:30Z</time>
      </trkpt>
      <trkpt lat="43.56384" lon="3.33878">
        <ele>145.4</ele>
        <time>2017-11-19T07:34:31Z</time>
      </trkpt>
      <trkpt lat="43.56383" lon="3.33874">
        <ele>145.4</ele>
        <time>2017-11-19T07:34:32Z</time>
      </trkpt>
      <trkpt lat="43.56382" lon="3.33869">
        <ele>145.5</ele>
        <time>2017-11-19T07:34:33Z</time>
      </trkpt>
      <trkpt lat="43.56382" lon="3.33864">
        <ele>145.5</ele>
        <time>2017-11-19T07:34:34Z</time>
      </trkpt>
      <trkpt lat="43.56382" lon="3.33859">
        <ele>145.5</ele>
        <time>2017-11-19T07:34:35Z</time>
      </trkpt>
      <trkpt lat="43.56382" lon="3.33853">
        <ele>145.6</ele>
        <time>2017-11-19T07:34:36Z</time>
      </trkpt>
      <trkpt lat="43.56383" lon="3.33849">
        <ele>145.6</ele>
        <time>2017-11-19T07:34:37Z</time>
      </trkpt>
      <trkpt lat="43.56384" lon="3.33845">
        <ele>145.7</ele>
        <time>2017-11-19T07:34:38Z</time>
      </trkpt>
      <trkpt lat="43.56386" lon="3.33841">
        <ele>145.7</ele>
        <time>2017-11-19T07:34:39Z</time>
      </trkpt>
      <trkpt lat="43.56388" lon="3.33837">
        <ele>145.8</ele>
        <time>2017-11-19T07:34:40Z</time>
      </trkpt>
      <trkpt lat="43.56391" lon="3.33833">
        <ele>145.9</ele>
        <time>2017-11-19T07:34:41Z</time>
      </trkpt>
      <trkpt lat="43.56394" lon="3.3383">
        <ele>146.1</ele>
        <time>2017-11-19T07:34:42Z</time>
      </trkpt>
      <trkpt lat="43.56397" lon="3.33827">
        <ele>146.2</ele>
        <time>2017-11-19T07:34:43Z</time>
      </trkpt>
      <trkpt lat="43.564" lon="3.33825">
        <ele>146.4</ele>
        <time>2017-11-19T07:34:44Z</time>
      </trkpt>
      <trkpt lat="43.56403" lon="3.33821">
        <ele>146.5</ele>
        <time>2017-11-19T07:34:45Z</time>
      </trkpt>
      <trkpt lat="43.56406" lon="3.33818">
        <ele>146.7</ele>
        <time>2017-11-19T07:34:46Z</time>
      </trkpt>
      <trkpt lat="43.56408" lon="3.33815">
        <ele>146.8</ele>
        <time>2017-11-19T07:34:47Z</time>
      </trkpt>
      <trkpt lat="43.56411" lon="3.33813">
        <ele>146.9</ele>
        <time>2017-11-19T07:34:48Z</time>
      </trkpt>
      <trkpt lat="43.56413" lon="3.33811">
        <ele>147</ele>
        <time>2017-11-19T07:34:49Z</time>
      </trkpt>
      <trkpt lat="43.56416" lon="3.33809">
        <ele>147.1</ele>
        <time>2017-11-19T07:34:50Z</time>
      </trkpt>
      <trkpt lat="43.5642" lon="3.33807">
        <ele>147.2</ele>
        <time>2017-11-19T07:34:51Z</time>
      </trkpt>
      <trkpt lat="43.56423" lon="3.33806">
        <ele>147.3</ele>
        <time>2017-11-19T07:34:52Z</time>
      </trkpt>
      <trkpt lat="43.56426" lon="3.33804">
        <ele>147.5</ele>
        <time>2017-11-19T07:34:53Z</time>
      </trkpt>
      <trkpt lat="43.5643" lon="3.33804">
        <ele>147.6</ele>
        <time>2017-11-19T07:34:54Z</time>
      </trkpt>
      <trkpt lat="43.56434" lon="3.33803">
        <ele>147.8</ele>
        <time>2017-11-19T07:34:55Z</time>
      </trkpt>
      <trkpt lat="43.56438" lon="3.33803">
        <ele>147.9</ele>
        <time>2017-11-19T07:34:56Z</time>
      </trkpt>
      <trkpt lat="43.56442" lon="3.33803">
        <ele>148.1</ele>
        <time>2017-11-19T07:34:57Z</time>
      </trkpt>
      <trkpt lat="43.56445" lon="3.33804">
        <ele>148.2</ele>
        <time>2017-11-19T07:34:58Z</time>
      </trkpt>
      <trkpt lat="43.56449" lon="3.33804">
        <ele>148.4</ele>
        <time>2017-11-19T07:34:59Z</time>
      </trkpt>
      <trkpt lat="43.56452" lon="3.33805">
        <ele>148.6</ele>
        <time>2017-11-19T07:35:00Z</time>
      </trkpt>
      <trkpt lat="43.56455" lon="3.33805">
        <ele>148.7</ele>
        <time>2017-11-19T07:35:01Z</time>
      </trkpt>
      <trkpt lat="43.56459" lon="3.33805">
        <ele>148.8</ele>
        <time>2017-11-19T07:35:02Z</time>
      </trkpt>
      <trkpt lat="43.56462" lon="3.33804">
        <ele>149</ele>
        <time>2017-11-19T07:35:03Z</time>
      </trkpt>
      <trkpt lat="43.56466" lon="3.33801">
        <ele>149.1</ele>
        <time>2017-11-19T07:35:05Z</time>
      </trkpt>
      <trkpt lat="43.56469" lon="3.33799">
        <ele>149.2</ele>
        <time>2017-11-19T07:35:06Z</time>
      </trkpt>
      <trkpt lat="43.56471" lon="3.33796">
        <ele>149.3</ele>
        <time>2017-11-19T07:35:07Z</time>
      </trkpt>
      <trkpt lat="43.56474" lon="3.33794">
        <ele>149.4</ele>
        <time>2017-11-19T07:35:08Z</time>
      </trkpt>
      <trkpt lat="43.56477" lon="3.33792">
        <ele>149.5</ele>
        <time>2017-11-19T07:35:09Z</time>
      </trkpt>
      <trkpt lat="43.5648" lon="3.3379">
        <ele>149.7</ele>
        <time>2017-11-19T07:35:10Z</time>
      </trkpt>
      <trkpt lat="43.56482" lon="3.33788">
        <ele>149.8</ele>
        <time>2017-11-19T07:35:11Z</time>
      </trkpt>
      <trkpt lat="43.56486" lon="3.33786">
        <ele>150</ele>
        <time>2017-11-19T07:35:12Z</time>
      </trkpt>
      <trkpt lat="43.56489" lon="3.33784">
        <ele>150.2</ele>
        <time>2017-11-19T07:35:13Z</time>
      </trkpt>
      <trkpt lat="43.56492" lon="3.33782">
        <ele>150.3</ele>
        <time>2017-11-19T07:35:14Z</time>
      </trkpt>
      <trkpt lat="43.56495" lon="3.33779">
        <ele>150.5</ele>
        <time>2017-11-19T07:35:15Z</time>
      </trkpt>
      <trkpt lat="43.56497" lon="3.33777">
        <ele>150.6</ele>
        <time>2017-11-19T07:35:16Z</time>
      </trkpt>
      <trkpt lat="43.565" lon="3.33774">
        <ele>150.8</ele>
        <time>2017-11-19T07:35:17Z</time>
      </trkpt>
      <trkpt lat="43.56502" lon="3.33772">
        <ele>150.9</ele>
        <time>2017-11-19T07:35:18Z</time>
      </trkpt>
      <trkpt lat="43.56504" lon="3.33769">
        <ele>151</ele>
        <time>2017-11-19T07:35:19Z</time>
      </trkpt>
      <trkpt lat="43.56506" lon="3.33766">
        <ele>151.2</ele>
        <time>2017-11-19T07:35:20Z</time>
      </trkpt>
      <trkpt lat="43.56508" lon="3.33763">
        <ele>151.2</ele>
        <time>2017-11-19T07:35:21Z</time>
      </trkpt>
      <trkpt lat="43.56511" lon="3.33761">
        <ele>151.3</ele>
        <time>2017-11-19T07:35:22Z</time>
      </trkpt>
      <trkpt lat="43.56513" lon="3.33758">
        <ele>151.4</ele>
        <time>2017-11-19T07:35:23Z</time>
      </trkpt>
      <trkpt lat="43.56515" lon="3.33755">
        <ele>151.5</ele>
        <time>2017-11-19T07:35:24Z</time>
      </trkpt>
      <trkpt lat="43.56517" lon="3.33752">
        <ele>151.6</ele>
        <time>2017-11-19T07:35:25Z</time>
      </trkpt>
      <trkpt lat="43.56519" lon="3.33749">
        <ele>151.7</ele>
        <time>2017-11-19T07:35:26Z</time>
      </trkpt>
      <trkpt lat="43.56522" lon="3.33746">
        <ele>151.8</ele>
        <time>2017-11-19T07:35:27Z</time>
      </trkpt>
      <trkpt lat="43.56524" lon="3.33743">
        <ele>152</ele>
        <time>2017-11-19T07:35:28Z</time>
      </trkpt>
      <trkpt lat="43.56526" lon="3.3374">
        <ele>152.2</ele>
        <time>2017-11-19T07:35:29Z</time>
      </trkpt>
      <trkpt lat="43.56528" lon="3.33735">
        <ele>152.4</ele>
        <time>2017-11-19T07:35:30Z</time>
      </trkpt>
      <trkpt lat="43.5653" lon="3.33731">
        <ele>152.6</ele>
        <time>2017-11-19T07:35:31Z</time>
      </trkpt>
      <trkpt lat="43.56531" lon="3.33725">
        <ele>152.9</ele>
        <time>2017-11-19T07:35:32Z</time>
      </trkpt>
      <trkpt lat="43.56531" lon="3.33721">
        <ele>153.1</ele>
        <time>2017-11-19T07:35:33Z</time>
      </trkpt>
      <trkpt lat="43.56531" lon="3.33716">
        <ele>153.3</ele>
        <time>2017-11-19T07:35:34Z</time>
      </trkpt>
      <trkpt lat="43.56531" lon="3.33712">
        <ele>153.6</ele>
        <time>2017-11-19T07:35:35Z</time>
      </trkpt>
      <trkpt lat="43.5653" lon="3.33707">
        <ele>153.8</ele>
        <time>2017-11-19T07:35:36Z</time>
      </trkpt>
      <trkpt lat="43.5653" lon="3.33703">
        <ele>154</ele>
        <time>2017-11-19T07:35:37Z</time>
      </trkpt>
      <trkpt lat="43.56529" lon="3.33699">
        <ele>154.2</ele>
        <time>2017-11-19T07:35:38Z</time>
      </trkpt>
      <trkpt lat="43.56528" lon="3.33695">
        <ele>154.4</ele>
        <time>2017-11-19T07:35:39Z</time>
      </trkpt>
      <trkpt lat="43.56526" lon="3.33687">
        <ele>154.7</ele>
        <time>2017-11-19T07:35:41Z</time>
      </trkpt>
      <trkpt lat="43.56525" lon="3.33683">
        <ele>154.9</ele>
        <time>2017-11-19T07:35:42Z</time>
      </trkpt>
      <trkpt lat="43.56524" lon="3.33679">
        <ele>155.1</ele>
        <time>2017-11-19T07:35:43Z</time>
      </trkpt>
      <trkpt lat="43.56522" lon="3.33676">
        <ele>155.2</ele>
        <time>2017-11-19T07:35:44Z</time>
      </trkpt>
      <trkpt lat="43.5652" lon="3.33668">
        <ele>155.4</ele>
        <time>2017-11-19T07:35:46Z</time>
      </trkpt>
      <trkpt lat="43.56519" lon="3.33665">
        <ele>155.5</ele>
        <time>2017-11-19T07:35:47Z</time>
      </trkpt>
      <trkpt lat="43.56518" lon="3.33661">
        <ele>155.6</ele>
        <time>2017-11-19T07:35:48Z</time>
      </trkpt>
      <trkpt lat="43.56517" lon="3.33657">
        <ele>155.7</ele>
        <time>2017-11-19T07:35:49Z</time>
      </trkpt>
      <trkpt lat="43.56516" lon="3.33653">
        <ele>155.7</ele>
        <time>2017-11-19T07:35:50Z</time>
      </trkpt>
      <trkpt lat="43.56515" lon="3.3365">
        <ele>155.8</ele>
        <time>2017-11-19T07:35:51Z</time>
      </trkpt>
      <trkpt lat="43.56513" lon="3.33646">
        <ele>155.9</ele>
        <time>2017-11-19T07:35:52Z</time>
      </trkpt>
      <trkpt lat="43.56512" lon="3.33642">
        <ele>155.9</ele>
        <time>2017-11-19T07:35:53Z</time>
      </trkpt>
      <trkpt lat="43.56511" lon="3.33639">
        <ele>156</ele>
        <time>2017-11-19T07:35:54Z</time>
      </trkpt>
      <trkpt lat="43.5651" lon="3.33635">
        <ele>156.2</ele>
        <time>2017-11-19T07:35:55Z</time>
      </trkpt>
      <trkpt lat="43.56508" lon="3.33631">
        <ele>156.4</ele>
        <time>2017-11-19T07:35:56Z</time>
      </trkpt>
      <trkpt lat="43.56505" lon="3.33624">
        <ele>156.7</ele>
        <time>2017-11-19T07:35:58Z</time>
      </trkpt>
      <trkpt lat="43.56503" lon="3.33621">
        <ele>156.8</ele>
        <time>2017-11-19T07:35:59Z</time>
      </trkpt>
      <trkpt lat="43.56502" lon="3.33616">
        <ele>156.9</ele>
        <time>2017-11-19T07:36:00Z</time>
      </trkpt>
      <trkpt lat="43.56501" lon="3.33612">
        <ele>157</ele>
        <time>2017-11-19T07:36:01Z</time>
      </trkpt>
      <trkpt lat="43.56499" lon="3.33609">
        <ele>157.1</ele>
        <time>2017-11-19T07:36:02Z</time>
      </trkpt>
      <trkpt lat="43.56498" lon="3.33605">
        <ele>157.1</ele>
        <time>2017-11-19T07:36:03Z</time>
      </trkpt>
      <trkpt lat="43.56496" lon="3.33602">
        <ele>157.2</ele>
        <time>2017-11-19T07:36:04Z</time>
      </trkpt>
      <trkpt lat="43.56494" lon="3.33598">
        <ele>157.2</ele>
        <time>2017-11-19T07:36:05Z</time>
      </trkpt>
      <trkpt lat="43.56492" lon="3.33595">
        <ele>157.3</ele>
        <time>2017-11-19T07:36:06Z</time>
      </trkpt>
      <trkpt lat="43.5649" lon="3.33592">
        <ele>157.4</ele>
        <time>2017-11-19T07:36:07Z</time>
      </trkpt>
      <trkpt lat="43.56487" lon="3.3359">
        <ele>157.4</ele>
        <time>2017-11-19T07:36:08Z</time>
      </trkpt>
      <trkpt lat="43.56485" lon="3.33587">
        <ele>157.5</ele>
        <time>2017-11-19T07:36:09Z</time>
      </trkpt>
      <trkpt lat="43.56483" lon="3.33584">
        <ele>157.5</ele>
        <time>2017-11-19T07:36:10Z</time>
      </trkpt>
      <trkpt lat="43.56481" lon="3.33581">
        <ele>157.6</ele>
        <time>2017-11-19T07:36:11Z</time>
      </trkpt>
      <trkpt lat="43.56479" lon="3.33578">
        <ele>157.6</ele>
        <time>2017-11-19T07:36:12Z</time>
      </trkpt>
      <trkpt lat="43.56477" lon="3.33575">
        <ele>157.7</ele>
        <time>2017-11-19T07:36:13Z</time>
      </trkpt>
      <trkpt lat="43.56475" lon="3.33567">
        <ele>157.8</ele>
        <time>2017-11-19T07:36:15Z</time>
      </trkpt>
      <trkpt lat="43.56474" lon="3.33563">
        <ele>157.9</ele>
        <time>2017-11-19T07:36:16Z</time>
      </trkpt>
      <trkpt lat="43.56473" lon="3.3356">
        <ele>157.9</ele>
        <time>2017-11-19T07:36:17Z</time>
      </trkpt>
      <trkpt lat="43.56472" lon="3.33556">
        <ele>158</ele>
        <time>2017-11-19T07:36:18Z</time>
      </trkpt>
      <trkpt lat="43.56471" lon="3.33552">
        <ele>158.2</ele>
        <time>2017-11-19T07:36:19Z</time>
      </trkpt>
      <trkpt lat="43.56469" lon="3.33547">
        <ele>158.3</ele>
        <time>2017-11-19T07:36:20Z</time>
      </trkpt>
      <trkpt lat="43.56468" lon="3.33543">
        <ele>158.5</ele>
        <time>2017-11-19T07:36:21Z</time>
      </trkpt>
      <trkpt lat="43.56466" lon="3.33539">
        <ele>158.7</ele>
        <time>2017-11-19T07:36:22Z</time>
      </trkpt>
      <trkpt lat="43.56464" lon="3.33535">
        <ele>158.8</ele>
        <time>2017-11-19T07:36:23Z</time>
      </trkpt>
      <trkpt lat="43.56463" lon="3.33531">
        <ele>159</ele>
        <time>2017-11-19T07:36:24Z</time>
      </trkpt>
      <trkpt lat="43.56461" lon="3.33528">
        <ele>159.1</ele>
        <time>2017-11-19T07:36:25Z</time>
      </trkpt>
      <trkpt lat="43.5646" lon="3.33524">
        <ele>159.2</ele>
        <time>2017-11-19T07:36:26Z</time>
      </trkpt>
      <trkpt lat="43.56458" lon="3.33521">
        <ele>159.2</ele>
        <time>2017-11-19T07:36:27Z</time>
      </trkpt>
      <trkpt lat="43.56456" lon="3.33517">
        <ele>159.3</ele>
        <time>2017-11-19T07:36:28Z</time>
      </trkpt>
      <trkpt lat="43.56452" lon="3.33512">
        <ele>159.4</ele>
        <time>2017-11-19T07:36:30Z</time>
      </trkpt>
      <trkpt lat="43.56448" lon="3.33506">
        <ele>159.5</ele>
        <time>2017-11-19T07:36:32Z</time>
      </trkpt>
      <trkpt lat="43.56446" lon="3.33502">
        <ele>159.6</ele>
        <time>2017-11-19T07:36:33Z</time>
      </trkpt>
      <trkpt lat="43.56444" lon="3.33499">
        <ele>159.6</ele>
        <time>2017-11-19T07:36:34Z</time>
      </trkpt>
      <trkpt lat="43.56441" lon="3.33496">
        <ele>159.7</ele>
        <time>2017-11-19T07:36:35Z</time>
      </trkpt>
      <trkpt lat="43.56438" lon="3.33492">
        <ele>159.8</ele>
        <time>2017-11-19T07:36:37Z</time>
      </trkpt>
      <trkpt lat="43.56436" lon="3.33488">
        <ele>159.9</ele>
        <time>2017-11-19T07:36:39Z</time>
      </trkpt>
      <trkpt lat="43.56434" lon="3.33485">
        <ele>160</ele>
        <time>2017-11-19T07:36:41Z</time>
      </trkpt>
      <trkpt lat="43.5643" lon="3.33479">
        <ele>160</ele>
        <time>2017-11-19T07:36:43Z</time>
      </trkpt>
      <trkpt lat="43.56427" lon="3.33474">
        <ele>160</ele>
        <time>2017-11-19T07:36:44Z</time>
      </trkpt>
      <trkpt lat="43.56423" lon="3.33468">
        <ele>160</ele>
        <time>2017-11-19T07:36:45Z</time>
      </trkpt>
      <trkpt lat="43.5642" lon="3.33461">
        <ele>160</ele>
        <time>2017-11-19T07:36:46Z</time>
      </trkpt>
      <trkpt lat="43.56416" lon="3.33454">
        <ele>160</ele>
        <time>2017-11-19T07:36:47Z</time>
      </trkpt>
      <trkpt lat="43.56412" lon="3.33447">
        <ele>160</ele>
        <time>2017-11-19T07:36:48Z</time>
      </trkpt>
      <trkpt lat="43.56408" lon="3.3344">
        <ele>160</ele>
        <time>2017-11-19T07:36:49Z</time>
      </trkpt>
      <trkpt lat="43.56404" lon="3.33434">
        <ele>160.1</ele>
        <time>2017-11-19T07:36:50Z</time>
      </trkpt>
      <trkpt lat="43.564" lon="3.33427">
        <ele>160.1</ele>
        <time>2017-11-19T07:36:51Z</time>
      </trkpt>
      <trkpt lat="43.56396" lon="3.33421">
        <ele>160.1</ele>
        <time>2017-11-19T07:36:52Z</time>
      </trkpt>
      <trkpt lat="43.56391" lon="3.33414">
        <ele>160.2</ele>
        <time>2017-11-19T07:36:53Z</time>
      </trkpt>
      <trkpt lat="43.56387" lon="3.33408">
        <ele>160.2</ele>
        <time>2017-11-19T07:36:54Z</time>
      </trkpt>
      <trkpt lat="43.56383" lon="3.334">
        <ele>160.3</ele>
        <time>2017-11-19T07:36:55Z</time>
      </trkpt>
      <trkpt lat="43.56379" lon="3.33393">
        <ele>160.4</ele>
        <time>2017-11-19T07:36:56Z</time>
      </trkpt>
      <trkpt lat="43.56376" lon="3.33385">
        <ele>160.6</ele>
        <time>2017-11-19T07:36:57Z</time>
      </trkpt>
      <trkpt lat="43.56372" lon="3.33378">
        <ele>161</ele>
        <time>2017-11-19T07:36:58Z</time>
      </trkpt>
      <trkpt lat="43.5637" lon="3.33371">
        <ele>161.3</ele>
        <time>2017-11-19T07:36:59Z</time>
      </trkpt>
      <trkpt lat="43.56368" lon="3.33363">
        <ele>161.5</ele>
        <time>2017-11-19T07:37:00Z</time>
      </trkpt>
      <trkpt lat="43.56366" lon="3.33356">
        <ele>161.6</ele>
        <time>2017-11-19T07:37:01Z</time>
      </trkpt>
      <trkpt lat="43.56364" lon="3.33349">
        <ele>161.7</ele>
        <time>2017-11-19T07:37:02Z</time>
      </trkpt>
      <trkpt lat="43.56362" lon="3.33343">
        <ele>161.8</ele>
        <time>2017-11-19T07:37:03Z</time>
      </trkpt>
      <trkpt lat="43.5636" lon="3.33337">
        <ele>161.9</ele>
        <time>2017-11-19T07:37:04Z</time>
      </trkpt>
      <trkpt lat="43.56359" lon="3.33331">
        <ele>162</ele>
        <time>2017-11-19T07:37:05Z</time>
      </trkpt>
      <trkpt lat="43.56357" lon="3.33326">
        <ele>162.1</ele>
        <time>2017-11-19T07:37:06Z</time>
      </trkpt>
      <trkpt lat="43.56355" lon="3.3332">
        <ele>162.1</ele>
        <time>2017-11-19T07:37:07Z</time>
      </trkpt>
      <trkpt lat="43.56353" lon="3.33315">
        <ele>162.2</ele>
        <time>2017-11-19T07:37:08Z</time>
      </trkpt>
      <trkpt lat="43.56352" lon="3.33311">
        <ele>162.3</ele>
        <time>2017-11-19T07:37:09Z</time>
      </trkpt>
      <trkpt lat="43.5635" lon="3.33307">
        <ele>162.3</ele>
        <time>2017-11-19T07:37:10Z</time>
      </trkpt>
      <trkpt lat="43.56348" lon="3.33302">
        <ele>162.3</ele>
        <time>2017-11-19T07:37:11Z</time>
      </trkpt>
      <trkpt lat="43.56346" lon="3.33298">
        <ele>162.3</ele>
        <time>2017-11-19T07:37:12Z</time>
      </trkpt>
      <trkpt lat="43.56344" lon="3.33294">
        <ele>162.3</ele>
        <time>2017-11-19T07:37:13Z</time>
      </trkpt>
      <trkpt lat="43.56342" lon="3.3329">
        <ele>162.4</ele>
        <time>2017-11-19T07:37:14Z</time>
      </trkpt>
      <trkpt lat="43.56339" lon="3.33286">
        <ele>162.4</ele>
        <time>2017-11-19T07:37:15Z</time>
      </trkpt>
      <trkpt lat="43.56337" lon="3.33282">
        <ele>162.4</ele>
        <time>2017-11-19T07:37:16Z</time>
      </trkpt>
      <trkpt lat="43.56335" lon="3.33277">
        <ele>162.4</ele>
        <time>2017-11-19T07:37:17Z</time>
      </trkpt>
      <trkpt lat="43.56333" lon="3.33272">
        <ele>162.4</ele>
        <time>2017-11-19T07:37:18Z</time>
      </trkpt>
      <trkpt lat="43.56331" lon="3.33267">
        <ele>162.4</ele>
        <time>2017-11-19T07:37:19Z</time>
      </trkpt>
      <trkpt lat="43.56329" lon="3.33262">
        <ele>162.4</ele>
        <time>2017-11-19T07:37:20Z</time>
      </trkpt>
      <trkpt lat="43.56327" lon="3.33257">
        <ele>162.4</ele>
        <time>2017-11-19T07:37:21Z</time>
      </trkpt>
      <trkpt lat="43.56326" lon="3.33251">
        <ele>162.4</ele>
        <time>2017-11-19T07:37:22Z</time>
      </trkpt>
      <trkpt lat="43.56325" lon="3.33246">
        <ele>162.5</ele>
        <time>2017-11-19T07:37:23Z</time>
      </trkpt>
      <trkpt lat="43.56324" lon="3.3324">
        <ele>162.5</ele>
        <time>2017-11-19T07:37:24Z</time>
      </trkpt>
      <trkpt lat="43.56324" lon="3.33234">
        <ele>162.5</ele>
        <time>2017-11-19T07:37:25Z</time>
      </trkpt>
      <trkpt lat="43.56323" lon="3.33229">
        <ele>162.5</ele>
        <time>2017-11-19T07:37:26Z</time>
      </trkpt>
      <trkpt lat="43.56323" lon="3.33224">
        <ele>162.5</ele>
        <time>2017-11-19T07:37:27Z</time>
      </trkpt>
      <trkpt lat="43.56323" lon="3.33219">
        <ele>162.6</ele>
        <time>2017-11-19T07:37:28Z</time>
      </trkpt>
      <trkpt lat="43.56322" lon="3.33214">
        <ele>162.6</ele>
        <time>2017-11-19T07:37:29Z</time>
      </trkpt>
      <trkpt lat="43.56321" lon="3.33208">
        <ele>162.6</ele>
        <time>2017-11-19T07:37:30Z</time>
      </trkpt>
      <trkpt lat="43.5632" lon="3.33203">
        <ele>162.7</ele>
        <time>2017-11-19T07:37:31Z</time>
      </trkpt>
      <trkpt lat="43.56319" lon="3.33198">
        <ele>162.8</ele>
        <time>2017-11-19T07:37:32Z</time>
      </trkpt>
      <trkpt lat="43.56317" lon="3.33194">
        <ele>162.9</ele>
        <time>2017-11-19T07:37:33Z</time>
      </trkpt>
      <trkpt lat="43.56317" lon="3.33189">
        <ele>163.1</ele>
        <time>2017-11-19T07:37:34Z</time>
      </trkpt>
      <trkpt lat="43.56315" lon="3.33184">
        <ele>163.3</ele>
        <time>2017-11-19T07:37:35Z</time>
      </trkpt>
      <trkpt lat="43.56315" lon="3.3318">
        <ele>163.5</ele>
        <time>2017-11-19T07:37:36Z</time>
      </trkpt>
      <trkpt lat="43.56314" lon="3.33175">
        <ele>163.7</ele>
        <time>2017-11-19T07:37:37Z</time>
      </trkpt>
      <trkpt lat="43.56313" lon="3.33171">
        <ele>163.8</ele>
        <time>2017-11-19T07:37:38Z</time>
      </trkpt>
      <trkpt lat="43.56312" lon="3.33166">
        <ele>164</ele>
        <time>2017-11-19T07:37:39Z</time>
      </trkpt>
      <trkpt lat="43.56311" lon="3.33162">
        <ele>164</ele>
        <time>2017-11-19T07:37:40Z</time>
      </trkpt>
      <trkpt lat="43.56311" lon="3.33157">
        <ele>164.1</ele>
        <time>2017-11-19T07:37:41Z</time>
      </trkpt>
      <trkpt lat="43.5631" lon="3.33151">
        <ele>164.2</ele>
        <time>2017-11-19T07:37:42Z</time>
      </trkpt>
      <trkpt lat="43.56309" lon="3.33146">
        <ele>164.3</ele>
        <time>2017-11-19T07:37:43Z</time>
      </trkpt>
      <trkpt lat="43.56308" lon="3.33141">
        <ele>164.4</ele>
        <time>2017-11-19T07:37:44Z</time>
      </trkpt>
      <trkpt lat="43.56307" lon="3.33136">
        <ele>164.4</ele>
        <time>2017-11-19T07:37:45Z</time>
      </trkpt>
      <trkpt lat="43.56306" lon="3.3313">
        <ele>164.5</ele>
        <time>2017-11-19T07:37:46Z</time>
      </trkpt>
      <trkpt lat="43.56305" lon="3.33124">
        <ele>164.7</ele>
        <time>2017-11-19T07:37:47Z</time>
      </trkpt>
      <trkpt lat="43.56305" lon="3.33118">
        <ele>164.8</ele>
        <time>2017-11-19T07:37:48Z</time>
      </trkpt>
      <trkpt lat="43.56305" lon="3.33112">
        <ele>164.8</ele>
        <time>2017-11-19T07:37:49Z</time>
      </trkpt>
      <trkpt lat="43.56304" lon="3.33107">
        <ele>164.9</ele>
        <time>2017-11-19T07:37:50Z</time>
      </trkpt>
      <trkpt lat="43.56303" lon="3.33101">
        <ele>165</ele>
        <time>2017-11-19T07:37:51Z</time>
      </trkpt>
      <trkpt lat="43.56303" lon="3.33096">
        <ele>165.1</ele>
        <time>2017-11-19T07:37:52Z</time>
      </trkpt>
      <trkpt lat="43.56303" lon="3.33091">
        <ele>165.1</ele>
        <time>2017-11-19T07:37:53Z</time>
      </trkpt>
      <trkpt lat="43.56304" lon="3.33087">
        <ele>165.2</ele>
        <time>2017-11-19T07:37:54Z</time>
      </trkpt>
      <trkpt lat="43.56304" lon="3.33082">
        <ele>165.4</ele>
        <time>2017-11-19T07:37:55Z</time>
      </trkpt>
      <trkpt lat="43.56304" lon="3.33077">
        <ele>165.6</ele>
        <time>2017-11-19T07:37:56Z</time>
      </trkpt>
      <trkpt lat="43.56304" lon="3.33072">
        <ele>165.9</ele>
        <time>2017-11-19T07:37:57Z</time>
      </trkpt>
      <trkpt lat="43.56304" lon="3.33067">
        <ele>166.1</ele>
        <time>2017-11-19T07:37:58Z</time>
      </trkpt>
      <trkpt lat="43.56305" lon="3.33062">
        <ele>166.3</ele>
        <time>2017-11-19T07:37:59Z</time>
      </trkpt>
      <trkpt lat="43.56305" lon="3.33057">
        <ele>166.5</ele>
        <time>2017-11-19T07:38:00Z</time>
      </trkpt>
      <trkpt lat="43.56306" lon="3.33052">
        <ele>166.6</ele>
        <time>2017-11-19T07:38:01Z</time>
      </trkpt>
      <trkpt lat="43.56307" lon="3.33046">
        <ele>166.7</ele>
        <time>2017-11-19T07:38:02Z</time>
      </trkpt>
      <trkpt lat="43.56308" lon="3.33041">
        <ele>166.7</ele>
        <time>2017-11-19T07:38:03Z</time>
      </trkpt>
      <trkpt lat="43.56309" lon="3.33036">
        <ele>166.8</ele>
        <time>2017-11-19T07:38:04Z</time>
      </trkpt>
      <trkpt lat="43.5631" lon="3.33032">
        <ele>166.8</ele>
        <time>2017-11-19T07:38:05Z</time>
      </trkpt>
      <trkpt lat="43.5631" lon="3.33027">
        <ele>166.8</ele>
        <time>2017-11-19T07:38:06Z</time>
      </trkpt>
      <trkpt lat="43.5631" lon="3.33023">
        <ele>166.8</ele>
        <time>2017-11-19T07:38:07Z</time>
      </trkpt>
      <trkpt lat="43.56311" lon="3.33019">
        <ele>166.9</ele>
        <time>2017-11-19T07:38:08Z</time>
      </trkpt>
      <trkpt lat="43.56312" lon="3.33014">
        <ele>166.9</ele>
        <time>2017-11-19T07:38:09Z</time>
      </trkpt>
      <trkpt lat="43.56313" lon="3.3301">
        <ele>167</ele>
        <time>2017-11-19T07:38:10Z</time>
      </trkpt>
      <trkpt lat="43.56314" lon="3.33005">
        <ele>167.3</ele>
        <time>2017-11-19T07:38:11Z</time>
      </trkpt>
      <trkpt lat="43.56316" lon="3.33001">
        <ele>167.4</ele>
        <time>2017-11-19T07:38:12Z</time>
      </trkpt>
      <trkpt lat="43.56317" lon="3.32996">
        <ele>167.5</ele>
        <time>2017-11-19T07:38:13Z</time>
      </trkpt>
      <trkpt lat="43.56319" lon="3.32991">
        <ele>167.5</ele>
        <time>2017-11-19T07:38:14Z</time>
      </trkpt>
      <trkpt lat="43.56322" lon="3.32987">
        <ele>167.5</ele>
        <time>2017-11-19T07:38:15Z</time>
      </trkpt>
      <trkpt lat="43.56323" lon="3.32983">
        <ele>167.6</ele>
        <time>2017-11-19T07:38:16Z</time>
      </trkpt>
      <trkpt lat="43.56324" lon="3.32978">
        <ele>167.6</ele>
        <time>2017-11-19T07:38:17Z</time>
      </trkpt>
      <trkpt lat="43.56326" lon="3.32974">
        <ele>167.6</ele>
        <time>2017-11-19T07:38:18Z</time>
      </trkpt>
      <trkpt lat="43.56329" lon="3.3297">
        <ele>167.6</ele>
        <time>2017-11-19T07:38:19Z</time>
      </trkpt>
      <trkpt lat="43.56332" lon="3.32967">
        <ele>167.6</ele>
        <time>2017-11-19T07:38:20Z</time>
      </trkpt>
      <trkpt lat="43.56334" lon="3.32962">
        <ele>167.7</ele>
        <time>2017-11-19T07:38:21Z</time>
      </trkpt>
      <trkpt lat="43.56337" lon="3.32957">
        <ele>167.8</ele>
        <time>2017-11-19T07:38:22Z</time>
      </trkpt>
      <trkpt lat="43.56339" lon="3.32953">
        <ele>167.8</ele>
        <time>2017-11-19T07:38:23Z</time>
      </trkpt>
      <trkpt lat="43.56342" lon="3.32949">
        <ele>167.9</ele>
        <time>2017-11-19T07:38:24Z</time>
      </trkpt>
      <trkpt lat="43.56344" lon="3.32945">
        <ele>168</ele>
        <time>2017-11-19T07:38:25Z</time>
      </trkpt>
      <trkpt lat="43.56346" lon="3.32941">
        <ele>168.1</ele>
        <time>2017-11-19T07:38:26Z</time>
      </trkpt>
      <trkpt lat="43.56349" lon="3.32937">
        <ele>168.3</ele>
        <time>2017-11-19T07:38:27Z</time>
      </trkpt>
      <trkpt lat="43.56351" lon="3.32934">
        <ele>168.4</ele>
        <time>2017-11-19T07:38:28Z</time>
      </trkpt>
      <trkpt lat="43.56353" lon="3.32931">
        <ele>168.5</ele>
        <time>2017-11-19T07:38:29Z</time>
      </trkpt>
      <trkpt lat="43.56355" lon="3.32929">
        <ele>168.6</ele>
        <time>2017-11-19T07:38:30Z</time>
      </trkpt>
      <trkpt lat="43.56358" lon="3.32926">
        <ele>168.7</ele>
        <time>2017-11-19T07:38:31Z</time>
      </trkpt>
      <trkpt lat="43.5636" lon="3.32923">
        <ele>168.8</ele>
        <time>2017-11-19T07:38:32Z</time>
      </trkpt>
      <trkpt lat="43.56362" lon="3.32921">
        <ele>169</ele>
        <time>2017-11-19T07:38:33Z</time>
      </trkpt>
      <trkpt lat="43.56364" lon="3.32918">
        <ele>169.1</ele>
        <time>2017-11-19T07:38:34Z</time>
      </trkpt>
      <trkpt lat="43.56366" lon="3.32914">
        <ele>169.2</ele>
        <time>2017-11-19T07:38:35Z</time>
      </trkpt>
      <trkpt lat="43.56368" lon="3.32911">
        <ele>169.4</ele>
        <time>2017-11-19T07:38:36Z</time>
      </trkpt>
      <trkpt lat="43.5637" lon="3.32908">
        <ele>169.5</ele>
        <time>2017-11-19T07:38:37Z</time>
      </trkpt>
      <trkpt lat="43.56372" lon="3.32904">
        <ele>169.6</ele>
        <time>2017-11-19T07:38:38Z</time>
      </trkpt>
      <trkpt lat="43.56373" lon="3.32901">
        <ele>169.7</ele>
        <time>2017-11-19T07:38:39Z</time>
      </trkpt>
      <trkpt lat="43.56375" lon="3.32895">
        <ele>169.8</ele>
        <time>2017-11-19T07:38:41Z</time>
      </trkpt>
      <trkpt lat="43.56377" lon="3.32889">
        <ele>170</ele>
        <time>2017-11-19T07:38:43Z</time>
      </trkpt>
      <trkpt lat="43.5638" lon="3.32883">
        <ele>170.2</ele>
        <time>2017-11-19T07:38:45Z</time>
      </trkpt>
      <trkpt lat="43.56382" lon="3.32876">
        <ele>170.4</ele>
        <time>2017-11-19T07:38:47Z</time>
      </trkpt>
      <trkpt lat="43.56384" lon="3.32869">
        <ele>170.6</ele>
        <time>2017-11-19T07:38:49Z</time>
      </trkpt>
      <trkpt lat="43.56386" lon="3.32863">
        <ele>170.9</ele>
        <time>2017-11-19T07:38:51Z</time>
      </trkpt>
      <trkpt lat="43.56391" lon="3.32858">
        <ele>171.1</ele>
        <time>2017-11-19T07:38:53Z</time>
      </trkpt>
      <trkpt lat="43.56393" lon="3.32856">
        <ele>171.2</ele>
        <time>2017-11-19T07:38:54Z</time>
      </trkpt>
      <trkpt lat="43.56396" lon="3.32855">
        <ele>171.3</ele>
        <time>2017-11-19T07:38:55Z</time>
      </trkpt>
      <trkpt lat="43.56401" lon="3.32852">
        <ele>171.4</ele>
        <time>2017-11-19T07:38:57Z</time>
      </trkpt>
      <trkpt lat="43.56405" lon="3.3285">
        <ele>171.6</ele>
        <time>2017-11-19T07:38:59Z</time>
      </trkpt>
      <trkpt lat="43.56409" lon="3.32848">
        <ele>171.7</ele>
        <time>2017-11-19T07:39:01Z</time>
      </trkpt>
      <trkpt lat="43.56413" lon="3.32846">
        <ele>171.8</ele>
        <time>2017-11-19T07:39:03Z</time>
      </trkpt>
      <trkpt lat="43.56418" lon="3.32844">
        <ele>171.9</ele>
        <time>2017-11-19T07:39:05Z</time>
      </trkpt>
      <trkpt lat="43.56421" lon="3.32843">
        <ele>171.9</ele>
        <time>2017-11-19T07:39:06Z</time>
      </trkpt>
      <trkpt lat="43.56424" lon="3.32842">
        <ele>171.9</ele>
        <time>2017-11-19T07:39:07Z</time>
      </trkpt>
      <trkpt lat="43.56428" lon="3.32838">
        <ele>172</ele>
        <time>2017-11-19T07:39:09Z</time>
      </trkpt>
      <trkpt lat="43.56432" lon="3.32835">
        <ele>172</ele>
        <time>2017-11-19T07:39:11Z</time>
      </trkpt>
      <trkpt lat="43.56438" lon="3.32835">
        <ele>172</ele>
        <time>2017-11-19T07:39:13Z</time>
      </trkpt>
      <trkpt lat="43.5644" lon="3.32837">
        <ele>172</ele>
        <time>2017-11-19T07:39:14Z</time>
      </trkpt>
      <trkpt lat="43.56443" lon="3.32838">
        <ele>172</ele>
        <time>2017-11-19T07:39:15Z</time>
      </trkpt>
      <trkpt lat="43.56447" lon="3.32842">
        <ele>172</ele>
        <time>2017-11-19T07:39:17Z</time>
      </trkpt>
      <trkpt lat="43.56451" lon="3.32845">
        <ele>172</ele>
        <time>2017-11-19T07:39:19Z</time>
      </trkpt>
      <trkpt lat="43.56454" lon="3.32844">
        <ele>172.3</ele>
        <time>2017-11-19T07:39:20Z</time>
      </trkpt>
      <trkpt lat="43.56457" lon="3.32842">
        <ele>172.6</ele>
        <time>2017-11-19T07:39:21Z</time>
      </trkpt>
      <trkpt lat="43.56461" lon="3.32838">
        <ele>173.1</ele>
        <time>2017-11-19T07:39:23Z</time>
      </trkpt>
      <trkpt lat="43.56463" lon="3.32836">
        <ele>173.4</ele>
        <time>2017-11-19T07:39:24Z</time>
      </trkpt>
      <trkpt lat="43.56467" lon="3.32832">
        <ele>173.7</ele>
        <time>2017-11-19T07:39:26Z</time>
      </trkpt>
      <trkpt lat="43.5647" lon="3.32829">
        <ele>174</ele>
        <time>2017-11-19T07:39:28Z</time>
      </trkpt>
      <trkpt lat="43.56475" lon="3.32827">
        <ele>174.3</ele>
        <time>2017-11-19T07:39:30Z</time>
      </trkpt>
      <trkpt lat="43.56479" lon="3.32826">
        <ele>174.5</ele>
        <time>2017-11-19T07:39:32Z</time>
      </trkpt>
      <trkpt lat="43.56483" lon="3.32824">
        <ele>174.9</ele>
        <time>2017-11-19T07:39:34Z</time>
      </trkpt>
      <trkpt lat="43.56489" lon="3.32822">
        <ele>175.3</ele>
        <time>2017-11-19T07:39:36Z</time>
      </trkpt>
      <trkpt lat="43.56492" lon="3.32822">
        <ele>175.5</ele>
        <time>2017-11-19T07:39:37Z</time>
      </trkpt>
      <trkpt lat="43.56496" lon="3.3282">
        <ele>175.8</ele>
        <time>2017-11-19T07:39:39Z</time>
      </trkpt>
      <trkpt lat="43.56501" lon="3.32818">
        <ele>176</ele>
        <time>2017-11-19T07:39:41Z</time>
      </trkpt>
      <trkpt lat="43.56504" lon="3.32816">
        <ele>176.1</ele>
        <time>2017-11-19T07:39:42Z</time>
      </trkpt>
      <trkpt lat="43.56506" lon="3.32815">
        <ele>176.2</ele>
        <time>2017-11-19T07:39:43Z</time>
      </trkpt>
      <trkpt lat="43.56509" lon="3.32813">
        <ele>176.3</ele>
        <time>2017-11-19T07:39:44Z</time>
      </trkpt>
      <trkpt lat="43.56512" lon="3.3281">
        <ele>176.3</ele>
        <time>2017-11-19T07:39:45Z</time>
      </trkpt>
      <trkpt lat="43.56514" lon="3.32808">
        <ele>176.4</ele>
        <time>2017-11-19T07:39:46Z</time>
      </trkpt>
      <trkpt lat="43.56517" lon="3.32806">
        <ele>176.4</ele>
        <time>2017-11-19T07:39:47Z</time>
      </trkpt>
      <trkpt lat="43.56519" lon="3.32804">
        <ele>176.5</ele>
        <time>2017-11-19T07:39:48Z</time>
      </trkpt>
      <trkpt lat="43.56522" lon="3.32802">
        <ele>176.6</ele>
        <time>2017-11-19T07:39:49Z</time>
      </trkpt>
      <trkpt lat="43.56525" lon="3.328">
        <ele>176.6</ele>
        <time>2017-11-19T07:39:50Z</time>
      </trkpt>
      <trkpt lat="43.56528" lon="3.32797">
        <ele>176.7</ele>
        <time>2017-11-19T07:39:51Z</time>
      </trkpt>
      <trkpt lat="43.56531" lon="3.32795">
        <ele>176.7</ele>
        <time>2017-11-19T07:39:52Z</time>
      </trkpt>
      <trkpt lat="43.56535" lon="3.32794">
        <ele>176.7</ele>
        <time>2017-11-19T07:39:53Z</time>
      </trkpt>
      <trkpt lat="43.56539" lon="3.32792">
        <ele>176.8</ele>
        <time>2017-11-19T07:39:54Z</time>
      </trkpt>
      <trkpt lat="43.56542" lon="3.3279">
        <ele>176.8</ele>
        <time>2017-11-19T07:39:55Z</time>
      </trkpt>
      <trkpt lat="43.56546" lon="3.32788">
        <ele>176.8</ele>
        <time>2017-11-19T07:39:56Z</time>
      </trkpt>
      <trkpt lat="43.56549" lon="3.32786">
        <ele>176.8</ele>
        <time>2017-11-19T07:39:57Z</time>
      </trkpt>
      <trkpt lat="43.56552" lon="3.32784">
        <ele>176.9</ele>
        <time>2017-11-19T07:39:58Z</time>
      </trkpt>
      <trkpt lat="43.56555" lon="3.32783">
        <ele>176.9</ele>
        <time>2017-11-19T07:39:59Z</time>
      </trkpt>
      <trkpt lat="43.56557" lon="3.3278">
        <ele>176.9</ele>
        <time>2017-11-19T07:40:00Z</time>
      </trkpt>
      <trkpt lat="43.5656" lon="3.32778">
        <ele>176.9</ele>
        <time>2017-11-19T07:40:01Z</time>
      </trkpt>
      <trkpt lat="43.56562" lon="3.32776">
        <ele>176.9</ele>
        <time>2017-11-19T07:40:02Z</time>
      </trkpt>
      <trkpt lat="43.56565" lon="3.32773">
        <ele>177</ele>
        <time>2017-11-19T07:40:03Z</time>
      </trkpt>
      <trkpt lat="43.56567" lon="3.32771">
        <ele>177</ele>
        <time>2017-11-19T07:40:04Z</time>
      </trkpt>
      <trkpt lat="43.5657" lon="3.32769">
        <ele>177</ele>
        <time>2017-11-19T07:40:05Z</time>
      </trkpt>
      <trkpt lat="43.56572" lon="3.32767">
        <ele>177.3</ele>
        <time>2017-11-19T07:40:06Z</time>
      </trkpt>
      <trkpt lat="43.56574" lon="3.32765">
        <ele>177.1</ele>
        <time>2017-11-19T07:40:07Z</time>
      </trkpt>
      <trkpt lat="43.56577" lon="3.32763">
        <ele>177.5</ele>
        <time>2017-11-19T07:40:08Z</time>
      </trkpt>
      <trkpt lat="43.5658" lon="3.32761">
        <ele>177.6</ele>
        <time>2017-11-19T07:40:09Z</time>
      </trkpt>
      <trkpt lat="43.56582" lon="3.32759">
        <ele>178.1</ele>
        <time>2017-11-19T07:40:10Z</time>
      </trkpt>
      <trkpt lat="43.56585" lon="3.32757">
        <ele>178.2</ele>
        <time>2017-11-19T07:40:11Z</time>
      </trkpt>
      <trkpt lat="43.56588" lon="3.32755">
        <ele>178.7</ele>
        <time>2017-11-19T07:40:12Z</time>
      </trkpt>
      <trkpt lat="43.56591" lon="3.32753">
        <ele>178.8</ele>
        <time>2017-11-19T07:40:13Z</time>
      </trkpt>
      <trkpt lat="43.56594" lon="3.32751">
        <ele>179.2</ele>
        <time>2017-11-19T07:40:14Z</time>
      </trkpt>
      <trkpt lat="43.56596" lon="3.32748">
        <ele>179</ele>
        <time>2017-11-19T07:40:15Z</time>
      </trkpt>
      <trkpt lat="43.56599" lon="3.32746">
        <ele>179.3</ele>
        <time>2017-11-19T07:40:16Z</time>
      </trkpt>
      <trkpt lat="43.56602" lon="3.32744">
        <ele>179.2</ele>
        <time>2017-11-19T07:40:17Z</time>
      </trkpt>
      <trkpt lat="43.56605" lon="3.32742">
        <ele>179.5</ele>
        <time>2017-11-19T07:40:18Z</time>
      </trkpt>
      <trkpt lat="43.56607" lon="3.32739">
        <ele>179.3</ele>
        <time>2017-11-19T07:40:19Z</time>
      </trkpt>
      <trkpt lat="43.5661" lon="3.32737">
        <ele>179.5</ele>
        <time>2017-11-19T07:40:20Z</time>
      </trkpt>
      <trkpt lat="43.56612" lon="3.32735">
        <ele>179.3</ele>
        <time>2017-11-19T07:40:21Z</time>
      </trkpt>
      <trkpt lat="43.56615" lon="3.32734">
        <ele>179.4</ele>
        <time>2017-11-19T07:40:22Z</time>
      </trkpt>
      <trkpt lat="43.56618" lon="3.32732">
        <ele>179.5</ele>
        <time>2017-11-19T07:40:23Z</time>
      </trkpt>
      <trkpt lat="43.56621" lon="3.3273">
        <ele>179.2</ele>
        <time>2017-11-19T07:40:24Z</time>
      </trkpt>
      <trkpt lat="43.56623" lon="3.32728">
        <ele>179.4</ele>
        <time>2017-11-19T07:40:25Z</time>
      </trkpt>
      <trkpt lat="43.56626" lon="3.32727">
        <ele>179.2</ele>
        <time>2017-11-19T07:40:26Z</time>
      </trkpt>
      <trkpt lat="43.56628" lon="3.32725">
        <ele>179.5</ele>
        <time>2017-11-19T07:40:27Z</time>
      </trkpt>
      <trkpt lat="43.56631" lon="3.32724">
        <ele>179.8</ele>
        <time>2017-11-19T07:40:28Z</time>
      </trkpt>
      <trkpt lat="43.56633" lon="3.32721">
        <ele>179.6</ele>
        <time>2017-11-19T07:40:29Z</time>
      </trkpt>
      <trkpt lat="43.56637" lon="3.32718">
        <ele>180.2</ele>
        <time>2017-11-19T07:40:31Z</time>
      </trkpt>
      <trkpt lat="43.56641" lon="3.32715">
        <ele>180.4</ele>
        <time>2017-11-19T07:40:33Z</time>
      </trkpt>
      <trkpt lat="43.56645" lon="3.32711">
        <ele>180.6</ele>
        <time>2017-11-19T07:40:35Z</time>
      </trkpt>
      <trkpt lat="43.56648" lon="3.32709">
        <ele>180.8</ele>
        <time>2017-11-19T07:40:36Z</time>
      </trkpt>
      <trkpt lat="43.5665" lon="3.32707">
        <ele>181.2</ele>
        <time>2017-11-19T07:40:37Z</time>
      </trkpt>
      <trkpt lat="43.56653" lon="3.32705">
        <ele>181.5</ele>
        <time>2017-11-19T07:40:38Z</time>
      </trkpt>
      <trkpt lat="43.56655" lon="3.32703">
        <ele>181.6</ele>
        <time>2017-11-19T07:40:39Z</time>
      </trkpt>
      <trkpt lat="43.56658" lon="3.32701">
        <ele>181.8</ele>
        <time>2017-11-19T07:40:40Z</time>
      </trkpt>
      <trkpt lat="43.5666" lon="3.32699">
        <ele>182.2</ele>
        <time>2017-11-19T07:40:41Z</time>
      </trkpt>
      <trkpt lat="43.56663" lon="3.32697">
        <ele>182.5</ele>
        <time>2017-11-19T07:40:42Z</time>
      </trkpt>
      <trkpt lat="43.56665" lon="3.32694">
        <ele>182.9</ele>
        <time>2017-11-19T07:40:43Z</time>
      </trkpt>
      <trkpt lat="43.56668" lon="3.32692">
        <ele>183.2</ele>
        <time>2017-11-19T07:40:44Z</time>
      </trkpt>
      <trkpt lat="43.56671" lon="3.3269">
        <ele>183.3</ele>
        <time>2017-11-19T07:40:45Z</time>
      </trkpt>
      <trkpt lat="43.56674" lon="3.32688">
        <ele>183.6</ele>
        <time>2017-11-19T07:40:46Z</time>
      </trkpt>
      <trkpt lat="43.56676" lon="3.32685">
        <ele>184</ele>
        <time>2017-11-19T07:40:47Z</time>
      </trkpt>
      <trkpt lat="43.56679" lon="3.32683">
        <ele>184.3</ele>
        <time>2017-11-19T07:40:48Z</time>
      </trkpt>
      <trkpt lat="43.56681" lon="3.32681">
        <ele>184.7</ele>
        <time>2017-11-19T07:40:49Z</time>
      </trkpt>
      <trkpt lat="43.56685" lon="3.32676">
        <ele>184.9</ele>
        <time>2017-11-19T07:40:51Z</time>
      </trkpt>
      <trkpt lat="43.56689" lon="3.32672">
        <ele>185.1</ele>
        <time>2017-11-19T07:40:53Z</time>
      </trkpt>
      <trkpt lat="43.56692" lon="3.3267">
        <ele>185.3</ele>
        <time>2017-11-19T07:40:54Z</time>
      </trkpt>
      <trkpt lat="43.56694" lon="3.32668">
        <ele>185.7</ele>
        <time>2017-11-19T07:40:55Z</time>
      </trkpt>
      <trkpt lat="43.56697" lon="3.32665">
        <ele>185.8</ele>
        <time>2017-11-19T07:40:56Z</time>
      </trkpt>
      <trkpt lat="43.56699" lon="3.32663">
        <ele>186.1</ele>
        <time>2017-11-19T07:40:57Z</time>
      </trkpt>
      <trkpt lat="43.56702" lon="3.32662">
        <ele>186</ele>
        <time>2017-11-19T07:40:58Z</time>
      </trkpt>
      <trkpt lat="43.56705" lon="3.3266">
        <ele>186.3</ele>
        <time>2017-11-19T07:40:59Z</time>
      </trkpt>
      <trkpt lat="43.56707" lon="3.32657">
        <ele>186.3</ele>
        <time>2017-11-19T07:41:00Z</time>
      </trkpt>
      <trkpt lat="43.5671" lon="3.32655">
        <ele>186.5</ele>
        <time>2017-11-19T07:41:01Z</time>
      </trkpt>
      <trkpt lat="43.56714" lon="3.32652">
        <ele>186.4</ele>
        <time>2017-11-19T07:41:03Z</time>
      </trkpt>
      <trkpt lat="43.56719" lon="3.3265">
        <ele>186.3</ele>
        <time>2017-11-19T07:41:05Z</time>
      </trkpt>
      <trkpt lat="43.56724" lon="3.32646">
        <ele>186.5</ele>
        <time>2017-11-19T07:41:07Z</time>
      </trkpt>
      <trkpt lat="43.56727" lon="3.32644">
        <ele>186.2</ele>
        <time>2017-11-19T07:41:08Z</time>
      </trkpt>
      <trkpt lat="43.56731" lon="3.32642">
        <ele>186.5</ele>
        <time>2017-11-19T07:41:10Z</time>
      </trkpt>
      <trkpt lat="43.56734" lon="3.3264">
        <ele>186.1</ele>
        <time>2017-11-19T07:41:11Z</time>
      </trkpt>
      <trkpt lat="43.56738" lon="3.32637">
        <ele>185.7</ele>
        <time>2017-11-19T07:41:13Z</time>
      </trkpt>
      <trkpt lat="43.56741" lon="3.32635">
        <ele>185.9</ele>
        <time>2017-11-19T07:41:14Z</time>
      </trkpt>
      <trkpt lat="43.56744" lon="3.32633">
        <ele>186.1</ele>
        <time>2017-11-19T07:41:15Z</time>
      </trkpt>
      <trkpt lat="43.56746" lon="3.32632">
        <ele>186</ele>
        <time>2017-11-19T07:41:16Z</time>
      </trkpt>
      <trkpt lat="43.56749" lon="3.3263">
        <ele>186.2</ele>
        <time>2017-11-19T07:41:17Z</time>
      </trkpt>
      <trkpt lat="43.56754" lon="3.32628">
        <ele>186.2</ele>
        <time>2017-11-19T07:41:19Z</time>
      </trkpt>
      <trkpt lat="43.56756" lon="3.32627">
        <ele>186.5</ele>
        <time>2017-11-19T07:41:20Z</time>
      </trkpt>
      <trkpt lat="43.56759" lon="3.32625">
        <ele>186.8</ele>
        <time>2017-11-19T07:41:21Z</time>
      </trkpt>
      <trkpt lat="43.56763" lon="3.32622">
        <ele>186.8</ele>
        <time>2017-11-19T07:41:23Z</time>
      </trkpt>
      <trkpt lat="43.56768" lon="3.32619">
        <ele>187.1</ele>
        <time>2017-11-19T07:41:25Z</time>
      </trkpt>
      <trkpt lat="43.56773" lon="3.32616">
        <ele>187.5</ele>
        <time>2017-11-19T07:41:27Z</time>
      </trkpt>
      <trkpt lat="43.56776" lon="3.32614">
        <ele>187.5</ele>
        <time>2017-11-19T07:41:28Z</time>
      </trkpt>
      <trkpt lat="43.56779" lon="3.32613">
        <ele>187.9</ele>
        <time>2017-11-19T07:41:29Z</time>
      </trkpt>
      <trkpt lat="43.56782" lon="3.32612">
        <ele>188.3</ele>
        <time>2017-11-19T07:41:30Z</time>
      </trkpt>
      <trkpt lat="43.56784" lon="3.3261">
        <ele>188.4</ele>
        <time>2017-11-19T07:41:31Z</time>
      </trkpt>
      <trkpt lat="43.56787" lon="3.32609">
        <ele>188.8</ele>
        <time>2017-11-19T07:41:32Z</time>
      </trkpt>
      <trkpt lat="43.56791" lon="3.32608">
        <ele>189.2</ele>
        <time>2017-11-19T07:41:33Z</time>
      </trkpt>
      <trkpt lat="43.56794" lon="3.32607">
        <ele>189.6</ele>
        <time>2017-11-19T07:41:34Z</time>
      </trkpt>
      <trkpt lat="43.56797" lon="3.32606">
        <ele>189.8</ele>
        <time>2017-11-19T07:41:35Z</time>
      </trkpt>
      <trkpt lat="43.568" lon="3.32605">
        <ele>190.3</ele>
        <time>2017-11-19T07:41:36Z</time>
      </trkpt>
      <trkpt lat="43.56805" lon="3.32604">
        <ele>191</ele>
        <time>2017-11-19T07:41:38Z</time>
      </trkpt>
      <trkpt lat="43.56808" lon="3.32603">
        <ele>191.2</ele>
        <time>2017-11-19T07:41:39Z</time>
      </trkpt>
      <trkpt lat="43.56812" lon="3.32602">
        <ele>191.5</ele>
        <time>2017-11-19T07:41:40Z</time>
      </trkpt>
      <trkpt lat="43.56815" lon="3.32601">
        <ele>191.7</ele>
        <time>2017-11-19T07:41:41Z</time>
      </trkpt>
      <trkpt lat="43.56818" lon="3.32599">
        <ele>192.2</ele>
        <time>2017-11-19T07:41:42Z</time>
      </trkpt>
      <trkpt lat="43.56821" lon="3.32598">
        <ele>192.7</ele>
        <time>2017-11-19T07:41:43Z</time>
      </trkpt>
      <trkpt lat="43.56824" lon="3.32597">
        <ele>193.1</ele>
        <time>2017-11-19T07:41:44Z</time>
      </trkpt>
      <trkpt lat="43.56827" lon="3.32596">
        <ele>193.3</ele>
        <time>2017-11-19T07:41:45Z</time>
      </trkpt>
      <trkpt lat="43.5683" lon="3.32595">
        <ele>193.5</ele>
        <time>2017-11-19T07:41:46Z</time>
      </trkpt>
      <trkpt lat="43.56835" lon="3.32592">
        <ele>194.1</ele>
        <time>2017-11-19T07:41:48Z</time>
      </trkpt>
      <trkpt lat="43.5684" lon="3.32589">
        <ele>194.8</ele>
        <time>2017-11-19T07:41:50Z</time>
      </trkpt>
      <trkpt lat="43.56843" lon="3.32588">
        <ele>195.1</ele>
        <time>2017-11-19T07:41:51Z</time>
      </trkpt>
      <trkpt lat="43.56845" lon="3.32586">
        <ele>195.3</ele>
        <time>2017-11-19T07:41:52Z</time>
      </trkpt>
      <trkpt lat="43.56849" lon="3.32584">
        <ele>195.6</ele>
        <time>2017-11-19T07:41:54Z</time>
      </trkpt>
      <trkpt lat="43.56854" lon="3.32582">
        <ele>196.1</ele>
        <time>2017-11-19T07:41:56Z</time>
      </trkpt>
      <trkpt lat="43.56859" lon="3.32582">
        <ele>196.6</ele>
        <time>2017-11-19T07:41:58Z</time>
      </trkpt>
      <trkpt lat="43.56862" lon="3.32583">
        <ele>196.7</ele>
        <time>2017-11-19T07:41:59Z</time>
      </trkpt>
      <trkpt lat="43.56866" lon="3.32585">
        <ele>196.9</ele>
        <time>2017-11-19T07:42:00Z</time>
      </trkpt>
      <trkpt lat="43.56869" lon="3.32587">
        <ele>197.1</ele>
        <time>2017-11-19T07:42:01Z</time>
      </trkpt>
      <trkpt lat="43.56872" lon="3.32588">
        <ele>197.2</ele>
        <time>2017-11-19T07:42:02Z</time>
      </trkpt>
      <trkpt lat="43.56875" lon="3.32588">
        <ele>197.4</ele>
        <time>2017-11-19T07:42:03Z</time>
      </trkpt>
      <trkpt lat="43.5688" lon="3.3259">
        <ele>197.9</ele>
        <time>2017-11-19T07:42:05Z</time>
      </trkpt>
      <trkpt lat="43.56883" lon="3.3259">
        <ele>198.2</ele>
        <time>2017-11-19T07:42:06Z</time>
      </trkpt>
      <trkpt lat="43.56888" lon="3.32592">
        <ele>198.6</ele>
        <time>2017-11-19T07:42:08Z</time>
      </trkpt>
      <trkpt lat="43.56893" lon="3.32594">
        <ele>198.9</ele>
        <time>2017-11-19T07:42:10Z</time>
      </trkpt>
      <trkpt lat="43.56898" lon="3.32595">
        <ele>199.3</ele>
        <time>2017-11-19T07:42:12Z</time>
      </trkpt>
      <trkpt lat="43.56903" lon="3.32595">
        <ele>199.8</ele>
        <time>2017-11-19T07:42:14Z</time>
      </trkpt>
      <trkpt lat="43.56907" lon="3.32594">
        <ele>200.3</ele>
        <time>2017-11-19T07:42:16Z</time>
      </trkpt>
      <trkpt lat="43.5691" lon="3.32594">
        <ele>200.5</ele>
        <time>2017-11-19T07:42:17Z</time>
      </trkpt>
      <trkpt lat="43.56914" lon="3.32592">
        <ele>200.9</ele>
        <time>2017-11-19T07:42:19Z</time>
      </trkpt>
      <trkpt lat="43.56918" lon="3.32592">
        <ele>201.2</ele>
        <time>2017-11-19T07:42:21Z</time>
      </trkpt>
      <trkpt lat="43.56922" lon="3.32591">
        <ele>201.6</ele>
        <time>2017-11-19T07:42:23Z</time>
      </trkpt>
      <trkpt lat="43.56926" lon="3.32591">
        <ele>202</ele>
        <time>2017-11-19T07:42:25Z</time>
      </trkpt>
      <trkpt lat="43.56931" lon="3.32591">
        <ele>202.2</ele>
        <time>2017-11-19T07:42:27Z</time>
      </trkpt>
      <trkpt lat="43.56935" lon="3.32591">
        <ele>202.4</ele>
        <time>2017-11-19T07:42:29Z</time>
      </trkpt>
      <trkpt lat="43.56939" lon="3.3259">
        <ele>202.7</ele>
        <time>2017-11-19T07:42:31Z</time>
      </trkpt>
      <trkpt lat="43.56943" lon="3.32589">
        <ele>202.9</ele>
        <time>2017-11-19T07:42:33Z</time>
      </trkpt>
      <trkpt lat="43.56947" lon="3.32589">
        <ele>203.5</ele>
        <time>2017-11-19T07:42:35Z</time>
      </trkpt>
      <trkpt lat="43.56952" lon="3.32589">
        <ele>204.2</ele>
        <time>2017-11-19T07:42:37Z</time>
      </trkpt>
      <trkpt lat="43.56957" lon="3.32589">
        <ele>204.6</ele>
        <time>2017-11-19T07:42:39Z</time>
      </trkpt>
      <trkpt lat="43.56961" lon="3.3259">
        <ele>204.8</ele>
        <time>2017-11-19T07:42:41Z</time>
      </trkpt>
      <trkpt lat="43.56966" lon="3.32591">
        <ele>205.2</ele>
        <time>2017-11-19T07:42:43Z</time>
      </trkpt>
      <trkpt lat="43.56971" lon="3.32591">
        <ele>205.8</ele>
        <time>2017-11-19T07:42:45Z</time>
      </trkpt>
      <trkpt lat="43.56975" lon="3.3259">
        <ele>206.1</ele>
        <time>2017-11-19T07:42:47Z</time>
      </trkpt>
      <trkpt lat="43.56979" lon="3.32589">
        <ele>206.4</ele>
        <time>2017-11-19T07:42:49Z</time>
      </trkpt>
      <trkpt lat="43.56982" lon="3.32588">
        <ele>206.5</ele>
        <time>2017-11-19T07:42:50Z</time>
      </trkpt>
      <trkpt lat="43.56986" lon="3.32586">
        <ele>206.8</ele>
        <time>2017-11-19T07:42:52Z</time>
      </trkpt>
      <trkpt lat="43.5699" lon="3.32584">
        <ele>207.1</ele>
        <time>2017-11-19T07:42:54Z</time>
      </trkpt>
      <trkpt lat="43.56993" lon="3.32583">
        <ele>207.5</ele>
        <time>2017-11-19T07:42:56Z</time>
      </trkpt>
      <trkpt lat="43.56997" lon="3.32581">
        <ele>207.9</ele>
        <time>2017-11-19T07:42:58Z</time>
      </trkpt>
      <trkpt lat="43.57002" lon="3.32581">
        <ele>208.3</ele>
        <time>2017-11-19T07:43:00Z</time>
      </trkpt>
      <trkpt lat="43.57008" lon="3.32582">
        <ele>209.1</ele>
        <time>2017-11-19T07:43:02Z</time>
      </trkpt>
      <trkpt lat="43.57011" lon="3.32583">
        <ele>209.5</ele>
        <time>2017-11-19T07:43:03Z</time>
      </trkpt>
      <trkpt lat="43.57015" lon="3.32587">
        <ele>210.1</ele>
        <time>2017-11-19T07:43:05Z</time>
      </trkpt>
      <trkpt lat="43.57018" lon="3.32589">
        <ele>210.4</ele>
        <time>2017-11-19T07:43:06Z</time>
      </trkpt>
      <trkpt lat="43.57022" lon="3.32593">
        <ele>210.9</ele>
        <time>2017-11-19T07:43:08Z</time>
      </trkpt>
      <trkpt lat="43.57025" lon="3.32596">
        <ele>211.2</ele>
        <time>2017-11-19T07:43:10Z</time>
      </trkpt>
      <trkpt lat="43.57028" lon="3.32599">
        <ele>211.5</ele>
        <time>2017-11-19T07:43:12Z</time>
      </trkpt>
      <trkpt lat="43.57031" lon="3.32601">
        <ele>211.7</ele>
        <time>2017-11-19T07:43:14Z</time>
      </trkpt>
      <trkpt lat="43.57034" lon="3.32604">
        <ele>211.9</ele>
        <time>2017-11-19T07:43:16Z</time>
      </trkpt>
      <trkpt lat="43.57037" lon="3.32605">
        <ele>212</ele>
        <time>2017-11-19T07:43:18Z</time>
      </trkpt>
      <trkpt lat="43.57041" lon="3.32608">
        <ele>212.2</ele>
        <time>2017-11-19T07:43:21Z</time>
      </trkpt>
      <trkpt lat="43.57044" lon="3.32611">
        <ele>212.3</ele>
        <time>2017-11-19T07:43:23Z</time>
      </trkpt>
      <trkpt lat="43.57046" lon="3.32613">
        <ele>212.4</ele>
        <time>2017-11-19T07:43:25Z</time>
      </trkpt>
      <trkpt lat="43.5705" lon="3.32616">
        <ele>212.8</ele>
        <time>2017-11-19T07:43:27Z</time>
      </trkpt>
      <trkpt lat="43.57054" lon="3.32616">
        <ele>213.3</ele>
        <time>2017-11-19T07:43:29Z</time>
      </trkpt>
      <trkpt lat="43.57056" lon="3.3261">
        <ele>213.6</ele>
        <time>2017-11-19T07:43:31Z</time>
      </trkpt>
      <trkpt lat="43.57057" lon="3.32607">
        <ele>213.7</ele>
        <time>2017-11-19T07:43:33Z</time>
      </trkpt>
      <trkpt lat="43.57057" lon="3.32601">
        <ele>213.9</ele>
        <time>2017-11-19T07:43:35Z</time>
      </trkpt>
      <trkpt lat="43.57058" lon="3.32595">
        <ele>214.1</ele>
        <time>2017-11-19T07:43:37Z</time>
      </trkpt>
      <trkpt lat="43.57058" lon="3.3259">
        <ele>214.3</ele>
        <time>2017-11-19T07:43:39Z</time>
      </trkpt>
      <trkpt lat="43.57059" lon="3.32585">
        <ele>214.7</ele>
        <time>2017-11-19T07:43:41Z</time>
      </trkpt>
      <trkpt lat="43.57062" lon="3.3258">
        <ele>215.2</ele>
        <time>2017-11-19T07:43:43Z</time>
      </trkpt>
      <trkpt lat="43.57065" lon="3.32576">
        <ele>215.5</ele>
        <time>2017-11-19T07:43:45Z</time>
      </trkpt>
      <trkpt lat="43.57069" lon="3.32573">
        <ele>215.7</ele>
        <time>2017-11-19T07:43:47Z</time>
      </trkpt>
      <trkpt lat="43.57073" lon="3.32571">
        <ele>216</ele>
        <time>2017-11-19T07:43:49Z</time>
      </trkpt>
      <trkpt lat="43.57078" lon="3.3257">
        <ele>216.7</ele>
        <time>2017-11-19T07:43:51Z</time>
      </trkpt>
      <trkpt lat="43.57082" lon="3.32569">
        <ele>217.2</ele>
        <time>2017-11-19T07:43:53Z</time>
      </trkpt>
      <trkpt lat="43.57087" lon="3.32567">
        <ele>217.5</ele>
        <time>2017-11-19T07:43:56Z</time>
      </trkpt>
      <trkpt lat="43.57091" lon="3.32566">
        <ele>217.7</ele>
        <time>2017-11-19T07:43:58Z</time>
      </trkpt>
      <trkpt lat="43.57094" lon="3.32564">
        <ele>217.9</ele>
        <time>2017-11-19T07:44:00Z</time>
      </trkpt>
      <trkpt lat="43.57098" lon="3.32563">
        <ele>218.1</ele>
        <time>2017-11-19T07:44:02Z</time>
      </trkpt>
      <trkpt lat="43.57102" lon="3.32561">
        <ele>218.7</ele>
        <time>2017-11-19T07:44:04Z</time>
      </trkpt>
      <trkpt lat="43.57106" lon="3.32559">
        <ele>219.1</ele>
        <time>2017-11-19T07:44:06Z</time>
      </trkpt>
      <trkpt lat="43.5711" lon="3.32557">
        <ele>219.4</ele>
        <time>2017-11-19T07:44:08Z</time>
      </trkpt>
      <trkpt lat="43.57113" lon="3.32555">
        <ele>219.6</ele>
        <time>2017-11-19T07:44:10Z</time>
      </trkpt>
      <trkpt lat="43.57116" lon="3.32553">
        <ele>219.8</ele>
        <time>2017-11-19T07:44:12Z</time>
      </trkpt>
      <trkpt lat="43.57119" lon="3.32551">
        <ele>220.2</ele>
        <time>2017-11-19T07:44:14Z</time>
      </trkpt>
      <trkpt lat="43.57123" lon="3.32549">
        <ele>220.7</ele>
        <time>2017-11-19T07:44:16Z</time>
      </trkpt>
      <trkpt lat="43.57127" lon="3.32548">
        <ele>221.1</ele>
        <time>2017-11-19T07:44:18Z</time>
      </trkpt>
      <trkpt lat="43.57131" lon="3.32546">
        <ele>221.3</ele>
        <time>2017-11-19T07:44:20Z</time>
      </trkpt>
      <trkpt lat="43.57135" lon="3.32545">
        <ele>221.5</ele>
        <time>2017-11-19T07:44:22Z</time>
      </trkpt>
      <trkpt lat="43.57139" lon="3.32544">
        <ele>221.8</ele>
        <time>2017-11-19T07:44:24Z</time>
      </trkpt>
      <trkpt lat="43.57143" lon="3.32543">
        <ele>222.2</ele>
        <time>2017-11-19T07:44:26Z</time>
      </trkpt>
      <trkpt lat="43.57147" lon="3.32541">
        <ele>222.7</ele>
        <time>2017-11-19T07:44:28Z</time>
      </trkpt>
      <trkpt lat="43.5715" lon="3.3254">
        <ele>222.9</ele>
        <time>2017-11-19T07:44:30Z</time>
      </trkpt>
      <trkpt lat="43.57153" lon="3.32538">
        <ele>223.1</ele>
        <time>2017-11-19T07:44:32Z</time>
      </trkpt>
      <trkpt lat="43.57157" lon="3.32537">
        <ele>223.5</ele>
        <time>2017-11-19T07:44:34Z</time>
      </trkpt>
      <trkpt lat="43.5716" lon="3.32536">
        <ele>224</ele>
        <time>2017-11-19T07:44:36Z</time>
      </trkpt>
      <trkpt lat="43.57164" lon="3.32534">
        <ele>224.7</ele>
        <time>2017-11-19T07:44:38Z</time>
      </trkpt>
      <trkpt lat="43.57168" lon="3.32532">
        <ele>225.3</ele>
        <time>2017-11-19T07:44:40Z</time>
      </trkpt>
      <trkpt lat="43.57171" lon="3.32532">
        <ele>225.9</ele>
        <time>2017-11-19T07:44:42Z</time>
      </trkpt>
      <trkpt lat="43.57174" lon="3.32534">
        <ele>226.3</ele>
        <time>2017-11-19T07:44:44Z</time>
      </trkpt>
      <trkpt lat="43.57174" lon="3.32539">
        <ele>226.7</ele>
        <time>2017-11-19T07:44:46Z</time>
      </trkpt>
      <trkpt lat="43.57171" lon="3.32543">
        <ele>227</ele>
        <time>2017-11-19T07:44:48Z</time>
      </trkpt>
      <trkpt lat="43.57168" lon="3.32545">
        <ele>227.2</ele>
        <time>2017-11-19T07:44:50Z</time>
      </trkpt>
      <trkpt lat="43.57166" lon="3.32547">
        <ele>227.4</ele>
        <time>2017-11-19T07:44:52Z</time>
      </trkpt>
      <trkpt lat="43.57162" lon="3.3255">
        <ele>227.7</ele>
        <time>2017-11-19T07:44:54Z</time>
      </trkpt>
      <trkpt lat="43.57159" lon="3.32553">
        <ele>228.2</ele>
        <time>2017-11-19T07:44:56Z</time>
      </trkpt>
      <trkpt lat="43.57155" lon="3.32556">
        <ele>228.8</ele>
        <time>2017-11-19T07:44:58Z</time>
      </trkpt>
      <trkpt lat="43.57152" lon="3.32559">
        <ele>229</ele>
        <time>2017-11-19T07:45:00Z</time>
      </trkpt>
      <trkpt lat="43.57148" lon="3.32561">
        <ele>229.2</ele>
        <time>2017-11-19T07:45:02Z</time>
      </trkpt>
      <trkpt lat="43.57145" lon="3.32564">
        <ele>229.4</ele>
        <time>2017-11-19T07:45:04Z</time>
      </trkpt>
      <trkpt lat="43.57141" lon="3.32567">
        <ele>229.6</ele>
        <time>2017-11-19T07:45:06Z</time>
      </trkpt>
      <trkpt lat="43.57138" lon="3.3257">
        <ele>230</ele>
        <time>2017-11-19T07:45:08Z</time>
      </trkpt>
      <trkpt lat="43.57135" lon="3.32574">
        <ele>230.5</ele>
        <time>2017-11-19T07:45:10Z</time>
      </trkpt>
      <trkpt lat="43.57131" lon="3.32577">
        <ele>231</ele>
        <time>2017-11-19T07:45:12Z</time>
      </trkpt>
      <trkpt lat="43.57129" lon="3.32581">
        <ele>231.2</ele>
        <time>2017-11-19T07:45:14Z</time>
      </trkpt>
      <trkpt lat="43.57126" lon="3.32585">
        <ele>231.4</ele>
        <time>2017-11-19T07:45:16Z</time>
      </trkpt>
      <trkpt lat="43.57124" lon="3.3259">
        <ele>231.6</ele>
        <time>2017-11-19T07:45:18Z</time>
      </trkpt>
      <trkpt lat="43.57121" lon="3.32595">
        <ele>232.1</ele>
        <time>2017-11-19T07:45:20Z</time>
      </trkpt>
      <trkpt lat="43.57118" lon="3.32599">
        <ele>232.6</ele>
        <time>2017-11-19T07:45:22Z</time>
      </trkpt>
      <trkpt lat="43.57116" lon="3.32604">
        <ele>232.9</ele>
        <time>2017-11-19T07:45:24Z</time>
      </trkpt>
      <trkpt lat="43.57113" lon="3.32608">
        <ele>233.1</ele>
        <time>2017-11-19T07:45:26Z</time>
      </trkpt>
      <trkpt lat="43.57111" lon="3.32613">
        <ele>233.3</ele>
        <time>2017-11-19T07:45:28Z</time>
      </trkpt>
      <trkpt lat="43.57109" lon="3.3262">
        <ele>233.5</ele>
        <time>2017-11-19T07:45:30Z</time>
      </trkpt>
      <trkpt lat="43.57108" lon="3.32626">
        <ele>233.8</ele>
        <time>2017-11-19T07:45:32Z</time>
      </trkpt>
      <trkpt lat="43.57107" lon="3.32631">
        <ele>234.2</ele>
        <time>2017-11-19T07:45:34Z</time>
      </trkpt>
      <trkpt lat="43.57106" lon="3.32635">
        <ele>234.5</ele>
        <time>2017-11-19T07:45:36Z</time>
      </trkpt>
      <trkpt lat="43.57107" lon="3.32642">
        <ele>234.8</ele>
        <time>2017-11-19T07:45:38Z</time>
      </trkpt>
      <trkpt lat="43.57109" lon="3.32649">
        <ele>235</ele>
        <time>2017-11-19T07:45:40Z</time>
      </trkpt>
      <trkpt lat="43.57111" lon="3.32655">
        <ele>235.2</ele>
        <time>2017-11-19T07:45:42Z</time>
      </trkpt>
      <trkpt lat="43.57111" lon="3.32661">
        <ele>235.4</ele>
        <time>2017-11-19T07:45:44Z</time>
      </trkpt>
      <trkpt lat="43.57112" lon="3.32667">
        <ele>235.8</ele>
        <time>2017-11-19T07:45:46Z</time>
      </trkpt>
      <trkpt lat="43.57113" lon="3.32672">
        <ele>236.1</ele>
        <time>2017-11-19T07:45:48Z</time>
      </trkpt>
      <trkpt lat="43.57114" lon="3.32678">
        <ele>236.4</ele>
        <time>2017-11-19T07:45:50Z</time>
      </trkpt>
      <trkpt lat="43.57115" lon="3.32682">
        <ele>236.5</ele>
        <time>2017-11-19T07:45:52Z</time>
      </trkpt>
      <trkpt lat="43.57116" lon="3.32688">
        <ele>236.6</ele>
        <time>2017-11-19T07:45:54Z</time>
      </trkpt>
      <trkpt lat="43.57116" lon="3.32692">
        <ele>236.7</ele>
        <time>2017-11-19T07:45:56Z</time>
      </trkpt>
      <trkpt lat="43.57116" lon="3.32698">
        <ele>236.9</ele>
        <time>2017-11-19T07:45:58Z</time>
      </trkpt>
      <trkpt lat="43.57116" lon="3.32704">
        <ele>237.1</ele>
        <time>2017-11-19T07:46:00Z</time>
      </trkpt>
      <trkpt lat="43.57116" lon="3.32711">
        <ele>237.6</ele>
        <time>2017-11-19T07:46:02Z</time>
      </trkpt>
      <trkpt lat="43.57116" lon="3.32718">
        <ele>238</ele>
        <time>2017-11-19T07:46:04Z</time>
      </trkpt>
      <trkpt lat="43.57115" lon="3.32725">
        <ele>238.3</ele>
        <time>2017-11-19T07:46:06Z</time>
      </trkpt>
      <trkpt lat="43.57114" lon="3.32732">
        <ele>238.6</ele>
        <time>2017-11-19T07:46:08Z</time>
      </trkpt>
      <trkpt lat="43.57113" lon="3.32738">
        <ele>238.8</ele>
        <time>2017-11-19T07:46:10Z</time>
      </trkpt>
      <trkpt lat="43.57112" lon="3.32746">
        <ele>239.1</ele>
        <time>2017-11-19T07:46:12Z</time>
      </trkpt>
      <trkpt lat="43.57112" lon="3.32749">
        <ele>239.4</ele>
        <time>2017-11-19T07:46:13Z</time>
      </trkpt>
      <trkpt lat="43.57111" lon="3.32753">
        <ele>239.7</ele>
        <time>2017-11-19T07:46:14Z</time>
      </trkpt>
      <trkpt lat="43.5711" lon="3.32756">
        <ele>239.9</ele>
        <time>2017-11-19T07:46:15Z</time>
      </trkpt>
      <trkpt lat="43.57108" lon="3.32763">
        <ele>240.1</ele>
        <time>2017-11-19T07:46:17Z</time>
      </trkpt>
      <trkpt lat="43.57107" lon="3.32767">
        <ele>240.2</ele>
        <time>2017-11-19T07:46:18Z</time>
      </trkpt>
      <trkpt lat="43.57106" lon="3.32774">
        <ele>240.4</ele>
        <time>2017-11-19T07:46:20Z</time>
      </trkpt>
      <trkpt lat="43.57105" lon="3.32781">
        <ele>240.6</ele>
        <time>2017-11-19T07:46:22Z</time>
      </trkpt>
      <trkpt lat="43.57104" lon="3.32787">
        <ele>240.8</ele>
        <time>2017-11-19T07:46:24Z</time>
      </trkpt>
      <trkpt lat="43.57103" lon="3.32791">
        <ele>240.9</ele>
        <time>2017-11-19T07:46:25Z</time>
      </trkpt>
      <trkpt lat="43.57102" lon="3.32795">
        <ele>241</ele>
        <time>2017-11-19T07:46:26Z</time>
      </trkpt>
      <trkpt lat="43.57101" lon="3.32802">
        <ele>241.5</ele>
        <time>2017-11-19T07:46:28Z</time>
      </trkpt>
      <trkpt lat="43.57099" lon="3.32808">
        <ele>242</ele>
        <time>2017-11-19T07:46:30Z</time>
      </trkpt>
      <trkpt lat="43.57098" lon="3.32812">
        <ele>242.2</ele>
        <time>2017-11-19T07:46:31Z</time>
      </trkpt>
      <trkpt lat="43.57097" lon="3.32818">
        <ele>242.4</ele>
        <time>2017-11-19T07:46:33Z</time>
      </trkpt>
      <trkpt lat="43.57096" lon="3.32825">
        <ele>242.6</ele>
        <time>2017-11-19T07:46:35Z</time>
      </trkpt>
      <trkpt lat="43.57096" lon="3.32829">
        <ele>242.9</ele>
        <time>2017-11-19T07:46:36Z</time>
      </trkpt>
      <trkpt lat="43.57095" lon="3.32833">
        <ele>243.2</ele>
        <time>2017-11-19T07:46:37Z</time>
      </trkpt>
      <trkpt lat="43.57095" lon="3.32839">
        <ele>243.6</ele>
        <time>2017-11-19T07:46:39Z</time>
      </trkpt>
      <trkpt lat="43.57094" lon="3.32846">
        <ele>243.9</ele>
        <time>2017-11-19T07:46:41Z</time>
      </trkpt>
      <trkpt lat="43.57093" lon="3.32852">
        <ele>244.1</ele>
        <time>2017-11-19T07:46:43Z</time>
      </trkpt>
      <trkpt lat="43.57092" lon="3.32859">
        <ele>244.3</ele>
        <time>2017-11-19T07:46:45Z</time>
      </trkpt>
      <trkpt lat="43.57091" lon="3.32864">
        <ele>244.5</ele>
        <time>2017-11-19T07:46:47Z</time>
      </trkpt>
      <trkpt lat="43.57091" lon="3.32871">
        <ele>244.7</ele>
        <time>2017-11-19T07:46:49Z</time>
      </trkpt>
      <trkpt lat="43.57091" lon="3.32877">
        <ele>245.2</ele>
        <time>2017-11-19T07:46:51Z</time>
      </trkpt>
      <trkpt lat="43.57094" lon="3.32882">
        <ele>245.8</ele>
        <time>2017-11-19T07:46:53Z</time>
      </trkpt>
      <trkpt lat="43.57098" lon="3.32883">
        <ele>245.8</ele>
        <time>2017-11-19T07:46:55Z</time>
      </trkpt>
      <trkpt lat="43.57102" lon="3.32879">
        <ele>245.7</ele>
        <time>2017-11-19T07:46:57Z</time>
      </trkpt>
      <trkpt lat="43.57105" lon="3.32875">
        <ele>245.5</ele>
        <time>2017-11-19T07:46:59Z</time>
      </trkpt>
      <trkpt lat="43.57108" lon="3.32871">
        <ele>245.4</ele>
        <time>2017-11-19T07:47:01Z</time>
      </trkpt>
      <trkpt lat="43.5711" lon="3.32866">
        <ele>245.3</ele>
        <time>2017-11-19T07:47:03Z</time>
      </trkpt>
      <trkpt lat="43.57113" lon="3.32861">
        <ele>245.1</ele>
        <time>2017-11-19T07:47:05Z</time>
      </trkpt>
      <trkpt lat="43.57116" lon="3.32856">
        <ele>245</ele>
        <time>2017-11-19T07:47:07Z</time>
      </trkpt>
      <trkpt lat="43.57117" lon="3.3285">
        <ele>244.8</ele>
        <time>2017-11-19T07:47:09Z</time>
      </trkpt>
      <trkpt lat="43.57118" lon="3.32843">
        <ele>244.5</ele>
        <time>2017-11-19T07:47:11Z</time>
      </trkpt>
      <trkpt lat="43.57119" lon="3.32839">
        <ele>244.4</ele>
        <time>2017-11-19T07:47:12Z</time>
      </trkpt>
      <trkpt lat="43.5712" lon="3.32835">
        <ele>244.2</ele>
        <time>2017-11-19T07:47:13Z</time>
      </trkpt>
      <trkpt lat="43.57121" lon="3.32828">
        <ele>244</ele>
        <time>2017-11-19T07:47:15Z</time>
      </trkpt>
      <trkpt lat="43.57122" lon="3.32821">
        <ele>243.9</ele>
        <time>2017-11-19T07:47:17Z</time>
      </trkpt>
      <trkpt lat="43.57124" lon="3.32815">
        <ele>243.8</ele>
        <time>2017-11-19T07:47:19Z</time>
      </trkpt>
      <trkpt lat="43.57126" lon="3.32809">
        <ele>243.7</ele>
        <time>2017-11-19T07:47:21Z</time>
      </trkpt>
      <trkpt lat="43.57129" lon="3.32804">
        <ele>243.4</ele>
        <time>2017-11-19T07:47:23Z</time>
      </trkpt>
      <trkpt lat="43.57132" lon="3.32799">
        <ele>243.1</ele>
        <time>2017-11-19T07:47:25Z</time>
      </trkpt>
      <trkpt lat="43.57134" lon="3.32793">
        <ele>242.8</ele>
        <time>2017-11-19T07:47:27Z</time>
      </trkpt>
      <trkpt lat="43.57136" lon="3.32787">
        <ele>242.5</ele>
        <time>2017-11-19T07:47:29Z</time>
      </trkpt>
      <trkpt lat="43.57138" lon="3.32781">
        <ele>242.2</ele>
        <time>2017-11-19T07:47:31Z</time>
      </trkpt>
      <trkpt lat="43.5714" lon="3.32777">
        <ele>242</ele>
        <time>2017-11-19T07:47:33Z</time>
      </trkpt>
      <trkpt lat="43.57141" lon="3.3277">
        <ele>242.9</ele>
        <time>2017-11-19T07:47:35Z</time>
      </trkpt>
      <trkpt lat="43.57141" lon="3.32763">
        <ele>243.9</ele>
        <time>2017-11-19T07:47:37Z</time>
      </trkpt>
      <trkpt lat="43.57142" lon="3.32759">
        <ele>244.4</ele>
        <time>2017-11-19T07:47:38Z</time>
      </trkpt>
      <trkpt lat="43.57142" lon="3.32755">
        <ele>245</ele>
        <time>2017-11-19T07:47:39Z</time>
      </trkpt>
      <trkpt lat="43.57143" lon="3.32751">
        <ele>245.4</ele>
        <time>2017-11-19T07:47:40Z</time>
      </trkpt>
      <trkpt lat="43.57144" lon="3.32747">
        <ele>245.9</ele>
        <time>2017-11-19T07:47:41Z</time>
      </trkpt>
      <trkpt lat="43.57144" lon="3.32743">
        <ele>246.3</ele>
        <time>2017-11-19T07:47:42Z</time>
      </trkpt>
      <trkpt lat="43.57145" lon="3.32739">
        <ele>246.8</ele>
        <time>2017-11-19T07:47:43Z</time>
      </trkpt>
      <trkpt lat="43.57145" lon="3.32734">
        <ele>247.3</ele>
        <time>2017-11-19T07:47:44Z</time>
      </trkpt>
      <trkpt lat="43.57146" lon="3.32729">
        <ele>247.7</ele>
        <time>2017-11-19T07:47:45Z</time>
      </trkpt>
      <trkpt lat="43.57147" lon="3.32725">
        <ele>248.1</ele>
        <time>2017-11-19T07:47:46Z</time>
      </trkpt>
      <trkpt lat="43.57147" lon="3.32721">
        <ele>248.5</ele>
        <time>2017-11-19T07:47:47Z</time>
      </trkpt>
      <trkpt lat="43.57148" lon="3.32717">
        <ele>248.9</ele>
        <time>2017-11-19T07:47:48Z</time>
      </trkpt>
      <trkpt lat="43.57148" lon="3.32713">
        <ele>249.2</ele>
        <time>2017-11-19T07:47:49Z</time>
      </trkpt>
      <trkpt lat="43.57149" lon="3.32708">
        <ele>249.5</ele>
        <time>2017-11-19T07:47:50Z</time>
      </trkpt>
      <trkpt lat="43.57149" lon="3.32704">
        <ele>249.8</ele>
        <time>2017-11-19T07:47:51Z</time>
      </trkpt>
      <trkpt lat="43.5715" lon="3.32699">
        <ele>250.2</ele>
        <time>2017-11-19T07:47:52Z</time>
      </trkpt>
      <trkpt lat="43.57151" lon="3.32695">
        <ele>250.4</ele>
        <time>2017-11-19T07:47:53Z</time>
      </trkpt>
      <trkpt lat="43.57151" lon="3.32691">
        <ele>250.7</ele>
        <time>2017-11-19T07:47:54Z</time>
      </trkpt>
      <trkpt lat="43.57152" lon="3.32686">
        <ele>250.8</ele>
        <time>2017-11-19T07:47:55Z</time>
      </trkpt>
      <trkpt lat="43.57153" lon="3.32682">
        <ele>250.9</ele>
        <time>2017-11-19T07:47:56Z</time>
      </trkpt>
      <trkpt lat="43.57155" lon="3.32678">
        <ele>251</ele>
        <time>2017-11-19T07:47:57Z</time>
      </trkpt>
      <trkpt lat="43.57156" lon="3.32674">
        <ele>251.1</ele>
        <time>2017-11-19T07:47:58Z</time>
      </trkpt>
      <trkpt lat="43.57158" lon="3.3267">
        <ele>251.2</ele>
        <time>2017-11-19T07:47:59Z</time>
      </trkpt>
      <trkpt lat="43.57159" lon="3.32667">
        <ele>251.3</ele>
        <time>2017-11-19T07:48:00Z</time>
      </trkpt>
      <trkpt lat="43.57161" lon="3.32663">
        <ele>251.5</ele>
        <time>2017-11-19T07:48:01Z</time>
      </trkpt>
      <trkpt lat="43.57162" lon="3.32659">
        <ele>251.6</ele>
        <time>2017-11-19T07:48:02Z</time>
      </trkpt>
      <trkpt lat="43.57164" lon="3.32656">
        <ele>251.7</ele>
        <time>2017-11-19T07:48:03Z</time>
      </trkpt>
      <trkpt lat="43.57166" lon="3.32652">
        <ele>251.8</ele>
        <time>2017-11-19T07:48:04Z</time>
      </trkpt>
      <trkpt lat="43.57168" lon="3.32648">
        <ele>251.9</ele>
        <time>2017-11-19T07:48:05Z</time>
      </trkpt>
      <trkpt lat="43.5717" lon="3.32646">
        <ele>252</ele>
        <time>2017-11-19T07:48:06Z</time>
      </trkpt>
      <trkpt lat="43.57173" lon="3.32643">
        <ele>252</ele>
        <time>2017-11-19T07:48:07Z</time>
      </trkpt>
      <trkpt lat="43.57175" lon="3.3264">
        <ele>252.1</ele>
        <time>2017-11-19T07:48:08Z</time>
      </trkpt>
      <trkpt lat="43.57178" lon="3.32637">
        <ele>252.2</ele>
        <time>2017-11-19T07:48:09Z</time>
      </trkpt>
      <trkpt lat="43.57181" lon="3.32634">
        <ele>252.3</ele>
        <time>2017-11-19T07:48:10Z</time>
      </trkpt>
      <trkpt lat="43.57183" lon="3.32632">
        <ele>252.4</ele>
        <time>2017-11-19T07:48:11Z</time>
      </trkpt>
      <trkpt lat="43.57186" lon="3.3263">
        <ele>252.5</ele>
        <time>2017-11-19T07:48:12Z</time>
      </trkpt>
      <trkpt lat="43.5719" lon="3.32626">
        <ele>252.6</ele>
        <time>2017-11-19T07:48:14Z</time>
      </trkpt>
      <trkpt lat="43.57192" lon="3.32624">
        <ele>252.7</ele>
        <time>2017-11-19T07:48:15Z</time>
      </trkpt>
      <trkpt lat="43.57195" lon="3.3262">
        <ele>252.9</ele>
        <time>2017-11-19T07:48:17Z</time>
      </trkpt>
      <trkpt lat="43.57198" lon="3.32619">
        <ele>253</ele>
        <time>2017-11-19T07:48:18Z</time>
      </trkpt>
      <trkpt lat="43.57201" lon="3.32617">
        <ele>253.3</ele>
        <time>2017-11-19T07:48:19Z</time>
      </trkpt>
      <trkpt lat="43.57204" lon="3.32617">
        <ele>253.5</ele>
        <time>2017-11-19T07:48:21Z</time>
      </trkpt>
      <trkpt lat="43.57208" lon="3.32613">
        <ele>253.9</ele>
        <time>2017-11-19T07:48:23Z</time>
      </trkpt>
      <trkpt lat="43.57212" lon="3.3261">
        <ele>254.4</ele>
        <time>2017-11-19T07:48:25Z</time>
      </trkpt>
      <trkpt lat="43.57217" lon="3.32607">
        <ele>254.8</ele>
        <time>2017-11-19T07:48:27Z</time>
      </trkpt>
      <trkpt lat="43.57221" lon="3.32605">
        <ele>255.2</ele>
        <time>2017-11-19T07:48:29Z</time>
      </trkpt>
      <trkpt lat="43.57226" lon="3.32603">
        <ele>255.4</ele>
        <time>2017-11-19T07:48:31Z</time>
      </trkpt>
      <trkpt lat="43.57231" lon="3.32601">
        <ele>255.5</ele>
        <time>2017-11-19T07:48:33Z</time>
      </trkpt>
      <trkpt lat="43.57234" lon="3.326">
        <ele>255.6</ele>
        <time>2017-11-19T07:48:35Z</time>
      </trkpt>
      <trkpt lat="43.57238" lon="3.32598">
        <ele>255.7</ele>
        <time>2017-11-19T07:48:37Z</time>
      </trkpt>
      <trkpt lat="43.57242" lon="3.32595">
        <ele>255.8</ele>
        <time>2017-11-19T07:48:39Z</time>
      </trkpt>
      <trkpt lat="43.57247" lon="3.32591">
        <ele>255.9</ele>
        <time>2017-11-19T07:48:41Z</time>
      </trkpt>
      <trkpt lat="43.57252" lon="3.32587">
        <ele>256</ele>
        <time>2017-11-19T07:48:43Z</time>
      </trkpt>
      <trkpt lat="43.57256" lon="3.32584">
        <ele>256.1</ele>
        <time>2017-11-19T07:48:45Z</time>
      </trkpt>
      <trkpt lat="43.5726" lon="3.3258">
        <ele>256.2</ele>
        <time>2017-11-19T07:48:47Z</time>
      </trkpt>
      <trkpt lat="43.57264" lon="3.32575">
        <ele>256.3</ele>
        <time>2017-11-19T07:48:49Z</time>
      </trkpt>
      <trkpt lat="43.57268" lon="3.32571">
        <ele>256.4</ele>
        <time>2017-11-19T07:48:51Z</time>
      </trkpt>
      <trkpt lat="43.57272" lon="3.32567">
        <ele>256.4</ele>
        <time>2017-11-19T07:48:53Z</time>
      </trkpt>
      <trkpt lat="43.57276" lon="3.32564">
        <ele>256.5</ele>
        <time>2017-11-19T07:48:55Z</time>
      </trkpt>
      <trkpt lat="43.5728" lon="3.3256">
        <ele>256.6</ele>
        <time>2017-11-19T07:48:57Z</time>
      </trkpt>
      <trkpt lat="43.57284" lon="3.32557">
        <ele>256.6</ele>
        <time>2017-11-19T07:48:59Z</time>
      </trkpt>
      <trkpt lat="43.57289" lon="3.32555">
        <ele>256.6</ele>
        <time>2017-11-19T07:49:01Z</time>
      </trkpt>
      <trkpt lat="43.57294" lon="3.32553">
        <ele>256.6</ele>
        <time>2017-11-19T07:49:03Z</time>
      </trkpt>
      <trkpt lat="43.57297" lon="3.32553">
        <ele>256.6</ele>
        <time>2017-11-19T07:49:04Z</time>
      </trkpt>
      <trkpt lat="43.573" lon="3.32552">
        <ele>256.6</ele>
        <time>2017-11-19T07:49:05Z</time>
      </trkpt>
      <trkpt lat="43.57303" lon="3.32551">
        <ele>256.7</ele>
        <time>2017-11-19T07:49:06Z</time>
      </trkpt>
      <trkpt lat="43.57306" lon="3.32549">
        <ele>256.7</ele>
        <time>2017-11-19T07:49:07Z</time>
      </trkpt>
      <trkpt lat="43.57309" lon="3.32548">
        <ele>256.7</ele>
        <time>2017-11-19T07:49:08Z</time>
      </trkpt>
      <trkpt lat="43.57313" lon="3.32547">
        <ele>256.8</ele>
        <time>2017-11-19T07:49:09Z</time>
      </trkpt>
      <trkpt lat="43.57316" lon="3.32545">
        <ele>256.8</ele>
        <time>2017-11-19T07:49:10Z</time>
      </trkpt>
      <trkpt lat="43.57319" lon="3.32543">
        <ele>256.8</ele>
        <time>2017-11-19T07:49:11Z</time>
      </trkpt>
      <trkpt lat="43.57322" lon="3.32541">
        <ele>256.9</ele>
        <time>2017-11-19T07:49:12Z</time>
      </trkpt>
      <trkpt lat="43.57325" lon="3.32539">
        <ele>256.9</ele>
        <time>2017-11-19T07:49:13Z</time>
      </trkpt>
      <trkpt lat="43.57328" lon="3.32536">
        <ele>257</ele>
        <time>2017-11-19T07:49:14Z</time>
      </trkpt>
      <trkpt lat="43.5733" lon="3.32533">
        <ele>257</ele>
        <time>2017-11-19T07:49:15Z</time>
      </trkpt>
      <trkpt lat="43.57333" lon="3.32531">
        <ele>257</ele>
        <time>2017-11-19T07:49:16Z</time>
      </trkpt>
      <trkpt lat="43.57335" lon="3.32528">
        <ele>257</ele>
        <time>2017-11-19T07:49:17Z</time>
      </trkpt>
      <trkpt lat="43.57337" lon="3.32526">
        <ele>257.1</ele>
        <time>2017-11-19T07:49:18Z</time>
      </trkpt>
      <trkpt lat="43.5734" lon="3.32524">
        <ele>257.1</ele>
        <time>2017-11-19T07:49:19Z</time>
      </trkpt>
      <trkpt lat="43.57342" lon="3.32521">
        <ele>257.1</ele>
        <time>2017-11-19T07:49:20Z</time>
      </trkpt>
      <trkpt lat="43.57345" lon="3.32519">
        <ele>257.1</ele>
        <time>2017-11-19T07:49:21Z</time>
      </trkpt>
      <trkpt lat="43.57348" lon="3.32517">
        <ele>257.2</ele>
        <time>2017-11-19T07:49:22Z</time>
      </trkpt>
      <trkpt lat="43.57351" lon="3.32516">
        <ele>257.2</ele>
        <time>2017-11-19T07:49:23Z</time>
      </trkpt>
      <trkpt lat="43.57354" lon="3.32514">
        <ele>257.2</ele>
        <time>2017-11-19T07:49:24Z</time>
      </trkpt>
      <trkpt lat="43.57359" lon="3.32511">
        <ele>257.3</ele>
        <time>2017-11-19T07:49:26Z</time>
      </trkpt>
      <trkpt lat="43.57364" lon="3.32511">
        <ele>257.3</ele>
        <time>2017-11-19T07:49:28Z</time>
      </trkpt>
      <trkpt lat="43.57367" lon="3.3251">
        <ele>257.3</ele>
        <time>2017-11-19T07:49:29Z</time>
      </trkpt>
      <trkpt lat="43.5737" lon="3.32509">
        <ele>257.4</ele>
        <time>2017-11-19T07:49:30Z</time>
      </trkpt>
      <trkpt lat="43.57373" lon="3.32508">
        <ele>257.4</ele>
        <time>2017-11-19T07:49:31Z</time>
      </trkpt>
      <trkpt lat="43.57377" lon="3.32507">
        <ele>257.4</ele>
        <time>2017-11-19T07:49:32Z</time>
      </trkpt>
      <trkpt lat="43.5738" lon="3.32507">
        <ele>257.4</ele>
        <time>2017-11-19T07:49:33Z</time>
      </trkpt>
      <trkpt lat="43.57384" lon="3.32506">
        <ele>257.3</ele>
        <time>2017-11-19T07:49:34Z</time>
      </trkpt>
      <trkpt lat="43.57388" lon="3.32505">
        <ele>257.3</ele>
        <time>2017-11-19T07:49:35Z</time>
      </trkpt>
      <trkpt lat="43.57392" lon="3.32503">
        <ele>257.3</ele>
        <time>2017-11-19T07:49:36Z</time>
      </trkpt>
      <trkpt lat="43.57395" lon="3.32501">
        <ele>257.3</ele>
        <time>2017-11-19T07:49:37Z</time>
      </trkpt>
      <trkpt lat="43.57399" lon="3.325">
        <ele>257.3</ele>
        <time>2017-11-19T07:49:38Z</time>
      </trkpt>
      <trkpt lat="43.57402" lon="3.32497">
        <ele>257.3</ele>
        <time>2017-11-19T07:49:39Z</time>
      </trkpt>
      <trkpt lat="43.57405" lon="3.32496">
        <ele>257.3</ele>
        <time>2017-11-19T07:49:40Z</time>
      </trkpt>
      <trkpt lat="43.57408" lon="3.32493">
        <ele>257.3</ele>
        <time>2017-11-19T07:49:41Z</time>
      </trkpt>
      <trkpt lat="43.57411" lon="3.32491">
        <ele>257.3</ele>
        <time>2017-11-19T07:49:42Z</time>
      </trkpt>
      <trkpt lat="43.57414" lon="3.32489">
        <ele>257.3</ele>
        <time>2017-11-19T07:49:43Z</time>
      </trkpt>
      <trkpt lat="43.57417" lon="3.32487">
        <ele>257.3</ele>
        <time>2017-11-19T07:49:44Z</time>
      </trkpt>
      <trkpt lat="43.57421" lon="3.32485">
        <ele>257.3</ele>
        <time>2017-11-19T07:49:45Z</time>
      </trkpt>
      <trkpt lat="43.57425" lon="3.32483">
        <ele>257.3</ele>
        <time>2017-11-19T07:49:46Z</time>
      </trkpt>
      <trkpt lat="43.57428" lon="3.32481">
        <ele>257.3</ele>
        <time>2017-11-19T07:49:47Z</time>
      </trkpt>
      <trkpt lat="43.57432" lon="3.32479">
        <ele>257.3</ele>
        <time>2017-11-19T07:49:48Z</time>
      </trkpt>
      <trkpt lat="43.57436" lon="3.32477">
        <ele>257.3</ele>
        <time>2017-11-19T07:49:49Z</time>
      </trkpt>
      <trkpt lat="43.57439" lon="3.32475">
        <ele>257.3</ele>
        <time>2017-11-19T07:49:50Z</time>
      </trkpt>
      <trkpt lat="43.57443" lon="3.32473">
        <ele>257.3</ele>
        <time>2017-11-19T07:49:51Z</time>
      </trkpt>
      <trkpt lat="43.57446" lon="3.3247">
        <ele>257.4</ele>
        <time>2017-11-19T07:49:52Z</time>
      </trkpt>
      <trkpt lat="43.57449" lon="3.32468">
        <ele>257.4</ele>
        <time>2017-11-19T07:49:53Z</time>
      </trkpt>
      <trkpt lat="43.57453" lon="3.32466">
        <ele>257.4</ele>
        <time>2017-11-19T07:49:54Z</time>
      </trkpt>
      <trkpt lat="43.57456" lon="3.32464">
        <ele>257.4</ele>
        <time>2017-11-19T07:49:55Z</time>
      </trkpt>
      <trkpt lat="43.5746" lon="3.32461">
        <ele>257.4</ele>
        <time>2017-11-19T07:49:56Z</time>
      </trkpt>
      <trkpt lat="43.57463" lon="3.32459">
        <ele>257.4</ele>
        <time>2017-11-19T07:49:57Z</time>
      </trkpt>
      <trkpt lat="43.57466" lon="3.32457">
        <ele>257.4</ele>
        <time>2017-11-19T07:49:58Z</time>
      </trkpt>
      <trkpt lat="43.5747" lon="3.32455">
        <ele>257.5</ele>
        <time>2017-11-19T07:49:59Z</time>
      </trkpt>
      <trkpt lat="43.57473" lon="3.32453">
        <ele>257.5</ele>
        <time>2017-11-19T07:50:00Z</time>
      </trkpt>
      <trkpt lat="43.57476" lon="3.3245">
        <ele>257.6</ele>
        <time>2017-11-19T07:50:01Z</time>
      </trkpt>
      <trkpt lat="43.5748" lon="3.32448">
        <ele>257.6</ele>
        <time>2017-11-19T07:50:02Z</time>
      </trkpt>
      <trkpt lat="43.57483" lon="3.32446">
        <ele>257.7</ele>
        <time>2017-11-19T07:50:03Z</time>
      </trkpt>
      <trkpt lat="43.57487" lon="3.32442">
        <ele>257.7</ele>
        <time>2017-11-19T07:50:04Z</time>
      </trkpt>
      <trkpt lat="43.5749" lon="3.32439">
        <ele>257.8</ele>
        <time>2017-11-19T07:50:05Z</time>
      </trkpt>
      <trkpt lat="43.57493" lon="3.32435">
        <ele>257.8</ele>
        <time>2017-11-19T07:50:06Z</time>
      </trkpt>
      <trkpt lat="43.57497" lon="3.32432">
        <ele>257.9</ele>
        <time>2017-11-19T07:50:07Z</time>
      </trkpt>
      <trkpt lat="43.57501" lon="3.32429">
        <ele>258.1</ele>
        <time>2017-11-19T07:50:08Z</time>
      </trkpt>
      <trkpt lat="43.57505" lon="3.32425">
        <ele>258.1</ele>
        <time>2017-11-19T07:50:09Z</time>
      </trkpt>
      <trkpt lat="43.57509" lon="3.32422">
        <ele>258.2</ele>
        <time>2017-11-19T07:50:10Z</time>
      </trkpt>
      <trkpt lat="43.57513" lon="3.32418">
        <ele>258.3</ele>
        <time>2017-11-19T07:50:11Z</time>
      </trkpt>
      <trkpt lat="43.57517" lon="3.32415">
        <ele>258.4</ele>
        <time>2017-11-19T07:50:12Z</time>
      </trkpt>
      <trkpt lat="43.5752" lon="3.32412">
        <ele>258.5</ele>
        <time>2017-11-19T07:50:13Z</time>
      </trkpt>
      <trkpt lat="43.57524" lon="3.32409">
        <ele>258.5</ele>
        <time>2017-11-19T07:50:14Z</time>
      </trkpt>
      <trkpt lat="43.57527" lon="3.32406">
        <ele>258.6</ele>
        <time>2017-11-19T07:50:15Z</time>
      </trkpt>
      <trkpt lat="43.57531" lon="3.32403">
        <ele>258.7</ele>
        <time>2017-11-19T07:50:16Z</time>
      </trkpt>
      <trkpt lat="43.57535" lon="3.32401">
        <ele>258.7</ele>
        <time>2017-11-19T07:50:17Z</time>
      </trkpt>
      <trkpt lat="43.57538" lon="3.32398">
        <ele>258.8</ele>
        <time>2017-11-19T07:50:18Z</time>
      </trkpt>
      <trkpt lat="43.57542" lon="3.32395">
        <ele>258.8</ele>
        <time>2017-11-19T07:50:19Z</time>
      </trkpt>
      <trkpt lat="43.57546" lon="3.32393">
        <ele>258.9</ele>
        <time>2017-11-19T07:50:20Z</time>
      </trkpt>
      <trkpt lat="43.57549" lon="3.3239">
        <ele>259</ele>
        <time>2017-11-19T07:50:21Z</time>
      </trkpt>
      <trkpt lat="43.57553" lon="3.32386">
        <ele>259.3</ele>
        <time>2017-11-19T07:50:22Z</time>
      </trkpt>
      <trkpt lat="43.57558" lon="3.32382">
        <ele>260.9</ele>
        <time>2017-11-19T07:50:23Z</time>
      </trkpt>
      <trkpt lat="43.57561" lon="3.32379">
        <ele>262</ele>
        <time>2017-11-19T07:50:24Z</time>
      </trkpt>
      <trkpt lat="43.57564" lon="3.32376">
        <ele>262.7</ele>
        <time>2017-11-19T07:50:25Z</time>
      </trkpt>
      <trkpt lat="43.57567" lon="3.32373">
        <ele>263.1</ele>
        <time>2017-11-19T07:50:26Z</time>
      </trkpt>
      <trkpt lat="43.57571" lon="3.32371">
        <ele>263.6</ele>
        <time>2017-11-19T07:50:27Z</time>
      </trkpt>
      <trkpt lat="43.57575" lon="3.32368">
        <ele>264</ele>
        <time>2017-11-19T07:50:28Z</time>
      </trkpt>
      <trkpt lat="43.5758" lon="3.32365">
        <ele>264.3</ele>
        <time>2017-11-19T07:50:29Z</time>
      </trkpt>
      <trkpt lat="43.57584" lon="3.32362">
        <ele>264.6</ele>
        <time>2017-11-19T07:50:30Z</time>
      </trkpt>
      <trkpt lat="43.57587" lon="3.32359">
        <ele>264.9</ele>
        <time>2017-11-19T07:50:31Z</time>
      </trkpt>
      <trkpt lat="43.57591" lon="3.32356">
        <ele>265.2</ele>
        <time>2017-11-19T07:50:32Z</time>
      </trkpt>
      <trkpt lat="43.57593" lon="3.32353">
        <ele>265.4</ele>
        <time>2017-11-19T07:50:33Z</time>
      </trkpt>
      <trkpt lat="43.57596" lon="3.3235">
        <ele>265.6</ele>
        <time>2017-11-19T07:50:34Z</time>
      </trkpt>
      <trkpt lat="43.57599" lon="3.32348">
        <ele>265.8</ele>
        <time>2017-11-19T07:50:35Z</time>
      </trkpt>
      <trkpt lat="43.57602" lon="3.32345">
        <ele>266</ele>
        <time>2017-11-19T07:50:36Z</time>
      </trkpt>
      <trkpt lat="43.57605" lon="3.32343">
        <ele>266.1</ele>
        <time>2017-11-19T07:50:37Z</time>
      </trkpt>
      <trkpt lat="43.57607" lon="3.3234">
        <ele>266.3</ele>
        <time>2017-11-19T07:50:38Z</time>
      </trkpt>
      <trkpt lat="43.5761" lon="3.32338">
        <ele>266.4</ele>
        <time>2017-11-19T07:50:39Z</time>
      </trkpt>
      <trkpt lat="43.57614" lon="3.32334">
        <ele>266.6</ele>
        <time>2017-11-19T07:50:40Z</time>
      </trkpt>
      <trkpt lat="43.57617" lon="3.32331">
        <ele>266.8</ele>
        <time>2017-11-19T07:50:41Z</time>
      </trkpt>
      <trkpt lat="43.57621" lon="3.32327">
        <ele>267</ele>
        <time>2017-11-19T07:50:42Z</time>
      </trkpt>
      <trkpt lat="43.57624" lon="3.32323">
        <ele>267</ele>
        <time>2017-11-19T07:50:43Z</time>
      </trkpt>
      <trkpt lat="43.57627" lon="3.32319">
        <ele>267</ele>
        <time>2017-11-19T07:50:44Z</time>
      </trkpt>
      <trkpt lat="43.5763" lon="3.32315">
        <ele>266.9</ele>
        <time>2017-11-19T07:50:45Z</time>
      </trkpt>
      <trkpt lat="43.57633" lon="3.32312">
        <ele>266.8</ele>
        <time>2017-11-19T07:50:46Z</time>
      </trkpt>
      <trkpt lat="43.57635" lon="3.32309">
        <ele>266.8</ele>
        <time>2017-11-19T07:50:47Z</time>
      </trkpt>
      <trkpt lat="43.57638" lon="3.32305">
        <ele>266.8</ele>
        <time>2017-11-19T07:50:48Z</time>
      </trkpt>
      <trkpt lat="43.5764" lon="3.32302">
        <ele>266.8</ele>
        <time>2017-11-19T07:50:49Z</time>
      </trkpt>
      <trkpt lat="43.57643" lon="3.32299">
        <ele>266.8</ele>
        <time>2017-11-19T07:50:50Z</time>
      </trkpt>
      <trkpt lat="43.57645" lon="3.32296">
        <ele>266.9</ele>
        <time>2017-11-19T07:50:51Z</time>
      </trkpt>
      <trkpt lat="43.57648" lon="3.32293">
        <ele>266.9</ele>
        <time>2017-11-19T07:50:52Z</time>
      </trkpt>
      <trkpt lat="43.5765" lon="3.3229">
        <ele>266.9</ele>
        <time>2017-11-19T07:50:53Z</time>
      </trkpt>
      <trkpt lat="43.57652" lon="3.32287">
        <ele>266.7</ele>
        <time>2017-11-19T07:50:54Z</time>
      </trkpt>
      <trkpt lat="43.57655" lon="3.32285">
        <ele>266.5</ele>
        <time>2017-11-19T07:50:55Z</time>
      </trkpt>
      <trkpt lat="43.57657" lon="3.32282">
        <ele>266.6</ele>
        <time>2017-11-19T07:50:56Z</time>
      </trkpt>
      <trkpt lat="43.57659" lon="3.32279">
        <ele>266.7</ele>
        <time>2017-11-19T07:50:57Z</time>
      </trkpt>
      <trkpt lat="43.57662" lon="3.32277">
        <ele>266.8</ele>
        <time>2017-11-19T07:50:58Z</time>
      </trkpt>
      <trkpt lat="43.57664" lon="3.32275">
        <ele>266.9</ele>
        <time>2017-11-19T07:50:59Z</time>
      </trkpt>
      <trkpt lat="43.57667" lon="3.32269">
        <ele>267</ele>
        <time>2017-11-19T07:51:01Z</time>
      </trkpt>
      <trkpt lat="43.5767" lon="3.32267">
        <ele>267.3</ele>
        <time>2017-11-19T07:51:02Z</time>
      </trkpt>
      <trkpt lat="43.57672" lon="3.32264">
        <ele>267.5</ele>
        <time>2017-11-19T07:51:03Z</time>
      </trkpt>
      <trkpt lat="43.57674" lon="3.32261">
        <ele>267.8</ele>
        <time>2017-11-19T07:51:04Z</time>
      </trkpt>
      <trkpt lat="43.57677" lon="3.32258">
        <ele>268</ele>
        <time>2017-11-19T07:51:05Z</time>
      </trkpt>
      <trkpt lat="43.57679" lon="3.32254">
        <ele>268.3</ele>
        <time>2017-11-19T07:51:06Z</time>
      </trkpt>
      <trkpt lat="43.57681" lon="3.32251">
        <ele>268.5</ele>
        <time>2017-11-19T07:51:07Z</time>
      </trkpt>
      <trkpt lat="43.57683" lon="3.32248">
        <ele>268.7</ele>
        <time>2017-11-19T07:51:08Z</time>
      </trkpt>
      <trkpt lat="43.57684" lon="3.32244">
        <ele>269</ele>
        <time>2017-11-19T07:51:09Z</time>
      </trkpt>
      <trkpt lat="43.57689" lon="3.32236">
        <ele>269.5</ele>
        <time>2017-11-19T07:51:11Z</time>
      </trkpt>
      <trkpt lat="43.57691" lon="3.32233">
        <ele>269.7</ele>
        <time>2017-11-19T07:51:12Z</time>
      </trkpt>
      <trkpt lat="43.57693" lon="3.32228">
        <ele>270</ele>
        <time>2017-11-19T07:51:13Z</time>
      </trkpt>
      <trkpt lat="43.57695" lon="3.32224">
        <ele>270.2</ele>
        <time>2017-11-19T07:51:14Z</time>
      </trkpt>
      <trkpt lat="43.57696" lon="3.32219">
        <ele>270.5</ele>
        <time>2017-11-19T07:51:15Z</time>
      </trkpt>
      <trkpt lat="43.57694" lon="3.32215">
        <ele>270.7</ele>
        <time>2017-11-19T07:51:16Z</time>
      </trkpt>
      <trkpt lat="43.57692" lon="3.32211">
        <ele>270.9</ele>
        <time>2017-11-19T07:51:17Z</time>
      </trkpt>
      <trkpt lat="43.5769" lon="3.32206">
        <ele>271</ele>
        <time>2017-11-19T07:51:18Z</time>
      </trkpt>
      <trkpt lat="43.57687" lon="3.32201">
        <ele>271</ele>
        <time>2017-11-19T07:51:19Z</time>
      </trkpt>
      <trkpt lat="43.57686" lon="3.32196">
        <ele>271</ele>
        <time>2017-11-19T07:51:20Z</time>
      </trkpt>
      <trkpt lat="43.57684" lon="3.32191">
        <ele>271</ele>
        <time>2017-11-19T07:51:23Z</time>
      </trkpt>
      <trkpt lat="43.57689" lon="3.32186">
        <ele>271</ele>
        <time>2017-11-19T07:51:25Z</time>
      </trkpt>
      <trkpt lat="43.57693" lon="3.32183">
        <ele>273.1</ele>
        <time>2017-11-19T07:51:27Z</time>
      </trkpt>
      <trkpt lat="43.57696" lon="3.32179">
        <ele>274.3</ele>
        <time>2017-11-19T07:51:29Z</time>
      </trkpt>
      <trkpt lat="43.577" lon="3.32173">
        <ele>275.7</ele>
        <time>2017-11-19T07:51:31Z</time>
      </trkpt>
      <trkpt lat="43.57703" lon="3.32169">
        <ele>276.9</ele>
        <time>2017-11-19T07:51:33Z</time>
      </trkpt>
      <trkpt lat="43.57705" lon="3.32166">
        <ele>277.8</ele>
        <time>2017-11-19T07:51:34Z</time>
      </trkpt>
      <trkpt lat="43.57708" lon="3.32163">
        <ele>278.6</ele>
        <time>2017-11-19T07:51:35Z</time>
      </trkpt>
      <trkpt lat="43.5771" lon="3.3216">
        <ele>279.4</ele>
        <time>2017-11-19T07:51:36Z</time>
      </trkpt>
      <trkpt lat="43.57712" lon="3.32157">
        <ele>280.3</ele>
        <time>2017-11-19T07:51:37Z</time>
      </trkpt>
      <trkpt lat="43.57714" lon="3.32154">
        <ele>281.1</ele>
        <time>2017-11-19T07:51:38Z</time>
      </trkpt>
      <trkpt lat="43.57716" lon="3.32151">
        <ele>282</ele>
        <time>2017-11-19T07:51:40Z</time>
      </trkpt>
      <trkpt lat="43.57719" lon="3.32148">
        <ele>283</ele>
        <time>2017-11-19T07:51:42Z</time>
      </trkpt>
      <trkpt lat="43.57722" lon="3.32145">
        <ele>283.8</ele>
        <time>2017-11-19T07:51:44Z</time>
      </trkpt>
      <trkpt lat="43.57725" lon="3.32141">
        <ele>284.6</ele>
        <time>2017-11-19T07:51:46Z</time>
      </trkpt>
      <trkpt lat="43.57729" lon="3.32138">
        <ele>285.5</ele>
        <time>2017-11-19T07:51:48Z</time>
      </trkpt>
      <trkpt lat="43.57733" lon="3.32135">
        <ele>286.3</ele>
        <time>2017-11-19T07:51:50Z</time>
      </trkpt>
      <trkpt lat="43.57737" lon="3.3213">
        <ele>287.2</ele>
        <time>2017-11-19T07:51:52Z</time>
      </trkpt>
      <trkpt lat="43.5774" lon="3.32127">
        <ele>287.9</ele>
        <time>2017-11-19T07:51:54Z</time>
      </trkpt>
      <trkpt lat="43.57743" lon="3.32122">
        <ele>288.9</ele>
        <time>2017-11-19T07:51:56Z</time>
      </trkpt>
      <trkpt lat="43.57747" lon="3.32118">
        <ele>289.9</ele>
        <time>2017-11-19T07:51:58Z</time>
      </trkpt>
      <trkpt lat="43.57749" lon="3.32115">
        <ele>290.5</ele>
        <time>2017-11-19T07:52:00Z</time>
      </trkpt>
      <trkpt lat="43.57753" lon="3.32111">
        <ele>291</ele>
        <time>2017-11-19T07:52:02Z</time>
      </trkpt>
      <trkpt lat="43.57755" lon="3.32106">
        <ele>290.9</ele>
        <time>2017-11-19T07:52:04Z</time>
      </trkpt>
      <trkpt lat="43.57759" lon="3.32102">
        <ele>290.9</ele>
        <time>2017-11-19T07:52:06Z</time>
      </trkpt>
      <trkpt lat="43.57761" lon="3.321">
        <ele>290.8</ele>
        <time>2017-11-19T07:52:07Z</time>
      </trkpt>
      <trkpt lat="43.57764" lon="3.32098">
        <ele>290.8</ele>
        <time>2017-11-19T07:52:08Z</time>
      </trkpt>
      <trkpt lat="43.57768" lon="3.32093">
        <ele>290.8</ele>
        <time>2017-11-19T07:52:10Z</time>
      </trkpt>
      <trkpt lat="43.5777" lon="3.3209">
        <ele>290.7</ele>
        <time>2017-11-19T07:52:11Z</time>
      </trkpt>
      <trkpt lat="43.57772" lon="3.32088">
        <ele>290.7</ele>
        <time>2017-11-19T07:52:12Z</time>
      </trkpt>
      <trkpt lat="43.57774" lon="3.32085">
        <ele>290.7</ele>
        <time>2017-11-19T07:52:13Z</time>
      </trkpt>
      <trkpt lat="43.57776" lon="3.32082">
        <ele>290.6</ele>
        <time>2017-11-19T07:52:14Z</time>
      </trkpt>
      <trkpt lat="43.57779" lon="3.32079">
        <ele>290.6</ele>
        <time>2017-11-19T07:52:15Z</time>
      </trkpt>
      <trkpt lat="43.57781" lon="3.32075">
        <ele>290.6</ele>
        <time>2017-11-19T07:52:16Z</time>
      </trkpt>
      <trkpt lat="43.57783" lon="3.32072">
        <ele>290.5</ele>
        <time>2017-11-19T07:52:17Z</time>
      </trkpt>
      <trkpt lat="43.57785" lon="3.32068">
        <ele>290.5</ele>
        <time>2017-11-19T07:52:18Z</time>
      </trkpt>
      <trkpt lat="43.57787" lon="3.32065">
        <ele>290.5</ele>
        <time>2017-11-19T07:52:19Z</time>
      </trkpt>
      <trkpt lat="43.57788" lon="3.32061">
        <ele>290.4</ele>
        <time>2017-11-19T07:52:20Z</time>
      </trkpt>
      <trkpt lat="43.5779" lon="3.32057">
        <ele>290.4</ele>
        <time>2017-11-19T07:52:21Z</time>
      </trkpt>
      <trkpt lat="43.57791" lon="3.32054">
        <ele>290.4</ele>
        <time>2017-11-19T07:52:22Z</time>
      </trkpt>
      <trkpt lat="43.57793" lon="3.3205">
        <ele>290.4</ele>
        <time>2017-11-19T07:52:23Z</time>
      </trkpt>
      <trkpt lat="43.57795" lon="3.32046">
        <ele>290.4</ele>
        <time>2017-11-19T07:52:24Z</time>
      </trkpt>
      <trkpt lat="43.57795" lon="3.3204">
        <ele>290.4</ele>
        <time>2017-11-19T07:52:25Z</time>
      </trkpt>
      <trkpt lat="43.57796" lon="3.32034">
        <ele>290.4</ele>
        <time>2017-11-19T07:52:26Z</time>
      </trkpt>
      <trkpt lat="43.57797" lon="3.32028">
        <ele>290.4</ele>
        <time>2017-11-19T07:52:27Z</time>
      </trkpt>
      <trkpt lat="43.57798" lon="3.32023">
        <ele>290.4</ele>
        <time>2017-11-19T07:52:28Z</time>
      </trkpt>
      <trkpt lat="43.57799" lon="3.32019">
        <ele>290.4</ele>
        <time>2017-11-19T07:52:29Z</time>
      </trkpt>
      <trkpt lat="43.57801" lon="3.32014">
        <ele>290.4</ele>
        <time>2017-11-19T07:52:30Z</time>
      </trkpt>
      <trkpt lat="43.57803" lon="3.3201">
        <ele>290.5</ele>
        <time>2017-11-19T07:52:31Z</time>
      </trkpt>
      <trkpt lat="43.57805" lon="3.32006">
        <ele>290.5</ele>
        <time>2017-11-19T07:52:32Z</time>
      </trkpt>
      <trkpt lat="43.57806" lon="3.32002">
        <ele>290.5</ele>
        <time>2017-11-19T07:52:33Z</time>
      </trkpt>
      <trkpt lat="43.57808" lon="3.31997">
        <ele>290.5</ele>
        <time>2017-11-19T07:52:34Z</time>
      </trkpt>
      <trkpt lat="43.57809" lon="3.31993">
        <ele>290.6</ele>
        <time>2017-11-19T07:52:35Z</time>
      </trkpt>
      <trkpt lat="43.57811" lon="3.31989">
        <ele>290.6</ele>
        <time>2017-11-19T07:52:36Z</time>
      </trkpt>
      <trkpt lat="43.57813" lon="3.31986">
        <ele>290.6</ele>
        <time>2017-11-19T07:52:37Z</time>
      </trkpt>
      <trkpt lat="43.57815" lon="3.31982">
        <ele>290.6</ele>
        <time>2017-11-19T07:52:38Z</time>
      </trkpt>
      <trkpt lat="43.57816" lon="3.31979">
        <ele>290.5</ele>
        <time>2017-11-19T07:52:39Z</time>
      </trkpt>
      <trkpt lat="43.57818" lon="3.31975">
        <ele>290.5</ele>
        <time>2017-11-19T07:52:40Z</time>
      </trkpt>
      <trkpt lat="43.5782" lon="3.31972">
        <ele>290.5</ele>
        <time>2017-11-19T07:52:41Z</time>
      </trkpt>
      <trkpt lat="43.57822" lon="3.31967">
        <ele>290.5</ele>
        <time>2017-11-19T07:52:42Z</time>
      </trkpt>
      <trkpt lat="43.57824" lon="3.31963">
        <ele>290.5</ele>
        <time>2017-11-19T07:52:43Z</time>
      </trkpt>
      <trkpt lat="43.57825" lon="3.3196">
        <ele>290.5</ele>
        <time>2017-11-19T07:52:44Z</time>
      </trkpt>
      <trkpt lat="43.57827" lon="3.31956">
        <ele>290.4</ele>
        <time>2017-11-19T07:52:45Z</time>
      </trkpt>
      <trkpt lat="43.57829" lon="3.31952">
        <ele>290.4</ele>
        <time>2017-11-19T07:52:46Z</time>
      </trkpt>
      <trkpt lat="43.57831" lon="3.31947">
        <ele>290.4</ele>
        <time>2017-11-19T07:52:47Z</time>
      </trkpt>
      <trkpt lat="43.57833" lon="3.31943">
        <ele>290.4</ele>
        <time>2017-11-19T07:52:48Z</time>
      </trkpt>
      <trkpt lat="43.57835" lon="3.31939">
        <ele>290.4</ele>
        <time>2017-11-19T07:52:49Z</time>
      </trkpt>
      <trkpt lat="43.57838" lon="3.31936">
        <ele>290.4</ele>
        <time>2017-11-19T07:52:50Z</time>
      </trkpt>
      <trkpt lat="43.57839" lon="3.31933">
        <ele>290.3</ele>
        <time>2017-11-19T07:52:51Z</time>
      </trkpt>
      <trkpt lat="43.57844" lon="3.31927">
        <ele>290.3</ele>
        <time>2017-11-19T07:52:53Z</time>
      </trkpt>
      <trkpt lat="43.57846" lon="3.31923">
        <ele>290.3</ele>
        <time>2017-11-19T07:52:54Z</time>
      </trkpt>
      <trkpt lat="43.5785" lon="3.31919">
        <ele>290.3</ele>
        <time>2017-11-19T07:52:56Z</time>
      </trkpt>
      <trkpt lat="43.57853" lon="3.31913">
        <ele>290.3</ele>
        <time>2017-11-19T07:52:58Z</time>
      </trkpt>
      <trkpt lat="43.57856" lon="3.31908">
        <ele>290.2</ele>
        <time>2017-11-19T07:53:00Z</time>
      </trkpt>
      <trkpt lat="43.57858" lon="3.31903">
        <ele>290.2</ele>
        <time>2017-11-19T07:53:02Z</time>
      </trkpt>
      <trkpt lat="43.57861" lon="3.31899">
        <ele>290.2</ele>
        <time>2017-11-19T07:53:03Z</time>
      </trkpt>
      <trkpt lat="43.57862" lon="3.31895">
        <ele>290.2</ele>
        <time>2017-11-19T07:53:04Z</time>
      </trkpt>
      <trkpt lat="43.57866" lon="3.31891">
        <ele>290.2</ele>
        <time>2017-11-19T07:53:06Z</time>
      </trkpt>
      <trkpt lat="43.57867" lon="3.31888">
        <ele>290.2</ele>
        <time>2017-11-19T07:53:07Z</time>
      </trkpt>
      <trkpt lat="43.5787" lon="3.31881">
        <ele>290.3</ele>
        <time>2017-11-19T07:53:09Z</time>
      </trkpt>
      <trkpt lat="43.57872" lon="3.31877">
        <ele>290.3</ele>
        <time>2017-11-19T07:53:10Z</time>
      </trkpt>
      <trkpt lat="43.57873" lon="3.31872">
        <ele>290.3</ele>
        <time>2017-11-19T07:53:11Z</time>
      </trkpt>
      <trkpt lat="43.57875" lon="3.31868">
        <ele>290.3</ele>
        <time>2017-11-19T07:53:12Z</time>
      </trkpt>
      <trkpt lat="43.57876" lon="3.31865">
        <ele>290.3</ele>
        <time>2017-11-19T07:53:13Z</time>
      </trkpt>
      <trkpt lat="43.57878" lon="3.31861">
        <ele>290.3</ele>
        <time>2017-11-19T07:53:14Z</time>
      </trkpt>
      <trkpt lat="43.5788" lon="3.31858">
        <ele>290.3</ele>
        <time>2017-11-19T07:53:15Z</time>
      </trkpt>
      <trkpt lat="43.57882" lon="3.31856">
        <ele>290.3</ele>
        <time>2017-11-19T07:53:16Z</time>
      </trkpt>
      <trkpt lat="43.57885" lon="3.31854">
        <ele>290.2</ele>
        <time>2017-11-19T07:53:17Z</time>
      </trkpt>
      <trkpt lat="43.57889" lon="3.31851">
        <ele>290.2</ele>
        <time>2017-11-19T07:53:18Z</time>
      </trkpt>
      <trkpt lat="43.57893" lon="3.31848">
        <ele>290.1</ele>
        <time>2017-11-19T07:53:19Z</time>
      </trkpt>
      <trkpt lat="43.57896" lon="3.31845">
        <ele>290.1</ele>
        <time>2017-11-19T07:53:20Z</time>
      </trkpt>
      <trkpt lat="43.57899" lon="3.31843">
        <ele>290</ele>
        <time>2017-11-19T07:53:21Z</time>
      </trkpt>
      <trkpt lat="43.57902" lon="3.31841">
        <ele>290.5</ele>
        <time>2017-11-19T07:53:22Z</time>
      </trkpt>
      <trkpt lat="43.57906" lon="3.31838">
        <ele>291.4</ele>
        <time>2017-11-19T07:53:24Z</time>
      </trkpt>
      <trkpt lat="43.57909" lon="3.31837">
        <ele>291.7</ele>
        <time>2017-11-19T07:53:25Z</time>
      </trkpt>
      <trkpt lat="43.57913" lon="3.31835">
        <ele>292.1</ele>
        <time>2017-11-19T07:53:27Z</time>
      </trkpt>
      <trkpt lat="43.57918" lon="3.31832">
        <ele>293.1</ele>
        <time>2017-11-19T07:53:29Z</time>
      </trkpt>
      <trkpt lat="43.57922" lon="3.31829">
        <ele>293.7</ele>
        <time>2017-11-19T07:53:31Z</time>
      </trkpt>
      <trkpt lat="43.57925" lon="3.31827">
        <ele>294</ele>
        <time>2017-11-19T07:53:33Z</time>
      </trkpt>
      <trkpt lat="43.57929" lon="3.31824">
        <ele>294.5</ele>
        <time>2017-11-19T07:53:35Z</time>
      </trkpt>
      <trkpt lat="43.57933" lon="3.31822">
        <ele>294.8</ele>
        <time>2017-11-19T07:53:37Z</time>
      </trkpt>
      <trkpt lat="43.57936" lon="3.31821">
        <ele>295.2</ele>
        <time>2017-11-19T07:53:39Z</time>
      </trkpt>
      <trkpt lat="43.57939" lon="3.31819">
        <ele>295.5</ele>
        <time>2017-11-19T07:53:41Z</time>
      </trkpt>
      <trkpt lat="43.57944" lon="3.31818">
        <ele>296</ele>
        <time>2017-11-19T07:53:43Z</time>
      </trkpt>
      <trkpt lat="43.57948" lon="3.31816">
        <ele>296.4</ele>
        <time>2017-11-19T07:53:45Z</time>
      </trkpt>
      <trkpt lat="43.57952" lon="3.31816">
        <ele>296.6</ele>
        <time>2017-11-19T07:53:47Z</time>
      </trkpt>
      <trkpt lat="43.57957" lon="3.31816">
        <ele>297.1</ele>
        <time>2017-11-19T07:53:49Z</time>
      </trkpt>
      <trkpt lat="43.5796" lon="3.31817">
        <ele>297.4</ele>
        <time>2017-11-19T07:53:50Z</time>
      </trkpt>
      <trkpt lat="43.57963" lon="3.31816">
        <ele>297.6</ele>
        <time>2017-11-19T07:53:51Z</time>
      </trkpt>
      <trkpt lat="43.57967" lon="3.31814">
        <ele>298</ele>
        <time>2017-11-19T07:53:53Z</time>
      </trkpt>
      <trkpt lat="43.5797" lon="3.31812">
        <ele>298.3</ele>
        <time>2017-11-19T07:53:54Z</time>
      </trkpt>
      <trkpt lat="43.57973" lon="3.3181">
        <ele>298.7</ele>
        <time>2017-11-19T07:53:55Z</time>
      </trkpt>
      <trkpt lat="43.57976" lon="3.31807">
        <ele>299.2</ele>
        <time>2017-11-19T07:53:56Z</time>
      </trkpt>
      <trkpt lat="43.57979" lon="3.31803">
        <ele>299.7</ele>
        <time>2017-11-19T07:53:57Z</time>
      </trkpt>
      <trkpt lat="43.57981" lon="3.31801">
        <ele>300.1</ele>
        <time>2017-11-19T07:53:58Z</time>
      </trkpt>
      <trkpt lat="43.57983" lon="3.31798">
        <ele>300.2</ele>
        <time>2017-11-19T07:53:59Z</time>
      </trkpt>
      <trkpt lat="43.57986" lon="3.31794">
        <ele>301.1</ele>
        <time>2017-11-19T07:54:01Z</time>
      </trkpt>
      <trkpt lat="43.57989" lon="3.31793">
        <ele>301.2</ele>
        <time>2017-11-19T07:54:03Z</time>
      </trkpt>
      <trkpt lat="43.57992" lon="3.31791">
        <ele>301.7</ele>
        <time>2017-11-19T07:54:05Z</time>
      </trkpt>
      <trkpt lat="43.57996" lon="3.31788">
        <ele>302.6</ele>
        <time>2017-11-19T07:54:07Z</time>
      </trkpt>
      <trkpt lat="43.57999" lon="3.31786">
        <ele>303.2</ele>
        <time>2017-11-19T07:54:09Z</time>
      </trkpt>
      <trkpt lat="43.58004" lon="3.31782">
        <ele>303.8</ele>
        <time>2017-11-19T07:54:11Z</time>
      </trkpt>
      <trkpt lat="43.58008" lon="3.31779">
        <ele>304.4</ele>
        <time>2017-11-19T07:54:13Z</time>
      </trkpt>
      <trkpt lat="43.58011" lon="3.31776">
        <ele>304.9</ele>
        <time>2017-11-19T07:54:15Z</time>
      </trkpt>
      <trkpt lat="43.58015" lon="3.31773">
        <ele>305.7</ele>
        <time>2017-11-19T07:54:17Z</time>
      </trkpt>
      <trkpt lat="43.58019" lon="3.3177">
        <ele>306.2</ele>
        <time>2017-11-19T07:54:19Z</time>
      </trkpt>
      <trkpt lat="43.58022" lon="3.31768">
        <ele>306.7</ele>
        <time>2017-11-19T07:54:21Z</time>
      </trkpt>
      <trkpt lat="43.58025" lon="3.31766">
        <ele>307.3</ele>
        <time>2017-11-19T07:54:23Z</time>
      </trkpt>
      <trkpt lat="43.5803" lon="3.31761">
        <ele>307.9</ele>
        <time>2017-11-19T07:54:25Z</time>
      </trkpt>
      <trkpt lat="43.58033" lon="3.31758">
        <ele>309</ele>
        <time>2017-11-19T07:54:27Z</time>
      </trkpt>
      <trkpt lat="43.58038" lon="3.31755">
        <ele>309.6</ele>
        <time>2017-11-19T07:54:29Z</time>
      </trkpt>
      <trkpt lat="43.58042" lon="3.31753">
        <ele>310.4</ele>
        <time>2017-11-19T07:54:31Z</time>
      </trkpt>
      <trkpt lat="43.58046" lon="3.3175">
        <ele>311.4</ele>
        <time>2017-11-19T07:54:33Z</time>
      </trkpt>
      <trkpt lat="43.58051" lon="3.31748">
        <ele>311.9</ele>
        <time>2017-11-19T07:54:35Z</time>
      </trkpt>
      <trkpt lat="43.58054" lon="3.31747">
        <ele>312.4</ele>
        <time>2017-11-19T07:54:36Z</time>
      </trkpt>
      <trkpt lat="43.58057" lon="3.31745">
        <ele>313</ele>
        <time>2017-11-19T07:54:38Z</time>
      </trkpt>
      <trkpt lat="43.58061" lon="3.31744">
        <ele>313.4</ele>
        <time>2017-11-19T07:54:40Z</time>
      </trkpt>
      <trkpt lat="43.58064" lon="3.31742">
        <ele>314.4</ele>
        <time>2017-11-19T07:54:42Z</time>
      </trkpt>
      <trkpt lat="43.58069" lon="3.31739">
        <ele>314.8</ele>
        <time>2017-11-19T07:54:44Z</time>
      </trkpt>
      <trkpt lat="43.58072" lon="3.31736">
        <ele>315.3</ele>
        <time>2017-11-19T07:54:45Z</time>
      </trkpt>
      <trkpt lat="43.58075" lon="3.31734">
        <ele>315.8</ele>
        <time>2017-11-19T07:54:46Z</time>
      </trkpt>
      <trkpt lat="43.58078" lon="3.3173">
        <ele>316.3</ele>
        <time>2017-11-19T07:54:47Z</time>
      </trkpt>
      <trkpt lat="43.5808" lon="3.31728">
        <ele>316.9</ele>
        <time>2017-11-19T07:54:48Z</time>
      </trkpt>
      <trkpt lat="43.58082" lon="3.31726">
        <ele>316.9</ele>
        <time>2017-11-19T07:54:49Z</time>
      </trkpt>
      <trkpt lat="43.58087" lon="3.31723">
        <ele>318.1</ele>
        <time>2017-11-19T07:54:51Z</time>
      </trkpt>
      <trkpt lat="43.5809" lon="3.3172">
        <ele>318.6</ele>
        <time>2017-11-19T07:54:52Z</time>
      </trkpt>
      <trkpt lat="43.58093" lon="3.31717">
        <ele>319</ele>
        <time>2017-11-19T07:54:54Z</time>
      </trkpt>
      <trkpt lat="43.58097" lon="3.31715">
        <ele>319.4</ele>
        <time>2017-11-19T07:54:56Z</time>
      </trkpt>
      <trkpt lat="43.58101" lon="3.31712">
        <ele>319.6</ele>
        <time>2017-11-19T07:54:58Z</time>
      </trkpt>
      <trkpt lat="43.58105" lon="3.31711">
        <ele>320</ele>
        <time>2017-11-19T07:55:00Z</time>
      </trkpt>
      <trkpt lat="43.58109" lon="3.3171">
        <ele>320.2</ele>
        <time>2017-11-19T07:55:02Z</time>
      </trkpt>
      <trkpt lat="43.58112" lon="3.31709">
        <ele>320.3</ele>
        <time>2017-11-19T07:55:03Z</time>
      </trkpt>
      <trkpt lat="43.58115" lon="3.31708">
        <ele>320.6</ele>
        <time>2017-11-19T07:55:05Z</time>
      </trkpt>
      <trkpt lat="43.5812" lon="3.31704">
        <ele>320.8</ele>
        <time>2017-11-19T07:55:07Z</time>
      </trkpt>
      <trkpt lat="43.58122" lon="3.31701">
        <ele>321.1</ele>
        <time>2017-11-19T07:55:08Z</time>
      </trkpt>
      <trkpt lat="43.58125" lon="3.31697">
        <ele>321.5</ele>
        <time>2017-11-19T07:55:10Z</time>
      </trkpt>
      <trkpt lat="43.5813" lon="3.31693">
        <ele>322.3</ele>
        <time>2017-11-19T07:55:12Z</time>
      </trkpt>
      <trkpt lat="43.58134" lon="3.3169">
        <ele>322.8</ele>
        <time>2017-11-19T07:55:14Z</time>
      </trkpt>
      <trkpt lat="43.58138" lon="3.31688">
        <ele>323.3</ele>
        <time>2017-11-19T07:55:16Z</time>
      </trkpt>
      <trkpt lat="43.58142" lon="3.31685">
        <ele>324.1</ele>
        <time>2017-11-19T07:55:18Z</time>
      </trkpt>
      <trkpt lat="43.58146" lon="3.3168">
        <ele>324.2</ele>
        <time>2017-11-19T07:55:20Z</time>
      </trkpt>
      <trkpt lat="43.5815" lon="3.31676">
        <ele>324.5</ele>
        <time>2017-11-19T07:55:22Z</time>
      </trkpt>
      <trkpt lat="43.58155" lon="3.31673">
        <ele>325</ele>
        <time>2017-11-19T07:55:24Z</time>
      </trkpt>
      <trkpt lat="43.58159" lon="3.31669">
        <ele>325.3</ele>
        <time>2017-11-19T07:55:26Z</time>
      </trkpt>
      <trkpt lat="43.58161" lon="3.31666">
        <ele>325.6</ele>
        <time>2017-11-19T07:55:27Z</time>
      </trkpt>
      <trkpt lat="43.58164" lon="3.31662">
        <ele>325.8</ele>
        <time>2017-11-19T07:55:28Z</time>
      </trkpt>
      <trkpt lat="43.58168" lon="3.31659">
        <ele>326.1</ele>
        <time>2017-11-19T07:55:30Z</time>
      </trkpt>
      <trkpt lat="43.5817" lon="3.31655">
        <ele>326.1</ele>
        <time>2017-11-19T07:55:31Z</time>
      </trkpt>
      <trkpt lat="43.58173" lon="3.3165">
        <ele>325.7</ele>
        <time>2017-11-19T07:55:33Z</time>
      </trkpt>
      <trkpt lat="43.58174" lon="3.31647">
        <ele>325.8</ele>
        <time>2017-11-19T07:55:34Z</time>
      </trkpt>
      <trkpt lat="43.58177" lon="3.31642">
        <ele>325.6</ele>
        <time>2017-11-19T07:55:36Z</time>
      </trkpt>
      <trkpt lat="43.5818" lon="3.31637">
        <ele>325.5</ele>
        <time>2017-11-19T07:55:38Z</time>
      </trkpt>
      <trkpt lat="43.58183" lon="3.31632">
        <ele>325.3</ele>
        <time>2017-11-19T07:55:40Z</time>
      </trkpt>
      <trkpt lat="43.58186" lon="3.31626">
        <ele>325.4</ele>
        <time>2017-11-19T07:55:42Z</time>
      </trkpt>
      <trkpt lat="43.58188" lon="3.31622">
        <ele>325.3</ele>
        <time>2017-11-19T07:55:43Z</time>
      </trkpt>
      <trkpt lat="43.58189" lon="3.31619">
        <ele>325.5</ele>
        <time>2017-11-19T07:55:44Z</time>
      </trkpt>
      <trkpt lat="43.5819" lon="3.31615">
        <ele>325.4</ele>
        <time>2017-11-19T07:55:45Z</time>
      </trkpt>
      <trkpt lat="43.58192" lon="3.31612">
        <ele>325.6</ele>
        <time>2017-11-19T07:55:46Z</time>
      </trkpt>
      <trkpt lat="43.58193" lon="3.31609">
        <ele>325.5</ele>
        <time>2017-11-19T07:55:47Z</time>
      </trkpt>
      <trkpt lat="43.58196" lon="3.31604">
        <ele>325.6</ele>
        <time>2017-11-19T07:55:49Z</time>
      </trkpt>
      <trkpt lat="43.58199" lon="3.31599">
        <ele>325.7</ele>
        <time>2017-11-19T07:55:51Z</time>
      </trkpt>
      <trkpt lat="43.58201" lon="3.31596">
        <ele>325.6</ele>
        <time>2017-11-19T07:55:52Z</time>
      </trkpt>
      <trkpt lat="43.58204" lon="3.3159">
        <ele>325.7</ele>
        <time>2017-11-19T07:55:54Z</time>
      </trkpt>
      <trkpt lat="43.58206" lon="3.31584">
        <ele>325.9</ele>
        <time>2017-11-19T07:55:56Z</time>
      </trkpt>
      <trkpt lat="43.58208" lon="3.31581">
        <ele>326</ele>
        <time>2017-11-19T07:55:57Z</time>
      </trkpt>
      <trkpt lat="43.5821" lon="3.31577">
        <ele>326</ele>
        <time>2017-11-19T07:55:58Z</time>
      </trkpt>
      <trkpt lat="43.58214" lon="3.31571">
        <ele>326.3</ele>
        <time>2017-11-19T07:56:00Z</time>
      </trkpt>
      <trkpt lat="43.58216" lon="3.31568">
        <ele>326.3</ele>
        <time>2017-11-19T07:56:01Z</time>
      </trkpt>
      <trkpt lat="43.58219" lon="3.31564">
        <ele>326.3</ele>
        <time>2017-11-19T07:56:02Z</time>
      </trkpt>
      <trkpt lat="43.58221" lon="3.31558">
        <ele>326.4</ele>
        <time>2017-11-19T07:56:03Z</time>
      </trkpt>
      <trkpt lat="43.58223" lon="3.31554">
        <ele>326.4</ele>
        <time>2017-11-19T07:56:04Z</time>
      </trkpt>
      <trkpt lat="43.58225" lon="3.31549">
        <ele>326.4</ele>
        <time>2017-11-19T07:56:05Z</time>
      </trkpt>
      <trkpt lat="43.58227" lon="3.31546">
        <ele>326.5</ele>
        <time>2017-11-19T07:56:06Z</time>
      </trkpt>
      <trkpt lat="43.58228" lon="3.31541">
        <ele>326.4</ele>
        <time>2017-11-19T07:56:07Z</time>
      </trkpt>
      <trkpt lat="43.5823" lon="3.31536">
        <ele>326.5</ele>
        <time>2017-11-19T07:56:08Z</time>
      </trkpt>
      <trkpt lat="43.58232" lon="3.31531">
        <ele>326.6</ele>
        <time>2017-11-19T07:56:09Z</time>
      </trkpt>
      <trkpt lat="43.58236" lon="3.31526">
        <ele>326.6</ele>
        <time>2017-11-19T07:56:10Z</time>
      </trkpt>
      <trkpt lat="43.58239" lon="3.31522">
        <ele>326.7</ele>
        <time>2017-11-19T07:56:11Z</time>
      </trkpt>
      <trkpt lat="43.58245" lon="3.31515">
        <ele>327</ele>
        <time>2017-11-19T07:56:13Z</time>
      </trkpt>
      <trkpt lat="43.58248" lon="3.31509">
        <ele>327.3</ele>
        <time>2017-11-19T07:56:14Z</time>
      </trkpt>
      <trkpt lat="43.58252" lon="3.31505">
        <ele>327.6</ele>
        <time>2017-11-19T07:56:15Z</time>
      </trkpt>
      <trkpt lat="43.58256" lon="3.31502">
        <ele>327.9</ele>
        <time>2017-11-19T07:56:16Z</time>
      </trkpt>
      <trkpt lat="43.58261" lon="3.31501">
        <ele>328.5</ele>
        <time>2017-11-19T07:56:17Z</time>
      </trkpt>
      <trkpt lat="43.58265" lon="3.315">
        <ele>328.8</ele>
        <time>2017-11-19T07:56:18Z</time>
      </trkpt>
      <trkpt lat="43.5827" lon="3.315">
        <ele>329.6</ele>
        <time>2017-11-19T07:56:20Z</time>
      </trkpt>
      <trkpt lat="43.58273" lon="3.31499">
        <ele>329.9</ele>
        <time>2017-11-19T07:56:21Z</time>
      </trkpt>
      <trkpt lat="43.58276" lon="3.31499">
        <ele>330.3</ele>
        <time>2017-11-19T07:56:22Z</time>
      </trkpt>
      <trkpt lat="43.58279" lon="3.31498">
        <ele>330.8</ele>
        <time>2017-11-19T07:56:23Z</time>
      </trkpt>
      <trkpt lat="43.58284" lon="3.31496">
        <ele>331.3</ele>
        <time>2017-11-19T07:56:25Z</time>
      </trkpt>
      <trkpt lat="43.58287" lon="3.31495">
        <ele>331.6</ele>
        <time>2017-11-19T07:56:26Z</time>
      </trkpt>
      <trkpt lat="43.58292" lon="3.31494">
        <ele>332.7</ele>
        <time>2017-11-19T07:56:28Z</time>
      </trkpt>
      <trkpt lat="43.58296" lon="3.31493">
        <ele>333.4</ele>
        <time>2017-11-19T07:56:29Z</time>
      </trkpt>
      <trkpt lat="43.58298" lon="3.31492">
        <ele>334.1</ele>
        <time>2017-11-19T07:56:30Z</time>
      </trkpt>
      <trkpt lat="43.58304" lon="3.31491">
        <ele>335.3</ele>
        <time>2017-11-19T07:56:32Z</time>
      </trkpt>
      <trkpt lat="43.58306" lon="3.3149">
        <ele>335.3</ele>
        <time>2017-11-19T07:56:33Z</time>
      </trkpt>
      <trkpt lat="43.5831" lon="3.31487">
        <ele>336.9</ele>
        <time>2017-11-19T07:56:35Z</time>
      </trkpt>
      <trkpt lat="43.58314" lon="3.31484">
        <ele>337.4</ele>
        <time>2017-11-19T07:56:37Z</time>
      </trkpt>
      <trkpt lat="43.58318" lon="3.31482">
        <ele>337.9</ele>
        <time>2017-11-19T07:56:39Z</time>
      </trkpt>
      <trkpt lat="43.58321" lon="3.31479">
        <ele>338.6</ele>
        <time>2017-11-19T07:56:41Z</time>
      </trkpt>
      <trkpt lat="43.58325" lon="3.31475">
        <ele>339.7</ele>
        <time>2017-11-19T07:56:43Z</time>
      </trkpt>
      <trkpt lat="43.58329" lon="3.31472">
        <ele>340.1</ele>
        <time>2017-11-19T07:56:45Z</time>
      </trkpt>
      <trkpt lat="43.58332" lon="3.31467">
        <ele>340.4</ele>
        <time>2017-11-19T07:56:47Z</time>
      </trkpt>
      <trkpt lat="43.58335" lon="3.31465">
        <ele>341.1</ele>
        <time>2017-11-19T07:56:49Z</time>
      </trkpt>
      <trkpt lat="43.58337" lon="3.31463">
        <ele>340.8</ele>
        <time>2017-11-19T07:56:51Z</time>
      </trkpt>
      <trkpt lat="43.58341" lon="3.3146">
        <ele>341.6</ele>
        <time>2017-11-19T07:56:53Z</time>
      </trkpt>
      <trkpt lat="43.58344" lon="3.31455">
        <ele>341.8</ele>
        <time>2017-11-19T07:56:55Z</time>
      </trkpt>
      <trkpt lat="43.58347" lon="3.31453">
        <ele>342.3</ele>
        <time>2017-11-19T07:56:57Z</time>
      </trkpt>
      <trkpt lat="43.5835" lon="3.31451">
        <ele>342.4</ele>
        <time>2017-11-19T07:57:00Z</time>
      </trkpt>
      <trkpt lat="43.58353" lon="3.31449">
        <ele>343</ele>
        <time>2017-11-19T07:57:02Z</time>
      </trkpt>
      <trkpt lat="43.58356" lon="3.31447">
        <ele>342.6</ele>
        <time>2017-11-19T07:57:04Z</time>
      </trkpt>
      <trkpt lat="43.58358" lon="3.31445">
        <ele>343.1</ele>
        <time>2017-11-19T07:57:05Z</time>
      </trkpt>
      <trkpt lat="43.58361" lon="3.3144">
        <ele>343.3</ele>
        <time>2017-11-19T07:57:07Z</time>
      </trkpt>
      <trkpt lat="43.58364" lon="3.31438">
        <ele>343.5</ele>
        <time>2017-11-19T07:57:09Z</time>
      </trkpt>
      <trkpt lat="43.58367" lon="3.31432">
        <ele>343.6</ele>
        <time>2017-11-19T07:57:11Z</time>
      </trkpt>
      <trkpt lat="43.58368" lon="3.31429">
        <ele>343.3</ele>
        <time>2017-11-19T07:57:12Z</time>
      </trkpt>
      <trkpt lat="43.58371" lon="3.31424">
        <ele>343.4</ele>
        <time>2017-11-19T07:57:14Z</time>
      </trkpt>
      <trkpt lat="43.58374" lon="3.31419">
        <ele>343.5</ele>
        <time>2017-11-19T07:57:17Z</time>
      </trkpt>
      <trkpt lat="43.58377" lon="3.31413">
        <ele>343.4</ele>
        <time>2017-11-19T07:57:19Z</time>
      </trkpt>
      <trkpt lat="43.58379" lon="3.31408">
        <ele>343.7</ele>
        <time>2017-11-19T07:57:21Z</time>
      </trkpt>
      <trkpt lat="43.58381" lon="3.31403">
        <ele>343.6</ele>
        <time>2017-11-19T07:57:23Z</time>
      </trkpt>
      <trkpt lat="43.58384" lon="3.31399">
        <ele>343.9</ele>
        <time>2017-11-19T07:57:26Z</time>
      </trkpt>
      <trkpt lat="43.58387" lon="3.31398">
        <ele>344.3</ele>
        <time>2017-11-19T07:57:29Z</time>
      </trkpt>
      <trkpt lat="43.58389" lon="3.31396">
        <ele>344.6</ele>
        <time>2017-11-19T07:57:31Z</time>
      </trkpt>
      <trkpt lat="43.58392" lon="3.31393">
        <ele>345.1</ele>
        <time>2017-11-19T07:57:33Z</time>
      </trkpt>
      <trkpt lat="43.58395" lon="3.3139">
        <ele>345.3</ele>
        <time>2017-11-19T07:57:35Z</time>
      </trkpt>
      <trkpt lat="43.58397" lon="3.31387">
        <ele>345.5</ele>
        <time>2017-11-19T07:57:37Z</time>
      </trkpt>
      <trkpt lat="43.58399" lon="3.31384">
        <ele>345.5</ele>
        <time>2017-11-19T07:57:39Z</time>
      </trkpt>
      <trkpt lat="43.58401" lon="3.3138">
        <ele>345.6</ele>
        <time>2017-11-19T07:57:41Z</time>
      </trkpt>
      <trkpt lat="43.58404" lon="3.31377">
        <ele>345.8</ele>
        <time>2017-11-19T07:57:43Z</time>
      </trkpt>
      <trkpt lat="43.58407" lon="3.31374">
        <ele>346</ele>
        <time>2017-11-19T07:57:45Z</time>
      </trkpt>
      <trkpt lat="43.58409" lon="3.31369">
        <ele>346.3</ele>
        <time>2017-11-19T07:57:47Z</time>
      </trkpt>
      <trkpt lat="43.58411" lon="3.31364">
        <ele>346.2</ele>
        <time>2017-11-19T07:57:49Z</time>
      </trkpt>
      <trkpt lat="43.58412" lon="3.31359">
        <ele>346.5</ele>
        <time>2017-11-19T07:57:51Z</time>
      </trkpt>
      <trkpt lat="43.58414" lon="3.31354">
        <ele>346.4</ele>
        <time>2017-11-19T07:57:53Z</time>
      </trkpt>
      <trkpt lat="43.58415" lon="3.31348">
        <ele>346.4</ele>
        <time>2017-11-19T07:57:55Z</time>
      </trkpt>
      <trkpt lat="43.58415" lon="3.31342">
        <ele>346.5</ele>
        <time>2017-11-19T07:57:57Z</time>
      </trkpt>
      <trkpt lat="43.58416" lon="3.31337">
        <ele>346.8</ele>
        <time>2017-11-19T07:57:59Z</time>
      </trkpt>
      <trkpt lat="43.58418" lon="3.3133">
        <ele>347</ele>
        <time>2017-11-19T07:58:01Z</time>
      </trkpt>
      <trkpt lat="43.58418" lon="3.31324">
        <ele>347.1</ele>
        <time>2017-11-19T07:58:03Z</time>
      </trkpt>
      <trkpt lat="43.58419" lon="3.31319">
        <ele>347.5</ele>
        <time>2017-11-19T07:58:05Z</time>
      </trkpt>
      <trkpt lat="43.5842" lon="3.31315">
        <ele>347.6</ele>
        <time>2017-11-19T07:58:07Z</time>
      </trkpt>
      <trkpt lat="43.58421" lon="3.3131">
        <ele>347.8</ele>
        <time>2017-11-19T07:58:09Z</time>
      </trkpt>
      <trkpt lat="43.58421" lon="3.31306">
        <ele>348</ele>
        <time>2017-11-19T07:58:11Z</time>
      </trkpt>
      <trkpt lat="43.58421" lon="3.313">
        <ele>348.3</ele>
        <time>2017-11-19T07:58:13Z</time>
      </trkpt>
      <trkpt lat="43.58422" lon="3.31295">
        <ele>348.5</ele>
        <time>2017-11-19T07:58:15Z</time>
      </trkpt>
      <trkpt lat="43.58421" lon="3.3129">
        <ele>348.8</ele>
        <time>2017-11-19T07:58:17Z</time>
      </trkpt>
      <trkpt lat="43.58422" lon="3.31285">
        <ele>349.1</ele>
        <time>2017-11-19T07:58:19Z</time>
      </trkpt>
      <trkpt lat="43.58421" lon="3.3128">
        <ele>349.7</ele>
        <time>2017-11-19T07:58:21Z</time>
      </trkpt>
      <trkpt lat="43.58421" lon="3.31275">
        <ele>350.1</ele>
        <time>2017-11-19T07:58:24Z</time>
      </trkpt>
      <trkpt lat="43.5842" lon="3.3127">
        <ele>350.4</ele>
        <time>2017-11-19T07:58:26Z</time>
      </trkpt>
      <trkpt lat="43.58419" lon="3.31265">
        <ele>350.8</ele>
        <time>2017-11-19T07:58:28Z</time>
      </trkpt>
      <trkpt lat="43.58419" lon="3.31259">
        <ele>351.6</ele>
        <time>2017-11-19T07:58:30Z</time>
      </trkpt>
      <trkpt lat="43.58419" lon="3.31253">
        <ele>352</ele>
        <time>2017-11-19T07:58:32Z</time>
      </trkpt>
      <trkpt lat="43.5842" lon="3.31247">
        <ele>352.4</ele>
        <time>2017-11-19T07:58:34Z</time>
      </trkpt>
      <trkpt lat="43.58419" lon="3.31243">
        <ele>352.7</ele>
        <time>2017-11-19T07:58:36Z</time>
      </trkpt>
      <trkpt lat="43.58419" lon="3.31238">
        <ele>353.1</ele>
        <time>2017-11-19T07:58:38Z</time>
      </trkpt>
      <trkpt lat="43.58417" lon="3.31235">
        <ele>353.5</ele>
        <time>2017-11-19T07:58:40Z</time>
      </trkpt>
      <trkpt lat="43.58415" lon="3.3123">
        <ele>354</ele>
        <time>2017-11-19T07:58:42Z</time>
      </trkpt>
      <trkpt lat="43.58414" lon="3.31226">
        <ele>354.3</ele>
        <time>2017-11-19T07:58:44Z</time>
      </trkpt>
      <trkpt lat="43.58414" lon="3.31222">
        <ele>354.5</ele>
        <time>2017-11-19T07:58:46Z</time>
      </trkpt>
      <trkpt lat="43.58414" lon="3.31217">
        <ele>354.8</ele>
        <time>2017-11-19T07:58:48Z</time>
      </trkpt>
      <trkpt lat="43.58413" lon="3.31212">
        <ele>355</ele>
        <time>2017-11-19T07:58:50Z</time>
      </trkpt>
      <trkpt lat="43.58413" lon="3.31208">
        <ele>355.2</ele>
        <time>2017-11-19T07:58:52Z</time>
      </trkpt>
      <trkpt lat="43.58412" lon="3.31203">
        <ele>355.6</ele>
        <time>2017-11-19T07:58:54Z</time>
      </trkpt>
      <trkpt lat="43.58412" lon="3.31198">
        <ele>355.8</ele>
        <time>2017-11-19T07:58:56Z</time>
      </trkpt>
      <trkpt lat="43.58412" lon="3.31193">
        <ele>355.9</ele>
        <time>2017-11-19T07:58:58Z</time>
      </trkpt>
      <trkpt lat="43.58411" lon="3.31189">
        <ele>356.4</ele>
        <time>2017-11-19T07:58:59Z</time>
      </trkpt>
      <trkpt lat="43.58409" lon="3.31185">
        <ele>356.6</ele>
        <time>2017-11-19T07:59:00Z</time>
      </trkpt>
      <trkpt lat="43.58408" lon="3.31179">
        <ele>357.2</ele>
        <time>2017-11-19T07:59:02Z</time>
      </trkpt>
      <trkpt lat="43.58406" lon="3.31175">
        <ele>357.8</ele>
        <time>2017-11-19T07:59:04Z</time>
      </trkpt>
      <trkpt lat="43.58405" lon="3.3117">
        <ele>358.1</ele>
        <time>2017-11-19T07:59:06Z</time>
      </trkpt>
      <trkpt lat="43.58403" lon="3.31166">
        <ele>358.8</ele>
        <time>2017-11-19T07:59:08Z</time>
      </trkpt>
      <trkpt lat="43.58402" lon="3.31162">
        <ele>359</ele>
        <time>2017-11-19T07:59:10Z</time>
      </trkpt>
      <trkpt lat="43.584" lon="3.31156">
        <ele>359.5</ele>
        <time>2017-11-19T07:59:12Z</time>
      </trkpt>
      <trkpt lat="43.584" lon="3.31151">
        <ele>359.7</ele>
        <time>2017-11-19T07:59:14Z</time>
      </trkpt>
      <trkpt lat="43.58399" lon="3.31147">
        <ele>360.3</ele>
        <time>2017-11-19T07:59:16Z</time>
      </trkpt>
      <trkpt lat="43.58399" lon="3.31142">
        <ele>360.5</ele>
        <time>2017-11-19T07:59:18Z</time>
      </trkpt>
      <trkpt lat="43.58399" lon="3.31138">
        <ele>360.8</ele>
        <time>2017-11-19T07:59:20Z</time>
      </trkpt>
      <trkpt lat="43.58399" lon="3.31132">
        <ele>361</ele>
        <time>2017-11-19T07:59:22Z</time>
      </trkpt>
      <trkpt lat="43.58399" lon="3.31126">
        <ele>361.5</ele>
        <time>2017-11-19T07:59:24Z</time>
      </trkpt>
      <trkpt lat="43.58399" lon="3.31121">
        <ele>361.8</ele>
        <time>2017-11-19T07:59:26Z</time>
      </trkpt>
      <trkpt lat="43.584" lon="3.31115">
        <ele>361.7</ele>
        <time>2017-11-19T07:59:28Z</time>
      </trkpt>
      <trkpt lat="43.584" lon="3.31109">
        <ele>362.3</ele>
        <time>2017-11-19T07:59:30Z</time>
      </trkpt>
      <trkpt lat="43.58401" lon="3.31104">
        <ele>362.6</ele>
        <time>2017-11-19T07:59:32Z</time>
      </trkpt>
      <trkpt lat="43.58402" lon="3.31099">
        <ele>362.9</ele>
        <time>2017-11-19T07:59:34Z</time>
      </trkpt>
      <trkpt lat="43.58402" lon="3.31094">
        <ele>363.3</ele>
        <time>2017-11-19T07:59:36Z</time>
      </trkpt>
      <trkpt lat="43.58403" lon="3.3109">
        <ele>363.4</ele>
        <time>2017-11-19T07:59:38Z</time>
      </trkpt>
      <trkpt lat="43.58404" lon="3.31084">
        <ele>363.8</ele>
        <time>2017-11-19T07:59:40Z</time>
      </trkpt>
      <trkpt lat="43.58404" lon="3.3108">
        <ele>364.2</ele>
        <time>2017-11-19T07:59:42Z</time>
      </trkpt>
      <trkpt lat="43.58405" lon="3.31075">
        <ele>364.6</ele>
        <time>2017-11-19T07:59:44Z</time>
      </trkpt>
      <trkpt lat="43.58405" lon="3.31071">
        <ele>365</ele>
        <time>2017-11-19T07:59:46Z</time>
      </trkpt>
      <trkpt lat="43.58406" lon="3.31065">
        <ele>365.9</ele>
        <time>2017-11-19T07:59:48Z</time>
      </trkpt>
      <trkpt lat="43.58407" lon="3.3106">
        <ele>366.1</ele>
        <time>2017-11-19T07:59:50Z</time>
      </trkpt>
      <trkpt lat="43.58408" lon="3.31056">
        <ele>366.6</ele>
        <time>2017-11-19T07:59:52Z</time>
      </trkpt>
      <trkpt lat="43.58408" lon="3.3105">
        <ele>367.1</ele>
        <time>2017-11-19T07:59:54Z</time>
      </trkpt>
      <trkpt lat="43.58409" lon="3.31045">
        <ele>368</ele>
        <time>2017-11-19T07:59:56Z</time>
      </trkpt>
      <trkpt lat="43.58409" lon="3.31039">
        <ele>368.4</ele>
        <time>2017-11-19T07:59:58Z</time>
      </trkpt>
      <trkpt lat="43.5841" lon="3.31034">
        <ele>368.9</ele>
        <time>2017-11-19T08:00:00Z</time>
      </trkpt>
      <trkpt lat="43.5841" lon="3.31029">
        <ele>369.5</ele>
        <time>2017-11-19T08:00:02Z</time>
      </trkpt>
      <trkpt lat="43.58409" lon="3.31025">
        <ele>370.1</ele>
        <time>2017-11-19T08:00:04Z</time>
      </trkpt>
      <trkpt lat="43.58407" lon="3.3102">
        <ele>370.6</ele>
        <time>2017-11-19T08:00:08Z</time>
      </trkpt>
      <trkpt lat="43.58406" lon="3.31016">
        <ele>371</ele>
        <time>2017-11-19T08:00:10Z</time>
      </trkpt>
      <trkpt lat="43.58405" lon="3.31013">
        <ele>371.6</ele>
        <time>2017-11-19T08:00:11Z</time>
      </trkpt>
      <trkpt lat="43.58403" lon="3.31009">
        <ele>372</ele>
        <time>2017-11-19T08:00:12Z</time>
      </trkpt>
      <trkpt lat="43.58402" lon="3.31006">
        <ele>372.2</ele>
        <time>2017-11-19T08:00:13Z</time>
      </trkpt>
      <trkpt lat="43.584" lon="3.31">
        <ele>373.1</ele>
        <time>2017-11-19T08:00:15Z</time>
      </trkpt>
      <trkpt lat="43.584" lon="3.30993">
        <ele>373.7</ele>
        <time>2017-11-19T08:00:17Z</time>
      </trkpt>
      <trkpt lat="43.58398" lon="3.30987">
        <ele>374.7</ele>
        <time>2017-11-19T08:00:19Z</time>
      </trkpt>
      <trkpt lat="43.58398" lon="3.30983">
        <ele>375.2</ele>
        <time>2017-11-19T08:00:20Z</time>
      </trkpt>
      <trkpt lat="43.58398" lon="3.30979">
        <ele>375.7</ele>
        <time>2017-11-19T08:00:21Z</time>
      </trkpt>
      <trkpt lat="43.58398" lon="3.30975">
        <ele>376.2</ele>
        <time>2017-11-19T08:00:22Z</time>
      </trkpt>
      <trkpt lat="43.58399" lon="3.30972">
        <ele>376.7</ele>
        <time>2017-11-19T08:00:23Z</time>
      </trkpt>
      <trkpt lat="43.58401" lon="3.30968">
        <ele>376.7</ele>
        <time>2017-11-19T08:00:24Z</time>
      </trkpt>
      <trkpt lat="43.58403" lon="3.30965">
        <ele>376.6</ele>
        <time>2017-11-19T08:00:25Z</time>
      </trkpt>
      <trkpt lat="43.58406" lon="3.30961">
        <ele>376.5</ele>
        <time>2017-11-19T08:00:27Z</time>
      </trkpt>
      <trkpt lat="43.58409" lon="3.30962">
        <ele>376.4</ele>
        <time>2017-11-19T08:00:29Z</time>
      </trkpt>
      <trkpt lat="43.58413" lon="3.30964">
        <ele>376.3</ele>
        <time>2017-11-19T08:00:31Z</time>
      </trkpt>
      <trkpt lat="43.58417" lon="3.30966">
        <ele>376.1</ele>
        <time>2017-11-19T08:00:33Z</time>
      </trkpt>
      <trkpt lat="43.58421" lon="3.30969">
        <ele>376</ele>
        <time>2017-11-19T08:00:35Z</time>
      </trkpt>
      <trkpt lat="43.58425" lon="3.30973">
        <ele>375.8</ele>
        <time>2017-11-19T08:00:37Z</time>
      </trkpt>
      <trkpt lat="43.58427" lon="3.30975">
        <ele>375.8</ele>
        <time>2017-11-19T08:00:38Z</time>
      </trkpt>
      <trkpt lat="43.58429" lon="3.30977">
        <ele>375.7</ele>
        <time>2017-11-19T08:00:39Z</time>
      </trkpt>
      <trkpt lat="43.58434" lon="3.30981">
        <ele>375.5</ele>
        <time>2017-11-19T08:00:41Z</time>
      </trkpt>
      <trkpt lat="43.58436" lon="3.30983">
        <ele>375.4</ele>
        <time>2017-11-19T08:00:42Z</time>
      </trkpt>
      <trkpt lat="43.5844" lon="3.30987">
        <ele>375.2</ele>
        <time>2017-11-19T08:00:44Z</time>
      </trkpt>
      <trkpt lat="43.58442" lon="3.30991">
        <ele>375.1</ele>
        <time>2017-11-19T08:00:46Z</time>
      </trkpt>
      <trkpt lat="43.58444" lon="3.30997">
        <ele>375</ele>
        <time>2017-11-19T08:00:48Z</time>
      </trkpt>
      <trkpt lat="43.58445" lon="3.31003">
        <ele>375</ele>
        <time>2017-11-19T08:00:50Z</time>
      </trkpt>
      <trkpt lat="43.58446" lon="3.3101">
        <ele>374.9</ele>
        <time>2017-11-19T08:00:52Z</time>
      </trkpt>
      <trkpt lat="43.58447" lon="3.31015">
        <ele>374.8</ele>
        <time>2017-11-19T08:00:53Z</time>
      </trkpt>
      <trkpt lat="43.58447" lon="3.31019">
        <ele>374.8</ele>
        <time>2017-11-19T08:00:54Z</time>
      </trkpt>
      <trkpt lat="43.58449" lon="3.31025">
        <ele>374.7</ele>
        <time>2017-11-19T08:00:56Z</time>
      </trkpt>
      <trkpt lat="43.58451" lon="3.31032">
        <ele>374.6</ele>
        <time>2017-11-19T08:00:58Z</time>
      </trkpt>
      <trkpt lat="43.58452" lon="3.31036">
        <ele>374.6</ele>
        <time>2017-11-19T08:00:59Z</time>
      </trkpt>
      <trkpt lat="43.58453" lon="3.3104">
        <ele>374.5</ele>
        <time>2017-11-19T08:01:00Z</time>
      </trkpt>
      <trkpt lat="43.58455" lon="3.31045">
        <ele>374.4</ele>
        <time>2017-11-19T08:01:02Z</time>
      </trkpt>
      <trkpt lat="43.58458" lon="3.31051">
        <ele>374.3</ele>
        <time>2017-11-19T08:01:04Z</time>
      </trkpt>
      <trkpt lat="43.5846" lon="3.31057">
        <ele>374.2</ele>
        <time>2017-11-19T08:01:06Z</time>
      </trkpt>
      <trkpt lat="43.58461" lon="3.3106">
        <ele>374.2</ele>
        <time>2017-11-19T08:01:07Z</time>
      </trkpt>
      <trkpt lat="43.58462" lon="3.31064">
        <ele>374.1</ele>
        <time>2017-11-19T08:01:08Z</time>
      </trkpt>
      <trkpt lat="43.58463" lon="3.31068">
        <ele>374.1</ele>
        <time>2017-11-19T08:01:09Z</time>
      </trkpt>
      <trkpt lat="43.58464" lon="3.31072">
        <ele>374</ele>
        <time>2017-11-19T08:01:10Z</time>
      </trkpt>
      <trkpt lat="43.58465" lon="3.31078">
        <ele>373.9</ele>
        <time>2017-11-19T08:01:12Z</time>
      </trkpt>
      <trkpt lat="43.58467" lon="3.31081">
        <ele>373.8</ele>
        <time>2017-11-19T08:01:13Z</time>
      </trkpt>
      <trkpt lat="43.5847" lon="3.31087">
        <ele>373.6</ele>
        <time>2017-11-19T08:01:15Z</time>
      </trkpt>
      <trkpt lat="43.58474" lon="3.31092">
        <ele>373.4</ele>
        <time>2017-11-19T08:01:17Z</time>
      </trkpt>
      <trkpt lat="43.58477" lon="3.31096">
        <ele>373.2</ele>
        <time>2017-11-19T08:01:19Z</time>
      </trkpt>
      <trkpt lat="43.5848" lon="3.31098">
        <ele>373.1</ele>
        <time>2017-11-19T08:01:21Z</time>
      </trkpt>
      <trkpt lat="43.58483" lon="3.311">
        <ele>372.9</ele>
        <time>2017-11-19T08:01:23Z</time>
      </trkpt>
      <trkpt lat="43.58487" lon="3.31102">
        <ele>372.7</ele>
        <time>2017-11-19T08:01:25Z</time>
      </trkpt>
      <trkpt lat="43.58491" lon="3.31102">
        <ele>372.6</ele>
        <time>2017-11-19T08:01:27Z</time>
      </trkpt>
      <trkpt lat="43.58494" lon="3.31101">
        <ele>372.5</ele>
        <time>2017-11-19T08:01:29Z</time>
      </trkpt>
      <trkpt lat="43.58497" lon="3.31099">
        <ele>372.4</ele>
        <time>2017-11-19T08:01:31Z</time>
      </trkpt>
      <trkpt lat="43.58499" lon="3.31096">
        <ele>372.3</ele>
        <time>2017-11-19T08:01:33Z</time>
      </trkpt>
      <trkpt lat="43.585" lon="3.31092">
        <ele>372.2</ele>
        <time>2017-11-19T08:01:36Z</time>
      </trkpt>
      <trkpt lat="43.585" lon="3.31087">
        <ele>372</ele>
        <time>2017-11-19T08:01:39Z</time>
      </trkpt>
      <trkpt lat="43.58499" lon="3.31082">
        <ele>371.9</ele>
        <time>2017-11-19T08:01:42Z</time>
      </trkpt>
      <trkpt lat="43.58498" lon="3.31078">
        <ele>371.7</ele>
        <time>2017-11-19T08:01:45Z</time>
      </trkpt>
      <trkpt lat="43.58497" lon="3.31074">
        <ele>371.7</ele>
        <time>2017-11-19T08:01:47Z</time>
      </trkpt>
      <trkpt lat="43.58497" lon="3.3107">
        <ele>371.6</ele>
        <time>2017-11-19T08:01:49Z</time>
      </trkpt>
      <trkpt lat="43.58497" lon="3.31066">
        <ele>371.5</ele>
        <time>2017-11-19T08:01:51Z</time>
      </trkpt>
      <trkpt lat="43.58497" lon="3.31061">
        <ele>371.4</ele>
        <time>2017-11-19T08:01:54Z</time>
      </trkpt>
      <trkpt lat="43.58498" lon="3.31057">
        <ele>371.2</ele>
        <time>2017-11-19T08:01:56Z</time>
      </trkpt>
      <trkpt lat="43.58498" lon="3.31053">
        <ele>371.1</ele>
        <time>2017-11-19T08:01:58Z</time>
      </trkpt>
      <trkpt lat="43.58498" lon="3.31049">
        <ele>370.9</ele>
        <time>2017-11-19T08:02:00Z</time>
      </trkpt>
      <trkpt lat="43.58498" lon="3.31044">
        <ele>370.8</ele>
        <time>2017-11-19T08:02:02Z</time>
      </trkpt>
      <trkpt lat="43.58498" lon="3.3104">
        <ele>370.7</ele>
        <time>2017-11-19T08:02:04Z</time>
      </trkpt>
      <trkpt lat="43.58498" lon="3.31036">
        <ele>370.6</ele>
        <time>2017-11-19T08:02:06Z</time>
      </trkpt>
      <trkpt lat="43.58499" lon="3.31032">
        <ele>370.5</ele>
        <time>2017-11-19T08:02:08Z</time>
      </trkpt>
      <trkpt lat="43.585" lon="3.31029">
        <ele>370.3</ele>
        <time>2017-11-19T08:02:10Z</time>
      </trkpt>
      <trkpt lat="43.58501" lon="3.31025">
        <ele>370.2</ele>
        <time>2017-11-19T08:02:12Z</time>
      </trkpt>
      <trkpt lat="43.58502" lon="3.31021">
        <ele>370.1</ele>
        <time>2017-11-19T08:02:14Z</time>
      </trkpt>
      <trkpt lat="43.58503" lon="3.31017">
        <ele>370</ele>
        <time>2017-11-19T08:02:16Z</time>
      </trkpt>
      <trkpt lat="43.58504" lon="3.31012">
        <ele>370.4</ele>
        <time>2017-11-19T08:02:18Z</time>
      </trkpt>
      <trkpt lat="43.58505" lon="3.31007">
        <ele>370.9</ele>
        <time>2017-11-19T08:02:20Z</time>
      </trkpt>
      <trkpt lat="43.58506" lon="3.31002">
        <ele>371.4</ele>
        <time>2017-11-19T08:02:22Z</time>
      </trkpt>
      <trkpt lat="43.58506" lon="3.30997">
        <ele>371.9</ele>
        <time>2017-11-19T08:02:24Z</time>
      </trkpt>
      <trkpt lat="43.58505" lon="3.30992">
        <ele>372.5</ele>
        <time>2017-11-19T08:02:26Z</time>
      </trkpt>
      <trkpt lat="43.58505" lon="3.30988">
        <ele>373</ele>
        <time>2017-11-19T08:02:28Z</time>
      </trkpt>
      <trkpt lat="43.58505" lon="3.30983">
        <ele>373.5</ele>
        <time>2017-11-19T08:02:30Z</time>
      </trkpt>
      <trkpt lat="43.58504" lon="3.30977">
        <ele>374.1</ele>
        <time>2017-11-19T08:02:32Z</time>
      </trkpt>
      <trkpt lat="43.58505" lon="3.30971">
        <ele>374.8</ele>
        <time>2017-11-19T08:02:34Z</time>
      </trkpt>
      <trkpt lat="43.58504" lon="3.30966">
        <ele>375.3</ele>
        <time>2017-11-19T08:02:36Z</time>
      </trkpt>
      <trkpt lat="43.58505" lon="3.30962">
        <ele>375.8</ele>
        <time>2017-11-19T08:02:38Z</time>
      </trkpt>
      <trkpt lat="43.58505" lon="3.30958">
        <ele>376.3</ele>
        <time>2017-11-19T08:02:40Z</time>
      </trkpt>
      <trkpt lat="43.58505" lon="3.30953">
        <ele>376.6</ele>
        <time>2017-11-19T08:02:42Z</time>
      </trkpt>
      <trkpt lat="43.58506" lon="3.30948">
        <ele>377</ele>
        <time>2017-11-19T08:02:45Z</time>
      </trkpt>
      <trkpt lat="43.58505" lon="3.30944">
        <ele>377.3</ele>
        <time>2017-11-19T08:02:47Z</time>
      </trkpt>
      <trkpt lat="43.58505" lon="3.3094">
        <ele>377.8</ele>
        <time>2017-11-19T08:02:49Z</time>
      </trkpt>
      <trkpt lat="43.58504" lon="3.30935">
        <ele>378.5</ele>
        <time>2017-11-19T08:02:51Z</time>
      </trkpt>
      <trkpt lat="43.58503" lon="3.30931">
        <ele>379.2</ele>
        <time>2017-11-19T08:02:53Z</time>
      </trkpt>
      <trkpt lat="43.58502" lon="3.30927">
        <ele>380</ele>
        <time>2017-11-19T08:02:55Z</time>
      </trkpt>
      <trkpt lat="43.58501" lon="3.30923">
        <ele>380.7</ele>
        <time>2017-11-19T08:02:57Z</time>
      </trkpt>
      <trkpt lat="43.585" lon="3.30918">
        <ele>381.3</ele>
        <time>2017-11-19T08:02:59Z</time>
      </trkpt>
      <trkpt lat="43.58499" lon="3.30914">
        <ele>381.9</ele>
        <time>2017-11-19T08:03:01Z</time>
      </trkpt>
      <trkpt lat="43.58497" lon="3.30908">
        <ele>382.8</ele>
        <time>2017-11-19T08:03:03Z</time>
      </trkpt>
      <trkpt lat="43.58495" lon="3.30904">
        <ele>383.8</ele>
        <time>2017-11-19T08:03:05Z</time>
      </trkpt>
      <trkpt lat="43.58494" lon="3.309">
        <ele>384.9</ele>
        <time>2017-11-19T08:03:07Z</time>
      </trkpt>
      <trkpt lat="43.58494" lon="3.30895">
        <ele>385.7</ele>
        <time>2017-11-19T08:03:09Z</time>
      </trkpt>
      <trkpt lat="43.58496" lon="3.30891">
        <ele>386.5</ele>
        <time>2017-11-19T08:03:12Z</time>
      </trkpt>
      <trkpt lat="43.58498" lon="3.30887">
        <ele>386.8</ele>
        <time>2017-11-19T08:03:14Z</time>
      </trkpt>
      <trkpt lat="43.58501" lon="3.30885">
        <ele>387.1</ele>
        <time>2017-11-19T08:03:16Z</time>
      </trkpt>
      <trkpt lat="43.58504" lon="3.30882">
        <ele>387.5</ele>
        <time>2017-11-19T08:03:18Z</time>
      </trkpt>
      <trkpt lat="43.58508" lon="3.30879">
        <ele>387.9</ele>
        <time>2017-11-19T08:03:20Z</time>
      </trkpt>
      <trkpt lat="43.58511" lon="3.30876">
        <ele>388</ele>
        <time>2017-11-19T08:03:22Z</time>
      </trkpt>
      <trkpt lat="43.58515" lon="3.30874">
        <ele>388.1</ele>
        <time>2017-11-19T08:03:24Z</time>
      </trkpt>
      <trkpt lat="43.58519" lon="3.30871">
        <ele>388.1</ele>
        <time>2017-11-19T08:03:26Z</time>
      </trkpt>
      <trkpt lat="43.58523" lon="3.30867">
        <ele>388.2</ele>
        <time>2017-11-19T08:03:28Z</time>
      </trkpt>
      <trkpt lat="43.58526" lon="3.30863">
        <ele>388.3</ele>
        <time>2017-11-19T08:03:30Z</time>
      </trkpt>
      <trkpt lat="43.58528" lon="3.30859">
        <ele>388.3</ele>
        <time>2017-11-19T08:03:32Z</time>
      </trkpt>
      <trkpt lat="43.5853" lon="3.30857">
        <ele>388.3</ele>
        <time>2017-11-19T08:03:34Z</time>
      </trkpt>
      <trkpt lat="43.58533" lon="3.30852">
        <ele>388.4</ele>
        <time>2017-11-19T08:03:36Z</time>
      </trkpt>
      <trkpt lat="43.58537" lon="3.30847">
        <ele>388.4</ele>
        <time>2017-11-19T08:03:38Z</time>
      </trkpt>
      <trkpt lat="43.58539" lon="3.30844">
        <ele>388.4</ele>
        <time>2017-11-19T08:03:39Z</time>
      </trkpt>
      <trkpt lat="43.58541" lon="3.30842">
        <ele>388.4</ele>
        <time>2017-11-19T08:03:40Z</time>
      </trkpt>
      <trkpt lat="43.58544" lon="3.30839">
        <ele>388.3</ele>
        <time>2017-11-19T08:03:41Z</time>
      </trkpt>
      <trkpt lat="43.58546" lon="3.30836">
        <ele>388.3</ele>
        <time>2017-11-19T08:03:42Z</time>
      </trkpt>
      <trkpt lat="43.58549" lon="3.30832">
        <ele>388.1</ele>
        <time>2017-11-19T08:03:43Z</time>
      </trkpt>
      <trkpt lat="43.58551" lon="3.30828">
        <ele>388</ele>
        <time>2017-11-19T08:03:44Z</time>
      </trkpt>
      <trkpt lat="43.58554" lon="3.30822">
        <ele>387.8</ele>
        <time>2017-11-19T08:03:45Z</time>
      </trkpt>
      <trkpt lat="43.58558" lon="3.30817">
        <ele>387.5</ele>
        <time>2017-11-19T08:03:46Z</time>
      </trkpt>
      <trkpt lat="43.58561" lon="3.30811">
        <ele>387</ele>
        <time>2017-11-19T08:03:47Z</time>
      </trkpt>
      <trkpt lat="43.58565" lon="3.30803">
        <ele>386.3</ele>
        <time>2017-11-19T08:03:48Z</time>
      </trkpt>
      <trkpt lat="43.58569" lon="3.30797">
        <ele>385.9</ele>
        <time>2017-11-19T08:03:49Z</time>
      </trkpt>
      <trkpt lat="43.58573" lon="3.30793">
        <ele>385.6</ele>
        <time>2017-11-19T08:03:50Z</time>
      </trkpt>
      <trkpt lat="43.58578" lon="3.30794">
        <ele>385.4</ele>
        <time>2017-11-19T08:03:51Z</time>
      </trkpt>
      <trkpt lat="43.58581" lon="3.30798">
        <ele>385.3</ele>
        <time>2017-11-19T08:03:52Z</time>
      </trkpt>
      <trkpt lat="43.58582" lon="3.30802">
        <ele>385.3</ele>
        <time>2017-11-19T08:03:53Z</time>
      </trkpt>
      <trkpt lat="43.58582" lon="3.30806">
        <ele>385.3</ele>
        <time>2017-11-19T08:03:55Z</time>
      </trkpt>
      <trkpt lat="43.58582" lon="3.3081">
        <ele>385.3</ele>
        <time>2017-11-19T08:03:57Z</time>
      </trkpt>
      <trkpt lat="43.58583" lon="3.30815">
        <ele>385.3</ele>
        <time>2017-11-19T08:03:59Z</time>
      </trkpt>
      <trkpt lat="43.58583" lon="3.30821">
        <ele>385.3</ele>
        <time>2017-11-19T08:04:01Z</time>
      </trkpt>
      <trkpt lat="43.58584" lon="3.30827">
        <ele>385.4</ele>
        <time>2017-11-19T08:04:03Z</time>
      </trkpt>
      <trkpt lat="43.58585" lon="3.30833">
        <ele>385.4</ele>
        <time>2017-11-19T08:04:05Z</time>
      </trkpt>
      <trkpt lat="43.58587" lon="3.30839">
        <ele>385.5</ele>
        <time>2017-11-19T08:04:07Z</time>
      </trkpt>
      <trkpt lat="43.58588" lon="3.30844">
        <ele>385.5</ele>
        <time>2017-11-19T08:04:09Z</time>
      </trkpt>
      <trkpt lat="43.58588" lon="3.30851">
        <ele>385.6</ele>
        <time>2017-11-19T08:04:11Z</time>
      </trkpt>
      <trkpt lat="43.58589" lon="3.30859">
        <ele>385.7</ele>
        <time>2017-11-19T08:04:13Z</time>
      </trkpt>
      <trkpt lat="43.58591" lon="3.30863">
        <ele>385.7</ele>
        <time>2017-11-19T08:04:14Z</time>
      </trkpt>
      <trkpt lat="43.58592" lon="3.30868">
        <ele>385.7</ele>
        <time>2017-11-19T08:04:15Z</time>
      </trkpt>
      <trkpt lat="43.58594" lon="3.30872">
        <ele>385.8</ele>
        <time>2017-11-19T08:04:16Z</time>
      </trkpt>
      <trkpt lat="43.58596" lon="3.30877">
        <ele>385.9</ele>
        <time>2017-11-19T08:04:18Z</time>
      </trkpt>
      <trkpt lat="43.58598" lon="3.30882">
        <ele>385.9</ele>
        <time>2017-11-19T08:04:20Z</time>
      </trkpt>
      <trkpt lat="43.58601" lon="3.30886">
        <ele>386</ele>
        <time>2017-11-19T08:04:22Z</time>
      </trkpt>
      <trkpt lat="43.58604" lon="3.30891">
        <ele>386</ele>
        <time>2017-11-19T08:04:24Z</time>
      </trkpt>
      <trkpt lat="43.58606" lon="3.30894">
        <ele>386.1</ele>
        <time>2017-11-19T08:04:25Z</time>
      </trkpt>
      <trkpt lat="43.5861" lon="3.30899">
        <ele>386.1</ele>
        <time>2017-11-19T08:04:27Z</time>
      </trkpt>
      <trkpt lat="43.58614" lon="3.30904">
        <ele>386.2</ele>
        <time>2017-11-19T08:04:29Z</time>
      </trkpt>
      <trkpt lat="43.58617" lon="3.30909">
        <ele>386.3</ele>
        <time>2017-11-19T08:04:31Z</time>
      </trkpt>
      <trkpt lat="43.58618" lon="3.30911">
        <ele>386.3</ele>
        <time>2017-11-19T08:04:32Z</time>
      </trkpt>
      <trkpt lat="43.58622" lon="3.30915">
        <ele>386.4</ele>
        <time>2017-11-19T08:04:34Z</time>
      </trkpt>
      <trkpt lat="43.58625" lon="3.30918">
        <ele>386.4</ele>
        <time>2017-11-19T08:04:36Z</time>
      </trkpt>
      <trkpt lat="43.58629" lon="3.30922">
        <ele>386.5</ele>
        <time>2017-11-19T08:04:38Z</time>
      </trkpt>
      <trkpt lat="43.58633" lon="3.30927">
        <ele>386.5</ele>
        <time>2017-11-19T08:04:40Z</time>
      </trkpt>
      <trkpt lat="43.58637" lon="3.30931">
        <ele>386.6</ele>
        <time>2017-11-19T08:04:42Z</time>
      </trkpt>
      <trkpt lat="43.58639" lon="3.30934">
        <ele>386.7</ele>
        <time>2017-11-19T08:04:43Z</time>
      </trkpt>
      <trkpt lat="43.58644" lon="3.30939">
        <ele>386.7</ele>
        <time>2017-11-19T08:04:45Z</time>
      </trkpt>
      <trkpt lat="43.58646" lon="3.30941">
        <ele>386.8</ele>
        <time>2017-11-19T08:04:46Z</time>
      </trkpt>
      <trkpt lat="43.5865" lon="3.30946">
        <ele>386.8</ele>
        <time>2017-11-19T08:04:48Z</time>
      </trkpt>
      <trkpt lat="43.58653" lon="3.30949">
        <ele>386.9</ele>
        <time>2017-11-19T08:04:50Z</time>
      </trkpt>
      <trkpt lat="43.58656" lon="3.30953">
        <ele>387</ele>
        <time>2017-11-19T08:04:52Z</time>
      </trkpt>
      <trkpt lat="43.5866" lon="3.30955">
        <ele>387</ele>
        <time>2017-11-19T08:04:54Z</time>
      </trkpt>
      <trkpt lat="43.58663" lon="3.30957">
        <ele>387.1</ele>
        <time>2017-11-19T08:04:56Z</time>
      </trkpt>
      <trkpt lat="43.58666" lon="3.30959">
        <ele>387.1</ele>
        <time>2017-11-19T08:04:58Z</time>
      </trkpt>
      <trkpt lat="43.58669" lon="3.3096">
        <ele>387.2</ele>
        <time>2017-11-19T08:05:00Z</time>
      </trkpt>
      <trkpt lat="43.58673" lon="3.30959">
        <ele>387.3</ele>
        <time>2017-11-19T08:05:02Z</time>
      </trkpt>
      <trkpt lat="43.58677" lon="3.3096">
        <ele>387.4</ele>
        <time>2017-11-19T08:05:04Z</time>
      </trkpt>
      <trkpt lat="43.58682" lon="3.30961">
        <ele>387.5</ele>
        <time>2017-11-19T08:05:05Z</time>
      </trkpt>
      <trkpt lat="43.58685" lon="3.30962">
        <ele>387.5</ele>
        <time>2017-11-19T08:05:06Z</time>
      </trkpt>
      <trkpt lat="43.58689" lon="3.30961">
        <ele>387.7</ele>
        <time>2017-11-19T08:05:08Z</time>
      </trkpt>
      <trkpt lat="43.58693" lon="3.3096">
        <ele>387.9</ele>
        <time>2017-11-19T08:05:10Z</time>
      </trkpt>
      <trkpt lat="43.58696" lon="3.30958">
        <ele>388.2</ele>
        <time>2017-11-19T08:05:12Z</time>
      </trkpt>
      <trkpt lat="43.58699" lon="3.30957">
        <ele>388.6</ele>
        <time>2017-11-19T08:05:14Z</time>
      </trkpt>
      <trkpt lat="43.58703" lon="3.30954">
        <ele>389.2</ele>
        <time>2017-11-19T08:05:16Z</time>
      </trkpt>
      <trkpt lat="43.58708" lon="3.3095">
        <ele>389.9</ele>
        <time>2017-11-19T08:05:18Z</time>
      </trkpt>
      <trkpt lat="43.58713" lon="3.30946">
        <ele>390.3</ele>
        <time>2017-11-19T08:05:20Z</time>
      </trkpt>
      <trkpt lat="43.58715" lon="3.30944">
        <ele>390.6</ele>
        <time>2017-11-19T08:05:21Z</time>
      </trkpt>
      <trkpt lat="43.58719" lon="3.3094">
        <ele>391</ele>
        <time>2017-11-19T08:05:23Z</time>
      </trkpt>
      <trkpt lat="43.58723" lon="3.30937">
        <ele>391.4</ele>
        <time>2017-11-19T08:05:25Z</time>
      </trkpt>
      <trkpt lat="43.58726" lon="3.30933">
        <ele>392</ele>
        <time>2017-11-19T08:05:27Z</time>
      </trkpt>
      <trkpt lat="43.5873" lon="3.3093">
        <ele>392.5</ele>
        <time>2017-11-19T08:05:29Z</time>
      </trkpt>
      <trkpt lat="43.58734" lon="3.30927">
        <ele>392.8</ele>
        <time>2017-11-19T08:05:31Z</time>
      </trkpt>
      <trkpt lat="43.58738" lon="3.30924">
        <ele>393.1</ele>
        <time>2017-11-19T08:05:33Z</time>
      </trkpt>
      <trkpt lat="43.58742" lon="3.3092">
        <ele>393.3</ele>
        <time>2017-11-19T08:05:35Z</time>
      </trkpt>
      <trkpt lat="43.58745" lon="3.30918">
        <ele>393.4</ele>
        <time>2017-11-19T08:05:37Z</time>
      </trkpt>
      <trkpt lat="43.58749" lon="3.30915">
        <ele>393.5</ele>
        <time>2017-11-19T08:05:39Z</time>
      </trkpt>
      <trkpt lat="43.58752" lon="3.30912">
        <ele>393.6</ele>
        <time>2017-11-19T08:05:41Z</time>
      </trkpt>
      <trkpt lat="43.58757" lon="3.30908">
        <ele>393.7</ele>
        <time>2017-11-19T08:05:43Z</time>
      </trkpt>
      <trkpt lat="43.5876" lon="3.30904">
        <ele>394</ele>
        <time>2017-11-19T08:05:45Z</time>
      </trkpt>
      <trkpt lat="43.58763" lon="3.309">
        <ele>394.3</ele>
        <time>2017-11-19T08:05:47Z</time>
      </trkpt>
      <trkpt lat="43.58765" lon="3.30897">
        <ele>394.5</ele>
        <time>2017-11-19T08:05:48Z</time>
      </trkpt>
      <trkpt lat="43.58767" lon="3.30893">
        <ele>394.7</ele>
        <time>2017-11-19T08:05:50Z</time>
      </trkpt>
      <trkpt lat="43.5877" lon="3.30887">
        <ele>395.2</ele>
        <time>2017-11-19T08:05:52Z</time>
      </trkpt>
      <trkpt lat="43.58772" lon="3.30884">
        <ele>395.5</ele>
        <time>2017-11-19T08:05:53Z</time>
      </trkpt>
      <trkpt lat="43.58774" lon="3.30878">
        <ele>395.9</ele>
        <time>2017-11-19T08:05:55Z</time>
      </trkpt>
      <trkpt lat="43.58776" lon="3.30872">
        <ele>396.3</ele>
        <time>2017-11-19T08:05:57Z</time>
      </trkpt>
      <trkpt lat="43.58776" lon="3.30866">
        <ele>396.4</ele>
        <time>2017-11-19T08:05:59Z</time>
      </trkpt>
      <trkpt lat="43.58777" lon="3.30862">
        <ele>396.5</ele>
        <time>2017-11-19T08:06:01Z</time>
      </trkpt>
      <trkpt lat="43.58778" lon="3.30858">
        <ele>396.7</ele>
        <time>2017-11-19T08:06:03Z</time>
      </trkpt>
      <trkpt lat="43.58779" lon="3.30853">
        <ele>396.8</ele>
        <time>2017-11-19T08:06:05Z</time>
      </trkpt>
      <trkpt lat="43.58781" lon="3.30848">
        <ele>396.9</ele>
        <time>2017-11-19T08:06:07Z</time>
      </trkpt>
      <trkpt lat="43.58783" lon="3.30844">
        <ele>397</ele>
        <time>2017-11-19T08:06:09Z</time>
      </trkpt>
      <trkpt lat="43.58784" lon="3.3084">
        <ele>397.2</ele>
        <time>2017-11-19T08:06:11Z</time>
      </trkpt>
      <trkpt lat="43.58788" lon="3.30836">
        <ele>397.7</ele>
        <time>2017-11-19T08:06:13Z</time>
      </trkpt>
      <trkpt lat="43.5879" lon="3.30831">
        <ele>398.3</ele>
        <time>2017-11-19T08:06:15Z</time>
      </trkpt>
      <trkpt lat="43.58793" lon="3.30826">
        <ele>398.9</ele>
        <time>2017-11-19T08:06:17Z</time>
      </trkpt>
      <trkpt lat="43.58796" lon="3.30824">
        <ele>399.2</ele>
        <time>2017-11-19T08:06:18Z</time>
      </trkpt>
      <trkpt lat="43.58798" lon="3.30821">
        <ele>399.5</ele>
        <time>2017-11-19T08:06:19Z</time>
      </trkpt>
      <trkpt lat="43.58801" lon="3.30816">
        <ele>399.9</ele>
        <time>2017-11-19T08:06:21Z</time>
      </trkpt>
      <trkpt lat="43.58804" lon="3.30812">
        <ele>400.3</ele>
        <time>2017-11-19T08:06:23Z</time>
      </trkpt>
      <trkpt lat="43.58808" lon="3.30807">
        <ele>400.9</ele>
        <time>2017-11-19T08:06:25Z</time>
      </trkpt>
      <trkpt lat="43.5881" lon="3.30804">
        <ele>401.2</ele>
        <time>2017-11-19T08:06:26Z</time>
      </trkpt>
      <trkpt lat="43.58811" lon="3.308">
        <ele>401.5</ele>
        <time>2017-11-19T08:06:27Z</time>
      </trkpt>
      <trkpt lat="43.58812" lon="3.30796">
        <ele>402</ele>
        <time>2017-11-19T08:06:28Z</time>
      </trkpt>
      <trkpt lat="43.58812" lon="3.30791">
        <ele>402.1</ele>
        <time>2017-11-19T08:06:29Z</time>
      </trkpt>
      <trkpt lat="43.58813" lon="3.30787">
        <ele>402.3</ele>
        <time>2017-11-19T08:06:30Z</time>
      </trkpt>
      <trkpt lat="43.58814" lon="3.30783">
        <ele>402.5</ele>
        <time>2017-11-19T08:06:31Z</time>
      </trkpt>
      <trkpt lat="43.58815" lon="3.30779">
        <ele>402.7</ele>
        <time>2017-11-19T08:06:32Z</time>
      </trkpt>
      <trkpt lat="43.58819" lon="3.30773">
        <ele>403.1</ele>
        <time>2017-11-19T08:06:34Z</time>
      </trkpt>
      <trkpt lat="43.58822" lon="3.30769">
        <ele>403.3</ele>
        <time>2017-11-19T08:06:35Z</time>
      </trkpt>
      <trkpt lat="43.58823" lon="3.30765">
        <ele>403.3</ele>
        <time>2017-11-19T08:06:36Z</time>
      </trkpt>
      <trkpt lat="43.58825" lon="3.30759">
        <ele>403.4</ele>
        <time>2017-11-19T08:06:38Z</time>
      </trkpt>
      <trkpt lat="43.58826" lon="3.30755">
        <ele>403.4</ele>
        <time>2017-11-19T08:06:39Z</time>
      </trkpt>
      <trkpt lat="43.58828" lon="3.3075">
        <ele>403.5</ele>
        <time>2017-11-19T08:06:41Z</time>
      </trkpt>
      <trkpt lat="43.5883" lon="3.30744">
        <ele>403.7</ele>
        <time>2017-11-19T08:06:43Z</time>
      </trkpt>
      <trkpt lat="43.58832" lon="3.30737">
        <ele>404.2</ele>
        <time>2017-11-19T08:06:45Z</time>
      </trkpt>
      <trkpt lat="43.58834" lon="3.30734">
        <ele>404.4</ele>
        <time>2017-11-19T08:06:47Z</time>
      </trkpt>
      <trkpt lat="43.58835" lon="3.3073">
        <ele>404.7</ele>
        <time>2017-11-19T08:06:48Z</time>
      </trkpt>
      <trkpt lat="43.58837" lon="3.30726">
        <ele>404.9</ele>
        <time>2017-11-19T08:06:50Z</time>
      </trkpt>
      <trkpt lat="43.58838" lon="3.30723">
        <ele>404.9</ele>
        <time>2017-11-19T08:06:51Z</time>
      </trkpt>
      <trkpt lat="43.5884" lon="3.30718">
        <ele>405</ele>
        <time>2017-11-19T08:06:53Z</time>
      </trkpt>
      <trkpt lat="43.58841" lon="3.30712">
        <ele>405</ele>
        <time>2017-11-19T08:06:55Z</time>
      </trkpt>
      <trkpt lat="43.58842" lon="3.30706">
        <ele>404.9</ele>
        <time>2017-11-19T08:06:57Z</time>
      </trkpt>
      <trkpt lat="43.58842" lon="3.30701">
        <ele>405</ele>
        <time>2017-11-19T08:06:58Z</time>
      </trkpt>
      <trkpt lat="43.58842" lon="3.30697">
        <ele>405</ele>
        <time>2017-11-19T08:06:59Z</time>
      </trkpt>
      <trkpt lat="43.58843" lon="3.30693">
        <ele>405.2</ele>
        <time>2017-11-19T08:07:00Z</time>
      </trkpt>
      <trkpt lat="43.58844" lon="3.30689">
        <ele>405.3</ele>
        <time>2017-11-19T08:07:01Z</time>
      </trkpt>
      <trkpt lat="43.58844" lon="3.30683">
        <ele>405.7</ele>
        <time>2017-11-19T08:07:03Z</time>
      </trkpt>
      <trkpt lat="43.58844" lon="3.30679">
        <ele>405.9</ele>
        <time>2017-11-19T08:07:04Z</time>
      </trkpt>
      <trkpt lat="43.58844" lon="3.30673">
        <ele>406.2</ele>
        <time>2017-11-19T08:07:06Z</time>
      </trkpt>
      <trkpt lat="43.58844" lon="3.3067">
        <ele>406.3</ele>
        <time>2017-11-19T08:07:07Z</time>
      </trkpt>
      <trkpt lat="43.58844" lon="3.30663">
        <ele>406.4</ele>
        <time>2017-11-19T08:07:09Z</time>
      </trkpt>
      <trkpt lat="43.58845" lon="3.30657">
        <ele>406.4</ele>
        <time>2017-11-19T08:07:11Z</time>
      </trkpt>
      <trkpt lat="43.58845" lon="3.3065">
        <ele>406.4</ele>
        <time>2017-11-19T08:07:13Z</time>
      </trkpt>
      <trkpt lat="43.58847" lon="3.30642">
        <ele>406.5</ele>
        <time>2017-11-19T08:07:15Z</time>
      </trkpt>
      <trkpt lat="43.58847" lon="3.30636">
        <ele>406.8</ele>
        <time>2017-11-19T08:07:17Z</time>
      </trkpt>
      <trkpt lat="43.58848" lon="3.3063">
        <ele>407.1</ele>
        <time>2017-11-19T08:07:19Z</time>
      </trkpt>
      <trkpt lat="43.5885" lon="3.30624">
        <ele>407.4</ele>
        <time>2017-11-19T08:07:21Z</time>
      </trkpt>
      <trkpt lat="43.58851" lon="3.30617">
        <ele>407.5</ele>
        <time>2017-11-19T08:07:23Z</time>
      </trkpt>
      <trkpt lat="43.58852" lon="3.30611">
        <ele>407.6</ele>
        <time>2017-11-19T08:07:25Z</time>
      </trkpt>
      <trkpt lat="43.58852" lon="3.30604">
        <ele>407.5</ele>
        <time>2017-11-19T08:07:27Z</time>
      </trkpt>
      <trkpt lat="43.58852" lon="3.30597">
        <ele>407.4</ele>
        <time>2017-11-19T08:07:29Z</time>
      </trkpt>
      <trkpt lat="43.58853" lon="3.30591">
        <ele>407.3</ele>
        <time>2017-11-19T08:07:31Z</time>
      </trkpt>
      <trkpt lat="43.58854" lon="3.30585">
        <ele>407.2</ele>
        <time>2017-11-19T08:07:33Z</time>
      </trkpt>
      <trkpt lat="43.58855" lon="3.30578">
        <ele>407.2</ele>
        <time>2017-11-19T08:07:35Z</time>
      </trkpt>
      <trkpt lat="43.58856" lon="3.30572">
        <ele>407.3</ele>
        <time>2017-11-19T08:07:37Z</time>
      </trkpt>
      <trkpt lat="43.58856" lon="3.30566">
        <ele>407.5</ele>
        <time>2017-11-19T08:07:39Z</time>
      </trkpt>
      <trkpt lat="43.58856" lon="3.30559">
        <ele>407.9</ele>
        <time>2017-11-19T08:07:41Z</time>
      </trkpt>
      <trkpt lat="43.58857" lon="3.30553">
        <ele>408.3</ele>
        <time>2017-11-19T08:07:43Z</time>
      </trkpt>
      <trkpt lat="43.58857" lon="3.30546">
        <ele>408.6</ele>
        <time>2017-11-19T08:07:45Z</time>
      </trkpt>
      <trkpt lat="43.58858" lon="3.30539">
        <ele>409.1</ele>
        <time>2017-11-19T08:07:47Z</time>
      </trkpt>
      <trkpt lat="43.58858" lon="3.30534">
        <ele>409.4</ele>
        <time>2017-11-19T08:07:49Z</time>
      </trkpt>
      <trkpt lat="43.58859" lon="3.3053">
        <ele>409.6</ele>
        <time>2017-11-19T08:07:50Z</time>
      </trkpt>
      <trkpt lat="43.58859" lon="3.30525">
        <ele>409.9</ele>
        <time>2017-11-19T08:07:51Z</time>
      </trkpt>
      <trkpt lat="43.58859" lon="3.30521">
        <ele>410.2</ele>
        <time>2017-11-19T08:07:52Z</time>
      </trkpt>
      <trkpt lat="43.58859" lon="3.30515">
        <ele>410.5</ele>
        <time>2017-11-19T08:07:54Z</time>
      </trkpt>
      <trkpt lat="43.5886" lon="3.30508">
        <ele>410.7</ele>
        <time>2017-11-19T08:07:56Z</time>
      </trkpt>
      <trkpt lat="43.5886" lon="3.30503">
        <ele>410.9</ele>
        <time>2017-11-19T08:07:58Z</time>
      </trkpt>
      <trkpt lat="43.5886" lon="3.30496">
        <ele>411.4</ele>
        <time>2017-11-19T08:08:00Z</time>
      </trkpt>
      <trkpt lat="43.58861" lon="3.3049">
        <ele>411.7</ele>
        <time>2017-11-19T08:08:02Z</time>
      </trkpt>
      <trkpt lat="43.58862" lon="3.30483">
        <ele>412.1</ele>
        <time>2017-11-19T08:08:04Z</time>
      </trkpt>
      <trkpt lat="43.58862" lon="3.30479">
        <ele>412.2</ele>
        <time>2017-11-19T08:08:05Z</time>
      </trkpt>
      <trkpt lat="43.58862" lon="3.30475">
        <ele>412.2</ele>
        <time>2017-11-19T08:08:06Z</time>
      </trkpt>
      <trkpt lat="43.58862" lon="3.30469">
        <ele>412.1</ele>
        <time>2017-11-19T08:08:08Z</time>
      </trkpt>
      <trkpt lat="43.58862" lon="3.30464">
        <ele>412.1</ele>
        <time>2017-11-19T08:08:09Z</time>
      </trkpt>
      <trkpt lat="43.58862" lon="3.30458">
        <ele>412</ele>
        <time>2017-11-19T08:08:11Z</time>
      </trkpt>
      <trkpt lat="43.58861" lon="3.30452">
        <ele>411.9</ele>
        <time>2017-11-19T08:08:13Z</time>
      </trkpt>
      <trkpt lat="43.5886" lon="3.30445">
        <ele>411.8</ele>
        <time>2017-11-19T08:08:15Z</time>
      </trkpt>
      <trkpt lat="43.5886" lon="3.30438">
        <ele>411.7</ele>
        <time>2017-11-19T08:08:17Z</time>
      </trkpt>
      <trkpt lat="43.5886" lon="3.30433">
        <ele>411.6</ele>
        <time>2017-11-19T08:08:19Z</time>
      </trkpt>
      <trkpt lat="43.58858" lon="3.30428">
        <ele>411.6</ele>
        <time>2017-11-19T08:08:21Z</time>
      </trkpt>
      <trkpt lat="43.58856" lon="3.30422">
        <ele>411.5</ele>
        <time>2017-11-19T08:08:23Z</time>
      </trkpt>
      <trkpt lat="43.58854" lon="3.30417">
        <ele>411.7</ele>
        <time>2017-11-19T08:08:25Z</time>
      </trkpt>
      <trkpt lat="43.58851" lon="3.30414">
        <ele>412</ele>
        <time>2017-11-19T08:08:27Z</time>
      </trkpt>
      <trkpt lat="43.58848" lon="3.3041">
        <ele>412.3</ele>
        <time>2017-11-19T08:08:29Z</time>
      </trkpt>
      <trkpt lat="43.58845" lon="3.30407">
        <ele>412.6</ele>
        <time>2017-11-19T08:08:31Z</time>
      </trkpt>
      <trkpt lat="43.5884" lon="3.30402">
        <ele>412.9</ele>
        <time>2017-11-19T08:08:33Z</time>
      </trkpt>
      <trkpt lat="43.58838" lon="3.30399">
        <ele>412.9</ele>
        <time>2017-11-19T08:08:34Z</time>
      </trkpt>
      <trkpt lat="43.58835" lon="3.30395">
        <ele>412.9</ele>
        <time>2017-11-19T08:08:35Z</time>
      </trkpt>
      <trkpt lat="43.58831" lon="3.3039">
        <ele>412.8</ele>
        <time>2017-11-19T08:08:37Z</time>
      </trkpt>
      <trkpt lat="43.58829" lon="3.30388">
        <ele>412.8</ele>
        <time>2017-11-19T08:08:38Z</time>
      </trkpt>
      <trkpt lat="43.58827" lon="3.30385">
        <ele>412.7</ele>
        <time>2017-11-19T08:08:39Z</time>
      </trkpt>
      <trkpt lat="43.58825" lon="3.30383">
        <ele>412.8</ele>
        <time>2017-11-19T08:08:40Z</time>
      </trkpt>
      <trkpt lat="43.58823" lon="3.3038">
        <ele>412.8</ele>
        <time>2017-11-19T08:08:41Z</time>
      </trkpt>
      <trkpt lat="43.58818" lon="3.30376">
        <ele>413</ele>
        <time>2017-11-19T08:08:43Z</time>
      </trkpt>
      <trkpt lat="43.58814" lon="3.30373">
        <ele>413.3</ele>
        <time>2017-11-19T08:08:45Z</time>
      </trkpt>
      <trkpt lat="43.5881" lon="3.3037">
        <ele>413.7</ele>
        <time>2017-11-19T08:08:47Z</time>
      </trkpt>
      <trkpt lat="43.58807" lon="3.30366">
        <ele>413.9</ele>
        <time>2017-11-19T08:08:49Z</time>
      </trkpt>
      <trkpt lat="43.58803" lon="3.30362">
        <ele>413.9</ele>
        <time>2017-11-19T08:08:51Z</time>
      </trkpt>
      <trkpt lat="43.58798" lon="3.30359">
        <ele>413.9</ele>
        <time>2017-11-19T08:08:53Z</time>
      </trkpt>
      <trkpt lat="43.58796" lon="3.30356">
        <ele>413.9</ele>
        <time>2017-11-19T08:08:54Z</time>
      </trkpt>
      <trkpt lat="43.58794" lon="3.30353">
        <ele>413.8</ele>
        <time>2017-11-19T08:08:55Z</time>
      </trkpt>
      <trkpt lat="43.58791" lon="3.30348">
        <ele>413.8</ele>
        <time>2017-11-19T08:08:57Z</time>
      </trkpt>
      <trkpt lat="43.58788" lon="3.30343">
        <ele>414</ele>
        <time>2017-11-19T08:08:59Z</time>
      </trkpt>
      <trkpt lat="43.58786" lon="3.30339">
        <ele>414.2</ele>
        <time>2017-11-19T08:09:00Z</time>
      </trkpt>
      <trkpt lat="43.58785" lon="3.30335">
        <ele>414.5</ele>
        <time>2017-11-19T08:09:01Z</time>
      </trkpt>
      <trkpt lat="43.58783" lon="3.3033">
        <ele>414.8</ele>
        <time>2017-11-19T08:09:02Z</time>
      </trkpt>
      <trkpt lat="43.58782" lon="3.30326">
        <ele>415</ele>
        <time>2017-11-19T08:09:03Z</time>
      </trkpt>
      <trkpt lat="43.5878" lon="3.30322">
        <ele>415.1</ele>
        <time>2017-11-19T08:09:04Z</time>
      </trkpt>
      <trkpt lat="43.5878" lon="3.30315">
        <ele>415.2</ele>
        <time>2017-11-19T08:09:06Z</time>
      </trkpt>
      <trkpt lat="43.58779" lon="3.30309">
        <ele>415.1</ele>
        <time>2017-11-19T08:09:08Z</time>
      </trkpt>
      <trkpt lat="43.58779" lon="3.30304">
        <ele>415.2</ele>
        <time>2017-11-19T08:09:09Z</time>
      </trkpt>
      <trkpt lat="43.58779" lon="3.303">
        <ele>415.2</ele>
        <time>2017-11-19T08:09:10Z</time>
      </trkpt>
      <trkpt lat="43.58778" lon="3.30295">
        <ele>415.4</ele>
        <time>2017-11-19T08:09:11Z</time>
      </trkpt>
      <trkpt lat="43.58778" lon="3.30291">
        <ele>415.6</ele>
        <time>2017-11-19T08:09:12Z</time>
      </trkpt>
      <trkpt lat="43.58776" lon="3.30285">
        <ele>416</ele>
        <time>2017-11-19T08:09:14Z</time>
      </trkpt>
      <trkpt lat="43.58775" lon="3.3028">
        <ele>416.3</ele>
        <time>2017-11-19T08:09:15Z</time>
      </trkpt>
      <trkpt lat="43.58774" lon="3.30276">
        <ele>416.5</ele>
        <time>2017-11-19T08:09:16Z</time>
      </trkpt>
      <trkpt lat="43.58773" lon="3.30272">
        <ele>416.5</ele>
        <time>2017-11-19T08:09:17Z</time>
      </trkpt>
      <trkpt lat="43.58772" lon="3.30269">
        <ele>416.6</ele>
        <time>2017-11-19T08:09:18Z</time>
      </trkpt>
      <trkpt lat="43.58769" lon="3.30262">
        <ele>416.5</ele>
        <time>2017-11-19T08:09:20Z</time>
      </trkpt>
      <trkpt lat="43.58766" lon="3.30257">
        <ele>416.4</ele>
        <time>2017-11-19T08:09:22Z</time>
      </trkpt>
      <trkpt lat="43.58764" lon="3.30253">
        <ele>416.4</ele>
        <time>2017-11-19T08:09:23Z</time>
      </trkpt>
      <trkpt lat="43.58762" lon="3.30247">
        <ele>416.3</ele>
        <time>2017-11-19T08:09:24Z</time>
      </trkpt>
      <trkpt lat="43.5876" lon="3.30244">
        <ele>416.2</ele>
        <time>2017-11-19T08:09:25Z</time>
      </trkpt>
      <trkpt lat="43.58758" lon="3.30241">
        <ele>416.1</ele>
        <time>2017-11-19T08:09:26Z</time>
      </trkpt>
      <trkpt lat="43.58756" lon="3.30238">
        <ele>416.1</ele>
        <time>2017-11-19T08:09:27Z</time>
      </trkpt>
      <trkpt lat="43.58755" lon="3.30235">
        <ele>416.1</ele>
        <time>2017-11-19T08:09:28Z</time>
      </trkpt>
      <trkpt lat="43.58753" lon="3.30231">
        <ele>416.1</ele>
        <time>2017-11-19T08:09:29Z</time>
      </trkpt>
      <trkpt lat="43.5875" lon="3.30226">
        <ele>416.2</ele>
        <time>2017-11-19T08:09:31Z</time>
      </trkpt>
      <trkpt lat="43.58746" lon="3.30219">
        <ele>416.6</ele>
        <time>2017-11-19T08:09:33Z</time>
      </trkpt>
      <trkpt lat="43.58745" lon="3.30215">
        <ele>416.8</ele>
        <time>2017-11-19T08:09:34Z</time>
      </trkpt>
      <trkpt lat="43.58741" lon="3.3021">
        <ele>417.1</ele>
        <time>2017-11-19T08:09:36Z</time>
      </trkpt>
      <trkpt lat="43.58738" lon="3.30206">
        <ele>417.3</ele>
        <time>2017-11-19T08:09:38Z</time>
      </trkpt>
      <trkpt lat="43.58734" lon="3.30201">
        <ele>417.4</ele>
        <time>2017-11-19T08:09:40Z</time>
      </trkpt>
      <trkpt lat="43.58731" lon="3.30196">
        <ele>417.5</ele>
        <time>2017-11-19T08:09:42Z</time>
      </trkpt>
      <trkpt lat="43.58728" lon="3.30191">
        <ele>417.8</ele>
        <time>2017-11-19T08:09:44Z</time>
      </trkpt>
      <trkpt lat="43.58725" lon="3.30186">
        <ele>418.2</ele>
        <time>2017-11-19T08:09:46Z</time>
      </trkpt>
      <trkpt lat="43.58722" lon="3.30181">
        <ele>418.6</ele>
        <time>2017-11-19T08:09:48Z</time>
      </trkpt>
      <trkpt lat="43.58719" lon="3.30176">
        <ele>418.9</ele>
        <time>2017-11-19T08:09:50Z</time>
      </trkpt>
      <trkpt lat="43.58716" lon="3.3017">
        <ele>419</ele>
        <time>2017-11-19T08:09:52Z</time>
      </trkpt>
      <trkpt lat="43.58713" lon="3.30166">
        <ele>419.2</ele>
        <time>2017-11-19T08:09:54Z</time>
      </trkpt>
      <trkpt lat="43.58708" lon="3.30163">
        <ele>419.4</ele>
        <time>2017-11-19T08:09:56Z</time>
      </trkpt>
      <trkpt lat="43.58705" lon="3.30161">
        <ele>419.6</ele>
        <time>2017-11-19T08:09:58Z</time>
      </trkpt>
      <trkpt lat="43.58701" lon="3.30161">
        <ele>419.9</ele>
        <time>2017-11-19T08:10:01Z</time>
      </trkpt>
      <trkpt lat="43.58696" lon="3.3016">
        <ele>420.2</ele>
        <time>2017-11-19T08:10:03Z</time>
      </trkpt>
      <trkpt lat="43.58692" lon="3.30158">
        <ele>420.4</ele>
        <time>2017-11-19T08:10:04Z</time>
      </trkpt>
      <trkpt lat="43.58688" lon="3.30156">
        <ele>420.4</ele>
        <time>2017-11-19T08:10:05Z</time>
      </trkpt>
      <trkpt lat="43.58684" lon="3.30154">
        <ele>420.4</ele>
        <time>2017-11-19T08:10:06Z</time>
      </trkpt>
      <trkpt lat="43.58681" lon="3.30154">
        <ele>420.4</ele>
        <time>2017-11-19T08:10:07Z</time>
      </trkpt>
      <trkpt lat="43.58676" lon="3.30152">
        <ele>420.5</ele>
        <time>2017-11-19T08:10:09Z</time>
      </trkpt>
      <trkpt lat="43.58674" lon="3.3015">
        <ele>420.7</ele>
        <time>2017-11-19T08:10:10Z</time>
      </trkpt>
      <trkpt lat="43.5867" lon="3.3015">
        <ele>421</ele>
        <time>2017-11-19T08:10:12Z</time>
      </trkpt>
      <trkpt lat="43.58665" lon="3.3015">
        <ele>421.4</ele>
        <time>2017-11-19T08:10:14Z</time>
      </trkpt>
      <trkpt lat="43.5866" lon="3.3015">
        <ele>421.7</ele>
        <time>2017-11-19T08:10:16Z</time>
      </trkpt>
      <trkpt lat="43.58657" lon="3.3015">
        <ele>421.8</ele>
        <time>2017-11-19T08:10:17Z</time>
      </trkpt>
      <trkpt lat="43.58655" lon="3.3015">
        <ele>421.8</ele>
        <time>2017-11-19T08:10:18Z</time>
      </trkpt>
      <trkpt lat="43.58652" lon="3.30149">
        <ele>421.8</ele>
        <time>2017-11-19T08:10:19Z</time>
      </trkpt>
      <trkpt lat="43.58649" lon="3.30147">
        <ele>421.8</ele>
        <time>2017-11-19T08:10:20Z</time>
      </trkpt>
      <trkpt lat="43.58645" lon="3.30142">
        <ele>421.8</ele>
        <time>2017-11-19T08:10:22Z</time>
      </trkpt>
      <trkpt lat="43.58642" lon="3.30136">
        <ele>423</ele>
        <time>2017-11-19T08:10:24Z</time>
      </trkpt>
      <trkpt lat="43.58642" lon="3.3013">
        <ele>420.7</ele>
        <time>2017-11-19T08:10:26Z</time>
      </trkpt>
      <trkpt lat="43.58642" lon="3.30123">
        <ele>420.5</ele>
        <time>2017-11-19T08:10:28Z</time>
      </trkpt>
      <trkpt lat="43.58644" lon="3.30117">
        <ele>420.4</ele>
        <time>2017-11-19T08:10:30Z</time>
      </trkpt>
      <trkpt lat="43.58645" lon="3.30111">
        <ele>420.3</ele>
        <time>2017-11-19T08:10:32Z</time>
      </trkpt>
      <trkpt lat="43.58647" lon="3.30104">
        <ele>420.2</ele>
        <time>2017-11-19T08:10:34Z</time>
      </trkpt>
      <trkpt lat="43.58648" lon="3.30101">
        <ele>420.1</ele>
        <time>2017-11-19T08:10:35Z</time>
      </trkpt>
      <trkpt lat="43.58648" lon="3.30096">
        <ele>420.1</ele>
        <time>2017-11-19T08:10:36Z</time>
      </trkpt>
      <trkpt lat="43.58649" lon="3.30092">
        <ele>420</ele>
        <time>2017-11-19T08:10:37Z</time>
      </trkpt>
      <trkpt lat="43.58649" lon="3.30088">
        <ele>419.9</ele>
        <time>2017-11-19T08:10:38Z</time>
      </trkpt>
      <trkpt lat="43.58651" lon="3.30083">
        <ele>419.8</ele>
        <time>2017-11-19T08:10:40Z</time>
      </trkpt>
      <trkpt lat="43.58654" lon="3.30079">
        <ele>419.8</ele>
        <time>2017-11-19T08:10:42Z</time>
      </trkpt>
      <trkpt lat="43.58656" lon="3.30075">
        <ele>419.7</ele>
        <time>2017-11-19T08:10:44Z</time>
      </trkpt>
      <trkpt lat="43.58659" lon="3.30071">
        <ele>419.8</ele>
        <time>2017-11-19T08:10:46Z</time>
      </trkpt>
      <trkpt lat="43.58662" lon="3.30066">
        <ele>419.9</ele>
        <time>2017-11-19T08:10:48Z</time>
      </trkpt>
      <trkpt lat="43.58666" lon="3.30062">
        <ele>420.3</ele>
        <time>2017-11-19T08:10:50Z</time>
      </trkpt>
      <trkpt lat="43.58668" lon="3.30059">
        <ele>420.5</ele>
        <time>2017-11-19T08:10:52Z</time>
      </trkpt>
      <trkpt lat="43.58672" lon="3.30057">
        <ele>420.8</ele>
        <time>2017-11-19T08:10:54Z</time>
      </trkpt>
      <trkpt lat="43.58675" lon="3.30055">
        <ele>421</ele>
        <time>2017-11-19T08:10:55Z</time>
      </trkpt>
      <trkpt lat="43.58678" lon="3.30053">
        <ele>421.2</ele>
        <time>2017-11-19T08:10:56Z</time>
      </trkpt>
      <trkpt lat="43.58681" lon="3.30052">
        <ele>421.4</ele>
        <time>2017-11-19T08:10:57Z</time>
      </trkpt>
      <trkpt lat="43.58685" lon="3.3005">
        <ele>421.9</ele>
        <time>2017-11-19T08:10:59Z</time>
      </trkpt>
      <trkpt lat="43.5869" lon="3.30047">
        <ele>422.4</ele>
        <time>2017-11-19T08:11:01Z</time>
      </trkpt>
      <trkpt lat="43.58694" lon="3.30045">
        <ele>422.6</ele>
        <time>2017-11-19T08:11:03Z</time>
      </trkpt>
      <trkpt lat="43.58698" lon="3.30043">
        <ele>422.7</ele>
        <time>2017-11-19T08:11:05Z</time>
      </trkpt>
      <trkpt lat="43.58702" lon="3.30041">
        <ele>422.7</ele>
        <time>2017-11-19T08:11:07Z</time>
      </trkpt>
      <trkpt lat="43.58706" lon="3.30039">
        <ele>422.6</ele>
        <time>2017-11-19T08:11:09Z</time>
      </trkpt>
      <trkpt lat="43.5871" lon="3.30037">
        <ele>422.6</ele>
        <time>2017-11-19T08:11:11Z</time>
      </trkpt>
      <trkpt lat="43.58714" lon="3.30036">
        <ele>422.8</ele>
        <time>2017-11-19T08:11:12Z</time>
      </trkpt>
      <trkpt lat="43.58719" lon="3.30034">
        <ele>423.3</ele>
        <time>2017-11-19T08:11:14Z</time>
      </trkpt>
      <trkpt lat="43.58722" lon="3.30034">
        <ele>423.5</ele>
        <time>2017-11-19T08:11:15Z</time>
      </trkpt>
      <trkpt lat="43.58728" lon="3.30033">
        <ele>423.8</ele>
        <time>2017-11-19T08:11:16Z</time>
      </trkpt>
      <trkpt lat="43.58732" lon="3.30032">
        <ele>423.8</ele>
        <time>2017-11-19T08:11:17Z</time>
      </trkpt>
      <trkpt lat="43.58735" lon="3.30031">
        <ele>423.9</ele>
        <time>2017-11-19T08:11:18Z</time>
      </trkpt>
      <trkpt lat="43.58738" lon="3.3003">
        <ele>423.9</ele>
        <time>2017-11-19T08:11:19Z</time>
      </trkpt>
      <trkpt lat="43.58741" lon="3.30029">
        <ele>424</ele>
        <time>2017-11-19T08:11:20Z</time>
      </trkpt>
      <trkpt lat="43.58745" lon="3.30026">
        <ele>424.3</ele>
        <time>2017-11-19T08:11:21Z</time>
      </trkpt>
      <trkpt lat="43.58748" lon="3.30023">
        <ele>424.5</ele>
        <time>2017-11-19T08:11:22Z</time>
      </trkpt>
      <trkpt lat="43.5875" lon="3.3002">
        <ele>424.7</ele>
        <time>2017-11-19T08:11:23Z</time>
      </trkpt>
      <trkpt lat="43.58754" lon="3.30017">
        <ele>424.9</ele>
        <time>2017-11-19T08:11:24Z</time>
      </trkpt>
      <trkpt lat="43.58756" lon="3.30014">
        <ele>425</ele>
        <time>2017-11-19T08:11:25Z</time>
      </trkpt>
      <trkpt lat="43.58759" lon="3.30011">
        <ele>425.1</ele>
        <time>2017-11-19T08:11:26Z</time>
      </trkpt>
      <trkpt lat="43.58761" lon="3.30008">
        <ele>425.1</ele>
        <time>2017-11-19T08:11:27Z</time>
      </trkpt>
      <trkpt lat="43.58763" lon="3.30005">
        <ele>425.1</ele>
        <time>2017-11-19T08:11:28Z</time>
      </trkpt>
      <trkpt lat="43.58766" lon="3.30002">
        <ele>425.1</ele>
        <time>2017-11-19T08:11:29Z</time>
      </trkpt>
      <trkpt lat="43.58768" lon="3.29999">
        <ele>425.1</ele>
        <time>2017-11-19T08:11:30Z</time>
      </trkpt>
      <trkpt lat="43.58771" lon="3.29993">
        <ele>425</ele>
        <time>2017-11-19T08:11:32Z</time>
      </trkpt>
      <trkpt lat="43.58773" lon="3.2999">
        <ele>424.9</ele>
        <time>2017-11-19T08:11:33Z</time>
      </trkpt>
      <trkpt lat="43.58774" lon="3.29987">
        <ele>424.9</ele>
        <time>2017-11-19T08:11:34Z</time>
      </trkpt>
      <trkpt lat="43.58776" lon="3.29984">
        <ele>424.8</ele>
        <time>2017-11-19T08:11:35Z</time>
      </trkpt>
      <trkpt lat="43.58778" lon="3.29978">
        <ele>424.7</ele>
        <time>2017-11-19T08:11:37Z</time>
      </trkpt>
      <trkpt lat="43.5878" lon="3.29973">
        <ele>424.7</ele>
        <time>2017-11-19T08:11:38Z</time>
      </trkpt>
      <trkpt lat="43.58782" lon="3.29968">
        <ele>424.7</ele>
        <time>2017-11-19T08:11:39Z</time>
      </trkpt>
      <trkpt lat="43.58783" lon="3.29963">
        <ele>424.8</ele>
        <time>2017-11-19T08:11:40Z</time>
      </trkpt>
      <trkpt lat="43.58784" lon="3.2996">
        <ele>425</ele>
        <time>2017-11-19T08:11:41Z</time>
      </trkpt>
      <trkpt lat="43.58785" lon="3.29952">
        <ele>425.3</ele>
        <time>2017-11-19T08:11:43Z</time>
      </trkpt>
      <trkpt lat="43.58785" lon="3.29949">
        <ele>425.5</ele>
        <time>2017-11-19T08:11:44Z</time>
      </trkpt>
      <trkpt lat="43.58785" lon="3.29945">
        <ele>425.7</ele>
        <time>2017-11-19T08:11:45Z</time>
      </trkpt>
      <trkpt lat="43.58786" lon="3.29938">
        <ele>426</ele>
        <time>2017-11-19T08:11:47Z</time>
      </trkpt>
      <trkpt lat="43.58787" lon="3.29934">
        <ele>426.1</ele>
        <time>2017-11-19T08:11:48Z</time>
      </trkpt>
      <trkpt lat="43.58787" lon="3.2993">
        <ele>426.1</ele>
        <time>2017-11-19T08:11:49Z</time>
      </trkpt>
      <trkpt lat="43.58788" lon="3.29926">
        <ele>426.1</ele>
        <time>2017-11-19T08:11:50Z</time>
      </trkpt>
      <trkpt lat="43.58788" lon="3.29922">
        <ele>426.1</ele>
        <time>2017-11-19T08:11:51Z</time>
      </trkpt>
      <trkpt lat="43.58789" lon="3.29918">
        <ele>426</ele>
        <time>2017-11-19T08:11:52Z</time>
      </trkpt>
      <trkpt lat="43.58789" lon="3.29914">
        <ele>426</ele>
        <time>2017-11-19T08:11:53Z</time>
      </trkpt>
      <trkpt lat="43.58789" lon="3.2991">
        <ele>426</ele>
        <time>2017-11-19T08:11:54Z</time>
      </trkpt>
      <trkpt lat="43.58786" lon="3.29903">
        <ele>426</ele>
        <time>2017-11-19T08:11:56Z</time>
      </trkpt>
      <trkpt lat="43.58785" lon="3.29899">
        <ele>426.7</ele>
        <time>2017-11-19T08:11:57Z</time>
      </trkpt>
      <trkpt lat="43.58783" lon="3.29896">
        <ele>427.4</ele>
        <time>2017-11-19T08:11:58Z</time>
      </trkpt>
      <trkpt lat="43.58781" lon="3.29893">
        <ele>428.1</ele>
        <time>2017-11-19T08:11:59Z</time>
      </trkpt>
      <trkpt lat="43.58779" lon="3.2989">
        <ele>428.7</ele>
        <time>2017-11-19T08:12:00Z</time>
      </trkpt>
      <trkpt lat="43.58777" lon="3.29888">
        <ele>429.1</ele>
        <time>2017-11-19T08:12:01Z</time>
      </trkpt>
      <trkpt lat="43.58775" lon="3.29886">
        <ele>429.6</ele>
        <time>2017-11-19T08:12:02Z</time>
      </trkpt>
      <trkpt lat="43.5877" lon="3.29882">
        <ele>430.4</ele>
        <time>2017-11-19T08:12:04Z</time>
      </trkpt>
      <trkpt lat="43.58765" lon="3.2988">
        <ele>431.3</ele>
        <time>2017-11-19T08:12:06Z</time>
      </trkpt>
      <trkpt lat="43.58759" lon="3.2988">
        <ele>432.1</ele>
        <time>2017-11-19T08:12:08Z</time>
      </trkpt>
      <trkpt lat="43.58754" lon="3.2988">
        <ele>433.3</ele>
        <time>2017-11-19T08:12:10Z</time>
      </trkpt>
      <trkpt lat="43.58749" lon="3.29882">
        <ele>434.5</ele>
        <time>2017-11-19T08:12:12Z</time>
      </trkpt>
      <trkpt lat="43.58744" lon="3.29883">
        <ele>435.6</ele>
        <time>2017-11-19T08:12:14Z</time>
      </trkpt>
      <trkpt lat="43.5874" lon="3.29883">
        <ele>436.6</ele>
        <time>2017-11-19T08:12:16Z</time>
      </trkpt>
      <trkpt lat="43.58735" lon="3.29884">
        <ele>437.6</ele>
        <time>2017-11-19T08:12:18Z</time>
      </trkpt>
      <trkpt lat="43.5873" lon="3.29885">
        <ele>438.1</ele>
        <time>2017-11-19T08:12:20Z</time>
      </trkpt>
      <trkpt lat="43.58725" lon="3.29886">
        <ele>438.8</ele>
        <time>2017-11-19T08:12:22Z</time>
      </trkpt>
      <trkpt lat="43.58722" lon="3.29886">
        <ele>439.2</ele>
        <time>2017-11-19T08:12:23Z</time>
      </trkpt>
      <trkpt lat="43.58718" lon="3.29888">
        <ele>439.5</ele>
        <time>2017-11-19T08:12:25Z</time>
      </trkpt>
      <trkpt lat="43.58714" lon="3.29888">
        <ele>439.8</ele>
        <time>2017-11-19T08:12:27Z</time>
      </trkpt>
      <trkpt lat="43.58709" lon="3.29888">
        <ele>440.2</ele>
        <time>2017-11-19T08:12:29Z</time>
      </trkpt>
      <trkpt lat="43.58704" lon="3.29887">
        <ele>440.5</ele>
        <time>2017-11-19T08:12:31Z</time>
      </trkpt>
      <trkpt lat="43.58701" lon="3.29887">
        <ele>440.7</ele>
        <time>2017-11-19T08:12:32Z</time>
      </trkpt>
      <trkpt lat="43.58696" lon="3.29887">
        <ele>441.1</ele>
        <time>2017-11-19T08:12:34Z</time>
      </trkpt>
      <trkpt lat="43.58691" lon="3.29886">
        <ele>441.5</ele>
        <time>2017-11-19T08:12:36Z</time>
      </trkpt>
      <trkpt lat="43.58686" lon="3.29887">
        <ele>441.9</ele>
        <time>2017-11-19T08:12:38Z</time>
      </trkpt>
      <trkpt lat="43.58682" lon="3.29887">
        <ele>442.2</ele>
        <time>2017-11-19T08:12:40Z</time>
      </trkpt>
      <trkpt lat="43.58677" lon="3.29887">
        <ele>442.6</ele>
        <time>2017-11-19T08:12:42Z</time>
      </trkpt>
      <trkpt lat="43.58672" lon="3.29887">
        <ele>442.9</ele>
        <time>2017-11-19T08:12:44Z</time>
      </trkpt>
      <trkpt lat="43.58667" lon="3.29888">
        <ele>443.3</ele>
        <time>2017-11-19T08:12:46Z</time>
      </trkpt>
      <trkpt lat="43.58665" lon="3.29888">
        <ele>443.4</ele>
        <time>2017-11-19T08:12:47Z</time>
      </trkpt>
      <trkpt lat="43.5866" lon="3.29889">
        <ele>443.7</ele>
        <time>2017-11-19T08:12:49Z</time>
      </trkpt>
      <trkpt lat="43.58656" lon="3.29889">
        <ele>444</ele>
        <time>2017-11-19T08:12:51Z</time>
      </trkpt>
      <trkpt lat="43.58651" lon="3.2989">
        <ele>444.4</ele>
        <time>2017-11-19T08:12:53Z</time>
      </trkpt>
      <trkpt lat="43.58646" lon="3.29891">
        <ele>444.9</ele>
        <time>2017-11-19T08:12:55Z</time>
      </trkpt>
      <trkpt lat="43.58642" lon="3.29892">
        <ele>445.4</ele>
        <time>2017-11-19T08:12:57Z</time>
      </trkpt>
      <trkpt lat="43.58637" lon="3.29893">
        <ele>445.8</ele>
        <time>2017-11-19T08:12:59Z</time>
      </trkpt>
      <trkpt lat="43.58632" lon="3.29894">
        <ele>446.2</ele>
        <time>2017-11-19T08:13:01Z</time>
      </trkpt>
      <trkpt lat="43.58627" lon="3.29896">
        <ele>446.6</ele>
        <time>2017-11-19T08:13:03Z</time>
      </trkpt>
      <trkpt lat="43.58624" lon="3.29896">
        <ele>446.8</ele>
        <time>2017-11-19T08:13:04Z</time>
      </trkpt>
      <trkpt lat="43.58619" lon="3.29896">
        <ele>447.1</ele>
        <time>2017-11-19T08:13:06Z</time>
      </trkpt>
      <trkpt lat="43.58617" lon="3.29897">
        <ele>447.3</ele>
        <time>2017-11-19T08:13:08Z</time>
      </trkpt>
      <trkpt lat="43.58614" lon="3.29897">
        <ele>447.7</ele>
        <time>2017-11-19T08:14:39Z</time>
      </trkpt>
      <trkpt lat="43.58615" lon="3.29901">
        <ele>448</ele>
        <time>2017-11-19T08:14:42Z</time>
      </trkpt>
      <trkpt lat="43.58618" lon="3.29905">
        <ele>448.9</ele>
        <time>2017-11-19T08:14:44Z</time>
      </trkpt>
      <trkpt lat="43.58619" lon="3.29909">
        <ele>448.6</ele>
        <time>2017-11-19T08:14:46Z</time>
      </trkpt>
      <trkpt lat="43.5862" lon="3.29913">
        <ele>448.4</ele>
        <time>2017-11-19T08:14:48Z</time>
      </trkpt>
      <trkpt lat="43.58621" lon="3.29918">
        <ele>448.3</ele>
        <time>2017-11-19T08:14:50Z</time>
      </trkpt>
      <trkpt lat="43.5862" lon="3.29924">
        <ele>448</ele>
        <time>2017-11-19T08:14:52Z</time>
      </trkpt>
      <trkpt lat="43.58617" lon="3.29928">
        <ele>447.9</ele>
        <time>2017-11-19T08:14:54Z</time>
      </trkpt>
      <trkpt lat="43.58613" lon="3.2993">
        <ele>447.8</ele>
        <time>2017-11-19T08:14:56Z</time>
      </trkpt>
      <trkpt lat="43.58609" lon="3.29929">
        <ele>447.6</ele>
        <time>2017-11-19T08:14:58Z</time>
      </trkpt>
      <trkpt lat="43.58606" lon="3.29928">
        <ele>447.5</ele>
        <time>2017-11-19T08:15:01Z</time>
      </trkpt>
      <trkpt lat="43.58603" lon="3.29929">
        <ele>447.2</ele>
        <time>2017-11-19T08:15:03Z</time>
      </trkpt>
      <trkpt lat="43.58599" lon="3.29932">
        <ele>447.1</ele>
        <time>2017-11-19T08:15:05Z</time>
      </trkpt>
      <trkpt lat="43.58596" lon="3.29938">
        <ele>446.9</ele>
        <time>2017-11-19T08:15:07Z</time>
      </trkpt>
      <trkpt lat="43.58594" lon="3.29944">
        <ele>446.7</ele>
        <time>2017-11-19T08:15:09Z</time>
      </trkpt>
      <trkpt lat="43.58592" lon="3.2995">
        <ele>446.6</ele>
        <time>2017-11-19T08:15:11Z</time>
      </trkpt>
      <trkpt lat="43.58589" lon="3.29956">
        <ele>446.4</ele>
        <time>2017-11-19T08:15:13Z</time>
      </trkpt>
      <trkpt lat="43.58587" lon="3.29962">
        <ele>446.2</ele>
        <time>2017-11-19T08:15:15Z</time>
      </trkpt>
      <trkpt lat="43.58585" lon="3.29966">
        <ele>446.1</ele>
        <time>2017-11-19T08:15:16Z</time>
      </trkpt>
      <trkpt lat="43.58583" lon="3.29968">
        <ele>446</ele>
        <time>2017-11-19T08:15:17Z</time>
      </trkpt>
      <trkpt lat="43.58582" lon="3.29972">
        <ele>446</ele>
        <time>2017-11-19T08:15:18Z</time>
      </trkpt>
      <trkpt lat="43.58581" lon="3.29976">
        <ele>445.9</ele>
        <time>2017-11-19T08:15:19Z</time>
      </trkpt>
      <trkpt lat="43.58579" lon="3.29981">
        <ele>445.8</ele>
        <time>2017-11-19T08:15:20Z</time>
      </trkpt>
      <trkpt lat="43.58578" lon="3.29985">
        <ele>445.8</ele>
        <time>2017-11-19T08:15:21Z</time>
      </trkpt>
      <trkpt lat="43.58577" lon="3.29989">
        <ele>445.7</ele>
        <time>2017-11-19T08:15:22Z</time>
      </trkpt>
      <trkpt lat="43.58576" lon="3.29993">
        <ele>445.6</ele>
        <time>2017-11-19T08:15:23Z</time>
      </trkpt>
      <trkpt lat="43.58575" lon="3.29998">
        <ele>445.5</ele>
        <time>2017-11-19T08:15:24Z</time>
      </trkpt>
      <trkpt lat="43.58573" lon="3.30003">
        <ele>445.4</ele>
        <time>2017-11-19T08:15:25Z</time>
      </trkpt>
      <trkpt lat="43.58571" lon="3.30009">
        <ele>445.3</ele>
        <time>2017-11-19T08:15:26Z</time>
      </trkpt>
      <trkpt lat="43.58569" lon="3.30014">
        <ele>445.3</ele>
        <time>2017-11-19T08:15:27Z</time>
      </trkpt>
      <trkpt lat="43.58567" lon="3.30017">
        <ele>445.2</ele>
        <time>2017-11-19T08:15:28Z</time>
      </trkpt>
      <trkpt lat="43.58564" lon="3.30022">
        <ele>445.2</ele>
        <time>2017-11-19T08:15:29Z</time>
      </trkpt>
      <trkpt lat="43.58562" lon="3.30027">
        <ele>445.1</ele>
        <time>2017-11-19T08:15:30Z</time>
      </trkpt>
      <trkpt lat="43.58561" lon="3.30031">
        <ele>445.1</ele>
        <time>2017-11-19T08:15:31Z</time>
      </trkpt>
      <trkpt lat="43.58559" lon="3.30035">
        <ele>445</ele>
        <time>2017-11-19T08:15:32Z</time>
      </trkpt>
      <trkpt lat="43.58558" lon="3.30039">
        <ele>445</ele>
        <time>2017-11-19T08:15:33Z</time>
      </trkpt>
      <trkpt lat="43.58556" lon="3.30044">
        <ele>444.9</ele>
        <time>2017-11-19T08:15:34Z</time>
      </trkpt>
      <trkpt lat="43.58553" lon="3.30048">
        <ele>444.9</ele>
        <time>2017-11-19T08:15:35Z</time>
      </trkpt>
      <trkpt lat="43.58551" lon="3.30052">
        <ele>444.8</ele>
        <time>2017-11-19T08:15:36Z</time>
      </trkpt>
      <trkpt lat="43.58549" lon="3.30054">
        <ele>444.8</ele>
        <time>2017-11-19T08:15:37Z</time>
      </trkpt>
      <trkpt lat="43.58547" lon="3.30057">
        <ele>444.7</ele>
        <time>2017-11-19T08:15:38Z</time>
      </trkpt>
      <trkpt lat="43.58544" lon="3.30061">
        <ele>444.7</ele>
        <time>2017-11-19T08:15:39Z</time>
      </trkpt>
      <trkpt lat="43.58542" lon="3.30066">
        <ele>444.6</ele>
        <time>2017-11-19T08:15:40Z</time>
      </trkpt>
      <trkpt lat="43.58539" lon="3.30071">
        <ele>444.5</ele>
        <time>2017-11-19T08:15:41Z</time>
      </trkpt>
      <trkpt lat="43.58536" lon="3.30076">
        <ele>444.5</ele>
        <time>2017-11-19T08:15:42Z</time>
      </trkpt>
      <trkpt lat="43.58534" lon="3.3008">
        <ele>444.4</ele>
        <time>2017-11-19T08:15:43Z</time>
      </trkpt>
      <trkpt lat="43.58531" lon="3.30085">
        <ele>444.3</ele>
        <time>2017-11-19T08:15:44Z</time>
      </trkpt>
      <trkpt lat="43.58528" lon="3.3009">
        <ele>444.2</ele>
        <time>2017-11-19T08:15:45Z</time>
      </trkpt>
      <trkpt lat="43.58525" lon="3.30097">
        <ele>444.1</ele>
        <time>2017-11-19T08:15:46Z</time>
      </trkpt>
      <trkpt lat="43.58522" lon="3.30104">
        <ele>443.9</ele>
        <time>2017-11-19T08:15:47Z</time>
      </trkpt>
      <trkpt lat="43.58518" lon="3.3011">
        <ele>443.8</ele>
        <time>2017-11-19T08:15:48Z</time>
      </trkpt>
      <trkpt lat="43.58515" lon="3.30116">
        <ele>443.6</ele>
        <time>2017-11-19T08:15:49Z</time>
      </trkpt>
      <trkpt lat="43.5851" lon="3.30124">
        <ele>443.4</ele>
        <time>2017-11-19T08:15:50Z</time>
      </trkpt>
      <trkpt lat="43.58506" lon="3.30129">
        <ele>443.3</ele>
        <time>2017-11-19T08:15:51Z</time>
      </trkpt>
      <trkpt lat="43.58502" lon="3.30135">
        <ele>443.2</ele>
        <time>2017-11-19T08:15:52Z</time>
      </trkpt>
      <trkpt lat="43.58497" lon="3.30141">
        <ele>443.1</ele>
        <time>2017-11-19T08:15:53Z</time>
      </trkpt>
      <trkpt lat="43.58494" lon="3.30145">
        <ele>443</ele>
        <time>2017-11-19T08:15:54Z</time>
      </trkpt>
      <trkpt lat="43.5849" lon="3.30152">
        <ele>442.8</ele>
        <time>2017-11-19T08:15:55Z</time>
      </trkpt>
      <trkpt lat="43.58485" lon="3.30159">
        <ele>442.6</ele>
        <time>2017-11-19T08:15:56Z</time>
      </trkpt>
      <trkpt lat="43.58481" lon="3.30166">
        <ele>442.3</ele>
        <time>2017-11-19T08:15:57Z</time>
      </trkpt>
      <trkpt lat="43.58476" lon="3.30173">
        <ele>442</ele>
        <time>2017-11-19T08:15:58Z</time>
      </trkpt>
      <trkpt lat="43.58472" lon="3.3018">
        <ele>441.6</ele>
        <time>2017-11-19T08:15:59Z</time>
      </trkpt>
      <trkpt lat="43.58467" lon="3.30187">
        <ele>441.2</ele>
        <time>2017-11-19T08:16:00Z</time>
      </trkpt>
      <trkpt lat="43.58462" lon="3.30192">
        <ele>440.5</ele>
        <time>2017-11-19T08:16:01Z</time>
      </trkpt>
      <trkpt lat="43.58457" lon="3.30197">
        <ele>439.8</ele>
        <time>2017-11-19T08:16:02Z</time>
      </trkpt>
      <trkpt lat="43.58451" lon="3.30202">
        <ele>439.2</ele>
        <time>2017-11-19T08:16:03Z</time>
      </trkpt>
      <trkpt lat="43.58446" lon="3.30206">
        <ele>438.8</ele>
        <time>2017-11-19T08:16:04Z</time>
      </trkpt>
      <trkpt lat="43.5844" lon="3.30209">
        <ele>438.6</ele>
        <time>2017-11-19T08:16:05Z</time>
      </trkpt>
      <trkpt lat="43.58434" lon="3.30212">
        <ele>438.4</ele>
        <time>2017-11-19T08:16:06Z</time>
      </trkpt>
      <trkpt lat="43.58428" lon="3.30215">
        <ele>438.1</ele>
        <time>2017-11-19T08:16:07Z</time>
      </trkpt>
      <trkpt lat="43.58423" lon="3.30218">
        <ele>437.9</ele>
        <time>2017-11-19T08:16:08Z</time>
      </trkpt>
      <trkpt lat="43.58417" lon="3.3022">
        <ele>437.7</ele>
        <time>2017-11-19T08:16:09Z</time>
      </trkpt>
      <trkpt lat="43.58411" lon="3.30223">
        <ele>437.5</ele>
        <time>2017-11-19T08:16:10Z</time>
      </trkpt>
      <trkpt lat="43.58404" lon="3.30225">
        <ele>437.1</ele>
        <time>2017-11-19T08:16:11Z</time>
      </trkpt>
      <trkpt lat="43.58399" lon="3.30228">
        <ele>436.8</ele>
        <time>2017-11-19T08:16:12Z</time>
      </trkpt>
      <trkpt lat="43.58394" lon="3.30229">
        <ele>436.6</ele>
        <time>2017-11-19T08:16:13Z</time>
      </trkpt>
      <trkpt lat="43.58388" lon="3.30231">
        <ele>436.3</ele>
        <time>2017-11-19T08:16:14Z</time>
      </trkpt>
      <trkpt lat="43.58382" lon="3.30232">
        <ele>436.1</ele>
        <time>2017-11-19T08:16:15Z</time>
      </trkpt>
      <trkpt lat="43.58376" lon="3.30233">
        <ele>435.9</ele>
        <time>2017-11-19T08:16:16Z</time>
      </trkpt>
      <trkpt lat="43.58369" lon="3.30234">
        <ele>435.7</ele>
        <time>2017-11-19T08:16:17Z</time>
      </trkpt>
      <trkpt lat="43.58363" lon="3.30236">
        <ele>435.5</ele>
        <time>2017-11-19T08:16:18Z</time>
      </trkpt>
      <trkpt lat="43.58355" lon="3.30239">
        <ele>435.2</ele>
        <time>2017-11-19T08:16:19Z</time>
      </trkpt>
      <trkpt lat="43.58348" lon="3.30242">
        <ele>434.8</ele>
        <time>2017-11-19T08:16:20Z</time>
      </trkpt>
      <trkpt lat="43.58339" lon="3.30245">
        <ele>434.4</ele>
        <time>2017-11-19T08:16:21Z</time>
      </trkpt>
      <trkpt lat="43.58331" lon="3.30248">
        <ele>434</ele>
        <time>2017-11-19T08:16:22Z</time>
      </trkpt>
      <trkpt lat="43.58324" lon="3.30253">
        <ele>433.5</ele>
        <time>2017-11-19T08:16:23Z</time>
      </trkpt>
      <trkpt lat="43.58319" lon="3.30259">
        <ele>432.9</ele>
        <time>2017-11-19T08:16:24Z</time>
      </trkpt>
      <trkpt lat="43.58316" lon="3.30267">
        <ele>432.1</ele>
        <time>2017-11-19T08:16:25Z</time>
      </trkpt>
      <trkpt lat="43.58314" lon="3.30275">
        <ele>430.8</ele>
        <time>2017-11-19T08:16:26Z</time>
      </trkpt>
      <trkpt lat="43.58311" lon="3.30283">
        <ele>429.6</ele>
        <time>2017-11-19T08:16:27Z</time>
      </trkpt>
      <trkpt lat="43.58306" lon="3.30289">
        <ele>428.4</ele>
        <time>2017-11-19T08:16:28Z</time>
      </trkpt>
      <trkpt lat="43.58302" lon="3.30298">
        <ele>427</ele>
        <time>2017-11-19T08:16:29Z</time>
      </trkpt>
      <trkpt lat="43.58299" lon="3.30308">
        <ele>425.6</ele>
        <time>2017-11-19T08:16:30Z</time>
      </trkpt>
      <trkpt lat="43.583" lon="3.30318">
        <ele>424.3</ele>
        <time>2017-11-19T08:16:31Z</time>
      </trkpt>
      <trkpt lat="43.58302" lon="3.30327">
        <ele>422.9</ele>
        <time>2017-11-19T08:16:32Z</time>
      </trkpt>
      <trkpt lat="43.58305" lon="3.30338">
        <ele>421.7</ele>
        <time>2017-11-19T08:16:33Z</time>
      </trkpt>
      <trkpt lat="43.58305" lon="3.3035">
        <ele>420.4</ele>
        <time>2017-11-19T08:16:34Z</time>
      </trkpt>
      <trkpt lat="43.58304" lon="3.3036">
        <ele>419.3</ele>
        <time>2017-11-19T08:16:35Z</time>
      </trkpt>
      <trkpt lat="43.58303" lon="3.30372">
        <ele>418.2</ele>
        <time>2017-11-19T08:16:36Z</time>
      </trkpt>
      <trkpt lat="43.58302" lon="3.30384">
        <ele>417</ele>
        <time>2017-11-19T08:16:37Z</time>
      </trkpt>
      <trkpt lat="43.583" lon="3.30395">
        <ele>416</ele>
        <time>2017-11-19T08:16:38Z</time>
      </trkpt>
      <trkpt lat="43.583" lon="3.30405">
        <ele>415.1</ele>
        <time>2017-11-19T08:16:39Z</time>
      </trkpt>
      <trkpt lat="43.58299" lon="3.30416">
        <ele>414</ele>
        <time>2017-11-19T08:16:40Z</time>
      </trkpt>
      <trkpt lat="43.58299" lon="3.30426">
        <ele>413.2</ele>
        <time>2017-11-19T08:16:41Z</time>
      </trkpt>
      <trkpt lat="43.58297" lon="3.30437">
        <ele>412.1</ele>
        <time>2017-11-19T08:16:42Z</time>
      </trkpt>
      <trkpt lat="43.58297" lon="3.3045">
        <ele>411</ele>
        <time>2017-11-19T08:16:43Z</time>
      </trkpt>
      <trkpt lat="43.58297" lon="3.30462">
        <ele>410</ele>
        <time>2017-11-19T08:16:44Z</time>
      </trkpt>
      <trkpt lat="43.58298" lon="3.30472">
        <ele>409.1</ele>
        <time>2017-11-19T08:16:45Z</time>
      </trkpt>
      <trkpt lat="43.58299" lon="3.30481">
        <ele>408.4</ele>
        <time>2017-11-19T08:16:46Z</time>
      </trkpt>
      <trkpt lat="43.58299" lon="3.3049">
        <ele>407.7</ele>
        <time>2017-11-19T08:16:47Z</time>
      </trkpt>
      <trkpt lat="43.58302" lon="3.30498">
        <ele>407.1</ele>
        <time>2017-11-19T08:16:48Z</time>
      </trkpt>
      <trkpt lat="43.58303" lon="3.30506">
        <ele>406.3</ele>
        <time>2017-11-19T08:16:49Z</time>
      </trkpt>
      <trkpt lat="43.58304" lon="3.30515">
        <ele>405.5</ele>
        <time>2017-11-19T08:16:50Z</time>
      </trkpt>
      <trkpt lat="43.58306" lon="3.30524">
        <ele>405.1</ele>
        <time>2017-11-19T08:16:51Z</time>
      </trkpt>
      <trkpt lat="43.58307" lon="3.30532">
        <ele>404.8</ele>
        <time>2017-11-19T08:16:52Z</time>
      </trkpt>
      <trkpt lat="43.58308" lon="3.30541">
        <ele>404.5</ele>
        <time>2017-11-19T08:16:53Z</time>
      </trkpt>
      <trkpt lat="43.58308" lon="3.30549">
        <ele>404.3</ele>
        <time>2017-11-19T08:16:54Z</time>
      </trkpt>
      <trkpt lat="43.58308" lon="3.30556">
        <ele>404.1</ele>
        <time>2017-11-19T08:16:55Z</time>
      </trkpt>
      <trkpt lat="43.58308" lon="3.30564">
        <ele>403.9</ele>
        <time>2017-11-19T08:16:56Z</time>
      </trkpt>
      <trkpt lat="43.58306" lon="3.30572">
        <ele>403.8</ele>
        <time>2017-11-19T08:16:57Z</time>
      </trkpt>
      <trkpt lat="43.58305" lon="3.30579">
        <ele>403.7</ele>
        <time>2017-11-19T08:16:58Z</time>
      </trkpt>
      <trkpt lat="43.58302" lon="3.30584">
        <ele>403.6</ele>
        <time>2017-11-19T08:16:59Z</time>
      </trkpt>
      <trkpt lat="43.583" lon="3.3059">
        <ele>403.5</ele>
        <time>2017-11-19T08:17:00Z</time>
      </trkpt>
      <trkpt lat="43.58297" lon="3.30596">
        <ele>403.5</ele>
        <time>2017-11-19T08:17:01Z</time>
      </trkpt>
      <trkpt lat="43.58294" lon="3.30602">
        <ele>403.4</ele>
        <time>2017-11-19T08:17:02Z</time>
      </trkpt>
      <trkpt lat="43.58292" lon="3.30608">
        <ele>403.3</ele>
        <time>2017-11-19T08:17:03Z</time>
      </trkpt>
      <trkpt lat="43.5829" lon="3.30614">
        <ele>403.3</ele>
        <time>2017-11-19T08:17:04Z</time>
      </trkpt>
      <trkpt lat="43.58287" lon="3.3062">
        <ele>403.2</ele>
        <time>2017-11-19T08:17:05Z</time>
      </trkpt>
      <trkpt lat="43.58284" lon="3.30626">
        <ele>403.2</ele>
        <time>2017-11-19T08:17:06Z</time>
      </trkpt>
      <trkpt lat="43.58281" lon="3.30633">
        <ele>403.1</ele>
        <time>2017-11-19T08:17:07Z</time>
      </trkpt>
      <trkpt lat="43.58278" lon="3.3064">
        <ele>402.9</ele>
        <time>2017-11-19T08:17:08Z</time>
      </trkpt>
      <trkpt lat="43.58274" lon="3.3065">
        <ele>402.5</ele>
        <time>2017-11-19T08:17:09Z</time>
      </trkpt>
      <trkpt lat="43.58271" lon="3.3066">
        <ele>402.2</ele>
        <time>2017-11-19T08:17:10Z</time>
      </trkpt>
      <trkpt lat="43.58267" lon="3.30671">
        <ele>401.8</ele>
        <time>2017-11-19T08:17:11Z</time>
      </trkpt>
      <trkpt lat="43.58263" lon="3.30681">
        <ele>401.5</ele>
        <time>2017-11-19T08:17:12Z</time>
      </trkpt>
      <trkpt lat="43.58259" lon="3.30691">
        <ele>401.2</ele>
        <time>2017-11-19T08:17:13Z</time>
      </trkpt>
      <trkpt lat="43.58254" lon="3.307">
        <ele>400.4</ele>
        <time>2017-11-19T08:17:14Z</time>
      </trkpt>
      <trkpt lat="43.58249" lon="3.3071">
        <ele>399.4</ele>
        <time>2017-11-19T08:17:15Z</time>
      </trkpt>
      <trkpt lat="43.58242" lon="3.30717">
        <ele>398.2</ele>
        <time>2017-11-19T08:17:16Z</time>
      </trkpt>
      <trkpt lat="43.58235" lon="3.30724">
        <ele>396.9</ele>
        <time>2017-11-19T08:17:17Z</time>
      </trkpt>
      <trkpt lat="43.58228" lon="3.3073">
        <ele>395.5</ele>
        <time>2017-11-19T08:17:18Z</time>
      </trkpt>
      <trkpt lat="43.58221" lon="3.30735">
        <ele>394.2</ele>
        <time>2017-11-19T08:17:19Z</time>
      </trkpt>
      <trkpt lat="43.58216" lon="3.3074">
        <ele>393</ele>
        <time>2017-11-19T08:17:20Z</time>
      </trkpt>
      <trkpt lat="43.5821" lon="3.30747">
        <ele>393</ele>
        <time>2017-11-19T08:17:21Z</time>
      </trkpt>
      <trkpt lat="43.58203" lon="3.30752">
        <ele>392.9</ele>
        <time>2017-11-19T08:17:22Z</time>
      </trkpt>
      <trkpt lat="43.58194" lon="3.30755">
        <ele>392.5</ele>
        <time>2017-11-19T08:17:23Z</time>
      </trkpt>
      <trkpt lat="43.58185" lon="3.30759">
        <ele>391.8</ele>
        <time>2017-11-19T08:17:24Z</time>
      </trkpt>
      <trkpt lat="43.58175" lon="3.30764">
        <ele>390.8</ele>
        <time>2017-11-19T08:17:25Z</time>
      </trkpt>
      <trkpt lat="43.58166" lon="3.30771">
        <ele>389.7</ele>
        <time>2017-11-19T08:17:26Z</time>
      </trkpt>
      <trkpt lat="43.58155" lon="3.30777">
        <ele>388.5</ele>
        <time>2017-11-19T08:17:27Z</time>
      </trkpt>
      <trkpt lat="43.58147" lon="3.30781">
        <ele>387.5</ele>
        <time>2017-11-19T08:17:28Z</time>
      </trkpt>
      <trkpt lat="43.5814" lon="3.30784">
        <ele>386.6</ele>
        <time>2017-11-19T08:17:29Z</time>
      </trkpt>
      <trkpt lat="43.58134" lon="3.30786">
        <ele>385.8</ele>
        <time>2017-11-19T08:17:30Z</time>
      </trkpt>
      <trkpt lat="43.5813" lon="3.30786">
        <ele>385.1</ele>
        <time>2017-11-19T08:17:31Z</time>
      </trkpt>
      <trkpt lat="43.58128" lon="3.30783">
        <ele>384.9</ele>
        <time>2017-11-19T08:17:32Z</time>
      </trkpt>
      <trkpt lat="43.58127" lon="3.30779">
        <ele>385</ele>
        <time>2017-11-19T08:17:33Z</time>
      </trkpt>
      <trkpt lat="43.58127" lon="3.30774">
        <ele>385</ele>
        <time>2017-11-19T08:17:34Z</time>
      </trkpt>
      <trkpt lat="43.58126" lon="3.30768">
        <ele>385</ele>
        <time>2017-11-19T08:17:35Z</time>
      </trkpt>
      <trkpt lat="43.58124" lon="3.30761">
        <ele>385</ele>
        <time>2017-11-19T08:17:36Z</time>
      </trkpt>
      <trkpt lat="43.5812" lon="3.30756">
        <ele>385</ele>
        <time>2017-11-19T08:17:37Z</time>
      </trkpt>
      <trkpt lat="43.58116" lon="3.30757">
        <ele>385</ele>
        <time>2017-11-19T08:17:38Z</time>
      </trkpt>
      <trkpt lat="43.58112" lon="3.30761">
        <ele>384.5</ele>
        <time>2017-11-19T08:17:39Z</time>
      </trkpt>
      <trkpt lat="43.58107" lon="3.30763">
        <ele>384</ele>
        <time>2017-11-19T08:17:40Z</time>
      </trkpt>
      <trkpt lat="43.581" lon="3.30764">
        <ele>383.1</ele>
        <time>2017-11-19T08:17:41Z</time>
      </trkpt>
      <trkpt lat="43.58093" lon="3.30766">
        <ele>382.1</ele>
        <time>2017-11-19T08:17:42Z</time>
      </trkpt>
      <trkpt lat="43.58084" lon="3.30768">
        <ele>380.9</ele>
        <time>2017-11-19T08:17:43Z</time>
      </trkpt>
      <trkpt lat="43.58076" lon="3.30774">
        <ele>379.6</ele>
        <time>2017-11-19T08:17:44Z</time>
      </trkpt>
      <trkpt lat="43.58068" lon="3.30779">
        <ele>377.8</ele>
        <time>2017-11-19T08:17:45Z</time>
      </trkpt>
      <trkpt lat="43.5806" lon="3.30784">
        <ele>376.9</ele>
        <time>2017-11-19T08:17:46Z</time>
      </trkpt>
      <trkpt lat="43.58053" lon="3.3079">
        <ele>376.3</ele>
        <time>2017-11-19T08:17:47Z</time>
      </trkpt>
      <trkpt lat="43.58046" lon="3.30796">
        <ele>375.3</ele>
        <time>2017-11-19T08:17:48Z</time>
      </trkpt>
      <trkpt lat="43.58041" lon="3.30804">
        <ele>374.3</ele>
        <time>2017-11-19T08:17:49Z</time>
      </trkpt>
      <trkpt lat="43.58038" lon="3.30814">
        <ele>373.2</ele>
        <time>2017-11-19T08:17:50Z</time>
      </trkpt>
      <trkpt lat="43.58032" lon="3.30822">
        <ele>372.1</ele>
        <time>2017-11-19T08:17:51Z</time>
      </trkpt>
      <trkpt lat="43.58025" lon="3.30827">
        <ele>370.7</ele>
        <time>2017-11-19T08:17:52Z</time>
      </trkpt>
      <trkpt lat="43.58017" lon="3.30831">
        <ele>369.4</ele>
        <time>2017-11-19T08:17:53Z</time>
      </trkpt>
      <trkpt lat="43.5801" lon="3.30837">
        <ele>368.2</ele>
        <time>2017-11-19T08:17:54Z</time>
      </trkpt>
      <trkpt lat="43.58003" lon="3.30844">
        <ele>367</ele>
        <time>2017-11-19T08:17:55Z</time>
      </trkpt>
      <trkpt lat="43.57996" lon="3.30852">
        <ele>366.2</ele>
        <time>2017-11-19T08:17:56Z</time>
      </trkpt>
      <trkpt lat="43.5799" lon="3.30861">
        <ele>365.4</ele>
        <time>2017-11-19T08:17:57Z</time>
      </trkpt>
      <trkpt lat="43.57984" lon="3.30868">
        <ele>364.4</ele>
        <time>2017-11-19T08:17:58Z</time>
      </trkpt>
      <trkpt lat="43.57981" lon="3.30877">
        <ele>363.5</ele>
        <time>2017-11-19T08:17:59Z</time>
      </trkpt>
      <trkpt lat="43.57981" lon="3.30889">
        <ele>362.4</ele>
        <time>2017-11-19T08:18:00Z</time>
      </trkpt>
      <trkpt lat="43.57976" lon="3.30898">
        <ele>361.6</ele>
        <time>2017-11-19T08:18:01Z</time>
      </trkpt>
      <trkpt lat="43.57972" lon="3.30907">
        <ele>361.3</ele>
        <time>2017-11-19T08:18:02Z</time>
      </trkpt>
      <trkpt lat="43.57966" lon="3.30915">
        <ele>361</ele>
        <time>2017-11-19T08:18:03Z</time>
      </trkpt>
      <trkpt lat="43.57961" lon="3.30923">
        <ele>360.8</ele>
        <time>2017-11-19T08:18:04Z</time>
      </trkpt>
      <trkpt lat="43.57956" lon="3.30931">
        <ele>360.7</ele>
        <time>2017-11-19T08:18:05Z</time>
      </trkpt>
      <trkpt lat="43.57951" lon="3.30938">
        <ele>360.6</ele>
        <time>2017-11-19T08:18:06Z</time>
      </trkpt>
      <trkpt lat="43.57946" lon="3.30945">
        <ele>360.5</ele>
        <time>2017-11-19T08:18:07Z</time>
      </trkpt>
      <trkpt lat="43.57942" lon="3.30953">
        <ele>360.4</ele>
        <time>2017-11-19T08:18:08Z</time>
      </trkpt>
      <trkpt lat="43.57938" lon="3.30961">
        <ele>360.2</ele>
        <time>2017-11-19T08:18:09Z</time>
      </trkpt>
      <trkpt lat="43.57937" lon="3.30969">
        <ele>360.1</ele>
        <time>2017-11-19T08:18:10Z</time>
      </trkpt>
      <trkpt lat="43.57936" lon="3.30977">
        <ele>360</ele>
        <time>2017-11-19T08:18:11Z</time>
      </trkpt>
      <trkpt lat="43.57936" lon="3.30985">
        <ele>359.8</ele>
        <time>2017-11-19T08:18:12Z</time>
      </trkpt>
      <trkpt lat="43.57935" lon="3.30993">
        <ele>359.4</ele>
        <time>2017-11-19T08:18:13Z</time>
      </trkpt>
      <trkpt lat="43.57933" lon="3.31003">
        <ele>358.9</ele>
        <time>2017-11-19T08:18:14Z</time>
      </trkpt>
      <trkpt lat="43.57931" lon="3.31012">
        <ele>358.6</ele>
        <time>2017-11-19T08:18:15Z</time>
      </trkpt>
      <trkpt lat="43.57929" lon="3.31021">
        <ele>358.5</ele>
        <time>2017-11-19T08:18:16Z</time>
      </trkpt>
      <trkpt lat="43.57928" lon="3.31031">
        <ele>358.3</ele>
        <time>2017-11-19T08:18:17Z</time>
      </trkpt>
      <trkpt lat="43.57927" lon="3.31039">
        <ele>358.3</ele>
        <time>2017-11-19T08:18:18Z</time>
      </trkpt>
      <trkpt lat="43.57926" lon="3.31047">
        <ele>358.2</ele>
        <time>2017-11-19T08:18:19Z</time>
      </trkpt>
      <trkpt lat="43.57924" lon="3.31056">
        <ele>358.2</ele>
        <time>2017-11-19T08:18:20Z</time>
      </trkpt>
      <trkpt lat="43.57922" lon="3.31063">
        <ele>358.1</ele>
        <time>2017-11-19T08:18:21Z</time>
      </trkpt>
      <trkpt lat="43.57921" lon="3.31071">
        <ele>358.1</ele>
        <time>2017-11-19T08:18:22Z</time>
      </trkpt>
      <trkpt lat="43.57922" lon="3.31078">
        <ele>358</ele>
        <time>2017-11-19T08:18:23Z</time>
      </trkpt>
      <trkpt lat="43.5792" lon="3.31087">
        <ele>358</ele>
        <time>2017-11-19T08:18:24Z</time>
      </trkpt>
      <trkpt lat="43.57919" lon="3.31095">
        <ele>357.9</ele>
        <time>2017-11-19T08:18:25Z</time>
      </trkpt>
      <trkpt lat="43.57919" lon="3.31103">
        <ele>357.9</ele>
        <time>2017-11-19T08:18:26Z</time>
      </trkpt>
      <trkpt lat="43.57918" lon="3.3111">
        <ele>357.8</ele>
        <time>2017-11-19T08:18:27Z</time>
      </trkpt>
      <trkpt lat="43.57917" lon="3.31118">
        <ele>357.7</ele>
        <time>2017-11-19T08:18:28Z</time>
      </trkpt>
      <trkpt lat="43.57916" lon="3.31125">
        <ele>357.7</ele>
        <time>2017-11-19T08:18:29Z</time>
      </trkpt>
      <trkpt lat="43.57915" lon="3.31132">
        <ele>357.6</ele>
        <time>2017-11-19T08:18:30Z</time>
      </trkpt>
      <trkpt lat="43.57914" lon="3.31139">
        <ele>357.5</ele>
        <time>2017-11-19T08:18:31Z</time>
      </trkpt>
      <trkpt lat="43.57914" lon="3.31145">
        <ele>357.5</ele>
        <time>2017-11-19T08:18:32Z</time>
      </trkpt>
      <trkpt lat="43.57914" lon="3.31152">
        <ele>357.4</ele>
        <time>2017-11-19T08:18:33Z</time>
      </trkpt>
      <trkpt lat="43.57914" lon="3.31159">
        <ele>357.3</ele>
        <time>2017-11-19T08:18:34Z</time>
      </trkpt>
      <trkpt lat="43.57913" lon="3.31165">
        <ele>357.2</ele>
        <time>2017-11-19T08:18:35Z</time>
      </trkpt>
      <trkpt lat="43.5791" lon="3.31171">
        <ele>356.9</ele>
        <time>2017-11-19T08:18:36Z</time>
      </trkpt>
      <trkpt lat="43.57907" lon="3.31177">
        <ele>356.6</ele>
        <time>2017-11-19T08:18:37Z</time>
      </trkpt>
      <trkpt lat="43.57903" lon="3.31183">
        <ele>356.1</ele>
        <time>2017-11-19T08:18:38Z</time>
      </trkpt>
      <trkpt lat="43.579" lon="3.3119">
        <ele>355.7</ele>
        <time>2017-11-19T08:18:39Z</time>
      </trkpt>
      <trkpt lat="43.57896" lon="3.31196">
        <ele>355.5</ele>
        <time>2017-11-19T08:18:40Z</time>
      </trkpt>
      <trkpt lat="43.57893" lon="3.31203">
        <ele>355.4</ele>
        <time>2017-11-19T08:18:41Z</time>
      </trkpt>
      <trkpt lat="43.5789" lon="3.31209">
        <ele>355.3</ele>
        <time>2017-11-19T08:18:42Z</time>
      </trkpt>
      <trkpt lat="43.57887" lon="3.31215">
        <ele>355.2</ele>
        <time>2017-11-19T08:18:43Z</time>
      </trkpt>
      <trkpt lat="43.57884" lon="3.31221">
        <ele>355.2</ele>
        <time>2017-11-19T08:18:44Z</time>
      </trkpt>
      <trkpt lat="43.5788" lon="3.31227">
        <ele>355.1</ele>
        <time>2017-11-19T08:18:45Z</time>
      </trkpt>
      <trkpt lat="43.57876" lon="3.31232">
        <ele>355.1</ele>
        <time>2017-11-19T08:18:46Z</time>
      </trkpt>
      <trkpt lat="43.57873" lon="3.31237">
        <ele>355</ele>
        <time>2017-11-19T08:18:47Z</time>
      </trkpt>
      <trkpt lat="43.57869" lon="3.31242">
        <ele>355</ele>
        <time>2017-11-19T08:18:48Z</time>
      </trkpt>
      <trkpt lat="43.57865" lon="3.31247">
        <ele>354.9</ele>
        <time>2017-11-19T08:18:49Z</time>
      </trkpt>
      <trkpt lat="43.5786" lon="3.31252">
        <ele>354.8</ele>
        <time>2017-11-19T08:18:50Z</time>
      </trkpt>
      <trkpt lat="43.57855" lon="3.31257">
        <ele>354.7</ele>
        <time>2017-11-19T08:18:51Z</time>
      </trkpt>
      <trkpt lat="43.57852" lon="3.31262">
        <ele>354.6</ele>
        <time>2017-11-19T08:18:52Z</time>
      </trkpt>
      <trkpt lat="43.57848" lon="3.31268">
        <ele>354.5</ele>
        <time>2017-11-19T08:18:53Z</time>
      </trkpt>
      <trkpt lat="43.57844" lon="3.31273">
        <ele>354.4</ele>
        <time>2017-11-19T08:18:54Z</time>
      </trkpt>
      <trkpt lat="43.5784" lon="3.31278">
        <ele>354.2</ele>
        <time>2017-11-19T08:18:55Z</time>
      </trkpt>
      <trkpt lat="43.57836" lon="3.31283">
        <ele>354</ele>
        <time>2017-11-19T08:18:56Z</time>
      </trkpt>
      <trkpt lat="43.57831" lon="3.31288">
        <ele>353.6</ele>
        <time>2017-11-19T08:18:57Z</time>
      </trkpt>
      <trkpt lat="43.57827" lon="3.31296">
        <ele>352.9</ele>
        <time>2017-11-19T08:18:58Z</time>
      </trkpt>
      <trkpt lat="43.57823" lon="3.31302">
        <ele>352.3</ele>
        <time>2017-11-19T08:18:59Z</time>
      </trkpt>
      <trkpt lat="43.57819" lon="3.31307">
        <ele>351.7</ele>
        <time>2017-11-19T08:19:00Z</time>
      </trkpt>
      <trkpt lat="43.57814" lon="3.31312">
        <ele>351.1</ele>
        <time>2017-11-19T08:19:01Z</time>
      </trkpt>
      <trkpt lat="43.57812" lon="3.31316">
        <ele>350.7</ele>
        <time>2017-11-19T08:19:02Z</time>
      </trkpt>
      <trkpt lat="43.57809" lon="3.31321">
        <ele>350.3</ele>
        <time>2017-11-19T08:19:03Z</time>
      </trkpt>
      <trkpt lat="43.57808" lon="3.31325">
        <ele>350</ele>
        <time>2017-11-19T08:19:04Z</time>
      </trkpt>
      <trkpt lat="43.57806" lon="3.31329">
        <ele>349.9</ele>
        <time>2017-11-19T08:19:05Z</time>
      </trkpt>
      <trkpt lat="43.57805" lon="3.31333">
        <ele>349.7</ele>
        <time>2017-11-19T08:19:06Z</time>
      </trkpt>
      <trkpt lat="43.57803" lon="3.31336">
        <ele>349.6</ele>
        <time>2017-11-19T08:19:07Z</time>
      </trkpt>
      <trkpt lat="43.57801" lon="3.31339">
        <ele>349.4</ele>
        <time>2017-11-19T08:19:08Z</time>
      </trkpt>
      <trkpt lat="43.57799" lon="3.31343">
        <ele>349.3</ele>
        <time>2017-11-19T08:19:09Z</time>
      </trkpt>
      <trkpt lat="43.57797" lon="3.31347">
        <ele>349.1</ele>
        <time>2017-11-19T08:19:10Z</time>
      </trkpt>
      <trkpt lat="43.57794" lon="3.31352">
        <ele>349</ele>
        <time>2017-11-19T08:19:11Z</time>
      </trkpt>
      <trkpt lat="43.57792" lon="3.31357">
        <ele>348.8</ele>
        <time>2017-11-19T08:19:12Z</time>
      </trkpt>
      <trkpt lat="43.57788" lon="3.31362">
        <ele>348.4</ele>
        <time>2017-11-19T08:19:13Z</time>
      </trkpt>
      <trkpt lat="43.57784" lon="3.31366">
        <ele>348</ele>
        <time>2017-11-19T08:19:14Z</time>
      </trkpt>
      <trkpt lat="43.5778" lon="3.31369">
        <ele>347.7</ele>
        <time>2017-11-19T08:19:15Z</time>
      </trkpt>
      <trkpt lat="43.57777" lon="3.31372">
        <ele>347.4</ele>
        <time>2017-11-19T08:19:16Z</time>
      </trkpt>
      <trkpt lat="43.57774" lon="3.31375">
        <ele>347.1</ele>
        <time>2017-11-19T08:19:17Z</time>
      </trkpt>
      <trkpt lat="43.5777" lon="3.31378">
        <ele>346.7</ele>
        <time>2017-11-19T08:19:18Z</time>
      </trkpt>
      <trkpt lat="43.57768" lon="3.31381">
        <ele>346.5</ele>
        <time>2017-11-19T08:19:19Z</time>
      </trkpt>
      <trkpt lat="43.57765" lon="3.31383">
        <ele>343.7</ele>
        <time>2017-11-19T08:19:23Z</time>
      </trkpt>
      <trkpt lat="43.5776" lon="3.31381">
        <ele>343.3</ele>
        <time>2017-11-19T08:19:26Z</time>
      </trkpt>
      <trkpt lat="43.57755" lon="3.31377">
        <ele>342.8</ele>
        <time>2017-11-19T08:19:28Z</time>
      </trkpt>
      <trkpt lat="43.57752" lon="3.31376">
        <ele>342.4</ele>
        <time>2017-11-19T08:19:29Z</time>
      </trkpt>
      <trkpt lat="43.57747" lon="3.31374">
        <ele>341.6</ele>
        <time>2017-11-19T08:19:30Z</time>
      </trkpt>
      <trkpt lat="43.57743" lon="3.31372">
        <ele>340.8</ele>
        <time>2017-11-19T08:19:31Z</time>
      </trkpt>
      <trkpt lat="43.57736" lon="3.3137">
        <ele>339.7</ele>
        <time>2017-11-19T08:19:32Z</time>
      </trkpt>
      <trkpt lat="43.5773" lon="3.31368">
        <ele>338.4</ele>
        <time>2017-11-19T08:19:33Z</time>
      </trkpt>
      <trkpt lat="43.57723" lon="3.31365">
        <ele>336.9</ele>
        <time>2017-11-19T08:19:34Z</time>
      </trkpt>
      <trkpt lat="43.57716" lon="3.3136">
        <ele>335.3</ele>
        <time>2017-11-19T08:19:35Z</time>
      </trkpt>
      <trkpt lat="43.5771" lon="3.31354">
        <ele>334.3</ele>
        <time>2017-11-19T08:19:36Z</time>
      </trkpt>
      <trkpt lat="43.57704" lon="3.3135">
        <ele>333.6</ele>
        <time>2017-11-19T08:19:37Z</time>
      </trkpt>
      <trkpt lat="43.57698" lon="3.31349">
        <ele>333</ele>
        <time>2017-11-19T08:19:38Z</time>
      </trkpt>
      <trkpt lat="43.57693" lon="3.31347">
        <ele>332.3</ele>
        <time>2017-11-19T08:19:39Z</time>
      </trkpt>
      <trkpt lat="43.57686" lon="3.31346">
        <ele>331.4</ele>
        <time>2017-11-19T08:19:40Z</time>
      </trkpt>
      <trkpt lat="43.57679" lon="3.31346">
        <ele>330.9</ele>
        <time>2017-11-19T08:19:41Z</time>
      </trkpt>
      <trkpt lat="43.57671" lon="3.31346">
        <ele>330.6</ele>
        <time>2017-11-19T08:19:42Z</time>
      </trkpt>
      <trkpt lat="43.57664" lon="3.31346">
        <ele>330.3</ele>
        <time>2017-11-19T08:19:43Z</time>
      </trkpt>
      <trkpt lat="43.57658" lon="3.31346">
        <ele>329.7</ele>
        <time>2017-11-19T08:19:44Z</time>
      </trkpt>
      <trkpt lat="43.57652" lon="3.31346">
        <ele>329.1</ele>
        <time>2017-11-19T08:19:45Z</time>
      </trkpt>
      <trkpt lat="43.57647" lon="3.31347">
        <ele>328.5</ele>
        <time>2017-11-19T08:19:46Z</time>
      </trkpt>
      <trkpt lat="43.57642" lon="3.31348">
        <ele>328</ele>
        <time>2017-11-19T08:19:47Z</time>
      </trkpt>
      <trkpt lat="43.57636" lon="3.31346">
        <ele>327.6</ele>
        <time>2017-11-19T08:19:48Z</time>
      </trkpt>
      <trkpt lat="43.57629" lon="3.31346">
        <ele>327</ele>
        <time>2017-11-19T08:19:49Z</time>
      </trkpt>
      <trkpt lat="43.57624" lon="3.31347">
        <ele>326.3</ele>
        <time>2017-11-19T08:19:50Z</time>
      </trkpt>
      <trkpt lat="43.57617" lon="3.31348">
        <ele>325.8</ele>
        <time>2017-11-19T08:19:51Z</time>
      </trkpt>
      <trkpt lat="43.57609" lon="3.3135">
        <ele>325.5</ele>
        <time>2017-11-19T08:19:52Z</time>
      </trkpt>
      <trkpt lat="43.57603" lon="3.31352">
        <ele>325.3</ele>
        <time>2017-11-19T08:19:53Z</time>
      </trkpt>
      <trkpt lat="43.57598" lon="3.31355">
        <ele>325.3</ele>
        <time>2017-11-19T08:19:54Z</time>
      </trkpt>
      <trkpt lat="43.57592" lon="3.31357">
        <ele>325.2</ele>
        <time>2017-11-19T08:19:55Z</time>
      </trkpt>
      <trkpt lat="43.57586" lon="3.3136">
        <ele>325.2</ele>
        <time>2017-11-19T08:19:56Z</time>
      </trkpt>
      <trkpt lat="43.5758" lon="3.31362">
        <ele>325.1</ele>
        <time>2017-11-19T08:19:57Z</time>
      </trkpt>
      <trkpt lat="43.57575" lon="3.31362">
        <ele>325.1</ele>
        <time>2017-11-19T08:19:58Z</time>
      </trkpt>
      <trkpt lat="43.57569" lon="3.31362">
        <ele>325</ele>
        <time>2017-11-19T08:19:59Z</time>
      </trkpt>
      <trkpt lat="43.57563" lon="3.31362">
        <ele>325</ele>
        <time>2017-11-19T08:20:00Z</time>
      </trkpt>
      <trkpt lat="43.57557" lon="3.31361">
        <ele>324.9</ele>
        <time>2017-11-19T08:20:01Z</time>
      </trkpt>
      <trkpt lat="43.5755" lon="3.3136">
        <ele>324.8</ele>
        <time>2017-11-19T08:20:02Z</time>
      </trkpt>
      <trkpt lat="43.57542" lon="3.31359">
        <ele>324.7</ele>
        <time>2017-11-19T08:20:03Z</time>
      </trkpt>
      <trkpt lat="43.57534" lon="3.31358">
        <ele>324.6</ele>
        <time>2017-11-19T08:20:04Z</time>
      </trkpt>
      <trkpt lat="43.57528" lon="3.31357">
        <ele>324.5</ele>
        <time>2017-11-19T08:20:05Z</time>
      </trkpt>
      <trkpt lat="43.57522" lon="3.31358">
        <ele>324.4</ele>
        <time>2017-11-19T08:20:06Z</time>
      </trkpt>
      <trkpt lat="43.57515" lon="3.31357">
        <ele>324.3</ele>
        <time>2017-11-19T08:20:07Z</time>
      </trkpt>
      <trkpt lat="43.57508" lon="3.31358">
        <ele>324.2</ele>
        <time>2017-11-19T08:20:08Z</time>
      </trkpt>
      <trkpt lat="43.57502" lon="3.3136">
        <ele>323.8</ele>
        <time>2017-11-19T08:20:09Z</time>
      </trkpt>
      <trkpt lat="43.57496" lon="3.31362">
        <ele>323.3</ele>
        <time>2017-11-19T08:20:10Z</time>
      </trkpt>
      <trkpt lat="43.57492" lon="3.31364">
        <ele>322.9</ele>
        <time>2017-11-19T08:20:11Z</time>
      </trkpt>
      <trkpt lat="43.57488" lon="3.31366">
        <ele>322.7</ele>
        <time>2017-11-19T08:20:12Z</time>
      </trkpt>
      <trkpt lat="43.57484" lon="3.31368">
        <ele>322.4</ele>
        <time>2017-11-19T08:20:13Z</time>
      </trkpt>
      <trkpt lat="43.57478" lon="3.31372">
        <ele>322.2</ele>
        <time>2017-11-19T08:20:14Z</time>
      </trkpt>
      <trkpt lat="43.57474" lon="3.31375">
        <ele>322.1</ele>
        <time>2017-11-19T08:20:15Z</time>
      </trkpt>
      <trkpt lat="43.57469" lon="3.3138">
        <ele>322.1</ele>
        <time>2017-11-19T08:20:16Z</time>
      </trkpt>
      <trkpt lat="43.57464" lon="3.31385">
        <ele>322.1</ele>
        <time>2017-11-19T08:20:17Z</time>
      </trkpt>
      <trkpt lat="43.57461" lon="3.31391">
        <ele>322.1</ele>
        <time>2017-11-19T08:20:18Z</time>
      </trkpt>
      <trkpt lat="43.57457" lon="3.31397">
        <ele>322.2</ele>
        <time>2017-11-19T08:20:19Z</time>
      </trkpt>
      <trkpt lat="43.57454" lon="3.31404">
        <ele>322.2</ele>
        <time>2017-11-19T08:20:20Z</time>
      </trkpt>
      <trkpt lat="43.5745" lon="3.31409">
        <ele>322.2</ele>
        <time>2017-11-19T08:20:21Z</time>
      </trkpt>
      <trkpt lat="43.57446" lon="3.31414">
        <ele>322.3</ele>
        <time>2017-11-19T08:20:22Z</time>
      </trkpt>
      <trkpt lat="43.57441" lon="3.31418">
        <ele>322.4</ele>
        <time>2017-11-19T08:20:23Z</time>
      </trkpt>
      <trkpt lat="43.57437" lon="3.31422">
        <ele>322.6</ele>
        <time>2017-11-19T08:20:24Z</time>
      </trkpt>
      <trkpt lat="43.57434" lon="3.31426">
        <ele>322.9</ele>
        <time>2017-11-19T08:20:25Z</time>
      </trkpt>
      <trkpt lat="43.5743" lon="3.31429">
        <ele>323.1</ele>
        <time>2017-11-19T08:20:26Z</time>
      </trkpt>
      <trkpt lat="43.57427" lon="3.31432">
        <ele>323.3</ele>
        <time>2017-11-19T08:20:27Z</time>
      </trkpt>
      <trkpt lat="43.57424" lon="3.31434">
        <ele>323.4</ele>
        <time>2017-11-19T08:20:28Z</time>
      </trkpt>
      <trkpt lat="43.57421" lon="3.31437">
        <ele>323.6</ele>
        <time>2017-11-19T08:20:29Z</time>
      </trkpt>
      <trkpt lat="43.57418" lon="3.3144">
        <ele>323.8</ele>
        <time>2017-11-19T08:20:30Z</time>
      </trkpt>
      <trkpt lat="43.57415" lon="3.31443">
        <ele>324</ele>
        <time>2017-11-19T08:20:31Z</time>
      </trkpt>
      <trkpt lat="43.57412" lon="3.31448">
        <ele>324.4</ele>
        <time>2017-11-19T08:20:32Z</time>
      </trkpt>
      <trkpt lat="43.57408" lon="3.31453">
        <ele>324.7</ele>
        <time>2017-11-19T08:20:33Z</time>
      </trkpt>
      <trkpt lat="43.57405" lon="3.31458">
        <ele>324.8</ele>
        <time>2017-11-19T08:20:34Z</time>
      </trkpt>
      <trkpt lat="43.57401" lon="3.31463">
        <ele>324.9</ele>
        <time>2017-11-19T08:20:35Z</time>
      </trkpt>
      <trkpt lat="43.57399" lon="3.31467">
        <ele>324.9</ele>
        <time>2017-11-19T08:20:36Z</time>
      </trkpt>
      <trkpt lat="43.57394" lon="3.31468">
        <ele>324.9</ele>
        <time>2017-11-19T08:20:38Z</time>
      </trkpt>
      <trkpt lat="43.5739" lon="3.31461">
        <ele>324.7</ele>
        <time>2017-11-19T08:20:40Z</time>
      </trkpt>
      <trkpt lat="43.5739" lon="3.31455">
        <ele>324.3</ele>
        <time>2017-11-19T08:20:41Z</time>
      </trkpt>
      <trkpt lat="43.57388" lon="3.31447">
        <ele>323.6</ele>
        <time>2017-11-19T08:20:42Z</time>
      </trkpt>
      <trkpt lat="43.57384" lon="3.3144">
        <ele>322.6</ele>
        <time>2017-11-19T08:20:43Z</time>
      </trkpt>
      <trkpt lat="43.5738" lon="3.31432">
        <ele>321.9</ele>
        <time>2017-11-19T08:20:44Z</time>
      </trkpt>
      <trkpt lat="43.57376" lon="3.31424">
        <ele>321</ele>
        <time>2017-11-19T08:20:45Z</time>
      </trkpt>
      <trkpt lat="43.57374" lon="3.31418">
        <ele>320.3</ele>
        <time>2017-11-19T08:20:46Z</time>
      </trkpt>
      <trkpt lat="43.57373" lon="3.31413">
        <ele>319.8</ele>
        <time>2017-11-19T08:20:47Z</time>
      </trkpt>
      <trkpt lat="43.57372" lon="3.3141">
        <ele>319.5</ele>
        <time>2017-11-19T08:20:49Z</time>
      </trkpt>
      <trkpt lat="43.5737" lon="3.31406">
        <ele>319</ele>
        <time>2017-11-19T08:20:52Z</time>
      </trkpt>
      <trkpt lat="43.57366" lon="3.31398">
        <ele>318.1</ele>
        <time>2017-11-19T08:26:11Z</time>
      </trkpt>
      <trkpt lat="43.57364" lon="3.31399">
        <ele>317.7</ele>
        <time>2017-11-19T08:26:37Z</time>
      </trkpt>
      <trkpt lat="43.5736" lon="3.31398">
        <ele>317.3</ele>
        <time>2017-11-19T08:26:53Z</time>
      </trkpt>
      <trkpt lat="43.57357" lon="3.31398">
        <ele>316.9</ele>
        <time>2017-11-19T08:26:54Z</time>
      </trkpt>
      <trkpt lat="43.57353" lon="3.31398">
        <ele>316.5</ele>
        <time>2017-11-19T08:26:55Z</time>
      </trkpt>
      <trkpt lat="43.57349" lon="3.31397">
        <ele>316.1</ele>
        <time>2017-11-19T08:26:56Z</time>
      </trkpt>
      <trkpt lat="43.57345" lon="3.31396">
        <ele>315.7</ele>
        <time>2017-11-19T08:26:57Z</time>
      </trkpt>
      <trkpt lat="43.5734" lon="3.31394">
        <ele>315.3</ele>
        <time>2017-11-19T08:26:58Z</time>
      </trkpt>
      <trkpt lat="43.57334" lon="3.31394">
        <ele>315</ele>
        <time>2017-11-19T08:26:59Z</time>
      </trkpt>
      <trkpt lat="43.57328" lon="3.31395">
        <ele>314.9</ele>
        <time>2017-11-19T08:27:00Z</time>
      </trkpt>
      <trkpt lat="43.57322" lon="3.31395">
        <ele>314.8</ele>
        <time>2017-11-19T08:27:01Z</time>
      </trkpt>
      <trkpt lat="43.57316" lon="3.31395">
        <ele>314.7</ele>
        <time>2017-11-19T08:27:02Z</time>
      </trkpt>
      <trkpt lat="43.5731" lon="3.31394">
        <ele>314.4</ele>
        <time>2017-11-19T08:27:03Z</time>
      </trkpt>
      <trkpt lat="43.57304" lon="3.31393">
        <ele>313.9</ele>
        <time>2017-11-19T08:27:04Z</time>
      </trkpt>
      <trkpt lat="43.57298" lon="3.31394">
        <ele>313.4</ele>
        <time>2017-11-19T08:27:05Z</time>
      </trkpt>
      <trkpt lat="43.57292" lon="3.31395">
        <ele>312.9</ele>
        <time>2017-11-19T08:27:06Z</time>
      </trkpt>
      <trkpt lat="43.57287" lon="3.31397">
        <ele>312.6</ele>
        <time>2017-11-19T08:27:07Z</time>
      </trkpt>
      <trkpt lat="43.57281" lon="3.31399">
        <ele>312.4</ele>
        <time>2017-11-19T08:27:08Z</time>
      </trkpt>
      <trkpt lat="43.57275" lon="3.31401">
        <ele>312.3</ele>
        <time>2017-11-19T08:27:09Z</time>
      </trkpt>
      <trkpt lat="43.57268" lon="3.31401">
        <ele>312.2</ele>
        <time>2017-11-19T08:27:10Z</time>
      </trkpt>
      <trkpt lat="43.57261" lon="3.31399">
        <ele>312.1</ele>
        <time>2017-11-19T08:27:11Z</time>
      </trkpt>
      <trkpt lat="43.57254" lon="3.31398">
        <ele>311.9</ele>
        <time>2017-11-19T08:27:12Z</time>
      </trkpt>
      <trkpt lat="43.57247" lon="3.31399">
        <ele>311.5</ele>
        <time>2017-11-19T08:27:13Z</time>
      </trkpt>
      <trkpt lat="43.5724" lon="3.314">
        <ele>310.7</ele>
        <time>2017-11-19T08:27:14Z</time>
      </trkpt>
      <trkpt lat="43.57233" lon="3.31399">
        <ele>309.9</ele>
        <time>2017-11-19T08:27:15Z</time>
      </trkpt>
      <trkpt lat="43.57226" lon="3.31399">
        <ele>309.6</ele>
        <time>2017-11-19T08:27:16Z</time>
      </trkpt>
      <trkpt lat="43.57219" lon="3.314">
        <ele>309.4</ele>
        <time>2017-11-19T08:27:17Z</time>
      </trkpt>
      <trkpt lat="43.57212" lon="3.31401">
        <ele>309.3</ele>
        <time>2017-11-19T08:27:18Z</time>
      </trkpt>
      <trkpt lat="43.57206" lon="3.31399">
        <ele>309.2</ele>
        <time>2017-11-19T08:27:19Z</time>
      </trkpt>
      <trkpt lat="43.572" lon="3.31396">
        <ele>309.1</ele>
        <time>2017-11-19T08:27:20Z</time>
      </trkpt>
      <trkpt lat="43.57193" lon="3.31395">
        <ele>308.9</ele>
        <time>2017-11-19T08:27:21Z</time>
      </trkpt>
      <trkpt lat="43.57186" lon="3.31395">
        <ele>308.2</ele>
        <time>2017-11-19T08:27:22Z</time>
      </trkpt>
      <trkpt lat="43.57179" lon="3.31393">
        <ele>306.8</ele>
        <time>2017-11-19T08:27:23Z</time>
      </trkpt>
      <trkpt lat="43.57172" lon="3.31389">
        <ele>305.1</ele>
        <time>2017-11-19T08:27:24Z</time>
      </trkpt>
      <trkpt lat="43.57164" lon="3.31384">
        <ele>304.1</ele>
        <time>2017-11-19T08:27:25Z</time>
      </trkpt>
      <trkpt lat="43.57157" lon="3.31379">
        <ele>303.2</ele>
        <time>2017-11-19T08:27:26Z</time>
      </trkpt>
      <trkpt lat="43.5715" lon="3.31374">
        <ele>301.8</ele>
        <time>2017-11-19T08:27:27Z</time>
      </trkpt>
      <trkpt lat="43.57142" lon="3.3137">
        <ele>300.4</ele>
        <time>2017-11-19T08:27:28Z</time>
      </trkpt>
      <trkpt lat="43.57135" lon="3.31365">
        <ele>299.4</ele>
        <time>2017-11-19T08:27:29Z</time>
      </trkpt>
      <trkpt lat="43.57128" lon="3.31358">
        <ele>299</ele>
        <time>2017-11-19T08:27:30Z</time>
      </trkpt>
      <trkpt lat="43.57121" lon="3.3135">
        <ele>298.6</ele>
        <time>2017-11-19T08:27:31Z</time>
      </trkpt>
      <trkpt lat="43.57115" lon="3.31342">
        <ele>297.2</ele>
        <time>2017-11-19T08:27:32Z</time>
      </trkpt>
      <trkpt lat="43.57107" lon="3.31335">
        <ele>295.2</ele>
        <time>2017-11-19T08:27:33Z</time>
      </trkpt>
      <trkpt lat="43.571" lon="3.31327">
        <ele>293.4</ele>
        <time>2017-11-19T08:27:34Z</time>
      </trkpt>
      <trkpt lat="43.57094" lon="3.31319">
        <ele>292</ele>
        <time>2017-11-19T08:27:35Z</time>
      </trkpt>
      <trkpt lat="43.5709" lon="3.31309">
        <ele>290.8</ele>
        <time>2017-11-19T08:27:36Z</time>
      </trkpt>
      <trkpt lat="43.57086" lon="3.31301">
        <ele>289.7</ele>
        <time>2017-11-19T08:27:37Z</time>
      </trkpt>
      <trkpt lat="43.57083" lon="3.31295">
        <ele>289</ele>
        <time>2017-11-19T08:27:38Z</time>
      </trkpt>
      <trkpt lat="43.5708" lon="3.31289">
        <ele>288.2</ele>
        <time>2017-11-19T08:27:39Z</time>
      </trkpt>
      <trkpt lat="43.57077" lon="3.31287">
        <ele>287.7</ele>
        <time>2017-11-19T08:27:40Z</time>
      </trkpt>
      <trkpt lat="43.57073" lon="3.31288">
        <ele>287.3</ele>
        <time>2017-11-19T08:27:41Z</time>
      </trkpt>
      <trkpt lat="43.57069" lon="3.31289">
        <ele>287.1</ele>
        <time>2017-11-19T08:27:42Z</time>
      </trkpt>
      <trkpt lat="43.57065" lon="3.31291">
        <ele>287.1</ele>
        <time>2017-11-19T08:27:43Z</time>
      </trkpt>
      <trkpt lat="43.5706" lon="3.31293">
        <ele>287</ele>
        <time>2017-11-19T08:27:44Z</time>
      </trkpt>
      <trkpt lat="43.57054" lon="3.31296">
        <ele>286.7</ele>
        <time>2017-11-19T08:27:45Z</time>
      </trkpt>
      <trkpt lat="43.57049" lon="3.31298">
        <ele>286.3</ele>
        <time>2017-11-19T08:27:46Z</time>
      </trkpt>
      <trkpt lat="43.57042" lon="3.313">
        <ele>285.9</ele>
        <time>2017-11-19T08:27:47Z</time>
      </trkpt>
      <trkpt lat="43.57036" lon="3.313">
        <ele>285.6</ele>
        <time>2017-11-19T08:27:48Z</time>
      </trkpt>
      <trkpt lat="43.57029" lon="3.31299">
        <ele>285.8</ele>
        <time>2017-11-19T08:27:49Z</time>
      </trkpt>
      <trkpt lat="43.57021" lon="3.31299">
        <ele>284.6</ele>
        <time>2017-11-19T08:27:50Z</time>
      </trkpt>
      <trkpt lat="43.57015" lon="3.31299">
        <ele>285.3</ele>
        <time>2017-11-19T08:27:51Z</time>
      </trkpt>
      <trkpt lat="43.5701" lon="3.31301">
        <ele>285.4</ele>
        <time>2017-11-19T08:27:52Z</time>
      </trkpt>
      <trkpt lat="43.57004" lon="3.31304">
        <ele>285.5</ele>
        <time>2017-11-19T08:27:53Z</time>
      </trkpt>
      <trkpt lat="43.56998" lon="3.31306">
        <ele>285.5</ele>
        <time>2017-11-19T08:27:54Z</time>
      </trkpt>
      <trkpt lat="43.56993" lon="3.31308">
        <ele>285.6</ele>
        <time>2017-11-19T08:27:55Z</time>
      </trkpt>
      <trkpt lat="43.56987" lon="3.31312">
        <ele>285.7</ele>
        <time>2017-11-19T08:27:56Z</time>
      </trkpt>
      <trkpt lat="43.56981" lon="3.31317">
        <ele>285.7</ele>
        <time>2017-11-19T08:27:57Z</time>
      </trkpt>
      <trkpt lat="43.56975" lon="3.31323">
        <ele>285.8</ele>
        <time>2017-11-19T08:27:58Z</time>
      </trkpt>
      <trkpt lat="43.5697" lon="3.31329">
        <ele>285.9</ele>
        <time>2017-11-19T08:27:59Z</time>
      </trkpt>
      <trkpt lat="43.56964" lon="3.31334">
        <ele>285.9</ele>
        <time>2017-11-19T08:28:00Z</time>
      </trkpt>
      <trkpt lat="43.56958" lon="3.31339">
        <ele>286</ele>
        <time>2017-11-19T08:28:01Z</time>
      </trkpt>
      <trkpt lat="43.56954" lon="3.31344">
        <ele>286</ele>
        <time>2017-11-19T08:28:02Z</time>
      </trkpt>
      <trkpt lat="43.56948" lon="3.31349">
        <ele>286.1</ele>
        <time>2017-11-19T08:28:03Z</time>
      </trkpt>
      <trkpt lat="43.56944" lon="3.31354">
        <ele>286.1</ele>
        <time>2017-11-19T08:28:04Z</time>
      </trkpt>
      <trkpt lat="43.56939" lon="3.31358">
        <ele>286.2</ele>
        <time>2017-11-19T08:28:05Z</time>
      </trkpt>
      <trkpt lat="43.56934" lon="3.31361">
        <ele>286.2</ele>
        <time>2017-11-19T08:28:06Z</time>
      </trkpt>
      <trkpt lat="43.5693" lon="3.31365">
        <ele>286.3</ele>
        <time>2017-11-19T08:28:07Z</time>
      </trkpt>
      <trkpt lat="43.56925" lon="3.31366">
        <ele>286.3</ele>
        <time>2017-11-19T08:28:08Z</time>
      </trkpt>
      <trkpt lat="43.5692" lon="3.31369">
        <ele>286.4</ele>
        <time>2017-11-19T08:28:09Z</time>
      </trkpt>
      <trkpt lat="43.56915" lon="3.31372">
        <ele>286.5</ele>
        <time>2017-11-19T08:28:10Z</time>
      </trkpt>
      <trkpt lat="43.5691" lon="3.31374">
        <ele>286.5</ele>
        <time>2017-11-19T08:28:11Z</time>
      </trkpt>
      <trkpt lat="43.56905" lon="3.31377">
        <ele>286.6</ele>
        <time>2017-11-19T08:28:12Z</time>
      </trkpt>
      <trkpt lat="43.569" lon="3.31379">
        <ele>286.6</ele>
        <time>2017-11-19T08:28:13Z</time>
      </trkpt>
      <trkpt lat="43.56894" lon="3.31379">
        <ele>286.7</ele>
        <time>2017-11-19T08:28:14Z</time>
      </trkpt>
      <trkpt lat="43.56888" lon="3.31378">
        <ele>286.8</ele>
        <time>2017-11-19T08:28:15Z</time>
      </trkpt>
      <trkpt lat="43.56883" lon="3.31378">
        <ele>286.9</ele>
        <time>2017-11-19T08:28:16Z</time>
      </trkpt>
      <trkpt lat="43.56878" lon="3.31378">
        <ele>286.9</ele>
        <time>2017-11-19T08:28:17Z</time>
      </trkpt>
      <trkpt lat="43.56873" lon="3.31379">
        <ele>287</ele>
        <time>2017-11-19T08:28:18Z</time>
      </trkpt>
      <trkpt lat="43.56868" lon="3.31381">
        <ele>287.1</ele>
        <time>2017-11-19T08:28:19Z</time>
      </trkpt>
      <trkpt lat="43.56863" lon="3.31382">
        <ele>287.1</ele>
        <time>2017-11-19T08:28:20Z</time>
      </trkpt>
      <trkpt lat="43.56859" lon="3.31383">
        <ele>287.2</ele>
        <time>2017-11-19T08:28:21Z</time>
      </trkpt>
      <trkpt lat="43.56855" lon="3.31385">
        <ele>287.3</ele>
        <time>2017-11-19T08:28:22Z</time>
      </trkpt>
      <trkpt lat="43.56852" lon="3.31385">
        <ele>287.4</ele>
        <time>2017-11-19T08:28:23Z</time>
      </trkpt>
      <trkpt lat="43.56848" lon="3.31385">
        <ele>287.5</ele>
        <time>2017-11-19T08:28:24Z</time>
      </trkpt>
      <trkpt lat="43.56844" lon="3.31385">
        <ele>287.5</ele>
        <time>2017-11-19T08:28:25Z</time>
      </trkpt>
      <trkpt lat="43.56839" lon="3.31383">
        <ele>287.7</ele>
        <time>2017-11-19T08:28:26Z</time>
      </trkpt>
      <trkpt lat="43.56834" lon="3.31382">
        <ele>287.7</ele>
        <time>2017-11-19T08:28:27Z</time>
      </trkpt>
      <trkpt lat="43.56828" lon="3.31383">
        <ele>287.7</ele>
        <time>2017-11-19T08:28:28Z</time>
      </trkpt>
      <trkpt lat="43.56823" lon="3.31385">
        <ele>287.3</ele>
        <time>2017-11-19T08:28:29Z</time>
      </trkpt>
      <trkpt lat="43.56817" lon="3.31386">
        <ele>286.8</ele>
        <time>2017-11-19T08:28:30Z</time>
      </trkpt>
      <trkpt lat="43.5681" lon="3.3139">
        <ele>286.3</ele>
        <time>2017-11-19T08:28:31Z</time>
      </trkpt>
      <trkpt lat="43.56803" lon="3.31395">
        <ele>285.7</ele>
        <time>2017-11-19T08:28:32Z</time>
      </trkpt>
      <trkpt lat="43.56797" lon="3.31398">
        <ele>285</ele>
        <time>2017-11-19T08:28:33Z</time>
      </trkpt>
      <trkpt lat="43.5679" lon="3.31402">
        <ele>284.5</ele>
        <time>2017-11-19T08:28:34Z</time>
      </trkpt>
      <trkpt lat="43.56784" lon="3.31405">
        <ele>283.9</ele>
        <time>2017-11-19T08:28:35Z</time>
      </trkpt>
      <trkpt lat="43.56778" lon="3.31408">
        <ele>283.1</ele>
        <time>2017-11-19T08:28:36Z</time>
      </trkpt>
      <trkpt lat="43.56773" lon="3.31411">
        <ele>282.6</ele>
        <time>2017-11-19T08:28:37Z</time>
      </trkpt>
      <trkpt lat="43.56768" lon="3.31412">
        <ele>282.1</ele>
        <time>2017-11-19T08:28:38Z</time>
      </trkpt>
      <trkpt lat="43.56762" lon="3.3141">
        <ele>281.5</ele>
        <time>2017-11-19T08:28:39Z</time>
      </trkpt>
      <trkpt lat="43.56757" lon="3.31408">
        <ele>281.3</ele>
        <time>2017-11-19T08:28:40Z</time>
      </trkpt>
      <trkpt lat="43.56751" lon="3.31406">
        <ele>281.2</ele>
        <time>2017-11-19T08:28:41Z</time>
      </trkpt>
      <trkpt lat="43.56745" lon="3.31405">
        <ele>281.3</ele>
        <time>2017-11-19T08:28:42Z</time>
      </trkpt>
      <trkpt lat="43.56738" lon="3.31404">
        <ele>281.1</ele>
        <time>2017-11-19T08:28:43Z</time>
      </trkpt>
      <trkpt lat="43.56732" lon="3.31403">
        <ele>280.9</ele>
        <time>2017-11-19T08:28:44Z</time>
      </trkpt>
      <trkpt lat="43.56726" lon="3.31404">
        <ele>280.5</ele>
        <time>2017-11-19T08:28:45Z</time>
      </trkpt>
      <trkpt lat="43.5672" lon="3.31404">
        <ele>280.2</ele>
        <time>2017-11-19T08:28:46Z</time>
      </trkpt>
      <trkpt lat="43.56714" lon="3.31403">
        <ele>279.9</ele>
        <time>2017-11-19T08:28:47Z</time>
      </trkpt>
      <trkpt lat="43.56707" lon="3.31401">
        <ele>280</ele>
        <time>2017-11-19T08:28:48Z</time>
      </trkpt>
      <trkpt lat="43.56701" lon="3.31402">
        <ele>280</ele>
        <time>2017-11-19T08:28:49Z</time>
      </trkpt>
      <trkpt lat="43.56695" lon="3.31403">
        <ele>280.2</ele>
        <time>2017-11-19T08:28:50Z</time>
      </trkpt>
      <trkpt lat="43.56688" lon="3.31403">
        <ele>280.3</ele>
        <time>2017-11-19T08:28:51Z</time>
      </trkpt>
      <trkpt lat="43.56681" lon="3.31403">
        <ele>280.5</ele>
        <time>2017-11-19T08:28:52Z</time>
      </trkpt>
      <trkpt lat="43.56674" lon="3.31402">
        <ele>280.5</ele>
        <time>2017-11-19T08:28:53Z</time>
      </trkpt>
      <trkpt lat="43.56668" lon="3.31403">
        <ele>280.2</ele>
        <time>2017-11-19T08:28:54Z</time>
      </trkpt>
      <trkpt lat="43.56661" lon="3.31404">
        <ele>279.3</ele>
        <time>2017-11-19T08:28:55Z</time>
      </trkpt>
      <trkpt lat="43.56655" lon="3.31406">
        <ele>278.6</ele>
        <time>2017-11-19T08:28:56Z</time>
      </trkpt>
      <trkpt lat="43.56649" lon="3.3141">
        <ele>277.9</ele>
        <time>2017-11-19T08:28:57Z</time>
      </trkpt>
      <trkpt lat="43.56644" lon="3.31414">
        <ele>277.5</ele>
        <time>2017-11-19T08:28:58Z</time>
      </trkpt>
      <trkpt lat="43.56639" lon="3.31418">
        <ele>277.2</ele>
        <time>2017-11-19T08:28:59Z</time>
      </trkpt>
      <trkpt lat="43.56636" lon="3.31419">
        <ele>276.9</ele>
        <time>2017-11-19T08:29:00Z</time>
      </trkpt>
      <trkpt lat="43.56633" lon="3.31419">
        <ele>276.5</ele>
        <time>2017-11-19T08:29:01Z</time>
      </trkpt>
      <trkpt lat="43.56629" lon="3.31418">
        <ele>276</ele>
        <time>2017-11-19T08:29:02Z</time>
      </trkpt>
      <trkpt lat="43.56625" lon="3.31418">
        <ele>275.6</ele>
        <time>2017-11-19T08:29:03Z</time>
      </trkpt>
      <trkpt lat="43.56623" lon="3.31415">
        <ele>275.3</ele>
        <time>2017-11-19T08:29:04Z</time>
      </trkpt>
      <trkpt lat="43.5662" lon="3.3141">
        <ele>274.8</ele>
        <time>2017-11-19T08:29:05Z</time>
      </trkpt>
      <trkpt lat="43.56617" lon="3.31408">
        <ele>274.4</ele>
        <time>2017-11-19T08:29:06Z</time>
      </trkpt>
      <trkpt lat="43.56614" lon="3.31409">
        <ele>274.1</ele>
        <time>2017-11-19T08:29:07Z</time>
      </trkpt>
      <trkpt lat="43.56609" lon="3.31409">
        <ele>273.9</ele>
        <time>2017-11-19T08:29:08Z</time>
      </trkpt>
      <trkpt lat="43.56605" lon="3.31409">
        <ele>273.9</ele>
        <time>2017-11-19T08:29:09Z</time>
      </trkpt>
      <trkpt lat="43.56599" lon="3.31407">
        <ele>274</ele>
        <time>2017-11-19T08:29:10Z</time>
      </trkpt>
      <trkpt lat="43.56593" lon="3.31406">
        <ele>274.2</ele>
        <time>2017-11-19T08:29:11Z</time>
      </trkpt>
      <trkpt lat="43.56588" lon="3.31406">
        <ele>274.3</ele>
        <time>2017-11-19T08:29:12Z</time>
      </trkpt>
      <trkpt lat="43.56585" lon="3.31405">
        <ele>274.3</ele>
        <time>2017-11-19T08:29:13Z</time>
      </trkpt>
      <trkpt lat="43.56581" lon="3.31405">
        <ele>274.4</ele>
        <time>2017-11-19T08:29:14Z</time>
      </trkpt>
      <trkpt lat="43.56577" lon="3.31404">
        <ele>274.4</ele>
        <time>2017-11-19T08:29:15Z</time>
      </trkpt>
      <trkpt lat="43.56574" lon="3.31403">
        <ele>274.5</ele>
        <time>2017-11-19T08:29:16Z</time>
      </trkpt>
      <trkpt lat="43.5657" lon="3.31402">
        <ele>274.5</ele>
        <time>2017-11-19T08:29:17Z</time>
      </trkpt>
      <trkpt lat="43.56565" lon="3.31401">
        <ele>274.6</ele>
        <time>2017-11-19T08:29:18Z</time>
      </trkpt>
      <trkpt lat="43.5656" lon="3.314">
        <ele>274.7</ele>
        <time>2017-11-19T08:29:19Z</time>
      </trkpt>
      <trkpt lat="43.56556" lon="3.314">
        <ele>274.7</ele>
        <time>2017-11-19T08:29:20Z</time>
      </trkpt>
      <trkpt lat="43.56551" lon="3.31398">
        <ele>274.8</ele>
        <time>2017-11-19T08:29:21Z</time>
      </trkpt>
      <trkpt lat="43.56546" lon="3.31395">
        <ele>274.8</ele>
        <time>2017-11-19T08:29:22Z</time>
      </trkpt>
      <trkpt lat="43.56541" lon="3.31394">
        <ele>274.9</ele>
        <time>2017-11-19T08:29:23Z</time>
      </trkpt>
      <trkpt lat="43.56536" lon="3.31394">
        <ele>274.9</ele>
        <time>2017-11-19T08:29:24Z</time>
      </trkpt>
      <trkpt lat="43.56531" lon="3.31393">
        <ele>274.9</ele>
        <time>2017-11-19T08:29:25Z</time>
      </trkpt>
      <trkpt lat="43.56526" lon="3.31393">
        <ele>275</ele>
        <time>2017-11-19T08:29:26Z</time>
      </trkpt>
      <trkpt lat="43.5652" lon="3.31393">
        <ele>275</ele>
        <time>2017-11-19T08:29:27Z</time>
      </trkpt>
      <trkpt lat="43.56515" lon="3.31391">
        <ele>275.1</ele>
        <time>2017-11-19T08:29:28Z</time>
      </trkpt>
      <trkpt lat="43.56508" lon="3.31389">
        <ele>275.2</ele>
        <time>2017-11-19T08:29:29Z</time>
      </trkpt>
      <trkpt lat="43.56502" lon="3.31389">
        <ele>275.2</ele>
        <time>2017-11-19T08:29:30Z</time>
      </trkpt>
      <trkpt lat="43.56496" lon="3.31387">
        <ele>275.3</ele>
        <time>2017-11-19T08:29:31Z</time>
      </trkpt>
      <trkpt lat="43.5649" lon="3.31386">
        <ele>275.3</ele>
        <time>2017-11-19T08:29:32Z</time>
      </trkpt>
      <trkpt lat="43.56485" lon="3.31385">
        <ele>275.4</ele>
        <time>2017-11-19T08:29:33Z</time>
      </trkpt>
      <trkpt lat="43.56481" lon="3.31384">
        <ele>275.4</ele>
        <time>2017-11-19T08:29:34Z</time>
      </trkpt>
      <trkpt lat="43.56477" lon="3.31383">
        <ele>275.5</ele>
        <time>2017-11-19T08:29:35Z</time>
      </trkpt>
      <trkpt lat="43.56472" lon="3.31383">
        <ele>275.5</ele>
        <time>2017-11-19T08:29:36Z</time>
      </trkpt>
      <trkpt lat="43.56468" lon="3.31382">
        <ele>275.5</ele>
        <time>2017-11-19T08:29:37Z</time>
      </trkpt>
      <trkpt lat="43.56464" lon="3.31381">
        <ele>275.6</ele>
        <time>2017-11-19T08:29:38Z</time>
      </trkpt>
      <trkpt lat="43.56459" lon="3.3138">
        <ele>275.6</ele>
        <time>2017-11-19T08:29:39Z</time>
      </trkpt>
      <trkpt lat="43.56454" lon="3.31378">
        <ele>275.7</ele>
        <time>2017-11-19T08:29:40Z</time>
      </trkpt>
      <trkpt lat="43.56449" lon="3.31376">
        <ele>275.7</ele>
        <time>2017-11-19T08:29:41Z</time>
      </trkpt>
      <trkpt lat="43.56445" lon="3.31375">
        <ele>275.8</ele>
        <time>2017-11-19T08:29:42Z</time>
      </trkpt>
      <trkpt lat="43.5644" lon="3.31373">
        <ele>275.8</ele>
        <time>2017-11-19T08:29:43Z</time>
      </trkpt>
      <trkpt lat="43.56436" lon="3.31372">
        <ele>275.8</ele>
        <time>2017-11-19T08:29:44Z</time>
      </trkpt>
      <trkpt lat="43.56432" lon="3.31372">
        <ele>275.9</ele>
        <time>2017-11-19T08:29:45Z</time>
      </trkpt>
      <trkpt lat="43.56428" lon="3.31371">
        <ele>275.9</ele>
        <time>2017-11-19T08:29:46Z</time>
      </trkpt>
      <trkpt lat="43.56424" lon="3.3137">
        <ele>276</ele>
        <time>2017-11-19T08:29:47Z</time>
      </trkpt>
      <trkpt lat="43.5642" lon="3.31369">
        <ele>276</ele>
        <time>2017-11-19T08:29:48Z</time>
      </trkpt>
      <trkpt lat="43.56417" lon="3.31366">
        <ele>276.1</ele>
        <time>2017-11-19T08:29:49Z</time>
      </trkpt>
      <trkpt lat="43.56412" lon="3.31364">
        <ele>276.2</ele>
        <time>2017-11-19T08:29:50Z</time>
      </trkpt>
      <trkpt lat="43.56408" lon="3.31362">
        <ele>276.5</ele>
        <time>2017-11-19T08:29:51Z</time>
      </trkpt>
      <trkpt lat="43.56405" lon="3.3136">
        <ele>276.8</ele>
        <time>2017-11-19T08:29:52Z</time>
      </trkpt>
      <trkpt lat="43.56402" lon="3.31358">
        <ele>277.1</ele>
        <time>2017-11-19T08:29:53Z</time>
      </trkpt>
      <trkpt lat="43.56399" lon="3.31355">
        <ele>277.5</ele>
        <time>2017-11-19T08:29:54Z</time>
      </trkpt>
      <trkpt lat="43.56397" lon="3.31352">
        <ele>277.9</ele>
        <time>2017-11-19T08:29:55Z</time>
      </trkpt>
      <trkpt lat="43.56394" lon="3.3135">
        <ele>278.3</ele>
        <time>2017-11-19T08:29:56Z</time>
      </trkpt>
      <trkpt lat="43.56391" lon="3.31347">
        <ele>278.7</ele>
        <time>2017-11-19T08:29:57Z</time>
      </trkpt>
      <trkpt lat="43.56389" lon="3.31345">
        <ele>278.9</ele>
        <time>2017-11-19T08:29:58Z</time>
      </trkpt>
      <trkpt lat="43.56386" lon="3.31342">
        <ele>279.1</ele>
        <time>2017-11-19T08:29:59Z</time>
      </trkpt>
      <trkpt lat="43.56384" lon="3.31341">
        <ele>279.3</ele>
        <time>2017-11-19T08:30:00Z</time>
      </trkpt>
      <trkpt lat="43.56381" lon="3.31338">
        <ele>279.5</ele>
        <time>2017-11-19T08:30:01Z</time>
      </trkpt>
      <trkpt lat="43.56379" lon="3.31336">
        <ele>279.8</ele>
        <time>2017-11-19T08:30:02Z</time>
      </trkpt>
      <trkpt lat="43.56376" lon="3.31334">
        <ele>280.1</ele>
        <time>2017-11-19T08:30:03Z</time>
      </trkpt>
      <trkpt lat="43.56372" lon="3.31333">
        <ele>280.8</ele>
        <time>2017-11-19T08:30:05Z</time>
      </trkpt>
      <trkpt lat="43.56369" lon="3.3133">
        <ele>281.3</ele>
        <time>2017-11-19T08:30:07Z</time>
      </trkpt>
      <trkpt lat="43.56366" lon="3.31325">
        <ele>282.1</ele>
        <time>2017-11-19T08:30:09Z</time>
      </trkpt>
      <trkpt lat="43.56364" lon="3.31323">
        <ele>282.6</ele>
        <time>2017-11-19T08:30:10Z</time>
      </trkpt>
      <trkpt lat="43.56362" lon="3.31321">
        <ele>283.1</ele>
        <time>2017-11-19T08:30:11Z</time>
      </trkpt>
      <trkpt lat="43.56358" lon="3.31318">
        <ele>283.9</ele>
        <time>2017-11-19T08:30:13Z</time>
      </trkpt>
      <trkpt lat="43.56355" lon="3.31313">
        <ele>284.6</ele>
        <time>2017-11-19T08:30:15Z</time>
      </trkpt>
      <trkpt lat="43.56351" lon="3.3131">
        <ele>285.1</ele>
        <time>2017-11-19T08:30:17Z</time>
      </trkpt>
      <trkpt lat="43.56349" lon="3.31306">
        <ele>285.5</ele>
        <time>2017-11-19T08:30:19Z</time>
      </trkpt>
      <trkpt lat="43.56346" lon="3.31303">
        <ele>285.8</ele>
        <time>2017-11-19T08:30:21Z</time>
      </trkpt>
      <trkpt lat="43.56343" lon="3.31299">
        <ele>286</ele>
        <time>2017-11-19T08:30:23Z</time>
      </trkpt>
      <trkpt lat="43.5634" lon="3.31296">
        <ele>286.2</ele>
        <time>2017-11-19T08:30:25Z</time>
      </trkpt>
      <trkpt lat="43.56337" lon="3.31294">
        <ele>286.3</ele>
        <time>2017-11-19T08:30:27Z</time>
      </trkpt>
      <trkpt lat="43.56335" lon="3.31292">
        <ele>286.4</ele>
        <time>2017-11-19T08:30:29Z</time>
      </trkpt>
      <trkpt lat="43.56332" lon="3.31289">
        <ele>286.5</ele>
        <time>2017-11-19T08:30:31Z</time>
      </trkpt>
      <trkpt lat="43.56328" lon="3.31288">
        <ele>286.6</ele>
        <time>2017-11-19T08:30:34Z</time>
      </trkpt>
      <trkpt lat="43.56324" lon="3.31287">
        <ele>286.6</ele>
        <time>2017-11-19T08:30:37Z</time>
      </trkpt>
      <trkpt lat="43.5632" lon="3.31288">
        <ele>286.7</ele>
        <time>2017-11-19T08:30:39Z</time>
      </trkpt>
      <trkpt lat="43.56317" lon="3.31285">
        <ele>286.7</ele>
        <time>2017-11-19T08:30:40Z</time>
      </trkpt>
      <trkpt lat="43.56312" lon="3.31281">
        <ele>286.6</ele>
        <time>2017-11-19T08:30:41Z</time>
      </trkpt>
      <trkpt lat="43.56306" lon="3.31279">
        <ele>286.3</ele>
        <time>2017-11-19T08:30:42Z</time>
      </trkpt>
      <trkpt lat="43.56301" lon="3.31279">
        <ele>285.8</ele>
        <time>2017-11-19T08:30:43Z</time>
      </trkpt>
      <trkpt lat="43.56297" lon="3.31276">
        <ele>285.4</ele>
        <time>2017-11-19T08:30:44Z</time>
      </trkpt>
      <trkpt lat="43.56292" lon="3.31268">
        <ele>285.2</ele>
        <time>2017-11-19T08:30:45Z</time>
      </trkpt>
      <trkpt lat="43.56286" lon="3.31261">
        <ele>284.3</ele>
        <time>2017-11-19T08:30:46Z</time>
      </trkpt>
      <trkpt lat="43.56279" lon="3.31254">
        <ele>283.9</ele>
        <time>2017-11-19T08:30:47Z</time>
      </trkpt>
      <trkpt lat="43.56273" lon="3.31248">
        <ele>283.7</ele>
        <time>2017-11-19T08:30:48Z</time>
      </trkpt>
      <trkpt lat="43.56267" lon="3.31242">
        <ele>283</ele>
        <time>2017-11-19T08:30:49Z</time>
      </trkpt>
      <trkpt lat="43.56262" lon="3.31236">
        <ele>282.5</ele>
        <time>2017-11-19T08:30:50Z</time>
      </trkpt>
      <trkpt lat="43.56257" lon="3.31231">
        <ele>282.3</ele>
        <time>2017-11-19T08:30:51Z</time>
      </trkpt>
      <trkpt lat="43.56252" lon="3.31227">
        <ele>282.1</ele>
        <time>2017-11-19T08:30:52Z</time>
      </trkpt>
      <trkpt lat="43.56248" lon="3.31221">
        <ele>281.5</ele>
        <time>2017-11-19T08:30:53Z</time>
      </trkpt>
      <trkpt lat="43.56244" lon="3.31214">
        <ele>280.9</ele>
        <time>2017-11-19T08:30:54Z</time>
      </trkpt>
      <trkpt lat="43.56241" lon="3.31207">
        <ele>280.7</ele>
        <time>2017-11-19T08:30:55Z</time>
      </trkpt>
      <trkpt lat="43.56236" lon="3.31202">
        <ele>280.3</ele>
        <time>2017-11-19T08:30:56Z</time>
      </trkpt>
      <trkpt lat="43.56231" lon="3.31198">
        <ele>279.8</ele>
        <time>2017-11-19T08:30:57Z</time>
      </trkpt>
      <trkpt lat="43.56226" lon="3.31192">
        <ele>279.4</ele>
        <time>2017-11-19T08:30:58Z</time>
      </trkpt>
      <trkpt lat="43.56221" lon="3.31186">
        <ele>279.3</ele>
        <time>2017-11-19T08:30:59Z</time>
      </trkpt>
      <trkpt lat="43.56215" lon="3.3118">
        <ele>278.9</ele>
        <time>2017-11-19T08:31:00Z</time>
      </trkpt>
      <trkpt lat="43.56211" lon="3.31172">
        <ele>278.1</ele>
        <time>2017-11-19T08:31:01Z</time>
      </trkpt>
      <trkpt lat="43.56208" lon="3.31164">
        <ele>277.7</ele>
        <time>2017-11-19T08:31:02Z</time>
      </trkpt>
      <trkpt lat="43.56203" lon="3.31156">
        <ele>277.7</ele>
        <time>2017-11-19T08:31:03Z</time>
      </trkpt>
      <trkpt lat="43.56199" lon="3.31149">
        <ele>277.6</ele>
        <time>2017-11-19T08:31:04Z</time>
      </trkpt>
      <trkpt lat="43.56195" lon="3.31141">
        <ele>277.3</ele>
        <time>2017-11-19T08:31:05Z</time>
      </trkpt>
      <trkpt lat="43.56191" lon="3.31133">
        <ele>276.8</ele>
        <time>2017-11-19T08:31:06Z</time>
      </trkpt>
      <trkpt lat="43.56187" lon="3.31126">
        <ele>276.2</ele>
        <time>2017-11-19T08:31:07Z</time>
      </trkpt>
      <trkpt lat="43.56184" lon="3.31118">
        <ele>275.7</ele>
        <time>2017-11-19T08:31:08Z</time>
      </trkpt>
      <trkpt lat="43.56181" lon="3.31111">
        <ele>275.2</ele>
        <time>2017-11-19T08:31:09Z</time>
      </trkpt>
      <trkpt lat="43.56177" lon="3.31105">
        <ele>274.8</ele>
        <time>2017-11-19T08:31:10Z</time>
      </trkpt>
      <trkpt lat="43.56172" lon="3.31098">
        <ele>274.5</ele>
        <time>2017-11-19T08:31:11Z</time>
      </trkpt>
      <trkpt lat="43.56167" lon="3.31092">
        <ele>274.4</ele>
        <time>2017-11-19T08:31:12Z</time>
      </trkpt>
      <trkpt lat="43.56162" lon="3.31084">
        <ele>274.5</ele>
        <time>2017-11-19T08:31:13Z</time>
      </trkpt>
      <trkpt lat="43.56156" lon="3.31077">
        <ele>274.6</ele>
        <time>2017-11-19T08:31:14Z</time>
      </trkpt>
      <trkpt lat="43.5615" lon="3.31069">
        <ele>274.7</ele>
        <time>2017-11-19T08:31:15Z</time>
      </trkpt>
      <trkpt lat="43.56145" lon="3.3106">
        <ele>274.5</ele>
        <time>2017-11-19T08:31:16Z</time>
      </trkpt>
      <trkpt lat="43.56141" lon="3.31051">
        <ele>274.1</ele>
        <time>2017-11-19T08:31:17Z</time>
      </trkpt>
      <trkpt lat="43.56138" lon="3.31043">
        <ele>273.6</ele>
        <time>2017-11-19T08:31:18Z</time>
      </trkpt>
      <trkpt lat="43.56136" lon="3.31035">
        <ele>273.4</ele>
        <time>2017-11-19T08:31:19Z</time>
      </trkpt>
      <trkpt lat="43.56134" lon="3.3103">
        <ele>273.4</ele>
        <time>2017-11-19T08:31:20Z</time>
      </trkpt>
      <trkpt lat="43.56128" lon="3.31028">
        <ele>273.5</ele>
        <time>2017-11-19T08:31:23Z</time>
      </trkpt>
      <trkpt lat="43.56124" lon="3.31028">
        <ele>273.7</ele>
        <time>2017-11-19T08:31:24Z</time>
      </trkpt>
      <trkpt lat="43.56119" lon="3.31028">
        <ele>274.1</ele>
        <time>2017-11-19T08:31:25Z</time>
      </trkpt>
      <trkpt lat="43.56115" lon="3.31028">
        <ele>274.4</ele>
        <time>2017-11-19T08:31:26Z</time>
      </trkpt>
      <trkpt lat="43.5611" lon="3.31028">
        <ele>274.8</ele>
        <time>2017-11-19T08:31:27Z</time>
      </trkpt>
      <trkpt lat="43.56105" lon="3.31027">
        <ele>275.2</ele>
        <time>2017-11-19T08:31:28Z</time>
      </trkpt>
      <trkpt lat="43.56101" lon="3.31027">
        <ele>275.5</ele>
        <time>2017-11-19T08:31:29Z</time>
      </trkpt>
      <trkpt lat="43.56097" lon="3.31027">
        <ele>275.7</ele>
        <time>2017-11-19T08:31:30Z</time>
      </trkpt>
      <trkpt lat="43.56093" lon="3.31028">
        <ele>276</ele>
        <time>2017-11-19T08:31:32Z</time>
      </trkpt>
      <trkpt lat="43.56089" lon="3.31028">
        <ele>276.2</ele>
        <time>2017-11-19T08:31:34Z</time>
      </trkpt>
      <trkpt lat="43.56085" lon="3.31029">
        <ele>276.3</ele>
        <time>2017-11-19T08:31:36Z</time>
      </trkpt>
      <trkpt lat="43.56082" lon="3.31029">
        <ele>276.4</ele>
        <time>2017-11-19T08:31:38Z</time>
      </trkpt>
      <trkpt lat="43.56077" lon="3.31031">
        <ele>276.5</ele>
        <time>2017-11-19T08:31:40Z</time>
      </trkpt>
      <trkpt lat="43.56073" lon="3.31033">
        <ele>276.6</ele>
        <time>2017-11-19T08:31:42Z</time>
      </trkpt>
      <trkpt lat="43.5607" lon="3.31034">
        <ele>276.6</ele>
        <time>2017-11-19T08:31:44Z</time>
      </trkpt>
      <trkpt lat="43.56066" lon="3.31037">
        <ele>276.7</ele>
        <time>2017-11-19T08:31:46Z</time>
      </trkpt>
      <trkpt lat="43.56062" lon="3.3104">
        <ele>276.7</ele>
        <time>2017-11-19T08:31:48Z</time>
      </trkpt>
      <trkpt lat="43.56059" lon="3.31042">
        <ele>276.8</ele>
        <time>2017-11-19T08:31:49Z</time>
      </trkpt>
      <trkpt lat="43.56055" lon="3.31044">
        <ele>276.8</ele>
        <time>2017-11-19T08:31:50Z</time>
      </trkpt>
      <trkpt lat="43.56052" lon="3.31045">
        <ele>276.9</ele>
        <time>2017-11-19T08:31:51Z</time>
      </trkpt>
      <trkpt lat="43.56049" lon="3.31045">
        <ele>277</ele>
        <time>2017-11-19T08:31:52Z</time>
      </trkpt>
      <trkpt lat="43.56045" lon="3.31045">
        <ele>277.1</ele>
        <time>2017-11-19T08:31:53Z</time>
      </trkpt>
      <trkpt lat="43.56043" lon="3.31045">
        <ele>277.1</ele>
        <time>2017-11-19T08:31:54Z</time>
      </trkpt>
      <trkpt lat="43.5604" lon="3.31044">
        <ele>277.1</ele>
        <time>2017-11-19T08:31:55Z</time>
      </trkpt>
      <trkpt lat="43.56037" lon="3.31044">
        <ele>277.2</ele>
        <time>2017-11-19T08:31:56Z</time>
      </trkpt>
      <trkpt lat="43.56033" lon="3.31044">
        <ele>277.2</ele>
        <time>2017-11-19T08:31:57Z</time>
      </trkpt>
      <trkpt lat="43.56029" lon="3.31044">
        <ele>277.3</ele>
        <time>2017-11-19T08:31:58Z</time>
      </trkpt>
      <trkpt lat="43.56025" lon="3.31044">
        <ele>277.4</ele>
        <time>2017-11-19T08:31:59Z</time>
      </trkpt>
      <trkpt lat="43.56021" lon="3.31044">
        <ele>277.4</ele>
        <time>2017-11-19T08:32:00Z</time>
      </trkpt>
      <trkpt lat="43.56019" lon="3.31042">
        <ele>277.5</ele>
        <time>2017-11-19T08:32:01Z</time>
      </trkpt>
      <trkpt lat="43.56016" lon="3.3104">
        <ele>277.5</ele>
        <time>2017-11-19T08:32:02Z</time>
      </trkpt>
      <trkpt lat="43.56013" lon="3.3104">
        <ele>277.6</ele>
        <time>2017-11-19T08:32:03Z</time>
      </trkpt>
      <trkpt lat="43.56009" lon="3.31041">
        <ele>277.7</ele>
        <time>2017-11-19T08:32:05Z</time>
      </trkpt>
      <trkpt lat="43.56005" lon="3.31041">
        <ele>277.7</ele>
        <time>2017-11-19T08:32:07Z</time>
      </trkpt>
      <trkpt lat="43.56" lon="3.31041">
        <ele>277.8</ele>
        <time>2017-11-19T08:32:12Z</time>
      </trkpt>
      <trkpt lat="43.55995" lon="3.31038">
        <ele>278</ele>
        <time>2017-11-19T08:32:21Z</time>
      </trkpt>
      <trkpt lat="43.55994" lon="3.31034">
        <ele>278</ele>
        <time>2017-11-19T08:32:23Z</time>
      </trkpt>
      <trkpt lat="43.55992" lon="3.31029">
        <ele>278</ele>
        <time>2017-11-19T08:32:25Z</time>
      </trkpt>
      <trkpt lat="43.5599" lon="3.31026">
        <ele>277.8</ele>
        <time>2017-11-19T08:32:26Z</time>
      </trkpt>
      <trkpt lat="43.55988" lon="3.31023">
        <ele>277.6</ele>
        <time>2017-11-19T08:32:27Z</time>
      </trkpt>
      <trkpt lat="43.55984" lon="3.31021">
        <ele>277.3</ele>
        <time>2017-11-19T08:32:29Z</time>
      </trkpt>
      <trkpt lat="43.5598" lon="3.31019">
        <ele>276.7</ele>
        <time>2017-11-19T08:32:31Z</time>
      </trkpt>
      <trkpt lat="43.55978" lon="3.31017">
        <ele>276.3</ele>
        <time>2017-11-19T08:32:32Z</time>
      </trkpt>
      <trkpt lat="43.55975" lon="3.31014">
        <ele>275.9</ele>
        <time>2017-11-19T08:32:33Z</time>
      </trkpt>
      <trkpt lat="43.55973" lon="3.31009">
        <ele>275</ele>
        <time>2017-11-19T08:32:34Z</time>
      </trkpt>
      <trkpt lat="43.55972" lon="3.31003">
        <ele>273.2</ele>
        <time>2017-11-19T08:32:35Z</time>
      </trkpt>
      <trkpt lat="43.5597" lon="3.30997">
        <ele>271.1</ele>
        <time>2017-11-19T08:32:36Z</time>
      </trkpt>
      <trkpt lat="43.55969" lon="3.3099">
        <ele>269.1</ele>
        <time>2017-11-19T08:32:37Z</time>
      </trkpt>
      <trkpt lat="43.55968" lon="3.30985">
        <ele>267.5</ele>
        <time>2017-11-19T08:32:38Z</time>
      </trkpt>
      <trkpt lat="43.55965" lon="3.30983">
        <ele>266.2</ele>
        <time>2017-11-19T08:32:39Z</time>
      </trkpt>
      <trkpt lat="43.55961" lon="3.30981">
        <ele>264.9</ele>
        <time>2017-11-19T08:32:40Z</time>
      </trkpt>
      <trkpt lat="43.55957" lon="3.30978">
        <ele>264.1</ele>
        <time>2017-11-19T08:32:41Z</time>
      </trkpt>
      <trkpt lat="43.55953" lon="3.30974">
        <ele>263.6</ele>
        <time>2017-11-19T08:32:42Z</time>
      </trkpt>
      <trkpt lat="43.55948" lon="3.30972">
        <ele>263.2</ele>
        <time>2017-11-19T08:32:43Z</time>
      </trkpt>
      <trkpt lat="43.55945" lon="3.30967">
        <ele>263.1</ele>
        <time>2017-11-19T08:32:44Z</time>
      </trkpt>
      <trkpt lat="43.55944" lon="3.30962">
        <ele>263.1</ele>
        <time>2017-11-19T08:32:45Z</time>
      </trkpt>
      <trkpt lat="43.55943" lon="3.30955">
        <ele>263</ele>
        <time>2017-11-19T08:32:46Z</time>
      </trkpt>
      <trkpt lat="43.5594" lon="3.30951">
        <ele>263</ele>
        <time>2017-11-19T08:32:47Z</time>
      </trkpt>
      <trkpt lat="43.55937" lon="3.30947">
        <ele>263.2</ele>
        <time>2017-11-19T08:32:48Z</time>
      </trkpt>
      <trkpt lat="43.55934" lon="3.30944">
        <ele>263.4</ele>
        <time>2017-11-19T08:32:49Z</time>
      </trkpt>
      <trkpt lat="43.55931" lon="3.30942">
        <ele>263.6</ele>
        <time>2017-11-19T08:32:50Z</time>
      </trkpt>
      <trkpt lat="43.55928" lon="3.3094">
        <ele>263.8</ele>
        <time>2017-11-19T08:32:51Z</time>
      </trkpt>
      <trkpt lat="43.55926" lon="3.30936">
        <ele>264.1</ele>
        <time>2017-11-19T08:32:53Z</time>
      </trkpt>
      <trkpt lat="43.55923" lon="3.30935">
        <ele>264.4</ele>
        <time>2017-11-19T08:32:56Z</time>
      </trkpt>
      <trkpt lat="43.5592" lon="3.30933">
        <ele>264.7</ele>
        <time>2017-11-19T08:32:58Z</time>
      </trkpt>
      <trkpt lat="43.55917" lon="3.30931">
        <ele>265</ele>
        <time>2017-11-19T08:33:00Z</time>
      </trkpt>
      <trkpt lat="43.55914" lon="3.30928">
        <ele>265.5</ele>
        <time>2017-11-19T08:33:02Z</time>
      </trkpt>
      <trkpt lat="43.55911" lon="3.30925">
        <ele>266</ele>
        <time>2017-11-19T08:33:04Z</time>
      </trkpt>
      <trkpt lat="43.55908" lon="3.30923">
        <ele>266.5</ele>
        <time>2017-11-19T08:33:06Z</time>
      </trkpt>
      <trkpt lat="43.55905" lon="3.3092">
        <ele>267.1</ele>
        <time>2017-11-19T08:33:08Z</time>
      </trkpt>
      <trkpt lat="43.55903" lon="3.30917">
        <ele>267.8</ele>
        <time>2017-11-19T08:33:10Z</time>
      </trkpt>
      <trkpt lat="43.55902" lon="3.30913">
        <ele>268.4</ele>
        <time>2017-11-19T08:33:17Z</time>
      </trkpt>
      <trkpt lat="43.55901" lon="3.30909">
        <ele>269</ele>
        <time>2017-11-19T08:33:20Z</time>
      </trkpt>
      <trkpt lat="43.55899" lon="3.30904">
        <ele>270.1</ele>
        <time>2017-11-19T08:33:28Z</time>
      </trkpt>
      <trkpt lat="43.55888" lon="3.30892">
        <ele>271.4</ele>
        <time>2017-11-19T08:33:49Z</time>
      </trkpt>
      <trkpt lat="43.55885" lon="3.30887">
        <ele>271.5</ele>
        <time>2017-11-19T08:33:51Z</time>
      </trkpt>
      <trkpt lat="43.55883" lon="3.30883">
        <ele>271.7</ele>
        <time>2017-11-19T08:33:53Z</time>
      </trkpt>
      <trkpt lat="43.5588" lon="3.30879">
        <ele>272</ele>
        <time>2017-11-19T08:33:55Z</time>
      </trkpt>
      <trkpt lat="43.55877" lon="3.30876">
        <ele>272.5</ele>
        <time>2017-11-19T08:33:57Z</time>
      </trkpt>
      <trkpt lat="43.55873" lon="3.30874">
        <ele>273.1</ele>
        <time>2017-11-19T08:33:59Z</time>
      </trkpt>
      <trkpt lat="43.5587" lon="3.30871">
        <ele>273.6</ele>
        <time>2017-11-19T08:34:01Z</time>
      </trkpt>
      <trkpt lat="43.55868" lon="3.3087">
        <ele>274</ele>
        <time>2017-11-19T08:34:03Z</time>
      </trkpt>
      <trkpt lat="43.55864" lon="3.30869">
        <ele>274.3</ele>
        <time>2017-11-19T08:34:05Z</time>
      </trkpt>
      <trkpt lat="43.55862" lon="3.30869">
        <ele>274.5</ele>
        <time>2017-11-19T08:34:07Z</time>
      </trkpt>
      <trkpt lat="43.55859" lon="3.30868">
        <ele>274.7</ele>
        <time>2017-11-19T08:34:09Z</time>
      </trkpt>
      <trkpt lat="43.55857" lon="3.30865">
        <ele>274.8</ele>
        <time>2017-11-19T08:34:11Z</time>
      </trkpt>
      <trkpt lat="43.55855" lon="3.30862">
        <ele>274.9</ele>
        <time>2017-11-19T08:34:13Z</time>
      </trkpt>
      <trkpt lat="43.55853" lon="3.30858">
        <ele>275</ele>
        <time>2017-11-19T08:34:16Z</time>
      </trkpt>
      <trkpt lat="43.55852" lon="3.30854">
        <ele>275.1</ele>
        <time>2017-11-19T08:34:19Z</time>
      </trkpt>
      <trkpt lat="43.55853" lon="3.30848">
        <ele>275.3</ele>
        <time>2017-11-19T08:34:22Z</time>
      </trkpt>
      <trkpt lat="43.55853" lon="3.30844">
        <ele>275.5</ele>
        <time>2017-11-19T08:34:24Z</time>
      </trkpt>
      <trkpt lat="43.55854" lon="3.3084">
        <ele>275.8</ele>
        <time>2017-11-19T08:34:26Z</time>
      </trkpt>
      <trkpt lat="43.55855" lon="3.30834">
        <ele>276.2</ele>
        <time>2017-11-19T08:34:28Z</time>
      </trkpt>
      <trkpt lat="43.55856" lon="3.30828">
        <ele>276.4</ele>
        <time>2017-11-19T08:34:30Z</time>
      </trkpt>
      <trkpt lat="43.55858" lon="3.30822">
        <ele>276.5</ele>
        <time>2017-11-19T08:34:32Z</time>
      </trkpt>
      <trkpt lat="43.55859" lon="3.30817">
        <ele>276.5</ele>
        <time>2017-11-19T08:34:34Z</time>
      </trkpt>
      <trkpt lat="43.55859" lon="3.30811">
        <ele>276.4</ele>
        <time>2017-11-19T08:34:36Z</time>
      </trkpt>
      <trkpt lat="43.55858" lon="3.30807">
        <ele>276.3</ele>
        <time>2017-11-19T08:34:38Z</time>
      </trkpt>
      <trkpt lat="43.55857" lon="3.30801">
        <ele>276.4</ele>
        <time>2017-11-19T08:34:41Z</time>
      </trkpt>
      <trkpt lat="43.55856" lon="3.30797">
        <ele>276.6</ele>
        <time>2017-11-19T08:34:43Z</time>
      </trkpt>
      <trkpt lat="43.55855" lon="3.30793">
        <ele>276.9</ele>
        <time>2017-11-19T08:34:45Z</time>
      </trkpt>
      <trkpt lat="43.55855" lon="3.30786">
        <ele>277.4</ele>
        <time>2017-11-19T08:34:54Z</time>
      </trkpt>
      <trkpt lat="43.55856" lon="3.30779">
        <ele>277.9</ele>
        <time>2017-11-19T08:35:01Z</time>
      </trkpt>
      <trkpt lat="43.55856" lon="3.30775">
        <ele>278.2</ele>
        <time>2017-11-19T08:35:04Z</time>
      </trkpt>
      <trkpt lat="43.55855" lon="3.30769">
        <ele>278.6</ele>
        <time>2017-11-19T08:35:10Z</time>
      </trkpt>
      <trkpt lat="43.55852" lon="3.30766">
        <ele>279</ele>
        <time>2017-11-19T08:35:15Z</time>
      </trkpt>
      <trkpt lat="43.55846" lon="3.30763">
        <ele>279.5</ele>
        <time>2017-11-19T08:35:22Z</time>
      </trkpt>
      <trkpt lat="43.55846" lon="3.30758">
        <ele>279.4</ele>
        <time>2017-11-19T08:35:26Z</time>
      </trkpt>
      <trkpt lat="43.55847" lon="3.30752">
        <ele>279.2</ele>
        <time>2017-11-19T08:35:33Z</time>
      </trkpt>
      <trkpt lat="43.55846" lon="3.30744">
        <ele>279.1</ele>
        <time>2017-11-19T08:35:42Z</time>
      </trkpt>
      <trkpt lat="43.55846" lon="3.3074">
        <ele>279</ele>
        <time>2017-11-19T08:36:00Z</time>
      </trkpt>
      <trkpt lat="43.55843" lon="3.30741">
        <ele>278</ele>
        <time>2017-11-19T08:36:05Z</time>
      </trkpt>
      <trkpt lat="43.55839" lon="3.30741">
        <ele>277</ele>
        <time>2017-11-19T08:36:07Z</time>
      </trkpt>
      <trkpt lat="43.55837" lon="3.3074">
        <ele>276.2</ele>
        <time>2017-11-19T08:36:08Z</time>
      </trkpt>
      <trkpt lat="43.55832" lon="3.30741">
        <ele>274.9</ele>
        <time>2017-11-19T08:36:10Z</time>
      </trkpt>
      <trkpt lat="43.5583" lon="3.30744">
        <ele>274.1</ele>
        <time>2017-11-19T08:36:11Z</time>
      </trkpt>
      <trkpt lat="43.55826" lon="3.30748">
        <ele>272</ele>
        <time>2017-11-19T08:36:13Z</time>
      </trkpt>
      <trkpt lat="43.55823" lon="3.30748">
        <ele>270.6</ele>
        <time>2017-11-19T08:36:14Z</time>
      </trkpt>
      <trkpt lat="43.5582" lon="3.30753">
        <ele>268.9</ele>
        <time>2017-11-19T08:36:16Z</time>
      </trkpt>
      <trkpt lat="43.55816" lon="3.30758">
        <ele>267.7</ele>
        <time>2017-11-19T08:36:18Z</time>
      </trkpt>
      <trkpt lat="43.55813" lon="3.30759">
        <ele>267.1</ele>
        <time>2017-11-19T08:36:19Z</time>
      </trkpt>
      <trkpt lat="43.55809" lon="3.30758">
        <ele>266.4</ele>
        <time>2017-11-19T08:36:21Z</time>
      </trkpt>
      <trkpt lat="43.55804" lon="3.30759">
        <ele>265.4</ele>
        <time>2017-11-19T08:36:23Z</time>
      </trkpt>
      <trkpt lat="43.55801" lon="3.30758">
        <ele>264.7</ele>
        <time>2017-11-19T08:36:24Z</time>
      </trkpt>
      <trkpt lat="43.55797" lon="3.30756">
        <ele>263.9</ele>
        <time>2017-11-19T08:36:25Z</time>
      </trkpt>
      <trkpt lat="43.55793" lon="3.30754">
        <ele>263</ele>
        <time>2017-11-19T08:36:26Z</time>
      </trkpt>
      <trkpt lat="43.55789" lon="3.30753">
        <ele>262.3</ele>
        <time>2017-11-19T08:36:27Z</time>
      </trkpt>
      <trkpt lat="43.55785" lon="3.3075">
        <ele>261.6</ele>
        <time>2017-11-19T08:36:28Z</time>
      </trkpt>
      <trkpt lat="43.55781" lon="3.30747">
        <ele>260.9</ele>
        <time>2017-11-19T08:36:29Z</time>
      </trkpt>
      <trkpt lat="43.55777" lon="3.30745">
        <ele>260.4</ele>
        <time>2017-11-19T08:36:30Z</time>
      </trkpt>
      <trkpt lat="43.55772" lon="3.30742">
        <ele>260</ele>
        <time>2017-11-19T08:36:31Z</time>
      </trkpt>
      <trkpt lat="43.55767" lon="3.30739">
        <ele>259.6</ele>
        <time>2017-11-19T08:36:32Z</time>
      </trkpt>
      <trkpt lat="43.55762" lon="3.30737">
        <ele>259.3</ele>
        <time>2017-11-19T08:36:33Z</time>
      </trkpt>
      <trkpt lat="43.55757" lon="3.30733">
        <ele>258.8</ele>
        <time>2017-11-19T08:36:34Z</time>
      </trkpt>
      <trkpt lat="43.55753" lon="3.30729">
        <ele>258.3</ele>
        <time>2017-11-19T08:36:35Z</time>
      </trkpt>
      <trkpt lat="43.5575" lon="3.30726">
        <ele>257.9</ele>
        <time>2017-11-19T08:36:36Z</time>
      </trkpt>
      <trkpt lat="43.55747" lon="3.30725">
        <ele>257.6</ele>
        <time>2017-11-19T08:36:37Z</time>
      </trkpt>
      <trkpt lat="43.55744" lon="3.30722">
        <ele>257.4</ele>
        <time>2017-11-19T08:36:39Z</time>
      </trkpt>
      <trkpt lat="43.55743" lon="3.30718">
        <ele>257.2</ele>
        <time>2017-11-19T08:36:41Z</time>
      </trkpt>
      <trkpt lat="43.55737" lon="3.30716">
        <ele>256.8</ele>
        <time>2017-11-19T08:36:43Z</time>
      </trkpt>
      <trkpt lat="43.55733" lon="3.30713">
        <ele>256.5</ele>
        <time>2017-11-19T08:36:44Z</time>
      </trkpt>
      <trkpt lat="43.55729" lon="3.3071">
        <ele>256.2</ele>
        <time>2017-11-19T08:36:45Z</time>
      </trkpt>
      <trkpt lat="43.55725" lon="3.3071">
        <ele>255.9</ele>
        <time>2017-11-19T08:36:46Z</time>
      </trkpt>
      <trkpt lat="43.55721" lon="3.3071">
        <ele>255.5</ele>
        <time>2017-11-19T08:36:47Z</time>
      </trkpt>
      <trkpt lat="43.55718" lon="3.30707">
        <ele>255.2</ele>
        <time>2017-11-19T08:36:48Z</time>
      </trkpt>
      <trkpt lat="43.55715" lon="3.30705">
        <ele>254.9</ele>
        <time>2017-11-19T08:36:49Z</time>
      </trkpt>
      <trkpt lat="43.55712" lon="3.30702">
        <ele>254.4</ele>
        <time>2017-11-19T08:36:50Z</time>
      </trkpt>
      <trkpt lat="43.55709" lon="3.30701">
        <ele>254.1</ele>
        <time>2017-11-19T08:36:51Z</time>
      </trkpt>
      <trkpt lat="43.55706" lon="3.30699">
        <ele>253.8</ele>
        <time>2017-11-19T08:36:52Z</time>
      </trkpt>
      <trkpt lat="43.55703" lon="3.30696">
        <ele>253.5</ele>
        <time>2017-11-19T08:36:53Z</time>
      </trkpt>
      <trkpt lat="43.557" lon="3.30693">
        <ele>253.2</ele>
        <time>2017-11-19T08:36:54Z</time>
      </trkpt>
      <trkpt lat="43.55697" lon="3.3069">
        <ele>252.9</ele>
        <time>2017-11-19T08:36:55Z</time>
      </trkpt>
      <trkpt lat="43.55694" lon="3.30688">
        <ele>252.7</ele>
        <time>2017-11-19T08:36:56Z</time>
      </trkpt>
      <trkpt lat="43.55691" lon="3.30683">
        <ele>252.3</ele>
        <time>2017-11-19T08:36:57Z</time>
      </trkpt>
      <trkpt lat="43.55689" lon="3.30679">
        <ele>252</ele>
        <time>2017-11-19T08:36:58Z</time>
      </trkpt>
      <trkpt lat="43.55686" lon="3.30675">
        <ele>251.6</ele>
        <time>2017-11-19T08:36:59Z</time>
      </trkpt>
      <trkpt lat="43.55683" lon="3.3067">
        <ele>251.2</ele>
        <time>2017-11-19T08:37:00Z</time>
      </trkpt>
      <trkpt lat="43.55679" lon="3.30665">
        <ele>250.8</ele>
        <time>2017-11-19T08:37:01Z</time>
      </trkpt>
      <trkpt lat="43.55676" lon="3.30661">
        <ele>250.4</ele>
        <time>2017-11-19T08:37:02Z</time>
      </trkpt>
      <trkpt lat="43.55673" lon="3.30659">
        <ele>250</ele>
        <time>2017-11-19T08:37:03Z</time>
      </trkpt>
      <trkpt lat="43.55671" lon="3.30656">
        <ele>249.7</ele>
        <time>2017-11-19T08:37:06Z</time>
      </trkpt>
      <trkpt lat="43.55669" lon="3.30653">
        <ele>249.5</ele>
        <time>2017-11-19T08:37:08Z</time>
      </trkpt>
      <trkpt lat="43.55667" lon="3.30649">
        <ele>249.1</ele>
        <time>2017-11-19T08:37:10Z</time>
      </trkpt>
      <trkpt lat="43.55666" lon="3.30644">
        <ele>248.8</ele>
        <time>2017-11-19T08:37:12Z</time>
      </trkpt>
      <trkpt lat="43.55665" lon="3.30638">
        <ele>248.6</ele>
        <time>2017-11-19T08:37:14Z</time>
      </trkpt>
      <trkpt lat="43.55664" lon="3.30632">
        <ele>248.6</ele>
        <time>2017-11-19T08:37:16Z</time>
      </trkpt>
      <trkpt lat="43.55665" lon="3.30626">
        <ele>248.6</ele>
        <time>2017-11-19T08:37:18Z</time>
      </trkpt>
      <trkpt lat="43.55666" lon="3.30622">
        <ele>248.7</ele>
        <time>2017-11-19T08:37:19Z</time>
      </trkpt>
      <trkpt lat="43.55666" lon="3.30618">
        <ele>248.7</ele>
        <time>2017-11-19T08:37:20Z</time>
      </trkpt>
      <trkpt lat="43.55666" lon="3.30613">
        <ele>248.7</ele>
        <time>2017-11-19T08:37:21Z</time>
      </trkpt>
      <trkpt lat="43.55667" lon="3.30609">
        <ele>248.7</ele>
        <time>2017-11-19T08:37:22Z</time>
      </trkpt>
      <trkpt lat="43.55667" lon="3.30604">
        <ele>248.7</ele>
        <time>2017-11-19T08:37:23Z</time>
      </trkpt>
      <trkpt lat="43.55667" lon="3.30599">
        <ele>248.7</ele>
        <time>2017-11-19T08:37:24Z</time>
      </trkpt>
      <trkpt lat="43.55667" lon="3.30595">
        <ele>248.7</ele>
        <time>2017-11-19T08:37:25Z</time>
      </trkpt>
      <trkpt lat="43.55665" lon="3.30588">
        <ele>248.5</ele>
        <time>2017-11-19T08:37:27Z</time>
      </trkpt>
      <trkpt lat="43.55664" lon="3.30583">
        <ele>248.3</ele>
        <time>2017-11-19T08:37:29Z</time>
      </trkpt>
      <trkpt lat="43.55663" lon="3.30579">
        <ele>248</ele>
        <time>2017-11-19T08:37:30Z</time>
      </trkpt>
      <trkpt lat="43.55662" lon="3.30574">
        <ele>247.7</ele>
        <time>2017-11-19T08:37:31Z</time>
      </trkpt>
      <trkpt lat="43.5566" lon="3.3057">
        <ele>247.5</ele>
        <time>2017-11-19T08:37:32Z</time>
      </trkpt>
      <trkpt lat="43.55658" lon="3.30566">
        <ele>247.2</ele>
        <time>2017-11-19T08:37:33Z</time>
      </trkpt>
      <trkpt lat="43.55656" lon="3.30562">
        <ele>246.9</ele>
        <time>2017-11-19T08:37:34Z</time>
      </trkpt>
      <trkpt lat="43.55654" lon="3.30558">
        <ele>246.7</ele>
        <time>2017-11-19T08:37:35Z</time>
      </trkpt>
      <trkpt lat="43.55652" lon="3.30553">
        <ele>246.2</ele>
        <time>2017-11-19T08:37:36Z</time>
      </trkpt>
      <trkpt lat="43.5565" lon="3.30549">
        <ele>245.6</ele>
        <time>2017-11-19T08:37:37Z</time>
      </trkpt>
      <trkpt lat="43.55648" lon="3.30544">
        <ele>244.8</ele>
        <time>2017-11-19T08:37:38Z</time>
      </trkpt>
      <trkpt lat="43.55647" lon="3.3054">
        <ele>244.1</ele>
        <time>2017-11-19T08:37:39Z</time>
      </trkpt>
      <trkpt lat="43.55644" lon="3.30537">
        <ele>243.2</ele>
        <time>2017-11-19T08:37:40Z</time>
      </trkpt>
      <trkpt lat="43.55641" lon="3.30531">
        <ele>242</ele>
        <time>2017-11-19T08:37:41Z</time>
      </trkpt>
      <trkpt lat="43.55639" lon="3.30525">
        <ele>241.3</ele>
        <time>2017-11-19T08:37:42Z</time>
      </trkpt>
      <trkpt lat="43.55637" lon="3.30521">
        <ele>240.7</ele>
        <time>2017-11-19T08:37:43Z</time>
      </trkpt>
      <trkpt lat="43.55635" lon="3.30517">
        <ele>240.2</ele>
        <time>2017-11-19T08:37:44Z</time>
      </trkpt>
      <trkpt lat="43.55632" lon="3.30513">
        <ele>239.7</ele>
        <time>2017-11-19T08:37:45Z</time>
      </trkpt>
      <trkpt lat="43.55631" lon="3.30505">
        <ele>238.7</ele>
        <time>2017-11-19T08:37:47Z</time>
      </trkpt>
      <trkpt lat="43.5563" lon="3.305">
        <ele>238</ele>
        <time>2017-11-19T08:37:48Z</time>
      </trkpt>
      <trkpt lat="43.55629" lon="3.30494">
        <ele>237.3</ele>
        <time>2017-11-19T08:37:49Z</time>
      </trkpt>
      <trkpt lat="43.55627" lon="3.30489">
        <ele>236.6</ele>
        <time>2017-11-19T08:37:50Z</time>
      </trkpt>
      <trkpt lat="43.55626" lon="3.30484">
        <ele>236</ele>
        <time>2017-11-19T08:37:51Z</time>
      </trkpt>
      <trkpt lat="43.55626" lon="3.30478">
        <ele>235.2</ele>
        <time>2017-11-19T08:37:52Z</time>
      </trkpt>
      <trkpt lat="43.55626" lon="3.3047">
        <ele>234.1</ele>
        <time>2017-11-19T08:37:53Z</time>
      </trkpt>
      <trkpt lat="43.55624" lon="3.30461">
        <ele>232.7</ele>
        <time>2017-11-19T08:37:54Z</time>
      </trkpt>
      <trkpt lat="43.55621" lon="3.30453">
        <ele>231.6</ele>
        <time>2017-11-19T08:37:55Z</time>
      </trkpt>
      <trkpt lat="43.55616" lon="3.30446">
        <ele>231.1</ele>
        <time>2017-11-19T08:37:56Z</time>
      </trkpt>
      <trkpt lat="43.55611" lon="3.3044">
        <ele>230.5</ele>
        <time>2017-11-19T08:37:57Z</time>
      </trkpt>
      <trkpt lat="43.55605" lon="3.30432">
        <ele>229.8</ele>
        <time>2017-11-19T08:37:58Z</time>
      </trkpt>
      <trkpt lat="43.55599" lon="3.30424">
        <ele>229.2</ele>
        <time>2017-11-19T08:37:59Z</time>
      </trkpt>
      <trkpt lat="43.55593" lon="3.30416">
        <ele>228.5</ele>
        <time>2017-11-19T08:38:00Z</time>
      </trkpt>
      <trkpt lat="43.55587" lon="3.30409">
        <ele>227.9</ele>
        <time>2017-11-19T08:38:01Z</time>
      </trkpt>
      <trkpt lat="43.55582" lon="3.30404">
        <ele>227.3</ele>
        <time>2017-11-19T08:38:02Z</time>
      </trkpt>
      <trkpt lat="43.55577" lon="3.30399">
        <ele>226.5</ele>
        <time>2017-11-19T08:38:03Z</time>
      </trkpt>
      <trkpt lat="43.55574" lon="3.30395">
        <ele>225.9</ele>
        <time>2017-11-19T08:38:04Z</time>
      </trkpt>
      <trkpt lat="43.55571" lon="3.30392">
        <ele>225.4</ele>
        <time>2017-11-19T08:38:05Z</time>
      </trkpt>
      <trkpt lat="43.55569" lon="3.30389">
        <ele>225</ele>
        <time>2017-11-19T08:38:06Z</time>
      </trkpt>
      <trkpt lat="43.55568" lon="3.30386">
        <ele>224.6</ele>
        <time>2017-11-19T08:38:07Z</time>
      </trkpt>
      <trkpt lat="43.55566" lon="3.30382">
        <ele>224.3</ele>
        <time>2017-11-19T08:38:08Z</time>
      </trkpt>
      <trkpt lat="43.55564" lon="3.30379">
        <ele>224</ele>
        <time>2017-11-19T08:38:09Z</time>
      </trkpt>
      <trkpt lat="43.55563" lon="3.30377">
        <ele>223.7</ele>
        <time>2017-11-19T08:38:10Z</time>
      </trkpt>
      <trkpt lat="43.55559" lon="3.30371">
        <ele>223.4</ele>
        <time>2017-11-19T08:38:12Z</time>
      </trkpt>
      <trkpt lat="43.55557" lon="3.30368">
        <ele>223.3</ele>
        <time>2017-11-19T08:38:13Z</time>
      </trkpt>
      <trkpt lat="43.55555" lon="3.30365">
        <ele>223.3</ele>
        <time>2017-11-19T08:38:14Z</time>
      </trkpt>
      <trkpt lat="43.55553" lon="3.30362">
        <ele>223.2</ele>
        <time>2017-11-19T08:38:15Z</time>
      </trkpt>
      <trkpt lat="43.5555" lon="3.30356">
        <ele>223</ele>
        <time>2017-11-19T08:38:17Z</time>
      </trkpt>
      <trkpt lat="43.55547" lon="3.3035">
        <ele>222.6</ele>
        <time>2017-11-19T08:38:19Z</time>
      </trkpt>
      <trkpt lat="43.55544" lon="3.30345">
        <ele>222</ele>
        <time>2017-11-19T08:38:21Z</time>
      </trkpt>
      <trkpt lat="43.55542" lon="3.3034">
        <ele>221.4</ele>
        <time>2017-11-19T08:38:23Z</time>
      </trkpt>
      <trkpt lat="43.55539" lon="3.30336">
        <ele>221</ele>
        <time>2017-11-19T08:38:25Z</time>
      </trkpt>
      <trkpt lat="43.55535" lon="3.30332">
        <ele>220.3</ele>
        <time>2017-11-19T08:38:27Z</time>
      </trkpt>
      <trkpt lat="43.5553" lon="3.30331">
        <ele>219.6</ele>
        <time>2017-11-19T08:38:29Z</time>
      </trkpt>
      <trkpt lat="43.55526" lon="3.30329">
        <ele>218.9</ele>
        <time>2017-11-19T08:38:31Z</time>
      </trkpt>
      <trkpt lat="43.55522" lon="3.30328">
        <ele>217.9</ele>
        <time>2017-11-19T08:38:33Z</time>
      </trkpt>
      <trkpt lat="43.55517" lon="3.30329">
        <ele>216.6</ele>
        <time>2017-11-19T08:38:35Z</time>
      </trkpt>
      <trkpt lat="43.55514" lon="3.30329">
        <ele>215.8</ele>
        <time>2017-11-19T08:38:36Z</time>
      </trkpt>
      <trkpt lat="43.55511" lon="3.30331">
        <ele>214.9</ele>
        <time>2017-11-19T08:38:37Z</time>
      </trkpt>
      <trkpt lat="43.55508" lon="3.30333">
        <ele>214.1</ele>
        <time>2017-11-19T08:38:38Z</time>
      </trkpt>
      <trkpt lat="43.55505" lon="3.30336">
        <ele>204</ele>
        <time>2017-11-19T08:38:39Z</time>
      </trkpt>
      <trkpt lat="43.55501" lon="3.30339">
        <ele>203.4</ele>
        <time>2017-11-19T08:38:40Z</time>
      </trkpt>
      <trkpt lat="43.55498" lon="3.30343">
        <ele>202.9</ele>
        <time>2017-11-19T08:38:41Z</time>
      </trkpt>
      <trkpt lat="43.55495" lon="3.30347">
        <ele>202.5</ele>
        <time>2017-11-19T08:38:42Z</time>
      </trkpt>
      <trkpt lat="43.55492" lon="3.30352">
        <ele>202.1</ele>
        <time>2017-11-19T08:38:43Z</time>
      </trkpt>
      <trkpt lat="43.55488" lon="3.30357">
        <ele>201.7</ele>
        <time>2017-11-19T08:38:44Z</time>
      </trkpt>
      <trkpt lat="43.55485" lon="3.30362">
        <ele>201.3</ele>
        <time>2017-11-19T08:38:45Z</time>
      </trkpt>
      <trkpt lat="43.55482" lon="3.30367">
        <ele>201</ele>
        <time>2017-11-19T08:38:46Z</time>
      </trkpt>
      <trkpt lat="43.55479" lon="3.30371">
        <ele>200.6</ele>
        <time>2017-11-19T08:38:47Z</time>
      </trkpt>
      <trkpt lat="43.55476" lon="3.30375">
        <ele>200.2</ele>
        <time>2017-11-19T08:38:48Z</time>
      </trkpt>
      <trkpt lat="43.55473" lon="3.30378">
        <ele>199.7</ele>
        <time>2017-11-19T08:38:49Z</time>
      </trkpt>
      <trkpt lat="43.5547" lon="3.3038">
        <ele>199.4</ele>
        <time>2017-11-19T08:38:50Z</time>
      </trkpt>
      <trkpt lat="43.55467" lon="3.30385">
        <ele>199</ele>
        <time>2017-11-19T08:38:52Z</time>
      </trkpt>
      <trkpt lat="43.55465" lon="3.30388">
        <ele>198.8</ele>
        <time>2017-11-19T08:38:54Z</time>
      </trkpt>
      <trkpt lat="43.55463" lon="3.30392">
        <ele>198.7</ele>
        <time>2017-11-19T08:38:56Z</time>
      </trkpt>
      <trkpt lat="43.55461" lon="3.30394">
        <ele>198.7</ele>
        <time>2017-11-19T08:38:58Z</time>
      </trkpt>
      <trkpt lat="43.55458" lon="3.30397">
        <ele>198.8</ele>
        <time>2017-11-19T08:39:01Z</time>
      </trkpt>
      <trkpt lat="43.55456" lon="3.304">
        <ele>199</ele>
        <time>2017-11-19T08:39:03Z</time>
      </trkpt>
      <trkpt lat="43.55453" lon="3.30404">
        <ele>199.5</ele>
        <time>2017-11-19T08:39:06Z</time>
      </trkpt>
      <trkpt lat="43.55451" lon="3.30407">
        <ele>199.9</ele>
        <time>2017-11-19T08:39:08Z</time>
      </trkpt>
      <trkpt lat="43.55448" lon="3.30411">
        <ele>200.4</ele>
        <time>2017-11-19T08:39:11Z</time>
      </trkpt>
      <trkpt lat="43.55446" lon="3.30415">
        <ele>200.9</ele>
        <time>2017-11-19T08:39:14Z</time>
      </trkpt>
      <trkpt lat="43.55443" lon="3.30418">
        <ele>201.3</ele>
        <time>2017-11-19T08:39:17Z</time>
      </trkpt>
      <trkpt lat="43.55441" lon="3.30422">
        <ele>201.7</ele>
        <time>2017-11-19T08:39:20Z</time>
      </trkpt>
      <trkpt lat="43.55439" lon="3.30425">
        <ele>202.1</ele>
        <time>2017-11-19T08:39:23Z</time>
      </trkpt>
      <trkpt lat="43.55436" lon="3.30429">
        <ele>202.7</ele>
        <time>2017-11-19T08:39:26Z</time>
      </trkpt>
      <trkpt lat="43.55433" lon="3.30433">
        <ele>203.3</ele>
        <time>2017-11-19T08:39:29Z</time>
      </trkpt>
      <trkpt lat="43.55432" lon="3.30437">
        <ele>203.8</ele>
        <time>2017-11-19T08:39:32Z</time>
      </trkpt>
      <trkpt lat="43.55433" lon="3.30441">
        <ele>204.3</ele>
        <time>2017-11-19T08:39:34Z</time>
      </trkpt>
      <trkpt lat="43.55436" lon="3.30444">
        <ele>205</ele>
        <time>2017-11-19T08:39:37Z</time>
      </trkpt>
      <trkpt lat="43.5544" lon="3.30443">
        <ele>205.8</ele>
        <time>2017-11-19T08:39:40Z</time>
      </trkpt>
      <trkpt lat="43.55443" lon="3.30442">
        <ele>206.4</ele>
        <time>2017-11-19T08:39:42Z</time>
      </trkpt>
      <trkpt lat="43.55445" lon="3.3044">
        <ele>206.9</ele>
        <time>2017-11-19T08:39:44Z</time>
      </trkpt>
      <trkpt lat="43.55448" lon="3.30438">
        <ele>207.4</ele>
        <time>2017-11-19T08:39:47Z</time>
      </trkpt>
      <trkpt lat="43.55451" lon="3.30439">
        <ele>207.8</ele>
        <time>2017-11-19T08:39:49Z</time>
      </trkpt>
      <trkpt lat="43.55454" lon="3.30441">
        <ele>208.3</ele>
        <time>2017-11-19T08:39:51Z</time>
      </trkpt>
      <trkpt lat="43.55455" lon="3.30447">
        <ele>208.9</ele>
        <time>2017-11-19T08:39:54Z</time>
      </trkpt>
      <trkpt lat="43.55454" lon="3.3045">
        <ele>209.2</ele>
        <time>2017-11-19T08:39:56Z</time>
      </trkpt>
      <trkpt lat="43.55452" lon="3.30454">
        <ele>209.7</ele>
        <time>2017-11-19T08:39:59Z</time>
      </trkpt>
      <trkpt lat="43.55449" lon="3.30457">
        <ele>210.1</ele>
        <time>2017-11-19T08:40:02Z</time>
      </trkpt>
      <trkpt lat="43.55446" lon="3.3046">
        <ele>210.5</ele>
        <time>2017-11-19T08:40:05Z</time>
      </trkpt>
      <trkpt lat="43.55443" lon="3.30463">
        <ele>210.8</ele>
        <time>2017-11-19T08:40:08Z</time>
      </trkpt>
      <trkpt lat="43.5544" lon="3.30466">
        <ele>211.4</ele>
        <time>2017-11-19T08:40:11Z</time>
      </trkpt>
      <trkpt lat="43.55438" lon="3.30469">
        <ele>211.8</ele>
        <time>2017-11-19T08:40:14Z</time>
      </trkpt>
      <trkpt lat="43.55435" lon="3.30473">
        <ele>212.5</ele>
        <time>2017-11-19T08:40:17Z</time>
      </trkpt>
      <trkpt lat="43.55432" lon="3.30476">
        <ele>213.1</ele>
        <time>2017-11-19T08:40:20Z</time>
      </trkpt>
      <trkpt lat="43.5543" lon="3.30479">
        <ele>213.6</ele>
        <time>2017-11-19T08:40:23Z</time>
      </trkpt>
      <trkpt lat="43.55428" lon="3.30482">
        <ele>213.9</ele>
        <time>2017-11-19T08:40:26Z</time>
      </trkpt>
      <trkpt lat="43.55425" lon="3.30485">
        <ele>214.2</ele>
        <time>2017-11-19T08:40:29Z</time>
      </trkpt>
      <trkpt lat="43.55423" lon="3.30488">
        <ele>214.5</ele>
        <time>2017-11-19T08:40:32Z</time>
      </trkpt>
      <trkpt lat="43.5542" lon="3.30491">
        <ele>215</ele>
        <time>2017-11-19T08:40:35Z</time>
      </trkpt>
      <trkpt lat="43.55419" lon="3.30496">
        <ele>215.6</ele>
        <time>2017-11-19T08:40:38Z</time>
      </trkpt>
      <trkpt lat="43.5542" lon="3.305">
        <ele>216</ele>
        <time>2017-11-19T08:40:40Z</time>
      </trkpt>
      <trkpt lat="43.55422" lon="3.30502">
        <ele>216.5</ele>
        <time>2017-11-19T08:40:42Z</time>
      </trkpt>
      <trkpt lat="43.55425" lon="3.30504">
        <ele>216.8</ele>
        <time>2017-11-19T08:40:44Z</time>
      </trkpt>
      <trkpt lat="43.55428" lon="3.30505">
        <ele>217.2</ele>
        <time>2017-11-19T08:40:46Z</time>
      </trkpt>
      <trkpt lat="43.55432" lon="3.30505">
        <ele>217.6</ele>
        <time>2017-11-19T08:40:49Z</time>
      </trkpt>
      <trkpt lat="43.55435" lon="3.30505">
        <ele>218</ele>
        <time>2017-11-19T08:40:52Z</time>
      </trkpt>
      <trkpt lat="43.55437" lon="3.30509">
        <ele>218.6</ele>
        <time>2017-11-19T08:40:55Z</time>
      </trkpt>
      <trkpt lat="43.55437" lon="3.30515">
        <ele>219.3</ele>
        <time>2017-11-19T08:40:58Z</time>
      </trkpt>
      <trkpt lat="43.55435" lon="3.30518">
        <ele>219.7</ele>
        <time>2017-11-19T08:41:00Z</time>
      </trkpt>
      <trkpt lat="43.55433" lon="3.30521">
        <ele>220.2</ele>
        <time>2017-11-19T08:41:03Z</time>
      </trkpt>
      <trkpt lat="43.55431" lon="3.30526">
        <ele>220.7</ele>
        <time>2017-11-19T08:41:06Z</time>
      </trkpt>
      <trkpt lat="43.55429" lon="3.30529">
        <ele>221.2</ele>
        <time>2017-11-19T08:41:09Z</time>
      </trkpt>
      <trkpt lat="43.55426" lon="3.30532">
        <ele>221.6</ele>
        <time>2017-11-19T08:41:12Z</time>
      </trkpt>
      <trkpt lat="43.55424" lon="3.30534">
        <ele>221.9</ele>
        <time>2017-11-19T08:41:15Z</time>
      </trkpt>
      <trkpt lat="43.55422" lon="3.30537">
        <ele>222</ele>
        <time>2017-11-19T08:41:18Z</time>
      </trkpt>
      <trkpt lat="43.5542" lon="3.30541">
        <ele>222</ele>
        <time>2017-11-19T08:41:21Z</time>
      </trkpt>
      <trkpt lat="43.55419" lon="3.30545">
        <ele>222.2</ele>
        <time>2017-11-19T08:41:24Z</time>
      </trkpt>
      <trkpt lat="43.55417" lon="3.30549">
        <ele>222.4</ele>
        <time>2017-11-19T08:41:27Z</time>
      </trkpt>
      <trkpt lat="43.55416" lon="3.30553">
        <ele>222.7</ele>
        <time>2017-11-19T08:41:30Z</time>
      </trkpt>
      <trkpt lat="43.55415" lon="3.30558">
        <ele>223</ele>
        <time>2017-11-19T08:41:33Z</time>
      </trkpt>
      <trkpt lat="43.55414" lon="3.30562">
        <ele>223.1</ele>
        <time>2017-11-19T08:41:36Z</time>
      </trkpt>
      <trkpt lat="43.55412" lon="3.30567">
        <ele>223.1</ele>
        <time>2017-11-19T08:41:39Z</time>
      </trkpt>
      <trkpt lat="43.55411" lon="3.30572">
        <ele>223</ele>
        <time>2017-11-19T08:41:42Z</time>
      </trkpt>
      <trkpt lat="43.55409" lon="3.30576">
        <ele>222.9</ele>
        <time>2017-11-19T08:41:44Z</time>
      </trkpt>
      <trkpt lat="43.55407" lon="3.3058">
        <ele>222.8</ele>
        <time>2017-11-19T08:41:46Z</time>
      </trkpt>
      <trkpt lat="43.55404" lon="3.30585">
        <ele>222.7</ele>
        <time>2017-11-19T08:41:48Z</time>
      </trkpt>
      <trkpt lat="43.55402" lon="3.30587">
        <ele>222.7</ele>
        <time>2017-11-19T08:41:49Z</time>
      </trkpt>
      <trkpt lat="43.554" lon="3.3059">
        <ele>222.7</ele>
        <time>2017-11-19T08:41:50Z</time>
      </trkpt>
      <trkpt lat="43.55398" lon="3.30593">
        <ele>222.8</ele>
        <time>2017-11-19T08:41:51Z</time>
      </trkpt>
      <trkpt lat="43.55394" lon="3.30597">
        <ele>223.2</ele>
        <time>2017-11-19T08:41:53Z</time>
      </trkpt>
      <trkpt lat="43.55391" lon="3.306">
        <ele>223.5</ele>
        <time>2017-11-19T08:41:55Z</time>
      </trkpt>
      <trkpt lat="43.55389" lon="3.30604">
        <ele>223.8</ele>
        <time>2017-11-19T08:41:57Z</time>
      </trkpt>
      <trkpt lat="43.55386" lon="3.30608">
        <ele>223.9</ele>
        <time>2017-11-19T08:41:59Z</time>
      </trkpt>
      <trkpt lat="43.55382" lon="3.30613">
        <ele>223.9</ele>
        <time>2017-11-19T08:42:01Z</time>
      </trkpt>
      <trkpt lat="43.55379" lon="3.30616">
        <ele>223.8</ele>
        <time>2017-11-19T08:42:03Z</time>
      </trkpt>
      <trkpt lat="43.55376" lon="3.3062">
        <ele>223.7</ele>
        <time>2017-11-19T08:42:05Z</time>
      </trkpt>
      <trkpt lat="43.55373" lon="3.30622">
        <ele>223.6</ele>
        <time>2017-11-19T08:42:07Z</time>
      </trkpt>
      <trkpt lat="43.55371" lon="3.30625">
        <ele>223.5</ele>
        <time>2017-11-19T08:42:09Z</time>
      </trkpt>
      <trkpt lat="43.55369" lon="3.30628">
        <ele>223.5</ele>
        <time>2017-11-19T08:42:11Z</time>
      </trkpt>
      <trkpt lat="43.55366" lon="3.3063">
        <ele>223.5</ele>
        <time>2017-11-19T08:42:14Z</time>
      </trkpt>
      <trkpt lat="43.55363" lon="3.30634">
        <ele>223.7</ele>
        <time>2017-11-19T08:42:17Z</time>
      </trkpt>
      <trkpt lat="43.5536" lon="3.30637">
        <ele>224.1</ele>
        <time>2017-11-19T08:42:20Z</time>
      </trkpt>
      <trkpt lat="43.55357" lon="3.30639">
        <ele>224.4</ele>
        <time>2017-11-19T08:42:22Z</time>
      </trkpt>
      <trkpt lat="43.55354" lon="3.30641">
        <ele>224.7</ele>
        <time>2017-11-19T08:42:24Z</time>
      </trkpt>
      <trkpt lat="43.55351" lon="3.30643">
        <ele>224.9</ele>
        <time>2017-11-19T08:42:26Z</time>
      </trkpt>
      <trkpt lat="43.55348" lon="3.30645">
        <ele>225.2</ele>
        <time>2017-11-19T08:42:28Z</time>
      </trkpt>
      <trkpt lat="43.55346" lon="3.30647">
        <ele>225.7</ele>
        <time>2017-11-19T08:42:30Z</time>
      </trkpt>
      <trkpt lat="43.55343" lon="3.30649">
        <ele>226.1</ele>
        <time>2017-11-19T08:42:32Z</time>
      </trkpt>
      <trkpt lat="43.55341" lon="3.30652">
        <ele>226.7</ele>
        <time>2017-11-19T08:42:34Z</time>
      </trkpt>
      <trkpt lat="43.5534" lon="3.30658">
        <ele>227.3</ele>
        <time>2017-11-19T08:42:37Z</time>
      </trkpt>
      <trkpt lat="43.55342" lon="3.30661">
        <ele>227.7</ele>
        <time>2017-11-19T08:42:39Z</time>
      </trkpt>
      <trkpt lat="43.55345" lon="3.30663">
        <ele>228.1</ele>
        <time>2017-11-19T08:42:42Z</time>
      </trkpt>
      <trkpt lat="43.55347" lon="3.30664">
        <ele>228.4</ele>
        <time>2017-11-19T08:42:45Z</time>
      </trkpt>
      <trkpt lat="43.55351" lon="3.30663">
        <ele>229</ele>
        <time>2017-11-19T08:42:48Z</time>
      </trkpt>
      <trkpt lat="43.55355" lon="3.30663">
        <ele>229.6</ele>
        <time>2017-11-19T08:42:51Z</time>
      </trkpt>
      <trkpt lat="43.55359" lon="3.30664">
        <ele>230.3</ele>
        <time>2017-11-19T08:42:54Z</time>
      </trkpt>
      <trkpt lat="43.55363" lon="3.30664">
        <ele>231</ele>
        <time>2017-11-19T08:42:57Z</time>
      </trkpt>
      <trkpt lat="43.55366" lon="3.30665">
        <ele>231.7</ele>
        <time>2017-11-19T08:43:00Z</time>
      </trkpt>
      <trkpt lat="43.5537" lon="3.30666">
        <ele>232.3</ele>
        <time>2017-11-19T08:43:03Z</time>
      </trkpt>
      <trkpt lat="43.55373" lon="3.30666">
        <ele>232.7</ele>
        <time>2017-11-19T08:43:06Z</time>
      </trkpt>
      <trkpt lat="43.55376" lon="3.30665">
        <ele>233.1</ele>
        <time>2017-11-19T08:43:09Z</time>
      </trkpt>
      <trkpt lat="43.5538" lon="3.30665">
        <ele>233.5</ele>
        <time>2017-11-19T08:43:12Z</time>
      </trkpt>
      <trkpt lat="43.55384" lon="3.30664">
        <ele>234</ele>
        <time>2017-11-19T08:43:15Z</time>
      </trkpt>
      <trkpt lat="43.55387" lon="3.30664">
        <ele>234.5</ele>
        <time>2017-11-19T08:43:18Z</time>
      </trkpt>
      <trkpt lat="43.5539" lon="3.30661">
        <ele>235</ele>
        <time>2017-11-19T08:43:21Z</time>
      </trkpt>
      <trkpt lat="43.55392" lon="3.30658">
        <ele>235.4</ele>
        <time>2017-11-19T08:43:24Z</time>
      </trkpt>
      <trkpt lat="43.55395" lon="3.30657">
        <ele>235.8</ele>
        <time>2017-11-19T08:43:28Z</time>
      </trkpt>
      <trkpt lat="43.55398" lon="3.30656">
        <ele>236.1</ele>
        <time>2017-11-19T08:43:31Z</time>
      </trkpt>
      <trkpt lat="43.55401" lon="3.30655">
        <ele>236.4</ele>
        <time>2017-11-19T08:43:34Z</time>
      </trkpt>
      <trkpt lat="43.55404" lon="3.30656">
        <ele>236.8</ele>
        <time>2017-11-19T08:43:37Z</time>
      </trkpt>
      <trkpt lat="43.55406" lon="3.30658">
        <ele>237.1</ele>
        <time>2017-11-19T08:43:39Z</time>
      </trkpt>
      <trkpt lat="43.55407" lon="3.30663">
        <ele>237.5</ele>
        <time>2017-11-19T08:43:42Z</time>
      </trkpt>
      <trkpt lat="43.55405" lon="3.30666">
        <ele>237.7</ele>
        <time>2017-11-19T08:43:44Z</time>
      </trkpt>
      <trkpt lat="43.55402" lon="3.30669">
        <ele>238</ele>
        <time>2017-11-19T08:43:47Z</time>
      </trkpt>
      <trkpt lat="43.55399" lon="3.30672">
        <ele>238.5</ele>
        <time>2017-11-19T08:43:50Z</time>
      </trkpt>
      <trkpt lat="43.55395" lon="3.30675">
        <ele>238.9</ele>
        <time>2017-11-19T08:43:53Z</time>
      </trkpt>
      <trkpt lat="43.55393" lon="3.30676">
        <ele>239.1</ele>
        <time>2017-11-19T08:43:55Z</time>
      </trkpt>
      <trkpt lat="43.5539" lon="3.30678">
        <ele>239.2</ele>
        <time>2017-11-19T08:43:57Z</time>
      </trkpt>
      <trkpt lat="43.55387" lon="3.3068">
        <ele>239.1</ele>
        <time>2017-11-19T08:43:59Z</time>
      </trkpt>
      <trkpt lat="43.55385" lon="3.30683">
        <ele>239.1</ele>
        <time>2017-11-19T08:44:01Z</time>
      </trkpt>
      <trkpt lat="43.55382" lon="3.30685">
        <ele>239.1</ele>
        <time>2017-11-19T08:44:03Z</time>
      </trkpt>
      <trkpt lat="43.5538" lon="3.30687">
        <ele>239.2</ele>
        <time>2017-11-19T08:44:05Z</time>
      </trkpt>
      <trkpt lat="43.55377" lon="3.30688">
        <ele>239.5</ele>
        <time>2017-11-19T08:44:07Z</time>
      </trkpt>
      <trkpt lat="43.55374" lon="3.3069">
        <ele>239.8</ele>
        <time>2017-11-19T08:44:09Z</time>
      </trkpt>
      <trkpt lat="43.55372" lon="3.30692">
        <ele>240</ele>
        <time>2017-11-19T08:44:11Z</time>
      </trkpt>
      <trkpt lat="43.55369" lon="3.30694">
        <ele>240.2</ele>
        <time>2017-11-19T08:44:13Z</time>
      </trkpt>
      <trkpt lat="43.55366" lon="3.30696">
        <ele>240.4</ele>
        <time>2017-11-19T08:44:15Z</time>
      </trkpt>
      <trkpt lat="43.55363" lon="3.30698">
        <ele>240.5</ele>
        <time>2017-11-19T08:44:17Z</time>
      </trkpt>
      <trkpt lat="43.5536" lon="3.307">
        <ele>240.8</ele>
        <time>2017-11-19T08:44:19Z</time>
      </trkpt>
      <trkpt lat="43.55357" lon="3.30702">
        <ele>241.1</ele>
        <time>2017-11-19T08:44:21Z</time>
      </trkpt>
      <trkpt lat="43.55353" lon="3.30705">
        <ele>241.5</ele>
        <time>2017-11-19T08:44:23Z</time>
      </trkpt>
      <trkpt lat="43.55349" lon="3.30707">
        <ele>241.8</ele>
        <time>2017-11-19T08:44:25Z</time>
      </trkpt>
      <trkpt lat="43.55345" lon="3.3071">
        <ele>242.2</ele>
        <time>2017-11-19T08:44:27Z</time>
      </trkpt>
      <trkpt lat="43.55341" lon="3.30714">
        <ele>242.6</ele>
        <time>2017-11-19T08:44:29Z</time>
      </trkpt>
      <trkpt lat="43.55337" lon="3.30716">
        <ele>242.8</ele>
        <time>2017-11-19T08:44:31Z</time>
      </trkpt>
      <trkpt lat="43.55333" lon="3.30718">
        <ele>242.8</ele>
        <time>2017-11-19T08:44:33Z</time>
      </trkpt>
      <trkpt lat="43.55328" lon="3.30719">
        <ele>242.7</ele>
        <time>2017-11-19T08:44:35Z</time>
      </trkpt>
      <trkpt lat="43.55324" lon="3.30721">
        <ele>242.6</ele>
        <time>2017-11-19T08:44:37Z</time>
      </trkpt>
      <trkpt lat="43.5532" lon="3.30721">
        <ele>242.5</ele>
        <time>2017-11-19T08:44:39Z</time>
      </trkpt>
      <trkpt lat="43.55316" lon="3.30722">
        <ele>242.5</ele>
        <time>2017-11-19T08:44:41Z</time>
      </trkpt>
      <trkpt lat="43.55311" lon="3.30723">
        <ele>242.5</ele>
        <time>2017-11-19T08:44:43Z</time>
      </trkpt>
      <trkpt lat="43.55308" lon="3.30724">
        <ele>242.7</ele>
        <time>2017-11-19T08:44:45Z</time>
      </trkpt>
      <trkpt lat="43.55305" lon="3.30725">
        <ele>242.9</ele>
        <time>2017-11-19T08:44:47Z</time>
      </trkpt>
      <trkpt lat="43.55302" lon="3.30725">
        <ele>243.2</ele>
        <time>2017-11-19T08:44:49Z</time>
      </trkpt>
      <trkpt lat="43.55299" lon="3.30729">
        <ele>244</ele>
        <time>2017-11-19T08:44:57Z</time>
      </trkpt>
      <trkpt lat="43.55299" lon="3.30734">
        <ele>244</ele>
        <time>2017-11-19T08:44:59Z</time>
      </trkpt>
      <trkpt lat="43.553" lon="3.30738">
        <ele>244.2</ele>
        <time>2017-11-19T08:45:00Z</time>
      </trkpt>
      <trkpt lat="43.55301" lon="3.30742">
        <ele>244.6</ele>
        <time>2017-11-19T08:45:01Z</time>
      </trkpt>
      <trkpt lat="43.55302" lon="3.30747">
        <ele>245</ele>
        <time>2017-11-19T08:45:02Z</time>
      </trkpt>
      <trkpt lat="43.55303" lon="3.30752">
        <ele>245.5</ele>
        <time>2017-11-19T08:45:03Z</time>
      </trkpt>
      <trkpt lat="43.55305" lon="3.30757">
        <ele>246</ele>
        <time>2017-11-19T08:45:04Z</time>
      </trkpt>
      <trkpt lat="43.55306" lon="3.30763">
        <ele>246.7</ele>
        <time>2017-11-19T08:45:06Z</time>
      </trkpt>
      <trkpt lat="43.55306" lon="3.30767">
        <ele>247.1</ele>
        <time>2017-11-19T08:45:08Z</time>
      </trkpt>
      <trkpt lat="43.55307" lon="3.30771">
        <ele>247.5</ele>
        <time>2017-11-19T08:45:10Z</time>
      </trkpt>
      <trkpt lat="43.55308" lon="3.30776">
        <ele>247.9</ele>
        <time>2017-11-19T08:45:12Z</time>
      </trkpt>
      <trkpt lat="43.55309" lon="3.3078">
        <ele>248.4</ele>
        <time>2017-11-19T08:45:14Z</time>
      </trkpt>
      <trkpt lat="43.5531" lon="3.30785">
        <ele>248.9</ele>
        <time>2017-11-19T08:45:16Z</time>
      </trkpt>
      <trkpt lat="43.55311" lon="3.30789">
        <ele>249.3</ele>
        <time>2017-11-19T08:45:18Z</time>
      </trkpt>
      <trkpt lat="43.55313" lon="3.30794">
        <ele>249.8</ele>
        <time>2017-11-19T08:45:20Z</time>
      </trkpt>
      <trkpt lat="43.55315" lon="3.30799">
        <ele>250.3</ele>
        <time>2017-11-19T08:45:22Z</time>
      </trkpt>
      <trkpt lat="43.55316" lon="3.30804">
        <ele>250.9</ele>
        <time>2017-11-19T08:45:24Z</time>
      </trkpt>
      <trkpt lat="43.55317" lon="3.30809">
        <ele>251.4</ele>
        <time>2017-11-19T08:45:26Z</time>
      </trkpt>
      <trkpt lat="43.55317" lon="3.30813">
        <ele>251.9</ele>
        <time>2017-11-19T08:45:28Z</time>
      </trkpt>
      <trkpt lat="43.55317" lon="3.30817">
        <ele>252.3</ele>
        <time>2017-11-19T08:45:30Z</time>
      </trkpt>
      <trkpt lat="43.55318" lon="3.30821">
        <ele>252.7</ele>
        <time>2017-11-19T08:45:32Z</time>
      </trkpt>
      <trkpt lat="43.55318" lon="3.30825">
        <ele>253.3</ele>
        <time>2017-11-19T08:45:34Z</time>
      </trkpt>
      <trkpt lat="43.55319" lon="3.3083">
        <ele>253.9</ele>
        <time>2017-11-19T08:45:36Z</time>
      </trkpt>
      <trkpt lat="43.5532" lon="3.30834">
        <ele>254.6</ele>
        <time>2017-11-19T08:45:38Z</time>
      </trkpt>
      <trkpt lat="43.55321" lon="3.30839">
        <ele>255.3</ele>
        <time>2017-11-19T08:45:40Z</time>
      </trkpt>
      <trkpt lat="43.55322" lon="3.30843">
        <ele>256.2</ele>
        <time>2017-11-19T08:45:42Z</time>
      </trkpt>
      <trkpt lat="43.55324" lon="3.30848">
        <ele>257.3</ele>
        <time>2017-11-19T08:45:44Z</time>
      </trkpt>
      <trkpt lat="43.55326" lon="3.30851">
        <ele>258.3</ele>
        <time>2017-11-19T08:45:46Z</time>
      </trkpt>
      <trkpt lat="43.5533" lon="3.30851">
        <ele>259.5</ele>
        <time>2017-11-19T08:45:48Z</time>
      </trkpt>
      <trkpt lat="43.55333" lon="3.30851">
        <ele>260.6</ele>
        <time>2017-11-19T08:45:50Z</time>
      </trkpt>
      <trkpt lat="43.55337" lon="3.3085">
        <ele>261.5</ele>
        <time>2017-11-19T08:45:52Z</time>
      </trkpt>
      <trkpt lat="43.55339" lon="3.3085">
        <ele>262.2</ele>
        <time>2017-11-19T08:45:54Z</time>
      </trkpt>
      <trkpt lat="43.55343" lon="3.3085">
        <ele>263.1</ele>
        <time>2017-11-19T08:45:56Z</time>
      </trkpt>
      <trkpt lat="43.55346" lon="3.30849">
        <ele>264</ele>
        <time>2017-11-19T08:45:58Z</time>
      </trkpt>
      <trkpt lat="43.55349" lon="3.3085">
        <ele>265</ele>
        <time>2017-11-19T08:46:00Z</time>
      </trkpt>
      <trkpt lat="43.55353" lon="3.3085">
        <ele>266</ele>
        <time>2017-11-19T08:46:02Z</time>
      </trkpt>
      <trkpt lat="43.55356" lon="3.3085">
        <ele>266.9</ele>
        <time>2017-11-19T08:46:04Z</time>
      </trkpt>
      <trkpt lat="43.55359" lon="3.3085">
        <ele>267.7</ele>
        <time>2017-11-19T08:46:06Z</time>
      </trkpt>
      <trkpt lat="43.55362" lon="3.30849">
        <ele>268.4</ele>
        <time>2017-11-19T08:46:08Z</time>
      </trkpt>
      <trkpt lat="43.55365" lon="3.30848">
        <ele>269</ele>
        <time>2017-11-19T08:46:10Z</time>
      </trkpt>
      <trkpt lat="43.55368" lon="3.30848">
        <ele>269.7</ele>
        <time>2017-11-19T08:46:12Z</time>
      </trkpt>
      <trkpt lat="43.55372" lon="3.3085">
        <ele>270.5</ele>
        <time>2017-11-19T08:46:14Z</time>
      </trkpt>
      <trkpt lat="43.55376" lon="3.30851">
        <ele>271.4</ele>
        <time>2017-11-19T08:46:16Z</time>
      </trkpt>
      <trkpt lat="43.5538" lon="3.30853">
        <ele>272.2</ele>
        <time>2017-11-19T08:46:18Z</time>
      </trkpt>
      <trkpt lat="43.55383" lon="3.30853">
        <ele>272.9</ele>
        <time>2017-11-19T08:46:20Z</time>
      </trkpt>
      <trkpt lat="43.55386" lon="3.30853">
        <ele>273.7</ele>
        <time>2017-11-19T08:46:22Z</time>
      </trkpt>
      <trkpt lat="43.5539" lon="3.30853">
        <ele>274.5</ele>
        <time>2017-11-19T08:46:24Z</time>
      </trkpt>
      <trkpt lat="43.55393" lon="3.30854">
        <ele>275.5</ele>
        <time>2017-11-19T08:46:26Z</time>
      </trkpt>
      <trkpt lat="43.55397" lon="3.30854">
        <ele>276.3</ele>
        <time>2017-11-19T08:46:28Z</time>
      </trkpt>
      <trkpt lat="43.554" lon="3.30853">
        <ele>276.9</ele>
        <time>2017-11-19T08:46:30Z</time>
      </trkpt>
      <trkpt lat="43.55403" lon="3.30852">
        <ele>277.5</ele>
        <time>2017-11-19T08:46:32Z</time>
      </trkpt>
      <trkpt lat="43.55406" lon="3.30851">
        <ele>278.1</ele>
        <time>2017-11-19T08:46:34Z</time>
      </trkpt>
      <trkpt lat="43.5541" lon="3.30851">
        <ele>279.1</ele>
        <time>2017-11-19T08:46:36Z</time>
      </trkpt>
      <trkpt lat="43.55413" lon="3.3085">
        <ele>280.1</ele>
        <time>2017-11-19T08:46:38Z</time>
      </trkpt>
      <trkpt lat="43.55417" lon="3.30851">
        <ele>281.2</ele>
        <time>2017-11-19T08:46:40Z</time>
      </trkpt>
      <trkpt lat="43.55421" lon="3.30853">
        <ele>282.2</ele>
        <time>2017-11-19T08:46:42Z</time>
      </trkpt>
      <trkpt lat="43.55424" lon="3.30854">
        <ele>283</ele>
        <time>2017-11-19T08:46:44Z</time>
      </trkpt>
      <trkpt lat="43.55427" lon="3.30856">
        <ele>283.6</ele>
        <time>2017-11-19T08:46:46Z</time>
      </trkpt>
      <trkpt lat="43.55431" lon="3.30858">
        <ele>284.3</ele>
        <time>2017-11-19T08:46:48Z</time>
      </trkpt>
      <trkpt lat="43.55435" lon="3.30861">
        <ele>285.1</ele>
        <time>2017-11-19T08:46:50Z</time>
      </trkpt>
      <trkpt lat="43.55439" lon="3.30863">
        <ele>285.7</ele>
        <time>2017-11-19T08:46:52Z</time>
      </trkpt>
      <trkpt lat="43.55443" lon="3.30863">
        <ele>286.2</ele>
        <time>2017-11-19T08:46:54Z</time>
      </trkpt>
      <trkpt lat="43.55446" lon="3.30864">
        <ele>286.7</ele>
        <time>2017-11-19T08:46:56Z</time>
      </trkpt>
      <trkpt lat="43.5545" lon="3.30866">
        <ele>287.2</ele>
        <time>2017-11-19T08:46:58Z</time>
      </trkpt>
      <trkpt lat="43.55454" lon="3.30872">
        <ele>288</ele>
        <time>2017-11-19T08:47:00Z</time>
      </trkpt>
      <trkpt lat="43.55455" lon="3.30876">
        <ele>288.4</ele>
        <time>2017-11-19T08:47:01Z</time>
      </trkpt>
      <trkpt lat="43.55456" lon="3.3088">
        <ele>288.9</ele>
        <time>2017-11-19T08:47:02Z</time>
      </trkpt>
      <trkpt lat="43.55456" lon="3.30886">
        <ele>289.4</ele>
        <time>2017-11-19T08:47:03Z</time>
      </trkpt>
      <trkpt lat="43.55456" lon="3.30892">
        <ele>289.9</ele>
        <time>2017-11-19T08:47:04Z</time>
      </trkpt>
      <trkpt lat="43.55456" lon="3.30898">
        <ele>290.5</ele>
        <time>2017-11-19T08:47:05Z</time>
      </trkpt>
      <trkpt lat="43.55457" lon="3.30904">
        <ele>291</ele>
        <time>2017-11-19T08:47:06Z</time>
      </trkpt>
      <trkpt lat="43.55459" lon="3.30909">
        <ele>291.5</ele>
        <time>2017-11-19T08:47:07Z</time>
      </trkpt>
      <trkpt lat="43.55461" lon="3.30913">
        <ele>292</ele>
        <time>2017-11-19T08:47:08Z</time>
      </trkpt>
      <trkpt lat="43.55462" lon="3.30918">
        <ele>291.9</ele>
        <time>2017-11-19T08:47:09Z</time>
      </trkpt>
      <trkpt lat="43.55463" lon="3.30922">
        <ele>291.8</ele>
        <time>2017-11-19T08:47:10Z</time>
      </trkpt>
      <trkpt lat="43.55463" lon="3.30926">
        <ele>291.7</ele>
        <time>2017-11-19T08:47:11Z</time>
      </trkpt>
      <trkpt lat="43.55463" lon="3.3093">
        <ele>291.5</ele>
        <time>2017-11-19T08:47:12Z</time>
      </trkpt>
      <trkpt lat="43.55462" lon="3.30934">
        <ele>291.4</ele>
        <time>2017-11-19T08:47:13Z</time>
      </trkpt>
      <trkpt lat="43.55462" lon="3.30938">
        <ele>291.3</ele>
        <time>2017-11-19T08:47:14Z</time>
      </trkpt>
      <trkpt lat="43.55462" lon="3.30945">
        <ele>291.2</ele>
        <time>2017-11-19T08:47:16Z</time>
      </trkpt>
      <trkpt lat="43.55463" lon="3.30951">
        <ele>291.2</ele>
        <time>2017-11-19T08:47:18Z</time>
      </trkpt>
      <trkpt lat="43.55463" lon="3.30955">
        <ele>291.4</ele>
        <time>2017-11-19T08:47:20Z</time>
      </trkpt>
      <trkpt lat="43.55463" lon="3.3096">
        <ele>291.6</ele>
        <time>2017-11-19T08:47:22Z</time>
      </trkpt>
      <trkpt lat="43.55463" lon="3.30965">
        <ele>292</ele>
        <time>2017-11-19T08:47:24Z</time>
      </trkpt>
      <trkpt lat="43.55463" lon="3.30971">
        <ele>292.4</ele>
        <time>2017-11-19T08:47:26Z</time>
      </trkpt>
      <trkpt lat="43.55463" lon="3.30979">
        <ele>292.8</ele>
        <time>2017-11-19T08:47:28Z</time>
      </trkpt>
      <trkpt lat="43.55463" lon="3.30983">
        <ele>293</ele>
        <time>2017-11-19T08:47:29Z</time>
      </trkpt>
      <trkpt lat="43.55463" lon="3.30988">
        <ele>293.2</ele>
        <time>2017-11-19T08:47:30Z</time>
      </trkpt>
      <trkpt lat="43.55464" lon="3.30992">
        <ele>293.3</ele>
        <time>2017-11-19T08:47:31Z</time>
      </trkpt>
      <trkpt lat="43.55465" lon="3.30996">
        <ele>293.4</ele>
        <time>2017-11-19T08:47:32Z</time>
      </trkpt>
      <trkpt lat="43.55466" lon="3.31001">
        <ele>293.4</ele>
        <time>2017-11-19T08:47:33Z</time>
      </trkpt>
      <trkpt lat="43.55467" lon="3.31005">
        <ele>293.5</ele>
        <time>2017-11-19T08:47:34Z</time>
      </trkpt>
      <trkpt lat="43.55467" lon="3.31009">
        <ele>293.7</ele>
        <time>2017-11-19T08:47:35Z</time>
      </trkpt>
      <trkpt lat="43.55468" lon="3.31012">
        <ele>293.8</ele>
        <time>2017-11-19T08:47:36Z</time>
      </trkpt>
      <trkpt lat="43.55469" lon="3.31017">
        <ele>294</ele>
        <time>2017-11-19T08:47:37Z</time>
      </trkpt>
      <trkpt lat="43.55471" lon="3.31021">
        <ele>294.1</ele>
        <time>2017-11-19T08:47:38Z</time>
      </trkpt>
      <trkpt lat="43.55472" lon="3.31025">
        <ele>294.3</ele>
        <time>2017-11-19T08:47:39Z</time>
      </trkpt>
      <trkpt lat="43.55473" lon="3.31028">
        <ele>294.3</ele>
        <time>2017-11-19T08:47:40Z</time>
      </trkpt>
      <trkpt lat="43.55475" lon="3.31032">
        <ele>294.3</ele>
        <time>2017-11-19T08:47:41Z</time>
      </trkpt>
      <trkpt lat="43.55477" lon="3.31036">
        <ele>294.3</ele>
        <time>2017-11-19T08:47:42Z</time>
      </trkpt>
      <trkpt lat="43.55479" lon="3.31039">
        <ele>294.2</ele>
        <time>2017-11-19T08:47:43Z</time>
      </trkpt>
      <trkpt lat="43.5548" lon="3.31042">
        <ele>294.1</ele>
        <time>2017-11-19T08:47:44Z</time>
      </trkpt>
      <trkpt lat="43.55483" lon="3.31048">
        <ele>294</ele>
        <time>2017-11-19T08:47:46Z</time>
      </trkpt>
      <trkpt lat="43.55485" lon="3.31053">
        <ele>293.8</ele>
        <time>2017-11-19T08:47:48Z</time>
      </trkpt>
      <trkpt lat="43.55488" lon="3.3106">
        <ele>293.6</ele>
        <time>2017-11-19T08:47:50Z</time>
      </trkpt>
      <trkpt lat="43.55489" lon="3.31063">
        <ele>293.5</ele>
        <time>2017-11-19T08:47:51Z</time>
      </trkpt>
      <trkpt lat="43.55491" lon="3.31066">
        <ele>293.4</ele>
        <time>2017-11-19T08:47:52Z</time>
      </trkpt>
      <trkpt lat="43.55493" lon="3.31069">
        <ele>293.4</ele>
        <time>2017-11-19T08:47:53Z</time>
      </trkpt>
      <trkpt lat="43.55494" lon="3.31072">
        <ele>293.4</ele>
        <time>2017-11-19T08:47:54Z</time>
      </trkpt>
      <trkpt lat="43.55498" lon="3.31078">
        <ele>293.6</ele>
        <time>2017-11-19T08:47:56Z</time>
      </trkpt>
      <trkpt lat="43.55501" lon="3.31084">
        <ele>293.9</ele>
        <time>2017-11-19T08:47:58Z</time>
      </trkpt>
      <trkpt lat="43.55504" lon="3.31089">
        <ele>294.1</ele>
        <time>2017-11-19T08:48:00Z</time>
      </trkpt>
      <trkpt lat="43.55506" lon="3.31094">
        <ele>294.3</ele>
        <time>2017-11-19T08:48:02Z</time>
      </trkpt>
      <trkpt lat="43.55509" lon="3.311">
        <ele>294.3</ele>
        <time>2017-11-19T08:48:04Z</time>
      </trkpt>
      <trkpt lat="43.55511" lon="3.31106">
        <ele>294.4</ele>
        <time>2017-11-19T08:48:06Z</time>
      </trkpt>
      <trkpt lat="43.55513" lon="3.31113">
        <ele>294.7</ele>
        <time>2017-11-19T08:48:08Z</time>
      </trkpt>
      <trkpt lat="43.55514" lon="3.31117">
        <ele>294.9</ele>
        <time>2017-11-19T08:48:09Z</time>
      </trkpt>
      <trkpt lat="43.55515" lon="3.31121">
        <ele>295.1</ele>
        <time>2017-11-19T08:48:10Z</time>
      </trkpt>
      <trkpt lat="43.55516" lon="3.31126">
        <ele>295.2</ele>
        <time>2017-11-19T08:48:11Z</time>
      </trkpt>
      <trkpt lat="43.55517" lon="3.3113">
        <ele>295.4</ele>
        <time>2017-11-19T08:48:12Z</time>
      </trkpt>
      <trkpt lat="43.55519" lon="3.31135">
        <ele>295.5</ele>
        <time>2017-11-19T08:48:13Z</time>
      </trkpt>
      <trkpt lat="43.5552" lon="3.3114">
        <ele>295.5</ele>
        <time>2017-11-19T08:48:14Z</time>
      </trkpt>
      <trkpt lat="43.55522" lon="3.31144">
        <ele>295.4</ele>
        <time>2017-11-19T08:48:15Z</time>
      </trkpt>
      <trkpt lat="43.55524" lon="3.31149">
        <ele>295.4</ele>
        <time>2017-11-19T08:48:16Z</time>
      </trkpt>
      <trkpt lat="43.55525" lon="3.31153">
        <ele>295.3</ele>
        <time>2017-11-19T08:48:17Z</time>
      </trkpt>
      <trkpt lat="43.55527" lon="3.31157">
        <ele>295.2</ele>
        <time>2017-11-19T08:48:18Z</time>
      </trkpt>
      <trkpt lat="43.55529" lon="3.31161">
        <ele>295.1</ele>
        <time>2017-11-19T08:48:19Z</time>
      </trkpt>
      <trkpt lat="43.55531" lon="3.31166">
        <ele>295</ele>
        <time>2017-11-19T08:48:20Z</time>
      </trkpt>
      <trkpt lat="43.55532" lon="3.3117">
        <ele>294.9</ele>
        <time>2017-11-19T08:48:21Z</time>
      </trkpt>
      <trkpt lat="43.55533" lon="3.31175">
        <ele>294.8</ele>
        <time>2017-11-19T08:48:22Z</time>
      </trkpt>
      <trkpt lat="43.55534" lon="3.3118">
        <ele>294.6</ele>
        <time>2017-11-19T08:48:23Z</time>
      </trkpt>
      <trkpt lat="43.55535" lon="3.31186">
        <ele>294.4</ele>
        <time>2017-11-19T08:48:24Z</time>
      </trkpt>
      <trkpt lat="43.55536" lon="3.31191">
        <ele>294.1</ele>
        <time>2017-11-19T08:48:25Z</time>
      </trkpt>
      <trkpt lat="43.55537" lon="3.31198">
        <ele>293.8</ele>
        <time>2017-11-19T08:48:26Z</time>
      </trkpt>
      <trkpt lat="43.55539" lon="3.31204">
        <ele>293.4</ele>
        <time>2017-11-19T08:48:27Z</time>
      </trkpt>
      <trkpt lat="43.5554" lon="3.3121">
        <ele>293</ele>
        <time>2017-11-19T08:48:28Z</time>
      </trkpt>
      <trkpt lat="43.55541" lon="3.31216">
        <ele>292.7</ele>
        <time>2017-11-19T08:48:29Z</time>
      </trkpt>
      <trkpt lat="43.55543" lon="3.31222">
        <ele>292.5</ele>
        <time>2017-11-19T08:48:30Z</time>
      </trkpt>
      <trkpt lat="43.55545" lon="3.31227">
        <ele>292.2</ele>
        <time>2017-11-19T08:48:31Z</time>
      </trkpt>
      <trkpt lat="43.55547" lon="3.31232">
        <ele>292</ele>
        <time>2017-11-19T08:48:32Z</time>
      </trkpt>
      <trkpt lat="43.55549" lon="3.31236">
        <ele>291.9</ele>
        <time>2017-11-19T08:48:33Z</time>
      </trkpt>
      <trkpt lat="43.55551" lon="3.3124">
        <ele>291.7</ele>
        <time>2017-11-19T08:48:34Z</time>
      </trkpt>
      <trkpt lat="43.55553" lon="3.31244">
        <ele>291.6</ele>
        <time>2017-11-19T08:48:35Z</time>
      </trkpt>
      <trkpt lat="43.55555" lon="3.31248">
        <ele>291.5</ele>
        <time>2017-11-19T08:48:36Z</time>
      </trkpt>
      <trkpt lat="43.55557" lon="3.31251">
        <ele>291.4</ele>
        <time>2017-11-19T08:48:37Z</time>
      </trkpt>
      <trkpt lat="43.55559" lon="3.31254">
        <ele>291.3</ele>
        <time>2017-11-19T08:48:38Z</time>
      </trkpt>
      <trkpt lat="43.5556" lon="3.31257">
        <ele>291.2</ele>
        <time>2017-11-19T08:48:39Z</time>
      </trkpt>
      <trkpt lat="43.55562" lon="3.3126">
        <ele>291.2</ele>
        <time>2017-11-19T08:48:40Z</time>
      </trkpt>
      <trkpt lat="43.55563" lon="3.31263">
        <ele>291.1</ele>
        <time>2017-11-19T08:48:41Z</time>
      </trkpt>
      <trkpt lat="43.55565" lon="3.31266">
        <ele>290.9</ele>
        <time>2017-11-19T08:48:42Z</time>
      </trkpt>
      <trkpt lat="43.55568" lon="3.31268">
        <ele>290.8</ele>
        <time>2017-11-19T08:48:43Z</time>
      </trkpt>
      <trkpt lat="43.55571" lon="3.31269">
        <ele>290.7</ele>
        <time>2017-11-19T08:48:44Z</time>
      </trkpt>
      <trkpt lat="43.55574" lon="3.3127">
        <ele>290.5</ele>
        <time>2017-11-19T08:48:45Z</time>
      </trkpt>
      <trkpt lat="43.55577" lon="3.3127">
        <ele>290.2</ele>
        <time>2017-11-19T08:48:46Z</time>
      </trkpt>
      <trkpt lat="43.5558" lon="3.31271">
        <ele>290</ele>
        <time>2017-11-19T08:48:47Z</time>
      </trkpt>
      <trkpt lat="43.55583" lon="3.31271">
        <ele>289.9</ele>
        <time>2017-11-19T08:48:48Z</time>
      </trkpt>
      <trkpt lat="43.55586" lon="3.31271">
        <ele>289.8</ele>
        <time>2017-11-19T08:48:49Z</time>
      </trkpt>
      <trkpt lat="43.55589" lon="3.31272">
        <ele>289.7</ele>
        <time>2017-11-19T08:48:50Z</time>
      </trkpt>
      <trkpt lat="43.55592" lon="3.31273">
        <ele>289.7</ele>
        <time>2017-11-19T08:48:51Z</time>
      </trkpt>
      <trkpt lat="43.55595" lon="3.31274">
        <ele>289.6</ele>
        <time>2017-11-19T08:48:52Z</time>
      </trkpt>
      <trkpt lat="43.55598" lon="3.31275">
        <ele>289.5</ele>
        <time>2017-11-19T08:48:53Z</time>
      </trkpt>
      <trkpt lat="43.55602" lon="3.31275">
        <ele>289.3</ele>
        <time>2017-11-19T08:48:54Z</time>
      </trkpt>
      <trkpt lat="43.55605" lon="3.31276">
        <ele>289.1</ele>
        <time>2017-11-19T08:48:55Z</time>
      </trkpt>
      <trkpt lat="43.55609" lon="3.31277">
        <ele>288.9</ele>
        <time>2017-11-19T08:48:56Z</time>
      </trkpt>
      <trkpt lat="43.55613" lon="3.31278">
        <ele>288.6</ele>
        <time>2017-11-19T08:48:57Z</time>
      </trkpt>
      <trkpt lat="43.55618" lon="3.31278">
        <ele>288.5</ele>
        <time>2017-11-19T08:48:58Z</time>
      </trkpt>
      <trkpt lat="43.55623" lon="3.31278">
        <ele>288.3</ele>
        <time>2017-11-19T08:48:59Z</time>
      </trkpt>
      <trkpt lat="43.55628" lon="3.31279">
        <ele>288.1</ele>
        <time>2017-11-19T08:49:00Z</time>
      </trkpt>
      <trkpt lat="43.55633" lon="3.3128">
        <ele>287.7</ele>
        <time>2017-11-19T08:49:01Z</time>
      </trkpt>
      <trkpt lat="43.55639" lon="3.31281">
        <ele>287.2</ele>
        <time>2017-11-19T08:49:02Z</time>
      </trkpt>
      <trkpt lat="43.55645" lon="3.31283">
        <ele>286.9</ele>
        <time>2017-11-19T08:49:03Z</time>
      </trkpt>
      <trkpt lat="43.55652" lon="3.31284">
        <ele>286.4</ele>
        <time>2017-11-19T08:49:04Z</time>
      </trkpt>
      <trkpt lat="43.55658" lon="3.31286">
        <ele>286.1</ele>
        <time>2017-11-19T08:49:05Z</time>
      </trkpt>
      <trkpt lat="43.55665" lon="3.31286">
        <ele>285.9</ele>
        <time>2017-11-19T08:49:06Z</time>
      </trkpt>
      <trkpt lat="43.55671" lon="3.31287">
        <ele>285.7</ele>
        <time>2017-11-19T08:49:07Z</time>
      </trkpt>
      <trkpt lat="43.55677" lon="3.31286">
        <ele>285.6</ele>
        <time>2017-11-19T08:49:08Z</time>
      </trkpt>
      <trkpt lat="43.55681" lon="3.31282">
        <ele>285.5</ele>
        <time>2017-11-19T08:49:09Z</time>
      </trkpt>
      <trkpt lat="43.55685" lon="3.31278">
        <ele>285.4</ele>
        <time>2017-11-19T08:49:10Z</time>
      </trkpt>
      <trkpt lat="43.55689" lon="3.31279">
        <ele>285.2</ele>
        <time>2017-11-19T08:49:11Z</time>
      </trkpt>
      <trkpt lat="43.55693" lon="3.31278">
        <ele>285</ele>
        <time>2017-11-19T08:49:12Z</time>
      </trkpt>
      <trkpt lat="43.55696" lon="3.31274">
        <ele>285</ele>
        <time>2017-11-19T08:49:13Z</time>
      </trkpt>
      <trkpt lat="43.55699" lon="3.31268">
        <ele>284.9</ele>
        <time>2017-11-19T08:49:14Z</time>
      </trkpt>
      <trkpt lat="43.557" lon="3.3126">
        <ele>284.9</ele>
        <time>2017-11-19T08:49:15Z</time>
      </trkpt>
      <trkpt lat="43.55702" lon="3.31253">
        <ele>284.9</ele>
        <time>2017-11-19T08:49:16Z</time>
      </trkpt>
      <trkpt lat="43.55705" lon="3.31247">
        <ele>285</ele>
        <time>2017-11-19T08:49:17Z</time>
      </trkpt>
      <trkpt lat="43.5571" lon="3.31242">
        <ele>285</ele>
        <time>2017-11-19T08:49:18Z</time>
      </trkpt>
      <trkpt lat="43.55714" lon="3.31237">
        <ele>285.1</ele>
        <time>2017-11-19T08:49:19Z</time>
      </trkpt>
      <trkpt lat="43.55718" lon="3.31231">
        <ele>285.2</ele>
        <time>2017-11-19T08:49:20Z</time>
      </trkpt>
      <trkpt lat="43.55723" lon="3.31226">
        <ele>285.2</ele>
        <time>2017-11-19T08:49:21Z</time>
      </trkpt>
      <trkpt lat="43.55728" lon="3.31222">
        <ele>285.4</ele>
        <time>2017-11-19T08:49:22Z</time>
      </trkpt>
      <trkpt lat="43.55734" lon="3.3122">
        <ele>285.6</ele>
        <time>2017-11-19T08:49:23Z</time>
      </trkpt>
      <trkpt lat="43.55739" lon="3.31221">
        <ele>285.7</ele>
        <time>2017-11-19T08:49:24Z</time>
      </trkpt>
      <trkpt lat="43.55745" lon="3.3122">
        <ele>286</ele>
        <time>2017-11-19T08:49:25Z</time>
      </trkpt>
      <trkpt lat="43.5575" lon="3.31222">
        <ele>286.2</ele>
        <time>2017-11-19T08:49:26Z</time>
      </trkpt>
      <trkpt lat="43.55754" lon="3.31228">
        <ele>286.6</ele>
        <time>2017-11-19T08:49:27Z</time>
      </trkpt>
      <trkpt lat="43.55756" lon="3.31233">
        <ele>286.9</ele>
        <time>2017-11-19T08:49:28Z</time>
      </trkpt>
      <trkpt lat="43.55757" lon="3.31237">
        <ele>287.2</ele>
        <time>2017-11-19T08:49:29Z</time>
      </trkpt>
      <trkpt lat="43.55759" lon="3.31241">
        <ele>287.5</ele>
        <time>2017-11-19T08:49:30Z</time>
      </trkpt>
      <trkpt lat="43.55762" lon="3.31245">
        <ele>287.9</ele>
        <time>2017-11-19T08:49:32Z</time>
      </trkpt>
      <trkpt lat="43.55767" lon="3.31248">
        <ele>288.2</ele>
        <time>2017-11-19T08:49:34Z</time>
      </trkpt>
      <trkpt lat="43.5577" lon="3.31247">
        <ele>288.3</ele>
        <time>2017-11-19T08:49:35Z</time>
      </trkpt>
      <trkpt lat="43.55775" lon="3.31247">
        <ele>288.5</ele>
        <time>2017-11-19T08:49:37Z</time>
      </trkpt>
      <trkpt lat="43.55779" lon="3.31249">
        <ele>288.9</ele>
        <time>2017-11-19T08:49:39Z</time>
      </trkpt>
      <trkpt lat="43.55782" lon="3.31253">
        <ele>289.2</ele>
        <time>2017-11-19T08:49:41Z</time>
      </trkpt>
      <trkpt lat="43.55786" lon="3.31258">
        <ele>289.6</ele>
        <time>2017-11-19T08:49:43Z</time>
      </trkpt>
      <trkpt lat="43.55789" lon="3.31262">
        <ele>289.9</ele>
        <time>2017-11-19T08:49:45Z</time>
      </trkpt>
      <trkpt lat="43.55793" lon="3.31265">
        <ele>290.2</ele>
        <time>2017-11-19T08:49:47Z</time>
      </trkpt>
      <trkpt lat="43.55796" lon="3.31268">
        <ele>290.4</ele>
        <time>2017-11-19T08:49:49Z</time>
      </trkpt>
      <trkpt lat="43.55799" lon="3.31268">
        <ele>290.7</ele>
        <time>2017-11-19T08:49:51Z</time>
      </trkpt>
      <trkpt lat="43.55803" lon="3.31268">
        <ele>290.9</ele>
        <time>2017-11-19T08:49:53Z</time>
      </trkpt>
      <trkpt lat="43.55807" lon="3.31267">
        <ele>291.2</ele>
        <time>2017-11-19T08:49:55Z</time>
      </trkpt>
      <trkpt lat="43.55811" lon="3.31267">
        <ele>291.5</ele>
        <time>2017-11-19T08:49:57Z</time>
      </trkpt>
      <trkpt lat="43.55815" lon="3.31269">
        <ele>291.8</ele>
        <time>2017-11-19T08:49:59Z</time>
      </trkpt>
      <trkpt lat="43.55817" lon="3.31267">
        <ele>292</ele>
        <time>2017-11-19T08:50:01Z</time>
      </trkpt>
      <trkpt lat="43.5582" lon="3.31262">
        <ele>292.1</ele>
        <time>2017-11-19T08:50:03Z</time>
      </trkpt>
      <trkpt lat="43.55821" lon="3.31259">
        <ele>292.1</ele>
        <time>2017-11-19T08:50:04Z</time>
      </trkpt>
      <trkpt lat="43.55825" lon="3.31254">
        <ele>292.2</ele>
        <time>2017-11-19T08:50:06Z</time>
      </trkpt>
      <trkpt lat="43.55827" lon="3.31251">
        <ele>292.2</ele>
        <time>2017-11-19T08:50:07Z</time>
      </trkpt>
      <trkpt lat="43.55828" lon="3.31247">
        <ele>292.2</ele>
        <time>2017-11-19T08:50:08Z</time>
      </trkpt>
      <trkpt lat="43.55829" lon="3.31242">
        <ele>292.3</ele>
        <time>2017-11-19T08:50:09Z</time>
      </trkpt>
      <trkpt lat="43.5583" lon="3.31237">
        <ele>292.3</ele>
        <time>2017-11-19T08:50:10Z</time>
      </trkpt>
      <trkpt lat="43.55831" lon="3.31231">
        <ele>292.3</ele>
        <time>2017-11-19T08:50:11Z</time>
      </trkpt>
      <trkpt lat="43.55832" lon="3.31225">
        <ele>292.3</ele>
        <time>2017-11-19T08:50:12Z</time>
      </trkpt>
      <trkpt lat="43.55834" lon="3.31219">
        <ele>292.3</ele>
        <time>2017-11-19T08:50:13Z</time>
      </trkpt>
      <trkpt lat="43.55836" lon="3.31213">
        <ele>292.3</ele>
        <time>2017-11-19T08:50:14Z</time>
      </trkpt>
      <trkpt lat="43.55838" lon="3.31207">
        <ele>292.2</ele>
        <time>2017-11-19T08:50:15Z</time>
      </trkpt>
      <trkpt lat="43.5584" lon="3.312">
        <ele>292.2</ele>
        <time>2017-11-19T08:50:16Z</time>
      </trkpt>
      <trkpt lat="43.55842" lon="3.31193">
        <ele>292</ele>
        <time>2017-11-19T08:50:17Z</time>
      </trkpt>
      <trkpt lat="43.55844" lon="3.31186">
        <ele>291.9</ele>
        <time>2017-11-19T08:50:18Z</time>
      </trkpt>
      <trkpt lat="43.55847" lon="3.31179">
        <ele>291.8</ele>
        <time>2017-11-19T08:50:19Z</time>
      </trkpt>
      <trkpt lat="43.5585" lon="3.31172">
        <ele>291.6</ele>
        <time>2017-11-19T08:50:20Z</time>
      </trkpt>
      <trkpt lat="43.55853" lon="3.31164">
        <ele>291.5</ele>
        <time>2017-11-19T08:50:21Z</time>
      </trkpt>
      <trkpt lat="43.55857" lon="3.31157">
        <ele>291.3</ele>
        <time>2017-11-19T08:50:22Z</time>
      </trkpt>
      <trkpt lat="43.5586" lon="3.3115">
        <ele>291.2</ele>
        <time>2017-11-19T08:50:23Z</time>
      </trkpt>
      <trkpt lat="43.55864" lon="3.31143">
        <ele>291</ele>
        <time>2017-11-19T08:50:24Z</time>
      </trkpt>
      <trkpt lat="43.55868" lon="3.31136">
        <ele>290.9</ele>
        <time>2017-11-19T08:50:25Z</time>
      </trkpt>
      <trkpt lat="43.55871" lon="3.31131">
        <ele>290.8</ele>
        <time>2017-11-19T08:50:26Z</time>
      </trkpt>
      <trkpt lat="43.55874" lon="3.31126">
        <ele>290.7</ele>
        <time>2017-11-19T08:50:27Z</time>
      </trkpt>
      <trkpt lat="43.55878" lon="3.31122">
        <ele>290.7</ele>
        <time>2017-11-19T08:50:28Z</time>
      </trkpt>
      <trkpt lat="43.55883" lon="3.31119">
        <ele>290.6</ele>
        <time>2017-11-19T08:50:29Z</time>
      </trkpt>
      <trkpt lat="43.55886" lon="3.31114">
        <ele>290.6</ele>
        <time>2017-11-19T08:50:30Z</time>
      </trkpt>
      <trkpt lat="43.55888" lon="3.31108">
        <ele>290.5</ele>
        <time>2017-11-19T08:50:31Z</time>
      </trkpt>
      <trkpt lat="43.5589" lon="3.31103">
        <ele>290.4</ele>
        <time>2017-11-19T08:50:32Z</time>
      </trkpt>
      <trkpt lat="43.55893" lon="3.31098">
        <ele>290.3</ele>
        <time>2017-11-19T08:50:33Z</time>
      </trkpt>
      <trkpt lat="43.55895" lon="3.31095">
        <ele>290.3</ele>
        <time>2017-11-19T08:50:34Z</time>
      </trkpt>
      <trkpt lat="43.55899" lon="3.31094">
        <ele>290.2</ele>
        <time>2017-11-19T08:50:35Z</time>
      </trkpt>
      <trkpt lat="43.55902" lon="3.31094">
        <ele>290.2</ele>
        <time>2017-11-19T08:50:36Z</time>
      </trkpt>
      <trkpt lat="43.55906" lon="3.31095">
        <ele>290.2</ele>
        <time>2017-11-19T08:50:37Z</time>
      </trkpt>
      <trkpt lat="43.5591" lon="3.31095">
        <ele>290.2</ele>
        <time>2017-11-19T08:50:38Z</time>
      </trkpt>
      <trkpt lat="43.55914" lon="3.31095">
        <ele>290.1</ele>
        <time>2017-11-19T08:50:39Z</time>
      </trkpt>
      <trkpt lat="43.55918" lon="3.31094">
        <ele>290.1</ele>
        <time>2017-11-19T08:50:40Z</time>
      </trkpt>
      <trkpt lat="43.55923" lon="3.31094">
        <ele>290.1</ele>
        <time>2017-11-19T08:50:41Z</time>
      </trkpt>
      <trkpt lat="43.55927" lon="3.31095">
        <ele>290.1</ele>
        <time>2017-11-19T08:50:42Z</time>
      </trkpt>
      <trkpt lat="43.55931" lon="3.311">
        <ele>290</ele>
        <time>2017-11-19T08:50:43Z</time>
      </trkpt>
      <trkpt lat="43.55935" lon="3.31106">
        <ele>290</ele>
        <time>2017-11-19T08:50:44Z</time>
      </trkpt>
      <trkpt lat="43.55938" lon="3.31111">
        <ele>289.9</ele>
        <time>2017-11-19T08:50:45Z</time>
      </trkpt>
      <trkpt lat="43.55943" lon="3.31116">
        <ele>289.7</ele>
        <time>2017-11-19T08:50:46Z</time>
      </trkpt>
      <trkpt lat="43.55946" lon="3.31123">
        <ele>289.5</ele>
        <time>2017-11-19T08:50:47Z</time>
      </trkpt>
      <trkpt lat="43.55947" lon="3.31129">
        <ele>289.3</ele>
        <time>2017-11-19T08:50:48Z</time>
      </trkpt>
      <trkpt lat="43.55948" lon="3.31133">
        <ele>289.2</ele>
        <time>2017-11-19T08:50:49Z</time>
      </trkpt>
      <trkpt lat="43.55951" lon="3.31132">
        <ele>289.1</ele>
        <time>2017-11-19T08:50:51Z</time>
      </trkpt>
      <trkpt lat="43.55953" lon="3.31127">
        <ele>288.4</ele>
        <time>2017-11-19T08:50:52Z</time>
      </trkpt>
      <trkpt lat="43.55956" lon="3.31121">
        <ele>287.9</ele>
        <time>2017-11-19T08:50:53Z</time>
      </trkpt>
      <trkpt lat="43.5596" lon="3.31114">
        <ele>287.2</ele>
        <time>2017-11-19T08:50:54Z</time>
      </trkpt>
      <trkpt lat="43.55964" lon="3.31107">
        <ele>286</ele>
        <time>2017-11-19T08:50:55Z</time>
      </trkpt>
      <trkpt lat="43.55968" lon="3.31099">
        <ele>284.9</ele>
        <time>2017-11-19T08:50:56Z</time>
      </trkpt>
      <trkpt lat="43.55971" lon="3.31093">
        <ele>284</ele>
        <time>2017-11-19T08:50:57Z</time>
      </trkpt>
      <trkpt lat="43.55975" lon="3.31087">
        <ele>283.1</ele>
        <time>2017-11-19T08:50:58Z</time>
      </trkpt>
      <trkpt lat="43.55977" lon="3.31079">
        <ele>282.2</ele>
        <time>2017-11-19T08:50:59Z</time>
      </trkpt>
      <trkpt lat="43.55981" lon="3.31071">
        <ele>281.2</ele>
        <time>2017-11-19T08:51:00Z</time>
      </trkpt>
      <trkpt lat="43.55983" lon="3.31064">
        <ele>280.4</ele>
        <time>2017-11-19T08:51:01Z</time>
      </trkpt>
      <trkpt lat="43.55984" lon="3.31058">
        <ele>279.8</ele>
        <time>2017-11-19T08:51:02Z</time>
      </trkpt>
      <trkpt lat="43.55987" lon="3.31053">
        <ele>279</ele>
        <time>2017-11-19T08:51:08Z</time>
      </trkpt>
      <trkpt lat="43.55992" lon="3.31055">
        <ele>277.4</ele>
        <time>2017-11-19T08:51:21Z</time>
      </trkpt>
      <trkpt lat="43.55994" lon="3.31063">
        <ele>276.1</ele>
        <time>2017-11-19T08:51:23Z</time>
      </trkpt>
      <trkpt lat="43.55994" lon="3.31067">
        <ele>275.3</ele>
        <time>2017-11-19T08:51:24Z</time>
      </trkpt>
      <trkpt lat="43.55994" lon="3.31072">
        <ele>274.5</ele>
        <time>2017-11-19T08:51:25Z</time>
      </trkpt>
      <trkpt lat="43.55996" lon="3.31076">
        <ele>273.5</ele>
        <time>2017-11-19T08:51:26Z</time>
      </trkpt>
      <trkpt lat="43.55997" lon="3.31082">
        <ele>272.3</ele>
        <time>2017-11-19T08:51:27Z</time>
      </trkpt>
      <trkpt lat="43.55997" lon="3.31087">
        <ele>271.2</ele>
        <time>2017-11-19T08:51:28Z</time>
      </trkpt>
      <trkpt lat="43.56" lon="3.31094">
        <ele>270.3</ele>
        <time>2017-11-19T08:51:29Z</time>
      </trkpt>
      <trkpt lat="43.56003" lon="3.311">
        <ele>269.8</ele>
        <time>2017-11-19T08:51:30Z</time>
      </trkpt>
      <trkpt lat="43.56005" lon="3.31109">
        <ele>269.3</ele>
        <time>2017-11-19T08:51:31Z</time>
      </trkpt>
      <trkpt lat="43.56008" lon="3.31118">
        <ele>268.4</ele>
        <time>2017-11-19T08:51:32Z</time>
      </trkpt>
      <trkpt lat="43.56011" lon="3.31128">
        <ele>268</ele>
        <time>2017-11-19T08:51:33Z</time>
      </trkpt>
      <trkpt lat="43.56013" lon="3.31136">
        <ele>267.9</ele>
        <time>2017-11-19T08:51:34Z</time>
      </trkpt>
      <trkpt lat="43.56014" lon="3.31142">
        <ele>267.7</ele>
        <time>2017-11-19T08:51:35Z</time>
      </trkpt>
      <trkpt lat="43.56015" lon="3.31148">
        <ele>267.3</ele>
        <time>2017-11-19T08:51:36Z</time>
      </trkpt>
      <trkpt lat="43.56015" lon="3.31154">
        <ele>266.9</ele>
        <time>2017-11-19T08:51:37Z</time>
      </trkpt>
      <trkpt lat="43.56016" lon="3.3116">
        <ele>266.5</ele>
        <time>2017-11-19T08:51:38Z</time>
      </trkpt>
      <trkpt lat="43.56015" lon="3.31165">
        <ele>266.3</ele>
        <time>2017-11-19T08:51:39Z</time>
      </trkpt>
      <trkpt lat="43.56014" lon="3.3117">
        <ele>266.1</ele>
        <time>2017-11-19T08:51:40Z</time>
      </trkpt>
      <trkpt lat="43.56014" lon="3.31175">
        <ele>266.1</ele>
        <time>2017-11-19T08:51:41Z</time>
      </trkpt>
      <trkpt lat="43.56016" lon="3.31181">
        <ele>266.1</ele>
        <time>2017-11-19T08:51:42Z</time>
      </trkpt>
      <trkpt lat="43.56018" lon="3.31185">
        <ele>266</ele>
        <time>2017-11-19T08:51:43Z</time>
      </trkpt>
      <trkpt lat="43.5602" lon="3.31189">
        <ele>266</ele>
        <time>2017-11-19T08:51:44Z</time>
      </trkpt>
      <trkpt lat="43.56024" lon="3.31195">
        <ele>265.7</ele>
        <time>2017-11-19T08:51:45Z</time>
      </trkpt>
      <trkpt lat="43.56028" lon="3.31205">
        <ele>264.9</ele>
        <time>2017-11-19T08:51:46Z</time>
      </trkpt>
      <trkpt lat="43.56033" lon="3.31216">
        <ele>263.7</ele>
        <time>2017-11-19T08:51:47Z</time>
      </trkpt>
      <trkpt lat="43.56036" lon="3.31225">
        <ele>262.5</ele>
        <time>2017-11-19T08:51:48Z</time>
      </trkpt>
      <trkpt lat="43.56041" lon="3.31233">
        <ele>262.1</ele>
        <time>2017-11-19T08:51:49Z</time>
      </trkpt>
      <trkpt lat="43.56045" lon="3.31241">
        <ele>261.9</ele>
        <time>2017-11-19T08:51:50Z</time>
      </trkpt>
      <trkpt lat="43.56049" lon="3.31248">
        <ele>261.6</ele>
        <time>2017-11-19T08:51:51Z</time>
      </trkpt>
      <trkpt lat="43.56051" lon="3.31256">
        <ele>261</ele>
        <time>2017-11-19T08:51:52Z</time>
      </trkpt>
      <trkpt lat="43.56054" lon="3.31264">
        <ele>260.3</ele>
        <time>2017-11-19T08:51:53Z</time>
      </trkpt>
      <trkpt lat="43.56056" lon="3.31273">
        <ele>260.1</ele>
        <time>2017-11-19T08:51:54Z</time>
      </trkpt>
      <trkpt lat="43.56056" lon="3.31281">
        <ele>260.1</ele>
        <time>2017-11-19T08:51:55Z</time>
      </trkpt>
      <trkpt lat="43.56055" lon="3.31285">
        <ele>260.1</ele>
        <time>2017-11-19T08:51:56Z</time>
      </trkpt>
      <trkpt lat="43.56054" lon="3.3129">
        <ele>260.1</ele>
        <time>2017-11-19T08:51:57Z</time>
      </trkpt>
      <trkpt lat="43.56054" lon="3.31294">
        <ele>260.1</ele>
        <time>2017-11-19T08:51:58Z</time>
      </trkpt>
      <trkpt lat="43.56055" lon="3.313">
        <ele>260.1</ele>
        <time>2017-11-19T08:51:59Z</time>
      </trkpt>
      <trkpt lat="43.56054" lon="3.31306">
        <ele>260.2</ele>
        <time>2017-11-19T08:52:00Z</time>
      </trkpt>
      <trkpt lat="43.56054" lon="3.31312">
        <ele>260.2</ele>
        <time>2017-11-19T08:52:01Z</time>
      </trkpt>
      <trkpt lat="43.56054" lon="3.31317">
        <ele>260.2</ele>
        <time>2017-11-19T08:52:02Z</time>
      </trkpt>
      <trkpt lat="43.56054" lon="3.31323">
        <ele>260.2</ele>
        <time>2017-11-19T08:52:03Z</time>
      </trkpt>
      <trkpt lat="43.56054" lon="3.31331">
        <ele>260.2</ele>
        <time>2017-11-19T08:52:04Z</time>
      </trkpt>
      <trkpt lat="43.56054" lon="3.31338">
        <ele>260.1</ele>
        <time>2017-11-19T08:52:05Z</time>
      </trkpt>
      <trkpt lat="43.56054" lon="3.31347">
        <ele>259.9</ele>
        <time>2017-11-19T08:52:06Z</time>
      </trkpt>
      <trkpt lat="43.56053" lon="3.31355">
        <ele>259.4</ele>
        <time>2017-11-19T08:52:07Z</time>
      </trkpt>
      <trkpt lat="43.56053" lon="3.31364">
        <ele>258.9</ele>
        <time>2017-11-19T08:52:08Z</time>
      </trkpt>
      <trkpt lat="43.56052" lon="3.31372">
        <ele>258.6</ele>
        <time>2017-11-19T08:52:09Z</time>
      </trkpt>
      <trkpt lat="43.56052" lon="3.31382">
        <ele>258.4</ele>
        <time>2017-11-19T08:52:10Z</time>
      </trkpt>
      <trkpt lat="43.56052" lon="3.31393">
        <ele>258.3</ele>
        <time>2017-11-19T08:52:11Z</time>
      </trkpt>
      <trkpt lat="43.5605" lon="3.31402">
        <ele>257.9</ele>
        <time>2017-11-19T08:52:12Z</time>
      </trkpt>
      <trkpt lat="43.56049" lon="3.31412">
        <ele>257.1</ele>
        <time>2017-11-19T08:52:13Z</time>
      </trkpt>
      <trkpt lat="43.56049" lon="3.31421">
        <ele>256.7</ele>
        <time>2017-11-19T08:52:14Z</time>
      </trkpt>
      <trkpt lat="43.56049" lon="3.3143">
        <ele>256.5</ele>
        <time>2017-11-19T08:52:15Z</time>
      </trkpt>
      <trkpt lat="43.56047" lon="3.31439">
        <ele>256.5</ele>
        <time>2017-11-19T08:52:16Z</time>
      </trkpt>
      <trkpt lat="43.56046" lon="3.31446">
        <ele>256.5</ele>
        <time>2017-11-19T08:52:17Z</time>
      </trkpt>
      <trkpt lat="43.56046" lon="3.31454">
        <ele>256.5</ele>
        <time>2017-11-19T08:52:18Z</time>
      </trkpt>
      <trkpt lat="43.56045" lon="3.31465">
        <ele>256.5</ele>
        <time>2017-11-19T08:52:19Z</time>
      </trkpt>
      <trkpt lat="43.56042" lon="3.31475">
        <ele>256.4</ele>
        <time>2017-11-19T08:52:20Z</time>
      </trkpt>
      <trkpt lat="43.5604" lon="3.31483">
        <ele>256</ele>
        <time>2017-11-19T08:52:21Z</time>
      </trkpt>
      <trkpt lat="43.56037" lon="3.31493">
        <ele>255.5</ele>
        <time>2017-11-19T08:52:22Z</time>
      </trkpt>
      <trkpt lat="43.56034" lon="3.31501">
        <ele>255</ele>
        <time>2017-11-19T08:52:23Z</time>
      </trkpt>
      <trkpt lat="43.56031" lon="3.31507">
        <ele>254.9</ele>
        <time>2017-11-19T08:52:24Z</time>
      </trkpt>
      <trkpt lat="43.5603" lon="3.31513">
        <ele>254.8</ele>
        <time>2017-11-19T08:52:25Z</time>
      </trkpt>
      <trkpt lat="43.56028" lon="3.3152">
        <ele>254.8</ele>
        <time>2017-11-19T08:52:26Z</time>
      </trkpt>
      <trkpt lat="43.56027" lon="3.31528">
        <ele>254.8</ele>
        <time>2017-11-19T08:52:27Z</time>
      </trkpt>
      <trkpt lat="43.56025" lon="3.31536">
        <ele>254.8</ele>
        <time>2017-11-19T08:52:28Z</time>
      </trkpt>
      <trkpt lat="43.56023" lon="3.31544">
        <ele>254.3</ele>
        <time>2017-11-19T08:52:29Z</time>
      </trkpt>
      <trkpt lat="43.56022" lon="3.31553">
        <ele>253.3</ele>
        <time>2017-11-19T08:52:30Z</time>
      </trkpt>
      <trkpt lat="43.56021" lon="3.31563">
        <ele>253</ele>
        <time>2017-11-19T08:52:31Z</time>
      </trkpt>
      <trkpt lat="43.5602" lon="3.31573">
        <ele>252.9</ele>
        <time>2017-11-19T08:52:32Z</time>
      </trkpt>
      <trkpt lat="43.56017" lon="3.31583">
        <ele>252.9</ele>
        <time>2017-11-19T08:52:33Z</time>
      </trkpt>
      <trkpt lat="43.56014" lon="3.31593">
        <ele>252.6</ele>
        <time>2017-11-19T08:52:34Z</time>
      </trkpt>
      <trkpt lat="43.56012" lon="3.316">
        <ele>252.3</ele>
        <time>2017-11-19T08:52:35Z</time>
      </trkpt>
      <trkpt lat="43.56009" lon="3.31604">
        <ele>252</ele>
        <time>2017-11-19T08:52:36Z</time>
      </trkpt>
      <trkpt lat="43.56008" lon="3.31609">
        <ele>251.7</ele>
        <time>2017-11-19T08:52:37Z</time>
      </trkpt>
      <trkpt lat="43.56008" lon="3.31613">
        <ele>251.4</ele>
        <time>2017-11-19T08:52:38Z</time>
      </trkpt>
      <trkpt lat="43.5601" lon="3.31617">
        <ele>251.3</ele>
        <time>2017-11-19T08:52:39Z</time>
      </trkpt>
      <trkpt lat="43.5601" lon="3.31622">
        <ele>251.2</ele>
        <time>2017-11-19T08:52:40Z</time>
      </trkpt>
      <trkpt lat="43.56011" lon="3.31626">
        <ele>251.1</ele>
        <time>2017-11-19T08:52:41Z</time>
      </trkpt>
      <trkpt lat="43.56011" lon="3.31634">
        <ele>250.9</ele>
        <time>2017-11-19T08:52:43Z</time>
      </trkpt>
      <trkpt lat="43.56012" lon="3.31639">
        <ele>250.5</ele>
        <time>2017-11-19T08:52:44Z</time>
      </trkpt>
      <trkpt lat="43.56012" lon="3.31645">
        <ele>249.9</ele>
        <time>2017-11-19T08:52:45Z</time>
      </trkpt>
      <trkpt lat="43.56011" lon="3.3165">
        <ele>249.5</ele>
        <time>2017-11-19T08:52:46Z</time>
      </trkpt>
      <trkpt lat="43.56009" lon="3.31655">
        <ele>249.3</ele>
        <time>2017-11-19T08:52:47Z</time>
      </trkpt>
      <trkpt lat="43.56009" lon="3.3166">
        <ele>249.2</ele>
        <time>2017-11-19T08:52:48Z</time>
      </trkpt>
      <trkpt lat="43.5601" lon="3.31665">
        <ele>249.2</ele>
        <time>2017-11-19T08:52:49Z</time>
      </trkpt>
      <trkpt lat="43.56012" lon="3.31671">
        <ele>249.3</ele>
        <time>2017-11-19T08:52:50Z</time>
      </trkpt>
      <trkpt lat="43.56014" lon="3.31677">
        <ele>249.3</ele>
        <time>2017-11-19T08:52:51Z</time>
      </trkpt>
      <trkpt lat="43.56016" lon="3.31685">
        <ele>249.3</ele>
        <time>2017-11-19T08:52:52Z</time>
      </trkpt>
      <trkpt lat="43.56018" lon="3.31694">
        <ele>249.4</ele>
        <time>2017-11-19T08:52:53Z</time>
      </trkpt>
      <trkpt lat="43.5602" lon="3.31703">
        <ele>249.4</ele>
        <time>2017-11-19T08:52:54Z</time>
      </trkpt>
      <trkpt lat="43.56021" lon="3.31709">
        <ele>249.3</ele>
        <time>2017-11-19T08:52:55Z</time>
      </trkpt>
      <trkpt lat="43.56023" lon="3.31712">
        <ele>249</ele>
        <time>2017-11-19T08:52:56Z</time>
      </trkpt>
      <trkpt lat="43.56025" lon="3.31718">
        <ele>247.1</ele>
        <time>2017-11-19T08:52:58Z</time>
      </trkpt>
      <trkpt lat="43.56028" lon="3.31722">
        <ele>245.9</ele>
        <time>2017-11-19T08:52:59Z</time>
      </trkpt>
      <trkpt lat="43.5603" lon="3.31725">
        <ele>245.3</ele>
        <time>2017-11-19T08:53:00Z</time>
      </trkpt>
      <trkpt lat="43.56032" lon="3.31729">
        <ele>245</ele>
        <time>2017-11-19T08:53:01Z</time>
      </trkpt>
      <trkpt lat="43.56036" lon="3.3173">
        <ele>244.7</ele>
        <time>2017-11-19T08:53:03Z</time>
      </trkpt>
      <trkpt lat="43.56042" lon="3.31734">
        <ele>243.9</ele>
        <time>2017-11-19T08:53:17Z</time>
      </trkpt>
      <trkpt lat="43.56047" lon="3.31737">
        <ele>243.3</ele>
        <time>2017-11-19T08:53:19Z</time>
      </trkpt>
      <trkpt lat="43.56051" lon="3.3174">
        <ele>243.2</ele>
        <time>2017-11-19T08:53:20Z</time>
      </trkpt>
      <trkpt lat="43.56055" lon="3.31744">
        <ele>243</ele>
        <time>2017-11-19T08:53:21Z</time>
      </trkpt>
      <trkpt lat="43.56057" lon="3.31749">
        <ele>242.7</ele>
        <time>2017-11-19T08:53:22Z</time>
      </trkpt>
      <trkpt lat="43.56062" lon="3.31753">
        <ele>242.1</ele>
        <time>2017-11-19T08:53:23Z</time>
      </trkpt>
      <trkpt lat="43.56067" lon="3.31755">
        <ele>241.2</ele>
        <time>2017-11-19T08:53:24Z</time>
      </trkpt>
      <trkpt lat="43.56073" lon="3.31761">
        <ele>239.9</ele>
        <time>2017-11-19T08:53:25Z</time>
      </trkpt>
      <trkpt lat="43.56078" lon="3.31769">
        <ele>238.9</ele>
        <time>2017-11-19T08:53:26Z</time>
      </trkpt>
      <trkpt lat="43.56083" lon="3.31777">
        <ele>238</ele>
        <time>2017-11-19T08:53:27Z</time>
      </trkpt>
      <trkpt lat="43.56086" lon="3.31787">
        <ele>237.3</ele>
        <time>2017-11-19T08:53:28Z</time>
      </trkpt>
      <trkpt lat="43.56089" lon="3.31796">
        <ele>237.2</ele>
        <time>2017-11-19T08:53:29Z</time>
      </trkpt>
      <trkpt lat="43.5609" lon="3.31806">
        <ele>237.2</ele>
        <time>2017-11-19T08:53:30Z</time>
      </trkpt>
      <trkpt lat="43.56092" lon="3.31814">
        <ele>237.1</ele>
        <time>2017-11-19T08:53:31Z</time>
      </trkpt>
      <trkpt lat="43.56096" lon="3.3182">
        <ele>236.5</ele>
        <time>2017-11-19T08:53:32Z</time>
      </trkpt>
      <trkpt lat="43.56101" lon="3.31824">
        <ele>235.6</ele>
        <time>2017-11-19T08:53:33Z</time>
      </trkpt>
      <trkpt lat="43.56107" lon="3.3183">
        <ele>234.9</ele>
        <time>2017-11-19T08:53:34Z</time>
      </trkpt>
      <trkpt lat="43.56112" lon="3.31837">
        <ele>234.2</ele>
        <time>2017-11-19T08:53:35Z</time>
      </trkpt>
      <trkpt lat="43.56117" lon="3.31843">
        <ele>233.4</ele>
        <time>2017-11-19T08:53:36Z</time>
      </trkpt>
      <trkpt lat="43.56123" lon="3.3185">
        <ele>233.3</ele>
        <time>2017-11-19T08:53:37Z</time>
      </trkpt>
      <trkpt lat="43.56129" lon="3.31861">
        <ele>233.1</ele>
        <time>2017-11-19T08:53:38Z</time>
      </trkpt>
      <trkpt lat="43.56132" lon="3.3187">
        <ele>232.2</ele>
        <time>2017-11-19T08:53:39Z</time>
      </trkpt>
      <trkpt lat="43.56138" lon="3.31876">
        <ele>231</ele>
        <time>2017-11-19T08:53:40Z</time>
      </trkpt>
      <trkpt lat="43.56143" lon="3.31882">
        <ele>229.9</ele>
        <time>2017-11-19T08:53:41Z</time>
      </trkpt>
      <trkpt lat="43.56147" lon="3.31889">
        <ele>229.2</ele>
        <time>2017-11-19T08:53:42Z</time>
      </trkpt>
      <trkpt lat="43.56152" lon="3.31898">
        <ele>228.4</ele>
        <time>2017-11-19T08:53:43Z</time>
      </trkpt>
      <trkpt lat="43.56155" lon="3.31907">
        <ele>227.4</ele>
        <time>2017-11-19T08:53:44Z</time>
      </trkpt>
      <trkpt lat="43.56159" lon="3.31914">
        <ele>225.7</ele>
        <time>2017-11-19T08:53:45Z</time>
      </trkpt>
      <trkpt lat="43.56162" lon="3.31921">
        <ele>225.5</ele>
        <time>2017-11-19T08:53:46Z</time>
      </trkpt>
      <trkpt lat="43.56163" lon="3.31928">
        <ele>223.9</ele>
        <time>2017-11-19T08:53:47Z</time>
      </trkpt>
      <trkpt lat="43.56163" lon="3.31934">
        <ele>222.7</ele>
        <time>2017-11-19T08:53:48Z</time>
      </trkpt>
      <trkpt lat="43.56166" lon="3.31935">
        <ele>221.9</ele>
        <time>2017-11-19T08:53:55Z</time>
      </trkpt>
      <trkpt lat="43.56169" lon="3.31937">
        <ele>221.1</ele>
        <time>2017-11-19T08:53:57Z</time>
      </trkpt>
      <trkpt lat="43.56171" lon="3.31943">
        <ele>220.1</ele>
        <time>2017-11-19T08:53:59Z</time>
      </trkpt>
      <trkpt lat="43.56172" lon="3.3195">
        <ele>219</ele>
        <time>2017-11-19T08:54:01Z</time>
      </trkpt>
      <trkpt lat="43.56174" lon="3.31954">
        <ele>218.5</ele>
        <time>2017-11-19T08:54:02Z</time>
      </trkpt>
      <trkpt lat="43.56178" lon="3.31956">
        <ele>218</ele>
        <time>2017-11-19T08:54:03Z</time>
      </trkpt>
      <trkpt lat="43.56181" lon="3.31959">
        <ele>217.7</ele>
        <time>2017-11-19T08:54:04Z</time>
      </trkpt>
      <trkpt lat="43.56184" lon="3.31964">
        <ele>217.6</ele>
        <time>2017-11-19T08:54:05Z</time>
      </trkpt>
      <trkpt lat="43.56188" lon="3.31969">
        <ele>217.4</ele>
        <time>2017-11-19T08:54:06Z</time>
      </trkpt>
      <trkpt lat="43.56191" lon="3.31975">
        <ele>216.8</ele>
        <time>2017-11-19T08:54:07Z</time>
      </trkpt>
      <trkpt lat="43.56194" lon="3.3198">
        <ele>216.1</ele>
        <time>2017-11-19T08:54:08Z</time>
      </trkpt>
      <trkpt lat="43.56198" lon="3.31985">
        <ele>215.7</ele>
        <time>2017-11-19T08:54:09Z</time>
      </trkpt>
      <trkpt lat="43.56201" lon="3.31991">
        <ele>215.2</ele>
        <time>2017-11-19T08:54:10Z</time>
      </trkpt>
      <trkpt lat="43.56204" lon="3.31997">
        <ele>214.6</ele>
        <time>2017-11-19T08:54:11Z</time>
      </trkpt>
      <trkpt lat="43.56206" lon="3.32003">
        <ele>214.2</ele>
        <time>2017-11-19T08:54:12Z</time>
      </trkpt>
      <trkpt lat="43.56208" lon="3.32007">
        <ele>213.9</ele>
        <time>2017-11-19T08:54:13Z</time>
      </trkpt>
      <trkpt lat="43.56211" lon="3.32009">
        <ele>213.8</ele>
        <time>2017-11-19T08:54:14Z</time>
      </trkpt>
      <trkpt lat="43.56213" lon="3.32013">
        <ele>213.8</ele>
        <time>2017-11-19T08:54:15Z</time>
      </trkpt>
      <trkpt lat="43.56213" lon="3.32019">
        <ele>213.7</ele>
        <time>2017-11-19T08:54:17Z</time>
      </trkpt>
      <trkpt lat="43.56213" lon="3.32027">
        <ele>213.3</ele>
        <time>2017-11-19T08:54:19Z</time>
      </trkpt>
      <trkpt lat="43.56213" lon="3.32034">
        <ele>212.5</ele>
        <time>2017-11-19T08:54:21Z</time>
      </trkpt>
      <trkpt lat="43.56216" lon="3.32037">
        <ele>212.1</ele>
        <time>2017-11-19T08:54:22Z</time>
      </trkpt>
      <trkpt lat="43.56219" lon="3.32038">
        <ele>211.9</ele>
        <time>2017-11-19T08:54:23Z</time>
      </trkpt>
      <trkpt lat="43.56224" lon="3.32041">
        <ele>211.7</ele>
        <time>2017-11-19T08:54:24Z</time>
      </trkpt>
      <trkpt lat="43.56227" lon="3.32047">
        <ele>211</ele>
        <time>2017-11-19T08:54:25Z</time>
      </trkpt>
      <trkpt lat="43.5623" lon="3.32052">
        <ele>209.9</ele>
        <time>2017-11-19T08:54:26Z</time>
      </trkpt>
      <trkpt lat="43.56233" lon="3.32056">
        <ele>209.1</ele>
        <time>2017-11-19T08:54:27Z</time>
      </trkpt>
      <trkpt lat="43.56236" lon="3.3206">
        <ele>208.1</ele>
        <time>2017-11-19T08:54:28Z</time>
      </trkpt>
      <trkpt lat="43.56238" lon="3.32064">
        <ele>207.4</ele>
        <time>2017-11-19T08:54:29Z</time>
      </trkpt>
      <trkpt lat="43.5624" lon="3.32067">
        <ele>206.9</ele>
        <time>2017-11-19T08:54:30Z</time>
      </trkpt>
      <trkpt lat="43.56243" lon="3.32069">
        <ele>206.1</ele>
        <time>2017-11-19T08:54:32Z</time>
      </trkpt>
      <trkpt lat="43.56248" lon="3.32072">
        <ele>204.7</ele>
        <time>2017-11-19T08:54:34Z</time>
      </trkpt>
      <trkpt lat="43.56252" lon="3.32075">
        <ele>204</ele>
        <time>2017-11-19T08:54:35Z</time>
      </trkpt>
      <trkpt lat="43.56255" lon="3.32079">
        <ele>203.7</ele>
        <time>2017-11-19T08:54:36Z</time>
      </trkpt>
      <trkpt lat="43.56258" lon="3.32084">
        <ele>203.6</ele>
        <time>2017-11-19T08:54:37Z</time>
      </trkpt>
      <trkpt lat="43.56262" lon="3.32091">
        <ele>203.6</ele>
        <time>2017-11-19T08:54:38Z</time>
      </trkpt>
      <trkpt lat="43.56267" lon="3.32097">
        <ele>203.6</ele>
        <time>2017-11-19T08:54:39Z</time>
      </trkpt>
      <trkpt lat="43.56271" lon="3.32104">
        <ele>203.2</ele>
        <time>2017-11-19T08:54:40Z</time>
      </trkpt>
      <trkpt lat="43.56274" lon="3.32112">
        <ele>202.5</ele>
        <time>2017-11-19T08:54:41Z</time>
      </trkpt>
      <trkpt lat="43.56276" lon="3.32121">
        <ele>201.7</ele>
        <time>2017-11-19T08:54:42Z</time>
      </trkpt>
      <trkpt lat="43.56276" lon="3.3213">
        <ele>201.2</ele>
        <time>2017-11-19T08:54:43Z</time>
      </trkpt>
      <trkpt lat="43.56277" lon="3.32139">
        <ele>200.5</ele>
        <time>2017-11-19T08:54:44Z</time>
      </trkpt>
      <trkpt lat="43.56277" lon="3.32146">
        <ele>200</ele>
        <time>2017-11-19T08:54:45Z</time>
      </trkpt>
      <trkpt lat="43.56279" lon="3.32153">
        <ele>199.9</ele>
        <time>2017-11-19T08:54:46Z</time>
      </trkpt>
      <trkpt lat="43.56279" lon="3.32161">
        <ele>199.9</ele>
        <time>2017-11-19T08:54:47Z</time>
      </trkpt>
      <trkpt lat="43.56279" lon="3.32168">
        <ele>199.9</ele>
        <time>2017-11-19T08:54:48Z</time>
      </trkpt>
      <trkpt lat="43.5628" lon="3.32177">
        <ele>199.9</ele>
        <time>2017-11-19T08:54:49Z</time>
      </trkpt>
      <trkpt lat="43.56283" lon="3.32184">
        <ele>200</ele>
        <time>2017-11-19T08:54:50Z</time>
      </trkpt>
      <trkpt lat="43.56286" lon="3.32189">
        <ele>200</ele>
        <time>2017-11-19T08:54:51Z</time>
      </trkpt>
      <trkpt lat="43.5629" lon="3.32195">
        <ele>199.9</ele>
        <time>2017-11-19T08:54:52Z</time>
      </trkpt>
      <trkpt lat="43.56293" lon="3.322">
        <ele>199.6</ele>
        <time>2017-11-19T08:54:53Z</time>
      </trkpt>
      <trkpt lat="43.56295" lon="3.32205">
        <ele>199.1</ele>
        <time>2017-11-19T08:54:54Z</time>
      </trkpt>
      <trkpt lat="43.56297" lon="3.32208">
        <ele>198.6</ele>
        <time>2017-11-19T08:54:55Z</time>
      </trkpt>
      <trkpt lat="43.56299" lon="3.32212">
        <ele>198.2</ele>
        <time>2017-11-19T08:54:56Z</time>
      </trkpt>
      <trkpt lat="43.56302" lon="3.32215">
        <ele>197.7</ele>
        <time>2017-11-19T08:54:57Z</time>
      </trkpt>
      <trkpt lat="43.56304" lon="3.32218">
        <ele>197.2</ele>
        <time>2017-11-19T08:54:58Z</time>
      </trkpt>
      <trkpt lat="43.56308" lon="3.32224">
        <ele>196.5</ele>
        <time>2017-11-19T08:55:01Z</time>
      </trkpt>
      <trkpt lat="43.56311" lon="3.32226">
        <ele>196.1</ele>
        <time>2017-11-19T08:55:03Z</time>
      </trkpt>
      <trkpt lat="43.56315" lon="3.32226">
        <ele>196</ele>
        <time>2017-11-19T08:55:05Z</time>
      </trkpt>
      <trkpt lat="43.56318" lon="3.32225">
        <ele>196</ele>
        <time>2017-11-19T08:55:07Z</time>
      </trkpt>
      <trkpt lat="43.56322" lon="3.32225">
        <ele>195.7</ele>
        <time>2017-11-19T08:55:09Z</time>
      </trkpt>
      <trkpt lat="43.56324" lon="3.32227">
        <ele>195.2</ele>
        <time>2017-11-19T08:55:12Z</time>
      </trkpt>
      <trkpt lat="43.56327" lon="3.32231">
        <ele>194.3</ele>
        <time>2017-11-19T08:55:15Z</time>
      </trkpt>
      <trkpt lat="43.56329" lon="3.32234">
        <ele>194</ele>
        <time>2017-11-19T08:55:17Z</time>
      </trkpt>
      <trkpt lat="43.5633" lon="3.32239">
        <ele>193.8</ele>
        <time>2017-11-19T08:55:20Z</time>
      </trkpt>
      <trkpt lat="43.56332" lon="3.32243">
        <ele>193.2</ele>
        <time>2017-11-19T08:55:23Z</time>
      </trkpt>
      <trkpt lat="43.56335" lon="3.32246">
        <ele>192.5</ele>
        <time>2017-11-19T08:55:25Z</time>
      </trkpt>
      <trkpt lat="43.56338" lon="3.32249">
        <ele>192</ele>
        <time>2017-11-19T08:55:27Z</time>
      </trkpt>
      <trkpt lat="43.5634" lon="3.32253">
        <ele>191.4</ele>
        <time>2017-11-19T08:55:29Z</time>
      </trkpt>
      <trkpt lat="43.56342" lon="3.32257">
        <ele>190.9</ele>
        <time>2017-11-19T08:55:31Z</time>
      </trkpt>
      <trkpt lat="43.56343" lon="3.32262">
        <ele>190.3</ele>
        <time>2017-11-19T08:55:33Z</time>
      </trkpt>
      <trkpt lat="43.56345" lon="3.32266">
        <ele>189.5</ele>
        <time>2017-11-19T08:55:35Z</time>
      </trkpt>
      <trkpt lat="43.56347" lon="3.32272">
        <ele>188.4</ele>
        <time>2017-11-19T08:55:37Z</time>
      </trkpt>
      <trkpt lat="43.56347" lon="3.32276">
        <ele>187.6</ele>
        <time>2017-11-19T08:55:39Z</time>
      </trkpt>
      <trkpt lat="43.56349" lon="3.3228">
        <ele>186.9</ele>
        <time>2017-11-19T08:55:41Z</time>
      </trkpt>
      <trkpt lat="43.5635" lon="3.32284">
        <ele>186.1</ele>
        <time>2017-11-19T08:55:44Z</time>
      </trkpt>
      <trkpt lat="43.56352" lon="3.32289">
        <ele>185</ele>
        <time>2017-11-19T08:55:48Z</time>
      </trkpt>
      <trkpt lat="43.56353" lon="3.32293">
        <ele>184.3</ele>
        <time>2017-11-19T08:55:50Z</time>
      </trkpt>
      <trkpt lat="43.56355" lon="3.32296">
        <ele>183.8</ele>
        <time>2017-11-19T08:55:52Z</time>
      </trkpt>
      <trkpt lat="43.56357" lon="3.323">
        <ele>183.4</ele>
        <time>2017-11-19T08:55:54Z</time>
      </trkpt>
      <trkpt lat="43.5636" lon="3.32303">
        <ele>182.9</ele>
        <time>2017-11-19T08:55:56Z</time>
      </trkpt>
      <trkpt lat="43.56363" lon="3.32306">
        <ele>182.5</ele>
        <time>2017-11-19T08:55:58Z</time>
      </trkpt>
      <trkpt lat="43.56366" lon="3.32308">
        <ele>182.4</ele>
        <time>2017-11-19T08:56:00Z</time>
      </trkpt>
      <trkpt lat="43.56369" lon="3.32311">
        <ele>182.4</ele>
        <time>2017-11-19T08:56:02Z</time>
      </trkpt>
      <trkpt lat="43.56372" lon="3.32314">
        <ele>182.5</ele>
        <time>2017-11-19T08:56:04Z</time>
      </trkpt>
      <trkpt lat="43.56374" lon="3.32316">
        <ele>182.6</ele>
        <time>2017-11-19T08:56:06Z</time>
      </trkpt>
      <trkpt lat="43.56376" lon="3.32319">
        <ele>182.7</ele>
        <time>2017-11-19T08:56:08Z</time>
      </trkpt>
      <trkpt lat="43.56379" lon="3.32322">
        <ele>182.6</ele>
        <time>2017-11-19T08:56:10Z</time>
      </trkpt>
      <trkpt lat="43.56382" lon="3.32324">
        <ele>182.2</ele>
        <time>2017-11-19T08:56:12Z</time>
      </trkpt>
      <trkpt lat="43.56386" lon="3.32326">
        <ele>182.2</ele>
        <time>2017-11-19T08:56:14Z</time>
      </trkpt>
      <trkpt lat="43.56389" lon="3.32327">
        <ele>182.4</ele>
        <time>2017-11-19T08:56:16Z</time>
      </trkpt>
      <trkpt lat="43.56392" lon="3.32328">
        <ele>184.7</ele>
        <time>2017-11-19T08:56:18Z</time>
      </trkpt>
      <trkpt lat="43.56395" lon="3.3233">
        <ele>185.6</ele>
        <time>2017-11-19T08:56:20Z</time>
      </trkpt>
      <trkpt lat="43.56398" lon="3.32331">
        <ele>186.7</ele>
        <time>2017-11-19T08:56:22Z</time>
      </trkpt>
      <trkpt lat="43.56401" lon="3.32334">
        <ele>187.8</ele>
        <time>2017-11-19T08:56:25Z</time>
      </trkpt>
      <trkpt lat="43.56404" lon="3.32334">
        <ele>188.9</ele>
        <time>2017-11-19T08:56:27Z</time>
      </trkpt>
      <trkpt lat="43.56407" lon="3.32335">
        <ele>189.9</ele>
        <time>2017-11-19T08:56:29Z</time>
      </trkpt>
      <trkpt lat="43.5641" lon="3.32335">
        <ele>191</ele>
        <time>2017-11-19T08:56:31Z</time>
      </trkpt>
      <trkpt lat="43.56413" lon="3.32335">
        <ele>192.1</ele>
        <time>2017-11-19T08:56:33Z</time>
      </trkpt>
      <trkpt lat="43.56417" lon="3.32335">
        <ele>193</ele>
        <time>2017-11-19T08:56:35Z</time>
      </trkpt>
      <trkpt lat="43.5642" lon="3.32334">
        <ele>193.7</ele>
        <time>2017-11-19T08:56:37Z</time>
      </trkpt>
      <trkpt lat="43.56423" lon="3.32334">
        <ele>194.3</ele>
        <time>2017-11-19T08:56:39Z</time>
      </trkpt>
      <trkpt lat="43.56428" lon="3.32334">
        <ele>195.4</ele>
        <time>2017-11-19T08:56:41Z</time>
      </trkpt>
      <trkpt lat="43.56431" lon="3.32334">
        <ele>196</ele>
        <time>2017-11-19T08:56:42Z</time>
      </trkpt>
      <trkpt lat="43.56434" lon="3.32334">
        <ele>196.7</ele>
        <time>2017-11-19T08:56:43Z</time>
      </trkpt>
      <trkpt lat="43.56437" lon="3.32333">
        <ele>197.4</ele>
        <time>2017-11-19T08:56:44Z</time>
      </trkpt>
      <trkpt lat="43.56439" lon="3.32332">
        <ele>198.5</ele>
        <time>2017-11-19T08:56:45Z</time>
      </trkpt>
      <trkpt lat="43.56444" lon="3.3233">
        <ele>200.3</ele>
        <time>2017-11-19T08:56:47Z</time>
      </trkpt>
      <trkpt lat="43.56448" lon="3.32329">
        <ele>201.3</ele>
        <time>2017-11-19T08:56:49Z</time>
      </trkpt>
      <trkpt lat="43.56452" lon="3.32329">
        <ele>202.1</ele>
        <time>2017-11-19T08:56:51Z</time>
      </trkpt>
      <trkpt lat="43.56456" lon="3.32329">
        <ele>203</ele>
        <time>2017-11-19T08:56:53Z</time>
      </trkpt>
      <trkpt lat="43.5646" lon="3.32329">
        <ele>203.8</ele>
        <time>2017-11-19T08:56:55Z</time>
      </trkpt>
      <trkpt lat="43.56464" lon="3.32328">
        <ele>204.6</ele>
        <time>2017-11-19T08:56:57Z</time>
      </trkpt>
      <trkpt lat="43.56468" lon="3.32328">
        <ele>205.5</ele>
        <time>2017-11-19T08:56:59Z</time>
      </trkpt>
      <trkpt lat="43.56471" lon="3.32329">
        <ele>206.2</ele>
        <time>2017-11-19T08:57:01Z</time>
      </trkpt>
      <trkpt lat="43.56475" lon="3.32329">
        <ele>207.1</ele>
        <time>2017-11-19T08:57:03Z</time>
      </trkpt>
      <trkpt lat="43.56479" lon="3.32329">
        <ele>208</ele>
        <time>2017-11-19T08:57:05Z</time>
      </trkpt>
      <trkpt lat="43.56483" lon="3.3233">
        <ele>208.8</ele>
        <time>2017-11-19T08:57:07Z</time>
      </trkpt>
      <trkpt lat="43.56487" lon="3.32331">
        <ele>209.5</ele>
        <time>2017-11-19T08:57:09Z</time>
      </trkpt>
      <trkpt lat="43.56492" lon="3.32332">
        <ele>210.2</ele>
        <time>2017-11-19T08:57:11Z</time>
      </trkpt>
      <trkpt lat="43.56497" lon="3.32332">
        <ele>210.9</ele>
        <time>2017-11-19T08:57:13Z</time>
      </trkpt>
      <trkpt lat="43.56501" lon="3.32332">
        <ele>211.5</ele>
        <time>2017-11-19T08:57:15Z</time>
      </trkpt>
      <trkpt lat="43.56505" lon="3.32332">
        <ele>212.1</ele>
        <time>2017-11-19T08:57:17Z</time>
      </trkpt>
      <trkpt lat="43.56509" lon="3.32331">
        <ele>212.4</ele>
        <time>2017-11-19T08:57:19Z</time>
      </trkpt>
      <trkpt lat="43.56512" lon="3.32331">
        <ele>212.8</ele>
        <time>2017-11-19T08:57:21Z</time>
      </trkpt>
      <trkpt lat="43.56517" lon="3.3233">
        <ele>213.3</ele>
        <time>2017-11-19T08:57:23Z</time>
      </trkpt>
      <trkpt lat="43.56521" lon="3.32329">
        <ele>213.9</ele>
        <time>2017-11-19T08:57:25Z</time>
      </trkpt>
      <trkpt lat="43.56524" lon="3.32328">
        <ele>214.2</ele>
        <time>2017-11-19T08:57:26Z</time>
      </trkpt>
      <trkpt lat="43.56528" lon="3.32327">
        <ele>214.4</ele>
        <time>2017-11-19T08:57:28Z</time>
      </trkpt>
      <trkpt lat="43.56532" lon="3.32325">
        <ele>214.6</ele>
        <time>2017-11-19T08:57:30Z</time>
      </trkpt>
      <trkpt lat="43.56537" lon="3.32324">
        <ele>215.2</ele>
        <time>2017-11-19T08:57:32Z</time>
      </trkpt>
      <trkpt lat="43.56541" lon="3.32322">
        <ele>215.7</ele>
        <time>2017-11-19T08:57:34Z</time>
      </trkpt>
      <trkpt lat="43.56544" lon="3.32322">
        <ele>216.1</ele>
        <time>2017-11-19T08:57:35Z</time>
      </trkpt>
      <trkpt lat="43.56549" lon="3.3232">
        <ele>216.7</ele>
        <time>2017-11-19T08:57:37Z</time>
      </trkpt>
      <trkpt lat="43.56553" lon="3.32319">
        <ele>216.9</ele>
        <time>2017-11-19T08:57:39Z</time>
      </trkpt>
      <trkpt lat="43.56558" lon="3.32317">
        <ele>217.1</ele>
        <time>2017-11-19T08:57:41Z</time>
      </trkpt>
      <trkpt lat="43.56563" lon="3.32315">
        <ele>217.7</ele>
        <time>2017-11-19T08:57:43Z</time>
      </trkpt>
      <trkpt lat="43.56567" lon="3.32312">
        <ele>218.3</ele>
        <time>2017-11-19T08:57:45Z</time>
      </trkpt>
      <trkpt lat="43.56572" lon="3.32309">
        <ele>219</ele>
        <time>2017-11-19T08:57:47Z</time>
      </trkpt>
      <trkpt lat="43.56576" lon="3.32305">
        <ele>219.6</ele>
        <time>2017-11-19T08:57:49Z</time>
      </trkpt>
      <trkpt lat="43.56578" lon="3.32303">
        <ele>219.9</ele>
        <time>2017-11-19T08:57:50Z</time>
      </trkpt>
      <trkpt lat="43.56581" lon="3.32301">
        <ele>220.1</ele>
        <time>2017-11-19T08:57:51Z</time>
      </trkpt>
      <trkpt lat="43.56583" lon="3.32299">
        <ele>220.3</ele>
        <time>2017-11-19T08:57:52Z</time>
      </trkpt>
      <trkpt lat="43.56588" lon="3.32295">
        <ele>220.9</ele>
        <time>2017-11-19T08:57:54Z</time>
      </trkpt>
      <trkpt lat="43.56592" lon="3.32291">
        <ele>221.5</ele>
        <time>2017-11-19T08:57:56Z</time>
      </trkpt>
      <trkpt lat="43.56594" lon="3.32289">
        <ele>221.8</ele>
        <time>2017-11-19T08:57:57Z</time>
      </trkpt>
      <trkpt lat="43.56598" lon="3.32285">
        <ele>222.4</ele>
        <time>2017-11-19T08:57:59Z</time>
      </trkpt>
      <trkpt lat="43.56601" lon="3.3228">
        <ele>223</ele>
        <time>2017-11-19T08:58:01Z</time>
      </trkpt>
      <trkpt lat="43.56604" lon="3.32276">
        <ele>223.6</ele>
        <time>2017-11-19T08:58:03Z</time>
      </trkpt>
      <trkpt lat="43.56606" lon="3.32271">
        <ele>224.1</ele>
        <time>2017-11-19T08:58:05Z</time>
      </trkpt>
      <trkpt lat="43.56609" lon="3.32268">
        <ele>224.4</ele>
        <time>2017-11-19T08:58:07Z</time>
      </trkpt>
      <trkpt lat="43.56611" lon="3.32263">
        <ele>224.9</ele>
        <time>2017-11-19T08:58:09Z</time>
      </trkpt>
      <trkpt lat="43.56613" lon="3.32259">
        <ele>225.3</ele>
        <time>2017-11-19T08:58:11Z</time>
      </trkpt>
      <trkpt lat="43.56615" lon="3.32256">
        <ele>225.8</ele>
        <time>2017-11-19T08:58:13Z</time>
      </trkpt>
      <trkpt lat="43.56617" lon="3.32252">
        <ele>226.4</ele>
        <time>2017-11-19T08:58:15Z</time>
      </trkpt>
      <trkpt lat="43.56619" lon="3.32249">
        <ele>226.9</ele>
        <time>2017-11-19T08:58:17Z</time>
      </trkpt>
      <trkpt lat="43.56622" lon="3.32246">
        <ele>227.5</ele>
        <time>2017-11-19T08:58:19Z</time>
      </trkpt>
      <trkpt lat="43.56626" lon="3.32241">
        <ele>228.4</ele>
        <time>2017-11-19T08:58:21Z</time>
      </trkpt>
      <trkpt lat="43.56629" lon="3.32237">
        <ele>228.9</ele>
        <time>2017-11-19T08:58:23Z</time>
      </trkpt>
      <trkpt lat="43.56633" lon="3.32234">
        <ele>229.4</ele>
        <time>2017-11-19T08:58:25Z</time>
      </trkpt>
      <trkpt lat="43.56636" lon="3.32232">
        <ele>230</ele>
        <time>2017-11-19T08:58:27Z</time>
      </trkpt>
      <trkpt lat="43.56639" lon="3.3223">
        <ele>230.4</ele>
        <time>2017-11-19T08:58:29Z</time>
      </trkpt>
      <trkpt lat="43.56641" lon="3.32227">
        <ele>230.9</ele>
        <time>2017-11-19T08:58:31Z</time>
      </trkpt>
      <trkpt lat="43.56644" lon="3.32225">
        <ele>231.2</ele>
        <time>2017-11-19T08:58:33Z</time>
      </trkpt>
      <trkpt lat="43.56648" lon="3.3222">
        <ele>231.8</ele>
        <time>2017-11-19T08:58:37Z</time>
      </trkpt>
      <trkpt lat="43.56652" lon="3.32215">
        <ele>232.2</ele>
        <time>2017-11-19T08:58:41Z</time>
      </trkpt>
      <trkpt lat="43.56653" lon="3.3221">
        <ele>232.7</ele>
        <time>2017-11-19T08:58:43Z</time>
      </trkpt>
      <trkpt lat="43.56656" lon="3.32205">
        <ele>233.2</ele>
        <time>2017-11-19T08:58:45Z</time>
      </trkpt>
      <trkpt lat="43.56658" lon="3.32202">
        <ele>233.8</ele>
        <time>2017-11-19T08:58:46Z</time>
      </trkpt>
      <trkpt lat="43.56661" lon="3.32199">
        <ele>233.8</ele>
        <time>2017-11-19T08:58:48Z</time>
      </trkpt>
      <trkpt lat="43.56663" lon="3.32197">
        <ele>234.4</ele>
        <time>2017-11-19T08:58:50Z</time>
      </trkpt>
      <trkpt lat="43.56665" lon="3.32193">
        <ele>235</ele>
        <time>2017-11-19T08:58:53Z</time>
      </trkpt>
      <trkpt lat="43.56666" lon="3.32189">
        <ele>235.6</ele>
        <time>2017-11-19T08:58:55Z</time>
      </trkpt>
      <trkpt lat="43.56666" lon="3.32185">
        <ele>236.1</ele>
        <time>2017-11-19T08:58:58Z</time>
      </trkpt>
      <trkpt lat="43.56667" lon="3.32181">
        <ele>236.6</ele>
        <time>2017-11-19T08:59:01Z</time>
      </trkpt>
      <trkpt lat="43.56669" lon="3.32176">
        <ele>237.1</ele>
        <time>2017-11-19T08:59:04Z</time>
      </trkpt>
      <trkpt lat="43.56671" lon="3.32172">
        <ele>237.6</ele>
        <time>2017-11-19T08:59:06Z</time>
      </trkpt>
      <trkpt lat="43.56672" lon="3.32168">
        <ele>238</ele>
        <time>2017-11-19T08:59:07Z</time>
      </trkpt>
      <trkpt lat="43.56675" lon="3.32164">
        <ele>238.4</ele>
        <time>2017-11-19T08:59:09Z</time>
      </trkpt>
      <trkpt lat="43.56677" lon="3.3216">
        <ele>238.8</ele>
        <time>2017-11-19T08:59:11Z</time>
      </trkpt>
      <trkpt lat="43.56678" lon="3.32157">
        <ele>238.7</ele>
        <time>2017-11-19T08:59:13Z</time>
      </trkpt>
      <trkpt lat="43.56679" lon="3.32152">
        <ele>239.1</ele>
        <time>2017-11-19T08:59:17Z</time>
      </trkpt>
      <trkpt lat="43.5668" lon="3.32148">
        <ele>239.4</ele>
        <time>2017-11-19T08:59:20Z</time>
      </trkpt>
      <trkpt lat="43.56681" lon="3.32143">
        <ele>240.2</ele>
        <time>2017-11-19T08:59:23Z</time>
      </trkpt>
      <trkpt lat="43.56682" lon="3.32139">
        <ele>240.6</ele>
        <time>2017-11-19T08:59:26Z</time>
      </trkpt>
      <trkpt lat="43.56683" lon="3.32135">
        <ele>241</ele>
        <time>2017-11-19T08:59:29Z</time>
      </trkpt>
      <trkpt lat="43.56685" lon="3.32131">
        <ele>240.8</ele>
        <time>2017-11-19T08:59:32Z</time>
      </trkpt>
      <trkpt lat="43.56687" lon="3.32128">
        <ele>241.2</ele>
        <time>2017-11-19T08:59:34Z</time>
      </trkpt>
      <trkpt lat="43.56689" lon="3.32123">
        <ele>241.6</ele>
        <time>2017-11-19T08:59:37Z</time>
      </trkpt>
      <trkpt lat="43.56693" lon="3.32121">
        <ele>241.9</ele>
        <time>2017-11-19T08:59:39Z</time>
      </trkpt>
      <trkpt lat="43.56695" lon="3.32119">
        <ele>241.8</ele>
        <time>2017-11-19T08:59:41Z</time>
      </trkpt>
      <trkpt lat="43.56698" lon="3.32117">
        <ele>242.2</ele>
        <time>2017-11-19T08:59:43Z</time>
      </trkpt>
      <trkpt lat="43.56701" lon="3.32115">
        <ele>242.1</ele>
        <time>2017-11-19T08:59:45Z</time>
      </trkpt>
      <trkpt lat="43.56703" lon="3.32113">
        <ele>242.5</ele>
        <time>2017-11-19T08:59:47Z</time>
      </trkpt>
      <trkpt lat="43.56706" lon="3.3211">
        <ele>242.5</ele>
        <time>2017-11-19T08:59:50Z</time>
      </trkpt>
      <trkpt lat="43.56709" lon="3.32107">
        <ele>242.9</ele>
        <time>2017-11-19T08:59:52Z</time>
      </trkpt>
      <trkpt lat="43.56712" lon="3.32105">
        <ele>242.9</ele>
        <time>2017-11-19T08:59:55Z</time>
      </trkpt>
      <trkpt lat="43.56715" lon="3.32101">
        <ele>243.2</ele>
        <time>2017-11-19T08:59:58Z</time>
      </trkpt>
      <trkpt lat="43.56717" lon="3.32099">
        <ele>243.5</ele>
        <time>2017-11-19T09:00:00Z</time>
      </trkpt>
      <trkpt lat="43.5672" lon="3.32097">
        <ele>243.5</ele>
        <time>2017-11-19T09:00:02Z</time>
      </trkpt>
      <trkpt lat="43.56723" lon="3.32095">
        <ele>243.8</ele>
        <time>2017-11-19T09:00:04Z</time>
      </trkpt>
      <trkpt lat="43.56726" lon="3.32092">
        <ele>243.8</ele>
        <time>2017-11-19T09:00:06Z</time>
      </trkpt>
      <trkpt lat="43.5673" lon="3.32089">
        <ele>244.1</ele>
        <time>2017-11-19T09:00:08Z</time>
      </trkpt>
      <trkpt lat="43.56734" lon="3.32085">
        <ele>244.5</ele>
        <time>2017-11-19T09:00:10Z</time>
      </trkpt>
      <trkpt lat="43.56737" lon="3.32082">
        <ele>244.8</ele>
        <time>2017-11-19T09:00:11Z</time>
      </trkpt>
      <trkpt lat="43.56741" lon="3.32078">
        <ele>245.2</ele>
        <time>2017-11-19T09:00:12Z</time>
      </trkpt>
      <trkpt lat="43.56744" lon="3.32075">
        <ele>245.6</ele>
        <time>2017-11-19T09:00:13Z</time>
      </trkpt>
      <trkpt lat="43.56746" lon="3.32072">
        <ele>245.8</ele>
        <time>2017-11-19T09:00:15Z</time>
      </trkpt>
      <trkpt lat="43.56749" lon="3.3207">
        <ele>246.2</ele>
        <time>2017-11-19T09:00:17Z</time>
      </trkpt>
      <trkpt lat="43.56752" lon="3.32067">
        <ele>246.2</ele>
        <time>2017-11-19T09:00:20Z</time>
      </trkpt>
      <trkpt lat="43.56755" lon="3.32064">
        <ele>246.7</ele>
        <time>2017-11-19T09:00:22Z</time>
      </trkpt>
      <trkpt lat="43.56758" lon="3.32061">
        <ele>247.1</ele>
        <time>2017-11-19T09:00:24Z</time>
      </trkpt>
      <trkpt lat="43.5676" lon="3.32058">
        <ele>247.3</ele>
        <time>2017-11-19T09:00:26Z</time>
      </trkpt>
      <trkpt lat="43.56762" lon="3.32052">
        <ele>248</ele>
        <time>2017-11-19T09:00:29Z</time>
      </trkpt>
      <trkpt lat="43.56764" lon="3.32047">
        <ele>248.4</ele>
        <time>2017-11-19T09:00:31Z</time>
      </trkpt>
      <trkpt lat="43.56766" lon="3.32043">
        <ele>248.6</ele>
        <time>2017-11-19T09:00:33Z</time>
      </trkpt>
      <trkpt lat="43.56769" lon="3.32039">
        <ele>249</ele>
        <time>2017-11-19T09:00:35Z</time>
      </trkpt>
      <trkpt lat="43.56771" lon="3.32036">
        <ele>249.5</ele>
        <time>2017-11-19T09:00:37Z</time>
      </trkpt>
      <trkpt lat="43.56774" lon="3.32033">
        <ele>249.7</ele>
        <time>2017-11-19T09:00:40Z</time>
      </trkpt>
      <trkpt lat="43.56778" lon="3.3203">
        <ele>250.3</ele>
        <time>2017-11-19T09:00:43Z</time>
      </trkpt>
      <trkpt lat="43.56781" lon="3.32028">
        <ele>250.6</ele>
        <time>2017-11-19T09:00:46Z</time>
      </trkpt>
      <trkpt lat="43.56783" lon="3.32026">
        <ele>251.3</ele>
        <time>2017-11-19T09:00:48Z</time>
      </trkpt>
      <trkpt lat="43.56786" lon="3.32024">
        <ele>251.6</ele>
        <time>2017-11-19T09:00:50Z</time>
      </trkpt>
      <trkpt lat="43.56789" lon="3.32021">
        <ele>252.3</ele>
        <time>2017-11-19T09:00:52Z</time>
      </trkpt>
      <trkpt lat="43.56792" lon="3.32018">
        <ele>252.7</ele>
        <time>2017-11-19T09:00:54Z</time>
      </trkpt>
      <trkpt lat="43.56796" lon="3.32015">
        <ele>253.2</ele>
        <time>2017-11-19T09:00:57Z</time>
      </trkpt>
      <trkpt lat="43.56799" lon="3.32013">
        <ele>253.9</ele>
        <time>2017-11-19T09:01:00Z</time>
      </trkpt>
      <trkpt lat="43.56803" lon="3.3201">
        <ele>254.2</ele>
        <time>2017-11-19T09:01:03Z</time>
      </trkpt>
      <trkpt lat="43.56806" lon="3.32008">
        <ele>254.9</ele>
        <time>2017-11-19T09:01:05Z</time>
      </trkpt>
      <trkpt lat="43.56809" lon="3.32004">
        <ele>255.6</ele>
        <time>2017-11-19T09:01:08Z</time>
      </trkpt>
      <trkpt lat="43.56812" lon="3.32003">
        <ele>255.9</ele>
        <time>2017-11-19T09:01:11Z</time>
      </trkpt>
      <trkpt lat="43.56815" lon="3.32">
        <ele>256.5</ele>
        <time>2017-11-19T09:01:13Z</time>
      </trkpt>
      <trkpt lat="43.56817" lon="3.31998">
        <ele>256.5</ele>
        <time>2017-11-19T09:01:15Z</time>
      </trkpt>
      <trkpt lat="43.5682" lon="3.31996">
        <ele>257</ele>
        <time>2017-11-19T09:01:18Z</time>
      </trkpt>
      <trkpt lat="43.56823" lon="3.31993">
        <ele>257.6</ele>
        <time>2017-11-19T09:01:21Z</time>
      </trkpt>
      <trkpt lat="43.56825" lon="3.3199">
        <ele>257.9</ele>
        <time>2017-11-19T09:01:24Z</time>
      </trkpt>
      <trkpt lat="43.56828" lon="3.31988">
        <ele>258.4</ele>
        <time>2017-11-19T09:01:27Z</time>
      </trkpt>
      <trkpt lat="43.56832" lon="3.31986">
        <ele>258.7</ele>
        <time>2017-11-19T09:01:30Z</time>
      </trkpt>
      <trkpt lat="43.56835" lon="3.31983">
        <ele>259.3</ele>
        <time>2017-11-19T09:01:32Z</time>
      </trkpt>
      <trkpt lat="43.56839" lon="3.3198">
        <ele>259.6</ele>
        <time>2017-11-19T09:01:34Z</time>
      </trkpt>
      <trkpt lat="43.56841" lon="3.31978">
        <ele>260.2</ele>
        <time>2017-11-19T09:01:36Z</time>
      </trkpt>
      <trkpt lat="43.56844" lon="3.31976">
        <ele>260.7</ele>
        <time>2017-11-19T09:01:38Z</time>
      </trkpt>
      <trkpt lat="43.56847" lon="3.31973">
        <ele>260.9</ele>
        <time>2017-11-19T09:01:40Z</time>
      </trkpt>
      <trkpt lat="43.5685" lon="3.3197">
        <ele>261.4</ele>
        <time>2017-11-19T09:01:42Z</time>
      </trkpt>
      <trkpt lat="43.56852" lon="3.31968">
        <ele>261.7</ele>
        <time>2017-11-19T09:01:45Z</time>
      </trkpt>
      <trkpt lat="43.56855" lon="3.31965">
        <ele>262.2</ele>
        <time>2017-11-19T09:01:48Z</time>
      </trkpt>
      <trkpt lat="43.56857" lon="3.31963">
        <ele>262.5</ele>
        <time>2017-11-19T09:01:51Z</time>
      </trkpt>
      <trkpt lat="43.56861" lon="3.3196">
        <ele>262.8</ele>
        <time>2017-11-19T09:01:54Z</time>
      </trkpt>
      <trkpt lat="43.56863" lon="3.31958">
        <ele>263.3</ele>
        <time>2017-11-19T09:01:56Z</time>
      </trkpt>
      <trkpt lat="43.56866" lon="3.31954">
        <ele>263.9</ele>
        <time>2017-11-19T09:01:59Z</time>
      </trkpt>
      <trkpt lat="43.56869" lon="3.31951">
        <ele>264.1</ele>
        <time>2017-11-19T09:02:00Z</time>
      </trkpt>
      <trkpt lat="43.56872" lon="3.31949">
        <ele>264.6</ele>
        <time>2017-11-19T09:02:02Z</time>
      </trkpt>
      <trkpt lat="43.56875" lon="3.31946">
        <ele>265.2</ele>
        <time>2017-11-19T09:02:04Z</time>
      </trkpt>
      <trkpt lat="43.56878" lon="3.31942">
        <ele>265.4</ele>
        <time>2017-11-19T09:02:07Z</time>
      </trkpt>
      <trkpt lat="43.5688" lon="3.3194">
        <ele>266</ele>
        <time>2017-11-19T09:02:09Z</time>
      </trkpt>
      <trkpt lat="43.56882" lon="3.31937">
        <ele>266.3</ele>
        <time>2017-11-19T09:02:11Z</time>
      </trkpt>
      <trkpt lat="43.56885" lon="3.31933">
        <ele>266.6</ele>
        <time>2017-11-19T09:02:14Z</time>
      </trkpt>
      <trkpt lat="43.56887" lon="3.31931">
        <ele>267.2</ele>
        <time>2017-11-19T09:02:16Z</time>
      </trkpt>
      <trkpt lat="43.5689" lon="3.31928">
        <ele>267.8</ele>
        <time>2017-11-19T09:02:19Z</time>
      </trkpt>
      <trkpt lat="43.56892" lon="3.31926">
        <ele>268.1</ele>
        <time>2017-11-19T09:02:21Z</time>
      </trkpt>
      <trkpt lat="43.56895" lon="3.31923">
        <ele>268.7</ele>
        <time>2017-11-19T09:02:24Z</time>
      </trkpt>
      <trkpt lat="43.56898" lon="3.31918">
        <ele>268.9</ele>
        <time>2017-11-19T09:02:27Z</time>
      </trkpt>
      <trkpt lat="43.569" lon="3.31914">
        <ele>269.5</ele>
        <time>2017-11-19T09:02:29Z</time>
      </trkpt>
      <trkpt lat="43.56903" lon="3.31911">
        <ele>270</ele>
        <time>2017-11-19T09:02:31Z</time>
      </trkpt>
      <trkpt lat="43.56906" lon="3.31907">
        <ele>270.3</ele>
        <time>2017-11-19T09:02:33Z</time>
      </trkpt>
      <trkpt lat="43.56908" lon="3.31904">
        <ele>270.8</ele>
        <time>2017-11-19T09:02:35Z</time>
      </trkpt>
      <trkpt lat="43.5691" lon="3.319">
        <ele>271</ele>
        <time>2017-11-19T09:02:37Z</time>
      </trkpt>
      <trkpt lat="43.56913" lon="3.31896">
        <ele>271.5</ele>
        <time>2017-11-19T09:02:39Z</time>
      </trkpt>
      <trkpt lat="43.56915" lon="3.31891">
        <ele>272.1</ele>
        <time>2017-11-19T09:02:42Z</time>
      </trkpt>
      <trkpt lat="43.56916" lon="3.31888">
        <ele>272.3</ele>
        <time>2017-11-19T09:02:44Z</time>
      </trkpt>
      <trkpt lat="43.56918" lon="3.31884">
        <ele>273</ele>
        <time>2017-11-19T09:02:47Z</time>
      </trkpt>
      <trkpt lat="43.5692" lon="3.31879">
        <ele>273.7</ele>
        <time>2017-11-19T09:02:50Z</time>
      </trkpt>
      <trkpt lat="43.56922" lon="3.31875">
        <ele>273.9</ele>
        <time>2017-11-19T09:02:53Z</time>
      </trkpt>
      <trkpt lat="43.56924" lon="3.3187">
        <ele>274.6</ele>
        <time>2017-11-19T09:02:56Z</time>
      </trkpt>
      <trkpt lat="43.56925" lon="3.31866">
        <ele>274.9</ele>
        <time>2017-11-19T09:02:58Z</time>
      </trkpt>
      <trkpt lat="43.56926" lon="3.31862">
        <ele>275.6</ele>
        <time>2017-11-19T09:03:00Z</time>
      </trkpt>
      <trkpt lat="43.56929" lon="3.31858">
        <ele>275.9</ele>
        <time>2017-11-19T09:03:02Z</time>
      </trkpt>
      <trkpt lat="43.56932" lon="3.31853">
        <ele>276.7</ele>
        <time>2017-11-19T09:03:05Z</time>
      </trkpt>
      <trkpt lat="43.56934" lon="3.31848">
        <ele>277.4</ele>
        <time>2017-11-19T09:03:07Z</time>
      </trkpt>
      <trkpt lat="43.56936" lon="3.31844">
        <ele>278.1</ele>
        <time>2017-11-19T09:03:09Z</time>
      </trkpt>
      <trkpt lat="43.56938" lon="3.3184">
        <ele>278.4</ele>
        <time>2017-11-19T09:03:11Z</time>
      </trkpt>
      <trkpt lat="43.5694" lon="3.31837">
        <ele>279.2</ele>
        <time>2017-11-19T09:03:13Z</time>
      </trkpt>
      <trkpt lat="43.56941" lon="3.31833">
        <ele>279.5</ele>
        <time>2017-11-19T09:03:15Z</time>
      </trkpt>
      <trkpt lat="43.56943" lon="3.3183">
        <ele>280.2</ele>
        <time>2017-11-19T09:03:17Z</time>
      </trkpt>
      <trkpt lat="43.56945" lon="3.31825">
        <ele>280.9</ele>
        <time>2017-11-19T09:03:19Z</time>
      </trkpt>
      <trkpt lat="43.56947" lon="3.31821">
        <ele>281.1</ele>
        <time>2017-11-19T09:03:21Z</time>
      </trkpt>
      <trkpt lat="43.56949" lon="3.31815">
        <ele>281.7</ele>
        <time>2017-11-19T09:03:23Z</time>
      </trkpt>
      <trkpt lat="43.5695" lon="3.31811">
        <ele>281.9</ele>
        <time>2017-11-19T09:03:25Z</time>
      </trkpt>
      <trkpt lat="43.56951" lon="3.31806">
        <ele>282.1</ele>
        <time>2017-11-19T09:03:28Z</time>
      </trkpt>
      <trkpt lat="43.56949" lon="3.31802">
        <ele>282.3</ele>
        <time>2017-11-19T09:03:32Z</time>
      </trkpt>
      <trkpt lat="43.56951" lon="3.31797">
        <ele>283</ele>
        <time>2017-11-19T09:03:35Z</time>
      </trkpt>
      <trkpt lat="43.56953" lon="3.31793">
        <ele>283.2</ele>
        <time>2017-11-19T09:03:37Z</time>
      </trkpt>
      <trkpt lat="43.56954" lon="3.31788">
        <ele>283.5</ele>
        <time>2017-11-19T09:03:40Z</time>
      </trkpt>
      <trkpt lat="43.56954" lon="3.31782">
        <ele>284.8</ele>
        <time>2017-11-19T09:03:43Z</time>
      </trkpt>
      <trkpt lat="43.56953" lon="3.31776">
        <ele>284.8</ele>
        <time>2017-11-19T09:03:45Z</time>
      </trkpt>
      <trkpt lat="43.56953" lon="3.31769">
        <ele>285.6</ele>
        <time>2017-11-19T09:03:47Z</time>
      </trkpt>
      <trkpt lat="43.56952" lon="3.31764">
        <ele>286</ele>
        <time>2017-11-19T09:03:49Z</time>
      </trkpt>
      <trkpt lat="43.56951" lon="3.31759">
        <ele>286.1</ele>
        <time>2017-11-19T09:03:51Z</time>
      </trkpt>
      <trkpt lat="43.56951" lon="3.31754">
        <ele>286.8</ele>
        <time>2017-11-19T09:03:54Z</time>
      </trkpt>
      <trkpt lat="43.56952" lon="3.3175">
        <ele>287.2</ele>
        <time>2017-11-19T09:03:56Z</time>
      </trkpt>
      <trkpt lat="43.56954" lon="3.31747">
        <ele>287.6</ele>
        <time>2017-11-19T09:03:58Z</time>
      </trkpt>
      <trkpt lat="43.56955" lon="3.31743">
        <ele>288.2</ele>
        <time>2017-11-19T09:04:00Z</time>
      </trkpt>
      <trkpt lat="43.56956" lon="3.31738">
        <ele>288.5</ele>
        <time>2017-11-19T09:04:02Z</time>
      </trkpt>
      <trkpt lat="43.56957" lon="3.31734">
        <ele>288.8</ele>
        <time>2017-11-19T09:04:04Z</time>
      </trkpt>
      <trkpt lat="43.56958" lon="3.31728">
        <ele>289.3</ele>
        <time>2017-11-19T09:04:07Z</time>
      </trkpt>
      <trkpt lat="43.56959" lon="3.31723">
        <ele>289.7</ele>
        <time>2017-11-19T09:04:09Z</time>
      </trkpt>
      <trkpt lat="43.5696" lon="3.31719">
        <ele>290</ele>
        <time>2017-11-19T09:04:11Z</time>
      </trkpt>
      <trkpt lat="43.56962" lon="3.31714">
        <ele>290.8</ele>
        <time>2017-11-19T09:04:14Z</time>
      </trkpt>
      <trkpt lat="43.56963" lon="3.31711">
        <ele>290.8</ele>
        <time>2017-11-19T09:04:16Z</time>
      </trkpt>
      <trkpt lat="43.56966" lon="3.31707">
        <ele>291.2</ele>
        <time>2017-11-19T09:04:18Z</time>
      </trkpt>
      <trkpt lat="43.56968" lon="3.31705">
        <ele>291.6</ele>
        <time>2017-11-19T09:04:21Z</time>
      </trkpt>
      <trkpt lat="43.56971" lon="3.31701">
        <ele>291.7</ele>
        <time>2017-11-19T09:04:24Z</time>
      </trkpt>
      <trkpt lat="43.56972" lon="3.31698">
        <ele>291.9</ele>
        <time>2017-11-19T09:04:26Z</time>
      </trkpt>
      <trkpt lat="43.56973" lon="3.31694">
        <ele>292.3</ele>
        <time>2017-11-19T09:04:28Z</time>
      </trkpt>
      <trkpt lat="43.56974" lon="3.31689">
        <ele>292.4</ele>
        <time>2017-11-19T09:04:31Z</time>
      </trkpt>
      <trkpt lat="43.56975" lon="3.31686">
        <ele>292.6</ele>
        <time>2017-11-19T09:04:33Z</time>
      </trkpt>
      <trkpt lat="43.56977" lon="3.31681">
        <ele>292.9</ele>
        <time>2017-11-19T09:04:36Z</time>
      </trkpt>
      <trkpt lat="43.56978" lon="3.31676">
        <ele>293.1</ele>
        <time>2017-11-19T09:04:38Z</time>
      </trkpt>
      <trkpt lat="43.56979" lon="3.31671">
        <ele>293.3</ele>
        <time>2017-11-19T09:04:40Z</time>
      </trkpt>
      <trkpt lat="43.5698" lon="3.31667">
        <ele>293.7</ele>
        <time>2017-11-19T09:04:43Z</time>
      </trkpt>
      <trkpt lat="43.56981" lon="3.31663">
        <ele>293.6</ele>
        <time>2017-11-19T09:04:45Z</time>
      </trkpt>
      <trkpt lat="43.56981" lon="3.31658">
        <ele>293.8</ele>
        <time>2017-11-19T09:04:48Z</time>
      </trkpt>
      <trkpt lat="43.56982" lon="3.31653">
        <ele>293.9</ele>
        <time>2017-11-19T09:04:51Z</time>
      </trkpt>
      <trkpt lat="43.56982" lon="3.31649">
        <ele>294.1</ele>
        <time>2017-11-19T09:04:53Z</time>
      </trkpt>
      <trkpt lat="43.56984" lon="3.31644">
        <ele>294.2</ele>
        <time>2017-11-19T09:04:56Z</time>
      </trkpt>
      <trkpt lat="43.56985" lon="3.3164">
        <ele>294.4</ele>
        <time>2017-11-19T09:04:58Z</time>
      </trkpt>
      <trkpt lat="43.56987" lon="3.31636">
        <ele>294.4</ele>
        <time>2017-11-19T09:05:02Z</time>
      </trkpt>
      <trkpt lat="43.56989" lon="3.31631">
        <ele>294.6</ele>
        <time>2017-11-19T09:05:04Z</time>
      </trkpt>
      <trkpt lat="43.56991" lon="3.31628">
        <ele>294.5</ele>
        <time>2017-11-19T09:05:06Z</time>
      </trkpt>
      <trkpt lat="43.56993" lon="3.31625">
        <ele>294.8</ele>
        <time>2017-11-19T09:05:08Z</time>
      </trkpt>
      <trkpt lat="43.56995" lon="3.3162">
        <ele>295</ele>
        <time>2017-11-19T09:05:11Z</time>
      </trkpt>
      <trkpt lat="43.56996" lon="3.31616">
        <ele>295</ele>
        <time>2017-11-19T09:05:13Z</time>
      </trkpt>
      <trkpt lat="43.56999" lon="3.31611">
        <ele>295.2</ele>
        <time>2017-11-19T09:05:15Z</time>
      </trkpt>
      <trkpt lat="43.57002" lon="3.31607">
        <ele>295.5</ele>
        <time>2017-11-19T09:05:17Z</time>
      </trkpt>
      <trkpt lat="43.57004" lon="3.31603">
        <ele>295.8</ele>
        <time>2017-11-19T09:05:19Z</time>
      </trkpt>
      <trkpt lat="43.57006" lon="3.31599">
        <ele>295.8</ele>
        <time>2017-11-19T09:05:22Z</time>
      </trkpt>
      <trkpt lat="43.57007" lon="3.31594">
        <ele>296.1</ele>
        <time>2017-11-19T09:05:24Z</time>
      </trkpt>
      <trkpt lat="43.57008" lon="3.31591">
        <ele>296.1</ele>
        <time>2017-11-19T09:05:26Z</time>
      </trkpt>
      <trkpt lat="43.5701" lon="3.31585">
        <ele>296.6</ele>
        <time>2017-11-19T09:05:29Z</time>
      </trkpt>
      <trkpt lat="43.57013" lon="3.31583">
        <ele>296.5</ele>
        <time>2017-11-19T09:05:32Z</time>
      </trkpt>
      <trkpt lat="43.57015" lon="3.3158">
        <ele>297</ele>
        <time>2017-11-19T09:05:35Z</time>
      </trkpt>
      <trkpt lat="43.57017" lon="3.31576">
        <ele>297.5</ele>
        <time>2017-11-19T09:05:38Z</time>
      </trkpt>
      <trkpt lat="43.57018" lon="3.31572">
        <ele>297.6</ele>
        <time>2017-11-19T09:05:41Z</time>
      </trkpt>
      <trkpt lat="43.5702" lon="3.31568">
        <ele>298.1</ele>
        <time>2017-11-19T09:05:43Z</time>
      </trkpt>
      <trkpt lat="43.57022" lon="3.31564">
        <ele>298.1</ele>
        <time>2017-11-19T09:05:46Z</time>
      </trkpt>
      <trkpt lat="43.57024" lon="3.31561">
        <ele>298.7</ele>
        <time>2017-11-19T09:05:49Z</time>
      </trkpt>
      <trkpt lat="43.57026" lon="3.31557">
        <ele>299.4</ele>
        <time>2017-11-19T09:05:51Z</time>
      </trkpt>
      <trkpt lat="43.57027" lon="3.31553">
        <ele>299.6</ele>
        <time>2017-11-19T09:05:54Z</time>
      </trkpt>
      <trkpt lat="43.57029" lon="3.3155">
        <ele>300.4</ele>
        <time>2017-11-19T09:05:56Z</time>
      </trkpt>
      <trkpt lat="43.57031" lon="3.31546">
        <ele>300.7</ele>
        <time>2017-11-19T09:05:59Z</time>
      </trkpt>
      <trkpt lat="43.57032" lon="3.31542">
        <ele>301.6</ele>
        <time>2017-11-19T09:06:01Z</time>
      </trkpt>
      <trkpt lat="43.57036" lon="3.31537">
        <ele>302.5</ele>
        <time>2017-11-19T09:06:04Z</time>
      </trkpt>
      <trkpt lat="43.57038" lon="3.31534">
        <ele>303.1</ele>
        <time>2017-11-19T09:06:07Z</time>
      </trkpt>
      <trkpt lat="43.57041" lon="3.31532">
        <ele>303.4</ele>
        <time>2017-11-19T09:06:09Z</time>
      </trkpt>
      <trkpt lat="43.57043" lon="3.3153">
        <ele>304.2</ele>
        <time>2017-11-19T09:06:11Z</time>
      </trkpt>
      <trkpt lat="43.57046" lon="3.31527">
        <ele>304.7</ele>
        <time>2017-11-19T09:06:13Z</time>
      </trkpt>
      <trkpt lat="43.57048" lon="3.31524">
        <ele>305.5</ele>
        <time>2017-11-19T09:06:15Z</time>
      </trkpt>
      <trkpt lat="43.57051" lon="3.31523">
        <ele>306.1</ele>
        <time>2017-11-19T09:06:18Z</time>
      </trkpt>
      <trkpt lat="43.57054" lon="3.31521">
        <ele>307</ele>
        <time>2017-11-19T09:06:22Z</time>
      </trkpt>
      <trkpt lat="43.57058" lon="3.3152">
        <ele>307.6</ele>
        <time>2017-11-19T09:06:25Z</time>
      </trkpt>
      <trkpt lat="43.57061" lon="3.31518">
        <ele>308.2</ele>
        <time>2017-11-19T09:06:28Z</time>
      </trkpt>
      <trkpt lat="43.57064" lon="3.31515">
        <ele>309.1</ele>
        <time>2017-11-19T09:06:31Z</time>
      </trkpt>
      <trkpt lat="43.57067" lon="3.31512">
        <ele>309.8</ele>
        <time>2017-11-19T09:06:33Z</time>
      </trkpt>
      <trkpt lat="43.5707" lon="3.3151">
        <ele>310.4</ele>
        <time>2017-11-19T09:06:36Z</time>
      </trkpt>
      <trkpt lat="43.57073" lon="3.31508">
        <ele>311.1</ele>
        <time>2017-11-19T09:06:38Z</time>
      </trkpt>
      <trkpt lat="43.57075" lon="3.31506">
        <ele>311.1</ele>
        <time>2017-11-19T09:06:40Z</time>
      </trkpt>
      <trkpt lat="43.57078" lon="3.31503">
        <ele>311.9</ele>
        <time>2017-11-19T09:06:43Z</time>
      </trkpt>
      <trkpt lat="43.57081" lon="3.31501">
        <ele>312.4</ele>
        <time>2017-11-19T09:06:47Z</time>
      </trkpt>
      <trkpt lat="43.57084" lon="3.31499">
        <ele>313.3</ele>
        <time>2017-11-19T09:06:50Z</time>
      </trkpt>
      <trkpt lat="43.57087" lon="3.31497">
        <ele>313.8</ele>
        <time>2017-11-19T09:06:52Z</time>
      </trkpt>
      <trkpt lat="43.5709" lon="3.31496">
        <ele>314.4</ele>
        <time>2017-11-19T09:06:54Z</time>
      </trkpt>
      <trkpt lat="43.57093" lon="3.31495">
        <ele>314.9</ele>
        <time>2017-11-19T09:06:57Z</time>
      </trkpt>
      <trkpt lat="43.57097" lon="3.31496">
        <ele>315.8</ele>
        <time>2017-11-19T09:07:00Z</time>
      </trkpt>
      <trkpt lat="43.57101" lon="3.31497">
        <ele>316.3</ele>
        <time>2017-11-19T09:07:03Z</time>
      </trkpt>
      <trkpt lat="43.57105" lon="3.31498">
        <ele>316.9</ele>
        <time>2017-11-19T09:07:06Z</time>
      </trkpt>
      <trkpt lat="43.57108" lon="3.31499">
        <ele>317.4</ele>
        <time>2017-11-19T09:07:08Z</time>
      </trkpt>
      <trkpt lat="43.57111" lon="3.31498">
        <ele>317.9</ele>
        <time>2017-11-19T09:07:10Z</time>
      </trkpt>
      <trkpt lat="43.57114" lon="3.31498">
        <ele>318.5</ele>
        <time>2017-11-19T09:07:12Z</time>
      </trkpt>
      <trkpt lat="43.57117" lon="3.31497">
        <ele>319</ele>
        <time>2017-11-19T09:07:14Z</time>
      </trkpt>
      <trkpt lat="43.5712" lon="3.31496">
        <ele>319.4</ele>
        <time>2017-11-19T09:07:16Z</time>
      </trkpt>
      <trkpt lat="43.57123" lon="3.31496">
        <ele>319.9</ele>
        <time>2017-11-19T09:07:18Z</time>
      </trkpt>
      <trkpt lat="43.57127" lon="3.31496">
        <ele>320.3</ele>
        <time>2017-11-19T09:07:21Z</time>
      </trkpt>
      <trkpt lat="43.57131" lon="3.31495">
        <ele>320.9</ele>
        <time>2017-11-19T09:07:24Z</time>
      </trkpt>
      <trkpt lat="43.57134" lon="3.31495">
        <ele>321.3</ele>
        <time>2017-11-19T09:07:26Z</time>
      </trkpt>
      <trkpt lat="43.57137" lon="3.31494">
        <ele>321.7</ele>
        <time>2017-11-19T09:07:29Z</time>
      </trkpt>
      <trkpt lat="43.57141" lon="3.31493">
        <ele>322.6</ele>
        <time>2017-11-19T09:07:32Z</time>
      </trkpt>
      <trkpt lat="43.57144" lon="3.31493">
        <ele>323</ele>
        <time>2017-11-19T09:07:35Z</time>
      </trkpt>
      <trkpt lat="43.57147" lon="3.31492">
        <ele>323.4</ele>
        <time>2017-11-19T09:07:38Z</time>
      </trkpt>
      <trkpt lat="43.5715" lon="3.31492">
        <ele>323.7</ele>
        <time>2017-11-19T09:07:41Z</time>
      </trkpt>
      <trkpt lat="43.57154" lon="3.31491">
        <ele>324.1</ele>
        <time>2017-11-19T09:07:44Z</time>
      </trkpt>
      <trkpt lat="43.57157" lon="3.31489">
        <ele>324.3</ele>
        <time>2017-11-19T09:08:18Z</time>
      </trkpt>
      <trkpt lat="43.57159" lon="3.31492">
        <ele>324.3</ele>
        <time>2017-11-19T09:08:24Z</time>
      </trkpt>
      <trkpt lat="43.57162" lon="3.31491">
        <ele>324.6</ele>
        <time>2017-11-19T09:08:26Z</time>
      </trkpt>
      <trkpt lat="43.57166" lon="3.31491">
        <ele>325.3</ele>
        <time>2017-11-19T09:08:29Z</time>
      </trkpt>
      <trkpt lat="43.5717" lon="3.3149">
        <ele>325.7</ele>
        <time>2017-11-19T09:08:32Z</time>
      </trkpt>
      <trkpt lat="43.57174" lon="3.3149">
        <ele>326</ele>
        <time>2017-11-19T09:08:35Z</time>
      </trkpt>
      <trkpt lat="43.57177" lon="3.31489">
        <ele>326.3</ele>
        <time>2017-11-19T09:08:37Z</time>
      </trkpt>
      <trkpt lat="43.57179" lon="3.31487">
        <ele>326.6</ele>
        <time>2017-11-19T09:08:39Z</time>
      </trkpt>
      <trkpt lat="43.57182" lon="3.31486">
        <ele>326.8</ele>
        <time>2017-11-19T09:08:42Z</time>
      </trkpt>
      <trkpt lat="43.57185" lon="3.31486">
        <ele>327.1</ele>
        <time>2017-11-19T09:08:44Z</time>
      </trkpt>
      <trkpt lat="43.57188" lon="3.31485">
        <ele>327.3</ele>
        <time>2017-11-19T09:08:46Z</time>
      </trkpt>
      <trkpt lat="43.57192" lon="3.31484">
        <ele>327.6</ele>
        <time>2017-11-19T09:08:49Z</time>
      </trkpt>
      <trkpt lat="43.57195" lon="3.31484">
        <ele>327.8</ele>
        <time>2017-11-19T09:08:52Z</time>
      </trkpt>
      <trkpt lat="43.572" lon="3.31484">
        <ele>328.1</ele>
        <time>2017-11-19T09:08:55Z</time>
      </trkpt>
      <trkpt lat="43.57202" lon="3.31484">
        <ele>328.4</ele>
        <time>2017-11-19T09:08:57Z</time>
      </trkpt>
      <trkpt lat="43.57205" lon="3.31484">
        <ele>328.6</ele>
        <time>2017-11-19T09:08:59Z</time>
      </trkpt>
      <trkpt lat="43.57209" lon="3.31483">
        <ele>328.9</ele>
        <time>2017-11-19T09:09:02Z</time>
      </trkpt>
      <trkpt lat="43.57212" lon="3.31482">
        <ele>329.4</ele>
        <time>2017-11-19T09:09:05Z</time>
      </trkpt>
      <trkpt lat="43.57216" lon="3.31481">
        <ele>329.7</ele>
        <time>2017-11-19T09:09:08Z</time>
      </trkpt>
      <trkpt lat="43.5722" lon="3.3148">
        <ele>330.1</ele>
        <time>2017-11-19T09:09:11Z</time>
      </trkpt>
      <trkpt lat="43.57224" lon="3.3148">
        <ele>330.5</ele>
        <time>2017-11-19T09:09:13Z</time>
      </trkpt>
      <trkpt lat="43.57227" lon="3.31479">
        <ele>330.8</ele>
        <time>2017-11-19T09:09:16Z</time>
      </trkpt>
      <trkpt lat="43.5723" lon="3.31478">
        <ele>331.1</ele>
        <time>2017-11-19T09:09:21Z</time>
      </trkpt>
      <trkpt lat="43.57235" lon="3.31477">
        <ele>331.6</ele>
        <time>2017-11-19T09:09:23Z</time>
      </trkpt>
      <trkpt lat="43.57238" lon="3.31477">
        <ele>331.8</ele>
        <time>2017-11-19T09:09:25Z</time>
      </trkpt>
      <trkpt lat="43.57241" lon="3.31478">
        <ele>332.1</ele>
        <time>2017-11-19T09:09:27Z</time>
      </trkpt>
      <trkpt lat="43.57244" lon="3.31478">
        <ele>332.4</ele>
        <time>2017-11-19T09:09:29Z</time>
      </trkpt>
      <trkpt lat="43.57247" lon="3.31477">
        <ele>332.6</ele>
        <time>2017-11-19T09:09:32Z</time>
      </trkpt>
      <trkpt lat="43.5725" lon="3.31476">
        <ele>332.8</ele>
        <time>2017-11-19T09:09:35Z</time>
      </trkpt>
      <trkpt lat="43.57253" lon="3.31477">
        <ele>333</ele>
        <time>2017-11-19T09:09:37Z</time>
      </trkpt>
      <trkpt lat="43.57257" lon="3.31478">
        <ele>333.2</ele>
        <time>2017-11-19T09:09:40Z</time>
      </trkpt>
      <trkpt lat="43.57259" lon="3.31479">
        <ele>333.5</ele>
        <time>2017-11-19T09:09:42Z</time>
      </trkpt>
      <trkpt lat="43.57262" lon="3.3148">
        <ele>333.7</ele>
        <time>2017-11-19T09:09:45Z</time>
      </trkpt>
      <trkpt lat="43.57265" lon="3.3148">
        <ele>333.9</ele>
        <time>2017-11-19T09:09:50Z</time>
      </trkpt>
      <trkpt lat="43.57268" lon="3.31479">
        <ele>334.2</ele>
        <time>2017-11-19T09:09:52Z</time>
      </trkpt>
      <trkpt lat="43.57271" lon="3.31478">
        <ele>334</ele>
        <time>2017-11-19T09:09:54Z</time>
      </trkpt>
      <trkpt lat="43.57274" lon="3.31477">
        <ele>334.3</ele>
        <time>2017-11-19T09:09:56Z</time>
      </trkpt>
      <trkpt lat="43.57278" lon="3.31476">
        <ele>335</ele>
        <time>2017-11-19T09:09:59Z</time>
      </trkpt>
      <trkpt lat="43.57281" lon="3.31478">
        <ele>335.4</ele>
        <time>2017-11-19T09:10:02Z</time>
      </trkpt>
      <trkpt lat="43.57279" lon="3.31481">
        <ele>335.1</ele>
        <time>2017-11-19T09:10:06Z</time>
      </trkpt>
      <trkpt lat="43.57276" lon="3.31483">
        <ele>334.9</ele>
        <time>2017-11-19T09:10:09Z</time>
      </trkpt>
      <trkpt lat="43.57272" lon="3.31484">
        <ele>334.5</ele>
        <time>2017-11-19T09:10:11Z</time>
      </trkpt>
      <trkpt lat="43.5727" lon="3.31486">
        <ele>334.2</ele>
        <time>2017-11-19T09:10:13Z</time>
      </trkpt>
      <trkpt lat="43.57266" lon="3.31489">
        <ele>334.1</ele>
        <time>2017-11-19T09:10:16Z</time>
      </trkpt>
      <trkpt lat="43.57263" lon="3.31491">
        <ele>333.8</ele>
        <time>2017-11-19T09:10:18Z</time>
      </trkpt>
      <trkpt lat="43.57261" lon="3.31492">
        <ele>333.8</ele>
        <time>2017-11-19T09:10:20Z</time>
      </trkpt>
      <trkpt lat="43.57258" lon="3.31494">
        <ele>333.5</ele>
        <time>2017-11-19T09:10:22Z</time>
      </trkpt>
      <trkpt lat="43.57254" lon="3.31498">
        <ele>333.5</ele>
        <time>2017-11-19T09:10:25Z</time>
      </trkpt>
      <trkpt lat="43.57251" lon="3.31501">
        <ele>333.5</ele>
        <time>2017-11-19T09:10:27Z</time>
      </trkpt>
      <trkpt lat="43.57247" lon="3.31504">
        <ele>333.5</ele>
        <time>2017-11-19T09:10:29Z</time>
      </trkpt>
      <trkpt lat="43.57244" lon="3.31508">
        <ele>333.2</ele>
        <time>2017-11-19T09:10:31Z</time>
      </trkpt>
      <trkpt lat="43.5724" lon="3.31511">
        <ele>332.7</ele>
        <time>2017-11-19T09:10:34Z</time>
      </trkpt>
      <trkpt lat="43.57236" lon="3.31514">
        <ele>332.7</ele>
        <time>2017-11-19T09:10:36Z</time>
      </trkpt>
      <trkpt lat="43.57232" lon="3.31516">
        <ele>332.4</ele>
        <time>2017-11-19T09:10:38Z</time>
      </trkpt>
      <trkpt lat="43.57227" lon="3.31519">
        <ele>332</ele>
        <time>2017-11-19T09:10:40Z</time>
      </trkpt>
      <trkpt lat="43.57225" lon="3.31522">
        <ele>332.3</ele>
        <time>2017-11-19T09:10:41Z</time>
      </trkpt>
      <trkpt lat="43.57223" lon="3.31524">
        <ele>331.9</ele>
        <time>2017-11-19T09:10:42Z</time>
      </trkpt>
      <trkpt lat="43.5722" lon="3.31527">
        <ele>331.9</ele>
        <time>2017-11-19T09:10:43Z</time>
      </trkpt>
      <trkpt lat="43.57218" lon="3.31529">
        <ele>331.5</ele>
        <time>2017-11-19T09:10:44Z</time>
      </trkpt>
      <trkpt lat="43.57213" lon="3.31532">
        <ele>331.6</ele>
        <time>2017-11-19T09:10:46Z</time>
      </trkpt>
      <trkpt lat="43.57211" lon="3.31535">
        <ele>331.6</ele>
        <time>2017-11-19T09:10:47Z</time>
      </trkpt>
      <trkpt lat="43.57209" lon="3.31537">
        <ele>331.3</ele>
        <time>2017-11-19T09:10:48Z</time>
      </trkpt>
      <trkpt lat="43.57206" lon="3.31541">
        <ele>331.7</ele>
        <time>2017-11-19T09:10:50Z</time>
      </trkpt>
      <trkpt lat="43.57205" lon="3.31544">
        <ele>331.8</ele>
        <time>2017-11-19T09:10:51Z</time>
      </trkpt>
      <trkpt lat="43.57202" lon="3.31548">
        <ele>331.8</ele>
        <time>2017-11-19T09:10:53Z</time>
      </trkpt>
      <trkpt lat="43.572" lon="3.31553">
        <ele>331.7</ele>
        <time>2017-11-19T09:10:55Z</time>
      </trkpt>
      <trkpt lat="43.57198" lon="3.31558">
        <ele>332</ele>
        <time>2017-11-19T09:10:57Z</time>
      </trkpt>
      <trkpt lat="43.57196" lon="3.31563">
        <ele>331.8</ele>
        <time>2017-11-19T09:10:59Z</time>
      </trkpt>
      <trkpt lat="43.57194" lon="3.31568">
        <ele>332.2</ele>
        <time>2017-11-19T09:11:01Z</time>
      </trkpt>
      <trkpt lat="43.57193" lon="3.31573">
        <ele>331.9</ele>
        <time>2017-11-19T09:11:03Z</time>
      </trkpt>
      <trkpt lat="43.57192" lon="3.31577">
        <ele>332.7</ele>
        <time>2017-11-19T09:11:05Z</time>
      </trkpt>
      <trkpt lat="43.57192" lon="3.31582">
        <ele>333.1</ele>
        <time>2017-11-19T09:11:07Z</time>
      </trkpt>
      <trkpt lat="43.57191" lon="3.31586">
        <ele>333.5</ele>
        <time>2017-11-19T09:11:09Z</time>
      </trkpt>
      <trkpt lat="43.57189" lon="3.31591">
        <ele>333.3</ele>
        <time>2017-11-19T09:11:11Z</time>
      </trkpt>
      <trkpt lat="43.57187" lon="3.31595">
        <ele>333.1</ele>
        <time>2017-11-19T09:11:13Z</time>
      </trkpt>
      <trkpt lat="43.57185" lon="3.31598">
        <ele>333.1</ele>
        <time>2017-11-19T09:11:15Z</time>
      </trkpt>
      <trkpt lat="43.57182" lon="3.31601">
        <ele>333</ele>
        <time>2017-11-19T09:11:17Z</time>
      </trkpt>
      <trkpt lat="43.5718" lon="3.31604">
        <ele>332.8</ele>
        <time>2017-11-19T09:11:19Z</time>
      </trkpt>
      <trkpt lat="43.57178" lon="3.31609">
        <ele>333.1</ele>
        <time>2017-11-19T09:11:22Z</time>
      </trkpt>
      <trkpt lat="43.57178" lon="3.31615">
        <ele>333.5</ele>
        <time>2017-11-19T09:11:24Z</time>
      </trkpt>
      <trkpt lat="43.57178" lon="3.3162">
        <ele>334.2</ele>
        <time>2017-11-19T09:11:26Z</time>
      </trkpt>
      <trkpt lat="43.57177" lon="3.31625">
        <ele>333.8</ele>
        <time>2017-11-19T09:11:28Z</time>
      </trkpt>
      <trkpt lat="43.57176" lon="3.31629">
        <ele>334.1</ele>
        <time>2017-11-19T09:11:30Z</time>
      </trkpt>
      <trkpt lat="43.57175" lon="3.31634">
        <ele>334.3</ele>
        <time>2017-11-19T09:11:32Z</time>
      </trkpt>
      <trkpt lat="43.57175" lon="3.3164">
        <ele>334.5</ele>
        <time>2017-11-19T09:11:35Z</time>
      </trkpt>
      <trkpt lat="43.57175" lon="3.31645">
        <ele>334.7</ele>
        <time>2017-11-19T09:11:37Z</time>
      </trkpt>
      <trkpt lat="43.57176" lon="3.31648">
        <ele>334.9</ele>
        <time>2017-11-19T09:11:39Z</time>
      </trkpt>
      <trkpt lat="43.57176" lon="3.31653">
        <ele>335</ele>
        <time>2017-11-19T09:11:42Z</time>
      </trkpt>
      <trkpt lat="43.57176" lon="3.31658">
        <ele>335.1</ele>
        <time>2017-11-19T09:11:45Z</time>
      </trkpt>
      <trkpt lat="43.57177" lon="3.31663">
        <ele>335.3</ele>
        <time>2017-11-19T09:11:47Z</time>
      </trkpt>
      <trkpt lat="43.57178" lon="3.31667">
        <ele>335.3</ele>
        <time>2017-11-19T09:11:49Z</time>
      </trkpt>
      <trkpt lat="43.57178" lon="3.31673">
        <ele>335.9</ele>
        <time>2017-11-19T09:11:53Z</time>
      </trkpt>
      <trkpt lat="43.57179" lon="3.31681">
        <ele>336.1</ele>
        <time>2017-11-19T09:11:55Z</time>
      </trkpt>
      <trkpt lat="43.5718" lon="3.31685">
        <ele>336.1</ele>
        <time>2017-11-19T09:11:56Z</time>
      </trkpt>
      <trkpt lat="43.5718" lon="3.31692">
        <ele>336.2</ele>
        <time>2017-11-19T09:11:58Z</time>
      </trkpt>
      <trkpt lat="43.5718" lon="3.31697">
        <ele>336.3</ele>
        <time>2017-11-19T09:12:00Z</time>
      </trkpt>
      <trkpt lat="43.5718" lon="3.31703">
        <ele>336.4</ele>
        <time>2017-11-19T09:12:03Z</time>
      </trkpt>
      <trkpt lat="43.57181" lon="3.3171">
        <ele>336.5</ele>
        <time>2017-11-19T09:12:05Z</time>
      </trkpt>
      <trkpt lat="43.57181" lon="3.31715">
        <ele>337.1</ele>
        <time>2017-11-19T09:12:07Z</time>
      </trkpt>
      <trkpt lat="43.57183" lon="3.31722">
        <ele>337.1</ele>
        <time>2017-11-19T09:12:09Z</time>
      </trkpt>
      <trkpt lat="43.57184" lon="3.31729">
        <ele>337.6</ele>
        <time>2017-11-19T09:12:11Z</time>
      </trkpt>
      <trkpt lat="43.57186" lon="3.31735">
        <ele>337.5</ele>
        <time>2017-11-19T09:12:13Z</time>
      </trkpt>
      <trkpt lat="43.57187" lon="3.3174">
        <ele>337.7</ele>
        <time>2017-11-19T09:12:14Z</time>
      </trkpt>
      <trkpt lat="43.57189" lon="3.31746">
        <ele>337.6</ele>
        <time>2017-11-19T09:12:15Z</time>
      </trkpt>
      <trkpt lat="43.57191" lon="3.3175">
        <ele>337.8</ele>
        <time>2017-11-19T09:12:16Z</time>
      </trkpt>
      <trkpt lat="43.57193" lon="3.31753">
        <ele>337.5</ele>
        <time>2017-11-19T09:12:17Z</time>
      </trkpt>
      <trkpt lat="43.57195" lon="3.31758">
        <ele>337.8</ele>
        <time>2017-11-19T09:12:19Z</time>
      </trkpt>
      <trkpt lat="43.57198" lon="3.31763">
        <ele>337.9</ele>
        <time>2017-11-19T09:12:21Z</time>
      </trkpt>
      <trkpt lat="43.572" lon="3.31768">
        <ele>338.1</ele>
        <time>2017-11-19T09:12:23Z</time>
      </trkpt>
      <trkpt lat="43.57203" lon="3.31771">
        <ele>338.1</ele>
        <time>2017-11-19T09:12:25Z</time>
      </trkpt>
      <trkpt lat="43.57208" lon="3.31778">
        <ele>338.1</ele>
        <time>2017-11-19T09:12:27Z</time>
      </trkpt>
      <trkpt lat="43.57212" lon="3.31782">
        <ele>338.1</ele>
        <time>2017-11-19T09:12:28Z</time>
      </trkpt>
      <trkpt lat="43.57214" lon="3.31786">
        <ele>338.1</ele>
        <time>2017-11-19T09:12:29Z</time>
      </trkpt>
      <trkpt lat="43.57217" lon="3.31788">
        <ele>337.8</ele>
        <time>2017-11-19T09:12:30Z</time>
      </trkpt>
      <trkpt lat="43.57223" lon="3.31791">
        <ele>338.5</ele>
        <time>2017-11-19T09:12:32Z</time>
      </trkpt>
      <trkpt lat="43.57226" lon="3.31791">
        <ele>338.9</ele>
        <time>2017-11-19T09:12:33Z</time>
      </trkpt>
      <trkpt lat="43.57229" lon="3.31792">
        <ele>338.7</ele>
        <time>2017-11-19T09:12:34Z</time>
      </trkpt>
      <trkpt lat="43.57232" lon="3.31794">
        <ele>339</ele>
        <time>2017-11-19T09:12:35Z</time>
      </trkpt>
      <trkpt lat="43.57236" lon="3.31796">
        <ele>338.9</ele>
        <time>2017-11-19T09:12:37Z</time>
      </trkpt>
      <trkpt lat="43.5724" lon="3.31797">
        <ele>339.2</ele>
        <time>2017-11-19T09:12:39Z</time>
      </trkpt>
      <trkpt lat="43.57244" lon="3.31798">
        <ele>339.9</ele>
        <time>2017-11-19T09:12:41Z</time>
      </trkpt>
      <trkpt lat="43.57247" lon="3.31799">
        <ele>340.2</ele>
        <time>2017-11-19T09:12:42Z</time>
      </trkpt>
      <trkpt lat="43.57251" lon="3.318">
        <ele>340.5</ele>
        <time>2017-11-19T09:12:44Z</time>
      </trkpt>
      <trkpt lat="43.57254" lon="3.31801">
        <ele>340.4</ele>
        <time>2017-11-19T09:12:45Z</time>
      </trkpt>
      <trkpt lat="43.57256" lon="3.31802">
        <ele>340.7</ele>
        <time>2017-11-19T09:12:46Z</time>
      </trkpt>
      <trkpt lat="43.57261" lon="3.31802">
        <ele>341</ele>
        <time>2017-11-19T09:12:48Z</time>
      </trkpt>
      <trkpt lat="43.57266" lon="3.31803">
        <ele>341.6</ele>
        <time>2017-11-19T09:12:50Z</time>
      </trkpt>
      <trkpt lat="43.5727" lon="3.31804">
        <ele>341.9</ele>
        <time>2017-11-19T09:12:52Z</time>
      </trkpt>
      <trkpt lat="43.57275" lon="3.31804">
        <ele>342.5</ele>
        <time>2017-11-19T09:12:54Z</time>
      </trkpt>
      <trkpt lat="43.5728" lon="3.31804">
        <ele>342.5</ele>
        <time>2017-11-19T09:12:56Z</time>
      </trkpt>
      <trkpt lat="43.57285" lon="3.31804">
        <ele>343.1</ele>
        <time>2017-11-19T09:12:58Z</time>
      </trkpt>
      <trkpt lat="43.5729" lon="3.31805">
        <ele>343.7</ele>
        <time>2017-11-19T09:13:00Z</time>
      </trkpt>
      <trkpt lat="43.57293" lon="3.31807">
        <ele>343.7</ele>
        <time>2017-11-19T09:13:01Z</time>
      </trkpt>
      <trkpt lat="43.57295" lon="3.31809">
        <ele>343.6</ele>
        <time>2017-11-19T09:13:02Z</time>
      </trkpt>
      <trkpt lat="43.57297" lon="3.31812">
        <ele>343.8</ele>
        <time>2017-11-19T09:13:03Z</time>
      </trkpt>
      <trkpt lat="43.57299" lon="3.31815">
        <ele>343.5</ele>
        <time>2017-11-19T09:13:04Z</time>
      </trkpt>
      <trkpt lat="43.57301" lon="3.31818">
        <ele>343.4</ele>
        <time>2017-11-19T09:13:05Z</time>
      </trkpt>
      <trkpt lat="43.57302" lon="3.31821">
        <ele>343.4</ele>
        <time>2017-11-19T09:13:06Z</time>
      </trkpt>
      <trkpt lat="43.57305" lon="3.31827">
        <ele>342.9</ele>
        <time>2017-11-19T09:13:08Z</time>
      </trkpt>
      <trkpt lat="43.57308" lon="3.31833">
        <ele>342.8</ele>
        <time>2017-11-19T09:13:10Z</time>
      </trkpt>
      <trkpt lat="43.5731" lon="3.31838">
        <ele>342.7</ele>
        <time>2017-11-19T09:13:12Z</time>
      </trkpt>
      <trkpt lat="43.57312" lon="3.31843">
        <ele>342.6</ele>
        <time>2017-11-19T09:13:14Z</time>
      </trkpt>
      <trkpt lat="43.57315" lon="3.31847">
        <ele>342</ele>
        <time>2017-11-19T09:13:16Z</time>
      </trkpt>
      <trkpt lat="43.57318" lon="3.31852">
        <ele>341.8</ele>
        <time>2017-11-19T09:13:18Z</time>
      </trkpt>
      <trkpt lat="43.5732" lon="3.31857">
        <ele>341.3</ele>
        <time>2017-11-19T09:13:20Z</time>
      </trkpt>
      <trkpt lat="43.57322" lon="3.31862">
        <ele>341.2</ele>
        <time>2017-11-19T09:13:22Z</time>
      </trkpt>
      <trkpt lat="43.57324" lon="3.31867">
        <ele>341.1</ele>
        <time>2017-11-19T09:13:24Z</time>
      </trkpt>
      <trkpt lat="43.57327" lon="3.31873">
        <ele>340.6</ele>
        <time>2017-11-19T09:13:26Z</time>
      </trkpt>
      <trkpt lat="43.5733" lon="3.31878">
        <ele>340</ele>
        <time>2017-11-19T09:13:28Z</time>
      </trkpt>
      <trkpt lat="43.57334" lon="3.31884">
        <ele>340.3</ele>
        <time>2017-11-19T09:13:30Z</time>
      </trkpt>
      <trkpt lat="43.57336" lon="3.31887">
        <ele>339.8</ele>
        <time>2017-11-19T09:13:31Z</time>
      </trkpt>
      <trkpt lat="43.57338" lon="3.3189">
        <ele>339.6</ele>
        <time>2017-11-19T09:13:32Z</time>
      </trkpt>
      <trkpt lat="43.5734" lon="3.31893">
        <ele>339.9</ele>
        <time>2017-11-19T09:13:33Z</time>
      </trkpt>
      <trkpt lat="43.57343" lon="3.31896">
        <ele>339.7</ele>
        <time>2017-11-19T09:13:34Z</time>
      </trkpt>
      <trkpt lat="43.57345" lon="3.31897">
        <ele>339.7</ele>
        <time>2017-11-19T09:13:35Z</time>
      </trkpt>
      <trkpt lat="43.57348" lon="3.31898">
        <ele>339.9</ele>
        <time>2017-11-19T09:13:36Z</time>
      </trkpt>
      <trkpt lat="43.57351" lon="3.31898">
        <ele>340.1</ele>
        <time>2017-11-19T09:13:37Z</time>
      </trkpt>
      <trkpt lat="43.57354" lon="3.31898">
        <ele>340.3</ele>
        <time>2017-11-19T09:13:38Z</time>
      </trkpt>
      <trkpt lat="43.57357" lon="3.31897">
        <ele>340.5</ele>
        <time>2017-11-19T09:13:39Z</time>
      </trkpt>
      <trkpt lat="43.57359" lon="3.31896">
        <ele>340.6</ele>
        <time>2017-11-19T09:13:40Z</time>
      </trkpt>
      <trkpt lat="43.57364" lon="3.31893">
        <ele>341.3</ele>
        <time>2017-11-19T09:13:42Z</time>
      </trkpt>
      <trkpt lat="43.57369" lon="3.3189">
        <ele>341.4</ele>
        <time>2017-11-19T09:13:44Z</time>
      </trkpt>
      <trkpt lat="43.57373" lon="3.31888">
        <ele>342.1</ele>
        <time>2017-11-19T09:13:46Z</time>
      </trkpt>
      <trkpt lat="43.57376" lon="3.31885">
        <ele>342.7</ele>
        <time>2017-11-19T09:13:48Z</time>
      </trkpt>
      <trkpt lat="43.5738" lon="3.31883">
        <ele>342.8</ele>
        <time>2017-11-19T09:13:50Z</time>
      </trkpt>
      <trkpt lat="43.57383" lon="3.31881">
        <ele>343.4</ele>
        <time>2017-11-19T09:13:52Z</time>
      </trkpt>
      <trkpt lat="43.57387" lon="3.31879">
        <ele>343.4</ele>
        <time>2017-11-19T09:13:54Z</time>
      </trkpt>
      <trkpt lat="43.57391" lon="3.31877">
        <ele>343.9</ele>
        <time>2017-11-19T09:13:56Z</time>
      </trkpt>
      <trkpt lat="43.57395" lon="3.31875">
        <ele>343.9</ele>
        <time>2017-11-19T09:13:58Z</time>
      </trkpt>
      <trkpt lat="43.57398" lon="3.31873">
        <ele>344.4</ele>
        <time>2017-11-19T09:14:00Z</time>
      </trkpt>
      <trkpt lat="43.57401" lon="3.31871">
        <ele>344.4</ele>
        <time>2017-11-19T09:14:02Z</time>
      </trkpt>
      <trkpt lat="43.57404" lon="3.31869">
        <ele>344.9</ele>
        <time>2017-11-19T09:14:04Z</time>
      </trkpt>
      <trkpt lat="43.57408" lon="3.31866">
        <ele>344.9</ele>
        <time>2017-11-19T09:14:06Z</time>
      </trkpt>
      <trkpt lat="43.57411" lon="3.31864">
        <ele>345.4</ele>
        <time>2017-11-19T09:14:08Z</time>
      </trkpt>
      <trkpt lat="43.57415" lon="3.31863">
        <ele>345.2</ele>
        <time>2017-11-19T09:14:10Z</time>
      </trkpt>
      <trkpt lat="43.57419" lon="3.31861">
        <ele>345</ele>
        <time>2017-11-19T09:14:12Z</time>
      </trkpt>
      <trkpt lat="43.57422" lon="3.3186">
        <ele>344.9</ele>
        <time>2017-11-19T09:14:14Z</time>
      </trkpt>
      <trkpt lat="43.57425" lon="3.31859">
        <ele>345.4</ele>
        <time>2017-11-19T09:14:17Z</time>
      </trkpt>
      <trkpt lat="43.57428" lon="3.31859">
        <ele>345.3</ele>
        <time>2017-11-19T09:14:35Z</time>
      </trkpt>
      <trkpt lat="43.57431" lon="3.31861">
        <ele>344.5</ele>
        <time>2017-11-19T09:14:53Z</time>
      </trkpt>
      <trkpt lat="43.57434" lon="3.31866">
        <ele>343.7</ele>
        <time>2017-11-19T09:14:55Z</time>
      </trkpt>
      <trkpt lat="43.57436" lon="3.31868">
        <ele>343.7</ele>
        <time>2017-11-19T09:14:57Z</time>
      </trkpt>
      <trkpt lat="43.57438" lon="3.31874">
        <ele>342.3</ele>
        <time>2017-11-19T09:14:59Z</time>
      </trkpt>
      <trkpt lat="43.57438" lon="3.31879">
        <ele>341.6</ele>
        <time>2017-11-19T09:15:01Z</time>
      </trkpt>
      <trkpt lat="43.5744" lon="3.31884">
        <ele>340.7</ele>
        <time>2017-11-19T09:15:02Z</time>
      </trkpt>
      <trkpt lat="43.57442" lon="3.31887">
        <ele>340</ele>
        <time>2017-11-19T09:15:03Z</time>
      </trkpt>
      <trkpt lat="43.57444" lon="3.31892">
        <ele>339.2</ele>
        <time>2017-11-19T09:15:04Z</time>
      </trkpt>
      <trkpt lat="43.57448" lon="3.31901">
        <ele>337.8</ele>
        <time>2017-11-19T09:15:05Z</time>
      </trkpt>
      <trkpt lat="43.57451" lon="3.31909">
        <ele>336.5</ele>
        <time>2017-11-19T09:15:06Z</time>
      </trkpt>
      <trkpt lat="43.57455" lon="3.31921">
        <ele>334.8</ele>
        <time>2017-11-19T09:15:07Z</time>
      </trkpt>
      <trkpt lat="43.57458" lon="3.31932">
        <ele>333.6</ele>
        <time>2017-11-19T09:15:08Z</time>
      </trkpt>
      <trkpt lat="43.57461" lon="3.31941">
        <ele>332.5</ele>
        <time>2017-11-19T09:15:09Z</time>
      </trkpt>
      <trkpt lat="43.57463" lon="3.3195">
        <ele>330.8</ele>
        <time>2017-11-19T09:15:10Z</time>
      </trkpt>
      <trkpt lat="43.57466" lon="3.31959">
        <ele>329.9</ele>
        <time>2017-11-19T09:15:11Z</time>
      </trkpt>
      <trkpt lat="43.57469" lon="3.31965">
        <ele>329.4</ele>
        <time>2017-11-19T09:15:12Z</time>
      </trkpt>
      <trkpt lat="43.57471" lon="3.31971">
        <ele>328.9</ele>
        <time>2017-11-19T09:15:13Z</time>
      </trkpt>
      <trkpt lat="43.57474" lon="3.31978">
        <ele>328</ele>
        <time>2017-11-19T09:15:14Z</time>
      </trkpt>
      <trkpt lat="43.57476" lon="3.31985">
        <ele>327.7</ele>
        <time>2017-11-19T09:15:15Z</time>
      </trkpt>
      <trkpt lat="43.57478" lon="3.3199">
        <ele>326.8</ele>
        <time>2017-11-19T09:15:16Z</time>
      </trkpt>
      <trkpt lat="43.57482" lon="3.32002">
        <ele>325.7</ele>
        <time>2017-11-19T09:15:17Z</time>
      </trkpt>
      <trkpt lat="43.57484" lon="3.3201">
        <ele>325.1</ele>
        <time>2017-11-19T09:15:18Z</time>
      </trkpt>
      <trkpt lat="43.57484" lon="3.32016">
        <ele>324.5</ele>
        <time>2017-11-19T09:15:19Z</time>
      </trkpt>
      <trkpt lat="43.57486" lon="3.32023">
        <ele>323.9</ele>
        <time>2017-11-19T09:15:20Z</time>
      </trkpt>
      <trkpt lat="43.57489" lon="3.32029">
        <ele>322.8</ele>
        <time>2017-11-19T09:15:21Z</time>
      </trkpt>
      <trkpt lat="43.57491" lon="3.32034">
        <ele>322.4</ele>
        <time>2017-11-19T09:15:22Z</time>
      </trkpt>
      <trkpt lat="43.57495" lon="3.32042">
        <ele>321.1</ele>
        <time>2017-11-19T09:15:23Z</time>
      </trkpt>
      <trkpt lat="43.575" lon="3.3205">
        <ele>320.3</ele>
        <time>2017-11-19T09:15:24Z</time>
      </trkpt>
      <trkpt lat="43.57503" lon="3.32058">
        <ele>319.8</ele>
        <time>2017-11-19T09:15:25Z</time>
      </trkpt>
      <trkpt lat="43.57506" lon="3.32065">
        <ele>319.2</ele>
        <time>2017-11-19T09:15:26Z</time>
      </trkpt>
      <trkpt lat="43.57509" lon="3.3207">
        <ele>318.7</ele>
        <time>2017-11-19T09:15:27Z</time>
      </trkpt>
      <trkpt lat="43.57513" lon="3.32076">
        <ele>318.4</ele>
        <time>2017-11-19T09:15:28Z</time>
      </trkpt>
      <trkpt lat="43.57517" lon="3.32081">
        <ele>318.2</ele>
        <time>2017-11-19T09:15:29Z</time>
      </trkpt>
      <trkpt lat="43.57521" lon="3.32088">
        <ele>317.7</ele>
        <time>2017-11-19T09:15:30Z</time>
      </trkpt>
      <trkpt lat="43.57523" lon="3.32095">
        <ele>317.2</ele>
        <time>2017-11-19T09:15:31Z</time>
      </trkpt>
      <trkpt lat="43.57523" lon="3.32103">
        <ele>316.7</ele>
        <time>2017-11-19T09:15:32Z</time>
      </trkpt>
      <trkpt lat="43.57524" lon="3.32111">
        <ele>316.2</ele>
        <time>2017-11-19T09:15:33Z</time>
      </trkpt>
      <trkpt lat="43.57524" lon="3.32118">
        <ele>315.9</ele>
        <time>2017-11-19T09:15:34Z</time>
      </trkpt>
      <trkpt lat="43.57524" lon="3.32123">
        <ele>315.5</ele>
        <time>2017-11-19T09:15:35Z</time>
      </trkpt>
      <trkpt lat="43.57524" lon="3.32127">
        <ele>315.2</ele>
        <time>2017-11-19T09:15:36Z</time>
      </trkpt>
      <trkpt lat="43.57526" lon="3.32131">
        <ele>314.9</ele>
        <time>2017-11-19T09:15:37Z</time>
      </trkpt>
      <trkpt lat="43.57528" lon="3.32135">
        <ele>314.7</ele>
        <time>2017-11-19T09:15:38Z</time>
      </trkpt>
      <trkpt lat="43.5753" lon="3.3214">
        <ele>314.5</ele>
        <time>2017-11-19T09:15:39Z</time>
      </trkpt>
      <trkpt lat="43.5753" lon="3.32147">
        <ele>314.2</ele>
        <time>2017-11-19T09:15:41Z</time>
      </trkpt>
      <trkpt lat="43.5753" lon="3.32155">
        <ele>313.7</ele>
        <time>2017-11-19T09:15:43Z</time>
      </trkpt>
      <trkpt lat="43.57532" lon="3.3216">
        <ele>307.3</ele>
        <time>2017-11-19T09:15:44Z</time>
      </trkpt>
      <trkpt lat="43.57532" lon="3.32164">
        <ele>300.9</ele>
        <time>2017-11-19T09:15:45Z</time>
      </trkpt>
      <trkpt lat="43.57532" lon="3.3217">
        <ele>293.5</ele>
        <time>2017-11-19T09:15:46Z</time>
      </trkpt>
      <trkpt lat="43.57532" lon="3.32175">
        <ele>294</ele>
        <time>2017-11-19T09:15:47Z</time>
      </trkpt>
      <trkpt lat="43.5753" lon="3.3218">
        <ele>294.8</ele>
        <time>2017-11-19T09:15:48Z</time>
      </trkpt>
      <trkpt lat="43.57528" lon="3.32184">
        <ele>295.3</ele>
        <time>2017-11-19T09:15:49Z</time>
      </trkpt>
      <trkpt lat="43.57527" lon="3.32188">
        <ele>295.8</ele>
        <time>2017-11-19T09:15:50Z</time>
      </trkpt>
      <trkpt lat="43.57525" lon="3.32191">
        <ele>296.1</ele>
        <time>2017-11-19T09:15:51Z</time>
      </trkpt>
      <trkpt lat="43.57522" lon="3.32198">
        <ele>296.5</ele>
        <time>2017-11-19T09:15:53Z</time>
      </trkpt>
      <trkpt lat="43.5752" lon="3.32204">
        <ele>296.9</ele>
        <time>2017-11-19T09:15:54Z</time>
      </trkpt>
      <trkpt lat="43.57519" lon="3.32209">
        <ele>297.3</ele>
        <time>2017-11-19T09:15:55Z</time>
      </trkpt>
      <trkpt lat="43.57521" lon="3.32212">
        <ele>297</ele>
        <time>2017-11-19T09:15:59Z</time>
      </trkpt>
      <trkpt lat="43.57525" lon="3.32208">
        <ele>296.5</ele>
        <time>2017-11-19T09:16:01Z</time>
      </trkpt>
      <trkpt lat="43.57527" lon="3.32205">
        <ele>296.3</ele>
        <time>2017-11-19T09:16:02Z</time>
      </trkpt>
      <trkpt lat="43.5753" lon="3.32202">
        <ele>295.9</ele>
        <time>2017-11-19T09:16:03Z</time>
      </trkpt>
      <trkpt lat="43.57534" lon="3.32199">
        <ele>295.3</ele>
        <time>2017-11-19T09:16:04Z</time>
      </trkpt>
      <trkpt lat="43.57537" lon="3.32196">
        <ele>294.4</ele>
        <time>2017-11-19T09:16:05Z</time>
      </trkpt>
      <trkpt lat="43.57541" lon="3.32192">
        <ele>293.6</ele>
        <time>2017-11-19T09:16:06Z</time>
      </trkpt>
      <trkpt lat="43.57544" lon="3.32186">
        <ele>293.1</ele>
        <time>2017-11-19T09:16:07Z</time>
      </trkpt>
      <trkpt lat="43.57547" lon="3.32181">
        <ele>292.7</ele>
        <time>2017-11-19T09:16:08Z</time>
      </trkpt>
      <trkpt lat="43.5755" lon="3.32175">
        <ele>291.8</ele>
        <time>2017-11-19T09:16:09Z</time>
      </trkpt>
      <trkpt lat="43.57556" lon="3.32169">
        <ele>291</ele>
        <time>2017-11-19T09:16:10Z</time>
      </trkpt>
      <trkpt lat="43.57561" lon="3.32164">
        <ele>290.3</ele>
        <time>2017-11-19T09:16:11Z</time>
      </trkpt>
      <trkpt lat="43.57566" lon="3.32164">
        <ele>289.7</ele>
        <time>2017-11-19T09:16:12Z</time>
      </trkpt>
      <trkpt lat="43.5757" lon="3.32167">
        <ele>289.3</ele>
        <time>2017-11-19T09:16:13Z</time>
      </trkpt>
      <trkpt lat="43.57572" lon="3.32171">
        <ele>288.9</ele>
        <time>2017-11-19T09:16:14Z</time>
      </trkpt>
      <trkpt lat="43.57574" lon="3.32176">
        <ele>288.5</ele>
        <time>2017-11-19T09:16:15Z</time>
      </trkpt>
      <trkpt lat="43.57577" lon="3.32182">
        <ele>288.1</ele>
        <time>2017-11-19T09:16:17Z</time>
      </trkpt>
      <trkpt lat="43.57579" lon="3.32186">
        <ele>287.9</ele>
        <time>2017-11-19T09:16:19Z</time>
      </trkpt>
      <trkpt lat="43.57581" lon="3.3219">
        <ele>287.7</ele>
        <time>2017-11-19T09:16:35Z</time>
      </trkpt>
      <trkpt lat="43.57583" lon="3.32193">
        <ele>287.6</ele>
        <time>2017-11-19T09:16:38Z</time>
      </trkpt>
      <trkpt lat="43.57584" lon="3.32196">
        <ele>287.4</ele>
        <time>2017-11-19T09:16:40Z</time>
      </trkpt>
      <trkpt lat="43.57583" lon="3.32201">
        <ele>287.3</ele>
        <time>2017-11-19T09:16:43Z</time>
      </trkpt>
      <trkpt lat="43.57584" lon="3.32205">
        <ele>287</ele>
        <time>2017-11-19T09:16:46Z</time>
      </trkpt>
      <trkpt lat="43.57588" lon="3.32204">
        <ele>286.7</ele>
        <time>2017-11-19T09:16:48Z</time>
      </trkpt>
      <trkpt lat="43.57591" lon="3.32201">
        <ele>286.1</ele>
        <time>2017-11-19T09:16:51Z</time>
      </trkpt>
      <trkpt lat="43.57595" lon="3.32199">
        <ele>286</ele>
        <time>2017-11-19T09:16:53Z</time>
      </trkpt>
      <trkpt lat="43.576" lon="3.322">
        <ele>285.6</ele>
        <time>2017-11-19T09:16:54Z</time>
      </trkpt>
      <trkpt lat="43.57604" lon="3.322">
        <ele>283.8</ele>
        <time>2017-11-19T09:16:55Z</time>
      </trkpt>
      <trkpt lat="43.5761" lon="3.32199">
        <ele>282.6</ele>
        <time>2017-11-19T09:16:56Z</time>
      </trkpt>
      <trkpt lat="43.57615" lon="3.322">
        <ele>281.8</ele>
        <time>2017-11-19T09:16:57Z</time>
      </trkpt>
      <trkpt lat="43.57621" lon="3.32201">
        <ele>281.1</ele>
        <time>2017-11-19T09:16:58Z</time>
      </trkpt>
      <trkpt lat="43.57625" lon="3.32202">
        <ele>280.5</ele>
        <time>2017-11-19T09:16:59Z</time>
      </trkpt>
      <trkpt lat="43.57628" lon="3.32203">
        <ele>280.1</ele>
        <time>2017-11-19T09:17:00Z</time>
      </trkpt>
      <trkpt lat="43.57634" lon="3.32203">
        <ele>279.5</ele>
        <time>2017-11-19T09:17:02Z</time>
      </trkpt>
      <trkpt lat="43.57639" lon="3.32203">
        <ele>279</ele>
        <time>2017-11-19T09:17:03Z</time>
      </trkpt>
      <trkpt lat="43.57642" lon="3.32203">
        <ele>278.7</ele>
        <time>2017-11-19T09:17:04Z</time>
      </trkpt>
      <trkpt lat="43.57646" lon="3.32203">
        <ele>278.4</ele>
        <time>2017-11-19T09:17:05Z</time>
      </trkpt>
      <trkpt lat="43.57653" lon="3.32203">
        <ele>277.8</ele>
        <time>2017-11-19T09:17:06Z</time>
      </trkpt>
      <trkpt lat="43.5766" lon="3.32203">
        <ele>276.8</ele>
        <time>2017-11-19T09:17:07Z</time>
      </trkpt>
      <trkpt lat="43.5767" lon="3.32202">
        <ele>275.1</ele>
        <time>2017-11-19T09:17:08Z</time>
      </trkpt>
      <trkpt lat="43.57678" lon="3.32201">
        <ele>272.7</ele>
        <time>2017-11-19T09:17:09Z</time>
      </trkpt>
      <trkpt lat="43.57686" lon="3.32202">
        <ele>271</ele>
        <time>2017-11-19T09:17:10Z</time>
      </trkpt>
      <trkpt lat="43.57691" lon="3.32203">
        <ele>271</ele>
        <time>2017-11-19T09:17:11Z</time>
      </trkpt>
      <trkpt lat="43.57696" lon="3.32202">
        <ele>271</ele>
        <time>2017-11-19T09:17:12Z</time>
      </trkpt>
      <trkpt lat="43.57699" lon="3.32199">
        <ele>271</ele>
        <time>2017-11-19T09:17:13Z</time>
      </trkpt>
      <trkpt lat="43.57702" lon="3.32195">
        <ele>271</ele>
        <time>2017-11-19T09:17:14Z</time>
      </trkpt>
      <trkpt lat="43.57704" lon="3.32192">
        <ele>271</ele>
        <time>2017-11-19T09:17:15Z</time>
      </trkpt>
      <trkpt lat="43.57707" lon="3.32187">
        <ele>271</ele>
        <time>2017-11-19T09:17:17Z</time>
      </trkpt>
      <trkpt lat="43.57711" lon="3.32182">
        <ele>271</ele>
        <time>2017-11-19T09:17:19Z</time>
      </trkpt>
      <trkpt lat="43.57714" lon="3.32179">
        <ele>271</ele>
        <time>2017-11-19T09:17:20Z</time>
      </trkpt>
      <trkpt lat="43.57717" lon="3.32177">
        <ele>271.1</ele>
        <time>2017-11-19T09:17:21Z</time>
      </trkpt>
      <trkpt lat="43.57719" lon="3.32175">
        <ele>271.2</ele>
        <time>2017-11-19T09:17:22Z</time>
      </trkpt>
      <trkpt lat="43.57722" lon="3.32173">
        <ele>271.4</ele>
        <time>2017-11-19T09:17:23Z</time>
      </trkpt>
      <trkpt lat="43.57725" lon="3.32172">
        <ele>271.5</ele>
        <time>2017-11-19T09:17:24Z</time>
      </trkpt>
      <trkpt lat="43.5773" lon="3.32171">
        <ele>271.8</ele>
        <time>2017-11-19T09:17:26Z</time>
      </trkpt>
      <trkpt lat="43.57732" lon="3.3217">
        <ele>271.9</ele>
        <time>2017-11-19T09:17:27Z</time>
      </trkpt>
      <trkpt lat="43.57735" lon="3.32168">
        <ele>272.1</ele>
        <time>2017-11-19T09:17:28Z</time>
      </trkpt>
      <trkpt lat="43.57738" lon="3.32167">
        <ele>272.3</ele>
        <time>2017-11-19T09:17:29Z</time>
      </trkpt>
      <trkpt lat="43.57741" lon="3.32165">
        <ele>272.4</ele>
        <time>2017-11-19T09:17:30Z</time>
      </trkpt>
      <trkpt lat="43.57746" lon="3.32162">
        <ele>272.7</ele>
        <time>2017-11-19T09:17:32Z</time>
      </trkpt>
      <trkpt lat="43.5775" lon="3.32161">
        <ele>273</ele>
        <time>2017-11-19T09:17:34Z</time>
      </trkpt>
      <trkpt lat="43.57754" lon="3.32159">
        <ele>273.2</ele>
        <time>2017-11-19T09:17:36Z</time>
      </trkpt>
      <trkpt lat="43.57758" lon="3.32155">
        <ele>273.4</ele>
        <time>2017-11-19T09:17:38Z</time>
      </trkpt>
      <trkpt lat="43.57762" lon="3.32152">
        <ele>273.6</ele>
        <time>2017-11-19T09:17:40Z</time>
      </trkpt>
      <trkpt lat="43.57765" lon="3.3215">
        <ele>273.7</ele>
        <time>2017-11-19T09:17:42Z</time>
      </trkpt>
      <trkpt lat="43.57769" lon="3.3215">
        <ele>273.8</ele>
        <time>2017-11-19T09:17:44Z</time>
      </trkpt>
      <trkpt lat="43.57772" lon="3.32149">
        <ele>274</ele>
        <time>2017-11-19T09:17:46Z</time>
      </trkpt>
      <trkpt lat="43.57775" lon="3.32148">
        <ele>273.8</ele>
        <time>2017-11-19T09:17:48Z</time>
      </trkpt>
      <trkpt lat="43.57779" lon="3.32146">
        <ele>273.6</ele>
        <time>2017-11-19T09:17:50Z</time>
      </trkpt>
      <trkpt lat="43.57783" lon="3.32144">
        <ele>273.4</ele>
        <time>2017-11-19T09:17:53Z</time>
      </trkpt>
      <trkpt lat="43.57786" lon="3.32142">
        <ele>273.2</ele>
        <time>2017-11-19T09:17:55Z</time>
      </trkpt>
      <trkpt lat="43.57789" lon="3.32139">
        <ele>273.1</ele>
        <time>2017-11-19T09:17:58Z</time>
      </trkpt>
      <trkpt lat="43.57792" lon="3.32137">
        <ele>273</ele>
        <time>2017-11-19T09:18:01Z</time>
      </trkpt>
      <trkpt lat="43.57794" lon="3.32133">
        <ele>272.9</ele>
        <time>2017-11-19T09:18:04Z</time>
      </trkpt>
      <trkpt lat="43.57795" lon="3.32129">
        <ele>272.9</ele>
        <time>2017-11-19T09:18:07Z</time>
      </trkpt>
      <trkpt lat="43.57796" lon="3.32125">
        <ele>272.9</ele>
        <time>2017-11-19T09:18:10Z</time>
      </trkpt>
      <trkpt lat="43.57798" lon="3.32121">
        <ele>272.9</ele>
        <time>2017-11-19T09:18:12Z</time>
      </trkpt>
      <trkpt lat="43.578" lon="3.32118">
        <ele>272.8</ele>
        <time>2017-11-19T09:18:15Z</time>
      </trkpt>
      <trkpt lat="43.57803" lon="3.32117">
        <ele>272.7</ele>
        <time>2017-11-19T09:18:18Z</time>
      </trkpt>
      <trkpt lat="43.57807" lon="3.32118">
        <ele>272.7</ele>
        <time>2017-11-19T09:18:20Z</time>
      </trkpt>
      <trkpt lat="43.5781" lon="3.32116">
        <ele>272.7</ele>
        <time>2017-11-19T09:18:22Z</time>
      </trkpt>
      <trkpt lat="43.57812" lon="3.32113">
        <ele>272.6</ele>
        <time>2017-11-19T09:18:25Z</time>
      </trkpt>
      <trkpt lat="43.57814" lon="3.32111">
        <ele>272.5</ele>
        <time>2017-11-19T09:18:28Z</time>
      </trkpt>
      <trkpt lat="43.57816" lon="3.32108">
        <ele>272.5</ele>
        <time>2017-11-19T09:18:32Z</time>
      </trkpt>
      <trkpt lat="43.57818" lon="3.32104">
        <ele>272.7</ele>
        <time>2017-11-19T09:18:35Z</time>
      </trkpt>
      <trkpt lat="43.57819" lon="3.321">
        <ele>272.8</ele>
        <time>2017-11-19T09:18:38Z</time>
      </trkpt>
      <trkpt lat="43.5782" lon="3.32095">
        <ele>272.7</ele>
        <time>2017-11-19T09:18:41Z</time>
      </trkpt>
      <trkpt lat="43.57822" lon="3.3209">
        <ele>272.6</ele>
        <time>2017-11-19T09:18:43Z</time>
      </trkpt>
      <trkpt lat="43.57824" lon="3.32084">
        <ele>272.6</ele>
        <time>2017-11-19T09:18:45Z</time>
      </trkpt>
      <trkpt lat="43.57826" lon="3.3208">
        <ele>272.6</ele>
        <time>2017-11-19T09:18:47Z</time>
      </trkpt>
      <trkpt lat="43.57827" lon="3.32076">
        <ele>272.4</ele>
        <time>2017-11-19T09:18:49Z</time>
      </trkpt>
      <trkpt lat="43.57829" lon="3.32073">
        <ele>272.2</ele>
        <time>2017-11-19T09:18:51Z</time>
      </trkpt>
      <trkpt lat="43.5783" lon="3.32068">
        <ele>271.9</ele>
        <time>2017-11-19T09:18:54Z</time>
      </trkpt>
      <trkpt lat="43.57833" lon="3.32063">
        <ele>271.7</ele>
        <time>2017-11-19T09:18:57Z</time>
      </trkpt>
      <trkpt lat="43.57835" lon="3.32059">
        <ele>271.6</ele>
        <time>2017-11-19T09:19:00Z</time>
      </trkpt>
      <trkpt lat="43.57837" lon="3.32055">
        <ele>271.3</ele>
        <time>2017-11-19T09:19:02Z</time>
      </trkpt>
      <trkpt lat="43.57838" lon="3.32052">
        <ele>271</ele>
        <time>2017-11-19T09:19:04Z</time>
      </trkpt>
      <trkpt lat="43.5784" lon="3.32049">
        <ele>270.7</ele>
        <time>2017-11-19T09:19:06Z</time>
      </trkpt>
      <trkpt lat="43.57842" lon="3.32045">
        <ele>270.5</ele>
        <time>2017-11-19T09:19:08Z</time>
      </trkpt>
      <trkpt lat="43.57844" lon="3.32043">
        <ele>270.3</ele>
        <time>2017-11-19T09:19:10Z</time>
      </trkpt>
      <trkpt lat="43.57846" lon="3.32038">
        <ele>270.1</ele>
        <time>2017-11-19T09:19:13Z</time>
      </trkpt>
      <trkpt lat="43.57849" lon="3.32035">
        <ele>269.8</ele>
        <time>2017-11-19T09:19:16Z</time>
      </trkpt>
      <trkpt lat="43.57851" lon="3.32032">
        <ele>269.5</ele>
        <time>2017-11-19T09:19:18Z</time>
      </trkpt>
      <trkpt lat="43.57854" lon="3.3203">
        <ele>269.2</ele>
        <time>2017-11-19T09:19:20Z</time>
      </trkpt>
      <trkpt lat="43.57856" lon="3.32027">
        <ele>268.9</ele>
        <time>2017-11-19T09:19:22Z</time>
      </trkpt>
      <trkpt lat="43.57859" lon="3.32023">
        <ele>268.7</ele>
        <time>2017-11-19T09:19:24Z</time>
      </trkpt>
      <trkpt lat="43.57862" lon="3.32019">
        <ele>268.7</ele>
        <time>2017-11-19T09:19:26Z</time>
      </trkpt>
      <trkpt lat="43.57864" lon="3.32016">
        <ele>268.6</ele>
        <time>2017-11-19T09:19:28Z</time>
      </trkpt>
      <trkpt lat="43.57867" lon="3.32014">
        <ele>268.6</ele>
        <time>2017-11-19T09:19:30Z</time>
      </trkpt>
      <trkpt lat="43.57869" lon="3.32012">
        <ele>268.6</ele>
        <time>2017-11-19T09:19:32Z</time>
      </trkpt>
      <trkpt lat="43.57872" lon="3.3201">
        <ele>268.7</ele>
        <time>2017-11-19T09:19:34Z</time>
      </trkpt>
      <trkpt lat="43.57875" lon="3.32008">
        <ele>268.8</ele>
        <time>2017-11-19T09:19:36Z</time>
      </trkpt>
      <trkpt lat="43.57878" lon="3.32006">
        <ele>269</ele>
        <time>2017-11-19T09:19:39Z</time>
      </trkpt>
      <trkpt lat="43.5788" lon="3.32004">
        <ele>269.1</ele>
        <time>2017-11-19T09:19:41Z</time>
      </trkpt>
      <trkpt lat="43.57883" lon="3.32002">
        <ele>269.3</ele>
        <time>2017-11-19T09:19:43Z</time>
      </trkpt>
      <trkpt lat="43.57886" lon="3.32">
        <ele>269.5</ele>
        <time>2017-11-19T09:19:45Z</time>
      </trkpt>
      <trkpt lat="43.57888" lon="3.32">
        <ele>269.8</ele>
        <time>2017-11-19T09:19:48Z</time>
      </trkpt>
      <trkpt lat="43.57891" lon="3.31998">
        <ele>270.1</ele>
        <time>2017-11-19T09:19:50Z</time>
      </trkpt>
      <trkpt lat="43.57894" lon="3.31997">
        <ele>270.4</ele>
        <time>2017-11-19T09:19:52Z</time>
      </trkpt>
      <trkpt lat="43.57897" lon="3.31996">
        <ele>270.7</ele>
        <time>2017-11-19T09:19:54Z</time>
      </trkpt>
      <trkpt lat="43.579" lon="3.31994">
        <ele>271.1</ele>
        <time>2017-11-19T09:19:56Z</time>
      </trkpt>
      <trkpt lat="43.57903" lon="3.31992">
        <ele>271.4</ele>
        <time>2017-11-19T09:19:58Z</time>
      </trkpt>
      <trkpt lat="43.57905" lon="3.31991">
        <ele>271.6</ele>
        <time>2017-11-19T09:20:00Z</time>
      </trkpt>
      <trkpt lat="43.57907" lon="3.31989">
        <ele>271.6</ele>
        <time>2017-11-19T09:20:02Z</time>
      </trkpt>
      <trkpt lat="43.57908" lon="3.31985">
        <ele>271.4</ele>
        <time>2017-11-19T09:20:04Z</time>
      </trkpt>
      <trkpt lat="43.5791" lon="3.3198">
        <ele>271.2</ele>
        <time>2017-11-19T09:20:07Z</time>
      </trkpt>
      <trkpt lat="43.57912" lon="3.31976">
        <ele>271</ele>
        <time>2017-11-19T09:20:09Z</time>
      </trkpt>
      <trkpt lat="43.57914" lon="3.31972">
        <ele>271</ele>
        <time>2017-11-19T09:20:12Z</time>
      </trkpt>
      <trkpt lat="43.57917" lon="3.31967">
        <ele>271.3</ele>
        <time>2017-11-19T09:20:15Z</time>
      </trkpt>
      <trkpt lat="43.57919" lon="3.31964">
        <ele>271.4</ele>
        <time>2017-11-19T09:20:18Z</time>
      </trkpt>
      <trkpt lat="43.57921" lon="3.31961">
        <ele>271.4</ele>
        <time>2017-11-19T09:20:21Z</time>
      </trkpt>
      <trkpt lat="43.57923" lon="3.31958">
        <ele>271.3</ele>
        <time>2017-11-19T09:20:24Z</time>
      </trkpt>
      <trkpt lat="43.57925" lon="3.31956">
        <ele>271.3</ele>
        <time>2017-11-19T09:20:27Z</time>
      </trkpt>
      <trkpt lat="43.57928" lon="3.31953">
        <ele>271.2</ele>
        <time>2017-11-19T09:20:30Z</time>
      </trkpt>
      <trkpt lat="43.57931" lon="3.3195">
        <ele>271.1</ele>
        <time>2017-11-19T09:20:33Z</time>
      </trkpt>
      <trkpt lat="43.57933" lon="3.31947">
        <ele>271.4</ele>
        <time>2017-11-19T09:20:36Z</time>
      </trkpt>
      <trkpt lat="43.57937" lon="3.31946">
        <ele>271.9</ele>
        <time>2017-11-19T09:20:39Z</time>
      </trkpt>
      <trkpt lat="43.5794" lon="3.31944">
        <ele>272.4</ele>
        <time>2017-11-19T09:20:41Z</time>
      </trkpt>
      <trkpt lat="43.57942" lon="3.31941">
        <ele>273</ele>
        <time>2017-11-19T09:20:43Z</time>
      </trkpt>
      <trkpt lat="43.57945" lon="3.31938">
        <ele>273.2</ele>
        <time>2017-11-19T09:20:45Z</time>
      </trkpt>
      <trkpt lat="43.57947" lon="3.31936">
        <ele>273.4</ele>
        <time>2017-11-19T09:20:47Z</time>
      </trkpt>
      <trkpt lat="43.5795" lon="3.31933">
        <ele>273.7</ele>
        <time>2017-11-19T09:20:50Z</time>
      </trkpt>
      <trkpt lat="43.57953" lon="3.31931">
        <ele>274</ele>
        <time>2017-11-19T09:20:52Z</time>
      </trkpt>
      <trkpt lat="43.57956" lon="3.31929">
        <ele>274.4</ele>
        <time>2017-11-19T09:20:56Z</time>
      </trkpt>
      <trkpt lat="43.57959" lon="3.31928">
        <ele>274.7</ele>
        <time>2017-11-19T09:20:59Z</time>
      </trkpt>
      <trkpt lat="43.57962" lon="3.31927">
        <ele>275</ele>
        <time>2017-11-19T09:21:02Z</time>
      </trkpt>
      <trkpt lat="43.57967" lon="3.31925">
        <ele>275.4</ele>
        <time>2017-11-19T09:21:09Z</time>
      </trkpt>
      <trkpt lat="43.5797" lon="3.31924">
        <ele>275.8</ele>
        <time>2017-11-19T09:21:13Z</time>
      </trkpt>
      <trkpt lat="43.57973" lon="3.31923">
        <ele>276</ele>
        <time>2017-11-19T09:21:17Z</time>
      </trkpt>
      <trkpt lat="43.57976" lon="3.31922">
        <ele>276.2</ele>
        <time>2017-11-19T09:21:20Z</time>
      </trkpt>
      <trkpt lat="43.57978" lon="3.31922">
        <ele>276.8</ele>
        <time>2017-11-19T09:21:23Z</time>
      </trkpt>
      <trkpt lat="43.57981" lon="3.31921">
        <ele>277</ele>
        <time>2017-11-19T09:21:25Z</time>
      </trkpt>
      <trkpt lat="43.57984" lon="3.3192">
        <ele>276.9</ele>
        <time>2017-11-19T09:21:28Z</time>
      </trkpt>
      <trkpt lat="43.57987" lon="3.31919">
        <ele>277</ele>
        <time>2017-11-19T09:21:31Z</time>
      </trkpt>
      <trkpt lat="43.57991" lon="3.31917">
        <ele>277.2</ele>
        <time>2017-11-19T09:21:34Z</time>
      </trkpt>
      <trkpt lat="43.57994" lon="3.31916">
        <ele>277.8</ele>
        <time>2017-11-19T09:21:37Z</time>
      </trkpt>
      <trkpt lat="43.57997" lon="3.31917">
        <ele>278.3</ele>
        <time>2017-11-19T09:21:39Z</time>
      </trkpt>
      <trkpt lat="43.57998" lon="3.31921">
        <ele>278.2</ele>
        <time>2017-11-19T09:21:42Z</time>
      </trkpt>
      <trkpt lat="43.57998" lon="3.31926">
        <ele>278</ele>
        <time>2017-11-19T09:21:46Z</time>
      </trkpt>
      <trkpt lat="43.57997" lon="3.31929">
        <ele>278</ele>
        <time>2017-11-19T09:21:49Z</time>
      </trkpt>
      <trkpt lat="43.57996" lon="3.31933">
        <ele>278.1</ele>
        <time>2017-11-19T09:21:53Z</time>
      </trkpt>
      <trkpt lat="43.57995" lon="3.31941">
        <ele>278.4</ele>
        <time>2017-11-19T09:21:59Z</time>
      </trkpt>
      <trkpt lat="43.57994" lon="3.31945">
        <ele>278.6</ele>
        <time>2017-11-19T09:22:02Z</time>
      </trkpt>
      <trkpt lat="43.57994" lon="3.3195">
        <ele>278.8</ele>
        <time>2017-11-19T09:22:06Z</time>
      </trkpt>
      <trkpt lat="43.57993" lon="3.31954">
        <ele>279</ele>
        <time>2017-11-19T09:22:09Z</time>
      </trkpt>
      <trkpt lat="43.57992" lon="3.31959">
        <ele>279.3</ele>
        <time>2017-11-19T09:22:12Z</time>
      </trkpt>
      <trkpt lat="43.57991" lon="3.31963">
        <ele>279.5</ele>
        <time>2017-11-19T09:22:15Z</time>
      </trkpt>
      <trkpt lat="43.57991" lon="3.31968">
        <ele>280</ele>
        <time>2017-11-19T09:22:18Z</time>
      </trkpt>
      <trkpt lat="43.57991" lon="3.31972">
        <ele>280.6</ele>
        <time>2017-11-19T09:22:21Z</time>
      </trkpt>
      <trkpt lat="43.57991" lon="3.31977">
        <ele>281.2</ele>
        <time>2017-11-19T09:22:23Z</time>
      </trkpt>
      <trkpt lat="43.57992" lon="3.31982">
        <ele>281.9</ele>
        <time>2017-11-19T09:22:26Z</time>
      </trkpt>
      <trkpt lat="43.57992" lon="3.31987">
        <ele>282.6</ele>
        <time>2017-11-19T09:22:29Z</time>
      </trkpt>
      <trkpt lat="43.57993" lon="3.31992">
        <ele>283.3</ele>
        <time>2017-11-19T09:22:32Z</time>
      </trkpt>
      <trkpt lat="43.57993" lon="3.31996">
        <ele>283.8</ele>
        <time>2017-11-19T09:22:34Z</time>
      </trkpt>
      <trkpt lat="43.57993" lon="3.32">
        <ele>284.3</ele>
        <time>2017-11-19T09:22:36Z</time>
      </trkpt>
      <trkpt lat="43.57994" lon="3.32006">
        <ele>284.9</ele>
        <time>2017-11-19T09:22:39Z</time>
      </trkpt>
      <trkpt lat="43.57993" lon="3.32011">
        <ele>285.4</ele>
        <time>2017-11-19T09:22:42Z</time>
      </trkpt>
      <trkpt lat="43.57993" lon="3.32017">
        <ele>285.8</ele>
        <time>2017-11-19T09:22:45Z</time>
      </trkpt>
      <trkpt lat="43.57993" lon="3.32022">
        <ele>286.6</ele>
        <time>2017-11-19T09:22:48Z</time>
      </trkpt>
      <trkpt lat="43.57991" lon="3.32026">
        <ele>287.3</ele>
        <time>2017-11-19T09:22:51Z</time>
      </trkpt>
      <trkpt lat="43.5799" lon="3.3203">
        <ele>287.4</ele>
        <time>2017-11-19T09:22:53Z</time>
      </trkpt>
      <trkpt lat="43.5799" lon="3.32034">
        <ele>287.2</ele>
        <time>2017-11-19T09:22:56Z</time>
      </trkpt>
      <trkpt lat="43.57987" lon="3.32038">
        <ele>286.5</ele>
        <time>2017-11-19T09:23:00Z</time>
      </trkpt>
      <trkpt lat="43.57986" lon="3.32041">
        <ele>286</ele>
        <time>2017-11-19T09:23:03Z</time>
      </trkpt>
      <trkpt lat="43.57988" lon="3.32045">
        <ele>286</ele>
        <time>2017-11-19T09:23:07Z</time>
      </trkpt>
      <trkpt lat="43.5799" lon="3.32047">
        <ele>286.2</ele>
        <time>2017-11-19T09:23:09Z</time>
      </trkpt>
      <trkpt lat="43.57993" lon="3.32045">
        <ele>286.7</ele>
        <time>2017-11-19T09:23:13Z</time>
      </trkpt>
      <trkpt lat="43.57996" lon="3.32043">
        <ele>287.1</ele>
        <time>2017-11-19T09:23:15Z</time>
      </trkpt>
      <trkpt lat="43.57999" lon="3.32039">
        <ele>287.6</ele>
        <time>2017-11-19T09:23:17Z</time>
      </trkpt>
      <trkpt lat="43.58002" lon="3.32035">
        <ele>288.2</ele>
        <time>2017-11-19T09:23:19Z</time>
      </trkpt>
      <trkpt lat="43.58005" lon="3.32031">
        <ele>288.7</ele>
        <time>2017-11-19T09:23:22Z</time>
      </trkpt>
      <trkpt lat="43.58007" lon="3.32028">
        <ele>289.1</ele>
        <time>2017-11-19T09:23:25Z</time>
      </trkpt>
      <trkpt lat="43.58009" lon="3.32024">
        <ele>289.6</ele>
        <time>2017-11-19T09:23:27Z</time>
      </trkpt>
      <trkpt lat="43.58011" lon="3.32022">
        <ele>290</ele>
        <time>2017-11-19T09:23:30Z</time>
      </trkpt>
      <trkpt lat="43.58014" lon="3.32019">
        <ele>290.4</ele>
        <time>2017-11-19T09:23:32Z</time>
      </trkpt>
      <trkpt lat="43.58017" lon="3.32015">
        <ele>291</ele>
        <time>2017-11-19T09:23:35Z</time>
      </trkpt>
      <trkpt lat="43.5802" lon="3.32012">
        <ele>291.5</ele>
        <time>2017-11-19T09:23:37Z</time>
      </trkpt>
      <trkpt lat="43.58023" lon="3.32009">
        <ele>292</ele>
        <time>2017-11-19T09:23:40Z</time>
      </trkpt>
      <trkpt lat="43.58026" lon="3.32006">
        <ele>292.4</ele>
        <time>2017-11-19T09:23:43Z</time>
      </trkpt>
      <trkpt lat="43.58029" lon="3.32005">
        <ele>292.8</ele>
        <time>2017-11-19T09:23:45Z</time>
      </trkpt>
      <trkpt lat="43.58032" lon="3.32003">
        <ele>293.3</ele>
        <time>2017-11-19T09:23:47Z</time>
      </trkpt>
      <trkpt lat="43.58035" lon="3.32002">
        <ele>293.6</ele>
        <time>2017-11-19T09:23:49Z</time>
      </trkpt>
      <trkpt lat="43.58038" lon="3.32001">
        <ele>294</ele>
        <time>2017-11-19T09:23:51Z</time>
      </trkpt>
      <trkpt lat="43.58041" lon="3.32">
        <ele>294.3</ele>
        <time>2017-11-19T09:23:53Z</time>
      </trkpt>
      <trkpt lat="43.58044" lon="3.32">
        <ele>294.6</ele>
        <time>2017-11-19T09:23:55Z</time>
      </trkpt>
      <trkpt lat="43.58048" lon="3.32">
        <ele>295</ele>
        <time>2017-11-19T09:23:58Z</time>
      </trkpt>
      <trkpt lat="43.58052" lon="3.32">
        <ele>295.4</ele>
        <time>2017-11-19T09:24:01Z</time>
      </trkpt>
      <trkpt lat="43.58054" lon="3.32001">
        <ele>295.6</ele>
        <time>2017-11-19T09:24:03Z</time>
      </trkpt>
      <trkpt lat="43.58057" lon="3.32002">
        <ele>295.8</ele>
        <time>2017-11-19T09:24:05Z</time>
      </trkpt>
      <trkpt lat="43.58061" lon="3.32003">
        <ele>296.2</ele>
        <time>2017-11-19T09:24:08Z</time>
      </trkpt>
      <trkpt lat="43.58064" lon="3.32004">
        <ele>296.4</ele>
        <time>2017-11-19T09:24:10Z</time>
      </trkpt>
      <trkpt lat="43.58067" lon="3.32005">
        <ele>296.6</ele>
        <time>2017-11-19T09:24:12Z</time>
      </trkpt>
      <trkpt lat="43.5807" lon="3.32006">
        <ele>296.9</ele>
        <time>2017-11-19T09:24:15Z</time>
      </trkpt>
      <trkpt lat="43.58074" lon="3.32008">
        <ele>297.2</ele>
        <time>2017-11-19T09:24:18Z</time>
      </trkpt>
      <trkpt lat="43.58077" lon="3.32009">
        <ele>297.4</ele>
        <time>2017-11-19T09:24:20Z</time>
      </trkpt>
      <trkpt lat="43.5808" lon="3.32011">
        <ele>297.6</ele>
        <time>2017-11-19T09:24:22Z</time>
      </trkpt>
      <trkpt lat="43.58083" lon="3.32012">
        <ele>297.8</ele>
        <time>2017-11-19T09:24:24Z</time>
      </trkpt>
      <trkpt lat="43.58086" lon="3.32013">
        <ele>298</ele>
        <time>2017-11-19T09:24:26Z</time>
      </trkpt>
      <trkpt lat="43.58089" lon="3.32014">
        <ele>298.2</ele>
        <time>2017-11-19T09:24:29Z</time>
      </trkpt>
      <trkpt lat="43.58092" lon="3.32015">
        <ele>298.5</ele>
        <time>2017-11-19T09:24:32Z</time>
      </trkpt>
      <trkpt lat="43.58095" lon="3.32017">
        <ele>298.7</ele>
        <time>2017-11-19T09:24:35Z</time>
      </trkpt>
      <trkpt lat="43.58099" lon="3.32018">
        <ele>298.9</ele>
        <time>2017-11-19T09:24:38Z</time>
      </trkpt>
      <trkpt lat="43.58101" lon="3.32018">
        <ele>299.1</ele>
        <time>2017-11-19T09:24:40Z</time>
      </trkpt>
      <trkpt lat="43.58104" lon="3.32018">
        <ele>299.3</ele>
        <time>2017-11-19T09:24:42Z</time>
      </trkpt>
      <trkpt lat="43.58108" lon="3.32016">
        <ele>299.6</ele>
        <time>2017-11-19T09:24:45Z</time>
      </trkpt>
      <trkpt lat="43.58111" lon="3.32016">
        <ele>299.8</ele>
        <time>2017-11-19T09:24:47Z</time>
      </trkpt>
      <trkpt lat="43.58114" lon="3.32015">
        <ele>300.1</ele>
        <time>2017-11-19T09:24:49Z</time>
      </trkpt>
      <trkpt lat="43.58118" lon="3.32013">
        <ele>300.4</ele>
        <time>2017-11-19T09:24:52Z</time>
      </trkpt>
      <trkpt lat="43.58122" lon="3.32013">
        <ele>300.6</ele>
        <time>2017-11-19T09:24:55Z</time>
      </trkpt>
      <trkpt lat="43.58126" lon="3.32012">
        <ele>300.9</ele>
        <time>2017-11-19T09:24:58Z</time>
      </trkpt>
      <trkpt lat="43.58129" lon="3.3201">
        <ele>301.4</ele>
        <time>2017-11-19T09:25:01Z</time>
      </trkpt>
      <trkpt lat="43.58133" lon="3.32009">
        <ele>301.8</ele>
        <time>2017-11-19T09:25:03Z</time>
      </trkpt>
      <trkpt lat="43.58136" lon="3.32008">
        <ele>302.5</ele>
        <time>2017-11-19T09:25:05Z</time>
      </trkpt>
      <trkpt lat="43.58139" lon="3.32009">
        <ele>303.1</ele>
        <time>2017-11-19T09:25:07Z</time>
      </trkpt>
      <trkpt lat="43.58139" lon="3.32014">
        <ele>304</ele>
        <time>2017-11-19T09:25:10Z</time>
      </trkpt>
      <trkpt lat="43.58137" lon="3.32016">
        <ele>304.6</ele>
        <time>2017-11-19T09:25:12Z</time>
      </trkpt>
      <trkpt lat="43.58134" lon="3.32018">
        <ele>305.1</ele>
        <time>2017-11-19T09:25:14Z</time>
      </trkpt>
      <trkpt lat="43.5813" lon="3.32019">
        <ele>305.4</ele>
        <time>2017-11-19T09:25:16Z</time>
      </trkpt>
      <trkpt lat="43.58127" lon="3.3202">
        <ele>305.8</ele>
        <time>2017-11-19T09:25:18Z</time>
      </trkpt>
      <trkpt lat="43.58124" lon="3.32023">
        <ele>306.2</ele>
        <time>2017-11-19T09:25:20Z</time>
      </trkpt>
      <trkpt lat="43.58121" lon="3.32025">
        <ele>306.4</ele>
        <time>2017-11-19T09:25:22Z</time>
      </trkpt>
      <trkpt lat="43.58117" lon="3.32027">
        <ele>306.8</ele>
        <time>2017-11-19T09:25:24Z</time>
      </trkpt>
      <trkpt lat="43.58114" lon="3.3203">
        <ele>307.1</ele>
        <time>2017-11-19T09:25:26Z</time>
      </trkpt>
      <trkpt lat="43.58111" lon="3.32032">
        <ele>307.4</ele>
        <time>2017-11-19T09:25:28Z</time>
      </trkpt>
      <trkpt lat="43.58107" lon="3.32035">
        <ele>307.6</ele>
        <time>2017-11-19T09:25:30Z</time>
      </trkpt>
      <trkpt lat="43.58104" lon="3.32037">
        <ele>307.9</ele>
        <time>2017-11-19T09:25:32Z</time>
      </trkpt>
      <trkpt lat="43.581" lon="3.3204">
        <ele>308.2</ele>
        <time>2017-11-19T09:25:34Z</time>
      </trkpt>
      <trkpt lat="43.58096" lon="3.32043">
        <ele>308.5</ele>
        <time>2017-11-19T09:25:36Z</time>
      </trkpt>
      <trkpt lat="43.58091" lon="3.32045">
        <ele>308.9</ele>
        <time>2017-11-19T09:25:38Z</time>
      </trkpt>
      <trkpt lat="43.58088" lon="3.32047">
        <ele>309.1</ele>
        <time>2017-11-19T09:25:39Z</time>
      </trkpt>
      <trkpt lat="43.58085" lon="3.32048">
        <ele>309.2</ele>
        <time>2017-11-19T09:25:40Z</time>
      </trkpt>
      <trkpt lat="43.58083" lon="3.32049">
        <ele>309.4</ele>
        <time>2017-11-19T09:25:41Z</time>
      </trkpt>
      <trkpt lat="43.5808" lon="3.3205">
        <ele>309.6</ele>
        <time>2017-11-19T09:25:42Z</time>
      </trkpt>
      <trkpt lat="43.58077" lon="3.32052">
        <ele>309.7</ele>
        <time>2017-11-19T09:25:43Z</time>
      </trkpt>
      <trkpt lat="43.58074" lon="3.32053">
        <ele>309.9</ele>
        <time>2017-11-19T09:25:44Z</time>
      </trkpt>
      <trkpt lat="43.58071" lon="3.32055">
        <ele>310</ele>
        <time>2017-11-19T09:25:45Z</time>
      </trkpt>
      <trkpt lat="43.58068" lon="3.32057">
        <ele>310</ele>
        <time>2017-11-19T09:25:46Z</time>
      </trkpt>
      <trkpt lat="43.58065" lon="3.32059">
        <ele>310.1</ele>
        <time>2017-11-19T09:25:47Z</time>
      </trkpt>
      <trkpt lat="43.58062" lon="3.32061">
        <ele>310.2</ele>
        <time>2017-11-19T09:25:48Z</time>
      </trkpt>
      <trkpt lat="43.58059" lon="3.32064">
        <ele>310.3</ele>
        <time>2017-11-19T09:25:49Z</time>
      </trkpt>
      <trkpt lat="43.58057" lon="3.32067">
        <ele>310.3</ele>
        <time>2017-11-19T09:25:50Z</time>
      </trkpt>
      <trkpt lat="43.58054" lon="3.32069">
        <ele>310.4</ele>
        <time>2017-11-19T09:25:51Z</time>
      </trkpt>
      <trkpt lat="43.58052" lon="3.32072">
        <ele>310.5</ele>
        <time>2017-11-19T09:25:52Z</time>
      </trkpt>
      <trkpt lat="43.5805" lon="3.32074">
        <ele>310.5</ele>
        <time>2017-11-19T09:25:53Z</time>
      </trkpt>
      <trkpt lat="43.58048" lon="3.32077">
        <ele>310.6</ele>
        <time>2017-11-19T09:25:54Z</time>
      </trkpt>
      <trkpt lat="43.58046" lon="3.32081">
        <ele>310.8</ele>
        <time>2017-11-19T09:25:55Z</time>
      </trkpt>
      <trkpt lat="43.58045" lon="3.32084">
        <ele>310.9</ele>
        <time>2017-11-19T09:25:56Z</time>
      </trkpt>
      <trkpt lat="43.58043" lon="3.32087">
        <ele>311</ele>
        <time>2017-11-19T09:25:57Z</time>
      </trkpt>
      <trkpt lat="43.5804" lon="3.32093">
        <ele>311.2</ele>
        <time>2017-11-19T09:25:59Z</time>
      </trkpt>
      <trkpt lat="43.58037" lon="3.32098">
        <ele>311.4</ele>
        <time>2017-11-19T09:26:01Z</time>
      </trkpt>
      <trkpt lat="43.58035" lon="3.32102">
        <ele>311.6</ele>
        <time>2017-11-19T09:26:02Z</time>
      </trkpt>
      <trkpt lat="43.58033" lon="3.32106">
        <ele>311.8</ele>
        <time>2017-11-19T09:26:03Z</time>
      </trkpt>
      <trkpt lat="43.58031" lon="3.3211">
        <ele>312.1</ele>
        <time>2017-11-19T09:26:04Z</time>
      </trkpt>
      <trkpt lat="43.58029" lon="3.32114">
        <ele>312.2</ele>
        <time>2017-11-19T09:26:05Z</time>
      </trkpt>
      <trkpt lat="43.58027" lon="3.32118">
        <ele>312.4</ele>
        <time>2017-11-19T09:26:06Z</time>
      </trkpt>
      <trkpt lat="43.58025" lon="3.32121">
        <ele>312.6</ele>
        <time>2017-11-19T09:26:07Z</time>
      </trkpt>
      <trkpt lat="43.58022" lon="3.32127">
        <ele>312.9</ele>
        <time>2017-11-19T09:26:09Z</time>
      </trkpt>
      <trkpt lat="43.58021" lon="3.32131">
        <ele>313</ele>
        <time>2017-11-19T09:26:10Z</time>
      </trkpt>
      <trkpt lat="43.5802" lon="3.32139">
        <ele>313.3</ele>
        <time>2017-11-19T09:26:12Z</time>
      </trkpt>
      <trkpt lat="43.58018" lon="3.32146">
        <ele>313.7</ele>
        <time>2017-11-19T09:26:14Z</time>
      </trkpt>
      <trkpt lat="43.58017" lon="3.3215">
        <ele>313.8</ele>
        <time>2017-11-19T09:26:15Z</time>
      </trkpt>
      <trkpt lat="43.58016" lon="3.32154">
        <ele>314</ele>
        <time>2017-11-19T09:26:16Z</time>
      </trkpt>
      <trkpt lat="43.58015" lon="3.32158">
        <ele>314.1</ele>
        <time>2017-11-19T09:26:17Z</time>
      </trkpt>
      <trkpt lat="43.58012" lon="3.32165">
        <ele>314.5</ele>
        <time>2017-11-19T09:26:19Z</time>
      </trkpt>
      <trkpt lat="43.58011" lon="3.32169">
        <ele>314.6</ele>
        <time>2017-11-19T09:26:20Z</time>
      </trkpt>
      <trkpt lat="43.5801" lon="3.32173">
        <ele>314.8</ele>
        <time>2017-11-19T09:26:21Z</time>
      </trkpt>
      <trkpt lat="43.58009" lon="3.32176">
        <ele>315</ele>
        <time>2017-11-19T09:26:22Z</time>
      </trkpt>
      <trkpt lat="43.58008" lon="3.32183">
        <ele>315.3</ele>
        <time>2017-11-19T09:26:24Z</time>
      </trkpt>
      <trkpt lat="43.58007" lon="3.32188">
        <ele>315.5</ele>
        <time>2017-11-19T09:26:26Z</time>
      </trkpt>
      <trkpt lat="43.58007" lon="3.32196">
        <ele>315.9</ele>
        <time>2017-11-19T09:26:28Z</time>
      </trkpt>
      <trkpt lat="43.58005" lon="3.32202">
        <ele>316.2</ele>
        <time>2017-11-19T09:26:30Z</time>
      </trkpt>
      <trkpt lat="43.58005" lon="3.32207">
        <ele>316.4</ele>
        <time>2017-11-19T09:26:31Z</time>
      </trkpt>
      <trkpt lat="43.58004" lon="3.32214">
        <ele>316.8</ele>
        <time>2017-11-19T09:26:33Z</time>
      </trkpt>
      <trkpt lat="43.58002" lon="3.32222">
        <ele>317.3</ele>
        <time>2017-11-19T09:26:35Z</time>
      </trkpt>
      <trkpt lat="43.58002" lon="3.32226">
        <ele>317.5</ele>
        <time>2017-11-19T09:26:36Z</time>
      </trkpt>
      <trkpt lat="43.58001" lon="3.32231">
        <ele>317.8</ele>
        <time>2017-11-19T09:26:37Z</time>
      </trkpt>
      <trkpt lat="43.58001" lon="3.32235">
        <ele>318</ele>
        <time>2017-11-19T09:26:38Z</time>
      </trkpt>
      <trkpt lat="43.58" lon="3.32239">
        <ele>318.3</ele>
        <time>2017-11-19T09:26:39Z</time>
      </trkpt>
      <trkpt lat="43.57999" lon="3.32246">
        <ele>318.7</ele>
        <time>2017-11-19T09:26:41Z</time>
      </trkpt>
      <trkpt lat="43.57998" lon="3.32252">
        <ele>319.1</ele>
        <time>2017-11-19T09:26:43Z</time>
      </trkpt>
      <trkpt lat="43.57997" lon="3.32258">
        <ele>319.5</ele>
        <time>2017-11-19T09:26:45Z</time>
      </trkpt>
      <trkpt lat="43.57995" lon="3.32264">
        <ele>319.9</ele>
        <time>2017-11-19T09:26:47Z</time>
      </trkpt>
      <trkpt lat="43.57994" lon="3.32268">
        <ele>320.1</ele>
        <time>2017-11-19T09:26:48Z</time>
      </trkpt>
      <trkpt lat="43.57994" lon="3.32272">
        <ele>320.4</ele>
        <time>2017-11-19T09:26:49Z</time>
      </trkpt>
      <trkpt lat="43.57992" lon="3.32278">
        <ele>320.7</ele>
        <time>2017-11-19T09:26:51Z</time>
      </trkpt>
      <trkpt lat="43.57991" lon="3.32284">
        <ele>321.1</ele>
        <time>2017-11-19T09:26:53Z</time>
      </trkpt>
      <trkpt lat="43.57989" lon="3.32289">
        <ele>321.4</ele>
        <time>2017-11-19T09:26:55Z</time>
      </trkpt>
      <trkpt lat="43.57988" lon="3.32294">
        <ele>321.7</ele>
        <time>2017-11-19T09:26:57Z</time>
      </trkpt>
      <trkpt lat="43.57987" lon="3.32299">
        <ele>322</ele>
        <time>2017-11-19T09:27:00Z</time>
      </trkpt>
      <trkpt lat="43.57986" lon="3.32304">
        <ele>322.3</ele>
        <time>2017-11-19T09:27:02Z</time>
      </trkpt>
      <trkpt lat="43.57985" lon="3.32309">
        <ele>322.6</ele>
        <time>2017-11-19T09:27:04Z</time>
      </trkpt>
      <trkpt lat="43.57984" lon="3.32313">
        <ele>322.8</ele>
        <time>2017-11-19T09:27:06Z</time>
      </trkpt>
      <trkpt lat="43.57984" lon="3.32318">
        <ele>323.1</ele>
        <time>2017-11-19T09:27:08Z</time>
      </trkpt>
      <trkpt lat="43.57983" lon="3.32325">
        <ele>323.5</ele>
        <time>2017-11-19T09:27:10Z</time>
      </trkpt>
      <trkpt lat="43.57983" lon="3.32329">
        <ele>323.7</ele>
        <time>2017-11-19T09:27:12Z</time>
      </trkpt>
      <trkpt lat="43.57983" lon="3.32335">
        <ele>324.1</ele>
        <time>2017-11-19T09:27:14Z</time>
      </trkpt>
      <trkpt lat="43.57983" lon="3.3234">
        <ele>324.4</ele>
        <time>2017-11-19T09:27:16Z</time>
      </trkpt>
      <trkpt lat="43.57983" lon="3.32345">
        <ele>324.6</ele>
        <time>2017-11-19T09:27:18Z</time>
      </trkpt>
      <trkpt lat="43.57982" lon="3.3235">
        <ele>324.9</ele>
        <time>2017-11-19T09:27:20Z</time>
      </trkpt>
      <trkpt lat="43.5798" lon="3.32356">
        <ele>325.3</ele>
        <time>2017-11-19T09:27:22Z</time>
      </trkpt>
      <trkpt lat="43.57979" lon="3.3236">
        <ele>325.6</ele>
        <time>2017-11-19T09:27:24Z</time>
      </trkpt>
      <trkpt lat="43.57979" lon="3.32365">
        <ele>325.8</ele>
        <time>2017-11-19T09:27:26Z</time>
      </trkpt>
      <trkpt lat="43.57979" lon="3.3237">
        <ele>326.1</ele>
        <time>2017-11-19T09:27:28Z</time>
      </trkpt>
      <trkpt lat="43.57979" lon="3.32375">
        <ele>326.4</ele>
        <time>2017-11-19T09:27:30Z</time>
      </trkpt>
      <trkpt lat="43.57978" lon="3.3238">
        <ele>326.7</ele>
        <time>2017-11-19T09:27:32Z</time>
      </trkpt>
      <trkpt lat="43.57977" lon="3.32385">
        <ele>327</ele>
        <time>2017-11-19T09:27:35Z</time>
      </trkpt>
      <trkpt lat="43.57976" lon="3.3239">
        <ele>327.3</ele>
        <time>2017-11-19T09:27:37Z</time>
      </trkpt>
      <trkpt lat="43.57975" lon="3.32395">
        <ele>327.6</ele>
        <time>2017-11-19T09:27:39Z</time>
      </trkpt>
      <trkpt lat="43.57974" lon="3.32401">
        <ele>328</ele>
        <time>2017-11-19T09:27:41Z</time>
      </trkpt>
      <trkpt lat="43.57973" lon="3.32406">
        <ele>328.4</ele>
        <time>2017-11-19T09:27:44Z</time>
      </trkpt>
      <trkpt lat="43.57972" lon="3.3241">
        <ele>328.7</ele>
        <time>2017-11-19T09:27:46Z</time>
      </trkpt>
      <trkpt lat="43.57971" lon="3.32415">
        <ele>329</ele>
        <time>2017-11-19T09:27:49Z</time>
      </trkpt>
      <trkpt lat="43.57969" lon="3.32419">
        <ele>329.3</ele>
        <time>2017-11-19T09:27:51Z</time>
      </trkpt>
      <trkpt lat="43.57968" lon="3.32423">
        <ele>329.6</ele>
        <time>2017-11-19T09:27:53Z</time>
      </trkpt>
      <trkpt lat="43.57968" lon="3.32427">
        <ele>329.9</ele>
        <time>2017-11-19T09:27:55Z</time>
      </trkpt>
      <trkpt lat="43.57967" lon="3.32431">
        <ele>330.2</ele>
        <time>2017-11-19T09:27:57Z</time>
      </trkpt>
      <trkpt lat="43.57966" lon="3.32435">
        <ele>330.5</ele>
        <time>2017-11-19T09:27:59Z</time>
      </trkpt>
      <trkpt lat="43.57965" lon="3.3244">
        <ele>330.9</ele>
        <time>2017-11-19T09:28:02Z</time>
      </trkpt>
      <trkpt lat="43.57965" lon="3.32445">
        <ele>331.1</ele>
        <time>2017-11-19T09:28:05Z</time>
      </trkpt>
      <trkpt lat="43.57963" lon="3.32449">
        <ele>331.4</ele>
        <time>2017-11-19T09:28:08Z</time>
      </trkpt>
      <trkpt lat="43.57961" lon="3.32452">
        <ele>331.7</ele>
        <time>2017-11-19T09:28:10Z</time>
      </trkpt>
      <trkpt lat="43.57958" lon="3.32454">
        <ele>332</ele>
        <time>2017-11-19T09:28:12Z</time>
      </trkpt>
      <trkpt lat="43.57956" lon="3.32457">
        <ele>332.3</ele>
        <time>2017-11-19T09:28:14Z</time>
      </trkpt>
      <trkpt lat="43.57954" lon="3.3246">
        <ele>332.7</ele>
        <time>2017-11-19T09:28:16Z</time>
      </trkpt>
      <trkpt lat="43.57952" lon="3.32463">
        <ele>332.9</ele>
        <time>2017-11-19T09:28:18Z</time>
      </trkpt>
      <trkpt lat="43.5795" lon="3.32467">
        <ele>333.2</ele>
        <time>2017-11-19T09:28:20Z</time>
      </trkpt>
      <trkpt lat="43.57948" lon="3.32471">
        <ele>333.6</ele>
        <time>2017-11-19T09:28:22Z</time>
      </trkpt>
      <trkpt lat="43.57945" lon="3.32476">
        <ele>334</ele>
        <time>2017-11-19T09:28:24Z</time>
      </trkpt>
      <trkpt lat="43.57942" lon="3.32479">
        <ele>334.5</ele>
        <time>2017-11-19T09:28:25Z</time>
      </trkpt>
      <trkpt lat="43.57939" lon="3.32481">
        <ele>334.7</ele>
        <time>2017-11-19T09:28:26Z</time>
      </trkpt>
      <trkpt lat="43.57936" lon="3.32483">
        <ele>335.3</ele>
        <time>2017-11-19T09:28:27Z</time>
      </trkpt>
      <trkpt lat="43.57933" lon="3.32485">
        <ele>335.4</ele>
        <time>2017-11-19T09:28:28Z</time>
      </trkpt>
      <trkpt lat="43.5793" lon="3.32487">
        <ele>335.8</ele>
        <time>2017-11-19T09:28:29Z</time>
      </trkpt>
      <trkpt lat="43.57928" lon="3.32489">
        <ele>336</ele>
        <time>2017-11-19T09:28:30Z</time>
      </trkpt>
      <trkpt lat="43.57925" lon="3.32492">
        <ele>336.5</ele>
        <time>2017-11-19T09:28:31Z</time>
      </trkpt>
      <trkpt lat="43.57922" lon="3.32494">
        <ele>336.6</ele>
        <time>2017-11-19T09:28:32Z</time>
      </trkpt>
      <trkpt lat="43.57919" lon="3.32496">
        <ele>337.1</ele>
        <time>2017-11-19T09:28:33Z</time>
      </trkpt>
      <trkpt lat="43.57916" lon="3.32498">
        <ele>337.2</ele>
        <time>2017-11-19T09:28:34Z</time>
      </trkpt>
      <trkpt lat="43.57912" lon="3.32501">
        <ele>337.8</ele>
        <time>2017-11-19T09:28:36Z</time>
      </trkpt>
      <trkpt lat="43.57907" lon="3.32504">
        <ele>338.4</ele>
        <time>2017-11-19T09:28:38Z</time>
      </trkpt>
      <trkpt lat="43.57904" lon="3.32506">
        <ele>338.4</ele>
        <time>2017-11-19T09:28:40Z</time>
      </trkpt>
      <trkpt lat="43.579" lon="3.32508">
        <ele>338.4</ele>
        <time>2017-11-19T09:28:43Z</time>
      </trkpt>
      <trkpt lat="43.57897" lon="3.32509">
        <ele>339</ele>
        <time>2017-11-19T09:28:45Z</time>
      </trkpt>
      <trkpt lat="43.57894" lon="3.32511">
        <ele>338.9</ele>
        <time>2017-11-19T09:28:47Z</time>
      </trkpt>
      <trkpt lat="43.57891" lon="3.32512">
        <ele>338.8</ele>
        <time>2017-11-19T09:28:49Z</time>
      </trkpt>
      <trkpt lat="43.57888" lon="3.32513">
        <ele>339.4</ele>
        <time>2017-11-19T09:28:51Z</time>
      </trkpt>
      <trkpt lat="43.57885" lon="3.32514">
        <ele>339.3</ele>
        <time>2017-11-19T09:28:53Z</time>
      </trkpt>
      <trkpt lat="43.57882" lon="3.32515">
        <ele>339.2</ele>
        <time>2017-11-19T09:28:55Z</time>
      </trkpt>
      <trkpt lat="43.57878" lon="3.32516">
        <ele>339.1</ele>
        <time>2017-11-19T09:28:57Z</time>
      </trkpt>
      <trkpt lat="43.57875" lon="3.32518">
        <ele>339.7</ele>
        <time>2017-11-19T09:28:59Z</time>
      </trkpt>
      <trkpt lat="43.57872" lon="3.32519">
        <ele>339.6</ele>
        <time>2017-11-19T09:29:01Z</time>
      </trkpt>
      <trkpt lat="43.57869" lon="3.3252">
        <ele>339.6</ele>
        <time>2017-11-19T09:29:03Z</time>
      </trkpt>
      <trkpt lat="43.57866" lon="3.32522">
        <ele>340.2</ele>
        <time>2017-11-19T09:29:05Z</time>
      </trkpt>
      <trkpt lat="43.57863" lon="3.32523">
        <ele>340.1</ele>
        <time>2017-11-19T09:29:07Z</time>
      </trkpt>
      <trkpt lat="43.57859" lon="3.32524">
        <ele>340</ele>
        <time>2017-11-19T09:29:09Z</time>
      </trkpt>
      <trkpt lat="43.57856" lon="3.32526">
        <ele>340.7</ele>
        <time>2017-11-19T09:29:11Z</time>
      </trkpt>
      <trkpt lat="43.57853" lon="3.32527">
        <ele>340.6</ele>
        <time>2017-11-19T09:29:13Z</time>
      </trkpt>
      <trkpt lat="43.5785" lon="3.32528">
        <ele>340.5</ele>
        <time>2017-11-19T09:29:15Z</time>
      </trkpt>
      <trkpt lat="43.57847" lon="3.32529">
        <ele>340.3</ele>
        <time>2017-11-19T09:29:17Z</time>
      </trkpt>
      <trkpt lat="43.57843" lon="3.3253">
        <ele>340.7</ele>
        <time>2017-11-19T09:29:19Z</time>
      </trkpt>
      <trkpt lat="43.5784" lon="3.32531">
        <ele>340.4</ele>
        <time>2017-11-19T09:29:21Z</time>
      </trkpt>
      <trkpt lat="43.57836" lon="3.32532">
        <ele>340.2</ele>
        <time>2017-11-19T09:29:23Z</time>
      </trkpt>
      <trkpt lat="43.57833" lon="3.32533">
        <ele>339.8</ele>
        <time>2017-11-19T09:29:25Z</time>
      </trkpt>
      <trkpt lat="43.5783" lon="3.32534">
        <ele>340.1</ele>
        <time>2017-11-19T09:29:27Z</time>
      </trkpt>
      <trkpt lat="43.57827" lon="3.32536">
        <ele>339.8</ele>
        <time>2017-11-19T09:29:29Z</time>
      </trkpt>
      <trkpt lat="43.57825" lon="3.32539">
        <ele>340</ele>
        <time>2017-11-19T09:29:31Z</time>
      </trkpt>
      <trkpt lat="43.57822" lon="3.32543">
        <ele>340.5</ele>
        <time>2017-11-19T09:29:34Z</time>
      </trkpt>
      <trkpt lat="43.5782" lon="3.32547">
        <ele>340.7</ele>
        <time>2017-11-19T09:29:37Z</time>
      </trkpt>
      <trkpt lat="43.57819" lon="3.32551">
        <ele>340.7</ele>
        <time>2017-11-19T09:29:39Z</time>
      </trkpt>
      <trkpt lat="43.57816" lon="3.3255">
        <ele>340.4</ele>
        <time>2017-11-19T09:30:27Z</time>
      </trkpt>
      <trkpt lat="43.57811" lon="3.32552">
        <ele>340.3</ele>
        <time>2017-11-19T09:30:29Z</time>
      </trkpt>
      <trkpt lat="43.57809" lon="3.32554">
        <ele>339.9</ele>
        <time>2017-11-19T09:30:30Z</time>
      </trkpt>
      <trkpt lat="43.57806" lon="3.32557">
        <ele>340.1</ele>
        <time>2017-11-19T09:30:31Z</time>
      </trkpt>
      <trkpt lat="43.57803" lon="3.3256">
        <ele>340.7</ele>
        <time>2017-11-19T09:30:32Z</time>
      </trkpt>
      <trkpt lat="43.578" lon="3.32562">
        <ele>340.3</ele>
        <time>2017-11-19T09:30:33Z</time>
      </trkpt>
      <trkpt lat="43.57797" lon="3.32566">
        <ele>340.5</ele>
        <time>2017-11-19T09:30:34Z</time>
      </trkpt>
      <trkpt lat="43.57795" lon="3.32569">
        <ele>340.6</ele>
        <time>2017-11-19T09:30:35Z</time>
      </trkpt>
      <trkpt lat="43.57793" lon="3.32571">
        <ele>340.2</ele>
        <time>2017-11-19T09:30:36Z</time>
      </trkpt>
      <trkpt lat="43.57789" lon="3.32576">
        <ele>340.3</ele>
        <time>2017-11-19T09:30:38Z</time>
      </trkpt>
      <trkpt lat="43.57786" lon="3.3258">
        <ele>340.2</ele>
        <time>2017-11-19T09:30:39Z</time>
      </trkpt>
      <trkpt lat="43.57783" lon="3.32583">
        <ele>340.1</ele>
        <time>2017-11-19T09:30:40Z</time>
      </trkpt>
      <trkpt lat="43.5778" lon="3.32588">
        <ele>340</ele>
        <time>2017-11-19T09:30:41Z</time>
      </trkpt>
      <trkpt lat="43.57777" lon="3.32595">
        <ele>340.2</ele>
        <time>2017-11-19T09:30:42Z</time>
      </trkpt>
      <trkpt lat="43.57774" lon="3.326">
        <ele>340.1</ele>
        <time>2017-11-19T09:30:43Z</time>
      </trkpt>
      <trkpt lat="43.57771" lon="3.32605">
        <ele>340.1</ele>
        <time>2017-11-19T09:30:44Z</time>
      </trkpt>
      <trkpt lat="43.57769" lon="3.32611">
        <ele>340.7</ele>
        <time>2017-11-19T09:30:45Z</time>
      </trkpt>
      <trkpt lat="43.57767" lon="3.32614">
        <ele>340.7</ele>
        <time>2017-11-19T09:30:46Z</time>
      </trkpt>
      <trkpt lat="43.57765" lon="3.32619">
        <ele>340.8</ele>
        <time>2017-11-19T09:30:47Z</time>
      </trkpt>
      <trkpt lat="43.57762" lon="3.32624">
        <ele>340.8</ele>
        <time>2017-11-19T09:30:48Z</time>
      </trkpt>
      <trkpt lat="43.57759" lon="3.32629">
        <ele>341.6</ele>
        <time>2017-11-19T09:30:49Z</time>
      </trkpt>
      <trkpt lat="43.57757" lon="3.32634">
        <ele>341.5</ele>
        <time>2017-11-19T09:30:50Z</time>
      </trkpt>
      <trkpt lat="43.57754" lon="3.32639">
        <ele>341.4</ele>
        <time>2017-11-19T09:30:51Z</time>
      </trkpt>
      <trkpt lat="43.5775" lon="3.32644">
        <ele>340.6</ele>
        <time>2017-11-19T09:30:52Z</time>
      </trkpt>
      <trkpt lat="43.57746" lon="3.3265">
        <ele>340.6</ele>
        <time>2017-11-19T09:30:53Z</time>
      </trkpt>
      <trkpt lat="43.57743" lon="3.32654">
        <ele>341.1</ele>
        <time>2017-11-19T09:30:54Z</time>
      </trkpt>
      <trkpt lat="43.57739" lon="3.32659">
        <ele>341.1</ele>
        <time>2017-11-19T09:30:55Z</time>
      </trkpt>
      <trkpt lat="43.57736" lon="3.32663">
        <ele>341.1</ele>
        <time>2017-11-19T09:30:56Z</time>
      </trkpt>
      <trkpt lat="43.57731" lon="3.32667">
        <ele>341.1</ele>
        <time>2017-11-19T09:30:57Z</time>
      </trkpt>
      <trkpt lat="43.57727" lon="3.32671">
        <ele>339.9</ele>
        <time>2017-11-19T09:30:58Z</time>
      </trkpt>
      <trkpt lat="43.57723" lon="3.32674">
        <ele>339.9</ele>
        <time>2017-11-19T09:30:59Z</time>
      </trkpt>
      <trkpt lat="43.57718" lon="3.32678">
        <ele>339.3</ele>
        <time>2017-11-19T09:31:00Z</time>
      </trkpt>
      <trkpt lat="43.57714" lon="3.32682">
        <ele>339.3</ele>
        <time>2017-11-19T09:31:01Z</time>
      </trkpt>
      <trkpt lat="43.57709" lon="3.32684">
        <ele>338.3</ele>
        <time>2017-11-19T09:31:02Z</time>
      </trkpt>
      <trkpt lat="43.57703" lon="3.32687">
        <ele>338.1</ele>
        <time>2017-11-19T09:31:03Z</time>
      </trkpt>
      <trkpt lat="43.57698" lon="3.32689">
        <ele>338.3</ele>
        <time>2017-11-19T09:31:04Z</time>
      </trkpt>
      <trkpt lat="43.57692" lon="3.32692">
        <ele>337.3</ele>
        <time>2017-11-19T09:31:05Z</time>
      </trkpt>
      <trkpt lat="43.57686" lon="3.32695">
        <ele>337</ele>
        <time>2017-11-19T09:31:06Z</time>
      </trkpt>
      <trkpt lat="43.57679" lon="3.32698">
        <ele>336.7</ele>
        <time>2017-11-19T09:31:07Z</time>
      </trkpt>
      <trkpt lat="43.57673" lon="3.32702">
        <ele>336.5</ele>
        <time>2017-11-19T09:31:08Z</time>
      </trkpt>
      <trkpt lat="43.57666" lon="3.32707">
        <ele>335.7</ele>
        <time>2017-11-19T09:31:09Z</time>
      </trkpt>
      <trkpt lat="43.5766" lon="3.32711">
        <ele>335.3</ele>
        <time>2017-11-19T09:31:10Z</time>
      </trkpt>
      <trkpt lat="43.57653" lon="3.32715">
        <ele>335.1</ele>
        <time>2017-11-19T09:31:11Z</time>
      </trkpt>
      <trkpt lat="43.57646" lon="3.32719">
        <ele>334.7</ele>
        <time>2017-11-19T09:31:12Z</time>
      </trkpt>
      <trkpt lat="43.57639" lon="3.32723">
        <ele>334.1</ele>
        <time>2017-11-19T09:31:13Z</time>
      </trkpt>
      <trkpt lat="43.57633" lon="3.32728">
        <ele>333.3</ele>
        <time>2017-11-19T09:31:14Z</time>
      </trkpt>
      <trkpt lat="43.57627" lon="3.32732">
        <ele>332.6</ele>
        <time>2017-11-19T09:31:15Z</time>
      </trkpt>
      <trkpt lat="43.57621" lon="3.32735">
        <ele>331.4</ele>
        <time>2017-11-19T09:31:16Z</time>
      </trkpt>
      <trkpt lat="43.57615" lon="3.32737">
        <ele>330.4</ele>
        <time>2017-11-19T09:31:17Z</time>
      </trkpt>
      <trkpt lat="43.57611" lon="3.3274">
        <ele>329.7</ele>
        <time>2017-11-19T09:31:18Z</time>
      </trkpt>
      <trkpt lat="43.57607" lon="3.32742">
        <ele>329.3</ele>
        <time>2017-11-19T09:31:19Z</time>
      </trkpt>
      <trkpt lat="43.57602" lon="3.32743">
        <ele>328</ele>
        <time>2017-11-19T09:31:20Z</time>
      </trkpt>
      <trkpt lat="43.57598" lon="3.32745">
        <ele>327.2</ele>
        <time>2017-11-19T09:31:21Z</time>
      </trkpt>
      <trkpt lat="43.57594" lon="3.32748">
        <ele>326.6</ele>
        <time>2017-11-19T09:31:22Z</time>
      </trkpt>
      <trkpt lat="43.57592" lon="3.3275">
        <ele>327</ele>
        <time>2017-11-19T09:31:23Z</time>
      </trkpt>
      <trkpt lat="43.57589" lon="3.32752">
        <ele>326.5</ele>
        <time>2017-11-19T09:31:25Z</time>
      </trkpt>
      <trkpt lat="43.57586" lon="3.32754">
        <ele>326.4</ele>
        <time>2017-11-19T09:31:26Z</time>
      </trkpt>
      <trkpt lat="43.57582" lon="3.32755">
        <ele>325.5</ele>
        <time>2017-11-19T09:31:27Z</time>
      </trkpt>
      <trkpt lat="43.57579" lon="3.32758">
        <ele>325.9</ele>
        <time>2017-11-19T09:31:28Z</time>
      </trkpt>
      <trkpt lat="43.57577" lon="3.32765">
        <ele>325.9</ele>
        <time>2017-11-19T09:31:29Z</time>
      </trkpt>
      <trkpt lat="43.57572" lon="3.32772">
        <ele>325.8</ele>
        <time>2017-11-19T09:31:30Z</time>
      </trkpt>
      <trkpt lat="43.57566" lon="3.32779">
        <ele>325.8</ele>
        <time>2017-11-19T09:31:31Z</time>
      </trkpt>
      <trkpt lat="43.5756" lon="3.32787">
        <ele>325.2</ele>
        <time>2017-11-19T09:31:32Z</time>
      </trkpt>
      <trkpt lat="43.57554" lon="3.32793">
        <ele>324.6</ele>
        <time>2017-11-19T09:31:33Z</time>
      </trkpt>
      <trkpt lat="43.57546" lon="3.32801">
        <ele>323.9</ele>
        <time>2017-11-19T09:31:34Z</time>
      </trkpt>
      <trkpt lat="43.57538" lon="3.3281">
        <ele>322.9</ele>
        <time>2017-11-19T09:31:35Z</time>
      </trkpt>
      <trkpt lat="43.57529" lon="3.32818">
        <ele>322</ele>
        <time>2017-11-19T09:31:36Z</time>
      </trkpt>
      <trkpt lat="43.57522" lon="3.32826">
        <ele>320.2</ele>
        <time>2017-11-19T09:31:37Z</time>
      </trkpt>
      <trkpt lat="43.57516" lon="3.32833">
        <ele>319.4</ele>
        <time>2017-11-19T09:31:38Z</time>
      </trkpt>
      <trkpt lat="43.5751" lon="3.32841">
        <ele>318.6</ele>
        <time>2017-11-19T09:31:39Z</time>
      </trkpt>
      <trkpt lat="43.57503" lon="3.32847">
        <ele>317.5</ele>
        <time>2017-11-19T09:31:40Z</time>
      </trkpt>
      <trkpt lat="43.57496" lon="3.32853">
        <ele>316.2</ele>
        <time>2017-11-19T09:31:41Z</time>
      </trkpt>
      <trkpt lat="43.57491" lon="3.32861">
        <ele>314.9</ele>
        <time>2017-11-19T09:31:42Z</time>
      </trkpt>
      <trkpt lat="43.57486" lon="3.32867">
        <ele>314.2</ele>
        <time>2017-11-19T09:31:43Z</time>
      </trkpt>
      <trkpt lat="43.5748" lon="3.32873">
        <ele>312.8</ele>
        <time>2017-11-19T09:31:44Z</time>
      </trkpt>
      <trkpt lat="43.57475" lon="3.32878">
        <ele>311.5</ele>
        <time>2017-11-19T09:31:45Z</time>
      </trkpt>
      <trkpt lat="43.5747" lon="3.32886">
        <ele>310.9</ele>
        <time>2017-11-19T09:31:46Z</time>
      </trkpt>
      <trkpt lat="43.57464" lon="3.32892">
        <ele>309.8</ele>
        <time>2017-11-19T09:31:47Z</time>
      </trkpt>
      <trkpt lat="43.57457" lon="3.32898">
        <ele>307.9</ele>
        <time>2017-11-19T09:31:48Z</time>
      </trkpt>
      <trkpt lat="43.57451" lon="3.32903">
        <ele>306.9</ele>
        <time>2017-11-19T09:31:49Z</time>
      </trkpt>
      <trkpt lat="43.57445" lon="3.32912">
        <ele>305.7</ele>
        <time>2017-11-19T09:31:50Z</time>
      </trkpt>
      <trkpt lat="43.5744" lon="3.32919">
        <ele>305.1</ele>
        <time>2017-11-19T09:31:51Z</time>
      </trkpt>
      <trkpt lat="43.57436" lon="3.32927">
        <ele>304.5</ele>
        <time>2017-11-19T09:31:52Z</time>
      </trkpt>
      <trkpt lat="43.57433" lon="3.32937">
        <ele>303.3</ele>
        <time>2017-11-19T09:31:53Z</time>
      </trkpt>
      <trkpt lat="43.5743" lon="3.32946">
        <ele>302.9</ele>
        <time>2017-11-19T09:31:54Z</time>
      </trkpt>
      <trkpt lat="43.57425" lon="3.32954">
        <ele>302.3</ele>
        <time>2017-11-19T09:31:55Z</time>
      </trkpt>
      <trkpt lat="43.57421" lon="3.32961">
        <ele>301.7</ele>
        <time>2017-11-19T09:31:56Z</time>
      </trkpt>
      <trkpt lat="43.5742" lon="3.32968">
        <ele>301</ele>
        <time>2017-11-19T09:31:57Z</time>
      </trkpt>
      <trkpt lat="43.57419" lon="3.32974">
        <ele>301</ele>
        <time>2017-11-19T09:31:58Z</time>
      </trkpt>
      <trkpt lat="43.57417" lon="3.32979">
        <ele>300.2</ele>
        <time>2017-11-19T09:31:59Z</time>
      </trkpt>
      <trkpt lat="43.57414" lon="3.32984">
        <ele>300.3</ele>
        <time>2017-11-19T09:32:00Z</time>
      </trkpt>
      <trkpt lat="43.57413" lon="3.3299">
        <ele>299.5</ele>
        <time>2017-11-19T09:32:01Z</time>
      </trkpt>
      <trkpt lat="43.57411" lon="3.32997">
        <ele>298.8</ele>
        <time>2017-11-19T09:32:02Z</time>
      </trkpt>
      <trkpt lat="43.57409" lon="3.33002">
        <ele>298.8</ele>
        <time>2017-11-19T09:32:03Z</time>
      </trkpt>
      <trkpt lat="43.57407" lon="3.33008">
        <ele>298.1</ele>
        <time>2017-11-19T09:32:04Z</time>
      </trkpt>
      <trkpt lat="43.57405" lon="3.33015">
        <ele>298.1</ele>
        <time>2017-11-19T09:32:05Z</time>
      </trkpt>
      <trkpt lat="43.57403" lon="3.3302">
        <ele>297.4</ele>
        <time>2017-11-19T09:32:06Z</time>
      </trkpt>
      <trkpt lat="43.57401" lon="3.33026">
        <ele>296.6</ele>
        <time>2017-11-19T09:32:07Z</time>
      </trkpt>
      <trkpt lat="43.57398" lon="3.33032">
        <ele>295.6</ele>
        <time>2017-11-19T09:32:08Z</time>
      </trkpt>
      <trkpt lat="43.57396" lon="3.33037">
        <ele>295.5</ele>
        <time>2017-11-19T09:32:09Z</time>
      </trkpt>
      <trkpt lat="43.57394" lon="3.33044">
        <ele>294.4</ele>
        <time>2017-11-19T09:32:10Z</time>
      </trkpt>
      <trkpt lat="43.57393" lon="3.3305">
        <ele>294.1</ele>
        <time>2017-11-19T09:32:11Z</time>
      </trkpt>
      <trkpt lat="43.57391" lon="3.33054">
        <ele>292.9</ele>
        <time>2017-11-19T09:32:12Z</time>
      </trkpt>
      <trkpt lat="43.57389" lon="3.33059">
        <ele>291.7</ele>
        <time>2017-11-19T09:32:13Z</time>
      </trkpt>
      <trkpt lat="43.57387" lon="3.33065">
        <ele>291.5</ele>
        <time>2017-11-19T09:32:14Z</time>
      </trkpt>
      <trkpt lat="43.57386" lon="3.33072">
        <ele>290.1</ele>
        <time>2017-11-19T09:32:15Z</time>
      </trkpt>
      <trkpt lat="43.57383" lon="3.33078">
        <ele>290</ele>
        <time>2017-11-19T09:32:16Z</time>
      </trkpt>
      <trkpt lat="43.57381" lon="3.33085">
        <ele>288.8</ele>
        <time>2017-11-19T09:32:17Z</time>
      </trkpt>
      <trkpt lat="43.5738" lon="3.33092">
        <ele>287.6</ele>
        <time>2017-11-19T09:32:18Z</time>
      </trkpt>
      <trkpt lat="43.57381" lon="3.33098">
        <ele>288.5</ele>
        <time>2017-11-19T09:32:19Z</time>
      </trkpt>
      <trkpt lat="43.5738" lon="3.33102">
        <ele>288.4</ele>
        <time>2017-11-19T09:32:20Z</time>
      </trkpt>
      <trkpt lat="43.57378" lon="3.33105">
        <ele>287.3</ele>
        <time>2017-11-19T09:32:21Z</time>
      </trkpt>
      <trkpt lat="43.57376" lon="3.33109">
        <ele>286.1</ele>
        <time>2017-11-19T09:32:22Z</time>
      </trkpt>
      <trkpt lat="43.57373" lon="3.33113">
        <ele>284.8</ele>
        <time>2017-11-19T09:32:23Z</time>
      </trkpt>
      <trkpt lat="43.5737" lon="3.33117">
        <ele>283.7</ele>
        <time>2017-11-19T09:32:24Z</time>
      </trkpt>
      <trkpt lat="43.57367" lon="3.33118">
        <ele>282.3</ele>
        <time>2017-11-19T09:32:25Z</time>
      </trkpt>
      <trkpt lat="43.57364" lon="3.3312">
        <ele>281.1</ele>
        <time>2017-11-19T09:32:26Z</time>
      </trkpt>
      <trkpt lat="43.57361" lon="3.33123">
        <ele>279.7</ele>
        <time>2017-11-19T09:32:27Z</time>
      </trkpt>
      <trkpt lat="43.57359" lon="3.33128">
        <ele>279.5</ele>
        <time>2017-11-19T09:32:28Z</time>
      </trkpt>
      <trkpt lat="43.57355" lon="3.33134">
        <ele>278.1</ele>
        <time>2017-11-19T09:32:29Z</time>
      </trkpt>
      <trkpt lat="43.5735" lon="3.3314">
        <ele>275.4</ele>
        <time>2017-11-19T09:32:30Z</time>
      </trkpt>
      <trkpt lat="43.57346" lon="3.33147">
        <ele>274</ele>
        <time>2017-11-19T09:32:31Z</time>
      </trkpt>
      <trkpt lat="43.57342" lon="3.33155">
        <ele>271.4</ele>
        <time>2017-11-19T09:32:32Z</time>
      </trkpt>
      <trkpt lat="43.57338" lon="3.33164">
        <ele>269.8</ele>
        <time>2017-11-19T09:32:33Z</time>
      </trkpt>
      <trkpt lat="43.57332" lon="3.33171">
        <ele>267</ele>
        <time>2017-11-19T09:32:34Z</time>
      </trkpt>
      <trkpt lat="43.57326" lon="3.33179">
        <ele>264.1</ele>
        <time>2017-11-19T09:32:35Z</time>
      </trkpt>
      <trkpt lat="43.57321" lon="3.33188">
        <ele>261.5</ele>
        <time>2017-11-19T09:32:36Z</time>
      </trkpt>
      <trkpt lat="43.57315" lon="3.33198">
        <ele>260.2</ele>
        <time>2017-11-19T09:32:37Z</time>
      </trkpt>
      <trkpt lat="43.57311" lon="3.33207">
        <ele>257.6</ele>
        <time>2017-11-19T09:32:38Z</time>
      </trkpt>
      <trkpt lat="43.57307" lon="3.33218">
        <ele>256.1</ele>
        <time>2017-11-19T09:32:39Z</time>
      </trkpt>
      <trkpt lat="43.57302" lon="3.33229">
        <ele>253.3</ele>
        <time>2017-11-19T09:32:40Z</time>
      </trkpt>
      <trkpt lat="43.57298" lon="3.33239">
        <ele>252.1</ele>
        <time>2017-11-19T09:32:41Z</time>
      </trkpt>
      <trkpt lat="43.57295" lon="3.33248">
        <ele>251.1</ele>
        <time>2017-11-19T09:32:42Z</time>
      </trkpt>
      <trkpt lat="43.57294" lon="3.33255">
        <ele>251.1</ele>
        <time>2017-11-19T09:32:43Z</time>
      </trkpt>
      <trkpt lat="43.57294" lon="3.33261">
        <ele>251.1</ele>
        <time>2017-11-19T09:32:44Z</time>
      </trkpt>
      <trkpt lat="43.57294" lon="3.33268">
        <ele>251.1</ele>
        <time>2017-11-19T09:32:45Z</time>
      </trkpt>
      <trkpt lat="43.57291" lon="3.33277">
        <ele>250</ele>
        <time>2017-11-19T09:32:46Z</time>
      </trkpt>
      <trkpt lat="43.5729" lon="3.33286">
        <ele>249</ele>
        <time>2017-11-19T09:32:47Z</time>
      </trkpt>
      <trkpt lat="43.57287" lon="3.33294">
        <ele>249</ele>
        <time>2017-11-19T09:32:48Z</time>
      </trkpt>
      <trkpt lat="43.57282" lon="3.33302">
        <ele>246.8</ele>
        <time>2017-11-19T09:32:49Z</time>
      </trkpt>
      <trkpt lat="43.57277" lon="3.33311">
        <ele>244.5</ele>
        <time>2017-11-19T09:32:50Z</time>
      </trkpt>
      <trkpt lat="43.57272" lon="3.3332">
        <ele>243.6</ele>
        <time>2017-11-19T09:32:51Z</time>
      </trkpt>
      <trkpt lat="43.57268" lon="3.33328">
        <ele>241.9</ele>
        <time>2017-11-19T09:32:52Z</time>
      </trkpt>
      <trkpt lat="43.57264" lon="3.33334">
        <ele>241.2</ele>
        <time>2017-11-19T09:32:53Z</time>
      </trkpt>
      <trkpt lat="43.57261" lon="3.3334">
        <ele>240.5</ele>
        <time>2017-11-19T09:32:54Z</time>
      </trkpt>
      <trkpt lat="43.57256" lon="3.33347">
        <ele>240.4</ele>
        <time>2017-11-19T09:32:55Z</time>
      </trkpt>
      <trkpt lat="43.5725" lon="3.33353">
        <ele>240.3</ele>
        <time>2017-11-19T09:32:56Z</time>
      </trkpt>
      <trkpt lat="43.57244" lon="3.3336">
        <ele>240.3</ele>
        <time>2017-11-19T09:32:57Z</time>
      </trkpt>
      <trkpt lat="43.57238" lon="3.33368">
        <ele>240.3</ele>
        <time>2017-11-19T09:32:58Z</time>
      </trkpt>
      <trkpt lat="43.57235" lon="3.33375">
        <ele>240.3</ele>
        <time>2017-11-19T09:32:59Z</time>
      </trkpt>
      <trkpt lat="43.57234" lon="3.33385">
        <ele>240.3</ele>
        <time>2017-11-19T09:33:00Z</time>
      </trkpt>
      <trkpt lat="43.57233" lon="3.33394">
        <ele>240.2</ele>
        <time>2017-11-19T09:33:01Z</time>
      </trkpt>
      <trkpt lat="43.57231" lon="3.33404">
        <ele>240.2</ele>
        <time>2017-11-19T09:33:02Z</time>
      </trkpt>
      <trkpt lat="43.57229" lon="3.33415">
        <ele>240.2</ele>
        <time>2017-11-19T09:33:03Z</time>
      </trkpt>
      <trkpt lat="43.57228" lon="3.33426">
        <ele>240.2</ele>
        <time>2017-11-19T09:33:04Z</time>
      </trkpt>
      <trkpt lat="43.57227" lon="3.33436">
        <ele>240.1</ele>
        <time>2017-11-19T09:33:05Z</time>
      </trkpt>
      <trkpt lat="43.57227" lon="3.33446">
        <ele>240.1</ele>
        <time>2017-11-19T09:33:06Z</time>
      </trkpt>
      <trkpt lat="43.57226" lon="3.33455">
        <ele>240</ele>
        <time>2017-11-19T09:33:07Z</time>
      </trkpt>
      <trkpt lat="43.57225" lon="3.33462">
        <ele>239.9</ele>
        <time>2017-11-19T09:33:08Z</time>
      </trkpt>
      <trkpt lat="43.57224" lon="3.33468">
        <ele>239.9</ele>
        <time>2017-11-19T09:33:09Z</time>
      </trkpt>
      <trkpt lat="43.57224" lon="3.33472">
        <ele>239.8</ele>
        <time>2017-11-19T09:33:10Z</time>
      </trkpt>
      <trkpt lat="43.57223" lon="3.33478">
        <ele>239.7</ele>
        <time>2017-11-19T09:33:12Z</time>
      </trkpt>
      <trkpt lat="43.57222" lon="3.33485">
        <ele>239.6</ele>
        <time>2017-11-19T09:33:21Z</time>
      </trkpt>
      <trkpt lat="43.57222" lon="3.3349">
        <ele>239.5</ele>
        <time>2017-11-19T09:33:29Z</time>
      </trkpt>
      <trkpt lat="43.57218" lon="3.33495">
        <ele>239.4</ele>
        <time>2017-11-19T09:42:12Z</time>
      </trkpt>
      <trkpt lat="43.5722" lon="3.335">
        <ele>239.3</ele>
        <time>2017-11-19T09:42:17Z</time>
      </trkpt>
      <trkpt lat="43.57221" lon="3.33505">
        <ele>239.2</ele>
        <time>2017-11-19T09:42:20Z</time>
      </trkpt>
      <trkpt lat="43.57218" lon="3.33507">
        <ele>239.1</ele>
        <time>2017-11-19T09:42:30Z</time>
      </trkpt>
      <trkpt lat="43.57222" lon="3.33505">
        <ele>239</ele>
        <time>2017-11-19T09:42:40Z</time>
      </trkpt>
      <trkpt lat="43.57224" lon="3.33503">
        <ele>239</ele>
        <time>2017-11-19T09:42:42Z</time>
      </trkpt>
      <trkpt lat="43.57226" lon="3.33506">
        <ele>239</ele>
        <time>2017-11-19T09:42:48Z</time>
      </trkpt>
      <trkpt lat="43.57225" lon="3.3351">
        <ele>238.9</ele>
        <time>2017-11-19T09:42:51Z</time>
      </trkpt>
      <trkpt lat="43.57224" lon="3.33513">
        <ele>238.7</ele>
        <time>2017-11-19T09:42:53Z</time>
      </trkpt>
      <trkpt lat="43.57222" lon="3.33517">
        <ele>238.2</ele>
        <time>2017-11-19T09:42:56Z</time>
      </trkpt>
      <trkpt lat="43.57222" lon="3.33522">
        <ele>237.3</ele>
        <time>2017-11-19T09:42:59Z</time>
      </trkpt>
      <trkpt lat="43.57222" lon="3.33528">
        <ele>236.9</ele>
        <time>2017-11-19T09:43:02Z</time>
      </trkpt>
      <trkpt lat="43.57221" lon="3.33532">
        <ele>236.7</ele>
        <time>2017-11-19T09:43:05Z</time>
      </trkpt>
      <trkpt lat="43.57221" lon="3.33537">
        <ele>236.5</ele>
        <time>2017-11-19T09:43:08Z</time>
      </trkpt>
      <trkpt lat="43.57221" lon="3.33541">
        <ele>236.3</ele>
        <time>2017-11-19T09:43:10Z</time>
      </trkpt>
      <trkpt lat="43.57221" lon="3.33545">
        <ele>236</ele>
        <time>2017-11-19T09:43:12Z</time>
      </trkpt>
      <trkpt lat="43.57221" lon="3.33549">
        <ele>235.8</ele>
        <time>2017-11-19T09:43:14Z</time>
      </trkpt>
      <trkpt lat="43.57221" lon="3.33553">
        <ele>235.2</ele>
        <time>2017-11-19T09:43:16Z</time>
      </trkpt>
      <trkpt lat="43.57221" lon="3.33557">
        <ele>234.5</ele>
        <time>2017-11-19T09:43:19Z</time>
      </trkpt>
      <trkpt lat="43.5722" lon="3.33562">
        <ele>233.8</ele>
        <time>2017-11-19T09:43:22Z</time>
      </trkpt>
      <trkpt lat="43.5722" lon="3.33567">
        <ele>233.5</ele>
        <time>2017-11-19T09:43:25Z</time>
      </trkpt>
      <trkpt lat="43.57219" lon="3.33572">
        <ele>233.1</ele>
        <time>2017-11-19T09:43:28Z</time>
      </trkpt>
      <trkpt lat="43.57219" lon="3.33577">
        <ele>232.7</ele>
        <time>2017-11-19T09:43:31Z</time>
      </trkpt>
      <trkpt lat="43.57219" lon="3.33582">
        <ele>232.3</ele>
        <time>2017-11-19T09:43:34Z</time>
      </trkpt>
      <trkpt lat="43.57218" lon="3.33588">
        <ele>231.8</ele>
        <time>2017-11-19T09:43:37Z</time>
      </trkpt>
      <trkpt lat="43.57218" lon="3.33591">
        <ele>231.4</ele>
        <time>2017-11-19T09:43:39Z</time>
      </trkpt>
      <trkpt lat="43.57218" lon="3.33595">
        <ele>231.5</ele>
        <time>2017-11-19T09:43:41Z</time>
      </trkpt>
      <trkpt lat="43.57219" lon="3.33599">
        <ele>231.5</ele>
        <time>2017-11-19T09:43:43Z</time>
      </trkpt>
      <trkpt lat="43.5722" lon="3.33602">
        <ele>231.6</ele>
        <time>2017-11-19T09:43:45Z</time>
      </trkpt>
      <trkpt lat="43.57221" lon="3.33606">
        <ele>231.7</ele>
        <time>2017-11-19T09:43:47Z</time>
      </trkpt>
      <trkpt lat="43.57222" lon="3.3361">
        <ele>231.9</ele>
        <time>2017-11-19T09:43:49Z</time>
      </trkpt>
      <trkpt lat="43.57224" lon="3.33614">
        <ele>232.2</ele>
        <time>2017-11-19T09:43:52Z</time>
      </trkpt>
      <trkpt lat="43.57226" lon="3.33618">
        <ele>232.4</ele>
        <time>2017-11-19T09:43:54Z</time>
      </trkpt>
      <trkpt lat="43.57228" lon="3.33622">
        <ele>232.7</ele>
        <time>2017-11-19T09:43:56Z</time>
      </trkpt>
      <trkpt lat="43.5723" lon="3.33625">
        <ele>232.9</ele>
        <time>2017-11-19T09:43:58Z</time>
      </trkpt>
      <trkpt lat="43.57232" lon="3.33629">
        <ele>233.1</ele>
        <time>2017-11-19T09:44:00Z</time>
      </trkpt>
      <trkpt lat="43.57234" lon="3.33632">
        <ele>233.2</ele>
        <time>2017-11-19T09:44:02Z</time>
      </trkpt>
      <trkpt lat="43.57236" lon="3.33635">
        <ele>233.1</ele>
        <time>2017-11-19T09:44:04Z</time>
      </trkpt>
      <trkpt lat="43.57238" lon="3.33638">
        <ele>232.9</ele>
        <time>2017-11-19T09:44:06Z</time>
      </trkpt>
      <trkpt lat="43.5724" lon="3.33641">
        <ele>232.7</ele>
        <time>2017-11-19T09:44:08Z</time>
      </trkpt>
      <trkpt lat="43.57243" lon="3.33643">
        <ele>233.2</ele>
        <time>2017-11-19T09:44:10Z</time>
      </trkpt>
      <trkpt lat="43.57245" lon="3.33645">
        <ele>233.8</ele>
        <time>2017-11-19T09:44:12Z</time>
      </trkpt>
      <trkpt lat="43.57248" lon="3.33648">
        <ele>234.7</ele>
        <time>2017-11-19T09:44:15Z</time>
      </trkpt>
      <trkpt lat="43.57251" lon="3.3365">
        <ele>235.4</ele>
        <time>2017-11-19T09:44:17Z</time>
      </trkpt>
      <trkpt lat="43.57255" lon="3.33651">
        <ele>236.3</ele>
        <time>2017-11-19T09:44:19Z</time>
      </trkpt>
      <trkpt lat="43.57258" lon="3.33652">
        <ele>236.9</ele>
        <time>2017-11-19T09:44:21Z</time>
      </trkpt>
      <trkpt lat="43.57262" lon="3.33653">
        <ele>237.7</ele>
        <time>2017-11-19T09:44:23Z</time>
      </trkpt>
      <trkpt lat="43.57266" lon="3.33654">
        <ele>238.4</ele>
        <time>2017-11-19T09:44:25Z</time>
      </trkpt>
      <trkpt lat="43.5727" lon="3.33655">
        <ele>238.9</ele>
        <time>2017-11-19T09:44:27Z</time>
      </trkpt>
      <trkpt lat="43.57273" lon="3.33656">
        <ele>239.5</ele>
        <time>2017-11-19T09:44:29Z</time>
      </trkpt>
      <trkpt lat="43.57278" lon="3.33656">
        <ele>240.4</ele>
        <time>2017-11-19T09:44:31Z</time>
      </trkpt>
      <trkpt lat="43.57282" lon="3.33656">
        <ele>241.5</ele>
        <time>2017-11-19T09:44:33Z</time>
      </trkpt>
      <trkpt lat="43.57287" lon="3.33654">
        <ele>242.9</ele>
        <time>2017-11-19T09:44:35Z</time>
      </trkpt>
      <trkpt lat="43.57292" lon="3.33652">
        <ele>244.2</ele>
        <time>2017-11-19T09:44:37Z</time>
      </trkpt>
      <trkpt lat="43.57297" lon="3.3365">
        <ele>245.5</ele>
        <time>2017-11-19T09:44:39Z</time>
      </trkpt>
      <trkpt lat="43.57303" lon="3.33647">
        <ele>246.5</ele>
        <time>2017-11-19T09:44:41Z</time>
      </trkpt>
      <trkpt lat="43.57308" lon="3.33645">
        <ele>247.8</ele>
        <time>2017-11-19T09:44:43Z</time>
      </trkpt>
      <trkpt lat="43.57311" lon="3.33644">
        <ele>248.4</ele>
        <time>2017-11-19T09:44:44Z</time>
      </trkpt>
      <trkpt lat="43.57314" lon="3.33643">
        <ele>249.1</ele>
        <time>2017-11-19T09:44:45Z</time>
      </trkpt>
      <trkpt lat="43.57317" lon="3.33642">
        <ele>249.4</ele>
        <time>2017-11-19T09:44:46Z</time>
      </trkpt>
      <trkpt lat="43.5732" lon="3.33641">
        <ele>249.7</ele>
        <time>2017-11-19T09:44:47Z</time>
      </trkpt>
      <trkpt lat="43.57322" lon="3.33641">
        <ele>249.9</ele>
        <time>2017-11-19T09:44:48Z</time>
      </trkpt>
      <trkpt lat="43.57327" lon="3.3364">
        <ele>250.1</ele>
        <time>2017-11-19T09:44:50Z</time>
      </trkpt>
      <trkpt lat="43.57332" lon="3.33641">
        <ele>250.3</ele>
        <time>2017-11-19T09:44:52Z</time>
      </trkpt>
      <trkpt lat="43.57337" lon="3.33641">
        <ele>250.4</ele>
        <time>2017-11-19T09:44:54Z</time>
      </trkpt>
      <trkpt lat="43.57341" lon="3.3364">
        <ele>250.6</ele>
        <time>2017-11-19T09:44:56Z</time>
      </trkpt>
      <trkpt lat="43.57346" lon="3.33639">
        <ele>251</ele>
        <time>2017-11-19T09:44:58Z</time>
      </trkpt>
      <trkpt lat="43.5735" lon="3.33638">
        <ele>250.9</ele>
        <time>2017-11-19T09:45:00Z</time>
      </trkpt>
      <trkpt lat="43.57355" lon="3.33637">
        <ele>250.6</ele>
        <time>2017-11-19T09:45:02Z</time>
      </trkpt>
      <trkpt lat="43.5736" lon="3.33635">
        <ele>250.3</ele>
        <time>2017-11-19T09:45:04Z</time>
      </trkpt>
      <trkpt lat="43.57365" lon="3.33633">
        <ele>250.1</ele>
        <time>2017-11-19T09:45:06Z</time>
      </trkpt>
      <trkpt lat="43.57368" lon="3.33632">
        <ele>250.2</ele>
        <time>2017-11-19T09:45:07Z</time>
      </trkpt>
      <trkpt lat="43.57371" lon="3.33631">
        <ele>250.2</ele>
        <time>2017-11-19T09:45:08Z</time>
      </trkpt>
      <trkpt lat="43.57374" lon="3.3363">
        <ele>249.8</ele>
        <time>2017-11-19T09:45:09Z</time>
      </trkpt>
      <trkpt lat="43.57377" lon="3.33629">
        <ele>249.4</ele>
        <time>2017-11-19T09:45:10Z</time>
      </trkpt>
      <trkpt lat="43.5738" lon="3.33627">
        <ele>249.7</ele>
        <time>2017-11-19T09:45:11Z</time>
      </trkpt>
      <trkpt lat="43.57383" lon="3.33626">
        <ele>250</ele>
        <time>2017-11-19T09:45:12Z</time>
      </trkpt>
      <trkpt lat="43.57388" lon="3.33623">
        <ele>249.7</ele>
        <time>2017-11-19T09:45:14Z</time>
      </trkpt>
      <trkpt lat="43.57391" lon="3.33621">
        <ele>249.6</ele>
        <time>2017-11-19T09:45:15Z</time>
      </trkpt>
      <trkpt lat="43.57394" lon="3.33618">
        <ele>249.5</ele>
        <time>2017-11-19T09:45:16Z</time>
      </trkpt>
      <trkpt lat="43.57397" lon="3.33615">
        <ele>250.1</ele>
        <time>2017-11-19T09:45:17Z</time>
      </trkpt>
      <trkpt lat="43.574" lon="3.33611">
        <ele>250.7</ele>
        <time>2017-11-19T09:45:18Z</time>
      </trkpt>
      <trkpt lat="43.57403" lon="3.33606">
        <ele>250.6</ele>
        <time>2017-11-19T09:45:19Z</time>
      </trkpt>
      <trkpt lat="43.57406" lon="3.33601">
        <ele>251.1</ele>
        <time>2017-11-19T09:45:20Z</time>
      </trkpt>
      <trkpt lat="43.5741" lon="3.33595">
        <ele>251.9</ele>
        <time>2017-11-19T09:45:21Z</time>
      </trkpt>
      <trkpt lat="43.57413" lon="3.33589">
        <ele>252.6</ele>
        <time>2017-11-19T09:45:22Z</time>
      </trkpt>
      <trkpt lat="43.57416" lon="3.33583">
        <ele>252.7</ele>
        <time>2017-11-19T09:45:23Z</time>
      </trkpt>
      <trkpt lat="43.57419" lon="3.33577">
        <ele>253.2</ele>
        <time>2017-11-19T09:45:24Z</time>
      </trkpt>
      <trkpt lat="43.57423" lon="3.33571">
        <ele>253.9</ele>
        <time>2017-11-19T09:45:25Z</time>
      </trkpt>
      <trkpt lat="43.57427" lon="3.33564">
        <ele>254.4</ele>
        <time>2017-11-19T09:45:26Z</time>
      </trkpt>
      <trkpt lat="43.57431" lon="3.33558">
        <ele>254.9</ele>
        <time>2017-11-19T09:45:27Z</time>
      </trkpt>
      <trkpt lat="43.57435" lon="3.33552">
        <ele>254.7</ele>
        <time>2017-11-19T09:45:28Z</time>
      </trkpt>
      <trkpt lat="43.57439" lon="3.33548">
        <ele>253.8</ele>
        <time>2017-11-19T09:45:29Z</time>
      </trkpt>
      <trkpt lat="43.57442" lon="3.33545">
        <ele>253.4</ele>
        <time>2017-11-19T09:45:30Z</time>
      </trkpt>
      <trkpt lat="43.57445" lon="3.33541">
        <ele>253.1</ele>
        <time>2017-11-19T09:45:31Z</time>
      </trkpt>
      <trkpt lat="43.57449" lon="3.33538">
        <ele>252.8</ele>
        <time>2017-11-19T09:45:32Z</time>
      </trkpt>
      <trkpt lat="43.57453" lon="3.33535">
        <ele>252.5</ele>
        <time>2017-11-19T09:45:33Z</time>
      </trkpt>
      <trkpt lat="43.57457" lon="3.33534">
        <ele>252.2</ele>
        <time>2017-11-19T09:45:34Z</time>
      </trkpt>
      <trkpt lat="43.57461" lon="3.33531">
        <ele>251.9</ele>
        <time>2017-11-19T09:45:35Z</time>
      </trkpt>
      <trkpt lat="43.57465" lon="3.33528">
        <ele>251.6</ele>
        <time>2017-11-19T09:45:36Z</time>
      </trkpt>
      <trkpt lat="43.57469" lon="3.33525">
        <ele>251.2</ele>
        <time>2017-11-19T09:45:37Z</time>
      </trkpt>
      <trkpt lat="43.57474" lon="3.33522">
        <ele>250.6</ele>
        <time>2017-11-19T09:45:38Z</time>
      </trkpt>
      <trkpt lat="43.57478" lon="3.33519">
        <ele>249.8</ele>
        <time>2017-11-19T09:45:39Z</time>
      </trkpt>
      <trkpt lat="43.57482" lon="3.33518">
        <ele>249.4</ele>
        <time>2017-11-19T09:45:40Z</time>
      </trkpt>
      <trkpt lat="43.57486" lon="3.33517">
        <ele>249.2</ele>
        <time>2017-11-19T09:45:41Z</time>
      </trkpt>
      <trkpt lat="43.5749" lon="3.33516">
        <ele>248.7</ele>
        <time>2017-11-19T09:45:42Z</time>
      </trkpt>
      <trkpt lat="43.57494" lon="3.33514">
        <ele>248</ele>
        <time>2017-11-19T09:45:43Z</time>
      </trkpt>
      <trkpt lat="43.57499" lon="3.33512">
        <ele>246.8</ele>
        <time>2017-11-19T09:45:44Z</time>
      </trkpt>
      <trkpt lat="43.57504" lon="3.3351">
        <ele>245.5</ele>
        <time>2017-11-19T09:45:45Z</time>
      </trkpt>
      <trkpt lat="43.5751" lon="3.33508">
        <ele>244.3</ele>
        <time>2017-11-19T09:45:46Z</time>
      </trkpt>
      <trkpt lat="43.57516" lon="3.33506">
        <ele>243.9</ele>
        <time>2017-11-19T09:45:47Z</time>
      </trkpt>
      <trkpt lat="43.57522" lon="3.33504">
        <ele>244.1</ele>
        <time>2017-11-19T09:45:48Z</time>
      </trkpt>
      <trkpt lat="43.57528" lon="3.33502">
        <ele>244.4</ele>
        <time>2017-11-19T09:45:49Z</time>
      </trkpt>
      <trkpt lat="43.57534" lon="3.33499">
        <ele>244.7</ele>
        <time>2017-11-19T09:45:50Z</time>
      </trkpt>
      <trkpt lat="43.57541" lon="3.33496">
        <ele>245.2</ele>
        <time>2017-11-19T09:45:51Z</time>
      </trkpt>
      <trkpt lat="43.57546" lon="3.33493">
        <ele>246.1</ele>
        <time>2017-11-19T09:45:52Z</time>
      </trkpt>
      <trkpt lat="43.57552" lon="3.33489">
        <ele>247.2</ele>
        <time>2017-11-19T09:45:53Z</time>
      </trkpt>
      <trkpt lat="43.57557" lon="3.33484">
        <ele>247.9</ele>
        <time>2017-11-19T09:45:54Z</time>
      </trkpt>
      <trkpt lat="43.57562" lon="3.33479">
        <ele>249.4</ele>
        <time>2017-11-19T09:45:55Z</time>
      </trkpt>
      <trkpt lat="43.57567" lon="3.33474">
        <ele>250.8</ele>
        <time>2017-11-19T09:45:56Z</time>
      </trkpt>
      <trkpt lat="43.57571" lon="3.3347">
        <ele>251.4</ele>
        <time>2017-11-19T09:45:57Z</time>
      </trkpt>
      <trkpt lat="43.57575" lon="3.33465">
        <ele>252.6</ele>
        <time>2017-11-19T09:45:58Z</time>
      </trkpt>
      <trkpt lat="43.57579" lon="3.33461">
        <ele>253.9</ele>
        <time>2017-11-19T09:45:59Z</time>
      </trkpt>
      <trkpt lat="43.57583" lon="3.33457">
        <ele>255</ele>
        <time>2017-11-19T09:46:00Z</time>
      </trkpt>
      <trkpt lat="43.57586" lon="3.33453">
        <ele>256</ele>
        <time>2017-11-19T09:46:01Z</time>
      </trkpt>
      <trkpt lat="43.5759" lon="3.33449">
        <ele>256.7</ele>
        <time>2017-11-19T09:46:02Z</time>
      </trkpt>
      <trkpt lat="43.57593" lon="3.33446">
        <ele>256.8</ele>
        <time>2017-11-19T09:46:03Z</time>
      </trkpt>
      <trkpt lat="43.57596" lon="3.33444">
        <ele>256.9</ele>
        <time>2017-11-19T09:46:04Z</time>
      </trkpt>
      <trkpt lat="43.576" lon="3.33442">
        <ele>257</ele>
        <time>2017-11-19T09:46:05Z</time>
      </trkpt>
      <trkpt lat="43.57604" lon="3.3344">
        <ele>257.1</ele>
        <time>2017-11-19T09:46:06Z</time>
      </trkpt>
      <trkpt lat="43.57607" lon="3.3344">
        <ele>257.3</ele>
        <time>2017-11-19T09:46:07Z</time>
      </trkpt>
      <trkpt lat="43.57611" lon="3.3344">
        <ele>257.1</ele>
        <time>2017-11-19T09:46:09Z</time>
      </trkpt>
      <trkpt lat="43.57616" lon="3.33444">
        <ele>256.6</ele>
        <time>2017-11-19T09:46:11Z</time>
      </trkpt>
      <trkpt lat="43.57618" lon="3.33446">
        <ele>256.3</ele>
        <time>2017-11-19T09:46:12Z</time>
      </trkpt>
      <trkpt lat="43.57621" lon="3.33448">
        <ele>255.9</ele>
        <time>2017-11-19T09:46:13Z</time>
      </trkpt>
      <trkpt lat="43.57626" lon="3.33452">
        <ele>254.7</ele>
        <time>2017-11-19T09:46:15Z</time>
      </trkpt>
      <trkpt lat="43.57629" lon="3.33456">
        <ele>254</ele>
        <time>2017-11-19T09:46:17Z</time>
      </trkpt>
      <trkpt lat="43.57633" lon="3.33461">
        <ele>253.1</ele>
        <time>2017-11-19T09:46:19Z</time>
      </trkpt>
      <trkpt lat="43.57634" lon="3.33465">
        <ele>252.1</ele>
        <time>2017-11-19T09:46:20Z</time>
      </trkpt>
      <trkpt lat="43.57636" lon="3.33469">
        <ele>251.2</ele>
        <time>2017-11-19T09:46:21Z</time>
      </trkpt>
      <trkpt lat="43.57638" lon="3.33476">
        <ele>249.8</ele>
        <time>2017-11-19T09:46:23Z</time>
      </trkpt>
      <trkpt lat="43.5764" lon="3.33483">
        <ele>248.4</ele>
        <time>2017-11-19T09:46:25Z</time>
      </trkpt>
      <trkpt lat="43.57641" lon="3.33489">
        <ele>247.1</ele>
        <time>2017-11-19T09:46:27Z</time>
      </trkpt>
      <trkpt lat="43.57643" lon="3.33494">
        <ele>246.3</ele>
        <time>2017-11-19T09:46:29Z</time>
      </trkpt>
      <trkpt lat="43.57645" lon="3.33498">
        <ele>245.1</ele>
        <time>2017-11-19T09:46:31Z</time>
      </trkpt>
      <trkpt lat="43.57647" lon="3.33501">
        <ele>244</ele>
        <time>2017-11-19T09:46:33Z</time>
      </trkpt>
      <trkpt lat="43.57649" lon="3.33505">
        <ele>242.8</ele>
        <time>2017-11-19T09:46:35Z</time>
      </trkpt>
      <trkpt lat="43.57651" lon="3.3351">
        <ele>242.2</ele>
        <time>2017-11-19T09:46:37Z</time>
      </trkpt>
      <trkpt lat="43.57654" lon="3.33513">
        <ele>241.7</ele>
        <time>2017-11-19T09:46:39Z</time>
      </trkpt>
      <trkpt lat="43.57657" lon="3.33515">
        <ele>241.1</ele>
        <time>2017-11-19T09:46:41Z</time>
      </trkpt>
      <trkpt lat="43.5766" lon="3.33519">
        <ele>240.7</ele>
        <time>2017-11-19T09:46:43Z</time>
      </trkpt>
      <trkpt lat="43.57663" lon="3.33521">
        <ele>240.3</ele>
        <time>2017-11-19T09:46:45Z</time>
      </trkpt>
      <trkpt lat="43.57667" lon="3.33524">
        <ele>240.1</ele>
        <time>2017-11-19T09:46:47Z</time>
      </trkpt>
      <trkpt lat="43.57672" lon="3.33524">
        <ele>240.3</ele>
        <time>2017-11-19T09:46:49Z</time>
      </trkpt>
      <trkpt lat="43.57677" lon="3.33523">
        <ele>240.8</ele>
        <time>2017-11-19T09:46:51Z</time>
      </trkpt>
      <trkpt lat="43.5768" lon="3.33522">
        <ele>241.1</ele>
        <time>2017-11-19T09:46:52Z</time>
      </trkpt>
      <trkpt lat="43.57683" lon="3.3352">
        <ele>241.5</ele>
        <time>2017-11-19T09:46:53Z</time>
      </trkpt>
      <trkpt lat="43.57686" lon="3.33519">
        <ele>241.8</ele>
        <time>2017-11-19T09:46:54Z</time>
      </trkpt>
      <trkpt lat="43.57689" lon="3.33516">
        <ele>242.6</ele>
        <time>2017-11-19T09:46:55Z</time>
      </trkpt>
      <trkpt lat="43.57692" lon="3.33514">
        <ele>243.5</ele>
        <time>2017-11-19T09:46:56Z</time>
      </trkpt>
      <trkpt lat="43.57695" lon="3.33511">
        <ele>243.9</ele>
        <time>2017-11-19T09:46:57Z</time>
      </trkpt>
      <trkpt lat="43.57697" lon="3.33509">
        <ele>244.2</ele>
        <time>2017-11-19T09:46:58Z</time>
      </trkpt>
      <trkpt lat="43.57699" lon="3.33507">
        <ele>244.8</ele>
        <time>2017-11-19T09:46:59Z</time>
      </trkpt>
      <trkpt lat="43.57704" lon="3.33502">
        <ele>246</ele>
        <time>2017-11-19T09:47:01Z</time>
      </trkpt>
      <trkpt lat="43.57707" lon="3.33497">
        <ele>246.4</ele>
        <time>2017-11-19T09:47:02Z</time>
      </trkpt>
      <trkpt lat="43.5771" lon="3.33493">
        <ele>247.1</ele>
        <time>2017-11-19T09:47:03Z</time>
      </trkpt>
      <trkpt lat="43.57712" lon="3.33488">
        <ele>247.8</ele>
        <time>2017-11-19T09:47:04Z</time>
      </trkpt>
      <trkpt lat="43.57714" lon="3.33485">
        <ele>248.2</ele>
        <time>2017-11-19T09:47:05Z</time>
      </trkpt>
      <trkpt lat="43.57716" lon="3.33482">
        <ele>248.7</ele>
        <time>2017-11-19T09:47:06Z</time>
      </trkpt>
      <trkpt lat="43.57719" lon="3.33478">
        <ele>249.3</ele>
        <time>2017-11-19T09:47:07Z</time>
      </trkpt>
      <trkpt lat="43.57722" lon="3.33474">
        <ele>249.9</ele>
        <time>2017-11-19T09:47:08Z</time>
      </trkpt>
      <trkpt lat="43.57725" lon="3.33471">
        <ele>250.3</ele>
        <time>2017-11-19T09:47:09Z</time>
      </trkpt>
      <trkpt lat="43.57729" lon="3.33466">
        <ele>250.3</ele>
        <time>2017-11-19T09:47:10Z</time>
      </trkpt>
      <trkpt lat="43.57732" lon="3.33462">
        <ele>250.4</ele>
        <time>2017-11-19T09:47:11Z</time>
      </trkpt>
      <trkpt lat="43.57736" lon="3.33458">
        <ele>251</ele>
        <time>2017-11-19T09:47:12Z</time>
      </trkpt>
      <trkpt lat="43.5774" lon="3.33453">
        <ele>251.5</ele>
        <time>2017-11-19T09:47:13Z</time>
      </trkpt>
      <trkpt lat="43.57744" lon="3.3345">
        <ele>251.8</ele>
        <time>2017-11-19T09:47:14Z</time>
      </trkpt>
      <trkpt lat="43.57747" lon="3.33446">
        <ele>251.9</ele>
        <time>2017-11-19T09:47:15Z</time>
      </trkpt>
      <trkpt lat="43.57751" lon="3.33443">
        <ele>252.1</ele>
        <time>2017-11-19T09:47:16Z</time>
      </trkpt>
      <trkpt lat="43.57755" lon="3.33441">
        <ele>252.1</ele>
        <time>2017-11-19T09:47:17Z</time>
      </trkpt>
      <trkpt lat="43.5776" lon="3.33438">
        <ele>252</ele>
        <time>2017-11-19T09:47:18Z</time>
      </trkpt>
      <trkpt lat="43.57764" lon="3.33434">
        <ele>252</ele>
        <time>2017-11-19T09:47:19Z</time>
      </trkpt>
      <trkpt lat="43.57769" lon="3.33432">
        <ele>251.9</ele>
        <time>2017-11-19T09:47:20Z</time>
      </trkpt>
      <trkpt lat="43.57774" lon="3.33429">
        <ele>251.6</ele>
        <time>2017-11-19T09:47:21Z</time>
      </trkpt>
      <trkpt lat="43.57778" lon="3.33426">
        <ele>251.2</ele>
        <time>2017-11-19T09:47:22Z</time>
      </trkpt>
      <trkpt lat="43.57783" lon="3.33424">
        <ele>251</ele>
        <time>2017-11-19T09:47:23Z</time>
      </trkpt>
      <trkpt lat="43.57789" lon="3.33421">
        <ele>250.8</ele>
        <time>2017-11-19T09:47:24Z</time>
      </trkpt>
      <trkpt lat="43.57795" lon="3.33417">
        <ele>250.6</ele>
        <time>2017-11-19T09:47:25Z</time>
      </trkpt>
      <trkpt lat="43.57801" lon="3.33414">
        <ele>250.2</ele>
        <time>2017-11-19T09:47:26Z</time>
      </trkpt>
      <trkpt lat="43.57806" lon="3.33411">
        <ele>249.9</ele>
        <time>2017-11-19T09:47:27Z</time>
      </trkpt>
      <trkpt lat="43.57811" lon="3.33409">
        <ele>249.7</ele>
        <time>2017-11-19T09:47:28Z</time>
      </trkpt>
      <trkpt lat="43.57815" lon="3.33406">
        <ele>249.7</ele>
        <time>2017-11-19T09:47:29Z</time>
      </trkpt>
      <trkpt lat="43.5782" lon="3.33403">
        <ele>249.8</ele>
        <time>2017-11-19T09:47:30Z</time>
      </trkpt>
      <trkpt lat="43.57825" lon="3.33399">
        <ele>249.9</ele>
        <time>2017-11-19T09:47:31Z</time>
      </trkpt>
      <trkpt lat="43.5783" lon="3.33395">
        <ele>250</ele>
        <time>2017-11-19T09:47:32Z</time>
      </trkpt>
      <trkpt lat="43.57834" lon="3.3339">
        <ele>250.1</ele>
        <time>2017-11-19T09:47:33Z</time>
      </trkpt>
      <trkpt lat="43.57838" lon="3.33386">
        <ele>250.3</ele>
        <time>2017-11-19T09:47:34Z</time>
      </trkpt>
      <trkpt lat="43.57842" lon="3.33381">
        <ele>250.3</ele>
        <time>2017-11-19T09:47:35Z</time>
      </trkpt>
      <trkpt lat="43.57846" lon="3.33376">
        <ele>250.3</ele>
        <time>2017-11-19T09:47:36Z</time>
      </trkpt>
      <trkpt lat="43.5785" lon="3.33373">
        <ele>250.3</ele>
        <time>2017-11-19T09:47:37Z</time>
      </trkpt>
      <trkpt lat="43.57854" lon="3.33369">
        <ele>250.3</ele>
        <time>2017-11-19T09:47:38Z</time>
      </trkpt>
      <trkpt lat="43.57858" lon="3.33364">
        <ele>250.3</ele>
        <time>2017-11-19T09:47:39Z</time>
      </trkpt>
      <trkpt lat="43.57861" lon="3.33359">
        <ele>250.3</ele>
        <time>2017-11-19T09:47:40Z</time>
      </trkpt>
      <trkpt lat="43.57864" lon="3.33355">
        <ele>250.4</ele>
        <time>2017-11-19T09:47:41Z</time>
      </trkpt>
      <trkpt lat="43.57865" lon="3.33351">
        <ele>250.5</ele>
        <time>2017-11-19T09:47:42Z</time>
      </trkpt>
      <trkpt lat="43.57867" lon="3.33347">
        <ele>250.6</ele>
        <time>2017-11-19T09:47:43Z</time>
      </trkpt>
      <trkpt lat="43.57868" lon="3.33344">
        <ele>250.7</ele>
        <time>2017-11-19T09:47:44Z</time>
      </trkpt>
      <trkpt lat="43.57869" lon="3.3334">
        <ele>250.8</ele>
        <time>2017-11-19T09:47:45Z</time>
      </trkpt>
      <trkpt lat="43.5787" lon="3.33336">
        <ele>250.8</ele>
        <time>2017-11-19T09:47:46Z</time>
      </trkpt>
      <trkpt lat="43.57871" lon="3.33331">
        <ele>251</ele>
        <time>2017-11-19T09:47:48Z</time>
      </trkpt>
      <trkpt lat="43.57873" lon="3.33327">
        <ele>251.1</ele>
        <time>2017-11-19T09:47:49Z</time>
      </trkpt>
      <trkpt lat="43.57875" lon="3.3332">
        <ele>251.3</ele>
        <time>2017-11-19T09:47:51Z</time>
      </trkpt>
      <trkpt lat="43.57876" lon="3.33314">
        <ele>251.6</ele>
        <time>2017-11-19T09:47:53Z</time>
      </trkpt>
      <trkpt lat="43.57877" lon="3.33309">
        <ele>251.9</ele>
        <time>2017-11-19T09:47:55Z</time>
      </trkpt>
      <trkpt lat="43.57879" lon="3.33303">
        <ele>252.2</ele>
        <time>2017-11-19T09:47:57Z</time>
      </trkpt>
      <trkpt lat="43.57882" lon="3.33297">
        <ele>252.5</ele>
        <time>2017-11-19T09:47:59Z</time>
      </trkpt>
      <trkpt lat="43.57885" lon="3.3329">
        <ele>252.9</ele>
        <time>2017-11-19T09:48:01Z</time>
      </trkpt>
      <trkpt lat="43.57887" lon="3.33285">
        <ele>253.2</ele>
        <time>2017-11-19T09:48:03Z</time>
      </trkpt>
      <trkpt lat="43.57889" lon="3.33281">
        <ele>253.4</ele>
        <time>2017-11-19T09:48:05Z</time>
      </trkpt>
      <trkpt lat="43.57891" lon="3.33278">
        <ele>253.6</ele>
        <time>2017-11-19T09:48:06Z</time>
      </trkpt>
      <trkpt lat="43.57893" lon="3.33273">
        <ele>253.9</ele>
        <time>2017-11-19T09:48:08Z</time>
      </trkpt>
      <trkpt lat="43.57896" lon="3.33269">
        <ele>254.2</ele>
        <time>2017-11-19T09:48:10Z</time>
      </trkpt>
      <trkpt lat="43.57899" lon="3.33263">
        <ele>254.5</ele>
        <time>2017-11-19T09:48:12Z</time>
      </trkpt>
      <trkpt lat="43.57902" lon="3.33258">
        <ele>254.6</ele>
        <time>2017-11-19T09:48:14Z</time>
      </trkpt>
      <trkpt lat="43.57905" lon="3.33253">
        <ele>254.9</ele>
        <time>2017-11-19T09:48:16Z</time>
      </trkpt>
      <trkpt lat="43.57907" lon="3.33251">
        <ele>255.2</ele>
        <time>2017-11-19T09:48:17Z</time>
      </trkpt>
      <trkpt lat="43.5791" lon="3.33247">
        <ele>255.3</ele>
        <time>2017-11-19T09:48:19Z</time>
      </trkpt>
      <trkpt lat="43.57913" lon="3.33246">
        <ele>255.3</ele>
        <time>2017-11-19T09:48:20Z</time>
      </trkpt>
      <trkpt lat="43.57916" lon="3.33245">
        <ele>255.3</ele>
        <time>2017-11-19T09:48:21Z</time>
      </trkpt>
      <trkpt lat="43.5792" lon="3.33245">
        <ele>255.3</ele>
        <time>2017-11-19T09:48:23Z</time>
      </trkpt>
      <trkpt lat="43.57924" lon="3.33246">
        <ele>255.3</ele>
        <time>2017-11-19T09:48:25Z</time>
      </trkpt>
      <trkpt lat="43.57926" lon="3.3325">
        <ele>255.2</ele>
        <time>2017-11-19T09:48:27Z</time>
      </trkpt>
      <trkpt lat="43.57927" lon="3.33256">
        <ele>255.1</ele>
        <time>2017-11-19T09:48:29Z</time>
      </trkpt>
      <trkpt lat="43.57927" lon="3.33261">
        <ele>255</ele>
        <time>2017-11-19T09:48:31Z</time>
      </trkpt>
      <trkpt lat="43.57927" lon="3.33265">
        <ele>254.9</ele>
        <time>2017-11-19T09:48:32Z</time>
      </trkpt>
      <trkpt lat="43.57926" lon="3.33272">
        <ele>254.7</ele>
        <time>2017-11-19T09:48:34Z</time>
      </trkpt>
      <trkpt lat="43.57926" lon="3.33278">
        <ele>254.3</ele>
        <time>2017-11-19T09:48:36Z</time>
      </trkpt>
      <trkpt lat="43.57925" lon="3.33284">
        <ele>254.2</ele>
        <time>2017-11-19T09:48:38Z</time>
      </trkpt>
      <trkpt lat="43.57925" lon="3.33291">
        <ele>254.3</ele>
        <time>2017-11-19T09:48:40Z</time>
      </trkpt>
      <trkpt lat="43.57925" lon="3.33295">
        <ele>254.4</ele>
        <time>2017-11-19T09:48:41Z</time>
      </trkpt>
      <trkpt lat="43.57925" lon="3.33301">
        <ele>254.5</ele>
        <time>2017-11-19T09:48:43Z</time>
      </trkpt>
      <trkpt lat="43.57925" lon="3.33307">
        <ele>254.7</ele>
        <time>2017-11-19T09:48:45Z</time>
      </trkpt>
      <trkpt lat="43.57925" lon="3.33314">
        <ele>254.9</ele>
        <time>2017-11-19T09:48:47Z</time>
      </trkpt>
      <trkpt lat="43.57924" lon="3.3332">
        <ele>255.4</ele>
        <time>2017-11-19T09:48:49Z</time>
      </trkpt>
      <trkpt lat="43.57924" lon="3.33326">
        <ele>255.8</ele>
        <time>2017-11-19T09:48:51Z</time>
      </trkpt>
      <trkpt lat="43.57924" lon="3.33333">
        <ele>256.1</ele>
        <time>2017-11-19T09:48:53Z</time>
      </trkpt>
      <trkpt lat="43.57924" lon="3.3334">
        <ele>256.6</ele>
        <time>2017-11-19T09:48:55Z</time>
      </trkpt>
      <trkpt lat="43.57925" lon="3.33347">
        <ele>257.4</ele>
        <time>2017-11-19T09:48:57Z</time>
      </trkpt>
      <trkpt lat="43.57926" lon="3.33351">
        <ele>258.1</ele>
        <time>2017-11-19T09:48:58Z</time>
      </trkpt>
      <trkpt lat="43.57927" lon="3.33355">
        <ele>258.4</ele>
        <time>2017-11-19T09:48:59Z</time>
      </trkpt>
      <trkpt lat="43.5793" lon="3.33361">
        <ele>259.2</ele>
        <time>2017-11-19T09:49:01Z</time>
      </trkpt>
      <trkpt lat="43.57931" lon="3.33364">
        <ele>260</ele>
        <time>2017-11-19T09:49:02Z</time>
      </trkpt>
      <trkpt lat="43.57933" lon="3.33367">
        <ele>260.9</ele>
        <time>2017-11-19T09:49:03Z</time>
      </trkpt>
      <trkpt lat="43.57935" lon="3.33371">
        <ele>262</ele>
        <time>2017-11-19T09:49:04Z</time>
      </trkpt>
      <trkpt lat="43.57937" lon="3.33374">
        <ele>263.1</ele>
        <time>2017-11-19T09:49:05Z</time>
      </trkpt>
      <trkpt lat="43.5794" lon="3.33379">
        <ele>264.5</ele>
        <time>2017-11-19T09:49:07Z</time>
      </trkpt>
      <trkpt lat="43.57941" lon="3.33383">
        <ele>264.7</ele>
        <time>2017-11-19T09:49:08Z</time>
      </trkpt>
      <trkpt lat="43.57942" lon="3.33386">
        <ele>264.7</ele>
        <time>2017-11-19T09:49:09Z</time>
      </trkpt>
      <trkpt lat="43.57943" lon="3.3339">
        <ele>264.6</ele>
        <time>2017-11-19T09:49:10Z</time>
      </trkpt>
      <trkpt lat="43.57942" lon="3.33394">
        <ele>264.5</ele>
        <time>2017-11-19T09:49:11Z</time>
      </trkpt>
      <trkpt lat="43.57941" lon="3.33398">
        <ele>264.3</ele>
        <time>2017-11-19T09:49:12Z</time>
      </trkpt>
      <trkpt lat="43.5794" lon="3.33402">
        <ele>264.1</ele>
        <time>2017-11-19T09:49:13Z</time>
      </trkpt>
      <trkpt lat="43.57939" lon="3.33405">
        <ele>263.9</ele>
        <time>2017-11-19T09:49:14Z</time>
      </trkpt>
      <trkpt lat="43.57936" lon="3.33408">
        <ele>263</ele>
        <time>2017-11-19T09:49:15Z</time>
      </trkpt>
      <trkpt lat="43.57934" lon="3.33411">
        <ele>262.2</ele>
        <time>2017-11-19T09:49:16Z</time>
      </trkpt>
      <trkpt lat="43.57931" lon="3.33414">
        <ele>261.4</ele>
        <time>2017-11-19T09:49:17Z</time>
      </trkpt>
      <trkpt lat="43.57929" lon="3.33417">
        <ele>260.6</ele>
        <time>2017-11-19T09:49:18Z</time>
      </trkpt>
      <trkpt lat="43.57924" lon="3.33422">
        <ele>260</ele>
        <time>2017-11-19T09:49:20Z</time>
      </trkpt>
      <trkpt lat="43.57921" lon="3.33426">
        <ele>259.1</ele>
        <time>2017-11-19T09:49:22Z</time>
      </trkpt>
      <trkpt lat="43.57917" lon="3.3343">
        <ele>258.1</ele>
        <time>2017-11-19T09:49:24Z</time>
      </trkpt>
      <trkpt lat="43.57913" lon="3.33435">
        <ele>257.2</ele>
        <time>2017-11-19T09:49:26Z</time>
      </trkpt>
      <trkpt lat="43.5791" lon="3.3344">
        <ele>256.3</ele>
        <time>2017-11-19T09:49:28Z</time>
      </trkpt>
      <trkpt lat="43.57906" lon="3.33445">
        <ele>255.6</ele>
        <time>2017-11-19T09:49:30Z</time>
      </trkpt>
      <trkpt lat="43.57904" lon="3.33448">
        <ele>255.2</ele>
        <time>2017-11-19T09:49:31Z</time>
      </trkpt>
      <trkpt lat="43.57901" lon="3.33451">
        <ele>255</ele>
        <time>2017-11-19T09:49:32Z</time>
      </trkpt>
      <trkpt lat="43.57899" lon="3.33455">
        <ele>255</ele>
        <time>2017-11-19T09:49:33Z</time>
      </trkpt>
      <trkpt lat="43.57897" lon="3.33458">
        <ele>254.9</ele>
        <time>2017-11-19T09:49:34Z</time>
      </trkpt>
      <trkpt lat="43.57895" lon="3.33462">
        <ele>254.6</ele>
        <time>2017-11-19T09:49:35Z</time>
      </trkpt>
      <trkpt lat="43.57893" lon="3.33465">
        <ele>254.3</ele>
        <time>2017-11-19T09:49:36Z</time>
      </trkpt>
      <trkpt lat="43.57891" lon="3.33469">
        <ele>254.3</ele>
        <time>2017-11-19T09:49:37Z</time>
      </trkpt>
      <trkpt lat="43.57889" lon="3.33472">
        <ele>254.3</ele>
        <time>2017-11-19T09:49:38Z</time>
      </trkpt>
      <trkpt lat="43.57888" lon="3.33476">
        <ele>254.3</ele>
        <time>2017-11-19T09:49:39Z</time>
      </trkpt>
      <trkpt lat="43.57886" lon="3.3348">
        <ele>254.5</ele>
        <time>2017-11-19T09:49:40Z</time>
      </trkpt>
      <trkpt lat="43.57884" lon="3.33484">
        <ele>254.7</ele>
        <time>2017-11-19T09:49:41Z</time>
      </trkpt>
      <trkpt lat="43.57882" lon="3.33488">
        <ele>254.8</ele>
        <time>2017-11-19T09:49:42Z</time>
      </trkpt>
      <trkpt lat="43.57881" lon="3.33492">
        <ele>254.8</ele>
        <time>2017-11-19T09:49:43Z</time>
      </trkpt>
      <trkpt lat="43.57879" lon="3.33497">
        <ele>254.9</ele>
        <time>2017-11-19T09:49:44Z</time>
      </trkpt>
      <trkpt lat="43.57878" lon="3.33501">
        <ele>255.1</ele>
        <time>2017-11-19T09:49:45Z</time>
      </trkpt>
      <trkpt lat="43.57877" lon="3.33505">
        <ele>255.3</ele>
        <time>2017-11-19T09:49:46Z</time>
      </trkpt>
      <trkpt lat="43.57877" lon="3.3351">
        <ele>255.7</ele>
        <time>2017-11-19T09:49:47Z</time>
      </trkpt>
      <trkpt lat="43.57876" lon="3.33514">
        <ele>256.3</ele>
        <time>2017-11-19T09:49:48Z</time>
      </trkpt>
      <trkpt lat="43.57875" lon="3.33519">
        <ele>256.7</ele>
        <time>2017-11-19T09:49:49Z</time>
      </trkpt>
      <trkpt lat="43.57875" lon="3.33523">
        <ele>257.1</ele>
        <time>2017-11-19T09:49:50Z</time>
      </trkpt>
      <trkpt lat="43.57875" lon="3.33528">
        <ele>257.5</ele>
        <time>2017-11-19T09:49:51Z</time>
      </trkpt>
      <trkpt lat="43.57874" lon="3.33532">
        <ele>257.8</ele>
        <time>2017-11-19T09:49:52Z</time>
      </trkpt>
      <trkpt lat="43.57874" lon="3.33537">
        <ele>258.1</ele>
        <time>2017-11-19T09:49:53Z</time>
      </trkpt>
      <trkpt lat="43.57873" lon="3.33542">
        <ele>258.4</ele>
        <time>2017-11-19T09:49:54Z</time>
      </trkpt>
      <trkpt lat="43.57872" lon="3.33546">
        <ele>258.6</ele>
        <time>2017-11-19T09:49:55Z</time>
      </trkpt>
      <trkpt lat="43.57871" lon="3.3355">
        <ele>258.7</ele>
        <time>2017-11-19T09:49:56Z</time>
      </trkpt>
      <trkpt lat="43.5787" lon="3.33554">
        <ele>258.4</ele>
        <time>2017-11-19T09:49:57Z</time>
      </trkpt>
      <trkpt lat="43.57867" lon="3.3356">
        <ele>258.1</ele>
        <time>2017-11-19T09:49:59Z</time>
      </trkpt>
      <trkpt lat="43.57863" lon="3.33565">
        <ele>257.3</ele>
        <time>2017-11-19T09:50:01Z</time>
      </trkpt>
      <trkpt lat="43.5786" lon="3.33568">
        <ele>256.6</ele>
        <time>2017-11-19T09:50:02Z</time>
      </trkpt>
      <trkpt lat="43.57857" lon="3.33571">
        <ele>256.3</ele>
        <time>2017-11-19T09:50:03Z</time>
      </trkpt>
      <trkpt lat="43.57854" lon="3.33574">
        <ele>256.3</ele>
        <time>2017-11-19T09:50:04Z</time>
      </trkpt>
      <trkpt lat="43.57851" lon="3.33577">
        <ele>256.6</ele>
        <time>2017-11-19T09:50:05Z</time>
      </trkpt>
      <trkpt lat="43.57849" lon="3.33581">
        <ele>256.7</ele>
        <time>2017-11-19T09:50:06Z</time>
      </trkpt>
      <trkpt lat="43.57846" lon="3.33584">
        <ele>256.6</ele>
        <time>2017-11-19T09:50:07Z</time>
      </trkpt>
      <trkpt lat="43.57844" lon="3.33588">
        <ele>256.5</ele>
        <time>2017-11-19T09:50:08Z</time>
      </trkpt>
      <trkpt lat="43.57842" lon="3.33591">
        <ele>256.7</ele>
        <time>2017-11-19T09:50:09Z</time>
      </trkpt>
      <trkpt lat="43.5784" lon="3.33595">
        <ele>256.9</ele>
        <time>2017-11-19T09:50:10Z</time>
      </trkpt>
      <trkpt lat="43.57838" lon="3.33599">
        <ele>257.3</ele>
        <time>2017-11-19T09:50:11Z</time>
      </trkpt>
      <trkpt lat="43.57837" lon="3.33603">
        <ele>257.8</ele>
        <time>2017-11-19T09:50:12Z</time>
      </trkpt>
      <trkpt lat="43.57836" lon="3.33607">
        <ele>258.3</ele>
        <time>2017-11-19T09:50:13Z</time>
      </trkpt>
      <trkpt lat="43.57835" lon="3.33611">
        <ele>258.5</ele>
        <time>2017-11-19T09:50:14Z</time>
      </trkpt>
      <trkpt lat="43.57834" lon="3.33615">
        <ele>258.6</ele>
        <time>2017-11-19T09:50:15Z</time>
      </trkpt>
      <trkpt lat="43.57833" lon="3.33619">
        <ele>258.7</ele>
        <time>2017-11-19T09:50:16Z</time>
      </trkpt>
      <trkpt lat="43.57832" lon="3.33623">
        <ele>259</ele>
        <time>2017-11-19T09:50:17Z</time>
      </trkpt>
      <trkpt lat="43.57831" lon="3.33627">
        <ele>259.3</ele>
        <time>2017-11-19T09:50:18Z</time>
      </trkpt>
      <trkpt lat="43.57829" lon="3.33631">
        <ele>259.7</ele>
        <time>2017-11-19T09:50:19Z</time>
      </trkpt>
      <trkpt lat="43.57828" lon="3.33636">
        <ele>259.8</ele>
        <time>2017-11-19T09:50:20Z</time>
      </trkpt>
      <trkpt lat="43.57826" lon="3.3364">
        <ele>260</ele>
        <time>2017-11-19T09:50:21Z</time>
      </trkpt>
      <trkpt lat="43.57825" lon="3.33645">
        <ele>260.3</ele>
        <time>2017-11-19T09:50:22Z</time>
      </trkpt>
      <trkpt lat="43.57823" lon="3.3365">
        <ele>260.8</ele>
        <time>2017-11-19T09:50:23Z</time>
      </trkpt>
      <trkpt lat="43.57822" lon="3.33655">
        <ele>261.2</ele>
        <time>2017-11-19T09:50:24Z</time>
      </trkpt>
      <trkpt lat="43.5782" lon="3.3366">
        <ele>261.6</ele>
        <time>2017-11-19T09:50:25Z</time>
      </trkpt>
      <trkpt lat="43.57819" lon="3.33665">
        <ele>261.9</ele>
        <time>2017-11-19T09:50:26Z</time>
      </trkpt>
      <trkpt lat="43.57817" lon="3.3367">
        <ele>262</ele>
        <time>2017-11-19T09:50:27Z</time>
      </trkpt>
      <trkpt lat="43.57816" lon="3.33674">
        <ele>262.1</ele>
        <time>2017-11-19T09:50:28Z</time>
      </trkpt>
      <trkpt lat="43.57815" lon="3.33679">
        <ele>261.9</ele>
        <time>2017-11-19T09:50:29Z</time>
      </trkpt>
      <trkpt lat="43.57814" lon="3.33683">
        <ele>261.8</ele>
        <time>2017-11-19T09:50:30Z</time>
      </trkpt>
      <trkpt lat="43.57813" lon="3.33687">
        <ele>261.7</ele>
        <time>2017-11-19T09:50:31Z</time>
      </trkpt>
      <trkpt lat="43.57811" lon="3.33692">
        <ele>261.6</ele>
        <time>2017-11-19T09:50:32Z</time>
      </trkpt>
      <trkpt lat="43.57809" lon="3.33697">
        <ele>261.5</ele>
        <time>2017-11-19T09:50:33Z</time>
      </trkpt>
      <trkpt lat="43.57807" lon="3.33701">
        <ele>261.3</ele>
        <time>2017-11-19T09:50:34Z</time>
      </trkpt>
      <trkpt lat="43.57806" lon="3.33705">
        <ele>261.1</ele>
        <time>2017-11-19T09:50:35Z</time>
      </trkpt>
      <trkpt lat="43.57804" lon="3.33709">
        <ele>261</ele>
        <time>2017-11-19T09:50:36Z</time>
      </trkpt>
      <trkpt lat="43.57803" lon="3.33713">
        <ele>260.8</ele>
        <time>2017-11-19T09:50:37Z</time>
      </trkpt>
      <trkpt lat="43.57801" lon="3.33717">
        <ele>260.7</ele>
        <time>2017-11-19T09:50:38Z</time>
      </trkpt>
      <trkpt lat="43.578" lon="3.33721">
        <ele>260.7</ele>
        <time>2017-11-19T09:50:39Z</time>
      </trkpt>
      <trkpt lat="43.57798" lon="3.33725">
        <ele>260.4</ele>
        <time>2017-11-19T09:50:40Z</time>
      </trkpt>
      <trkpt lat="43.57796" lon="3.33729">
        <ele>260</ele>
        <time>2017-11-19T09:50:41Z</time>
      </trkpt>
      <trkpt lat="43.57794" lon="3.33734">
        <ele>259.7</ele>
        <time>2017-11-19T09:50:42Z</time>
      </trkpt>
      <trkpt lat="43.57792" lon="3.33739">
        <ele>259.5</ele>
        <time>2017-11-19T09:50:43Z</time>
      </trkpt>
      <trkpt lat="43.5779" lon="3.33744">
        <ele>259.2</ele>
        <time>2017-11-19T09:50:44Z</time>
      </trkpt>
      <trkpt lat="43.57788" lon="3.33748">
        <ele>258.9</ele>
        <time>2017-11-19T09:50:45Z</time>
      </trkpt>
      <trkpt lat="43.57787" lon="3.33753">
        <ele>258.5</ele>
        <time>2017-11-19T09:50:46Z</time>
      </trkpt>
      <trkpt lat="43.57785" lon="3.33758">
        <ele>258.1</ele>
        <time>2017-11-19T09:50:47Z</time>
      </trkpt>
      <trkpt lat="43.57784" lon="3.33762">
        <ele>257.7</ele>
        <time>2017-11-19T09:50:48Z</time>
      </trkpt>
      <trkpt lat="43.57782" lon="3.33768">
        <ele>257.2</ele>
        <time>2017-11-19T09:50:49Z</time>
      </trkpt>
      <trkpt lat="43.5778" lon="3.33772">
        <ele>256.9</ele>
        <time>2017-11-19T09:50:50Z</time>
      </trkpt>
      <trkpt lat="43.57779" lon="3.33777">
        <ele>256.7</ele>
        <time>2017-11-19T09:50:51Z</time>
      </trkpt>
      <trkpt lat="43.57778" lon="3.33783">
        <ele>257.1</ele>
        <time>2017-11-19T09:50:52Z</time>
      </trkpt>
      <trkpt lat="43.57777" lon="3.33789">
        <ele>257.2</ele>
        <time>2017-11-19T09:50:53Z</time>
      </trkpt>
      <trkpt lat="43.57775" lon="3.33795">
        <ele>256.7</ele>
        <time>2017-11-19T09:50:54Z</time>
      </trkpt>
      <trkpt lat="43.57774" lon="3.338">
        <ele>256.6</ele>
        <time>2017-11-19T09:50:55Z</time>
      </trkpt>
      <trkpt lat="43.57772" lon="3.33805">
        <ele>256.7</ele>
        <time>2017-11-19T09:50:56Z</time>
      </trkpt>
      <trkpt lat="43.57771" lon="3.3381">
        <ele>256.5</ele>
        <time>2017-11-19T09:50:57Z</time>
      </trkpt>
      <trkpt lat="43.57769" lon="3.33814">
        <ele>256.2</ele>
        <time>2017-11-19T09:50:58Z</time>
      </trkpt>
      <trkpt lat="43.57769" lon="3.33818">
        <ele>256</ele>
        <time>2017-11-19T09:50:59Z</time>
      </trkpt>
      <trkpt lat="43.57768" lon="3.33823">
        <ele>256.1</ele>
        <time>2017-11-19T09:51:00Z</time>
      </trkpt>
      <trkpt lat="43.57768" lon="3.33828">
        <ele>256.2</ele>
        <time>2017-11-19T09:51:01Z</time>
      </trkpt>
      <trkpt lat="43.57767" lon="3.33833">
        <ele>255.9</ele>
        <time>2017-11-19T09:51:02Z</time>
      </trkpt>
      <trkpt lat="43.57766" lon="3.33838">
        <ele>255.6</ele>
        <time>2017-11-19T09:51:03Z</time>
      </trkpt>
      <trkpt lat="43.57766" lon="3.33843">
        <ele>255.3</ele>
        <time>2017-11-19T09:51:04Z</time>
      </trkpt>
      <trkpt lat="43.57765" lon="3.33848">
        <ele>255</ele>
        <time>2017-11-19T09:51:05Z</time>
      </trkpt>
      <trkpt lat="43.57763" lon="3.33853">
        <ele>254.6</ele>
        <time>2017-11-19T09:51:06Z</time>
      </trkpt>
      <trkpt lat="43.57762" lon="3.33858">
        <ele>254.3</ele>
        <time>2017-11-19T09:51:07Z</time>
      </trkpt>
      <trkpt lat="43.57761" lon="3.33864">
        <ele>254.2</ele>
        <time>2017-11-19T09:51:08Z</time>
      </trkpt>
      <trkpt lat="43.57761" lon="3.33869">
        <ele>254.3</ele>
        <time>2017-11-19T09:51:09Z</time>
      </trkpt>
      <trkpt lat="43.5776" lon="3.33875">
        <ele>254.2</ele>
        <time>2017-11-19T09:51:10Z</time>
      </trkpt>
      <trkpt lat="43.57759" lon="3.33881">
        <ele>254.2</ele>
        <time>2017-11-19T09:51:11Z</time>
      </trkpt>
      <trkpt lat="43.57759" lon="3.33887">
        <ele>254.1</ele>
        <time>2017-11-19T09:51:12Z</time>
      </trkpt>
      <trkpt lat="43.57759" lon="3.33893">
        <ele>254.3</ele>
        <time>2017-11-19T09:51:13Z</time>
      </trkpt>
      <trkpt lat="43.57759" lon="3.33899">
        <ele>254.2</ele>
        <time>2017-11-19T09:51:14Z</time>
      </trkpt>
      <trkpt lat="43.5776" lon="3.33905">
        <ele>253.9</ele>
        <time>2017-11-19T09:51:15Z</time>
      </trkpt>
      <trkpt lat="43.57761" lon="3.33911">
        <ele>254.1</ele>
        <time>2017-11-19T09:51:16Z</time>
      </trkpt>
      <trkpt lat="43.57763" lon="3.33915">
        <ele>254.1</ele>
        <time>2017-11-19T09:51:17Z</time>
      </trkpt>
      <trkpt lat="43.57765" lon="3.33918">
        <ele>254</ele>
        <time>2017-11-19T09:51:18Z</time>
      </trkpt>
      <trkpt lat="43.57768" lon="3.33922">
        <ele>253.9</ele>
        <time>2017-11-19T09:51:19Z</time>
      </trkpt>
      <trkpt lat="43.57771" lon="3.33925">
        <ele>254.1</ele>
        <time>2017-11-19T09:51:20Z</time>
      </trkpt>
      <trkpt lat="43.57774" lon="3.33928">
        <ele>254.4</ele>
        <time>2017-11-19T09:51:21Z</time>
      </trkpt>
      <trkpt lat="43.57777" lon="3.3393">
        <ele>254.7</ele>
        <time>2017-11-19T09:51:22Z</time>
      </trkpt>
      <trkpt lat="43.57779" lon="3.33932">
        <ele>254.8</ele>
        <time>2017-11-19T09:51:23Z</time>
      </trkpt>
      <trkpt lat="43.57783" lon="3.33932">
        <ele>255.2</ele>
        <time>2017-11-19T09:51:24Z</time>
      </trkpt>
      <trkpt lat="43.57787" lon="3.33932">
        <ele>255.8</ele>
        <time>2017-11-19T09:51:25Z</time>
      </trkpt>
      <trkpt lat="43.57792" lon="3.33932">
        <ele>256.3</ele>
        <time>2017-11-19T09:51:26Z</time>
      </trkpt>
      <trkpt lat="43.57796" lon="3.33931">
        <ele>256.7</ele>
        <time>2017-11-19T09:51:27Z</time>
      </trkpt>
      <trkpt lat="43.57801" lon="3.3393">
        <ele>257.8</ele>
        <time>2017-11-19T09:51:28Z</time>
      </trkpt>
      <trkpt lat="43.57805" lon="3.33929">
        <ele>258.6</ele>
        <time>2017-11-19T09:51:29Z</time>
      </trkpt>
      <trkpt lat="43.57809" lon="3.33927">
        <ele>259.4</ele>
        <time>2017-11-19T09:51:30Z</time>
      </trkpt>
      <trkpt lat="43.57812" lon="3.33925">
        <ele>260.1</ele>
        <time>2017-11-19T09:51:31Z</time>
      </trkpt>
      <trkpt lat="43.57816" lon="3.33922">
        <ele>261.1</ele>
        <time>2017-11-19T09:51:32Z</time>
      </trkpt>
      <trkpt lat="43.5782" lon="3.3392">
        <ele>262.2</ele>
        <time>2017-11-19T09:51:33Z</time>
      </trkpt>
      <trkpt lat="43.57824" lon="3.33917">
        <ele>263.1</ele>
        <time>2017-11-19T09:51:34Z</time>
      </trkpt>
      <trkpt lat="43.57827" lon="3.33915">
        <ele>263.9</ele>
        <time>2017-11-19T09:51:35Z</time>
      </trkpt>
      <trkpt lat="43.57831" lon="3.33913">
        <ele>265</ele>
        <time>2017-11-19T09:51:36Z</time>
      </trkpt>
      <trkpt lat="43.57834" lon="3.33911">
        <ele>266.1</ele>
        <time>2017-11-19T09:51:37Z</time>
      </trkpt>
      <trkpt lat="43.57838" lon="3.33908">
        <ele>267</ele>
        <time>2017-11-19T09:51:38Z</time>
      </trkpt>
      <trkpt lat="43.57842" lon="3.33906">
        <ele>268</ele>
        <time>2017-11-19T09:51:39Z</time>
      </trkpt>
      <trkpt lat="43.57845" lon="3.33905">
        <ele>269</ele>
        <time>2017-11-19T09:51:40Z</time>
      </trkpt>
      <trkpt lat="43.57849" lon="3.33903">
        <ele>269.9</ele>
        <time>2017-11-19T09:51:41Z</time>
      </trkpt>
      <trkpt lat="43.57852" lon="3.33901">
        <ele>271</ele>
        <time>2017-11-19T09:51:42Z</time>
      </trkpt>
      <trkpt lat="43.57855" lon="3.339">
        <ele>272.1</ele>
        <time>2017-11-19T09:51:43Z</time>
      </trkpt>
      <trkpt lat="43.57858" lon="3.33899">
        <ele>272.8</ele>
        <time>2017-11-19T09:51:44Z</time>
      </trkpt>
      <trkpt lat="43.57861" lon="3.33898">
        <ele>273.4</ele>
        <time>2017-11-19T09:51:45Z</time>
      </trkpt>
      <trkpt lat="43.57864" lon="3.33897">
        <ele>273.9</ele>
        <time>2017-11-19T09:51:46Z</time>
      </trkpt>
      <trkpt lat="43.57867" lon="3.33896">
        <ele>274.1</ele>
        <time>2017-11-19T09:51:47Z</time>
      </trkpt>
      <trkpt lat="43.5787" lon="3.33895">
        <ele>274.1</ele>
        <time>2017-11-19T09:51:48Z</time>
      </trkpt>
      <trkpt lat="43.57873" lon="3.33895">
        <ele>274.1</ele>
        <time>2017-11-19T09:51:49Z</time>
      </trkpt>
      <trkpt lat="43.57876" lon="3.33895">
        <ele>274.6</ele>
        <time>2017-11-19T09:51:50Z</time>
      </trkpt>
      <trkpt lat="43.57879" lon="3.33895">
        <ele>275.1</ele>
        <time>2017-11-19T09:51:51Z</time>
      </trkpt>
      <trkpt lat="43.57884" lon="3.33895">
        <ele>275.8</ele>
        <time>2017-11-19T09:51:52Z</time>
      </trkpt>
      <trkpt lat="43.57887" lon="3.33895">
        <ele>276.4</ele>
        <time>2017-11-19T09:51:53Z</time>
      </trkpt>
      <trkpt lat="43.57891" lon="3.33896">
        <ele>276.9</ele>
        <time>2017-11-19T09:51:54Z</time>
      </trkpt>
      <trkpt lat="43.57893" lon="3.33896">
        <ele>277.2</ele>
        <time>2017-11-19T09:51:55Z</time>
      </trkpt>
      <trkpt lat="43.57896" lon="3.33896">
        <ele>277.5</ele>
        <time>2017-11-19T09:51:56Z</time>
      </trkpt>
      <trkpt lat="43.579" lon="3.33896">
        <ele>277.9</ele>
        <time>2017-11-19T09:51:57Z</time>
      </trkpt>
      <trkpt lat="43.57903" lon="3.33897">
        <ele>278.2</ele>
        <time>2017-11-19T09:51:58Z</time>
      </trkpt>
      <trkpt lat="43.57905" lon="3.33898">
        <ele>278.6</ele>
        <time>2017-11-19T09:51:59Z</time>
      </trkpt>
      <trkpt lat="43.57908" lon="3.33898">
        <ele>279</ele>
        <time>2017-11-19T09:52:00Z</time>
      </trkpt>
      <trkpt lat="43.57911" lon="3.33899">
        <ele>279.4</ele>
        <time>2017-11-19T09:52:01Z</time>
      </trkpt>
      <trkpt lat="43.57914" lon="3.33899">
        <ele>279.5</ele>
        <time>2017-11-19T09:52:02Z</time>
      </trkpt>
      <trkpt lat="43.57917" lon="3.33901">
        <ele>279.7</ele>
        <time>2017-11-19T09:52:03Z</time>
      </trkpt>
      <trkpt lat="43.5792" lon="3.33903">
        <ele>279.9</ele>
        <time>2017-11-19T09:52:04Z</time>
      </trkpt>
      <trkpt lat="43.57923" lon="3.33906">
        <ele>280.2</ele>
        <time>2017-11-19T09:52:05Z</time>
      </trkpt>
      <trkpt lat="43.57926" lon="3.33908">
        <ele>280.6</ele>
        <time>2017-11-19T09:52:06Z</time>
      </trkpt>
      <trkpt lat="43.57932" lon="3.33909">
        <ele>281.4</ele>
        <time>2017-11-19T09:52:08Z</time>
      </trkpt>
      <trkpt lat="43.57935" lon="3.33911">
        <ele>281.7</ele>
        <time>2017-11-19T09:52:09Z</time>
      </trkpt>
      <trkpt lat="43.5794" lon="3.33913">
        <ele>282.1</ele>
        <time>2017-11-19T09:52:11Z</time>
      </trkpt>
      <trkpt lat="43.57943" lon="3.33915">
        <ele>282.6</ele>
        <time>2017-11-19T09:52:12Z</time>
      </trkpt>
      <trkpt lat="43.57946" lon="3.33915">
        <ele>283</ele>
        <time>2017-11-19T09:52:13Z</time>
      </trkpt>
      <trkpt lat="43.57948" lon="3.33916">
        <ele>283.4</ele>
        <time>2017-11-19T09:52:14Z</time>
      </trkpt>
      <trkpt lat="43.57951" lon="3.33918">
        <ele>283.7</ele>
        <time>2017-11-19T09:52:15Z</time>
      </trkpt>
      <trkpt lat="43.57954" lon="3.33919">
        <ele>284</ele>
        <time>2017-11-19T09:52:16Z</time>
      </trkpt>
      <trkpt lat="43.57957" lon="3.33921">
        <ele>284.4</ele>
        <time>2017-11-19T09:52:17Z</time>
      </trkpt>
      <trkpt lat="43.5796" lon="3.33922">
        <ele>284.7</ele>
        <time>2017-11-19T09:52:18Z</time>
      </trkpt>
      <trkpt lat="43.57962" lon="3.33924">
        <ele>285</ele>
        <time>2017-11-19T09:52:19Z</time>
      </trkpt>
      <trkpt lat="43.57967" lon="3.33927">
        <ele>285.5</ele>
        <time>2017-11-19T09:52:21Z</time>
      </trkpt>
      <trkpt lat="43.57969" lon="3.3393">
        <ele>285.7</ele>
        <time>2017-11-19T09:52:22Z</time>
      </trkpt>
      <trkpt lat="43.57971" lon="3.33934">
        <ele>285.6</ele>
        <time>2017-11-19T09:52:23Z</time>
      </trkpt>
      <trkpt lat="43.57973" lon="3.33943">
        <ele>285.2</ele>
        <time>2017-11-19T09:52:25Z</time>
      </trkpt>
      <trkpt lat="43.57974" lon="3.33947">
        <ele>285</ele>
        <time>2017-11-19T09:52:26Z</time>
      </trkpt>
      <trkpt lat="43.57974" lon="3.33951">
        <ele>284.3</ele>
        <time>2017-11-19T09:52:29Z</time>
      </trkpt>
      <trkpt lat="43.57972" lon="3.33957">
        <ele>283.3</ele>
        <time>2017-11-19T09:52:31Z</time>
      </trkpt>
      <trkpt lat="43.5797" lon="3.3396">
        <ele>282.6</ele>
        <time>2017-11-19T09:52:32Z</time>
      </trkpt>
      <trkpt lat="43.57968" lon="3.33965">
        <ele>281.7</ele>
        <time>2017-11-19T09:52:33Z</time>
      </trkpt>
      <trkpt lat="43.57965" lon="3.3397">
        <ele>280.3</ele>
        <time>2017-11-19T09:52:35Z</time>
      </trkpt>
      <trkpt lat="43.57962" lon="3.33974">
        <ele>279.6</ele>
        <time>2017-11-19T09:52:37Z</time>
      </trkpt>
      <trkpt lat="43.57959" lon="3.33978">
        <ele>279</ele>
        <time>2017-11-19T09:52:39Z</time>
      </trkpt>
      <trkpt lat="43.57956" lon="3.33985">
        <ele>277.3</ele>
        <time>2017-11-19T09:52:41Z</time>
      </trkpt>
      <trkpt lat="43.57954" lon="3.33988">
        <ele>276.5</ele>
        <time>2017-11-19T09:52:42Z</time>
      </trkpt>
      <trkpt lat="43.57953" lon="3.33991">
        <ele>275.9</ele>
        <time>2017-11-19T09:52:43Z</time>
      </trkpt>
      <trkpt lat="43.57952" lon="3.33996">
        <ele>275.3</ele>
        <time>2017-11-19T09:52:44Z</time>
      </trkpt>
      <trkpt lat="43.5795" lon="3.34">
        <ele>274.3</ele>
        <time>2017-11-19T09:52:45Z</time>
      </trkpt>
      <trkpt lat="43.57949" lon="3.34003">
        <ele>273.3</ele>
        <time>2017-11-19T09:52:46Z</time>
      </trkpt>
      <trkpt lat="43.57947" lon="3.34008">
        <ele>272.3</ele>
        <time>2017-11-19T09:52:47Z</time>
      </trkpt>
      <trkpt lat="43.57946" lon="3.34012">
        <ele>271.6</ele>
        <time>2017-11-19T09:52:48Z</time>
      </trkpt>
      <trkpt lat="43.57945" lon="3.34017">
        <ele>271.1</ele>
        <time>2017-11-19T09:52:49Z</time>
      </trkpt>
      <trkpt lat="43.57944" lon="3.34021">
        <ele>270.9</ele>
        <time>2017-11-19T09:52:50Z</time>
      </trkpt>
      <trkpt lat="43.57943" lon="3.34025">
        <ele>270.6</ele>
        <time>2017-11-19T09:52:51Z</time>
      </trkpt>
      <trkpt lat="43.57943" lon="3.34029">
        <ele>269.7</ele>
        <time>2017-11-19T09:52:52Z</time>
      </trkpt>
      <trkpt lat="43.57942" lon="3.34034">
        <ele>269</ele>
        <time>2017-11-19T09:52:53Z</time>
      </trkpt>
      <trkpt lat="43.57941" lon="3.34038">
        <ele>268.5</ele>
        <time>2017-11-19T09:52:54Z</time>
      </trkpt>
      <trkpt lat="43.57941" lon="3.34043">
        <ele>268.2</ele>
        <time>2017-11-19T09:52:55Z</time>
      </trkpt>
      <trkpt lat="43.57941" lon="3.34048">
        <ele>267.9</ele>
        <time>2017-11-19T09:52:56Z</time>
      </trkpt>
      <trkpt lat="43.57941" lon="3.34053">
        <ele>267.4</ele>
        <time>2017-11-19T09:52:57Z</time>
      </trkpt>
      <trkpt lat="43.57941" lon="3.34059">
        <ele>267</ele>
        <time>2017-11-19T09:52:58Z</time>
      </trkpt>
      <trkpt lat="43.57942" lon="3.34064">
        <ele>266.8</ele>
        <time>2017-11-19T09:52:59Z</time>
      </trkpt>
      <trkpt lat="43.57942" lon="3.34068">
        <ele>266.8</ele>
        <time>2017-11-19T09:53:00Z</time>
      </trkpt>
      <trkpt lat="43.57943" lon="3.34074">
        <ele>267.2</ele>
        <time>2017-11-19T09:53:01Z</time>
      </trkpt>
      <trkpt lat="43.57943" lon="3.34078">
        <ele>267.4</ele>
        <time>2017-11-19T09:53:02Z</time>
      </trkpt>
      <trkpt lat="43.57943" lon="3.34083">
        <ele>267.3</ele>
        <time>2017-11-19T09:53:03Z</time>
      </trkpt>
      <trkpt lat="43.57944" lon="3.34092">
        <ele>267.1</ele>
        <time>2017-11-19T09:53:05Z</time>
      </trkpt>
      <trkpt lat="43.57945" lon="3.34097">
        <ele>267.4</ele>
        <time>2017-11-19T09:53:06Z</time>
      </trkpt>
      <trkpt lat="43.57947" lon="3.34103">
        <ele>267.7</ele>
        <time>2017-11-19T09:53:07Z</time>
      </trkpt>
      <trkpt lat="43.57949" lon="3.3411">
        <ele>268.2</ele>
        <time>2017-11-19T09:53:08Z</time>
      </trkpt>
      <trkpt lat="43.5795" lon="3.34115">
        <ele>268.3</ele>
        <time>2017-11-19T09:53:09Z</time>
      </trkpt>
      <trkpt lat="43.57952" lon="3.34123">
        <ele>268.4</ele>
        <time>2017-11-19T09:53:10Z</time>
      </trkpt>
      <trkpt lat="43.57953" lon="3.34129">
        <ele>268.5</ele>
        <time>2017-11-19T09:53:11Z</time>
      </trkpt>
      <trkpt lat="43.57955" lon="3.34133">
        <ele>268.5</ele>
        <time>2017-11-19T09:53:12Z</time>
      </trkpt>
      <trkpt lat="43.57956" lon="3.34138">
        <ele>268.5</ele>
        <time>2017-11-19T09:53:13Z</time>
      </trkpt>
      <trkpt lat="43.57957" lon="3.34143">
        <ele>268.4</ele>
        <time>2017-11-19T09:53:14Z</time>
      </trkpt>
      <trkpt lat="43.57959" lon="3.34148">
        <ele>268.1</ele>
        <time>2017-11-19T09:53:15Z</time>
      </trkpt>
      <trkpt lat="43.5796" lon="3.34152">
        <ele>267.9</ele>
        <time>2017-11-19T09:53:16Z</time>
      </trkpt>
      <trkpt lat="43.57962" lon="3.34157">
        <ele>267.9</ele>
        <time>2017-11-19T09:53:17Z</time>
      </trkpt>
      <trkpt lat="43.57963" lon="3.34161">
        <ele>267.9</ele>
        <time>2017-11-19T09:53:18Z</time>
      </trkpt>
      <trkpt lat="43.57965" lon="3.34165">
        <ele>267.8</ele>
        <time>2017-11-19T09:53:19Z</time>
      </trkpt>
      <trkpt lat="43.57967" lon="3.34169">
        <ele>267.8</ele>
        <time>2017-11-19T09:53:20Z</time>
      </trkpt>
      <trkpt lat="43.57968" lon="3.34173">
        <ele>267.6</ele>
        <time>2017-11-19T09:53:21Z</time>
      </trkpt>
      <trkpt lat="43.5797" lon="3.34177">
        <ele>267.3</ele>
        <time>2017-11-19T09:53:22Z</time>
      </trkpt>
      <trkpt lat="43.57971" lon="3.34181">
        <ele>267.1</ele>
        <time>2017-11-19T09:53:23Z</time>
      </trkpt>
      <trkpt lat="43.57972" lon="3.34186">
        <ele>267</ele>
        <time>2017-11-19T09:53:24Z</time>
      </trkpt>
      <trkpt lat="43.57973" lon="3.34189">
        <ele>266.9</ele>
        <time>2017-11-19T09:53:25Z</time>
      </trkpt>
      <trkpt lat="43.57975" lon="3.34194">
        <ele>266.8</ele>
        <time>2017-11-19T09:53:26Z</time>
      </trkpt>
      <trkpt lat="43.57976" lon="3.34198">
        <ele>266.7</ele>
        <time>2017-11-19T09:53:27Z</time>
      </trkpt>
      <trkpt lat="43.57976" lon="3.34202">
        <ele>266.5</ele>
        <time>2017-11-19T09:53:28Z</time>
      </trkpt>
      <trkpt lat="43.57977" lon="3.34206">
        <ele>266</ele>
        <time>2017-11-19T09:53:29Z</time>
      </trkpt>
      <trkpt lat="43.57978" lon="3.34211">
        <ele>265.5</ele>
        <time>2017-11-19T09:53:30Z</time>
      </trkpt>
      <trkpt lat="43.57978" lon="3.34215">
        <ele>265</ele>
        <time>2017-11-19T09:53:31Z</time>
      </trkpt>
      <trkpt lat="43.57978" lon="3.3422">
        <ele>264.2</ele>
        <time>2017-11-19T09:53:32Z</time>
      </trkpt>
      <trkpt lat="43.57979" lon="3.34226">
        <ele>263.3</ele>
        <time>2017-11-19T09:53:33Z</time>
      </trkpt>
      <trkpt lat="43.57979" lon="3.3423">
        <ele>262.6</ele>
        <time>2017-11-19T09:53:34Z</time>
      </trkpt>
      <trkpt lat="43.5798" lon="3.34235">
        <ele>262.3</ele>
        <time>2017-11-19T09:53:35Z</time>
      </trkpt>
      <trkpt lat="43.5798" lon="3.3424">
        <ele>262</ele>
        <time>2017-11-19T09:53:36Z</time>
      </trkpt>
      <trkpt lat="43.57981" lon="3.34245">
        <ele>261</ele>
        <time>2017-11-19T09:53:37Z</time>
      </trkpt>
      <trkpt lat="43.57982" lon="3.34251">
        <ele>260.2</ele>
        <time>2017-11-19T09:53:39Z</time>
      </trkpt>
      <trkpt lat="43.57983" lon="3.34258">
        <ele>259.5</ele>
        <time>2017-11-19T09:53:41Z</time>
      </trkpt>
      <trkpt lat="43.57984" lon="3.34263">
        <ele>259.2</ele>
        <time>2017-11-19T09:53:42Z</time>
      </trkpt>
      <trkpt lat="43.57986" lon="3.34267">
        <ele>259</ele>
        <time>2017-11-19T09:53:43Z</time>
      </trkpt>
      <trkpt lat="43.57987" lon="3.34272">
        <ele>258.7</ele>
        <time>2017-11-19T09:53:44Z</time>
      </trkpt>
      <trkpt lat="43.5799" lon="3.34275">
        <ele>258.6</ele>
        <time>2017-11-19T09:53:45Z</time>
      </trkpt>
      <trkpt lat="43.57993" lon="3.34278">
        <ele>258.9</ele>
        <time>2017-11-19T09:53:46Z</time>
      </trkpt>
      <trkpt lat="43.57996" lon="3.3428">
        <ele>259.5</ele>
        <time>2017-11-19T09:53:47Z</time>
      </trkpt>
      <trkpt lat="43.57999" lon="3.3428">
        <ele>259.7</ele>
        <time>2017-11-19T09:53:48Z</time>
      </trkpt>
      <trkpt lat="43.58002" lon="3.34278">
        <ele>260</ele>
        <time>2017-11-19T09:53:49Z</time>
      </trkpt>
      <trkpt lat="43.58006" lon="3.34276">
        <ele>260.4</ele>
        <time>2017-11-19T09:53:51Z</time>
      </trkpt>
      <trkpt lat="43.58009" lon="3.34272">
        <ele>261.4</ele>
        <time>2017-11-19T09:53:53Z</time>
      </trkpt>
      <trkpt lat="43.58012" lon="3.34269">
        <ele>261.8</ele>
        <time>2017-11-19T09:53:55Z</time>
      </trkpt>
      <trkpt lat="43.58014" lon="3.34267">
        <ele>262.1</ele>
        <time>2017-11-19T09:53:57Z</time>
      </trkpt>
      <trkpt lat="43.58017" lon="3.34264">
        <ele>262.6</ele>
        <time>2017-11-19T09:53:59Z</time>
      </trkpt>
      <trkpt lat="43.5802" lon="3.34262">
        <ele>263.2</ele>
        <time>2017-11-19T09:54:01Z</time>
      </trkpt>
      <trkpt lat="43.58022" lon="3.3426">
        <ele>263.8</ele>
        <time>2017-11-19T09:54:03Z</time>
      </trkpt>
      <trkpt lat="43.58026" lon="3.34257">
        <ele>264.1</ele>
        <time>2017-11-19T09:54:06Z</time>
      </trkpt>
      <trkpt lat="43.58029" lon="3.34253">
        <ele>264.5</ele>
        <time>2017-11-19T09:54:08Z</time>
      </trkpt>
      <trkpt lat="43.58034" lon="3.3425">
        <ele>264.7</ele>
        <time>2017-11-19T09:54:10Z</time>
      </trkpt>
      <trkpt lat="43.58038" lon="3.34248">
        <ele>265</ele>
        <time>2017-11-19T09:54:12Z</time>
      </trkpt>
      <trkpt lat="43.58041" lon="3.34246">
        <ele>265.2</ele>
        <time>2017-11-19T09:54:14Z</time>
      </trkpt>
      <trkpt lat="43.58044" lon="3.34245">
        <ele>265.7</ele>
        <time>2017-11-19T09:54:16Z</time>
      </trkpt>
      <trkpt lat="43.58048" lon="3.34243">
        <ele>266.2</ele>
        <time>2017-11-19T09:54:18Z</time>
      </trkpt>
      <trkpt lat="43.58052" lon="3.34241">
        <ele>266.6</ele>
        <time>2017-11-19T09:54:20Z</time>
      </trkpt>
      <trkpt lat="43.58054" lon="3.3424">
        <ele>266.8</ele>
        <time>2017-11-19T09:54:22Z</time>
      </trkpt>
      <trkpt lat="43.58058" lon="3.34239">
        <ele>267</ele>
        <time>2017-11-19T09:54:24Z</time>
      </trkpt>
      <trkpt lat="43.58061" lon="3.34238">
        <ele>267.2</ele>
        <time>2017-11-19T09:54:26Z</time>
      </trkpt>
      <trkpt lat="43.58064" lon="3.34237">
        <ele>267.4</ele>
        <time>2017-11-19T09:54:28Z</time>
      </trkpt>
      <trkpt lat="43.58066" lon="3.34236">
        <ele>267.5</ele>
        <time>2017-11-19T09:54:30Z</time>
      </trkpt>
      <trkpt lat="43.58069" lon="3.34234">
        <ele>267.8</ele>
        <time>2017-11-19T09:54:33Z</time>
      </trkpt>
      <trkpt lat="43.58073" lon="3.34232">
        <ele>268.4</ele>
        <time>2017-11-19T09:54:35Z</time>
      </trkpt>
      <trkpt lat="43.58076" lon="3.34231">
        <ele>268.8</ele>
        <time>2017-11-19T09:54:37Z</time>
      </trkpt>
      <trkpt lat="43.58081" lon="3.34231">
        <ele>269.3</ele>
        <time>2017-11-19T09:54:39Z</time>
      </trkpt>
      <trkpt lat="43.58084" lon="3.34231">
        <ele>269.6</ele>
        <time>2017-11-19T09:54:41Z</time>
      </trkpt>
      <trkpt lat="43.58089" lon="3.34232">
        <ele>270</ele>
        <time>2017-11-19T09:54:43Z</time>
      </trkpt>
      <trkpt lat="43.58093" lon="3.34233">
        <ele>270.4</ele>
        <time>2017-11-19T09:54:45Z</time>
      </trkpt>
      <trkpt lat="43.58097" lon="3.34235">
        <ele>271.1</ele>
        <time>2017-11-19T09:54:47Z</time>
      </trkpt>
      <trkpt lat="43.581" lon="3.34237">
        <ele>271.8</ele>
        <time>2017-11-19T09:54:49Z</time>
      </trkpt>
      <trkpt lat="43.58103" lon="3.34238">
        <ele>272.2</ele>
        <time>2017-11-19T09:54:51Z</time>
      </trkpt>
      <trkpt lat="43.58105" lon="3.34241">
        <ele>272.5</ele>
        <time>2017-11-19T09:54:53Z</time>
      </trkpt>
      <trkpt lat="43.58107" lon="3.34244">
        <ele>273</ele>
        <time>2017-11-19T09:54:55Z</time>
      </trkpt>
      <trkpt lat="43.58109" lon="3.34248">
        <ele>273.7</ele>
        <time>2017-11-19T09:54:57Z</time>
      </trkpt>
      <trkpt lat="43.58109" lon="3.34253">
        <ele>274.1</ele>
        <time>2017-11-19T09:54:59Z</time>
      </trkpt>
      <trkpt lat="43.5811" lon="3.34258">
        <ele>274.4</ele>
        <time>2017-11-19T09:55:01Z</time>
      </trkpt>
      <trkpt lat="43.58112" lon="3.34263">
        <ele>274.7</ele>
        <time>2017-11-19T09:55:03Z</time>
      </trkpt>
      <trkpt lat="43.58113" lon="3.34267">
        <ele>274.9</ele>
        <time>2017-11-19T09:55:04Z</time>
      </trkpt>
      <trkpt lat="43.58115" lon="3.3427">
        <ele>275.1</ele>
        <time>2017-11-19T09:55:06Z</time>
      </trkpt>
      <trkpt lat="43.58115" lon="3.34274">
        <ele>275.4</ele>
        <time>2017-11-19T09:55:08Z</time>
      </trkpt>
      <trkpt lat="43.58117" lon="3.3428">
        <ele>276.1</ele>
        <time>2017-11-19T09:55:10Z</time>
      </trkpt>
      <trkpt lat="43.58117" lon="3.34285">
        <ele>276.5</ele>
        <time>2017-11-19T09:55:12Z</time>
      </trkpt>
      <trkpt lat="43.58118" lon="3.3429">
        <ele>276.7</ele>
        <time>2017-11-19T09:55:15Z</time>
      </trkpt>
      <trkpt lat="43.58119" lon="3.34295">
        <ele>276.9</ele>
        <time>2017-11-19T09:55:17Z</time>
      </trkpt>
      <trkpt lat="43.58119" lon="3.34301">
        <ele>277.1</ele>
        <time>2017-11-19T09:55:19Z</time>
      </trkpt>
      <trkpt lat="43.58121" lon="3.34308">
        <ele>277.5</ele>
        <time>2017-11-19T09:55:21Z</time>
      </trkpt>
      <trkpt lat="43.58122" lon="3.34312">
        <ele>277.7</ele>
        <time>2017-11-19T09:55:23Z</time>
      </trkpt>
      <trkpt lat="43.58123" lon="3.34317">
        <ele>277.9</ele>
        <time>2017-11-19T09:55:25Z</time>
      </trkpt>
      <trkpt lat="43.58124" lon="3.34321">
        <ele>278.3</ele>
        <time>2017-11-19T09:55:27Z</time>
      </trkpt>
      <trkpt lat="43.58125" lon="3.34325">
        <ele>278.8</ele>
        <time>2017-11-19T09:55:29Z</time>
      </trkpt>
      <trkpt lat="43.58126" lon="3.34329">
        <ele>279.2</ele>
        <time>2017-11-19T09:55:31Z</time>
      </trkpt>
      <trkpt lat="43.58127" lon="3.34333">
        <ele>279.4</ele>
        <time>2017-11-19T09:55:33Z</time>
      </trkpt>
      <trkpt lat="43.58129" lon="3.34337">
        <ele>279.7</ele>
        <time>2017-11-19T09:55:35Z</time>
      </trkpt>
      <trkpt lat="43.58131" lon="3.34341">
        <ele>279.9</ele>
        <time>2017-11-19T09:55:37Z</time>
      </trkpt>
      <trkpt lat="43.58133" lon="3.34345">
        <ele>280.3</ele>
        <time>2017-11-19T09:55:39Z</time>
      </trkpt>
      <trkpt lat="43.58135" lon="3.34349">
        <ele>280.9</ele>
        <time>2017-11-19T09:55:41Z</time>
      </trkpt>
      <trkpt lat="43.58136" lon="3.34354">
        <ele>281.5</ele>
        <time>2017-11-19T09:55:43Z</time>
      </trkpt>
      <trkpt lat="43.58137" lon="3.34359">
        <ele>281.8</ele>
        <time>2017-11-19T09:55:45Z</time>
      </trkpt>
      <trkpt lat="43.58139" lon="3.34363">
        <ele>282.1</ele>
        <time>2017-11-19T09:55:47Z</time>
      </trkpt>
      <trkpt lat="43.58141" lon="3.34367">
        <ele>282.5</ele>
        <time>2017-11-19T09:55:49Z</time>
      </trkpt>
      <trkpt lat="43.58143" lon="3.34372">
        <ele>283.1</ele>
        <time>2017-11-19T09:55:51Z</time>
      </trkpt>
      <trkpt lat="43.58144" lon="3.34376">
        <ele>283.8</ele>
        <time>2017-11-19T09:55:53Z</time>
      </trkpt>
      <trkpt lat="43.58146" lon="3.34381">
        <ele>284.6</ele>
        <time>2017-11-19T09:55:55Z</time>
      </trkpt>
      <trkpt lat="43.58149" lon="3.34383">
        <ele>284.9</ele>
        <time>2017-11-19T09:55:57Z</time>
      </trkpt>
      <trkpt lat="43.58152" lon="3.34386">
        <ele>285.2</ele>
        <time>2017-11-19T09:55:59Z</time>
      </trkpt>
      <trkpt lat="43.58155" lon="3.34389">
        <ele>285.5</ele>
        <time>2017-11-19T09:56:01Z</time>
      </trkpt>
      <trkpt lat="43.58158" lon="3.34393">
        <ele>286.1</ele>
        <time>2017-11-19T09:56:03Z</time>
      </trkpt>
      <trkpt lat="43.58161" lon="3.34396">
        <ele>286.8</ele>
        <time>2017-11-19T09:56:05Z</time>
      </trkpt>
      <trkpt lat="43.58163" lon="3.34399">
        <ele>287.2</ele>
        <time>2017-11-19T09:56:07Z</time>
      </trkpt>
      <trkpt lat="43.58166" lon="3.34403">
        <ele>287.4</ele>
        <time>2017-11-19T09:56:09Z</time>
      </trkpt>
      <trkpt lat="43.58169" lon="3.34407">
        <ele>287.7</ele>
        <time>2017-11-19T09:56:11Z</time>
      </trkpt>
      <trkpt lat="43.58171" lon="3.3441">
        <ele>288</ele>
        <time>2017-11-19T09:56:13Z</time>
      </trkpt>
      <trkpt lat="43.58174" lon="3.34414">
        <ele>288.7</ele>
        <time>2017-11-19T09:56:15Z</time>
      </trkpt>
      <trkpt lat="43.58177" lon="3.34418">
        <ele>289.4</ele>
        <time>2017-11-19T09:56:17Z</time>
      </trkpt>
      <trkpt lat="43.58179" lon="3.34421">
        <ele>290.1</ele>
        <time>2017-11-19T09:56:19Z</time>
      </trkpt>
      <trkpt lat="43.58182" lon="3.34424">
        <ele>290.6</ele>
        <time>2017-11-19T09:56:21Z</time>
      </trkpt>
      <trkpt lat="43.58184" lon="3.34428">
        <ele>291.1</ele>
        <time>2017-11-19T09:56:23Z</time>
      </trkpt>
      <trkpt lat="43.58186" lon="3.34431">
        <ele>291.7</ele>
        <time>2017-11-19T09:56:25Z</time>
      </trkpt>
      <trkpt lat="43.58188" lon="3.34434">
        <ele>292.3</ele>
        <time>2017-11-19T09:56:27Z</time>
      </trkpt>
      <trkpt lat="43.58191" lon="3.34438">
        <ele>292.8</ele>
        <time>2017-11-19T09:56:29Z</time>
      </trkpt>
      <trkpt lat="43.58194" lon="3.34442">
        <ele>293.2</ele>
        <time>2017-11-19T09:56:31Z</time>
      </trkpt>
      <trkpt lat="43.58197" lon="3.34446">
        <ele>293.9</ele>
        <time>2017-11-19T09:56:33Z</time>
      </trkpt>
      <trkpt lat="43.582" lon="3.34448">
        <ele>294.6</ele>
        <time>2017-11-19T09:56:35Z</time>
      </trkpt>
      <trkpt lat="43.58203" lon="3.3445">
        <ele>295</ele>
        <time>2017-11-19T09:56:37Z</time>
      </trkpt>
      <trkpt lat="43.58205" lon="3.34452">
        <ele>295.3</ele>
        <time>2017-11-19T09:56:39Z</time>
      </trkpt>
      <trkpt lat="43.58208" lon="3.34455">
        <ele>295.6</ele>
        <time>2017-11-19T09:56:41Z</time>
      </trkpt>
      <trkpt lat="43.58212" lon="3.34457">
        <ele>296.3</ele>
        <time>2017-11-19T09:56:43Z</time>
      </trkpt>
      <trkpt lat="43.58215" lon="3.34458">
        <ele>297</ele>
        <time>2017-11-19T09:56:45Z</time>
      </trkpt>
      <trkpt lat="43.58218" lon="3.34458">
        <ele>297.6</ele>
        <time>2017-11-19T09:56:47Z</time>
      </trkpt>
      <trkpt lat="43.58221" lon="3.3446">
        <ele>298.1</ele>
        <time>2017-11-19T09:56:49Z</time>
      </trkpt>
      <trkpt lat="43.58224" lon="3.34461">
        <ele>298.8</ele>
        <time>2017-11-19T09:56:51Z</time>
      </trkpt>
      <trkpt lat="43.58228" lon="3.34463">
        <ele>299.5</ele>
        <time>2017-11-19T09:56:54Z</time>
      </trkpt>
      <trkpt lat="43.58231" lon="3.34465">
        <ele>299.8</ele>
        <time>2017-11-19T09:56:57Z</time>
      </trkpt>
      <trkpt lat="43.58233" lon="3.34467">
        <ele>300.1</ele>
        <time>2017-11-19T09:56:59Z</time>
      </trkpt>
      <trkpt lat="43.58238" lon="3.34467">
        <ele>300.6</ele>
        <time>2017-11-19T09:57:02Z</time>
      </trkpt>
      <trkpt lat="43.58241" lon="3.3447">
        <ele>301.4</ele>
        <time>2017-11-19T09:57:05Z</time>
      </trkpt>
      <trkpt lat="43.58246" lon="3.3447">
        <ele>302.3</ele>
        <time>2017-11-19T09:57:08Z</time>
      </trkpt>
      <trkpt lat="43.58249" lon="3.34467">
        <ele>302.9</ele>
        <time>2017-11-19T09:57:13Z</time>
      </trkpt>
      <trkpt lat="43.58249" lon="3.34464">
        <ele>303.4</ele>
        <time>2017-11-19T09:57:37Z</time>
      </trkpt>
      <trkpt lat="43.58252" lon="3.34463">
        <ele>303.9</ele>
        <time>2017-11-19T09:57:47Z</time>
      </trkpt>
      <trkpt lat="43.58254" lon="3.34466">
        <ele>304.3</ele>
        <time>2017-11-19T09:58:22Z</time>
      </trkpt>
      <trkpt lat="43.58255" lon="3.3447">
        <ele>304.7</ele>
        <time>2017-11-19T09:58:24Z</time>
      </trkpt>
      <trkpt lat="43.58255" lon="3.34475">
        <ele>304.9</ele>
        <time>2017-11-19T09:58:26Z</time>
      </trkpt>
      <trkpt lat="43.58255" lon="3.34478">
        <ele>304.5</ele>
        <time>2017-11-19T09:58:30Z</time>
      </trkpt>
      <trkpt lat="43.58257" lon="3.34482">
        <ele>304</ele>
        <time>2017-11-19T09:58:31Z</time>
      </trkpt>
      <trkpt lat="43.58259" lon="3.34486">
        <ele>304</ele>
        <time>2017-11-19T09:58:32Z</time>
      </trkpt>
      <trkpt lat="43.58262" lon="3.34493">
        <ele>302.8</ele>
        <time>2017-11-19T09:58:33Z</time>
      </trkpt>
      <trkpt lat="43.58264" lon="3.34502">
        <ele>301.5</ele>
        <time>2017-11-19T09:58:34Z</time>
      </trkpt>
      <trkpt lat="43.58268" lon="3.34509">
        <ele>300.2</ele>
        <time>2017-11-19T09:58:35Z</time>
      </trkpt>
      <trkpt lat="43.58271" lon="3.34516">
        <ele>299.5</ele>
        <time>2017-11-19T09:58:36Z</time>
      </trkpt>
      <trkpt lat="43.58274" lon="3.34524">
        <ele>298.3</ele>
        <time>2017-11-19T09:58:37Z</time>
      </trkpt>
      <trkpt lat="43.58278" lon="3.34529">
        <ele>297</ele>
        <time>2017-11-19T09:58:38Z</time>
      </trkpt>
      <trkpt lat="43.58282" lon="3.34534">
        <ele>296.1</ele>
        <time>2017-11-19T09:58:39Z</time>
      </trkpt>
      <trkpt lat="43.58284" lon="3.34539">
        <ele>295.7</ele>
        <time>2017-11-19T09:58:40Z</time>
      </trkpt>
      <trkpt lat="43.58286" lon="3.34542">
        <ele>295.5</ele>
        <time>2017-11-19T09:58:41Z</time>
      </trkpt>
      <trkpt lat="43.58291" lon="3.34544">
        <ele>294.7</ele>
        <time>2017-11-19T09:58:43Z</time>
      </trkpt>
      <trkpt lat="43.58293" lon="3.34548">
        <ele>294.4</ele>
        <time>2017-11-19T09:58:44Z</time>
      </trkpt>
      <trkpt lat="43.58296" lon="3.34552">
        <ele>293.8</ele>
        <time>2017-11-19T09:58:45Z</time>
      </trkpt>
      <trkpt lat="43.58298" lon="3.34555">
        <ele>293.6</ele>
        <time>2017-11-19T09:58:46Z</time>
      </trkpt>
      <trkpt lat="43.58303" lon="3.34559">
        <ele>292.9</ele>
        <time>2017-11-19T09:58:47Z</time>
      </trkpt>
      <trkpt lat="43.58308" lon="3.34564">
        <ele>291.4</ele>
        <time>2017-11-19T09:58:48Z</time>
      </trkpt>
      <trkpt lat="43.58312" lon="3.34569">
        <ele>290.7</ele>
        <time>2017-11-19T09:58:49Z</time>
      </trkpt>
      <trkpt lat="43.58317" lon="3.34572">
        <ele>289.8</ele>
        <time>2017-11-19T09:58:50Z</time>
      </trkpt>
      <trkpt lat="43.58321" lon="3.34573">
        <ele>289.1</ele>
        <time>2017-11-19T09:58:51Z</time>
      </trkpt>
      <trkpt lat="43.58327" lon="3.34578">
        <ele>287.9</ele>
        <time>2017-11-19T09:58:52Z</time>
      </trkpt>
      <trkpt lat="43.58331" lon="3.34584">
        <ele>286.6</ele>
        <time>2017-11-19T09:58:53Z</time>
      </trkpt>
      <trkpt lat="43.58336" lon="3.34592">
        <ele>285.5</ele>
        <time>2017-11-19T09:58:54Z</time>
      </trkpt>
      <trkpt lat="43.58341" lon="3.34598">
        <ele>283.9</ele>
        <time>2017-11-19T09:58:55Z</time>
      </trkpt>
      <trkpt lat="43.58345" lon="3.34604">
        <ele>283.2</ele>
        <time>2017-11-19T09:58:56Z</time>
      </trkpt>
      <trkpt lat="43.5835" lon="3.34608">
        <ele>282.4</ele>
        <time>2017-11-19T09:58:58Z</time>
      </trkpt>
      <trkpt lat="43.58351" lon="3.34612">
        <ele>281.7</ele>
        <time>2017-11-19T09:59:00Z</time>
      </trkpt>
      <trkpt lat="43.58352" lon="3.3462">
        <ele>281.4</ele>
        <time>2017-11-19T09:59:02Z</time>
      </trkpt>
      <trkpt lat="43.58352" lon="3.34629">
        <ele>281.1</ele>
        <time>2017-11-19T09:59:04Z</time>
      </trkpt>
      <trkpt lat="43.58351" lon="3.34635">
        <ele>280.9</ele>
        <time>2017-11-19T09:59:05Z</time>
      </trkpt>
      <trkpt lat="43.58351" lon="3.3464">
        <ele>280.7</ele>
        <time>2017-11-19T09:59:06Z</time>
      </trkpt>
      <trkpt lat="43.58351" lon="3.34646">
        <ele>280.3</ele>
        <time>2017-11-19T09:59:07Z</time>
      </trkpt>
      <trkpt lat="43.58351" lon="3.34651">
        <ele>280.1</ele>
        <time>2017-11-19T09:59:08Z</time>
      </trkpt>
      <trkpt lat="43.5835" lon="3.34659">
        <ele>279.8</ele>
        <time>2017-11-19T09:59:09Z</time>
      </trkpt>
      <trkpt lat="43.5835" lon="3.34667">
        <ele>279.6</ele>
        <time>2017-11-19T09:59:10Z</time>
      </trkpt>
      <trkpt lat="43.58351" lon="3.34676">
        <ele>279.3</ele>
        <time>2017-11-19T09:59:11Z</time>
      </trkpt>
      <trkpt lat="43.58351" lon="3.34685">
        <ele>279</ele>
        <time>2017-11-19T09:59:12Z</time>
      </trkpt>
      <trkpt lat="43.58351" lon="3.34695">
        <ele>278.7</ele>
        <time>2017-11-19T09:59:13Z</time>
      </trkpt>
      <trkpt lat="43.58351" lon="3.34705">
        <ele>278.4</ele>
        <time>2017-11-19T09:59:14Z</time>
      </trkpt>
      <trkpt lat="43.58352" lon="3.34714">
        <ele>277.8</ele>
        <time>2017-11-19T09:59:15Z</time>
      </trkpt>
      <trkpt lat="43.58353" lon="3.34724">
        <ele>277.3</ele>
        <time>2017-11-19T09:59:16Z</time>
      </trkpt>
      <trkpt lat="43.58355" lon="3.34731">
        <ele>276.8</ele>
        <time>2017-11-19T09:59:17Z</time>
      </trkpt>
      <trkpt lat="43.58358" lon="3.34741">
        <ele>275.6</ele>
        <time>2017-11-19T09:59:18Z</time>
      </trkpt>
      <trkpt lat="43.58362" lon="3.34751">
        <ele>274.8</ele>
        <time>2017-11-19T09:59:19Z</time>
      </trkpt>
      <trkpt lat="43.58365" lon="3.34757">
        <ele>274.2</ele>
        <time>2017-11-19T09:59:20Z</time>
      </trkpt>
      <trkpt lat="43.58369" lon="3.34764">
        <ele>273.3</ele>
        <time>2017-11-19T09:59:21Z</time>
      </trkpt>
      <trkpt lat="43.58373" lon="3.34771">
        <ele>272.2</ele>
        <time>2017-11-19T09:59:22Z</time>
      </trkpt>
      <trkpt lat="43.58378" lon="3.3478">
        <ele>271.1</ele>
        <time>2017-11-19T09:59:23Z</time>
      </trkpt>
      <trkpt lat="43.58383" lon="3.34789">
        <ele>270.3</ele>
        <time>2017-11-19T09:59:24Z</time>
      </trkpt>
      <trkpt lat="43.58385" lon="3.34799">
        <ele>269.4</ele>
        <time>2017-11-19T09:59:25Z</time>
      </trkpt>
      <trkpt lat="43.58386" lon="3.34808">
        <ele>268.7</ele>
        <time>2017-11-19T09:59:26Z</time>
      </trkpt>
      <trkpt lat="43.58387" lon="3.3482">
        <ele>268.2</ele>
        <time>2017-11-19T09:59:27Z</time>
      </trkpt>
      <trkpt lat="43.58388" lon="3.34832">
        <ele>266.6</ele>
        <time>2017-11-19T09:59:28Z</time>
      </trkpt>
      <trkpt lat="43.58389" lon="3.34844">
        <ele>265.7</ele>
        <time>2017-11-19T09:59:29Z</time>
      </trkpt>
      <trkpt lat="43.58389" lon="3.34856">
        <ele>265</ele>
        <time>2017-11-19T09:59:30Z</time>
      </trkpt>
      <trkpt lat="43.58389" lon="3.34866">
        <ele>263.9</ele>
        <time>2017-11-19T09:59:31Z</time>
      </trkpt>
      <trkpt lat="43.58387" lon="3.34877">
        <ele>263.4</ele>
        <time>2017-11-19T09:59:32Z</time>
      </trkpt>
      <trkpt lat="43.58384" lon="3.34888">
        <ele>263.3</ele>
        <time>2017-11-19T09:59:33Z</time>
      </trkpt>
      <trkpt lat="43.5838" lon="3.34899">
        <ele>262.6</ele>
        <time>2017-11-19T09:59:34Z</time>
      </trkpt>
      <trkpt lat="43.58376" lon="3.34911">
        <ele>262.2</ele>
        <time>2017-11-19T09:59:35Z</time>
      </trkpt>
      <trkpt lat="43.58373" lon="3.34924">
        <ele>261.2</ele>
        <time>2017-11-19T09:59:36Z</time>
      </trkpt>
      <trkpt lat="43.5837" lon="3.34936">
        <ele>260.3</ele>
        <time>2017-11-19T09:59:37Z</time>
      </trkpt>
      <trkpt lat="43.58367" lon="3.34947">
        <ele>259.2</ele>
        <time>2017-11-19T09:59:38Z</time>
      </trkpt>
      <trkpt lat="43.58363" lon="3.34957">
        <ele>258.7</ele>
        <time>2017-11-19T09:59:39Z</time>
      </trkpt>
      <trkpt lat="43.58358" lon="3.34967">
        <ele>258.6</ele>
        <time>2017-11-19T09:59:40Z</time>
      </trkpt>
      <trkpt lat="43.58354" lon="3.34976">
        <ele>258.1</ele>
        <time>2017-11-19T09:59:41Z</time>
      </trkpt>
      <trkpt lat="43.5835" lon="3.34983">
        <ele>257.5</ele>
        <time>2017-11-19T09:59:42Z</time>
      </trkpt>
      <trkpt lat="43.58346" lon="3.34988">
        <ele>257.5</ele>
        <time>2017-11-19T09:59:43Z</time>
      </trkpt>
      <trkpt lat="43.58341" lon="3.34993">
        <ele>256.7</ele>
        <time>2017-11-19T09:59:44Z</time>
      </trkpt>
      <trkpt lat="43.58337" lon="3.35">
        <ele>256.6</ele>
        <time>2017-11-19T09:59:45Z</time>
      </trkpt>
      <trkpt lat="43.5833" lon="3.35004">
        <ele>256.5</ele>
        <time>2017-11-19T09:59:46Z</time>
      </trkpt>
      <trkpt lat="43.58326" lon="3.35011">
        <ele>255.6</ele>
        <time>2017-11-19T09:59:47Z</time>
      </trkpt>
      <trkpt lat="43.58321" lon="3.35017">
        <ele>255.4</ele>
        <time>2017-11-19T09:59:48Z</time>
      </trkpt>
      <trkpt lat="43.58315" lon="3.35021">
        <ele>255.1</ele>
        <time>2017-11-19T09:59:49Z</time>
      </trkpt>
      <trkpt lat="43.58309" lon="3.35024">
        <ele>254.6</ele>
        <time>2017-11-19T09:59:50Z</time>
      </trkpt>
      <trkpt lat="43.58308" lon="3.35027">
        <ele>254.7</ele>
        <time>2017-11-19T09:59:51Z</time>
      </trkpt>
      <trkpt lat="43.58308" lon="3.35032">
        <ele>253.8</ele>
        <time>2017-11-19T09:59:52Z</time>
      </trkpt>
      <trkpt lat="43.58308" lon="3.35039">
        <ele>253.5</ele>
        <time>2017-11-19T09:59:53Z</time>
      </trkpt>
      <trkpt lat="43.58306" lon="3.35048">
        <ele>252.6</ele>
        <time>2017-11-19T09:59:54Z</time>
      </trkpt>
      <trkpt lat="43.58305" lon="3.35056">
        <ele>251.8</ele>
        <time>2017-11-19T09:59:55Z</time>
      </trkpt>
      <trkpt lat="43.58304" lon="3.35066">
        <ele>251</ele>
        <time>2017-11-19T09:59:56Z</time>
      </trkpt>
      <trkpt lat="43.58299" lon="3.35074">
        <ele>250.1</ele>
        <time>2017-11-19T09:59:57Z</time>
      </trkpt>
      <trkpt lat="43.58297" lon="3.35083">
        <ele>249.1</ele>
        <time>2017-11-19T09:59:58Z</time>
      </trkpt>
      <trkpt lat="43.58295" lon="3.35089">
        <ele>247.8</ele>
        <time>2017-11-19T09:59:59Z</time>
      </trkpt>
      <trkpt lat="43.58296" lon="3.35093">
        <ele>247.4</ele>
        <time>2017-11-19T10:00:00Z</time>
      </trkpt>
      <trkpt lat="43.58299" lon="3.35098">
        <ele>247.1</ele>
        <time>2017-11-19T10:00:01Z</time>
      </trkpt>
      <trkpt lat="43.58302" lon="3.35103">
        <ele>246.8</ele>
        <time>2017-11-19T10:00:02Z</time>
      </trkpt>
      <trkpt lat="43.58303" lon="3.3511">
        <ele>245.9</ele>
        <time>2017-11-19T10:00:03Z</time>
      </trkpt>
      <trkpt lat="43.58306" lon="3.35119">
        <ele>244.9</ele>
        <time>2017-11-19T10:00:04Z</time>
      </trkpt>
      <trkpt lat="43.58308" lon="3.35128">
        <ele>243.7</ele>
        <time>2017-11-19T10:00:05Z</time>
      </trkpt>
      <trkpt lat="43.58308" lon="3.35137">
        <ele>242.6</ele>
        <time>2017-11-19T10:00:06Z</time>
      </trkpt>
      <trkpt lat="43.58309" lon="3.35148">
        <ele>240.8</ele>
        <time>2017-11-19T10:00:07Z</time>
      </trkpt>
      <trkpt lat="43.58312" lon="3.35158">
        <ele>239.5</ele>
        <time>2017-11-19T10:00:08Z</time>
      </trkpt>
      <trkpt lat="43.58315" lon="3.35168">
        <ele>238</ele>
        <time>2017-11-19T10:00:09Z</time>
      </trkpt>
      <trkpt lat="43.58316" lon="3.35177">
        <ele>236.8</ele>
        <time>2017-11-19T10:00:10Z</time>
      </trkpt>
      <trkpt lat="43.58314" lon="3.35187">
        <ele>235.1</ele>
        <time>2017-11-19T10:00:11Z</time>
      </trkpt>
      <trkpt lat="43.58314" lon="3.35193">
        <ele>234.6</ele>
        <time>2017-11-19T10:00:12Z</time>
      </trkpt>
      <trkpt lat="43.58318" lon="3.35198">
        <ele>234</ele>
        <time>2017-11-19T10:00:14Z</time>
      </trkpt>
      <trkpt lat="43.58322" lon="3.35202">
        <ele>233</ele>
        <time>2017-11-19T10:00:15Z</time>
      </trkpt>
      <trkpt lat="43.58326" lon="3.35207">
        <ele>232.3</ele>
        <time>2017-11-19T10:00:16Z</time>
      </trkpt>
      <trkpt lat="43.58329" lon="3.35215">
        <ele>231</ele>
        <time>2017-11-19T10:00:17Z</time>
      </trkpt>
      <trkpt lat="43.58329" lon="3.35224">
        <ele>230</ele>
        <time>2017-11-19T10:00:18Z</time>
      </trkpt>
      <trkpt lat="43.58328" lon="3.35233">
        <ele>229.2</ele>
        <time>2017-11-19T10:00:19Z</time>
      </trkpt>
      <trkpt lat="43.58327" lon="3.35241">
        <ele>228.3</ele>
        <time>2017-11-19T10:00:20Z</time>
      </trkpt>
      <trkpt lat="43.58328" lon="3.3525">
        <ele>227.1</ele>
        <time>2017-11-19T10:00:21Z</time>
      </trkpt>
      <trkpt lat="43.58329" lon="3.35259">
        <ele>226.1</ele>
        <time>2017-11-19T10:00:22Z</time>
      </trkpt>
      <trkpt lat="43.58326" lon="3.35267">
        <ele>225.4</ele>
        <time>2017-11-19T10:00:23Z</time>
      </trkpt>
      <trkpt lat="43.58324" lon="3.35276">
        <ele>224.7</ele>
        <time>2017-11-19T10:00:24Z</time>
      </trkpt>
      <trkpt lat="43.58325" lon="3.35283">
        <ele>223.9</ele>
        <time>2017-11-19T10:00:26Z</time>
      </trkpt>
      <trkpt lat="43.58326" lon="3.35287">
        <ele>223.5</ele>
        <time>2017-11-19T10:00:28Z</time>
      </trkpt>
      <trkpt lat="43.5833" lon="3.35292">
        <ele>223</ele>
        <time>2017-11-19T10:00:30Z</time>
      </trkpt>
      <trkpt lat="43.58331" lon="3.35297">
        <ele>222.7</ele>
        <time>2017-11-19T10:00:31Z</time>
      </trkpt>
      <trkpt lat="43.58332" lon="3.35302">
        <ele>222.4</ele>
        <time>2017-11-19T10:00:32Z</time>
      </trkpt>
      <trkpt lat="43.58333" lon="3.35308">
        <ele>222.2</ele>
        <time>2017-11-19T10:00:33Z</time>
      </trkpt>
      <trkpt lat="43.58334" lon="3.35315">
        <ele>222</ele>
        <time>2017-11-19T10:00:34Z</time>
      </trkpt>
      <trkpt lat="43.58332" lon="3.35321">
        <ele>221.7</ele>
        <time>2017-11-19T10:00:35Z</time>
      </trkpt>
      <trkpt lat="43.5833" lon="3.35329">
        <ele>221.4</ele>
        <time>2017-11-19T10:00:36Z</time>
      </trkpt>
      <trkpt lat="43.58328" lon="3.35336">
        <ele>221.2</ele>
        <time>2017-11-19T10:00:37Z</time>
      </trkpt>
      <trkpt lat="43.58327" lon="3.35343">
        <ele>221</ele>
        <time>2017-11-19T10:00:38Z</time>
      </trkpt>
      <trkpt lat="43.58326" lon="3.3535">
        <ele>220.6</ele>
        <time>2017-11-19T10:00:39Z</time>
      </trkpt>
      <trkpt lat="43.58326" lon="3.35359">
        <ele>219.9</ele>
        <time>2017-11-19T10:00:40Z</time>
      </trkpt>
      <trkpt lat="43.58325" lon="3.35367">
        <ele>219.4</ele>
        <time>2017-11-19T10:00:41Z</time>
      </trkpt>
      <trkpt lat="43.58325" lon="3.35376">
        <ele>219</ele>
        <time>2017-11-19T10:00:42Z</time>
      </trkpt>
      <trkpt lat="43.58324" lon="3.35385">
        <ele>218.6</ele>
        <time>2017-11-19T10:00:43Z</time>
      </trkpt>
      <trkpt lat="43.58324" lon="3.35394">
        <ele>218.2</ele>
        <time>2017-11-19T10:00:44Z</time>
      </trkpt>
      <trkpt lat="43.58323" lon="3.354">
        <ele>217.7</ele>
        <time>2017-11-19T10:00:45Z</time>
      </trkpt>
      <trkpt lat="43.58323" lon="3.35404">
        <ele>217.4</ele>
        <time>2017-11-19T10:00:46Z</time>
      </trkpt>
      <trkpt lat="43.5832" lon="3.3541">
        <ele>216.7</ele>
        <time>2017-11-19T10:00:59Z</time>
      </trkpt>
      <trkpt lat="43.58315" lon="3.35412">
        <ele>216.1</ele>
        <time>2017-11-19T10:01:01Z</time>
      </trkpt>
      <trkpt lat="43.58312" lon="3.35414">
        <ele>215.7</ele>
        <time>2017-11-19T10:01:02Z</time>
      </trkpt>
      <trkpt lat="43.58307" lon="3.35415">
        <ele>215.2</ele>
        <time>2017-11-19T10:01:03Z</time>
      </trkpt>
      <trkpt lat="43.58302" lon="3.35417">
        <ele>212.8</ele>
        <time>2017-11-19T10:01:04Z</time>
      </trkpt>
      <trkpt lat="43.58296" lon="3.35419">
        <ele>210.1</ele>
        <time>2017-11-19T10:01:05Z</time>
      </trkpt>
      <trkpt lat="43.58291" lon="3.35422">
        <ele>207.7</ele>
        <time>2017-11-19T10:01:06Z</time>
      </trkpt>
      <trkpt lat="43.58287" lon="3.35425">
        <ele>205.5</ele>
        <time>2017-11-19T10:01:07Z</time>
      </trkpt>
      <trkpt lat="43.58283" lon="3.35427">
        <ele>203.2</ele>
        <time>2017-11-19T10:01:08Z</time>
      </trkpt>
      <trkpt lat="43.5828" lon="3.35429">
        <ele>201.2</ele>
        <time>2017-11-19T10:01:10Z</time>
      </trkpt>
      <trkpt lat="43.58277" lon="3.35432">
        <ele>198.9</ele>
        <time>2017-11-19T10:01:12Z</time>
      </trkpt>
      <trkpt lat="43.58273" lon="3.35434">
        <ele>196.9</ele>
        <time>2017-11-19T10:01:14Z</time>
      </trkpt>
      <trkpt lat="43.5827" lon="3.35435">
        <ele>194.5</ele>
        <time>2017-11-19T10:01:15Z</time>
      </trkpt>
      <trkpt lat="43.58266" lon="3.35437">
        <ele>192.5</ele>
        <time>2017-11-19T10:01:16Z</time>
      </trkpt>
      <trkpt lat="43.58263" lon="3.35438">
        <ele>190.5</ele>
        <time>2017-11-19T10:01:17Z</time>
      </trkpt>
      <trkpt lat="43.58259" lon="3.35435">
        <ele>188.3</ele>
        <time>2017-11-19T10:01:19Z</time>
      </trkpt>
      <trkpt lat="43.58256" lon="3.35432">
        <ele>186.3</ele>
        <time>2017-11-19T10:01:20Z</time>
      </trkpt>
      <trkpt lat="43.58252" lon="3.35431">
        <ele>184.2</ele>
        <time>2017-11-19T10:01:21Z</time>
      </trkpt>
      <trkpt lat="43.58248" lon="3.3543">
        <ele>182.5</ele>
        <time>2017-11-19T10:01:22Z</time>
      </trkpt>
      <trkpt lat="43.58244" lon="3.3543">
        <ele>179.8</ele>
        <time>2017-11-19T10:01:23Z</time>
      </trkpt>
      <trkpt lat="43.58241" lon="3.35431">
        <ele>177.5</ele>
        <time>2017-11-19T10:01:24Z</time>
      </trkpt>
      <trkpt lat="43.58237" lon="3.35431">
        <ele>175.6</ele>
        <time>2017-11-19T10:01:25Z</time>
      </trkpt>
      <trkpt lat="43.58235" lon="3.35434">
        <ele>173.6</ele>
        <time>2017-11-19T10:01:27Z</time>
      </trkpt>
      <trkpt lat="43.58232" lon="3.35436">
        <ele>171.3</ele>
        <time>2017-11-19T10:01:29Z</time>
      </trkpt>
      <trkpt lat="43.58228" lon="3.35437">
        <ele>169.3</ele>
        <time>2017-11-19T10:01:31Z</time>
      </trkpt>
      <trkpt lat="43.58224" lon="3.35437">
        <ele>167.2</ele>
        <time>2017-11-19T10:01:32Z</time>
      </trkpt>
      <trkpt lat="43.5822" lon="3.35438">
        <ele>167.2</ele>
        <time>2017-11-19T10:01:34Z</time>
      </trkpt>
      <trkpt lat="43.58219" lon="3.35443">
        <ele>167.2</ele>
        <time>2017-11-19T10:01:36Z</time>
      </trkpt>
      <trkpt lat="43.58217" lon="3.35446">
        <ele>167.2</ele>
        <time>2017-11-19T10:01:37Z</time>
      </trkpt>
      <trkpt lat="43.58215" lon="3.35449">
        <ele>167.2</ele>
        <time>2017-11-19T10:01:38Z</time>
      </trkpt>
      <trkpt lat="43.58212" lon="3.3545">
        <ele>167.2</ele>
        <time>2017-11-19T10:01:39Z</time>
      </trkpt>
      <trkpt lat="43.58209" lon="3.35452">
        <ele>167.2</ele>
        <time>2017-11-19T10:01:40Z</time>
      </trkpt>
      <trkpt lat="43.58207" lon="3.35456">
        <ele>167.2</ele>
        <time>2017-11-19T10:01:41Z</time>
      </trkpt>
      <trkpt lat="43.58203" lon="3.35461">
        <ele>167.3</ele>
        <time>2017-11-19T10:01:42Z</time>
      </trkpt>
      <trkpt lat="43.582" lon="3.35468">
        <ele>167.3</ele>
        <time>2017-11-19T10:01:43Z</time>
      </trkpt>
      <trkpt lat="43.58197" lon="3.35476">
        <ele>167.4</ele>
        <time>2017-11-19T10:01:44Z</time>
      </trkpt>
      <trkpt lat="43.58194" lon="3.35484">
        <ele>167.5</ele>
        <time>2017-11-19T10:01:45Z</time>
      </trkpt>
      <trkpt lat="43.58191" lon="3.35491">
        <ele>167.7</ele>
        <time>2017-11-19T10:01:46Z</time>
      </trkpt>
      <trkpt lat="43.58189" lon="3.35498">
        <ele>167.9</ele>
        <time>2017-11-19T10:01:47Z</time>
      </trkpt>
      <trkpt lat="43.58188" lon="3.35505">
        <ele>168.2</ele>
        <time>2017-11-19T10:01:48Z</time>
      </trkpt>
      <trkpt lat="43.58187" lon="3.35511">
        <ele>168.4</ele>
        <time>2017-11-19T10:01:49Z</time>
      </trkpt>
      <trkpt lat="43.58186" lon="3.35517">
        <ele>168.7</ele>
        <time>2017-11-19T10:01:50Z</time>
      </trkpt>
      <trkpt lat="43.58184" lon="3.35521">
        <ele>168.8</ele>
        <time>2017-11-19T10:01:51Z</time>
      </trkpt>
      <trkpt lat="43.58186" lon="3.35526">
        <ele>168.9</ele>
        <time>2017-11-19T10:01:55Z</time>
      </trkpt>
      <trkpt lat="43.58187" lon="3.35522">
        <ele>168.9</ele>
        <time>2017-11-19T10:01:59Z</time>
      </trkpt>
      <trkpt lat="43.58187" lon="3.35517">
        <ele>169</ele>
        <time>2017-11-19T10:02:02Z</time>
      </trkpt>
      <trkpt lat="43.58187" lon="3.35513">
        <ele>169.1</ele>
        <time>2017-11-19T10:02:06Z</time>
      </trkpt>
      <trkpt lat="43.58186" lon="3.35519">
        <ele>169.1</ele>
        <time>2017-11-19T10:02:15Z</time>
      </trkpt>
      <trkpt lat="43.58186" lon="3.35524">
        <ele>169.2</ele>
        <time>2017-11-19T10:02:16Z</time>
      </trkpt>
      <trkpt lat="43.58185" lon="3.35529">
        <ele>169.2</ele>
        <time>2017-11-19T10:02:17Z</time>
      </trkpt>
      <trkpt lat="43.58185" lon="3.35535">
        <ele>169.3</ele>
        <time>2017-11-19T10:02:18Z</time>
      </trkpt>
      <trkpt lat="43.58185" lon="3.35541">
        <ele>169.3</ele>
        <time>2017-11-19T10:02:19Z</time>
      </trkpt>
      <trkpt lat="43.58184" lon="3.35546">
        <ele>169.3</ele>
        <time>2017-11-19T10:02:20Z</time>
      </trkpt>
      <trkpt lat="43.58183" lon="3.35551">
        <ele>169.3</ele>
        <time>2017-11-19T10:02:21Z</time>
      </trkpt>
      <trkpt lat="43.58182" lon="3.35556">
        <ele>169.4</ele>
        <time>2017-11-19T10:02:22Z</time>
      </trkpt>
      <trkpt lat="43.58181" lon="3.35562">
        <ele>169.4</ele>
        <time>2017-11-19T10:02:23Z</time>
      </trkpt>
      <trkpt lat="43.5818" lon="3.35568">
        <ele>169.4</ele>
        <time>2017-11-19T10:02:24Z</time>
      </trkpt>
      <trkpt lat="43.5818" lon="3.35574">
        <ele>169.4</ele>
        <time>2017-11-19T10:02:25Z</time>
      </trkpt>
      <trkpt lat="43.5818" lon="3.3558">
        <ele>169.4</ele>
        <time>2017-11-19T10:02:26Z</time>
      </trkpt>
      <trkpt lat="43.58178" lon="3.35585">
        <ele>169.4</ele>
        <time>2017-11-19T10:02:27Z</time>
      </trkpt>
      <trkpt lat="43.58177" lon="3.3559">
        <ele>169.4</ele>
        <time>2017-11-19T10:02:28Z</time>
      </trkpt>
      <trkpt lat="43.58176" lon="3.35597">
        <ele>169.4</ele>
        <time>2017-11-19T10:02:29Z</time>
      </trkpt>
      <trkpt lat="43.58175" lon="3.35603">
        <ele>169.4</ele>
        <time>2017-11-19T10:02:30Z</time>
      </trkpt>
      <trkpt lat="43.58174" lon="3.35608">
        <ele>169.4</ele>
        <time>2017-11-19T10:02:31Z</time>
      </trkpt>
      <trkpt lat="43.58172" lon="3.35613">
        <ele>169.4</ele>
        <time>2017-11-19T10:02:32Z</time>
      </trkpt>
      <trkpt lat="43.5817" lon="3.35619">
        <ele>169.4</ele>
        <time>2017-11-19T10:02:33Z</time>
      </trkpt>
      <trkpt lat="43.58169" lon="3.35625">
        <ele>169.4</ele>
        <time>2017-11-19T10:02:34Z</time>
      </trkpt>
      <trkpt lat="43.58167" lon="3.35632">
        <ele>169.4</ele>
        <time>2017-11-19T10:02:35Z</time>
      </trkpt>
      <trkpt lat="43.58165" lon="3.35638">
        <ele>169.4</ele>
        <time>2017-11-19T10:02:36Z</time>
      </trkpt>
      <trkpt lat="43.58163" lon="3.35644">
        <ele>169.4</ele>
        <time>2017-11-19T10:02:37Z</time>
      </trkpt>
      <trkpt lat="43.58161" lon="3.3565">
        <ele>169.4</ele>
        <time>2017-11-19T10:02:38Z</time>
      </trkpt>
      <trkpt lat="43.58159" lon="3.35656">
        <ele>169.4</ele>
        <time>2017-11-19T10:02:39Z</time>
      </trkpt>
      <trkpt lat="43.58156" lon="3.35662">
        <ele>169.3</ele>
        <time>2017-11-19T10:02:40Z</time>
      </trkpt>
      <trkpt lat="43.58153" lon="3.35667">
        <ele>169.2</ele>
        <time>2017-11-19T10:02:41Z</time>
      </trkpt>
      <trkpt lat="43.5815" lon="3.35672">
        <ele>169.1</ele>
        <time>2017-11-19T10:02:42Z</time>
      </trkpt>
      <trkpt lat="43.58148" lon="3.35677">
        <ele>169</ele>
        <time>2017-11-19T10:02:43Z</time>
      </trkpt>
      <trkpt lat="43.58145" lon="3.35682">
        <ele>168.9</ele>
        <time>2017-11-19T10:02:44Z</time>
      </trkpt>
      <trkpt lat="43.58143" lon="3.35687">
        <ele>168.6</ele>
        <time>2017-11-19T10:02:45Z</time>
      </trkpt>
      <trkpt lat="43.58141" lon="3.35692">
        <ele>168.3</ele>
        <time>2017-11-19T10:02:46Z</time>
      </trkpt>
      <trkpt lat="43.58139" lon="3.35697">
        <ele>167.9</ele>
        <time>2017-11-19T10:02:47Z</time>
      </trkpt>
      <trkpt lat="43.58136" lon="3.35701">
        <ele>167.6</ele>
        <time>2017-11-19T10:02:48Z</time>
      </trkpt>
      <trkpt lat="43.58134" lon="3.35706">
        <ele>167.4</ele>
        <time>2017-11-19T10:02:49Z</time>
      </trkpt>
      <trkpt lat="43.58132" lon="3.35711">
        <ele>167.1</ele>
        <time>2017-11-19T10:02:50Z</time>
      </trkpt>
      <trkpt lat="43.5813" lon="3.35716">
        <ele>166.9</ele>
        <time>2017-11-19T10:02:51Z</time>
      </trkpt>
      <trkpt lat="43.58128" lon="3.35721">
        <ele>166.5</ele>
        <time>2017-11-19T10:02:52Z</time>
      </trkpt>
      <trkpt lat="43.58126" lon="3.35727">
        <ele>166</ele>
        <time>2017-11-19T10:02:53Z</time>
      </trkpt>
      <trkpt lat="43.58125" lon="3.35733">
        <ele>165.7</ele>
        <time>2017-11-19T10:02:54Z</time>
      </trkpt>
      <trkpt lat="43.58123" lon="3.35739">
        <ele>165.5</ele>
        <time>2017-11-19T10:02:55Z</time>
      </trkpt>
      <trkpt lat="43.58121" lon="3.35746">
        <ele>165.1</ele>
        <time>2017-11-19T10:02:56Z</time>
      </trkpt>
      <trkpt lat="43.58119" lon="3.35754">
        <ele>164.6</ele>
        <time>2017-11-19T10:02:57Z</time>
      </trkpt>
      <trkpt lat="43.58118" lon="3.35762">
        <ele>163.9</ele>
        <time>2017-11-19T10:02:58Z</time>
      </trkpt>
      <trkpt lat="43.58116" lon="3.35769">
        <ele>163.4</ele>
        <time>2017-11-19T10:02:59Z</time>
      </trkpt>
      <trkpt lat="43.58114" lon="3.35778">
        <ele>163.1</ele>
        <time>2017-11-19T10:03:00Z</time>
      </trkpt>
      <trkpt lat="43.58111" lon="3.35787">
        <ele>162.3</ele>
        <time>2017-11-19T10:03:01Z</time>
      </trkpt>
      <trkpt lat="43.58108" lon="3.35796">
        <ele>161.7</ele>
        <time>2017-11-19T10:03:02Z</time>
      </trkpt>
      <trkpt lat="43.58105" lon="3.35804">
        <ele>161.4</ele>
        <time>2017-11-19T10:03:03Z</time>
      </trkpt>
      <trkpt lat="43.58101" lon="3.35813">
        <ele>160.5</ele>
        <time>2017-11-19T10:03:04Z</time>
      </trkpt>
      <trkpt lat="43.58097" lon="3.35823">
        <ele>159.7</ele>
        <time>2017-11-19T10:03:05Z</time>
      </trkpt>
      <trkpt lat="43.58092" lon="3.35833">
        <ele>159.3</ele>
        <time>2017-11-19T10:03:06Z</time>
      </trkpt>
      <trkpt lat="43.58087" lon="3.35844">
        <ele>158.5</ele>
        <time>2017-11-19T10:03:07Z</time>
      </trkpt>
      <trkpt lat="43.58082" lon="3.35855">
        <ele>157.5</ele>
        <time>2017-11-19T10:03:08Z</time>
      </trkpt>
      <trkpt lat="43.58077" lon="3.35866">
        <ele>156.9</ele>
        <time>2017-11-19T10:03:09Z</time>
      </trkpt>
      <trkpt lat="43.58072" lon="3.35878">
        <ele>155.8</ele>
        <time>2017-11-19T10:03:10Z</time>
      </trkpt>
      <trkpt lat="43.58067" lon="3.35889">
        <ele>155.3</ele>
        <time>2017-11-19T10:03:11Z</time>
      </trkpt>
      <trkpt lat="43.58062" lon="3.35901">
        <ele>154.3</ele>
        <time>2017-11-19T10:03:12Z</time>
      </trkpt>
      <trkpt lat="43.58056" lon="3.35914">
        <ele>153.1</ele>
        <time>2017-11-19T10:03:13Z</time>
      </trkpt>
      <trkpt lat="43.5805" lon="3.35926">
        <ele>152.4</ele>
        <time>2017-11-19T10:03:14Z</time>
      </trkpt>
      <trkpt lat="43.58045" lon="3.35938">
        <ele>150.9</ele>
        <time>2017-11-19T10:03:15Z</time>
      </trkpt>
      <trkpt lat="43.58039" lon="3.35951">
        <ele>150.3</ele>
        <time>2017-11-19T10:03:16Z</time>
      </trkpt>
      <trkpt lat="43.58032" lon="3.35964">
        <ele>149.3</ele>
        <time>2017-11-19T10:03:17Z</time>
      </trkpt>
      <trkpt lat="43.58026" lon="3.35977">
        <ele>148.6</ele>
        <time>2017-11-19T10:03:18Z</time>
      </trkpt>
      <trkpt lat="43.58019" lon="3.3599">
        <ele>148.3</ele>
        <time>2017-11-19T10:03:19Z</time>
      </trkpt>
      <trkpt lat="43.58012" lon="3.36002">
        <ele>148</ele>
        <time>2017-11-19T10:03:20Z</time>
      </trkpt>
      <trkpt lat="43.58006" lon="3.36014">
        <ele>147.5</ele>
        <time>2017-11-19T10:03:21Z</time>
      </trkpt>
      <trkpt lat="43.58" lon="3.36027">
        <ele>146.8</ele>
        <time>2017-11-19T10:03:22Z</time>
      </trkpt>
      <trkpt lat="43.57994" lon="3.36039">
        <ele>146.5</ele>
        <time>2017-11-19T10:03:23Z</time>
      </trkpt>
      <trkpt lat="43.57988" lon="3.3605">
        <ele>146.3</ele>
        <time>2017-11-19T10:03:24Z</time>
      </trkpt>
      <trkpt lat="43.57981" lon="3.36061">
        <ele>146.2</ele>
        <time>2017-11-19T10:03:25Z</time>
      </trkpt>
      <trkpt lat="43.57975" lon="3.36072">
        <ele>146.1</ele>
        <time>2017-11-19T10:03:26Z</time>
      </trkpt>
      <trkpt lat="43.57969" lon="3.36083">
        <ele>146.1</ele>
        <time>2017-11-19T10:03:27Z</time>
      </trkpt>
      <trkpt lat="43.57964" lon="3.36093">
        <ele>146.1</ele>
        <time>2017-11-19T10:03:28Z</time>
      </trkpt>
      <trkpt lat="43.57958" lon="3.36102">
        <ele>146</ele>
        <time>2017-11-19T10:03:29Z</time>
      </trkpt>
      <trkpt lat="43.57953" lon="3.36111">
        <ele>146</ele>
        <time>2017-11-19T10:03:30Z</time>
      </trkpt>
      <trkpt lat="43.57947" lon="3.36119">
        <ele>146</ele>
        <time>2017-11-19T10:03:31Z</time>
      </trkpt>
      <trkpt lat="43.57942" lon="3.36127">
        <ele>145.9</ele>
        <time>2017-11-19T10:03:32Z</time>
      </trkpt>
      <trkpt lat="43.57938" lon="3.36134">
        <ele>145.7</ele>
        <time>2017-11-19T10:03:33Z</time>
      </trkpt>
      <trkpt lat="43.57933" lon="3.3614">
        <ele>145.5</ele>
        <time>2017-11-19T10:03:34Z</time>
      </trkpt>
      <trkpt lat="43.57927" lon="3.36144">
        <ele>144.7</ele>
        <time>2017-11-19T10:03:35Z</time>
      </trkpt>
      <trkpt lat="43.57919" lon="3.36147">
        <ele>142.9</ele>
        <time>2017-11-19T10:03:36Z</time>
      </trkpt>
      <trkpt lat="43.57911" lon="3.36148">
        <ele>140.8</ele>
        <time>2017-11-19T10:03:37Z</time>
      </trkpt>
      <trkpt lat="43.57902" lon="3.3615">
        <ele>139.2</ele>
        <time>2017-11-19T10:03:38Z</time>
      </trkpt>
      <trkpt lat="43.57893" lon="3.36151">
        <ele>138.1</ele>
        <time>2017-11-19T10:03:39Z</time>
      </trkpt>
      <trkpt lat="43.57886" lon="3.36153">
        <ele>137.6</ele>
        <time>2017-11-19T10:03:40Z</time>
      </trkpt>
      <trkpt lat="43.57879" lon="3.36156">
        <ele>137</ele>
        <time>2017-11-19T10:03:41Z</time>
      </trkpt>
      <trkpt lat="43.57874" lon="3.3616">
        <ele>136</ele>
        <time>2017-11-19T10:03:42Z</time>
      </trkpt>
      <trkpt lat="43.57867" lon="3.36166">
        <ele>135.1</ele>
        <time>2017-11-19T10:03:43Z</time>
      </trkpt>
      <trkpt lat="43.57863" lon="3.36172">
        <ele>134.4</ele>
        <time>2017-11-19T10:03:44Z</time>
      </trkpt>
      <trkpt lat="43.57859" lon="3.36178">
        <ele>133.7</ele>
        <time>2017-11-19T10:03:45Z</time>
      </trkpt>
      <trkpt lat="43.57855" lon="3.36183">
        <ele>133.4</ele>
        <time>2017-11-19T10:03:46Z</time>
      </trkpt>
      <trkpt lat="43.57854" lon="3.36187">
        <ele>133.2</ele>
        <time>2017-11-19T10:03:47Z</time>
      </trkpt>
      <trkpt lat="43.57853" lon="3.36194">
        <ele>133</ele>
        <time>2017-11-19T10:03:49Z</time>
      </trkpt>
      <trkpt lat="43.57853" lon="3.36198">
        <ele>133</ele>
        <time>2017-11-19T10:03:50Z</time>
      </trkpt>
      <trkpt lat="43.57852" lon="3.36203">
        <ele>132.2</ele>
        <time>2017-11-19T10:03:51Z</time>
      </trkpt>
      <trkpt lat="43.5785" lon="3.36206">
        <ele>131.9</ele>
        <time>2017-11-19T10:03:52Z</time>
      </trkpt>
      <trkpt lat="43.57846" lon="3.3621">
        <ele>131.5</ele>
        <time>2017-11-19T10:03:53Z</time>
      </trkpt>
      <trkpt lat="43.57842" lon="3.36213">
        <ele>130.9</ele>
        <time>2017-11-19T10:03:54Z</time>
      </trkpt>
      <trkpt lat="43.57836" lon="3.36218">
        <ele>130.1</ele>
        <time>2017-11-19T10:03:55Z</time>
      </trkpt>
      <trkpt lat="43.5783" lon="3.36222">
        <ele>128.8</ele>
        <time>2017-11-19T10:03:56Z</time>
      </trkpt>
      <trkpt lat="43.57824" lon="3.36226">
        <ele>127.1</ele>
        <time>2017-11-19T10:03:57Z</time>
      </trkpt>
      <trkpt lat="43.57817" lon="3.36231">
        <ele>126.2</ele>
        <time>2017-11-19T10:03:58Z</time>
      </trkpt>
      <trkpt lat="43.57811" lon="3.36237">
        <ele>125.4</ele>
        <time>2017-11-19T10:03:59Z</time>
      </trkpt>
      <trkpt lat="43.57804" lon="3.36241">
        <ele>124.6</ele>
        <time>2017-11-19T10:04:00Z</time>
      </trkpt>
      <trkpt lat="43.57797" lon="3.36245">
        <ele>123.9</ele>
        <time>2017-11-19T10:04:01Z</time>
      </trkpt>
      <trkpt lat="43.5779" lon="3.36247">
        <ele>123.5</ele>
        <time>2017-11-19T10:04:02Z</time>
      </trkpt>
      <trkpt lat="43.57783" lon="3.36249">
        <ele>123.2</ele>
        <time>2017-11-19T10:04:03Z</time>
      </trkpt>
      <trkpt lat="43.57777" lon="3.36254">
        <ele>123</ele>
        <time>2017-11-19T10:04:04Z</time>
      </trkpt>
      <trkpt lat="43.57771" lon="3.36258">
        <ele>122.8</ele>
        <time>2017-11-19T10:04:05Z</time>
      </trkpt>
      <trkpt lat="43.57766" lon="3.36263">
        <ele>122.6</ele>
        <time>2017-11-19T10:04:06Z</time>
      </trkpt>
      <trkpt lat="43.57762" lon="3.36269">
        <ele>122.4</ele>
        <time>2017-11-19T10:04:07Z</time>
      </trkpt>
      <trkpt lat="43.57757" lon="3.36275">
        <ele>122.2</ele>
        <time>2017-11-19T10:04:08Z</time>
      </trkpt>
      <trkpt lat="43.57752" lon="3.3628">
        <ele>122</ele>
        <time>2017-11-19T10:04:09Z</time>
      </trkpt>
      <trkpt lat="43.57749" lon="3.36283">
        <ele>121.7</ele>
        <time>2017-11-19T10:04:10Z</time>
      </trkpt>
      <trkpt lat="43.57747" lon="3.36285">
        <ele>121.6</ele>
        <time>2017-11-19T10:04:11Z</time>
      </trkpt>
      <trkpt lat="43.57744" lon="3.36291">
        <ele>121.4</ele>
        <time>2017-11-19T10:04:13Z</time>
      </trkpt>
      <trkpt lat="43.57742" lon="3.36298">
        <ele>121.2</ele>
        <time>2017-11-19T10:04:15Z</time>
      </trkpt>
      <trkpt lat="43.5774" lon="3.36304">
        <ele>121</ele>
        <time>2017-11-19T10:04:17Z</time>
      </trkpt>
      <trkpt lat="43.57737" lon="3.36304">
        <ele>121</ele>
        <time>2017-11-19T10:04:19Z</time>
      </trkpt>
      <trkpt lat="43.57736" lon="3.36301">
        <ele>121</ele>
        <time>2017-11-19T10:04:20Z</time>
      </trkpt>
      <trkpt lat="43.57733" lon="3.36296">
        <ele>121</ele>
        <time>2017-11-19T10:04:21Z</time>
      </trkpt>
      <trkpt lat="43.57729" lon="3.36292">
        <ele>121</ele>
        <time>2017-11-19T10:04:22Z</time>
      </trkpt>
      <trkpt lat="43.57725" lon="3.36289">
        <ele>121</ele>
        <time>2017-11-19T10:04:23Z</time>
      </trkpt>
      <trkpt lat="43.57722" lon="3.36287">
        <ele>121</ele>
        <time>2017-11-19T10:04:24Z</time>
      </trkpt>
      <trkpt lat="43.57718" lon="3.36286">
        <ele>121</ele>
        <time>2017-11-19T10:04:25Z</time>
      </trkpt>
      <trkpt lat="43.57714" lon="3.36285">
        <ele>121</ele>
        <time>2017-11-19T10:04:26Z</time>
      </trkpt>
      <trkpt lat="43.5771" lon="3.36283">
        <ele>121</ele>
        <time>2017-11-19T10:04:27Z</time>
      </trkpt>
      <trkpt lat="43.57707" lon="3.36281">
        <ele>121.2</ele>
        <time>2017-11-19T10:04:28Z</time>
      </trkpt>
      <trkpt lat="43.57705" lon="3.36279">
        <ele>121.5</ele>
        <time>2017-11-19T10:04:29Z</time>
      </trkpt>
      <trkpt lat="43.57703" lon="3.36275">
        <ele>121.8</ele>
        <time>2017-11-19T10:04:30Z</time>
      </trkpt>
      <trkpt lat="43.577" lon="3.3627">
        <ele>122.2</ele>
        <time>2017-11-19T10:04:32Z</time>
      </trkpt>
      <trkpt lat="43.57697" lon="3.36264">
        <ele>122.5</ele>
        <time>2017-11-19T10:04:34Z</time>
      </trkpt>
      <trkpt lat="43.57696" lon="3.36261">
        <ele>122.6</ele>
        <time>2017-11-19T10:04:35Z</time>
      </trkpt>
      <trkpt lat="43.57694" lon="3.36258">
        <ele>122.7</ele>
        <time>2017-11-19T10:04:36Z</time>
      </trkpt>
      <trkpt lat="43.57691" lon="3.36253">
        <ele>122.9</ele>
        <time>2017-11-19T10:04:38Z</time>
      </trkpt>
      <trkpt lat="43.57689" lon="3.36248">
        <ele>123.2</ele>
        <time>2017-11-19T10:04:40Z</time>
      </trkpt>
      <trkpt lat="43.57687" lon="3.36244">
        <ele>123.3</ele>
        <time>2017-11-19T10:04:41Z</time>
      </trkpt>
      <trkpt lat="43.57685" lon="3.36238">
        <ele>123.6</ele>
        <time>2017-11-19T10:04:43Z</time>
      </trkpt>
      <trkpt lat="43.57683" lon="3.36234">
        <ele>123.6</ele>
        <time>2017-11-19T10:04:44Z</time>
      </trkpt>
      <trkpt lat="43.57682" lon="3.3623">
        <ele>123.7</ele>
        <time>2017-11-19T10:04:45Z</time>
      </trkpt>
      <trkpt lat="43.57681" lon="3.36226">
        <ele>123.8</ele>
        <time>2017-11-19T10:04:46Z</time>
      </trkpt>
      <trkpt lat="43.57679" lon="3.36221">
        <ele>123.9</ele>
        <time>2017-11-19T10:04:47Z</time>
      </trkpt>
      <trkpt lat="43.57678" lon="3.36217">
        <ele>124</ele>
        <time>2017-11-19T10:04:48Z</time>
      </trkpt>
      <trkpt lat="43.57677" lon="3.36213">
        <ele>124</ele>
        <time>2017-11-19T10:04:49Z</time>
      </trkpt>
      <trkpt lat="43.57676" lon="3.3621">
        <ele>124</ele>
        <time>2017-11-19T10:04:50Z</time>
      </trkpt>
      <trkpt lat="43.57673" lon="3.36205">
        <ele>124</ele>
        <time>2017-11-19T10:04:52Z</time>
      </trkpt>
      <trkpt lat="43.57672" lon="3.36201">
        <ele>124</ele>
        <time>2017-11-19T10:04:54Z</time>
      </trkpt>
      <trkpt lat="43.57669" lon="3.36201">
        <ele>124</ele>
        <time>2017-11-19T10:04:56Z</time>
      </trkpt>
      <trkpt lat="43.57666" lon="3.362">
        <ele>124</ele>
        <time>2017-11-19T10:04:57Z</time>
      </trkpt>
      <trkpt lat="43.57662" lon="3.362">
        <ele>123.3</ele>
        <time>2017-11-19T10:04:58Z</time>
      </trkpt>
      <trkpt lat="43.57659" lon="3.36204">
        <ele>122.8</ele>
        <time>2017-11-19T10:04:59Z</time>
      </trkpt>
      <trkpt lat="43.57654" lon="3.36208">
        <ele>122.2</ele>
        <time>2017-11-19T10:05:00Z</time>
      </trkpt>
      <trkpt lat="43.5765" lon="3.36213">
        <ele>121.8</ele>
        <time>2017-11-19T10:05:01Z</time>
      </trkpt>
      <trkpt lat="43.57645" lon="3.36218">
        <ele>121.5</ele>
        <time>2017-11-19T10:05:02Z</time>
      </trkpt>
      <trkpt lat="43.5764" lon="3.36223">
        <ele>121.3</ele>
        <time>2017-11-19T10:05:03Z</time>
      </trkpt>
      <trkpt lat="43.57635" lon="3.36227">
        <ele>121.2</ele>
        <time>2017-11-19T10:05:04Z</time>
      </trkpt>
      <trkpt lat="43.57629" lon="3.36232">
        <ele>121</ele>
        <time>2017-11-19T10:05:05Z</time>
      </trkpt>
      <trkpt lat="43.57624" lon="3.36237">
        <ele>120.8</ele>
        <time>2017-11-19T10:05:06Z</time>
      </trkpt>
      <trkpt lat="43.57618" lon="3.36243">
        <ele>120.7</ele>
        <time>2017-11-19T10:05:07Z</time>
      </trkpt>
      <trkpt lat="43.57613" lon="3.36249">
        <ele>120.2</ele>
        <time>2017-11-19T10:05:08Z</time>
      </trkpt>
      <trkpt lat="43.57608" lon="3.36256">
        <ele>119.5</ele>
        <time>2017-11-19T10:05:09Z</time>
      </trkpt>
      <trkpt lat="43.57602" lon="3.36263">
        <ele>119</ele>
        <time>2017-11-19T10:05:10Z</time>
      </trkpt>
      <trkpt lat="43.57596" lon="3.3627">
        <ele>118.9</ele>
        <time>2017-11-19T10:05:11Z</time>
      </trkpt>
      <trkpt lat="43.57589" lon="3.36277">
        <ele>117.2</ele>
        <time>2017-11-19T10:05:12Z</time>
      </trkpt>
      <trkpt lat="43.57585" lon="3.36283">
        <ele>115.8</ele>
        <time>2017-11-19T10:05:13Z</time>
      </trkpt>
      <trkpt lat="43.57581" lon="3.36291">
        <ele>114.4</ele>
        <time>2017-11-19T10:05:14Z</time>
      </trkpt>
      <trkpt lat="43.5758" lon="3.36299">
        <ele>113.2</ele>
        <time>2017-11-19T10:05:15Z</time>
      </trkpt>
      <trkpt lat="43.57578" lon="3.36308">
        <ele>112.7</ele>
        <time>2017-11-19T10:05:16Z</time>
      </trkpt>
      <trkpt lat="43.57577" lon="3.36316">
        <ele>112.4</ele>
        <time>2017-11-19T10:05:17Z</time>
      </trkpt>
      <trkpt lat="43.57577" lon="3.36326">
        <ele>112.1</ele>
        <time>2017-11-19T10:05:18Z</time>
      </trkpt>
      <trkpt lat="43.57577" lon="3.36335">
        <ele>111.7</ele>
        <time>2017-11-19T10:05:19Z</time>
      </trkpt>
      <trkpt lat="43.57577" lon="3.36344">
        <ele>111.4</ele>
        <time>2017-11-19T10:05:20Z</time>
      </trkpt>
      <trkpt lat="43.57577" lon="3.36354">
        <ele>111.1</ele>
        <time>2017-11-19T10:05:21Z</time>
      </trkpt>
      <trkpt lat="43.57577" lon="3.36362">
        <ele>111</ele>
        <time>2017-11-19T10:05:22Z</time>
      </trkpt>
      <trkpt lat="43.57577" lon="3.36367">
        <ele>111</ele>
        <time>2017-11-19T10:05:23Z</time>
      </trkpt>
      <trkpt lat="43.57576" lon="3.36371">
        <ele>111</ele>
        <time>2017-11-19T10:05:25Z</time>
      </trkpt>
      <trkpt lat="43.57574" lon="3.36374">
        <ele>111</ele>
        <time>2017-11-19T10:05:26Z</time>
      </trkpt>
      <trkpt lat="43.57571" lon="3.36374">
        <ele>111.1</ele>
        <time>2017-11-19T10:05:27Z</time>
      </trkpt>
      <trkpt lat="43.57566" lon="3.36374">
        <ele>111.1</ele>
        <time>2017-11-19T10:05:28Z</time>
      </trkpt>
      <trkpt lat="43.57562" lon="3.36374">
        <ele>111.1</ele>
        <time>2017-11-19T10:05:29Z</time>
      </trkpt>
      <trkpt lat="43.57558" lon="3.36374">
        <ele>111.2</ele>
        <time>2017-11-19T10:05:30Z</time>
      </trkpt>
      <trkpt lat="43.57553" lon="3.36373">
        <ele>111.2</ele>
        <time>2017-11-19T10:05:31Z</time>
      </trkpt>
      <trkpt lat="43.57549" lon="3.36373">
        <ele>111.2</ele>
        <time>2017-11-19T10:05:32Z</time>
      </trkpt>
      <trkpt lat="43.57544" lon="3.36372">
        <ele>111.2</ele>
        <time>2017-11-19T10:05:33Z</time>
      </trkpt>
      <trkpt lat="43.57539" lon="3.36371">
        <ele>111.2</ele>
        <time>2017-11-19T10:05:34Z</time>
      </trkpt>
      <trkpt lat="43.57534" lon="3.3637">
        <ele>111.2</ele>
        <time>2017-11-19T10:05:35Z</time>
      </trkpt>
      <trkpt lat="43.57528" lon="3.36368">
        <ele>111.2</ele>
        <time>2017-11-19T10:05:36Z</time>
      </trkpt>
      <trkpt lat="43.57523" lon="3.36367">
        <ele>111.2</ele>
        <time>2017-11-19T10:05:37Z</time>
      </trkpt>
      <trkpt lat="43.57519" lon="3.36366">
        <ele>111.2</ele>
        <time>2017-11-19T10:05:38Z</time>
      </trkpt>
      <trkpt lat="43.57514" lon="3.36366">
        <ele>111.1</ele>
        <time>2017-11-19T10:05:39Z</time>
      </trkpt>
      <trkpt lat="43.57508" lon="3.36365">
        <ele>111</ele>
        <time>2017-11-19T10:05:40Z</time>
      </trkpt>
      <trkpt lat="43.57503" lon="3.36364">
        <ele>111</ele>
        <time>2017-11-19T10:05:41Z</time>
      </trkpt>
      <trkpt lat="43.57498" lon="3.36363">
        <ele>110.9</ele>
        <time>2017-11-19T10:05:42Z</time>
      </trkpt>
      <trkpt lat="43.57493" lon="3.36363">
        <ele>110.8</ele>
        <time>2017-11-19T10:05:43Z</time>
      </trkpt>
      <trkpt lat="43.57487" lon="3.36361">
        <ele>110.8</ele>
        <time>2017-11-19T10:05:44Z</time>
      </trkpt>
      <trkpt lat="43.57482" lon="3.3636">
        <ele>110.7</ele>
        <time>2017-11-19T10:05:45Z</time>
      </trkpt>
      <trkpt lat="43.57477" lon="3.36359">
        <ele>110.6</ele>
        <time>2017-11-19T10:05:46Z</time>
      </trkpt>
      <trkpt lat="43.57472" lon="3.36358">
        <ele>110.6</ele>
        <time>2017-11-19T10:05:47Z</time>
      </trkpt>
      <trkpt lat="43.57467" lon="3.36357">
        <ele>110.5</ele>
        <time>2017-11-19T10:05:48Z</time>
      </trkpt>
      <trkpt lat="43.57463" lon="3.36356">
        <ele>110.5</ele>
        <time>2017-11-19T10:05:49Z</time>
      </trkpt>
      <trkpt lat="43.57458" lon="3.36355">
        <ele>110.4</ele>
        <time>2017-11-19T10:05:50Z</time>
      </trkpt>
      <trkpt lat="43.57453" lon="3.36354">
        <ele>110.3</ele>
        <time>2017-11-19T10:05:51Z</time>
      </trkpt>
      <trkpt lat="43.57448" lon="3.36353">
        <ele>110.3</ele>
        <time>2017-11-19T10:05:52Z</time>
      </trkpt>
      <trkpt lat="43.57443" lon="3.36353">
        <ele>110.2</ele>
        <time>2017-11-19T10:05:53Z</time>
      </trkpt>
      <trkpt lat="43.57438" lon="3.36353">
        <ele>110.1</ele>
        <time>2017-11-19T10:05:54Z</time>
      </trkpt>
      <trkpt lat="43.57433" lon="3.36353">
        <ele>110</ele>
        <time>2017-11-19T10:05:55Z</time>
      </trkpt>
      <trkpt lat="43.57428" lon="3.36354">
        <ele>109.9</ele>
        <time>2017-11-19T10:05:56Z</time>
      </trkpt>
      <trkpt lat="43.57424" lon="3.36355">
        <ele>109.9</ele>
        <time>2017-11-19T10:05:57Z</time>
      </trkpt>
      <trkpt lat="43.5742" lon="3.36356">
        <ele>109.8</ele>
        <time>2017-11-19T10:05:59Z</time>
      </trkpt>
      <trkpt lat="43.57414" lon="3.36359">
        <ele>109.7</ele>
        <time>2017-11-19T10:06:01Z</time>
      </trkpt>
      <trkpt lat="43.57411" lon="3.36359">
        <ele>109.7</ele>
        <time>2017-11-19T10:06:02Z</time>
      </trkpt>
      <trkpt lat="43.57407" lon="3.3636">
        <ele>109.6</ele>
        <time>2017-11-19T10:06:03Z</time>
      </trkpt>
      <trkpt lat="43.57403" lon="3.36361">
        <ele>109.5</ele>
        <time>2017-11-19T10:06:04Z</time>
      </trkpt>
      <trkpt lat="43.57399" lon="3.36362">
        <ele>109.4</ele>
        <time>2017-11-19T10:06:05Z</time>
      </trkpt>
      <trkpt lat="43.57395" lon="3.36363">
        <ele>109.3</ele>
        <time>2017-11-19T10:06:06Z</time>
      </trkpt>
      <trkpt lat="43.5739" lon="3.36364">
        <ele>109.3</ele>
        <time>2017-11-19T10:06:07Z</time>
      </trkpt>
      <trkpt lat="43.57386" lon="3.36366">
        <ele>109.2</ele>
        <time>2017-11-19T10:06:08Z</time>
      </trkpt>
      <trkpt lat="43.57382" lon="3.36367">
        <ele>109.2</ele>
        <time>2017-11-19T10:06:09Z</time>
      </trkpt>
      <trkpt lat="43.57377" lon="3.36369">
        <ele>109.1</ele>
        <time>2017-11-19T10:06:10Z</time>
      </trkpt>
      <trkpt lat="43.57372" lon="3.36369">
        <ele>109.1</ele>
        <time>2017-11-19T10:06:11Z</time>
      </trkpt>
      <trkpt lat="43.57368" lon="3.3637">
        <ele>109</ele>
        <time>2017-11-19T10:06:12Z</time>
      </trkpt>
      <trkpt lat="43.57363" lon="3.36369">
        <ele>109</ele>
        <time>2017-11-19T10:06:13Z</time>
      </trkpt>
      <trkpt lat="43.57359" lon="3.36369">
        <ele>109</ele>
        <time>2017-11-19T10:06:14Z</time>
      </trkpt>
      <trkpt lat="43.57354" lon="3.36368">
        <ele>109</ele>
        <time>2017-11-19T10:06:15Z</time>
      </trkpt>
      <trkpt lat="43.57349" lon="3.36367">
        <ele>109</ele>
        <time>2017-11-19T10:06:16Z</time>
      </trkpt>
      <trkpt lat="43.57345" lon="3.36365">
        <ele>109</ele>
        <time>2017-11-19T10:06:17Z</time>
      </trkpt>
      <trkpt lat="43.5734" lon="3.36364">
        <ele>109.3</ele>
        <time>2017-11-19T10:06:18Z</time>
      </trkpt>
      <trkpt lat="43.57335" lon="3.36362">
        <ele>109.8</ele>
        <time>2017-11-19T10:06:19Z</time>
      </trkpt>
      <trkpt lat="43.57331" lon="3.36361">
        <ele>110.1</ele>
        <time>2017-11-19T10:06:20Z</time>
      </trkpt>
      <trkpt lat="43.57326" lon="3.3636">
        <ele>110.3</ele>
        <time>2017-11-19T10:06:21Z</time>
      </trkpt>
      <trkpt lat="43.57322" lon="3.3636">
        <ele>110.6</ele>
        <time>2017-11-19T10:06:22Z</time>
      </trkpt>
      <trkpt lat="43.57318" lon="3.36359">
        <ele>110.8</ele>
        <time>2017-11-19T10:06:23Z</time>
      </trkpt>
      <trkpt lat="43.57314" lon="3.36359">
        <ele>111.1</ele>
        <time>2017-11-19T10:06:24Z</time>
      </trkpt>
      <trkpt lat="43.57309" lon="3.36358">
        <ele>111.3</ele>
        <time>2017-11-19T10:06:25Z</time>
      </trkpt>
      <trkpt lat="43.57305" lon="3.36358">
        <ele>111.6</ele>
        <time>2017-11-19T10:06:26Z</time>
      </trkpt>
      <trkpt lat="43.57301" lon="3.36357">
        <ele>111.8</ele>
        <time>2017-11-19T10:06:27Z</time>
      </trkpt>
      <trkpt lat="43.57299" lon="3.36353">
        <ele>112</ele>
        <time>2017-11-19T10:06:28Z</time>
      </trkpt>
      <trkpt lat="43.57299" lon="3.36349">
        <ele>112</ele>
        <time>2017-11-19T10:06:29Z</time>
      </trkpt>
      <trkpt lat="43.573" lon="3.36344">
        <ele>111.9</ele>
        <time>2017-11-19T10:06:31Z</time>
      </trkpt>
      <trkpt lat="43.57304" lon="3.36342">
        <ele>111.8</ele>
        <time>2017-11-19T10:06:33Z</time>
      </trkpt>
      <trkpt lat="43.57307" lon="3.36342">
        <ele>111.7</ele>
        <time>2017-11-19T10:06:35Z</time>
      </trkpt>
      <trkpt lat="43.57309" lon="3.36343">
        <ele>111.6</ele>
        <time>2017-11-19T10:06:37Z</time>
      </trkpt>
      <trkpt lat="43.57313" lon="3.36342">
        <ele>111.4</ele>
        <time>2017-11-19T10:06:41Z</time>
      </trkpt>
      <trkpt lat="43.57326" lon="3.3633">
        <ele>110.8</ele>
        <time>2017-11-19T10:07:39Z</time>
      </trkpt>
      <trkpt lat="43.57335" lon="3.36314">
        <ele>110.2</ele>
        <time>2017-11-19T10:09:22Z</time>
      </trkpt>
    </trkseg>
  </trk>
</gpx>